<?xml version="1.0" encoding="UTF-8" standalone="no" ?>
<gpx xmlns="http://www.topografix.com/GPX/1/1" xmlns:xsi="http://www.w3.org/2001/XMLSchema-instance" xsi:schemaLocation="http://www.topografix.com/GPX/1/1 http://www.topografix.com/GPX/1/1/gpx.xsd" version="1.1" creator="VisuGPX - https://www.visugpx.com">
  <metadata>
    <name>NE-O-Indre Sautron Treillières Sucé St Mars Le Cellier Oudon Thouaré Nantes</name>
    <desc><![CDATA[NE-O-Indre Sautron Treillières Sucé St Mars Le Cellier Oudon Thouaré Nantes]]></desc>
  </metadata>
  <trk>
    <name><![CDATA[2021-08-14 08:28 +02:00]]></name>
    <trkseg>
      <trkpt lat="47.16771" lon="-1.62649">
        <ele>71</ele>
        <time>2021-08-14T06:28:49.300Z</time>
      </trkpt>
      <trkpt lat="47.16781" lon="-1.62651">
        <ele>65</ele>
        <time>2021-08-14T06:30:36.000Z</time>
      </trkpt>
      <trkpt lat="47.16785" lon="-1.62666">
        <ele>69</ele>
        <time>2021-08-14T06:30:40.000Z</time>
      </trkpt>
      <trkpt lat="47.16779" lon="-1.62679">
        <ele>70</ele>
        <time>2021-08-14T06:30:43.000Z</time>
      </trkpt>
      <trkpt lat="47.16765" lon="-1.62678">
        <ele>72</ele>
        <time>2021-08-14T06:30:45.000Z</time>
      </trkpt>
      <trkpt lat="47.16753" lon="-1.62674">
        <ele>72</ele>
        <time>2021-08-14T06:30:47.000Z</time>
      </trkpt>
      <trkpt lat="47.16741" lon="-1.62681">
        <ele>72</ele>
        <time>2021-08-14T06:30:49.000Z</time>
      </trkpt>
      <trkpt lat="47.1673" lon="-1.62688">
        <ele>72</ele>
        <time>2021-08-14T06:30:51.000Z</time>
      </trkpt>
      <trkpt lat="47.16722" lon="-1.62699">
        <ele>72</ele>
        <time>2021-08-14T06:30:53.000Z</time>
      </trkpt>
      <trkpt lat="47.16723" lon="-1.62714">
        <ele>72</ele>
        <time>2021-08-14T06:30:55.000Z</time>
      </trkpt>
      <trkpt lat="47.1673" lon="-1.62727">
        <ele>72</ele>
        <time>2021-08-14T06:30:57.000Z</time>
      </trkpt>
      <trkpt lat="47.16737" lon="-1.62741">
        <ele>72</ele>
        <time>2021-08-14T06:30:59.000Z</time>
      </trkpt>
      <trkpt lat="47.16746" lon="-1.62754">
        <ele>72</ele>
        <time>2021-08-14T06:31:01.000Z</time>
      </trkpt>
      <trkpt lat="47.16755" lon="-1.62766">
        <ele>72</ele>
        <time>2021-08-14T06:31:03.000Z</time>
      </trkpt>
      <trkpt lat="47.16766" lon="-1.62777">
        <ele>71</ele>
        <time>2021-08-14T06:31:05.000Z</time>
      </trkpt>
      <trkpt lat="47.16777" lon="-1.62787">
        <ele>71</ele>
        <time>2021-08-14T06:31:07.000Z</time>
      </trkpt>
      <trkpt lat="47.16788" lon="-1.62797">
        <ele>70</ele>
        <time>2021-08-14T06:31:09.000Z</time>
      </trkpt>
      <trkpt lat="47.16799" lon="-1.62807">
        <ele>70</ele>
        <time>2021-08-14T06:31:11.000Z</time>
      </trkpt>
      <trkpt lat="47.1681" lon="-1.62816">
        <ele>70</ele>
        <time>2021-08-14T06:31:13.000Z</time>
      </trkpt>
      <trkpt lat="47.1682" lon="-1.62827">
        <ele>70</ele>
        <time>2021-08-14T06:31:15.000Z</time>
      </trkpt>
      <trkpt lat="47.16831" lon="-1.62837">
        <ele>71</ele>
        <time>2021-08-14T06:31:17.000Z</time>
      </trkpt>
      <trkpt lat="47.16841" lon="-1.62847">
        <ele>71</ele>
        <time>2021-08-14T06:31:19.000Z</time>
      </trkpt>
      <trkpt lat="47.16851" lon="-1.62857">
        <ele>71</ele>
        <time>2021-08-14T06:31:21.000Z</time>
      </trkpt>
      <trkpt lat="47.16861" lon="-1.62867">
        <ele>72</ele>
        <time>2021-08-14T06:31:23.000Z</time>
      </trkpt>
      <trkpt lat="47.1687" lon="-1.62879">
        <ele>72</ele>
        <time>2021-08-14T06:31:25.000Z</time>
      </trkpt>
      <trkpt lat="47.16878" lon="-1.62893">
        <ele>72</ele>
        <time>2021-08-14T06:31:27.000Z</time>
      </trkpt>
      <trkpt lat="47.16885" lon="-1.62909">
        <ele>72</ele>
        <time>2021-08-14T06:31:29.000Z</time>
      </trkpt>
      <trkpt lat="47.16889" lon="-1.62927">
        <ele>73</ele>
        <time>2021-08-14T06:31:31.000Z</time>
      </trkpt>
      <trkpt lat="47.16892" lon="-1.62945">
        <ele>74</ele>
        <time>2021-08-14T06:31:33.000Z</time>
      </trkpt>
      <trkpt lat="47.16893" lon="-1.62964">
        <ele>74</ele>
        <time>2021-08-14T06:31:35.000Z</time>
      </trkpt>
      <trkpt lat="47.16893" lon="-1.62983">
        <ele>74</ele>
        <time>2021-08-14T06:31:37.000Z</time>
      </trkpt>
      <trkpt lat="47.16891" lon="-1.63002">
        <ele>74</ele>
        <time>2021-08-14T06:31:39.000Z</time>
      </trkpt>
      <trkpt lat="47.16888" lon="-1.6302">
        <ele>74</ele>
        <time>2021-08-14T06:31:41.000Z</time>
      </trkpt>
      <trkpt lat="47.16887" lon="-1.63038">
        <ele>74</ele>
        <time>2021-08-14T06:31:43.000Z</time>
      </trkpt>
      <trkpt lat="47.16888" lon="-1.63058">
        <ele>75</ele>
        <time>2021-08-14T06:31:45.000Z</time>
      </trkpt>
      <trkpt lat="47.1689" lon="-1.63076">
        <ele>76</ele>
        <time>2021-08-14T06:31:47.000Z</time>
      </trkpt>
      <trkpt lat="47.16892" lon="-1.63095">
        <ele>76</ele>
        <time>2021-08-14T06:31:49.000Z</time>
      </trkpt>
      <trkpt lat="47.16896" lon="-1.63112">
        <ele>77</ele>
        <time>2021-08-14T06:31:51.000Z</time>
      </trkpt>
      <trkpt lat="47.16901" lon="-1.63129">
        <ele>77</ele>
        <time>2021-08-14T06:31:53.000Z</time>
      </trkpt>
      <trkpt lat="47.16906" lon="-1.63145">
        <ele>78</ele>
        <time>2021-08-14T06:31:55.000Z</time>
      </trkpt>
      <trkpt lat="47.16912" lon="-1.63161">
        <ele>78</ele>
        <time>2021-08-14T06:31:57.000Z</time>
      </trkpt>
      <trkpt lat="47.16918" lon="-1.63177">
        <ele>78</ele>
        <time>2021-08-14T06:31:59.000Z</time>
      </trkpt>
      <trkpt lat="47.16926" lon="-1.63192">
        <ele>79</ele>
        <time>2021-08-14T06:32:01.000Z</time>
      </trkpt>
      <trkpt lat="47.16934" lon="-1.63205">
        <ele>79</ele>
        <time>2021-08-14T06:32:03.000Z</time>
      </trkpt>
      <trkpt lat="47.16941" lon="-1.63217">
        <ele>78</ele>
        <time>2021-08-14T06:32:05.000Z</time>
      </trkpt>
      <trkpt lat="47.16949" lon="-1.63229">
        <ele>78</ele>
        <time>2021-08-14T06:32:07.000Z</time>
      </trkpt>
      <trkpt lat="47.16957" lon="-1.63239">
        <ele>78</ele>
        <time>2021-08-14T06:32:09.000Z</time>
      </trkpt>
      <trkpt lat="47.16965" lon="-1.63248">
        <ele>78</ele>
        <time>2021-08-14T06:32:11.000Z</time>
      </trkpt>
      <trkpt lat="47.16966" lon="-1.63264">
        <ele>78</ele>
        <time>2021-08-14T06:32:14.000Z</time>
      </trkpt>
      <trkpt lat="47.16958" lon="-1.63277">
        <ele>78</ele>
        <time>2021-08-14T06:32:16.000Z</time>
      </trkpt>
      <trkpt lat="47.16949" lon="-1.63293">
        <ele>78</ele>
        <time>2021-08-14T06:32:18.000Z</time>
      </trkpt>
      <trkpt lat="47.16941" lon="-1.63307">
        <ele>79</ele>
        <time>2021-08-14T06:32:20.000Z</time>
      </trkpt>
      <trkpt lat="47.16931" lon="-1.63322">
        <ele>79</ele>
        <time>2021-08-14T06:32:22.000Z</time>
      </trkpt>
      <trkpt lat="47.16922" lon="-1.63336">
        <ele>80</ele>
        <time>2021-08-14T06:32:24.000Z</time>
      </trkpt>
      <trkpt lat="47.16913" lon="-1.63349">
        <ele>80</ele>
        <time>2021-08-14T06:32:26.000Z</time>
      </trkpt>
      <trkpt lat="47.16903" lon="-1.63363">
        <ele>81</ele>
        <time>2021-08-14T06:32:28.000Z</time>
      </trkpt>
      <trkpt lat="47.16894" lon="-1.63377">
        <ele>80</ele>
        <time>2021-08-14T06:32:30.000Z</time>
      </trkpt>
      <trkpt lat="47.16885" lon="-1.63392">
        <ele>80</ele>
        <time>2021-08-14T06:32:32.000Z</time>
      </trkpt>
      <trkpt lat="47.16876" lon="-1.63406">
        <ele>81</ele>
        <time>2021-08-14T06:32:34.000Z</time>
      </trkpt>
      <trkpt lat="47.16868" lon="-1.63421">
        <ele>82</ele>
        <time>2021-08-14T06:32:36.000Z</time>
      </trkpt>
      <trkpt lat="47.16859" lon="-1.63435">
        <ele>82</ele>
        <time>2021-08-14T06:32:38.000Z</time>
      </trkpt>
      <trkpt lat="47.16851" lon="-1.63449">
        <ele>83</ele>
        <time>2021-08-14T06:32:40.000Z</time>
      </trkpt>
      <trkpt lat="47.16843" lon="-1.63464">
        <ele>83</ele>
        <time>2021-08-14T06:32:42.000Z</time>
      </trkpt>
      <trkpt lat="47.16834" lon="-1.63478">
        <ele>82</ele>
        <time>2021-08-14T06:32:44.000Z</time>
      </trkpt>
      <trkpt lat="47.16826" lon="-1.63493">
        <ele>83</ele>
        <time>2021-08-14T06:32:46.000Z</time>
      </trkpt>
      <trkpt lat="47.16817" lon="-1.63507">
        <ele>83</ele>
        <time>2021-08-14T06:32:48.000Z</time>
      </trkpt>
      <trkpt lat="47.16808" lon="-1.63522">
        <ele>83</ele>
        <time>2021-08-14T06:32:50.000Z</time>
      </trkpt>
      <trkpt lat="47.168" lon="-1.63537">
        <ele>83</ele>
        <time>2021-08-14T06:32:52.000Z</time>
      </trkpt>
      <trkpt lat="47.16791" lon="-1.63552">
        <ele>83</ele>
        <time>2021-08-14T06:32:54.000Z</time>
      </trkpt>
      <trkpt lat="47.16782" lon="-1.63566">
        <ele>83</ele>
        <time>2021-08-14T06:32:56.000Z</time>
      </trkpt>
      <trkpt lat="47.16773" lon="-1.63581">
        <ele>82</ele>
        <time>2021-08-14T06:32:58.000Z</time>
      </trkpt>
      <trkpt lat="47.16765" lon="-1.63596">
        <ele>82</ele>
        <time>2021-08-14T06:33:00.000Z</time>
      </trkpt>
      <trkpt lat="47.16756" lon="-1.6361">
        <ele>82</ele>
        <time>2021-08-14T06:33:02.000Z</time>
      </trkpt>
      <trkpt lat="47.16747" lon="-1.63623">
        <ele>82</ele>
        <time>2021-08-14T06:33:04.000Z</time>
      </trkpt>
      <trkpt lat="47.16743" lon="-1.63639">
        <ele>81</ele>
        <time>2021-08-14T06:33:06.000Z</time>
      </trkpt>
      <trkpt lat="47.16754" lon="-1.63648">
        <ele>80</ele>
        <time>2021-08-14T06:33:08.000Z</time>
      </trkpt>
      <trkpt lat="47.16766" lon="-1.63652">
        <ele>79</ele>
        <time>2021-08-14T06:33:10.000Z</time>
      </trkpt>
      <trkpt lat="47.16779" lon="-1.63657">
        <ele>79</ele>
        <time>2021-08-14T06:33:12.000Z</time>
      </trkpt>
      <trkpt lat="47.16792" lon="-1.63662">
        <ele>79</ele>
        <time>2021-08-14T06:33:14.000Z</time>
      </trkpt>
      <trkpt lat="47.16804" lon="-1.63667">
        <ele>78</ele>
        <time>2021-08-14T06:33:16.000Z</time>
      </trkpt>
      <trkpt lat="47.16817" lon="-1.63671">
        <ele>78</ele>
        <time>2021-08-14T06:33:18.000Z</time>
      </trkpt>
      <trkpt lat="47.1683" lon="-1.63676">
        <ele>77</ele>
        <time>2021-08-14T06:33:20.000Z</time>
      </trkpt>
      <trkpt lat="47.16843" lon="-1.63681">
        <ele>77</ele>
        <time>2021-08-14T06:33:22.000Z</time>
      </trkpt>
      <trkpt lat="47.16856" lon="-1.63687">
        <ele>77</ele>
        <time>2021-08-14T06:33:24.000Z</time>
      </trkpt>
      <trkpt lat="47.16869" lon="-1.63691">
        <ele>77</ele>
        <time>2021-08-14T06:33:26.000Z</time>
      </trkpt>
      <trkpt lat="47.16882" lon="-1.63696">
        <ele>77</ele>
        <time>2021-08-14T06:33:28.000Z</time>
      </trkpt>
      <trkpt lat="47.16895" lon="-1.63701">
        <ele>77</ele>
        <time>2021-08-14T06:33:30.000Z</time>
      </trkpt>
      <trkpt lat="47.16909" lon="-1.63707">
        <ele>76</ele>
        <time>2021-08-14T06:33:32.000Z</time>
      </trkpt>
      <trkpt lat="47.16922" lon="-1.63712">
        <ele>76</ele>
        <time>2021-08-14T06:33:34.000Z</time>
      </trkpt>
      <trkpt lat="47.16936" lon="-1.63716">
        <ele>76</ele>
        <time>2021-08-14T06:33:36.000Z</time>
      </trkpt>
      <trkpt lat="47.16949" lon="-1.63721">
        <ele>76</ele>
        <time>2021-08-14T06:33:38.000Z</time>
      </trkpt>
      <trkpt lat="47.16962" lon="-1.63726">
        <ele>76</ele>
        <time>2021-08-14T06:33:40.000Z</time>
      </trkpt>
      <trkpt lat="47.16976" lon="-1.63731">
        <ele>77</ele>
        <time>2021-08-14T06:33:42.000Z</time>
      </trkpt>
      <trkpt lat="47.16989" lon="-1.63737">
        <ele>76</ele>
        <time>2021-08-14T06:33:44.000Z</time>
      </trkpt>
      <trkpt lat="47.17002" lon="-1.63741">
        <ele>76</ele>
        <time>2021-08-14T06:33:46.000Z</time>
      </trkpt>
      <trkpt lat="47.17015" lon="-1.63746">
        <ele>76</ele>
        <time>2021-08-14T06:33:48.000Z</time>
      </trkpt>
      <trkpt lat="47.17028" lon="-1.63751">
        <ele>75</ele>
        <time>2021-08-14T06:33:50.000Z</time>
      </trkpt>
      <trkpt lat="47.17041" lon="-1.63757">
        <ele>75</ele>
        <time>2021-08-14T06:33:52.000Z</time>
      </trkpt>
      <trkpt lat="47.17053" lon="-1.63766">
        <ele>75</ele>
        <time>2021-08-14T06:33:54.000Z</time>
      </trkpt>
      <trkpt lat="47.17062" lon="-1.6378">
        <ele>75</ele>
        <time>2021-08-14T06:33:56.000Z</time>
      </trkpt>
      <trkpt lat="47.17069" lon="-1.63799">
        <ele>75</ele>
        <time>2021-08-14T06:33:58.000Z</time>
      </trkpt>
      <trkpt lat="47.17075" lon="-1.63817">
        <ele>76</ele>
        <time>2021-08-14T06:34:00.000Z</time>
      </trkpt>
      <trkpt lat="47.17081" lon="-1.63834">
        <ele>76</ele>
        <time>2021-08-14T06:34:02.000Z</time>
      </trkpt>
      <trkpt lat="47.17087" lon="-1.63852">
        <ele>76</ele>
        <time>2021-08-14T06:34:04.000Z</time>
      </trkpt>
      <trkpt lat="47.17096" lon="-1.63879">
        <ele>76</ele>
        <time>2021-08-14T06:34:07.000Z</time>
      </trkpt>
      <trkpt lat="47.17103" lon="-1.63895">
        <ele>77</ele>
        <time>2021-08-14T06:34:09.000Z</time>
      </trkpt>
      <trkpt lat="47.17109" lon="-1.63912">
        <ele>77</ele>
        <time>2021-08-14T06:34:11.000Z</time>
      </trkpt>
      <trkpt lat="47.17115" lon="-1.63926">
        <ele>77</ele>
        <time>2021-08-14T06:34:13.000Z</time>
      </trkpt>
      <trkpt lat="47.17122" lon="-1.63938">
        <ele>78</ele>
        <time>2021-08-14T06:34:15.000Z</time>
      </trkpt>
      <trkpt lat="47.17131" lon="-1.63944">
        <ele>78</ele>
        <time>2021-08-14T06:34:17.000Z</time>
      </trkpt>
      <trkpt lat="47.17138" lon="-1.63969">
        <ele>78</ele>
        <time>2021-08-14T06:34:21.000Z</time>
      </trkpt>
      <trkpt lat="47.17139" lon="-1.63988">
        <ele>78</ele>
        <time>2021-08-14T06:34:23.000Z</time>
      </trkpt>
      <trkpt lat="47.17136" lon="-1.64017">
        <ele>79</ele>
        <time>2021-08-14T06:34:26.000Z</time>
      </trkpt>
      <trkpt lat="47.17134" lon="-1.64037">
        <ele>79</ele>
        <time>2021-08-14T06:34:28.000Z</time>
      </trkpt>
      <trkpt lat="47.17131" lon="-1.64067">
        <ele>78</ele>
        <time>2021-08-14T06:34:31.000Z</time>
      </trkpt>
      <trkpt lat="47.17127" lon="-1.64097">
        <ele>78</ele>
        <time>2021-08-14T06:34:34.000Z</time>
      </trkpt>
      <trkpt lat="47.17124" lon="-1.64117">
        <ele>78</ele>
        <time>2021-08-14T06:34:36.000Z</time>
      </trkpt>
      <trkpt lat="47.17121" lon="-1.64136">
        <ele>78</ele>
        <time>2021-08-14T06:34:38.000Z</time>
      </trkpt>
      <trkpt lat="47.17118" lon="-1.64156">
        <ele>77</ele>
        <time>2021-08-14T06:34:40.000Z</time>
      </trkpt>
      <trkpt lat="47.17116" lon="-1.64176">
        <ele>77</ele>
        <time>2021-08-14T06:34:42.000Z</time>
      </trkpt>
      <trkpt lat="47.17115" lon="-1.64196">
        <ele>77</ele>
        <time>2021-08-14T06:34:44.000Z</time>
      </trkpt>
      <trkpt lat="47.17113" lon="-1.64216">
        <ele>77</ele>
        <time>2021-08-14T06:34:46.000Z</time>
      </trkpt>
      <trkpt lat="47.17111" lon="-1.64237">
        <ele>77</ele>
        <time>2021-08-14T06:34:48.000Z</time>
      </trkpt>
      <trkpt lat="47.17109" lon="-1.64256">
        <ele>77</ele>
        <time>2021-08-14T06:34:50.000Z</time>
      </trkpt>
      <trkpt lat="47.17107" lon="-1.64276">
        <ele>78</ele>
        <time>2021-08-14T06:34:52.000Z</time>
      </trkpt>
      <trkpt lat="47.17104" lon="-1.64296">
        <ele>77</ele>
        <time>2021-08-14T06:34:54.000Z</time>
      </trkpt>
      <trkpt lat="47.17102" lon="-1.64316">
        <ele>77</ele>
        <time>2021-08-14T06:34:56.000Z</time>
      </trkpt>
      <trkpt lat="47.171" lon="-1.64336">
        <ele>77</ele>
        <time>2021-08-14T06:34:58.000Z</time>
      </trkpt>
      <trkpt lat="47.17098" lon="-1.64356">
        <ele>77</ele>
        <time>2021-08-14T06:35:00.000Z</time>
      </trkpt>
      <trkpt lat="47.17097" lon="-1.64376">
        <ele>77</ele>
        <time>2021-08-14T06:35:02.000Z</time>
      </trkpt>
      <trkpt lat="47.17095" lon="-1.64397">
        <ele>77</ele>
        <time>2021-08-14T06:35:04.000Z</time>
      </trkpt>
      <trkpt lat="47.17094" lon="-1.64418">
        <ele>77</ele>
        <time>2021-08-14T06:35:06.000Z</time>
      </trkpt>
      <trkpt lat="47.17093" lon="-1.64439">
        <ele>77</ele>
        <time>2021-08-14T06:35:08.000Z</time>
      </trkpt>
      <trkpt lat="47.17092" lon="-1.64459">
        <ele>77</ele>
        <time>2021-08-14T06:35:10.000Z</time>
      </trkpt>
      <trkpt lat="47.17091" lon="-1.6448">
        <ele>77</ele>
        <time>2021-08-14T06:35:12.000Z</time>
      </trkpt>
      <trkpt lat="47.1709" lon="-1.64501">
        <ele>77</ele>
        <time>2021-08-14T06:35:14.000Z</time>
      </trkpt>
      <trkpt lat="47.1709" lon="-1.64522">
        <ele>77</ele>
        <time>2021-08-14T06:35:16.000Z</time>
      </trkpt>
      <trkpt lat="47.17089" lon="-1.64543">
        <ele>77</ele>
        <time>2021-08-14T06:35:18.000Z</time>
      </trkpt>
      <trkpt lat="47.17088" lon="-1.64563">
        <ele>77</ele>
        <time>2021-08-14T06:35:20.000Z</time>
      </trkpt>
      <trkpt lat="47.17088" lon="-1.64584">
        <ele>78</ele>
        <time>2021-08-14T06:35:22.000Z</time>
      </trkpt>
      <trkpt lat="47.17088" lon="-1.64604">
        <ele>78</ele>
        <time>2021-08-14T06:35:24.000Z</time>
      </trkpt>
      <trkpt lat="47.17088" lon="-1.64625">
        <ele>78</ele>
        <time>2021-08-14T06:35:26.000Z</time>
      </trkpt>
      <trkpt lat="47.17088" lon="-1.64645">
        <ele>78</ele>
        <time>2021-08-14T06:35:28.000Z</time>
      </trkpt>
      <trkpt lat="47.17088" lon="-1.64666">
        <ele>77</ele>
        <time>2021-08-14T06:35:30.000Z</time>
      </trkpt>
      <trkpt lat="47.17088" lon="-1.64687">
        <ele>77</ele>
        <time>2021-08-14T06:35:32.000Z</time>
      </trkpt>
      <trkpt lat="47.17089" lon="-1.64708">
        <ele>77</ele>
        <time>2021-08-14T06:35:34.000Z</time>
      </trkpt>
      <trkpt lat="47.17089" lon="-1.64729">
        <ele>78</ele>
        <time>2021-08-14T06:35:36.000Z</time>
      </trkpt>
      <trkpt lat="47.1709" lon="-1.64748">
        <ele>78</ele>
        <time>2021-08-14T06:35:38.000Z</time>
      </trkpt>
      <trkpt lat="47.17091" lon="-1.64768">
        <ele>78</ele>
        <time>2021-08-14T06:35:40.000Z</time>
      </trkpt>
      <trkpt lat="47.17092" lon="-1.64788">
        <ele>78</ele>
        <time>2021-08-14T06:35:42.000Z</time>
      </trkpt>
      <trkpt lat="47.17093" lon="-1.64809">
        <ele>78</ele>
        <time>2021-08-14T06:35:44.000Z</time>
      </trkpt>
      <trkpt lat="47.17094" lon="-1.64831">
        <ele>77</ele>
        <time>2021-08-14T06:35:46.000Z</time>
      </trkpt>
      <trkpt lat="47.17096" lon="-1.64854">
        <ele>77</ele>
        <time>2021-08-14T06:35:48.000Z</time>
      </trkpt>
      <trkpt lat="47.17098" lon="-1.64874">
        <ele>78</ele>
        <time>2021-08-14T06:35:50.000Z</time>
      </trkpt>
      <trkpt lat="47.171" lon="-1.64896">
        <ele>78</ele>
        <time>2021-08-14T06:35:52.000Z</time>
      </trkpt>
      <trkpt lat="47.17102" lon="-1.64916">
        <ele>78</ele>
        <time>2021-08-14T06:35:54.000Z</time>
      </trkpt>
      <trkpt lat="47.17103" lon="-1.64937">
        <ele>78</ele>
        <time>2021-08-14T06:35:56.000Z</time>
      </trkpt>
      <trkpt lat="47.17105" lon="-1.64958">
        <ele>77</ele>
        <time>2021-08-14T06:35:58.000Z</time>
      </trkpt>
      <trkpt lat="47.17106" lon="-1.64978">
        <ele>78</ele>
        <time>2021-08-14T06:36:00.000Z</time>
      </trkpt>
      <trkpt lat="47.17108" lon="-1.64998">
        <ele>78</ele>
        <time>2021-08-14T06:36:02.000Z</time>
      </trkpt>
      <trkpt lat="47.17109" lon="-1.65018">
        <ele>78</ele>
        <time>2021-08-14T06:36:04.000Z</time>
      </trkpt>
      <trkpt lat="47.1711" lon="-1.65038">
        <ele>77</ele>
        <time>2021-08-14T06:36:06.000Z</time>
      </trkpt>
      <trkpt lat="47.17111" lon="-1.65058">
        <ele>77</ele>
        <time>2021-08-14T06:36:08.000Z</time>
      </trkpt>
      <trkpt lat="47.17113" lon="-1.65078">
        <ele>78</ele>
        <time>2021-08-14T06:36:10.000Z</time>
      </trkpt>
      <trkpt lat="47.17115" lon="-1.65098">
        <ele>77</ele>
        <time>2021-08-14T06:36:12.000Z</time>
      </trkpt>
      <trkpt lat="47.17116" lon="-1.65119">
        <ele>77</ele>
        <time>2021-08-14T06:36:14.000Z</time>
      </trkpt>
      <trkpt lat="47.17118" lon="-1.65139">
        <ele>77</ele>
        <time>2021-08-14T06:36:16.000Z</time>
      </trkpt>
      <trkpt lat="47.17119" lon="-1.65159">
        <ele>78</ele>
        <time>2021-08-14T06:36:18.000Z</time>
      </trkpt>
      <trkpt lat="47.1712" lon="-1.65179">
        <ele>78</ele>
        <time>2021-08-14T06:36:20.000Z</time>
      </trkpt>
      <trkpt lat="47.17121" lon="-1.65199">
        <ele>78</ele>
        <time>2021-08-14T06:36:22.000Z</time>
      </trkpt>
      <trkpt lat="47.17123" lon="-1.65218">
        <ele>78</ele>
        <time>2021-08-14T06:36:24.000Z</time>
      </trkpt>
      <trkpt lat="47.17124" lon="-1.65237">
        <ele>79</ele>
        <time>2021-08-14T06:36:26.000Z</time>
      </trkpt>
      <trkpt lat="47.17128" lon="-1.65254">
        <ele>79</ele>
        <time>2021-08-14T06:36:28.000Z</time>
      </trkpt>
      <trkpt lat="47.17135" lon="-1.65269">
        <ele>80</ele>
        <time>2021-08-14T06:36:30.000Z</time>
      </trkpt>
      <trkpt lat="47.17144" lon="-1.65282">
        <ele>79</ele>
        <time>2021-08-14T06:36:32.000Z</time>
      </trkpt>
      <trkpt lat="47.17154" lon="-1.65293">
        <ele>79</ele>
        <time>2021-08-14T06:36:34.000Z</time>
      </trkpt>
      <trkpt lat="47.17165" lon="-1.65304">
        <ele>79</ele>
        <time>2021-08-14T06:36:36.000Z</time>
      </trkpt>
      <trkpt lat="47.17174" lon="-1.6532">
        <ele>79</ele>
        <time>2021-08-14T06:36:38.000Z</time>
      </trkpt>
      <trkpt lat="47.17179" lon="-1.65338">
        <ele>79</ele>
        <time>2021-08-14T06:36:40.000Z</time>
      </trkpt>
      <trkpt lat="47.17179" lon="-1.65358">
        <ele>79</ele>
        <time>2021-08-14T06:36:42.000Z</time>
      </trkpt>
      <trkpt lat="47.17178" lon="-1.65378">
        <ele>79</ele>
        <time>2021-08-14T06:36:44.000Z</time>
      </trkpt>
      <trkpt lat="47.17174" lon="-1.65398">
        <ele>79</ele>
        <time>2021-08-14T06:36:46.000Z</time>
      </trkpt>
      <trkpt lat="47.17172" lon="-1.65418">
        <ele>79</ele>
        <time>2021-08-14T06:36:48.000Z</time>
      </trkpt>
      <trkpt lat="47.17169" lon="-1.65439">
        <ele>79</ele>
        <time>2021-08-14T06:36:50.000Z</time>
      </trkpt>
      <trkpt lat="47.17166" lon="-1.65459">
        <ele>79</ele>
        <time>2021-08-14T06:36:52.000Z</time>
      </trkpt>
      <trkpt lat="47.17164" lon="-1.65479">
        <ele>79</ele>
        <time>2021-08-14T06:36:54.000Z</time>
      </trkpt>
      <trkpt lat="47.17162" lon="-1.65499">
        <ele>79</ele>
        <time>2021-08-14T06:36:56.000Z</time>
      </trkpt>
      <trkpt lat="47.17161" lon="-1.65519">
        <ele>80</ele>
        <time>2021-08-14T06:36:58.000Z</time>
      </trkpt>
      <trkpt lat="47.17159" lon="-1.65538">
        <ele>80</ele>
        <time>2021-08-14T06:37:00.000Z</time>
      </trkpt>
      <trkpt lat="47.17157" lon="-1.65557">
        <ele>80</ele>
        <time>2021-08-14T06:37:02.000Z</time>
      </trkpt>
      <trkpt lat="47.17156" lon="-1.65577">
        <ele>80</ele>
        <time>2021-08-14T06:37:04.000Z</time>
      </trkpt>
      <trkpt lat="47.17155" lon="-1.65597">
        <ele>80</ele>
        <time>2021-08-14T06:37:06.000Z</time>
      </trkpt>
      <trkpt lat="47.17154" lon="-1.65617">
        <ele>80</ele>
        <time>2021-08-14T06:37:08.000Z</time>
      </trkpt>
      <trkpt lat="47.17154" lon="-1.65637">
        <ele>80</ele>
        <time>2021-08-14T06:37:10.000Z</time>
      </trkpt>
      <trkpt lat="47.17154" lon="-1.65658">
        <ele>80</ele>
        <time>2021-08-14T06:37:12.000Z</time>
      </trkpt>
      <trkpt lat="47.17155" lon="-1.65678">
        <ele>80</ele>
        <time>2021-08-14T06:37:14.000Z</time>
      </trkpt>
      <trkpt lat="47.17156" lon="-1.65698">
        <ele>80</ele>
        <time>2021-08-14T06:37:16.000Z</time>
      </trkpt>
      <trkpt lat="47.17156" lon="-1.65718">
        <ele>80</ele>
        <time>2021-08-14T06:37:18.000Z</time>
      </trkpt>
      <trkpt lat="47.17157" lon="-1.65739">
        <ele>79</ele>
        <time>2021-08-14T06:37:20.000Z</time>
      </trkpt>
      <trkpt lat="47.1716" lon="-1.65759">
        <ele>80</ele>
        <time>2021-08-14T06:37:22.000Z</time>
      </trkpt>
      <trkpt lat="47.17162" lon="-1.65779">
        <ele>80</ele>
        <time>2021-08-14T06:37:24.000Z</time>
      </trkpt>
      <trkpt lat="47.17164" lon="-1.65799">
        <ele>79</ele>
        <time>2021-08-14T06:37:26.000Z</time>
      </trkpt>
      <trkpt lat="47.17167" lon="-1.65819">
        <ele>79</ele>
        <time>2021-08-14T06:37:28.000Z</time>
      </trkpt>
      <trkpt lat="47.1717" lon="-1.65838">
        <ele>79</ele>
        <time>2021-08-14T06:37:30.000Z</time>
      </trkpt>
      <trkpt lat="47.17173" lon="-1.65858">
        <ele>79</ele>
        <time>2021-08-14T06:37:32.000Z</time>
      </trkpt>
      <trkpt lat="47.17176" lon="-1.65878">
        <ele>79</ele>
        <time>2021-08-14T06:37:34.000Z</time>
      </trkpt>
      <trkpt lat="47.1718" lon="-1.65898">
        <ele>79</ele>
        <time>2021-08-14T06:37:36.000Z</time>
      </trkpt>
      <trkpt lat="47.17183" lon="-1.65917">
        <ele>80</ele>
        <time>2021-08-14T06:37:38.000Z</time>
      </trkpt>
      <trkpt lat="47.17187" lon="-1.65936">
        <ele>80</ele>
        <time>2021-08-14T06:37:40.000Z</time>
      </trkpt>
      <trkpt lat="47.17191" lon="-1.65955">
        <ele>80</ele>
        <time>2021-08-14T06:37:42.000Z</time>
      </trkpt>
      <trkpt lat="47.17195" lon="-1.65975">
        <ele>80</ele>
        <time>2021-08-14T06:37:44.000Z</time>
      </trkpt>
      <trkpt lat="47.17199" lon="-1.65993">
        <ele>80</ele>
        <time>2021-08-14T06:37:46.000Z</time>
      </trkpt>
      <trkpt lat="47.17202" lon="-1.66013">
        <ele>80</ele>
        <time>2021-08-14T06:37:48.000Z</time>
      </trkpt>
      <trkpt lat="47.17206" lon="-1.66032">
        <ele>80</ele>
        <time>2021-08-14T06:37:50.000Z</time>
      </trkpt>
      <trkpt lat="47.1721" lon="-1.66052">
        <ele>80</ele>
        <time>2021-08-14T06:37:52.000Z</time>
      </trkpt>
      <trkpt lat="47.17214" lon="-1.66071">
        <ele>80</ele>
        <time>2021-08-14T06:37:54.000Z</time>
      </trkpt>
      <trkpt lat="47.17217" lon="-1.66091">
        <ele>80</ele>
        <time>2021-08-14T06:37:56.000Z</time>
      </trkpt>
      <trkpt lat="47.17221" lon="-1.66109">
        <ele>80</ele>
        <time>2021-08-14T06:37:58.000Z</time>
      </trkpt>
      <trkpt lat="47.17226" lon="-1.66126">
        <ele>79</ele>
        <time>2021-08-14T06:38:00.000Z</time>
      </trkpt>
      <trkpt lat="47.1723" lon="-1.66144">
        <ele>79</ele>
        <time>2021-08-14T06:38:02.000Z</time>
      </trkpt>
      <trkpt lat="47.17234" lon="-1.66161">
        <ele>79</ele>
        <time>2021-08-14T06:38:04.000Z</time>
      </trkpt>
      <trkpt lat="47.17241" lon="-1.66176">
        <ele>80</ele>
        <time>2021-08-14T06:38:06.000Z</time>
      </trkpt>
      <trkpt lat="47.17248" lon="-1.66191">
        <ele>80</ele>
        <time>2021-08-14T06:38:08.000Z</time>
      </trkpt>
      <trkpt lat="47.17256" lon="-1.66205">
        <ele>80</ele>
        <time>2021-08-14T06:38:10.000Z</time>
      </trkpt>
      <trkpt lat="47.17263" lon="-1.66219">
        <ele>80</ele>
        <time>2021-08-14T06:38:12.000Z</time>
      </trkpt>
      <trkpt lat="47.1727" lon="-1.66235">
        <ele>81</ele>
        <time>2021-08-14T06:38:14.000Z</time>
      </trkpt>
      <trkpt lat="47.17278" lon="-1.66249">
        <ele>81</ele>
        <time>2021-08-14T06:38:16.000Z</time>
      </trkpt>
      <trkpt lat="47.17286" lon="-1.66263">
        <ele>82</ele>
        <time>2021-08-14T06:38:18.000Z</time>
      </trkpt>
      <trkpt lat="47.17295" lon="-1.66277">
        <ele>83</ele>
        <time>2021-08-14T06:38:20.000Z</time>
      </trkpt>
      <trkpt lat="47.17303" lon="-1.66291">
        <ele>83</ele>
        <time>2021-08-14T06:38:22.000Z</time>
      </trkpt>
      <trkpt lat="47.17312" lon="-1.66307">
        <ele>83</ele>
        <time>2021-08-14T06:38:24.000Z</time>
      </trkpt>
      <trkpt lat="47.1732" lon="-1.66323">
        <ele>83</ele>
        <time>2021-08-14T06:38:26.000Z</time>
      </trkpt>
      <trkpt lat="47.17329" lon="-1.66339">
        <ele>83</ele>
        <time>2021-08-14T06:38:28.000Z</time>
      </trkpt>
      <trkpt lat="47.17337" lon="-1.66353">
        <ele>83</ele>
        <time>2021-08-14T06:38:30.000Z</time>
      </trkpt>
      <trkpt lat="47.17344" lon="-1.66368">
        <ele>83</ele>
        <time>2021-08-14T06:38:32.000Z</time>
      </trkpt>
      <trkpt lat="47.17352" lon="-1.66383">
        <ele>83</ele>
        <time>2021-08-14T06:38:34.000Z</time>
      </trkpt>
      <trkpt lat="47.17359" lon="-1.66398">
        <ele>83</ele>
        <time>2021-08-14T06:38:36.000Z</time>
      </trkpt>
      <trkpt lat="47.17367" lon="-1.66413">
        <ele>83</ele>
        <time>2021-08-14T06:38:38.000Z</time>
      </trkpt>
      <trkpt lat="47.17374" lon="-1.66427">
        <ele>83</ele>
        <time>2021-08-14T06:38:40.000Z</time>
      </trkpt>
      <trkpt lat="47.17383" lon="-1.66442">
        <ele>83</ele>
        <time>2021-08-14T06:38:42.000Z</time>
      </trkpt>
      <trkpt lat="47.17392" lon="-1.66457">
        <ele>83</ele>
        <time>2021-08-14T06:38:44.000Z</time>
      </trkpt>
      <trkpt lat="47.174" lon="-1.66472">
        <ele>82</ele>
        <time>2021-08-14T06:38:46.000Z</time>
      </trkpt>
      <trkpt lat="47.17409" lon="-1.66487">
        <ele>82</ele>
        <time>2021-08-14T06:38:48.000Z</time>
      </trkpt>
      <trkpt lat="47.17417" lon="-1.66504">
        <ele>82</ele>
        <time>2021-08-14T06:38:50.000Z</time>
      </trkpt>
      <trkpt lat="47.17426" lon="-1.66519">
        <ele>82</ele>
        <time>2021-08-14T06:38:52.000Z</time>
      </trkpt>
      <trkpt lat="47.17435" lon="-1.66534">
        <ele>82</ele>
        <time>2021-08-14T06:38:54.000Z</time>
      </trkpt>
      <trkpt lat="47.17443" lon="-1.6655">
        <ele>82</ele>
        <time>2021-08-14T06:38:56.000Z</time>
      </trkpt>
      <trkpt lat="47.17451" lon="-1.66566">
        <ele>82</ele>
        <time>2021-08-14T06:38:58.000Z</time>
      </trkpt>
      <trkpt lat="47.17459" lon="-1.66581">
        <ele>82</ele>
        <time>2021-08-14T06:39:00.000Z</time>
      </trkpt>
      <trkpt lat="47.17466" lon="-1.66596">
        <ele>84</ele>
        <time>2021-08-14T06:39:02.000Z</time>
      </trkpt>
      <trkpt lat="47.17474" lon="-1.66612">
        <ele>84</ele>
        <time>2021-08-14T06:39:04.000Z</time>
      </trkpt>
      <trkpt lat="47.17484" lon="-1.66628">
        <ele>83</ele>
        <time>2021-08-14T06:39:06.000Z</time>
      </trkpt>
      <trkpt lat="47.17493" lon="-1.66643">
        <ele>83</ele>
        <time>2021-08-14T06:39:08.000Z</time>
      </trkpt>
      <trkpt lat="47.17501" lon="-1.66659">
        <ele>82</ele>
        <time>2021-08-14T06:39:10.000Z</time>
      </trkpt>
      <trkpt lat="47.1751" lon="-1.66675">
        <ele>82</ele>
        <time>2021-08-14T06:39:12.000Z</time>
      </trkpt>
      <trkpt lat="47.17518" lon="-1.66689">
        <ele>82</ele>
        <time>2021-08-14T06:39:14.000Z</time>
      </trkpt>
      <trkpt lat="47.17527" lon="-1.66705">
        <ele>82</ele>
        <time>2021-08-14T06:39:16.000Z</time>
      </trkpt>
      <trkpt lat="47.17536" lon="-1.6672">
        <ele>81</ele>
        <time>2021-08-14T06:39:18.000Z</time>
      </trkpt>
      <trkpt lat="47.17543" lon="-1.66735">
        <ele>81</ele>
        <time>2021-08-14T06:39:20.000Z</time>
      </trkpt>
      <trkpt lat="47.17551" lon="-1.66751">
        <ele>81</ele>
        <time>2021-08-14T06:39:22.000Z</time>
      </trkpt>
      <trkpt lat="47.17559" lon="-1.66768">
        <ele>81</ele>
        <time>2021-08-14T06:39:24.000Z</time>
      </trkpt>
      <trkpt lat="47.17567" lon="-1.66783">
        <ele>81</ele>
        <time>2021-08-14T06:39:26.000Z</time>
      </trkpt>
      <trkpt lat="47.17576" lon="-1.66798">
        <ele>81</ele>
        <time>2021-08-14T06:39:28.000Z</time>
      </trkpt>
      <trkpt lat="47.17584" lon="-1.66814">
        <ele>81</ele>
        <time>2021-08-14T06:39:30.000Z</time>
      </trkpt>
      <trkpt lat="47.17592" lon="-1.66829">
        <ele>82</ele>
        <time>2021-08-14T06:39:32.000Z</time>
      </trkpt>
      <trkpt lat="47.17601" lon="-1.66845">
        <ele>82</ele>
        <time>2021-08-14T06:39:34.000Z</time>
      </trkpt>
      <trkpt lat="47.1761" lon="-1.66861">
        <ele>82</ele>
        <time>2021-08-14T06:39:36.000Z</time>
      </trkpt>
      <trkpt lat="47.17618" lon="-1.66877">
        <ele>81</ele>
        <time>2021-08-14T06:39:38.000Z</time>
      </trkpt>
      <trkpt lat="47.17626" lon="-1.66893">
        <ele>81</ele>
        <time>2021-08-14T06:39:40.000Z</time>
      </trkpt>
      <trkpt lat="47.17634" lon="-1.66908">
        <ele>82</ele>
        <time>2021-08-14T06:39:42.000Z</time>
      </trkpt>
      <trkpt lat="47.17643" lon="-1.66923">
        <ele>82</ele>
        <time>2021-08-14T06:39:44.000Z</time>
      </trkpt>
      <trkpt lat="47.17651" lon="-1.66938">
        <ele>81</ele>
        <time>2021-08-14T06:39:46.000Z</time>
      </trkpt>
      <trkpt lat="47.17659" lon="-1.66954">
        <ele>81</ele>
        <time>2021-08-14T06:39:48.000Z</time>
      </trkpt>
      <trkpt lat="47.17667" lon="-1.6697">
        <ele>81</ele>
        <time>2021-08-14T06:39:50.000Z</time>
      </trkpt>
      <trkpt lat="47.17676" lon="-1.66985">
        <ele>81</ele>
        <time>2021-08-14T06:39:52.000Z</time>
      </trkpt>
      <trkpt lat="47.17683" lon="-1.67">
        <ele>81</ele>
        <time>2021-08-14T06:39:54.000Z</time>
      </trkpt>
      <trkpt lat="47.17691" lon="-1.67016">
        <ele>81</ele>
        <time>2021-08-14T06:39:56.000Z</time>
      </trkpt>
      <trkpt lat="47.177" lon="-1.67031">
        <ele>81</ele>
        <time>2021-08-14T06:39:58.000Z</time>
      </trkpt>
      <trkpt lat="47.17708" lon="-1.67046">
        <ele>81</ele>
        <time>2021-08-14T06:40:00.000Z</time>
      </trkpt>
      <trkpt lat="47.17716" lon="-1.67061">
        <ele>82</ele>
        <time>2021-08-14T06:40:02.000Z</time>
      </trkpt>
      <trkpt lat="47.17724" lon="-1.67077">
        <ele>81</ele>
        <time>2021-08-14T06:40:04.000Z</time>
      </trkpt>
      <trkpt lat="47.17732" lon="-1.67091">
        <ele>82</ele>
        <time>2021-08-14T06:40:06.000Z</time>
      </trkpt>
      <trkpt lat="47.17741" lon="-1.67105">
        <ele>82</ele>
        <time>2021-08-14T06:40:08.000Z</time>
      </trkpt>
      <trkpt lat="47.17749" lon="-1.67121">
        <ele>82</ele>
        <time>2021-08-14T06:40:10.000Z</time>
      </trkpt>
      <trkpt lat="47.17758" lon="-1.67136">
        <ele>81</ele>
        <time>2021-08-14T06:40:12.000Z</time>
      </trkpt>
      <trkpt lat="47.17766" lon="-1.67151">
        <ele>82</ele>
        <time>2021-08-14T06:40:14.000Z</time>
      </trkpt>
      <trkpt lat="47.17774" lon="-1.67166">
        <ele>82</ele>
        <time>2021-08-14T06:40:16.000Z</time>
      </trkpt>
      <trkpt lat="47.17782" lon="-1.67182">
        <ele>82</ele>
        <time>2021-08-14T06:40:18.000Z</time>
      </trkpt>
      <trkpt lat="47.17791" lon="-1.67197">
        <ele>82</ele>
        <time>2021-08-14T06:40:20.000Z</time>
      </trkpt>
      <trkpt lat="47.17798" lon="-1.67212">
        <ele>82</ele>
        <time>2021-08-14T06:40:22.000Z</time>
      </trkpt>
      <trkpt lat="47.17806" lon="-1.67229">
        <ele>82</ele>
        <time>2021-08-14T06:40:24.000Z</time>
      </trkpt>
      <trkpt lat="47.17813" lon="-1.67244">
        <ele>82</ele>
        <time>2021-08-14T06:40:26.000Z</time>
      </trkpt>
      <trkpt lat="47.17821" lon="-1.67259">
        <ele>82</ele>
        <time>2021-08-14T06:40:28.000Z</time>
      </trkpt>
      <trkpt lat="47.1783" lon="-1.67273">
        <ele>82</ele>
        <time>2021-08-14T06:40:30.000Z</time>
      </trkpt>
      <trkpt lat="47.17838" lon="-1.67288">
        <ele>82</ele>
        <time>2021-08-14T06:40:32.000Z</time>
      </trkpt>
      <trkpt lat="47.17847" lon="-1.67303">
        <ele>82</ele>
        <time>2021-08-14T06:40:34.000Z</time>
      </trkpt>
      <trkpt lat="47.17855" lon="-1.67318">
        <ele>82</ele>
        <time>2021-08-14T06:40:36.000Z</time>
      </trkpt>
      <trkpt lat="47.17862" lon="-1.67333">
        <ele>82</ele>
        <time>2021-08-14T06:40:38.000Z</time>
      </trkpt>
      <trkpt lat="47.1787" lon="-1.67346">
        <ele>82</ele>
        <time>2021-08-14T06:40:40.000Z</time>
      </trkpt>
      <trkpt lat="47.17877" lon="-1.67359">
        <ele>82</ele>
        <time>2021-08-14T06:40:42.000Z</time>
      </trkpt>
      <trkpt lat="47.17884" lon="-1.67372">
        <ele>82</ele>
        <time>2021-08-14T06:40:44.000Z</time>
      </trkpt>
      <trkpt lat="47.1789" lon="-1.67384">
        <ele>82</ele>
        <time>2021-08-14T06:40:46.000Z</time>
      </trkpt>
      <trkpt lat="47.17897" lon="-1.67394">
        <ele>82</ele>
        <time>2021-08-14T06:40:49.000Z</time>
      </trkpt>
      <trkpt lat="47.17906" lon="-1.67407">
        <ele>82</ele>
        <time>2021-08-14T06:40:52.000Z</time>
      </trkpt>
      <trkpt lat="47.17911" lon="-1.67422">
        <ele>82</ele>
        <time>2021-08-14T06:40:54.000Z</time>
      </trkpt>
      <trkpt lat="47.17916" lon="-1.67439">
        <ele>82</ele>
        <time>2021-08-14T06:40:56.000Z</time>
      </trkpt>
      <trkpt lat="47.17921" lon="-1.67458">
        <ele>83</ele>
        <time>2021-08-14T06:40:58.000Z</time>
      </trkpt>
      <trkpt lat="47.17925" lon="-1.67478">
        <ele>83</ele>
        <time>2021-08-14T06:41:00.000Z</time>
      </trkpt>
      <trkpt lat="47.1793" lon="-1.67497">
        <ele>82</ele>
        <time>2021-08-14T06:41:02.000Z</time>
      </trkpt>
      <trkpt lat="47.17935" lon="-1.67516">
        <ele>82</ele>
        <time>2021-08-14T06:41:04.000Z</time>
      </trkpt>
      <trkpt lat="47.1794" lon="-1.67535">
        <ele>81</ele>
        <time>2021-08-14T06:41:06.000Z</time>
      </trkpt>
      <trkpt lat="47.17946" lon="-1.67552">
        <ele>81</ele>
        <time>2021-08-14T06:41:08.000Z</time>
      </trkpt>
      <trkpt lat="47.17951" lon="-1.67571">
        <ele>81</ele>
        <time>2021-08-14T06:41:10.000Z</time>
      </trkpt>
      <trkpt lat="47.17956" lon="-1.6759">
        <ele>81</ele>
        <time>2021-08-14T06:41:12.000Z</time>
      </trkpt>
      <trkpt lat="47.17961" lon="-1.67609">
        <ele>81</ele>
        <time>2021-08-14T06:41:14.000Z</time>
      </trkpt>
      <trkpt lat="47.17967" lon="-1.67628">
        <ele>82</ele>
        <time>2021-08-14T06:41:16.000Z</time>
      </trkpt>
      <trkpt lat="47.17972" lon="-1.67646">
        <ele>82</ele>
        <time>2021-08-14T06:41:18.000Z</time>
      </trkpt>
      <trkpt lat="47.17977" lon="-1.67664">
        <ele>82</ele>
        <time>2021-08-14T06:41:20.000Z</time>
      </trkpt>
      <trkpt lat="47.17981" lon="-1.67683">
        <ele>82</ele>
        <time>2021-08-14T06:41:22.000Z</time>
      </trkpt>
      <trkpt lat="47.17986" lon="-1.67701">
        <ele>82</ele>
        <time>2021-08-14T06:41:24.000Z</time>
      </trkpt>
      <trkpt lat="47.17991" lon="-1.67717">
        <ele>82</ele>
        <time>2021-08-14T06:41:26.000Z</time>
      </trkpt>
      <trkpt lat="47.17998" lon="-1.67728">
        <ele>82</ele>
        <time>2021-08-14T06:41:30.000Z</time>
      </trkpt>
      <trkpt lat="47.18009" lon="-1.67729">
        <ele>82</ele>
        <time>2021-08-14T06:41:33.000Z</time>
      </trkpt>
      <trkpt lat="47.1802" lon="-1.67723">
        <ele>82</ele>
        <time>2021-08-14T06:41:35.000Z</time>
      </trkpt>
      <trkpt lat="47.18031" lon="-1.67716">
        <ele>82</ele>
        <time>2021-08-14T06:41:37.000Z</time>
      </trkpt>
      <trkpt lat="47.18044" lon="-1.67709">
        <ele>81</ele>
        <time>2021-08-14T06:41:39.000Z</time>
      </trkpt>
      <trkpt lat="47.18056" lon="-1.67701">
        <ele>81</ele>
        <time>2021-08-14T06:41:41.000Z</time>
      </trkpt>
      <trkpt lat="47.18069" lon="-1.67692">
        <ele>81</ele>
        <time>2021-08-14T06:41:43.000Z</time>
      </trkpt>
      <trkpt lat="47.18082" lon="-1.67685">
        <ele>81</ele>
        <time>2021-08-14T06:41:45.000Z</time>
      </trkpt>
      <trkpt lat="47.18094" lon="-1.67677">
        <ele>81</ele>
        <time>2021-08-14T06:41:47.000Z</time>
      </trkpt>
      <trkpt lat="47.18107" lon="-1.6767">
        <ele>81</ele>
        <time>2021-08-14T06:41:49.000Z</time>
      </trkpt>
      <trkpt lat="47.1812" lon="-1.67662">
        <ele>80</ele>
        <time>2021-08-14T06:41:51.000Z</time>
      </trkpt>
      <trkpt lat="47.18133" lon="-1.67654">
        <ele>80</ele>
        <time>2021-08-14T06:41:53.000Z</time>
      </trkpt>
      <trkpt lat="47.18146" lon="-1.67646">
        <ele>80</ele>
        <time>2021-08-14T06:41:55.000Z</time>
      </trkpt>
      <trkpt lat="47.18159" lon="-1.67638">
        <ele>80</ele>
        <time>2021-08-14T06:41:57.000Z</time>
      </trkpt>
      <trkpt lat="47.18172" lon="-1.6763">
        <ele>80</ele>
        <time>2021-08-14T06:41:59.000Z</time>
      </trkpt>
      <trkpt lat="47.18184" lon="-1.67621">
        <ele>80</ele>
        <time>2021-08-14T06:42:01.000Z</time>
      </trkpt>
      <trkpt lat="47.18197" lon="-1.67611">
        <ele>80</ele>
        <time>2021-08-14T06:42:03.000Z</time>
      </trkpt>
      <trkpt lat="47.1821" lon="-1.67603">
        <ele>80</ele>
        <time>2021-08-14T06:42:05.000Z</time>
      </trkpt>
      <trkpt lat="47.18223" lon="-1.67598">
        <ele>80</ele>
        <time>2021-08-14T06:42:07.000Z</time>
      </trkpt>
      <trkpt lat="47.18236" lon="-1.67591">
        <ele>80</ele>
        <time>2021-08-14T06:42:09.000Z</time>
      </trkpt>
      <trkpt lat="47.18249" lon="-1.67583">
        <ele>80</ele>
        <time>2021-08-14T06:42:11.000Z</time>
      </trkpt>
      <trkpt lat="47.18262" lon="-1.67575">
        <ele>80</ele>
        <time>2021-08-14T06:42:13.000Z</time>
      </trkpt>
      <trkpt lat="47.18275" lon="-1.67568">
        <ele>80</ele>
        <time>2021-08-14T06:42:15.000Z</time>
      </trkpt>
      <trkpt lat="47.18287" lon="-1.6756">
        <ele>80</ele>
        <time>2021-08-14T06:42:17.000Z</time>
      </trkpt>
      <trkpt lat="47.18299" lon="-1.67553">
        <ele>80</ele>
        <time>2021-08-14T06:42:19.000Z</time>
      </trkpt>
      <trkpt lat="47.18312" lon="-1.67545">
        <ele>80</ele>
        <time>2021-08-14T06:42:21.000Z</time>
      </trkpt>
      <trkpt lat="47.18324" lon="-1.67536">
        <ele>80</ele>
        <time>2021-08-14T06:42:23.000Z</time>
      </trkpt>
      <trkpt lat="47.18337" lon="-1.67528">
        <ele>80</ele>
        <time>2021-08-14T06:42:25.000Z</time>
      </trkpt>
      <trkpt lat="47.18349" lon="-1.67521">
        <ele>80</ele>
        <time>2021-08-14T06:42:27.000Z</time>
      </trkpt>
      <trkpt lat="47.18361" lon="-1.67514">
        <ele>80</ele>
        <time>2021-08-14T06:42:29.000Z</time>
      </trkpt>
      <trkpt lat="47.18373" lon="-1.67506">
        <ele>80</ele>
        <time>2021-08-14T06:42:31.000Z</time>
      </trkpt>
      <trkpt lat="47.18386" lon="-1.67499">
        <ele>80</ele>
        <time>2021-08-14T06:42:33.000Z</time>
      </trkpt>
      <trkpt lat="47.18398" lon="-1.67492">
        <ele>81</ele>
        <time>2021-08-14T06:42:35.000Z</time>
      </trkpt>
      <trkpt lat="47.1841" lon="-1.67485">
        <ele>81</ele>
        <time>2021-08-14T06:42:37.000Z</time>
      </trkpt>
      <trkpt lat="47.18422" lon="-1.67478">
        <ele>81</ele>
        <time>2021-08-14T06:42:39.000Z</time>
      </trkpt>
      <trkpt lat="47.18434" lon="-1.67472">
        <ele>81</ele>
        <time>2021-08-14T06:42:41.000Z</time>
      </trkpt>
      <trkpt lat="47.18446" lon="-1.67465">
        <ele>81</ele>
        <time>2021-08-14T06:42:43.000Z</time>
      </trkpt>
      <trkpt lat="47.18457" lon="-1.67458">
        <ele>82</ele>
        <time>2021-08-14T06:42:45.000Z</time>
      </trkpt>
      <trkpt lat="47.18469" lon="-1.67452">
        <ele>82</ele>
        <time>2021-08-14T06:42:47.000Z</time>
      </trkpt>
      <trkpt lat="47.1848" lon="-1.67445">
        <ele>83</ele>
        <time>2021-08-14T06:42:49.000Z</time>
      </trkpt>
      <trkpt lat="47.18492" lon="-1.6744">
        <ele>83</ele>
        <time>2021-08-14T06:42:51.000Z</time>
      </trkpt>
      <trkpt lat="47.18503" lon="-1.67432">
        <ele>84</ele>
        <time>2021-08-14T06:42:53.000Z</time>
      </trkpt>
      <trkpt lat="47.18514" lon="-1.67424">
        <ele>84</ele>
        <time>2021-08-14T06:42:55.000Z</time>
      </trkpt>
      <trkpt lat="47.18523" lon="-1.67414">
        <ele>84</ele>
        <time>2021-08-14T06:42:57.000Z</time>
      </trkpt>
      <trkpt lat="47.18532" lon="-1.67412">
        <ele>84</ele>
        <time>2021-08-14T06:42:59.000Z</time>
      </trkpt>
      <trkpt lat="47.18539" lon="-1.67425">
        <ele>84</ele>
        <time>2021-08-14T06:43:01.000Z</time>
      </trkpt>
      <trkpt lat="47.1854" lon="-1.67442">
        <ele>85</ele>
        <time>2021-08-14T06:43:03.000Z</time>
      </trkpt>
      <trkpt lat="47.18549" lon="-1.67447">
        <ele>85</ele>
        <time>2021-08-14T06:43:05.000Z</time>
      </trkpt>
      <trkpt lat="47.1856" lon="-1.6744">
        <ele>86</ele>
        <time>2021-08-14T06:43:07.000Z</time>
      </trkpt>
      <trkpt lat="47.18571" lon="-1.67434">
        <ele>86</ele>
        <time>2021-08-14T06:43:09.000Z</time>
      </trkpt>
      <trkpt lat="47.18582" lon="-1.67429">
        <ele>87</ele>
        <time>2021-08-14T06:43:11.000Z</time>
      </trkpt>
      <trkpt lat="47.18593" lon="-1.67437">
        <ele>87</ele>
        <time>2021-08-14T06:43:13.000Z</time>
      </trkpt>
      <trkpt lat="47.18601" lon="-1.67452">
        <ele>86</ele>
        <time>2021-08-14T06:43:15.000Z</time>
      </trkpt>
      <trkpt lat="47.18605" lon="-1.67469">
        <ele>87</ele>
        <time>2021-08-14T06:43:17.000Z</time>
      </trkpt>
      <trkpt lat="47.1861" lon="-1.67486">
        <ele>87</ele>
        <time>2021-08-14T06:43:19.000Z</time>
      </trkpt>
      <trkpt lat="47.18617" lon="-1.67503">
        <ele>87</ele>
        <time>2021-08-14T06:43:21.000Z</time>
      </trkpt>
      <trkpt lat="47.18624" lon="-1.6752">
        <ele>87</ele>
        <time>2021-08-14T06:43:23.000Z</time>
      </trkpt>
      <trkpt lat="47.18631" lon="-1.67534">
        <ele>87</ele>
        <time>2021-08-14T06:43:25.000Z</time>
      </trkpt>
      <trkpt lat="47.18639" lon="-1.67547">
        <ele>87</ele>
        <time>2021-08-14T06:43:27.000Z</time>
      </trkpt>
      <trkpt lat="47.18648" lon="-1.67559">
        <ele>87</ele>
        <time>2021-08-14T06:43:29.000Z</time>
      </trkpt>
      <trkpt lat="47.18658" lon="-1.67571">
        <ele>87</ele>
        <time>2021-08-14T06:43:31.000Z</time>
      </trkpt>
      <trkpt lat="47.18667" lon="-1.67583">
        <ele>88</ele>
        <time>2021-08-14T06:43:33.000Z</time>
      </trkpt>
      <trkpt lat="47.18677" lon="-1.67596">
        <ele>88</ele>
        <time>2021-08-14T06:43:35.000Z</time>
      </trkpt>
      <trkpt lat="47.18686" lon="-1.67608">
        <ele>88</ele>
        <time>2021-08-14T06:43:37.000Z</time>
      </trkpt>
      <trkpt lat="47.18697" lon="-1.67616">
        <ele>87</ele>
        <time>2021-08-14T06:43:39.000Z</time>
      </trkpt>
      <trkpt lat="47.18709" lon="-1.67619">
        <ele>87</ele>
        <time>2021-08-14T06:43:41.000Z</time>
      </trkpt>
      <trkpt lat="47.18721" lon="-1.67617">
        <ele>87</ele>
        <time>2021-08-14T06:43:43.000Z</time>
      </trkpt>
      <trkpt lat="47.18731" lon="-1.67615">
        <ele>87</ele>
        <time>2021-08-14T06:43:45.000Z</time>
      </trkpt>
      <trkpt lat="47.1874" lon="-1.67611">
        <ele>87</ele>
        <time>2021-08-14T06:43:47.000Z</time>
      </trkpt>
      <trkpt lat="47.18751" lon="-1.67614">
        <ele>87</ele>
        <time>2021-08-14T06:43:50.000Z</time>
      </trkpt>
      <trkpt lat="47.18757" lon="-1.67627">
        <ele>87</ele>
        <time>2021-08-14T06:43:52.000Z</time>
      </trkpt>
      <trkpt lat="47.18763" lon="-1.67642">
        <ele>87</ele>
        <time>2021-08-14T06:43:54.000Z</time>
      </trkpt>
      <trkpt lat="47.1877" lon="-1.67658">
        <ele>87</ele>
        <time>2021-08-14T06:43:56.000Z</time>
      </trkpt>
      <trkpt lat="47.18778" lon="-1.6767">
        <ele>87</ele>
        <time>2021-08-14T06:43:58.000Z</time>
      </trkpt>
      <trkpt lat="47.18787" lon="-1.67684">
        <ele>87</ele>
        <time>2021-08-14T06:44:00.000Z</time>
      </trkpt>
      <trkpt lat="47.18794" lon="-1.67698">
        <ele>87</ele>
        <time>2021-08-14T06:44:02.000Z</time>
      </trkpt>
      <trkpt lat="47.188" lon="-1.67714">
        <ele>87</ele>
        <time>2021-08-14T06:44:04.000Z</time>
      </trkpt>
      <trkpt lat="47.18806" lon="-1.6773">
        <ele>87</ele>
        <time>2021-08-14T06:44:06.000Z</time>
      </trkpt>
      <trkpt lat="47.18812" lon="-1.67746">
        <ele>87</ele>
        <time>2021-08-14T06:44:08.000Z</time>
      </trkpt>
      <trkpt lat="47.18819" lon="-1.67763">
        <ele>86</ele>
        <time>2021-08-14T06:44:10.000Z</time>
      </trkpt>
      <trkpt lat="47.18826" lon="-1.67782">
        <ele>85</ele>
        <time>2021-08-14T06:44:12.000Z</time>
      </trkpt>
      <trkpt lat="47.18832" lon="-1.67801">
        <ele>85</ele>
        <time>2021-08-14T06:44:14.000Z</time>
      </trkpt>
      <trkpt lat="47.1884" lon="-1.6782">
        <ele>84</ele>
        <time>2021-08-14T06:44:16.000Z</time>
      </trkpt>
      <trkpt lat="47.18847" lon="-1.6784">
        <ele>83</ele>
        <time>2021-08-14T06:44:18.000Z</time>
      </trkpt>
      <trkpt lat="47.18855" lon="-1.6786">
        <ele>82</ele>
        <time>2021-08-14T06:44:20.000Z</time>
      </trkpt>
      <trkpt lat="47.18864" lon="-1.67879">
        <ele>82</ele>
        <time>2021-08-14T06:44:22.000Z</time>
      </trkpt>
      <trkpt lat="47.18876" lon="-1.67894">
        <ele>81</ele>
        <time>2021-08-14T06:44:24.000Z</time>
      </trkpt>
      <trkpt lat="47.18891" lon="-1.67901">
        <ele>80</ele>
        <time>2021-08-14T06:44:26.000Z</time>
      </trkpt>
      <trkpt lat="47.18908" lon="-1.67904">
        <ele>81</ele>
        <time>2021-08-14T06:44:28.000Z</time>
      </trkpt>
      <trkpt lat="47.1892" lon="-1.67913">
        <ele>81</ele>
        <time>2021-08-14T06:44:30.000Z</time>
      </trkpt>
      <trkpt lat="47.18928" lon="-1.67932">
        <ele>81</ele>
        <time>2021-08-14T06:44:32.000Z</time>
      </trkpt>
      <trkpt lat="47.18936" lon="-1.67948">
        <ele>82</ele>
        <time>2021-08-14T06:44:34.000Z</time>
      </trkpt>
      <trkpt lat="47.18944" lon="-1.67963">
        <ele>82</ele>
        <time>2021-08-14T06:44:36.000Z</time>
      </trkpt>
      <trkpt lat="47.18952" lon="-1.67978">
        <ele>82</ele>
        <time>2021-08-14T06:44:38.000Z</time>
      </trkpt>
      <trkpt lat="47.18961" lon="-1.67993">
        <ele>82</ele>
        <time>2021-08-14T06:44:40.000Z</time>
      </trkpt>
      <trkpt lat="47.1897" lon="-1.68008">
        <ele>81</ele>
        <time>2021-08-14T06:44:42.000Z</time>
      </trkpt>
      <trkpt lat="47.18978" lon="-1.68021">
        <ele>81</ele>
        <time>2021-08-14T06:44:44.000Z</time>
      </trkpt>
      <trkpt lat="47.18985" lon="-1.68034">
        <ele>81</ele>
        <time>2021-08-14T06:44:46.000Z</time>
      </trkpt>
      <trkpt lat="47.18994" lon="-1.68041">
        <ele>82</ele>
        <time>2021-08-14T06:44:48.000Z</time>
      </trkpt>
      <trkpt lat="47.19005" lon="-1.6803">
        <ele>82</ele>
        <time>2021-08-14T06:44:50.000Z</time>
      </trkpt>
      <trkpt lat="47.19022" lon="-1.68024">
        <ele>80</ele>
        <time>2021-08-14T06:44:52.000Z</time>
      </trkpt>
      <trkpt lat="47.19032" lon="-1.68024">
        <ele>79</ele>
        <time>2021-08-14T06:44:53.000Z</time>
      </trkpt>
      <trkpt lat="47.19041" lon="-1.68025">
        <ele>78</ele>
        <time>2021-08-14T06:44:54.000Z</time>
      </trkpt>
      <trkpt lat="47.1905" lon="-1.68027">
        <ele>77</ele>
        <time>2021-08-14T06:44:55.000Z</time>
      </trkpt>
      <trkpt lat="47.19059" lon="-1.6803">
        <ele>76</ele>
        <time>2021-08-14T06:44:56.000Z</time>
      </trkpt>
      <trkpt lat="47.19075" lon="-1.68038">
        <ele>76</ele>
        <time>2021-08-14T06:44:58.000Z</time>
      </trkpt>
      <trkpt lat="47.19085" lon="-1.68057">
        <ele>76</ele>
        <time>2021-08-14T06:45:00.000Z</time>
      </trkpt>
      <trkpt lat="47.19092" lon="-1.68076">
        <ele>75</ele>
        <time>2021-08-14T06:45:02.000Z</time>
      </trkpt>
      <trkpt lat="47.19099" lon="-1.68094">
        <ele>76</ele>
        <time>2021-08-14T06:45:04.000Z</time>
      </trkpt>
      <trkpt lat="47.19105" lon="-1.68111">
        <ele>76</ele>
        <time>2021-08-14T06:45:06.000Z</time>
      </trkpt>
      <trkpt lat="47.1911" lon="-1.68129">
        <ele>76</ele>
        <time>2021-08-14T06:45:08.000Z</time>
      </trkpt>
      <trkpt lat="47.19114" lon="-1.68145">
        <ele>76</ele>
        <time>2021-08-14T06:45:10.000Z</time>
      </trkpt>
      <trkpt lat="47.19117" lon="-1.68159">
        <ele>76</ele>
        <time>2021-08-14T06:45:12.000Z</time>
      </trkpt>
      <trkpt lat="47.19123" lon="-1.68172">
        <ele>76</ele>
        <time>2021-08-14T06:45:16.000Z</time>
      </trkpt>
      <trkpt lat="47.19129" lon="-1.68181">
        <ele>75</ele>
        <time>2021-08-14T06:45:21.000Z</time>
      </trkpt>
      <trkpt lat="47.1914" lon="-1.68175">
        <ele>74</ele>
        <time>2021-08-14T06:45:32.000Z</time>
      </trkpt>
      <trkpt lat="47.19148" lon="-1.68183">
        <ele>72</ele>
        <time>2021-08-14T06:45:38.000Z</time>
      </trkpt>
      <trkpt lat="47.1915" lon="-1.68198">
        <ele>70</ele>
        <time>2021-08-14T06:45:41.000Z</time>
      </trkpt>
      <trkpt lat="47.19156" lon="-1.68209">
        <ele>69</ele>
        <time>2021-08-14T06:45:44.000Z</time>
      </trkpt>
      <trkpt lat="47.19167" lon="-1.68213">
        <ele>68</ele>
        <time>2021-08-14T06:45:47.000Z</time>
      </trkpt>
      <trkpt lat="47.19178" lon="-1.68219">
        <ele>66</ele>
        <time>2021-08-14T06:45:49.000Z</time>
      </trkpt>
      <trkpt lat="47.19189" lon="-1.68222">
        <ele>65</ele>
        <time>2021-08-14T06:45:51.000Z</time>
      </trkpt>
      <trkpt lat="47.19198" lon="-1.68215">
        <ele>62</ele>
        <time>2021-08-14T06:45:53.000Z</time>
      </trkpt>
      <trkpt lat="47.19208" lon="-1.68209">
        <ele>61</ele>
        <time>2021-08-14T06:45:55.000Z</time>
      </trkpt>
      <trkpt lat="47.19218" lon="-1.68203">
        <ele>59</ele>
        <time>2021-08-14T06:45:57.000Z</time>
      </trkpt>
      <trkpt lat="47.1923" lon="-1.68195">
        <ele>57</ele>
        <time>2021-08-14T06:45:59.000Z</time>
      </trkpt>
      <trkpt lat="47.19242" lon="-1.68188">
        <ele>56</ele>
        <time>2021-08-14T06:46:01.000Z</time>
      </trkpt>
      <trkpt lat="47.19255" lon="-1.6818">
        <ele>56</ele>
        <time>2021-08-14T06:46:03.000Z</time>
      </trkpt>
      <trkpt lat="47.19267" lon="-1.68171">
        <ele>56</ele>
        <time>2021-08-14T06:46:05.000Z</time>
      </trkpt>
      <trkpt lat="47.1928" lon="-1.68163">
        <ele>55</ele>
        <time>2021-08-14T06:46:07.000Z</time>
      </trkpt>
      <trkpt lat="47.19293" lon="-1.68155">
        <ele>55</ele>
        <time>2021-08-14T06:46:09.000Z</time>
      </trkpt>
      <trkpt lat="47.19305" lon="-1.68147">
        <ele>54</ele>
        <time>2021-08-14T06:46:11.000Z</time>
      </trkpt>
      <trkpt lat="47.19317" lon="-1.68138">
        <ele>54</ele>
        <time>2021-08-14T06:46:13.000Z</time>
      </trkpt>
      <trkpt lat="47.19329" lon="-1.6813">
        <ele>54</ele>
        <time>2021-08-14T06:46:15.000Z</time>
      </trkpt>
      <trkpt lat="47.19342" lon="-1.68121">
        <ele>53</ele>
        <time>2021-08-14T06:46:17.000Z</time>
      </trkpt>
      <trkpt lat="47.19354" lon="-1.68112">
        <ele>52</ele>
        <time>2021-08-14T06:46:19.000Z</time>
      </trkpt>
      <trkpt lat="47.19366" lon="-1.68104">
        <ele>52</ele>
        <time>2021-08-14T06:46:21.000Z</time>
      </trkpt>
      <trkpt lat="47.19378" lon="-1.68095">
        <ele>51</ele>
        <time>2021-08-14T06:46:23.000Z</time>
      </trkpt>
      <trkpt lat="47.19389" lon="-1.68086">
        <ele>52</ele>
        <time>2021-08-14T06:46:25.000Z</time>
      </trkpt>
      <trkpt lat="47.19399" lon="-1.68078">
        <ele>52</ele>
        <time>2021-08-14T06:46:27.000Z</time>
      </trkpt>
      <trkpt lat="47.19409" lon="-1.6807">
        <ele>52</ele>
        <time>2021-08-14T06:46:29.000Z</time>
      </trkpt>
      <trkpt lat="47.19417" lon="-1.68061">
        <ele>51</ele>
        <time>2021-08-14T06:46:31.000Z</time>
      </trkpt>
      <trkpt lat="47.19418" lon="-1.68045">
        <ele>52</ele>
        <time>2021-08-14T06:46:33.000Z</time>
      </trkpt>
      <trkpt lat="47.19418" lon="-1.68026">
        <ele>52</ele>
        <time>2021-08-14T06:46:35.000Z</time>
      </trkpt>
      <trkpt lat="47.19409" lon="-1.67996">
        <ele>54</ele>
        <time>2021-08-14T06:46:38.000Z</time>
      </trkpt>
      <trkpt lat="47.19401" lon="-1.67968">
        <ele>54</ele>
        <time>2021-08-14T06:46:41.000Z</time>
      </trkpt>
      <trkpt lat="47.19394" lon="-1.6794">
        <ele>54</ele>
        <time>2021-08-14T06:46:44.000Z</time>
      </trkpt>
      <trkpt lat="47.19389" lon="-1.67921">
        <ele>54</ele>
        <time>2021-08-14T06:46:46.000Z</time>
      </trkpt>
      <trkpt lat="47.19381" lon="-1.67893">
        <ele>55</ele>
        <time>2021-08-14T06:46:49.000Z</time>
      </trkpt>
      <trkpt lat="47.19377" lon="-1.67874">
        <ele>54</ele>
        <time>2021-08-14T06:46:51.000Z</time>
      </trkpt>
      <trkpt lat="47.19373" lon="-1.67855">
        <ele>54</ele>
        <time>2021-08-14T06:46:53.000Z</time>
      </trkpt>
      <trkpt lat="47.19369" lon="-1.67836">
        <ele>54</ele>
        <time>2021-08-14T06:46:55.000Z</time>
      </trkpt>
      <trkpt lat="47.19367" lon="-1.67817">
        <ele>54</ele>
        <time>2021-08-14T06:46:57.000Z</time>
      </trkpt>
      <trkpt lat="47.19367" lon="-1.67796">
        <ele>54</ele>
        <time>2021-08-14T06:46:59.000Z</time>
      </trkpt>
      <trkpt lat="47.19368" lon="-1.67775">
        <ele>54</ele>
        <time>2021-08-14T06:47:01.000Z</time>
      </trkpt>
      <trkpt lat="47.1937" lon="-1.67755">
        <ele>54</ele>
        <time>2021-08-14T06:47:03.000Z</time>
      </trkpt>
      <trkpt lat="47.19373" lon="-1.67734">
        <ele>53</ele>
        <time>2021-08-14T06:47:05.000Z</time>
      </trkpt>
      <trkpt lat="47.19376" lon="-1.67714">
        <ele>53</ele>
        <time>2021-08-14T06:47:07.000Z</time>
      </trkpt>
      <trkpt lat="47.19381" lon="-1.67694">
        <ele>53</ele>
        <time>2021-08-14T06:47:09.000Z</time>
      </trkpt>
      <trkpt lat="47.19387" lon="-1.67674">
        <ele>53</ele>
        <time>2021-08-14T06:47:11.000Z</time>
      </trkpt>
      <trkpt lat="47.19394" lon="-1.67655">
        <ele>52</ele>
        <time>2021-08-14T06:47:13.000Z</time>
      </trkpt>
      <trkpt lat="47.19402" lon="-1.67638">
        <ele>52</ele>
        <time>2021-08-14T06:47:15.000Z</time>
      </trkpt>
      <trkpt lat="47.1941" lon="-1.67621">
        <ele>53</ele>
        <time>2021-08-14T06:47:17.000Z</time>
      </trkpt>
      <trkpt lat="47.1942" lon="-1.67605">
        <ele>53</ele>
        <time>2021-08-14T06:47:19.000Z</time>
      </trkpt>
      <trkpt lat="47.1943" lon="-1.6759">
        <ele>53</ele>
        <time>2021-08-14T06:47:21.000Z</time>
      </trkpt>
      <trkpt lat="47.1944" lon="-1.67577">
        <ele>54</ele>
        <time>2021-08-14T06:47:23.000Z</time>
      </trkpt>
      <trkpt lat="47.1945" lon="-1.67567">
        <ele>54</ele>
        <time>2021-08-14T06:47:25.000Z</time>
      </trkpt>
      <trkpt lat="47.19461" lon="-1.67558">
        <ele>54</ele>
        <time>2021-08-14T06:47:27.000Z</time>
      </trkpt>
      <trkpt lat="47.19471" lon="-1.67549">
        <ele>54</ele>
        <time>2021-08-14T06:47:29.000Z</time>
      </trkpt>
      <trkpt lat="47.19481" lon="-1.67541">
        <ele>53</ele>
        <time>2021-08-14T06:47:31.000Z</time>
      </trkpt>
      <trkpt lat="47.1949" lon="-1.67533">
        <ele>53</ele>
        <time>2021-08-14T06:47:33.000Z</time>
      </trkpt>
      <trkpt lat="47.19496" lon="-1.67522">
        <ele>53</ele>
        <time>2021-08-14T06:47:35.000Z</time>
      </trkpt>
      <trkpt lat="47.19504" lon="-1.67509">
        <ele>54</ele>
        <time>2021-08-14T06:47:38.000Z</time>
      </trkpt>
      <trkpt lat="47.19512" lon="-1.67503">
        <ele>55</ele>
        <time>2021-08-14T06:47:40.000Z</time>
      </trkpt>
      <trkpt lat="47.19523" lon="-1.67509">
        <ele>57</ele>
        <time>2021-08-14T06:47:43.000Z</time>
      </trkpt>
      <trkpt lat="47.19535" lon="-1.6751">
        <ele>58</ele>
        <time>2021-08-14T06:47:46.000Z</time>
      </trkpt>
      <trkpt lat="47.19538" lon="-1.67496">
        <ele>55</ele>
        <time>2021-08-14T06:48:48.000Z</time>
      </trkpt>
      <trkpt lat="47.19536" lon="-1.67481">
        <ele>55</ele>
        <time>2021-08-14T06:48:50.000Z</time>
      </trkpt>
      <trkpt lat="47.19536" lon="-1.67466">
        <ele>56</ele>
        <time>2021-08-14T06:48:52.000Z</time>
      </trkpt>
      <trkpt lat="47.19536" lon="-1.67448">
        <ele>56</ele>
        <time>2021-08-14T06:48:55.000Z</time>
      </trkpt>
      <trkpt lat="47.19534" lon="-1.67431">
        <ele>57</ele>
        <time>2021-08-14T06:48:58.000Z</time>
      </trkpt>
      <trkpt lat="47.19537" lon="-1.67418">
        <ele>58</ele>
        <time>2021-08-14T06:50:49.000Z</time>
      </trkpt>
      <trkpt lat="47.19543" lon="-1.67407">
        <ele>59</ele>
        <time>2021-08-14T06:51:03.000Z</time>
      </trkpt>
      <trkpt lat="47.19547" lon="-1.67395">
        <ele>56</ele>
        <time>2021-08-14T06:51:11.000Z</time>
      </trkpt>
      <trkpt lat="47.19554" lon="-1.67384">
        <ele>56</ele>
        <time>2021-08-14T06:51:18.000Z</time>
      </trkpt>
      <trkpt lat="47.1956" lon="-1.67373">
        <ele>55</ele>
        <time>2021-08-14T06:51:25.000Z</time>
      </trkpt>
      <trkpt lat="47.19567" lon="-1.67364">
        <ele>57</ele>
        <time>2021-08-14T06:51:33.000Z</time>
      </trkpt>
      <trkpt lat="47.19576" lon="-1.67357">
        <ele>55</ele>
        <time>2021-08-14T06:51:41.000Z</time>
      </trkpt>
      <trkpt lat="47.19584" lon="-1.6735">
        <ele>55</ele>
        <time>2021-08-14T06:51:48.000Z</time>
      </trkpt>
      <trkpt lat="47.19592" lon="-1.67343">
        <ele>54</ele>
        <time>2021-08-14T06:51:53.000Z</time>
      </trkpt>
      <trkpt lat="47.19602" lon="-1.67335">
        <ele>53</ele>
        <time>2021-08-14T06:51:58.000Z</time>
      </trkpt>
      <trkpt lat="47.19611" lon="-1.6733">
        <ele>55</ele>
        <time>2021-08-14T06:52:02.000Z</time>
      </trkpt>
      <trkpt lat="47.19621" lon="-1.67326">
        <ele>56</ele>
        <time>2021-08-14T06:52:06.000Z</time>
      </trkpt>
      <trkpt lat="47.1963" lon="-1.6732">
        <ele>56</ele>
        <time>2021-08-14T06:52:10.000Z</time>
      </trkpt>
      <trkpt lat="47.19639" lon="-1.67316">
        <ele>58</ele>
        <time>2021-08-14T06:52:14.000Z</time>
      </trkpt>
      <trkpt lat="47.19648" lon="-1.67312">
        <ele>59</ele>
        <time>2021-08-14T06:52:18.000Z</time>
      </trkpt>
      <trkpt lat="47.19658" lon="-1.6731">
        <ele>56</ele>
        <time>2021-08-14T06:52:23.000Z</time>
      </trkpt>
      <trkpt lat="47.19668" lon="-1.6731">
        <ele>55</ele>
        <time>2021-08-14T06:52:28.000Z</time>
      </trkpt>
      <trkpt lat="47.19677" lon="-1.67311">
        <ele>55</ele>
        <time>2021-08-14T06:52:34.000Z</time>
      </trkpt>
      <trkpt lat="47.19687" lon="-1.67313">
        <ele>55</ele>
        <time>2021-08-14T06:52:41.000Z</time>
      </trkpt>
      <trkpt lat="47.19696" lon="-1.67317">
        <ele>54</ele>
        <time>2021-08-14T06:52:49.000Z</time>
      </trkpt>
      <trkpt lat="47.19705" lon="-1.6732">
        <ele>55</ele>
        <time>2021-08-14T06:52:59.000Z</time>
      </trkpt>
      <trkpt lat="47.19714" lon="-1.67325">
        <ele>56</ele>
        <time>2021-08-14T06:53:16.000Z</time>
      </trkpt>
      <trkpt lat="47.19724" lon="-1.67332">
        <ele>56</ele>
        <time>2021-08-14T06:53:34.000Z</time>
      </trkpt>
      <trkpt lat="47.19736" lon="-1.6734">
        <ele>55</ele>
        <time>2021-08-14T06:53:37.000Z</time>
      </trkpt>
      <trkpt lat="47.19747" lon="-1.67339">
        <ele>55</ele>
        <time>2021-08-14T06:53:39.000Z</time>
      </trkpt>
      <trkpt lat="47.19759" lon="-1.6733">
        <ele>54</ele>
        <time>2021-08-14T06:53:41.000Z</time>
      </trkpt>
      <trkpt lat="47.19769" lon="-1.67319">
        <ele>54</ele>
        <time>2021-08-14T06:53:43.000Z</time>
      </trkpt>
      <trkpt lat="47.19778" lon="-1.6731">
        <ele>54</ele>
        <time>2021-08-14T06:53:45.000Z</time>
      </trkpt>
      <trkpt lat="47.19787" lon="-1.67302">
        <ele>54</ele>
        <time>2021-08-14T06:53:47.000Z</time>
      </trkpt>
      <trkpt lat="47.19795" lon="-1.67295">
        <ele>54</ele>
        <time>2021-08-14T06:53:49.000Z</time>
      </trkpt>
      <trkpt lat="47.19805" lon="-1.67298">
        <ele>54</ele>
        <time>2021-08-14T06:53:51.000Z</time>
      </trkpt>
      <trkpt lat="47.19813" lon="-1.67313">
        <ele>54</ele>
        <time>2021-08-14T06:53:53.000Z</time>
      </trkpt>
      <trkpt lat="47.19822" lon="-1.67329">
        <ele>54</ele>
        <time>2021-08-14T06:53:55.000Z</time>
      </trkpt>
      <trkpt lat="47.1983" lon="-1.67346">
        <ele>55</ele>
        <time>2021-08-14T06:53:57.000Z</time>
      </trkpt>
      <trkpt lat="47.19839" lon="-1.67363">
        <ele>55</ele>
        <time>2021-08-14T06:53:59.000Z</time>
      </trkpt>
      <trkpt lat="47.19848" lon="-1.6738">
        <ele>55</ele>
        <time>2021-08-14T06:54:01.000Z</time>
      </trkpt>
      <trkpt lat="47.19856" lon="-1.67397">
        <ele>55</ele>
        <time>2021-08-14T06:54:03.000Z</time>
      </trkpt>
      <trkpt lat="47.19865" lon="-1.67415">
        <ele>54</ele>
        <time>2021-08-14T06:54:05.000Z</time>
      </trkpt>
      <trkpt lat="47.19873" lon="-1.67433">
        <ele>54</ele>
        <time>2021-08-14T06:54:07.000Z</time>
      </trkpt>
      <trkpt lat="47.19882" lon="-1.6745">
        <ele>54</ele>
        <time>2021-08-14T06:54:09.000Z</time>
      </trkpt>
      <trkpt lat="47.1989" lon="-1.67467">
        <ele>54</ele>
        <time>2021-08-14T06:54:11.000Z</time>
      </trkpt>
      <trkpt lat="47.19898" lon="-1.67484">
        <ele>54</ele>
        <time>2021-08-14T06:54:13.000Z</time>
      </trkpt>
      <trkpt lat="47.19907" lon="-1.67502">
        <ele>54</ele>
        <time>2021-08-14T06:54:15.000Z</time>
      </trkpt>
      <trkpt lat="47.19914" lon="-1.6752">
        <ele>54</ele>
        <time>2021-08-14T06:54:17.000Z</time>
      </trkpt>
      <trkpt lat="47.19923" lon="-1.67537">
        <ele>55</ele>
        <time>2021-08-14T06:54:19.000Z</time>
      </trkpt>
      <trkpt lat="47.19931" lon="-1.67554">
        <ele>55</ele>
        <time>2021-08-14T06:54:21.000Z</time>
      </trkpt>
      <trkpt lat="47.19938" lon="-1.67572">
        <ele>56</ele>
        <time>2021-08-14T06:54:23.000Z</time>
      </trkpt>
      <trkpt lat="47.19946" lon="-1.67589">
        <ele>55</ele>
        <time>2021-08-14T06:54:25.000Z</time>
      </trkpt>
      <trkpt lat="47.19954" lon="-1.67607">
        <ele>54</ele>
        <time>2021-08-14T06:54:27.000Z</time>
      </trkpt>
      <trkpt lat="47.19962" lon="-1.67623">
        <ele>54</ele>
        <time>2021-08-14T06:54:29.000Z</time>
      </trkpt>
      <trkpt lat="47.19971" lon="-1.6764">
        <ele>54</ele>
        <time>2021-08-14T06:54:31.000Z</time>
      </trkpt>
      <trkpt lat="47.19981" lon="-1.67655">
        <ele>54</ele>
        <time>2021-08-14T06:54:33.000Z</time>
      </trkpt>
      <trkpt lat="47.19991" lon="-1.6767">
        <ele>54</ele>
        <time>2021-08-14T06:54:35.000Z</time>
      </trkpt>
      <trkpt lat="47.2" lon="-1.67686">
        <ele>54</ele>
        <time>2021-08-14T06:54:37.000Z</time>
      </trkpt>
      <trkpt lat="47.2001" lon="-1.67702">
        <ele>54</ele>
        <time>2021-08-14T06:54:39.000Z</time>
      </trkpt>
      <trkpt lat="47.2002" lon="-1.67717">
        <ele>54</ele>
        <time>2021-08-14T06:54:41.000Z</time>
      </trkpt>
      <trkpt lat="47.20029" lon="-1.67733">
        <ele>54</ele>
        <time>2021-08-14T06:54:43.000Z</time>
      </trkpt>
      <trkpt lat="47.20039" lon="-1.6775">
        <ele>53</ele>
        <time>2021-08-14T06:54:45.000Z</time>
      </trkpt>
      <trkpt lat="47.20048" lon="-1.67766">
        <ele>53</ele>
        <time>2021-08-14T06:54:47.000Z</time>
      </trkpt>
      <trkpt lat="47.20058" lon="-1.67782">
        <ele>53</ele>
        <time>2021-08-14T06:54:49.000Z</time>
      </trkpt>
      <trkpt lat="47.20067" lon="-1.67797">
        <ele>53</ele>
        <time>2021-08-14T06:54:51.000Z</time>
      </trkpt>
      <trkpt lat="47.20077" lon="-1.67813">
        <ele>53</ele>
        <time>2021-08-14T06:54:53.000Z</time>
      </trkpt>
      <trkpt lat="47.20086" lon="-1.67829">
        <ele>53</ele>
        <time>2021-08-14T06:54:55.000Z</time>
      </trkpt>
      <trkpt lat="47.20094" lon="-1.67846">
        <ele>53</ele>
        <time>2021-08-14T06:54:57.000Z</time>
      </trkpt>
      <trkpt lat="47.20102" lon="-1.67862">
        <ele>53</ele>
        <time>2021-08-14T06:54:59.000Z</time>
      </trkpt>
      <trkpt lat="47.20111" lon="-1.67878">
        <ele>53</ele>
        <time>2021-08-14T06:55:01.000Z</time>
      </trkpt>
      <trkpt lat="47.20119" lon="-1.67893">
        <ele>54</ele>
        <time>2021-08-14T06:55:03.000Z</time>
      </trkpt>
      <trkpt lat="47.20129" lon="-1.67908">
        <ele>54</ele>
        <time>2021-08-14T06:55:05.000Z</time>
      </trkpt>
      <trkpt lat="47.20142" lon="-1.67913">
        <ele>54</ele>
        <time>2021-08-14T06:55:07.000Z</time>
      </trkpt>
      <trkpt lat="47.20153" lon="-1.67908">
        <ele>55</ele>
        <time>2021-08-14T06:55:09.000Z</time>
      </trkpt>
      <trkpt lat="47.20163" lon="-1.67895">
        <ele>56</ele>
        <time>2021-08-14T06:55:11.000Z</time>
      </trkpt>
      <trkpt lat="47.20173" lon="-1.67884">
        <ele>56</ele>
        <time>2021-08-14T06:55:13.000Z</time>
      </trkpt>
      <trkpt lat="47.20182" lon="-1.67875">
        <ele>57</ele>
        <time>2021-08-14T06:55:15.000Z</time>
      </trkpt>
      <trkpt lat="47.20192" lon="-1.67866">
        <ele>57</ele>
        <time>2021-08-14T06:55:17.000Z</time>
      </trkpt>
      <trkpt lat="47.20201" lon="-1.67858">
        <ele>57</ele>
        <time>2021-08-14T06:55:19.000Z</time>
      </trkpt>
      <trkpt lat="47.20213" lon="-1.67849">
        <ele>58</ele>
        <time>2021-08-14T06:55:21.000Z</time>
      </trkpt>
      <trkpt lat="47.20225" lon="-1.67839">
        <ele>57</ele>
        <time>2021-08-14T06:55:23.000Z</time>
      </trkpt>
      <trkpt lat="47.20233" lon="-1.67822">
        <ele>56</ele>
        <time>2021-08-14T06:55:25.000Z</time>
      </trkpt>
      <trkpt lat="47.20229" lon="-1.67797">
        <ele>57</ele>
        <time>2021-08-14T06:55:27.000Z</time>
      </trkpt>
      <trkpt lat="47.20224" lon="-1.67785">
        <ele>56</ele>
        <time>2021-08-14T06:55:28.000Z</time>
      </trkpt>
      <trkpt lat="47.20219" lon="-1.67774">
        <ele>57</ele>
        <time>2021-08-14T06:55:29.000Z</time>
      </trkpt>
      <trkpt lat="47.20215" lon="-1.67762">
        <ele>57</ele>
        <time>2021-08-14T06:55:30.000Z</time>
      </trkpt>
      <trkpt lat="47.20211" lon="-1.6775">
        <ele>56</ele>
        <time>2021-08-14T06:55:31.000Z</time>
      </trkpt>
      <trkpt lat="47.20203" lon="-1.67728">
        <ele>56</ele>
        <time>2021-08-14T06:55:33.000Z</time>
      </trkpt>
      <trkpt lat="47.20195" lon="-1.67706">
        <ele>55</ele>
        <time>2021-08-14T06:55:35.000Z</time>
      </trkpt>
      <trkpt lat="47.20187" lon="-1.67684">
        <ele>55</ele>
        <time>2021-08-14T06:55:37.000Z</time>
      </trkpt>
      <trkpt lat="47.20178" lon="-1.67664">
        <ele>54</ele>
        <time>2021-08-14T06:55:39.000Z</time>
      </trkpt>
      <trkpt lat="47.2017" lon="-1.67644">
        <ele>54</ele>
        <time>2021-08-14T06:55:41.000Z</time>
      </trkpt>
      <trkpt lat="47.20163" lon="-1.67624">
        <ele>54</ele>
        <time>2021-08-14T06:55:43.000Z</time>
      </trkpt>
      <trkpt lat="47.20155" lon="-1.67604">
        <ele>54</ele>
        <time>2021-08-14T06:55:45.000Z</time>
      </trkpt>
      <trkpt lat="47.20148" lon="-1.67585">
        <ele>54</ele>
        <time>2021-08-14T06:55:47.000Z</time>
      </trkpt>
      <trkpt lat="47.20142" lon="-1.67566">
        <ele>54</ele>
        <time>2021-08-14T06:55:49.000Z</time>
      </trkpt>
      <trkpt lat="47.20135" lon="-1.67548">
        <ele>54</ele>
        <time>2021-08-14T06:55:51.000Z</time>
      </trkpt>
      <trkpt lat="47.20128" lon="-1.67531">
        <ele>54</ele>
        <time>2021-08-14T06:55:53.000Z</time>
      </trkpt>
      <trkpt lat="47.20121" lon="-1.67514">
        <ele>53</ele>
        <time>2021-08-14T06:55:55.000Z</time>
      </trkpt>
      <trkpt lat="47.20115" lon="-1.67497">
        <ele>54</ele>
        <time>2021-08-14T06:55:57.000Z</time>
      </trkpt>
      <trkpt lat="47.2012" lon="-1.67482">
        <ele>55</ele>
        <time>2021-08-14T06:55:59.000Z</time>
      </trkpt>
      <trkpt lat="47.20135" lon="-1.67473">
        <ele>55</ele>
        <time>2021-08-14T06:56:01.000Z</time>
      </trkpt>
      <trkpt lat="47.20148" lon="-1.67466">
        <ele>54</ele>
        <time>2021-08-14T06:56:03.000Z</time>
      </trkpt>
      <trkpt lat="47.20162" lon="-1.6746">
        <ele>55</ele>
        <time>2021-08-14T06:56:05.000Z</time>
      </trkpt>
      <trkpt lat="47.20176" lon="-1.67453">
        <ele>55</ele>
        <time>2021-08-14T06:56:07.000Z</time>
      </trkpt>
      <trkpt lat="47.2019" lon="-1.67446">
        <ele>54</ele>
        <time>2021-08-14T06:56:09.000Z</time>
      </trkpt>
      <trkpt lat="47.20204" lon="-1.67439">
        <ele>54</ele>
        <time>2021-08-14T06:56:11.000Z</time>
      </trkpt>
      <trkpt lat="47.20218" lon="-1.67433">
        <ele>54</ele>
        <time>2021-08-14T06:56:13.000Z</time>
      </trkpt>
      <trkpt lat="47.20231" lon="-1.67426">
        <ele>54</ele>
        <time>2021-08-14T06:56:15.000Z</time>
      </trkpt>
      <trkpt lat="47.20245" lon="-1.6742">
        <ele>54</ele>
        <time>2021-08-14T06:56:17.000Z</time>
      </trkpt>
      <trkpt lat="47.20259" lon="-1.67413">
        <ele>54</ele>
        <time>2021-08-14T06:56:19.000Z</time>
      </trkpt>
      <trkpt lat="47.20272" lon="-1.67406">
        <ele>54</ele>
        <time>2021-08-14T06:56:21.000Z</time>
      </trkpt>
      <trkpt lat="47.20285" lon="-1.674">
        <ele>54</ele>
        <time>2021-08-14T06:56:23.000Z</time>
      </trkpt>
      <trkpt lat="47.20299" lon="-1.67394">
        <ele>54</ele>
        <time>2021-08-14T06:56:25.000Z</time>
      </trkpt>
      <trkpt lat="47.20313" lon="-1.67388">
        <ele>54</ele>
        <time>2021-08-14T06:56:27.000Z</time>
      </trkpt>
      <trkpt lat="47.20327" lon="-1.67386">
        <ele>53</ele>
        <time>2021-08-14T06:56:29.000Z</time>
      </trkpt>
      <trkpt lat="47.20342" lon="-1.67392">
        <ele>53</ele>
        <time>2021-08-14T06:56:31.000Z</time>
      </trkpt>
      <trkpt lat="47.20355" lon="-1.67402">
        <ele>53</ele>
        <time>2021-08-14T06:56:33.000Z</time>
      </trkpt>
      <trkpt lat="47.20364" lon="-1.67419">
        <ele>53</ele>
        <time>2021-08-14T06:56:35.000Z</time>
      </trkpt>
      <trkpt lat="47.2037" lon="-1.67439">
        <ele>53</ele>
        <time>2021-08-14T06:56:37.000Z</time>
      </trkpt>
      <trkpt lat="47.20373" lon="-1.67461">
        <ele>53</ele>
        <time>2021-08-14T06:56:39.000Z</time>
      </trkpt>
      <trkpt lat="47.20377" lon="-1.67482">
        <ele>53</ele>
        <time>2021-08-14T06:56:41.000Z</time>
      </trkpt>
      <trkpt lat="47.2038" lon="-1.67503">
        <ele>54</ele>
        <time>2021-08-14T06:56:43.000Z</time>
      </trkpt>
      <trkpt lat="47.20383" lon="-1.67523">
        <ele>54</ele>
        <time>2021-08-14T06:56:45.000Z</time>
      </trkpt>
      <trkpt lat="47.20389" lon="-1.67541">
        <ele>54</ele>
        <time>2021-08-14T06:56:47.000Z</time>
      </trkpt>
      <trkpt lat="47.204" lon="-1.67551">
        <ele>54</ele>
        <time>2021-08-14T06:56:49.000Z</time>
      </trkpt>
      <trkpt lat="47.20413" lon="-1.67547">
        <ele>54</ele>
        <time>2021-08-14T06:56:51.000Z</time>
      </trkpt>
      <trkpt lat="47.20426" lon="-1.67538">
        <ele>54</ele>
        <time>2021-08-14T06:56:53.000Z</time>
      </trkpt>
      <trkpt lat="47.20438" lon="-1.6754">
        <ele>54</ele>
        <time>2021-08-14T06:56:55.000Z</time>
      </trkpt>
      <trkpt lat="47.20447" lon="-1.67556">
        <ele>55</ele>
        <time>2021-08-14T06:56:57.000Z</time>
      </trkpt>
      <trkpt lat="47.20453" lon="-1.67576">
        <ele>55</ele>
        <time>2021-08-14T06:56:59.000Z</time>
      </trkpt>
      <trkpt lat="47.20462" lon="-1.67592">
        <ele>55</ele>
        <time>2021-08-14T06:57:01.000Z</time>
      </trkpt>
      <trkpt lat="47.20472" lon="-1.67607">
        <ele>55</ele>
        <time>2021-08-14T06:57:03.000Z</time>
      </trkpt>
      <trkpt lat="47.2048" lon="-1.67624">
        <ele>55</ele>
        <time>2021-08-14T06:57:05.000Z</time>
      </trkpt>
      <trkpt lat="47.20488" lon="-1.67642">
        <ele>55</ele>
        <time>2021-08-14T06:57:07.000Z</time>
      </trkpt>
      <trkpt lat="47.20496" lon="-1.6766">
        <ele>55</ele>
        <time>2021-08-14T06:57:09.000Z</time>
      </trkpt>
      <trkpt lat="47.20503" lon="-1.6768">
        <ele>55</ele>
        <time>2021-08-14T06:57:11.000Z</time>
      </trkpt>
      <trkpt lat="47.2051" lon="-1.67699">
        <ele>55</ele>
        <time>2021-08-14T06:57:13.000Z</time>
      </trkpt>
      <trkpt lat="47.20517" lon="-1.67719">
        <ele>55</ele>
        <time>2021-08-14T06:57:15.000Z</time>
      </trkpt>
      <trkpt lat="47.20524" lon="-1.67738">
        <ele>55</ele>
        <time>2021-08-14T06:57:17.000Z</time>
      </trkpt>
      <trkpt lat="47.20531" lon="-1.67758">
        <ele>55</ele>
        <time>2021-08-14T06:57:19.000Z</time>
      </trkpt>
      <trkpt lat="47.20537" lon="-1.67777">
        <ele>55</ele>
        <time>2021-08-14T06:57:21.000Z</time>
      </trkpt>
      <trkpt lat="47.20544" lon="-1.67796">
        <ele>55</ele>
        <time>2021-08-14T06:57:23.000Z</time>
      </trkpt>
      <trkpt lat="47.2055" lon="-1.67816">
        <ele>54</ele>
        <time>2021-08-14T06:57:25.000Z</time>
      </trkpt>
      <trkpt lat="47.20557" lon="-1.67836">
        <ele>55</ele>
        <time>2021-08-14T06:57:27.000Z</time>
      </trkpt>
      <trkpt lat="47.20563" lon="-1.67854">
        <ele>54</ele>
        <time>2021-08-14T06:57:29.000Z</time>
      </trkpt>
      <trkpt lat="47.20569" lon="-1.67874">
        <ele>54</ele>
        <time>2021-08-14T06:57:31.000Z</time>
      </trkpt>
      <trkpt lat="47.20576" lon="-1.67893">
        <ele>54</ele>
        <time>2021-08-14T06:57:33.000Z</time>
      </trkpt>
      <trkpt lat="47.20581" lon="-1.67913">
        <ele>54</ele>
        <time>2021-08-14T06:57:35.000Z</time>
      </trkpt>
      <trkpt lat="47.20587" lon="-1.67932">
        <ele>54</ele>
        <time>2021-08-14T06:57:37.000Z</time>
      </trkpt>
      <trkpt lat="47.20593" lon="-1.67952">
        <ele>54</ele>
        <time>2021-08-14T06:57:39.000Z</time>
      </trkpt>
      <trkpt lat="47.20598" lon="-1.67972">
        <ele>54</ele>
        <time>2021-08-14T06:57:41.000Z</time>
      </trkpt>
      <trkpt lat="47.20604" lon="-1.67992">
        <ele>54</ele>
        <time>2021-08-14T06:57:43.000Z</time>
      </trkpt>
      <trkpt lat="47.2061" lon="-1.68012">
        <ele>54</ele>
        <time>2021-08-14T06:57:45.000Z</time>
      </trkpt>
      <trkpt lat="47.20616" lon="-1.68031">
        <ele>54</ele>
        <time>2021-08-14T06:57:47.000Z</time>
      </trkpt>
      <trkpt lat="47.20621" lon="-1.68051">
        <ele>55</ele>
        <time>2021-08-14T06:57:49.000Z</time>
      </trkpt>
      <trkpt lat="47.20627" lon="-1.68071">
        <ele>55</ele>
        <time>2021-08-14T06:57:51.000Z</time>
      </trkpt>
      <trkpt lat="47.20633" lon="-1.6809">
        <ele>55</ele>
        <time>2021-08-14T06:57:53.000Z</time>
      </trkpt>
      <trkpt lat="47.20639" lon="-1.68109">
        <ele>55</ele>
        <time>2021-08-14T06:57:55.000Z</time>
      </trkpt>
      <trkpt lat="47.20644" lon="-1.68129">
        <ele>55</ele>
        <time>2021-08-14T06:57:57.000Z</time>
      </trkpt>
      <trkpt lat="47.2065" lon="-1.68148">
        <ele>55</ele>
        <time>2021-08-14T06:57:59.000Z</time>
      </trkpt>
      <trkpt lat="47.20656" lon="-1.68168">
        <ele>55</ele>
        <time>2021-08-14T06:58:01.000Z</time>
      </trkpt>
      <trkpt lat="47.20662" lon="-1.68187">
        <ele>55</ele>
        <time>2021-08-14T06:58:03.000Z</time>
      </trkpt>
      <trkpt lat="47.20668" lon="-1.68207">
        <ele>55</ele>
        <time>2021-08-14T06:58:05.000Z</time>
      </trkpt>
      <trkpt lat="47.20673" lon="-1.68226">
        <ele>55</ele>
        <time>2021-08-14T06:58:07.000Z</time>
      </trkpt>
      <trkpt lat="47.20679" lon="-1.68245">
        <ele>55</ele>
        <time>2021-08-14T06:58:09.000Z</time>
      </trkpt>
      <trkpt lat="47.20684" lon="-1.68265">
        <ele>55</ele>
        <time>2021-08-14T06:58:11.000Z</time>
      </trkpt>
      <trkpt lat="47.2069" lon="-1.68284">
        <ele>55</ele>
        <time>2021-08-14T06:58:13.000Z</time>
      </trkpt>
      <trkpt lat="47.20696" lon="-1.68303">
        <ele>55</ele>
        <time>2021-08-14T06:58:15.000Z</time>
      </trkpt>
      <trkpt lat="47.20701" lon="-1.68322">
        <ele>55</ele>
        <time>2021-08-14T06:58:17.000Z</time>
      </trkpt>
      <trkpt lat="47.20707" lon="-1.68341">
        <ele>55</ele>
        <time>2021-08-14T06:58:19.000Z</time>
      </trkpt>
      <trkpt lat="47.20714" lon="-1.68359">
        <ele>55</ele>
        <time>2021-08-14T06:58:21.000Z</time>
      </trkpt>
      <trkpt lat="47.20726" lon="-1.68372">
        <ele>54</ele>
        <time>2021-08-14T06:58:23.000Z</time>
      </trkpt>
      <trkpt lat="47.20739" lon="-1.68381">
        <ele>54</ele>
        <time>2021-08-14T06:58:25.000Z</time>
      </trkpt>
      <trkpt lat="47.20753" lon="-1.68386">
        <ele>54</ele>
        <time>2021-08-14T06:58:27.000Z</time>
      </trkpt>
      <trkpt lat="47.20767" lon="-1.68387">
        <ele>54</ele>
        <time>2021-08-14T06:58:29.000Z</time>
      </trkpt>
      <trkpt lat="47.20781" lon="-1.68389">
        <ele>55</ele>
        <time>2021-08-14T06:58:31.000Z</time>
      </trkpt>
      <trkpt lat="47.20795" lon="-1.6839">
        <ele>55</ele>
        <time>2021-08-14T06:58:33.000Z</time>
      </trkpt>
      <trkpt lat="47.2081" lon="-1.68391">
        <ele>55</ele>
        <time>2021-08-14T06:58:35.000Z</time>
      </trkpt>
      <trkpt lat="47.20824" lon="-1.68393">
        <ele>55</ele>
        <time>2021-08-14T06:58:37.000Z</time>
      </trkpt>
      <trkpt lat="47.20838" lon="-1.68394">
        <ele>54</ele>
        <time>2021-08-14T06:58:39.000Z</time>
      </trkpt>
      <trkpt lat="47.20852" lon="-1.68395">
        <ele>54</ele>
        <time>2021-08-14T06:58:41.000Z</time>
      </trkpt>
      <trkpt lat="47.20867" lon="-1.68395">
        <ele>55</ele>
        <time>2021-08-14T06:58:43.000Z</time>
      </trkpt>
      <trkpt lat="47.20881" lon="-1.68396">
        <ele>55</ele>
        <time>2021-08-14T06:58:45.000Z</time>
      </trkpt>
      <trkpt lat="47.20895" lon="-1.68397">
        <ele>55</ele>
        <time>2021-08-14T06:58:47.000Z</time>
      </trkpt>
      <trkpt lat="47.20909" lon="-1.68398">
        <ele>55</ele>
        <time>2021-08-14T06:58:49.000Z</time>
      </trkpt>
      <trkpt lat="47.20924" lon="-1.68397">
        <ele>55</ele>
        <time>2021-08-14T06:58:51.000Z</time>
      </trkpt>
      <trkpt lat="47.20938" lon="-1.68398">
        <ele>55</ele>
        <time>2021-08-14T06:58:53.000Z</time>
      </trkpt>
      <trkpt lat="47.20952" lon="-1.68398">
        <ele>54</ele>
        <time>2021-08-14T06:58:55.000Z</time>
      </trkpt>
      <trkpt lat="47.20967" lon="-1.68399">
        <ele>54</ele>
        <time>2021-08-14T06:58:57.000Z</time>
      </trkpt>
      <trkpt lat="47.20982" lon="-1.684">
        <ele>54</ele>
        <time>2021-08-14T06:58:59.000Z</time>
      </trkpt>
      <trkpt lat="47.20996" lon="-1.684">
        <ele>54</ele>
        <time>2021-08-14T06:59:01.000Z</time>
      </trkpt>
      <trkpt lat="47.21011" lon="-1.68401">
        <ele>55</ele>
        <time>2021-08-14T06:59:03.000Z</time>
      </trkpt>
      <trkpt lat="47.21025" lon="-1.68403">
        <ele>54</ele>
        <time>2021-08-14T06:59:05.000Z</time>
      </trkpt>
      <trkpt lat="47.21039" lon="-1.68404">
        <ele>53</ele>
        <time>2021-08-14T06:59:07.000Z</time>
      </trkpt>
      <trkpt lat="47.21053" lon="-1.68404">
        <ele>53</ele>
        <time>2021-08-14T06:59:09.000Z</time>
      </trkpt>
      <trkpt lat="47.21067" lon="-1.68404">
        <ele>53</ele>
        <time>2021-08-14T06:59:11.000Z</time>
      </trkpt>
      <trkpt lat="47.21081" lon="-1.68405">
        <ele>53</ele>
        <time>2021-08-14T06:59:13.000Z</time>
      </trkpt>
      <trkpt lat="47.21095" lon="-1.68406">
        <ele>53</ele>
        <time>2021-08-14T06:59:15.000Z</time>
      </trkpt>
      <trkpt lat="47.21109" lon="-1.68406">
        <ele>53</ele>
        <time>2021-08-14T06:59:17.000Z</time>
      </trkpt>
      <trkpt lat="47.21123" lon="-1.68407">
        <ele>54</ele>
        <time>2021-08-14T06:59:19.000Z</time>
      </trkpt>
      <trkpt lat="47.21137" lon="-1.68407">
        <ele>54</ele>
        <time>2021-08-14T06:59:21.000Z</time>
      </trkpt>
      <trkpt lat="47.2115" lon="-1.68408">
        <ele>54</ele>
        <time>2021-08-14T06:59:23.000Z</time>
      </trkpt>
      <trkpt lat="47.21163" lon="-1.68409">
        <ele>54</ele>
        <time>2021-08-14T06:59:25.000Z</time>
      </trkpt>
      <trkpt lat="47.21175" lon="-1.68408">
        <ele>55</ele>
        <time>2021-08-14T06:59:27.000Z</time>
      </trkpt>
      <trkpt lat="47.21186" lon="-1.68404">
        <ele>55</ele>
        <time>2021-08-14T06:59:29.000Z</time>
      </trkpt>
      <trkpt lat="47.21193" lon="-1.68393">
        <ele>56</ele>
        <time>2021-08-14T06:59:31.000Z</time>
      </trkpt>
      <trkpt lat="47.21193" lon="-1.68376">
        <ele>56</ele>
        <time>2021-08-14T06:59:33.000Z</time>
      </trkpt>
      <trkpt lat="47.21191" lon="-1.68361">
        <ele>56</ele>
        <time>2021-08-14T06:59:35.000Z</time>
      </trkpt>
      <trkpt lat="47.2119" lon="-1.68346">
        <ele>57</ele>
        <time>2021-08-14T06:59:37.000Z</time>
      </trkpt>
      <trkpt lat="47.2119" lon="-1.68331">
        <ele>58</ele>
        <time>2021-08-14T06:59:39.000Z</time>
      </trkpt>
      <trkpt lat="47.21189" lon="-1.68316">
        <ele>58</ele>
        <time>2021-08-14T06:59:41.000Z</time>
      </trkpt>
      <trkpt lat="47.21191" lon="-1.68302">
        <ele>59</ele>
        <time>2021-08-14T06:59:43.000Z</time>
      </trkpt>
      <trkpt lat="47.21196" lon="-1.6829">
        <ele>59</ele>
        <time>2021-08-14T06:59:45.000Z</time>
      </trkpt>
      <trkpt lat="47.21205" lon="-1.68281">
        <ele>60</ele>
        <time>2021-08-14T06:59:47.000Z</time>
      </trkpt>
      <trkpt lat="47.21215" lon="-1.68276">
        <ele>60</ele>
        <time>2021-08-14T06:59:49.000Z</time>
      </trkpt>
      <trkpt lat="47.21225" lon="-1.68274">
        <ele>60</ele>
        <time>2021-08-14T06:59:51.000Z</time>
      </trkpt>
      <trkpt lat="47.21239" lon="-1.68271">
        <ele>61</ele>
        <time>2021-08-14T06:59:54.000Z</time>
      </trkpt>
      <trkpt lat="47.21254" lon="-1.68269">
        <ele>62</ele>
        <time>2021-08-14T06:59:57.000Z</time>
      </trkpt>
      <trkpt lat="47.21263" lon="-1.68265">
        <ele>64</ele>
        <time>2021-08-14T06:59:59.000Z</time>
      </trkpt>
      <trkpt lat="47.21272" lon="-1.68261">
        <ele>65</ele>
        <time>2021-08-14T07:00:01.000Z</time>
      </trkpt>
      <trkpt lat="47.21281" lon="-1.68258">
        <ele>66</ele>
        <time>2021-08-14T07:00:03.000Z</time>
      </trkpt>
      <trkpt lat="47.2129" lon="-1.68253">
        <ele>66</ele>
        <time>2021-08-14T07:00:05.000Z</time>
      </trkpt>
      <trkpt lat="47.21299" lon="-1.68248">
        <ele>67</ele>
        <time>2021-08-14T07:00:07.000Z</time>
      </trkpt>
      <trkpt lat="47.21308" lon="-1.68244">
        <ele>67</ele>
        <time>2021-08-14T07:00:09.000Z</time>
      </trkpt>
      <trkpt lat="47.21318" lon="-1.68239">
        <ele>68</ele>
        <time>2021-08-14T07:00:11.000Z</time>
      </trkpt>
      <trkpt lat="47.21328" lon="-1.68235">
        <ele>68</ele>
        <time>2021-08-14T07:00:13.000Z</time>
      </trkpt>
      <trkpt lat="47.21337" lon="-1.68232">
        <ele>68</ele>
        <time>2021-08-14T07:00:15.000Z</time>
      </trkpt>
      <trkpt lat="47.21351" lon="-1.68228">
        <ele>70</ele>
        <time>2021-08-14T07:00:18.000Z</time>
      </trkpt>
      <trkpt lat="47.21361" lon="-1.68226">
        <ele>70</ele>
        <time>2021-08-14T07:00:20.000Z</time>
      </trkpt>
      <trkpt lat="47.21371" lon="-1.68223">
        <ele>70</ele>
        <time>2021-08-14T07:00:22.000Z</time>
      </trkpt>
      <trkpt lat="47.21381" lon="-1.68221">
        <ele>70</ele>
        <time>2021-08-14T07:00:24.000Z</time>
      </trkpt>
      <trkpt lat="47.21391" lon="-1.68221">
        <ele>71</ele>
        <time>2021-08-14T07:00:26.000Z</time>
      </trkpt>
      <trkpt lat="47.21401" lon="-1.6822">
        <ele>71</ele>
        <time>2021-08-14T07:00:28.000Z</time>
      </trkpt>
      <trkpt lat="47.21412" lon="-1.68219">
        <ele>71</ele>
        <time>2021-08-14T07:00:30.000Z</time>
      </trkpt>
      <trkpt lat="47.21422" lon="-1.68217">
        <ele>72</ele>
        <time>2021-08-14T07:00:32.000Z</time>
      </trkpt>
      <trkpt lat="47.21433" lon="-1.68217">
        <ele>72</ele>
        <time>2021-08-14T07:00:34.000Z</time>
      </trkpt>
      <trkpt lat="47.21443" lon="-1.68216">
        <ele>72</ele>
        <time>2021-08-14T07:00:36.000Z</time>
      </trkpt>
      <trkpt lat="47.21453" lon="-1.68215">
        <ele>72</ele>
        <time>2021-08-14T07:00:38.000Z</time>
      </trkpt>
      <trkpt lat="47.21463" lon="-1.68214">
        <ele>73</ele>
        <time>2021-08-14T07:00:40.000Z</time>
      </trkpt>
      <trkpt lat="47.21473" lon="-1.68213">
        <ele>73</ele>
        <time>2021-08-14T07:00:42.000Z</time>
      </trkpt>
      <trkpt lat="47.21482" lon="-1.6821">
        <ele>73</ele>
        <time>2021-08-14T07:00:44.000Z</time>
      </trkpt>
      <trkpt lat="47.21491" lon="-1.68204">
        <ele>74</ele>
        <time>2021-08-14T07:00:46.000Z</time>
      </trkpt>
      <trkpt lat="47.21501" lon="-1.68198">
        <ele>74</ele>
        <time>2021-08-14T07:00:48.000Z</time>
      </trkpt>
      <trkpt lat="47.21509" lon="-1.68191">
        <ele>74</ele>
        <time>2021-08-14T07:00:50.000Z</time>
      </trkpt>
      <trkpt lat="47.21517" lon="-1.68184">
        <ele>75</ele>
        <time>2021-08-14T07:00:52.000Z</time>
      </trkpt>
      <trkpt lat="47.21527" lon="-1.68178">
        <ele>75</ele>
        <time>2021-08-14T07:00:54.000Z</time>
      </trkpt>
      <trkpt lat="47.21536" lon="-1.68172">
        <ele>75</ele>
        <time>2021-08-14T07:00:56.000Z</time>
      </trkpt>
      <trkpt lat="47.21547" lon="-1.68172">
        <ele>78</ele>
        <time>2021-08-14T07:00:59.000Z</time>
      </trkpt>
      <trkpt lat="47.21557" lon="-1.68174">
        <ele>79</ele>
        <time>2021-08-14T07:01:01.000Z</time>
      </trkpt>
      <trkpt lat="47.21569" lon="-1.68176">
        <ele>78</ele>
        <time>2021-08-14T07:01:03.000Z</time>
      </trkpt>
      <trkpt lat="47.21582" lon="-1.68178">
        <ele>79</ele>
        <time>2021-08-14T07:01:05.000Z</time>
      </trkpt>
      <trkpt lat="47.21594" lon="-1.68181">
        <ele>79</ele>
        <time>2021-08-14T07:01:07.000Z</time>
      </trkpt>
      <trkpt lat="47.21606" lon="-1.68184">
        <ele>80</ele>
        <time>2021-08-14T07:01:09.000Z</time>
      </trkpt>
      <trkpt lat="47.21617" lon="-1.68188">
        <ele>81</ele>
        <time>2021-08-14T07:01:11.000Z</time>
      </trkpt>
      <trkpt lat="47.21629" lon="-1.68191">
        <ele>81</ele>
        <time>2021-08-14T07:01:13.000Z</time>
      </trkpt>
      <trkpt lat="47.21641" lon="-1.68191">
        <ele>81</ele>
        <time>2021-08-14T07:01:15.000Z</time>
      </trkpt>
      <trkpt lat="47.21653" lon="-1.68192">
        <ele>82</ele>
        <time>2021-08-14T07:01:17.000Z</time>
      </trkpt>
      <trkpt lat="47.21666" lon="-1.68195">
        <ele>82</ele>
        <time>2021-08-14T07:01:19.000Z</time>
      </trkpt>
      <trkpt lat="47.21679" lon="-1.68198">
        <ele>82</ele>
        <time>2021-08-14T07:01:21.000Z</time>
      </trkpt>
      <trkpt lat="47.21691" lon="-1.68202">
        <ele>81</ele>
        <time>2021-08-14T07:01:23.000Z</time>
      </trkpt>
      <trkpt lat="47.21704" lon="-1.68205">
        <ele>80</ele>
        <time>2021-08-14T07:01:25.000Z</time>
      </trkpt>
      <trkpt lat="47.21717" lon="-1.68208">
        <ele>80</ele>
        <time>2021-08-14T07:01:27.000Z</time>
      </trkpt>
      <trkpt lat="47.21729" lon="-1.68211">
        <ele>80</ele>
        <time>2021-08-14T07:01:29.000Z</time>
      </trkpt>
      <trkpt lat="47.21742" lon="-1.68213">
        <ele>79</ele>
        <time>2021-08-14T07:01:31.000Z</time>
      </trkpt>
      <trkpt lat="47.21755" lon="-1.68216">
        <ele>79</ele>
        <time>2021-08-14T07:01:33.000Z</time>
      </trkpt>
      <trkpt lat="47.21768" lon="-1.68221">
        <ele>79</ele>
        <time>2021-08-14T07:01:35.000Z</time>
      </trkpt>
      <trkpt lat="47.21782" lon="-1.68225">
        <ele>79</ele>
        <time>2021-08-14T07:01:37.000Z</time>
      </trkpt>
      <trkpt lat="47.21795" lon="-1.68227">
        <ele>78</ele>
        <time>2021-08-14T07:01:39.000Z</time>
      </trkpt>
      <trkpt lat="47.21809" lon="-1.68227">
        <ele>79</ele>
        <time>2021-08-14T07:01:41.000Z</time>
      </trkpt>
      <trkpt lat="47.21824" lon="-1.68229">
        <ele>79</ele>
        <time>2021-08-14T07:01:43.000Z</time>
      </trkpt>
      <trkpt lat="47.21838" lon="-1.6823">
        <ele>79</ele>
        <time>2021-08-14T07:01:45.000Z</time>
      </trkpt>
      <trkpt lat="47.21853" lon="-1.6823">
        <ele>79</ele>
        <time>2021-08-14T07:01:47.000Z</time>
      </trkpt>
      <trkpt lat="47.21868" lon="-1.68229">
        <ele>78</ele>
        <time>2021-08-14T07:01:49.000Z</time>
      </trkpt>
      <trkpt lat="47.21883" lon="-1.68225">
        <ele>78</ele>
        <time>2021-08-14T07:01:51.000Z</time>
      </trkpt>
      <trkpt lat="47.21896" lon="-1.68218">
        <ele>77</ele>
        <time>2021-08-14T07:01:53.000Z</time>
      </trkpt>
      <trkpt lat="47.2191" lon="-1.6821">
        <ele>77</ele>
        <time>2021-08-14T07:01:55.000Z</time>
      </trkpt>
      <trkpt lat="47.21922" lon="-1.68201">
        <ele>77</ele>
        <time>2021-08-14T07:01:57.000Z</time>
      </trkpt>
      <trkpt lat="47.21934" lon="-1.68192">
        <ele>77</ele>
        <time>2021-08-14T07:01:59.000Z</time>
      </trkpt>
      <trkpt lat="47.21946" lon="-1.68184">
        <ele>77</ele>
        <time>2021-08-14T07:02:01.000Z</time>
      </trkpt>
      <trkpt lat="47.21959" lon="-1.68175">
        <ele>77</ele>
        <time>2021-08-14T07:02:03.000Z</time>
      </trkpt>
      <trkpt lat="47.21971" lon="-1.68167">
        <ele>77</ele>
        <time>2021-08-14T07:02:05.000Z</time>
      </trkpt>
      <trkpt lat="47.21984" lon="-1.6816">
        <ele>77</ele>
        <time>2021-08-14T07:02:07.000Z</time>
      </trkpt>
      <trkpt lat="47.21996" lon="-1.68151">
        <ele>78</ele>
        <time>2021-08-14T07:02:09.000Z</time>
      </trkpt>
      <trkpt lat="47.22008" lon="-1.68143">
        <ele>78</ele>
        <time>2021-08-14T07:02:11.000Z</time>
      </trkpt>
      <trkpt lat="47.22019" lon="-1.68133">
        <ele>78</ele>
        <time>2021-08-14T07:02:13.000Z</time>
      </trkpt>
      <trkpt lat="47.22031" lon="-1.68121">
        <ele>78</ele>
        <time>2021-08-14T07:02:15.000Z</time>
      </trkpt>
      <trkpt lat="47.22041" lon="-1.68109">
        <ele>79</ele>
        <time>2021-08-14T07:02:17.000Z</time>
      </trkpt>
      <trkpt lat="47.22051" lon="-1.68096">
        <ele>79</ele>
        <time>2021-08-14T07:02:19.000Z</time>
      </trkpt>
      <trkpt lat="47.22061" lon="-1.68083">
        <ele>80</ele>
        <time>2021-08-14T07:02:21.000Z</time>
      </trkpt>
      <trkpt lat="47.22071" lon="-1.6807">
        <ele>80</ele>
        <time>2021-08-14T07:02:23.000Z</time>
      </trkpt>
      <trkpt lat="47.2208" lon="-1.68057">
        <ele>80</ele>
        <time>2021-08-14T07:02:25.000Z</time>
      </trkpt>
      <trkpt lat="47.2209" lon="-1.68045">
        <ele>80</ele>
        <time>2021-08-14T07:02:27.000Z</time>
      </trkpt>
      <trkpt lat="47.221" lon="-1.68032">
        <ele>80</ele>
        <time>2021-08-14T07:02:29.000Z</time>
      </trkpt>
      <trkpt lat="47.22109" lon="-1.68019">
        <ele>81</ele>
        <time>2021-08-14T07:02:31.000Z</time>
      </trkpt>
      <trkpt lat="47.22119" lon="-1.68007">
        <ele>81</ele>
        <time>2021-08-14T07:02:33.000Z</time>
      </trkpt>
      <trkpt lat="47.22129" lon="-1.67995">
        <ele>81</ele>
        <time>2021-08-14T07:02:35.000Z</time>
      </trkpt>
      <trkpt lat="47.22139" lon="-1.67986">
        <ele>81</ele>
        <time>2021-08-14T07:02:37.000Z</time>
      </trkpt>
      <trkpt lat="47.2215" lon="-1.67978">
        <ele>81</ele>
        <time>2021-08-14T07:02:39.000Z</time>
      </trkpt>
      <trkpt lat="47.22161" lon="-1.6797">
        <ele>81</ele>
        <time>2021-08-14T07:02:41.000Z</time>
      </trkpt>
      <trkpt lat="47.22172" lon="-1.67963">
        <ele>81</ele>
        <time>2021-08-14T07:02:43.000Z</time>
      </trkpt>
      <trkpt lat="47.22184" lon="-1.67955">
        <ele>81</ele>
        <time>2021-08-14T07:02:45.000Z</time>
      </trkpt>
      <trkpt lat="47.22196" lon="-1.67947">
        <ele>80</ele>
        <time>2021-08-14T07:02:47.000Z</time>
      </trkpt>
      <trkpt lat="47.22208" lon="-1.67938">
        <ele>80</ele>
        <time>2021-08-14T07:02:49.000Z</time>
      </trkpt>
      <trkpt lat="47.22221" lon="-1.67929">
        <ele>79</ele>
        <time>2021-08-14T07:02:51.000Z</time>
      </trkpt>
      <trkpt lat="47.22234" lon="-1.67921">
        <ele>79</ele>
        <time>2021-08-14T07:02:53.000Z</time>
      </trkpt>
      <trkpt lat="47.22247" lon="-1.67912">
        <ele>78</ele>
        <time>2021-08-14T07:02:55.000Z</time>
      </trkpt>
      <trkpt lat="47.2226" lon="-1.67904">
        <ele>78</ele>
        <time>2021-08-14T07:02:57.000Z</time>
      </trkpt>
      <trkpt lat="47.22273" lon="-1.67895">
        <ele>77</ele>
        <time>2021-08-14T07:02:59.000Z</time>
      </trkpt>
      <trkpt lat="47.22285" lon="-1.67886">
        <ele>77</ele>
        <time>2021-08-14T07:03:01.000Z</time>
      </trkpt>
      <trkpt lat="47.22298" lon="-1.67878">
        <ele>77</ele>
        <time>2021-08-14T07:03:03.000Z</time>
      </trkpt>
      <trkpt lat="47.22311" lon="-1.67869">
        <ele>77</ele>
        <time>2021-08-14T07:03:05.000Z</time>
      </trkpt>
      <trkpt lat="47.22324" lon="-1.6786">
        <ele>77</ele>
        <time>2021-08-14T07:03:07.000Z</time>
      </trkpt>
      <trkpt lat="47.22337" lon="-1.67852">
        <ele>78</ele>
        <time>2021-08-14T07:03:09.000Z</time>
      </trkpt>
      <trkpt lat="47.2235" lon="-1.67845">
        <ele>78</ele>
        <time>2021-08-14T07:03:11.000Z</time>
      </trkpt>
      <trkpt lat="47.22363" lon="-1.67839">
        <ele>78</ele>
        <time>2021-08-14T07:03:13.000Z</time>
      </trkpt>
      <trkpt lat="47.22375" lon="-1.67834">
        <ele>78</ele>
        <time>2021-08-14T07:03:15.000Z</time>
      </trkpt>
      <trkpt lat="47.22388" lon="-1.67831">
        <ele>78</ele>
        <time>2021-08-14T07:03:17.000Z</time>
      </trkpt>
      <trkpt lat="47.224" lon="-1.67828">
        <ele>78</ele>
        <time>2021-08-14T07:03:19.000Z</time>
      </trkpt>
      <trkpt lat="47.22413" lon="-1.67825">
        <ele>78</ele>
        <time>2021-08-14T07:03:21.000Z</time>
      </trkpt>
      <trkpt lat="47.22425" lon="-1.67824">
        <ele>78</ele>
        <time>2021-08-14T07:03:23.000Z</time>
      </trkpt>
      <trkpt lat="47.22439" lon="-1.67823">
        <ele>79</ele>
        <time>2021-08-14T07:03:25.000Z</time>
      </trkpt>
      <trkpt lat="47.22452" lon="-1.67822">
        <ele>79</ele>
        <time>2021-08-14T07:03:27.000Z</time>
      </trkpt>
      <trkpt lat="47.22465" lon="-1.67823">
        <ele>80</ele>
        <time>2021-08-14T07:03:29.000Z</time>
      </trkpt>
      <trkpt lat="47.22477" lon="-1.67824">
        <ele>81</ele>
        <time>2021-08-14T07:03:31.000Z</time>
      </trkpt>
      <trkpt lat="47.2249" lon="-1.67826">
        <ele>81</ele>
        <time>2021-08-14T07:03:33.000Z</time>
      </trkpt>
      <trkpt lat="47.22502" lon="-1.67828">
        <ele>82</ele>
        <time>2021-08-14T07:03:35.000Z</time>
      </trkpt>
      <trkpt lat="47.22514" lon="-1.6783">
        <ele>82</ele>
        <time>2021-08-14T07:03:37.000Z</time>
      </trkpt>
      <trkpt lat="47.22526" lon="-1.67832">
        <ele>83</ele>
        <time>2021-08-14T07:03:39.000Z</time>
      </trkpt>
      <trkpt lat="47.22538" lon="-1.67833">
        <ele>83</ele>
        <time>2021-08-14T07:03:41.000Z</time>
      </trkpt>
      <trkpt lat="47.2255" lon="-1.67834">
        <ele>84</ele>
        <time>2021-08-14T07:03:43.000Z</time>
      </trkpt>
      <trkpt lat="47.22562" lon="-1.67836">
        <ele>84</ele>
        <time>2021-08-14T07:03:45.000Z</time>
      </trkpt>
      <trkpt lat="47.22573" lon="-1.67836">
        <ele>85</ele>
        <time>2021-08-14T07:03:47.000Z</time>
      </trkpt>
      <trkpt lat="47.22583" lon="-1.67827">
        <ele>86</ele>
        <time>2021-08-14T07:03:49.000Z</time>
      </trkpt>
      <trkpt lat="47.22594" lon="-1.67827">
        <ele>86</ele>
        <time>2021-08-14T07:03:51.000Z</time>
      </trkpt>
      <trkpt lat="47.22606" lon="-1.67833">
        <ele>86</ele>
        <time>2021-08-14T07:03:53.000Z</time>
      </trkpt>
      <trkpt lat="47.22618" lon="-1.67834">
        <ele>87</ele>
        <time>2021-08-14T07:03:55.000Z</time>
      </trkpt>
      <trkpt lat="47.2263" lon="-1.67833">
        <ele>88</ele>
        <time>2021-08-14T07:03:57.000Z</time>
      </trkpt>
      <trkpt lat="47.22641" lon="-1.67832">
        <ele>88</ele>
        <time>2021-08-14T07:03:59.000Z</time>
      </trkpt>
      <trkpt lat="47.22653" lon="-1.6783">
        <ele>89</ele>
        <time>2021-08-14T07:04:01.000Z</time>
      </trkpt>
      <trkpt lat="47.22665" lon="-1.67828">
        <ele>89</ele>
        <time>2021-08-14T07:04:03.000Z</time>
      </trkpt>
      <trkpt lat="47.22676" lon="-1.67826">
        <ele>89</ele>
        <time>2021-08-14T07:04:05.000Z</time>
      </trkpt>
      <trkpt lat="47.22687" lon="-1.67823">
        <ele>89</ele>
        <time>2021-08-14T07:04:07.000Z</time>
      </trkpt>
      <trkpt lat="47.22698" lon="-1.6782">
        <ele>90</ele>
        <time>2021-08-14T07:04:09.000Z</time>
      </trkpt>
      <trkpt lat="47.2271" lon="-1.67817">
        <ele>90</ele>
        <time>2021-08-14T07:04:11.000Z</time>
      </trkpt>
      <trkpt lat="47.2272" lon="-1.67815">
        <ele>91</ele>
        <time>2021-08-14T07:04:13.000Z</time>
      </trkpt>
      <trkpt lat="47.22732" lon="-1.67812">
        <ele>91</ele>
        <time>2021-08-14T07:04:15.000Z</time>
      </trkpt>
      <trkpt lat="47.22743" lon="-1.6781">
        <ele>91</ele>
        <time>2021-08-14T07:04:17.000Z</time>
      </trkpt>
      <trkpt lat="47.22754" lon="-1.67806">
        <ele>91</ele>
        <time>2021-08-14T07:04:19.000Z</time>
      </trkpt>
      <trkpt lat="47.22766" lon="-1.67802">
        <ele>91</ele>
        <time>2021-08-14T07:04:21.000Z</time>
      </trkpt>
      <trkpt lat="47.22777" lon="-1.67798">
        <ele>92</ele>
        <time>2021-08-14T07:04:23.000Z</time>
      </trkpt>
      <trkpt lat="47.22788" lon="-1.67793">
        <ele>92</ele>
        <time>2021-08-14T07:04:25.000Z</time>
      </trkpt>
      <trkpt lat="47.22799" lon="-1.67788">
        <ele>93</ele>
        <time>2021-08-14T07:04:27.000Z</time>
      </trkpt>
      <trkpt lat="47.22809" lon="-1.67783">
        <ele>93</ele>
        <time>2021-08-14T07:04:29.000Z</time>
      </trkpt>
      <trkpt lat="47.2282" lon="-1.67778">
        <ele>94</ele>
        <time>2021-08-14T07:04:31.000Z</time>
      </trkpt>
      <trkpt lat="47.22831" lon="-1.67772">
        <ele>94</ele>
        <time>2021-08-14T07:04:33.000Z</time>
      </trkpt>
      <trkpt lat="47.22841" lon="-1.67767">
        <ele>94</ele>
        <time>2021-08-14T07:04:35.000Z</time>
      </trkpt>
      <trkpt lat="47.22852" lon="-1.67762">
        <ele>94</ele>
        <time>2021-08-14T07:04:37.000Z</time>
      </trkpt>
      <trkpt lat="47.22862" lon="-1.67756">
        <ele>94</ele>
        <time>2021-08-14T07:04:39.000Z</time>
      </trkpt>
      <trkpt lat="47.22873" lon="-1.6775">
        <ele>95</ele>
        <time>2021-08-14T07:04:41.000Z</time>
      </trkpt>
      <trkpt lat="47.22883" lon="-1.67744">
        <ele>95</ele>
        <time>2021-08-14T07:04:43.000Z</time>
      </trkpt>
      <trkpt lat="47.22894" lon="-1.67737">
        <ele>96</ele>
        <time>2021-08-14T07:04:45.000Z</time>
      </trkpt>
      <trkpt lat="47.22904" lon="-1.67731">
        <ele>96</ele>
        <time>2021-08-14T07:04:47.000Z</time>
      </trkpt>
      <trkpt lat="47.22915" lon="-1.67724">
        <ele>97</ele>
        <time>2021-08-14T07:04:49.000Z</time>
      </trkpt>
      <trkpt lat="47.22925" lon="-1.67717">
        <ele>97</ele>
        <time>2021-08-14T07:04:51.000Z</time>
      </trkpt>
      <trkpt lat="47.22936" lon="-1.67709">
        <ele>97</ele>
        <time>2021-08-14T07:04:53.000Z</time>
      </trkpt>
      <trkpt lat="47.22946" lon="-1.67702">
        <ele>97</ele>
        <time>2021-08-14T07:04:55.000Z</time>
      </trkpt>
      <trkpt lat="47.22956" lon="-1.67695">
        <ele>98</ele>
        <time>2021-08-14T07:04:57.000Z</time>
      </trkpt>
      <trkpt lat="47.22966" lon="-1.67688">
        <ele>98</ele>
        <time>2021-08-14T07:04:59.000Z</time>
      </trkpt>
      <trkpt lat="47.22977" lon="-1.67681">
        <ele>99</ele>
        <time>2021-08-14T07:05:01.000Z</time>
      </trkpt>
      <trkpt lat="47.22987" lon="-1.67674">
        <ele>99</ele>
        <time>2021-08-14T07:05:03.000Z</time>
      </trkpt>
      <trkpt lat="47.22997" lon="-1.67665">
        <ele>99</ele>
        <time>2021-08-14T07:05:05.000Z</time>
      </trkpt>
      <trkpt lat="47.23008" lon="-1.67657">
        <ele>99</ele>
        <time>2021-08-14T07:05:07.000Z</time>
      </trkpt>
      <trkpt lat="47.23019" lon="-1.67649">
        <ele>99</ele>
        <time>2021-08-14T07:05:09.000Z</time>
      </trkpt>
      <trkpt lat="47.23028" lon="-1.67639">
        <ele>100</ele>
        <time>2021-08-14T07:05:11.000Z</time>
      </trkpt>
      <trkpt lat="47.23038" lon="-1.67627">
        <ele>99</ele>
        <time>2021-08-14T07:05:13.000Z</time>
      </trkpt>
      <trkpt lat="47.23047" lon="-1.67615">
        <ele>99</ele>
        <time>2021-08-14T07:05:15.000Z</time>
      </trkpt>
      <trkpt lat="47.23056" lon="-1.67601">
        <ele>100</ele>
        <time>2021-08-14T07:05:17.000Z</time>
      </trkpt>
      <trkpt lat="47.23064" lon="-1.67588">
        <ele>100</ele>
        <time>2021-08-14T07:05:19.000Z</time>
      </trkpt>
      <trkpt lat="47.23072" lon="-1.67576">
        <ele>99</ele>
        <time>2021-08-14T07:05:21.000Z</time>
      </trkpt>
      <trkpt lat="47.23081" lon="-1.67564">
        <ele>99</ele>
        <time>2021-08-14T07:05:23.000Z</time>
      </trkpt>
      <trkpt lat="47.23089" lon="-1.67553">
        <ele>100</ele>
        <time>2021-08-14T07:05:25.000Z</time>
      </trkpt>
      <trkpt lat="47.23099" lon="-1.67541">
        <ele>100</ele>
        <time>2021-08-14T07:05:27.000Z</time>
      </trkpt>
      <trkpt lat="47.23109" lon="-1.6753">
        <ele>100</ele>
        <time>2021-08-14T07:05:29.000Z</time>
      </trkpt>
      <trkpt lat="47.23118" lon="-1.67519">
        <ele>100</ele>
        <time>2021-08-14T07:05:31.000Z</time>
      </trkpt>
      <trkpt lat="47.23128" lon="-1.67509">
        <ele>100</ele>
        <time>2021-08-14T07:05:33.000Z</time>
      </trkpt>
      <trkpt lat="47.23137" lon="-1.67498">
        <ele>101</ele>
        <time>2021-08-14T07:05:35.000Z</time>
      </trkpt>
      <trkpt lat="47.23147" lon="-1.67488">
        <ele>101</ele>
        <time>2021-08-14T07:05:37.000Z</time>
      </trkpt>
      <trkpt lat="47.23156" lon="-1.67479">
        <ele>101</ele>
        <time>2021-08-14T07:05:39.000Z</time>
      </trkpt>
      <trkpt lat="47.23165" lon="-1.67469">
        <ele>101</ele>
        <time>2021-08-14T07:05:41.000Z</time>
      </trkpt>
      <trkpt lat="47.23174" lon="-1.67459">
        <ele>102</ele>
        <time>2021-08-14T07:05:43.000Z</time>
      </trkpt>
      <trkpt lat="47.23184" lon="-1.67449">
        <ele>102</ele>
        <time>2021-08-14T07:05:45.000Z</time>
      </trkpt>
      <trkpt lat="47.23193" lon="-1.67438">
        <ele>102</ele>
        <time>2021-08-14T07:05:47.000Z</time>
      </trkpt>
      <trkpt lat="47.23203" lon="-1.67427">
        <ele>103</ele>
        <time>2021-08-14T07:05:49.000Z</time>
      </trkpt>
      <trkpt lat="47.23212" lon="-1.67417">
        <ele>103</ele>
        <time>2021-08-14T07:05:51.000Z</time>
      </trkpt>
      <trkpt lat="47.23222" lon="-1.67408">
        <ele>104</ele>
        <time>2021-08-14T07:05:53.000Z</time>
      </trkpt>
      <trkpt lat="47.23231" lon="-1.67399">
        <ele>104</ele>
        <time>2021-08-14T07:05:55.000Z</time>
      </trkpt>
      <trkpt lat="47.2324" lon="-1.67391">
        <ele>105</ele>
        <time>2021-08-14T07:05:57.000Z</time>
      </trkpt>
      <trkpt lat="47.23249" lon="-1.67383">
        <ele>105</ele>
        <time>2021-08-14T07:05:59.000Z</time>
      </trkpt>
      <trkpt lat="47.23259" lon="-1.67376">
        <ele>106</ele>
        <time>2021-08-14T07:06:01.000Z</time>
      </trkpt>
      <trkpt lat="47.23268" lon="-1.67369">
        <ele>107</ele>
        <time>2021-08-14T07:06:03.000Z</time>
      </trkpt>
      <trkpt lat="47.23278" lon="-1.67362">
        <ele>108</ele>
        <time>2021-08-14T07:06:05.000Z</time>
      </trkpt>
      <trkpt lat="47.23287" lon="-1.67356">
        <ele>108</ele>
        <time>2021-08-14T07:06:07.000Z</time>
      </trkpt>
      <trkpt lat="47.23297" lon="-1.6735">
        <ele>109</ele>
        <time>2021-08-14T07:06:09.000Z</time>
      </trkpt>
      <trkpt lat="47.23307" lon="-1.67343">
        <ele>109</ele>
        <time>2021-08-14T07:06:11.000Z</time>
      </trkpt>
      <trkpt lat="47.23317" lon="-1.67336">
        <ele>110</ele>
        <time>2021-08-14T07:06:13.000Z</time>
      </trkpt>
      <trkpt lat="47.23327" lon="-1.67329">
        <ele>110</ele>
        <time>2021-08-14T07:06:15.000Z</time>
      </trkpt>
      <trkpt lat="47.23336" lon="-1.67322">
        <ele>110</ele>
        <time>2021-08-14T07:06:17.000Z</time>
      </trkpt>
      <trkpt lat="47.23346" lon="-1.67316">
        <ele>111</ele>
        <time>2021-08-14T07:06:19.000Z</time>
      </trkpt>
      <trkpt lat="47.23356" lon="-1.67309">
        <ele>111</ele>
        <time>2021-08-14T07:06:21.000Z</time>
      </trkpt>
      <trkpt lat="47.23366" lon="-1.67302">
        <ele>111</ele>
        <time>2021-08-14T07:06:23.000Z</time>
      </trkpt>
      <trkpt lat="47.23377" lon="-1.67296">
        <ele>111</ele>
        <time>2021-08-14T07:06:25.000Z</time>
      </trkpt>
      <trkpt lat="47.23386" lon="-1.6729">
        <ele>111</ele>
        <time>2021-08-14T07:06:27.000Z</time>
      </trkpt>
      <trkpt lat="47.23396" lon="-1.67284">
        <ele>111</ele>
        <time>2021-08-14T07:06:29.000Z</time>
      </trkpt>
      <trkpt lat="47.23406" lon="-1.67277">
        <ele>112</ele>
        <time>2021-08-14T07:06:31.000Z</time>
      </trkpt>
      <trkpt lat="47.23416" lon="-1.6727">
        <ele>111</ele>
        <time>2021-08-14T07:06:33.000Z</time>
      </trkpt>
      <trkpt lat="47.23426" lon="-1.67262">
        <ele>111</ele>
        <time>2021-08-14T07:06:35.000Z</time>
      </trkpt>
      <trkpt lat="47.23436" lon="-1.67256">
        <ele>111</ele>
        <time>2021-08-14T07:06:37.000Z</time>
      </trkpt>
      <trkpt lat="47.23445" lon="-1.6725">
        <ele>112</ele>
        <time>2021-08-14T07:06:39.000Z</time>
      </trkpt>
      <trkpt lat="47.23455" lon="-1.67243">
        <ele>111</ele>
        <time>2021-08-14T07:06:41.000Z</time>
      </trkpt>
      <trkpt lat="47.23465" lon="-1.67236">
        <ele>111</ele>
        <time>2021-08-14T07:06:43.000Z</time>
      </trkpt>
      <trkpt lat="47.23475" lon="-1.67229">
        <ele>111</ele>
        <time>2021-08-14T07:06:45.000Z</time>
      </trkpt>
      <trkpt lat="47.23486" lon="-1.67222">
        <ele>111</ele>
        <time>2021-08-14T07:06:47.000Z</time>
      </trkpt>
      <trkpt lat="47.23496" lon="-1.67214">
        <ele>112</ele>
        <time>2021-08-14T07:06:49.000Z</time>
      </trkpt>
      <trkpt lat="47.23508" lon="-1.67207">
        <ele>113</ele>
        <time>2021-08-14T07:06:51.000Z</time>
      </trkpt>
      <trkpt lat="47.23518" lon="-1.672">
        <ele>113</ele>
        <time>2021-08-14T07:06:53.000Z</time>
      </trkpt>
      <trkpt lat="47.23529" lon="-1.67194">
        <ele>112</ele>
        <time>2021-08-14T07:06:55.000Z</time>
      </trkpt>
      <trkpt lat="47.2354" lon="-1.6719">
        <ele>111</ele>
        <time>2021-08-14T07:06:57.000Z</time>
      </trkpt>
      <trkpt lat="47.23552" lon="-1.67186">
        <ele>111</ele>
        <time>2021-08-14T07:06:59.000Z</time>
      </trkpt>
      <trkpt lat="47.23564" lon="-1.67183">
        <ele>110</ele>
        <time>2021-08-14T07:07:01.000Z</time>
      </trkpt>
      <trkpt lat="47.23577" lon="-1.67181">
        <ele>111</ele>
        <time>2021-08-14T07:07:03.000Z</time>
      </trkpt>
      <trkpt lat="47.23589" lon="-1.6718">
        <ele>110</ele>
        <time>2021-08-14T07:07:05.000Z</time>
      </trkpt>
      <trkpt lat="47.23602" lon="-1.67178">
        <ele>110</ele>
        <time>2021-08-14T07:07:07.000Z</time>
      </trkpt>
      <trkpt lat="47.23614" lon="-1.67176">
        <ele>110</ele>
        <time>2021-08-14T07:07:09.000Z</time>
      </trkpt>
      <trkpt lat="47.23626" lon="-1.67171">
        <ele>110</ele>
        <time>2021-08-14T07:07:11.000Z</time>
      </trkpt>
      <trkpt lat="47.23636" lon="-1.67162">
        <ele>110</ele>
        <time>2021-08-14T07:07:13.000Z</time>
      </trkpt>
      <trkpt lat="47.23647" lon="-1.67158">
        <ele>110</ele>
        <time>2021-08-14T07:07:15.000Z</time>
      </trkpt>
      <trkpt lat="47.23658" lon="-1.67165">
        <ele>110</ele>
        <time>2021-08-14T07:07:17.000Z</time>
      </trkpt>
      <trkpt lat="47.2367" lon="-1.67172">
        <ele>110</ele>
        <time>2021-08-14T07:07:19.000Z</time>
      </trkpt>
      <trkpt lat="47.23682" lon="-1.67171">
        <ele>109</ele>
        <time>2021-08-14T07:07:21.000Z</time>
      </trkpt>
      <trkpt lat="47.23695" lon="-1.6717">
        <ele>109</ele>
        <time>2021-08-14T07:07:23.000Z</time>
      </trkpt>
      <trkpt lat="47.23707" lon="-1.67168">
        <ele>109</ele>
        <time>2021-08-14T07:07:25.000Z</time>
      </trkpt>
      <trkpt lat="47.2372" lon="-1.67165">
        <ele>109</ele>
        <time>2021-08-14T07:07:27.000Z</time>
      </trkpt>
      <trkpt lat="47.23732" lon="-1.6716">
        <ele>108</ele>
        <time>2021-08-14T07:07:29.000Z</time>
      </trkpt>
      <trkpt lat="47.23744" lon="-1.67156">
        <ele>108</ele>
        <time>2021-08-14T07:07:31.000Z</time>
      </trkpt>
      <trkpt lat="47.23756" lon="-1.67151">
        <ele>109</ele>
        <time>2021-08-14T07:07:33.000Z</time>
      </trkpt>
      <trkpt lat="47.23768" lon="-1.67147">
        <ele>109</ele>
        <time>2021-08-14T07:07:35.000Z</time>
      </trkpt>
      <trkpt lat="47.2378" lon="-1.67143">
        <ele>109</ele>
        <time>2021-08-14T07:07:37.000Z</time>
      </trkpt>
      <trkpt lat="47.23792" lon="-1.67138">
        <ele>109</ele>
        <time>2021-08-14T07:07:39.000Z</time>
      </trkpt>
      <trkpt lat="47.23804" lon="-1.67134">
        <ele>110</ele>
        <time>2021-08-14T07:07:41.000Z</time>
      </trkpt>
      <trkpt lat="47.23816" lon="-1.67132">
        <ele>110</ele>
        <time>2021-08-14T07:07:43.000Z</time>
      </trkpt>
      <trkpt lat="47.23827" lon="-1.67131">
        <ele>110</ele>
        <time>2021-08-14T07:07:45.000Z</time>
      </trkpt>
      <trkpt lat="47.23839" lon="-1.67131">
        <ele>110</ele>
        <time>2021-08-14T07:07:47.000Z</time>
      </trkpt>
      <trkpt lat="47.2385" lon="-1.67132">
        <ele>110</ele>
        <time>2021-08-14T07:07:49.000Z</time>
      </trkpt>
      <trkpt lat="47.23862" lon="-1.67135">
        <ele>110</ele>
        <time>2021-08-14T07:07:51.000Z</time>
      </trkpt>
      <trkpt lat="47.23873" lon="-1.6714">
        <ele>111</ele>
        <time>2021-08-14T07:07:53.000Z</time>
      </trkpt>
      <trkpt lat="47.23885" lon="-1.67145">
        <ele>111</ele>
        <time>2021-08-14T07:07:55.000Z</time>
      </trkpt>
      <trkpt lat="47.23896" lon="-1.67151">
        <ele>111</ele>
        <time>2021-08-14T07:07:57.000Z</time>
      </trkpt>
      <trkpt lat="47.23907" lon="-1.67157">
        <ele>112</ele>
        <time>2021-08-14T07:07:59.000Z</time>
      </trkpt>
      <trkpt lat="47.23918" lon="-1.67163">
        <ele>112</ele>
        <time>2021-08-14T07:08:01.000Z</time>
      </trkpt>
      <trkpt lat="47.23928" lon="-1.6717">
        <ele>113</ele>
        <time>2021-08-14T07:08:03.000Z</time>
      </trkpt>
      <trkpt lat="47.23938" lon="-1.67177">
        <ele>113</ele>
        <time>2021-08-14T07:08:05.000Z</time>
      </trkpt>
      <trkpt lat="47.23946" lon="-1.67186">
        <ele>113</ele>
        <time>2021-08-14T07:08:07.000Z</time>
      </trkpt>
      <trkpt lat="47.23955" lon="-1.67196">
        <ele>113</ele>
        <time>2021-08-14T07:08:09.000Z</time>
      </trkpt>
      <trkpt lat="47.23964" lon="-1.67208">
        <ele>112</ele>
        <time>2021-08-14T07:08:11.000Z</time>
      </trkpt>
      <trkpt lat="47.23972" lon="-1.67221">
        <ele>113</ele>
        <time>2021-08-14T07:08:13.000Z</time>
      </trkpt>
      <trkpt lat="47.23984" lon="-1.67239">
        <ele>113</ele>
        <time>2021-08-14T07:08:16.000Z</time>
      </trkpt>
      <trkpt lat="47.23998" lon="-1.67255">
        <ele>113</ele>
        <time>2021-08-14T07:08:19.000Z</time>
      </trkpt>
      <trkpt lat="47.24015" lon="-1.67269">
        <ele>113</ele>
        <time>2021-08-14T07:08:22.000Z</time>
      </trkpt>
      <trkpt lat="47.24028" lon="-1.67276">
        <ele>113</ele>
        <time>2021-08-14T07:08:24.000Z</time>
      </trkpt>
      <trkpt lat="47.24049" lon="-1.67283">
        <ele>112</ele>
        <time>2021-08-14T07:08:27.000Z</time>
      </trkpt>
      <trkpt lat="47.24064" lon="-1.67285">
        <ele>110</ele>
        <time>2021-08-14T07:08:29.000Z</time>
      </trkpt>
      <trkpt lat="47.2408" lon="-1.67286">
        <ele>109</ele>
        <time>2021-08-14T07:08:31.000Z</time>
      </trkpt>
      <trkpt lat="47.24096" lon="-1.67288">
        <ele>109</ele>
        <time>2021-08-14T07:08:33.000Z</time>
      </trkpt>
      <trkpt lat="47.24113" lon="-1.6729">
        <ele>108</ele>
        <time>2021-08-14T07:08:35.000Z</time>
      </trkpt>
      <trkpt lat="47.2413" lon="-1.67291">
        <ele>108</ele>
        <time>2021-08-14T07:08:37.000Z</time>
      </trkpt>
      <trkpt lat="47.24147" lon="-1.67292">
        <ele>108</ele>
        <time>2021-08-14T07:08:39.000Z</time>
      </trkpt>
      <trkpt lat="47.24162" lon="-1.67289">
        <ele>108</ele>
        <time>2021-08-14T07:08:41.000Z</time>
      </trkpt>
      <trkpt lat="47.24178" lon="-1.67284">
        <ele>106</ele>
        <time>2021-08-14T07:08:43.000Z</time>
      </trkpt>
      <trkpt lat="47.24192" lon="-1.67279">
        <ele>105</ele>
        <time>2021-08-14T07:08:45.000Z</time>
      </trkpt>
      <trkpt lat="47.24206" lon="-1.67272">
        <ele>104</ele>
        <time>2021-08-14T07:08:47.000Z</time>
      </trkpt>
      <trkpt lat="47.24223" lon="-1.67254">
        <ele>104</ele>
        <time>2021-08-14T07:08:50.000Z</time>
      </trkpt>
      <trkpt lat="47.24227" lon="-1.67235">
        <ele>103</ele>
        <time>2021-08-14T07:08:52.000Z</time>
      </trkpt>
      <trkpt lat="47.24227" lon="-1.67216">
        <ele>102</ele>
        <time>2021-08-14T07:08:54.000Z</time>
      </trkpt>
      <trkpt lat="47.24231" lon="-1.67201">
        <ele>101</ele>
        <time>2021-08-14T07:08:56.000Z</time>
      </trkpt>
      <trkpt lat="47.2424" lon="-1.6719">
        <ele>101</ele>
        <time>2021-08-14T07:08:58.000Z</time>
      </trkpt>
      <trkpt lat="47.24247" lon="-1.67175">
        <ele>102</ele>
        <time>2021-08-14T07:09:00.000Z</time>
      </trkpt>
      <trkpt lat="47.24246" lon="-1.67157">
        <ele>102</ele>
        <time>2021-08-14T07:09:02.000Z</time>
      </trkpt>
      <trkpt lat="47.24244" lon="-1.67139">
        <ele>102</ele>
        <time>2021-08-14T07:09:04.000Z</time>
      </trkpt>
      <trkpt lat="47.24244" lon="-1.67119">
        <ele>102</ele>
        <time>2021-08-14T07:09:06.000Z</time>
      </trkpt>
      <trkpt lat="47.24243" lon="-1.67101">
        <ele>102</ele>
        <time>2021-08-14T07:09:08.000Z</time>
      </trkpt>
      <trkpt lat="47.24243" lon="-1.67083">
        <ele>102</ele>
        <time>2021-08-14T07:09:10.000Z</time>
      </trkpt>
      <trkpt lat="47.24244" lon="-1.67064">
        <ele>103</ele>
        <time>2021-08-14T07:09:12.000Z</time>
      </trkpt>
      <trkpt lat="47.24245" lon="-1.67047">
        <ele>103</ele>
        <time>2021-08-14T07:09:14.000Z</time>
      </trkpt>
      <trkpt lat="47.24247" lon="-1.67028">
        <ele>103</ele>
        <time>2021-08-14T07:09:16.000Z</time>
      </trkpt>
      <trkpt lat="47.24249" lon="-1.6701">
        <ele>103</ele>
        <time>2021-08-14T07:09:18.000Z</time>
      </trkpt>
      <trkpt lat="47.24252" lon="-1.66993">
        <ele>103</ele>
        <time>2021-08-14T07:09:20.000Z</time>
      </trkpt>
      <trkpt lat="47.24256" lon="-1.66976">
        <ele>103</ele>
        <time>2021-08-14T07:09:22.000Z</time>
      </trkpt>
      <trkpt lat="47.24259" lon="-1.66959">
        <ele>104</ele>
        <time>2021-08-14T07:09:24.000Z</time>
      </trkpt>
      <trkpt lat="47.24263" lon="-1.66942">
        <ele>103</ele>
        <time>2021-08-14T07:09:26.000Z</time>
      </trkpt>
      <trkpt lat="47.24266" lon="-1.66925">
        <ele>103</ele>
        <time>2021-08-14T07:09:28.000Z</time>
      </trkpt>
      <trkpt lat="47.24269" lon="-1.66908">
        <ele>104</ele>
        <time>2021-08-14T07:09:30.000Z</time>
      </trkpt>
      <trkpt lat="47.24272" lon="-1.66891">
        <ele>104</ele>
        <time>2021-08-14T07:09:32.000Z</time>
      </trkpt>
      <trkpt lat="47.24276" lon="-1.66874">
        <ele>104</ele>
        <time>2021-08-14T07:09:34.000Z</time>
      </trkpt>
      <trkpt lat="47.24282" lon="-1.66857">
        <ele>105</ele>
        <time>2021-08-14T07:09:36.000Z</time>
      </trkpt>
      <trkpt lat="47.24287" lon="-1.6684">
        <ele>105</ele>
        <time>2021-08-14T07:09:38.000Z</time>
      </trkpt>
      <trkpt lat="47.24292" lon="-1.66823">
        <ele>105</ele>
        <time>2021-08-14T07:09:40.000Z</time>
      </trkpt>
      <trkpt lat="47.24302" lon="-1.66813">
        <ele>105</ele>
        <time>2021-08-14T07:09:42.000Z</time>
      </trkpt>
      <trkpt lat="47.24316" lon="-1.66818">
        <ele>104</ele>
        <time>2021-08-14T07:09:44.000Z</time>
      </trkpt>
      <trkpt lat="47.24327" lon="-1.6683">
        <ele>104</ele>
        <time>2021-08-14T07:09:46.000Z</time>
      </trkpt>
      <trkpt lat="47.24339" lon="-1.66841">
        <ele>103</ele>
        <time>2021-08-14T07:09:48.000Z</time>
      </trkpt>
      <trkpt lat="47.24351" lon="-1.66852">
        <ele>104</ele>
        <time>2021-08-14T07:09:50.000Z</time>
      </trkpt>
      <trkpt lat="47.24364" lon="-1.66865">
        <ele>104</ele>
        <time>2021-08-14T07:09:52.000Z</time>
      </trkpt>
      <trkpt lat="47.24376" lon="-1.66878">
        <ele>104</ele>
        <time>2021-08-14T07:09:54.000Z</time>
      </trkpt>
      <trkpt lat="47.24388" lon="-1.66892">
        <ele>103</ele>
        <time>2021-08-14T07:09:56.000Z</time>
      </trkpt>
      <trkpt lat="47.24399" lon="-1.66907">
        <ele>102</ele>
        <time>2021-08-14T07:09:58.000Z</time>
      </trkpt>
      <trkpt lat="47.24411" lon="-1.66921">
        <ele>102</ele>
        <time>2021-08-14T07:10:00.000Z</time>
      </trkpt>
      <trkpt lat="47.24423" lon="-1.66936">
        <ele>101</ele>
        <time>2021-08-14T07:10:02.000Z</time>
      </trkpt>
      <trkpt lat="47.24432" lon="-1.66954">
        <ele>101</ele>
        <time>2021-08-14T07:10:04.000Z</time>
      </trkpt>
      <trkpt lat="47.24442" lon="-1.66969">
        <ele>101</ele>
        <time>2021-08-14T07:10:06.000Z</time>
      </trkpt>
      <trkpt lat="47.24454" lon="-1.66983">
        <ele>101</ele>
        <time>2021-08-14T07:10:08.000Z</time>
      </trkpt>
      <trkpt lat="47.24466" lon="-1.66997">
        <ele>101</ele>
        <time>2021-08-14T07:10:10.000Z</time>
      </trkpt>
      <trkpt lat="47.2448" lon="-1.67004">
        <ele>101</ele>
        <time>2021-08-14T07:10:12.000Z</time>
      </trkpt>
      <trkpt lat="47.24493" lon="-1.67012">
        <ele>101</ele>
        <time>2021-08-14T07:10:14.000Z</time>
      </trkpt>
      <trkpt lat="47.24506" lon="-1.67021">
        <ele>101</ele>
        <time>2021-08-14T07:10:16.000Z</time>
      </trkpt>
      <trkpt lat="47.2452" lon="-1.67027">
        <ele>101</ele>
        <time>2021-08-14T07:10:18.000Z</time>
      </trkpt>
      <trkpt lat="47.24533" lon="-1.67031">
        <ele>102</ele>
        <time>2021-08-14T07:10:20.000Z</time>
      </trkpt>
      <trkpt lat="47.24547" lon="-1.67032">
        <ele>102</ele>
        <time>2021-08-14T07:10:22.000Z</time>
      </trkpt>
      <trkpt lat="47.24561" lon="-1.67032">
        <ele>102</ele>
        <time>2021-08-14T07:10:24.000Z</time>
      </trkpt>
      <trkpt lat="47.24574" lon="-1.67032">
        <ele>102</ele>
        <time>2021-08-14T07:10:26.000Z</time>
      </trkpt>
      <trkpt lat="47.24587" lon="-1.67029">
        <ele>101</ele>
        <time>2021-08-14T07:10:28.000Z</time>
      </trkpt>
      <trkpt lat="47.24601" lon="-1.67024">
        <ele>101</ele>
        <time>2021-08-14T07:10:30.000Z</time>
      </trkpt>
      <trkpt lat="47.24614" lon="-1.67019">
        <ele>101</ele>
        <time>2021-08-14T07:10:32.000Z</time>
      </trkpt>
      <trkpt lat="47.24627" lon="-1.67014">
        <ele>100</ele>
        <time>2021-08-14T07:10:34.000Z</time>
      </trkpt>
      <trkpt lat="47.2464" lon="-1.67009">
        <ele>101</ele>
        <time>2021-08-14T07:10:36.000Z</time>
      </trkpt>
      <trkpt lat="47.24653" lon="-1.67002">
        <ele>100</ele>
        <time>2021-08-14T07:10:38.000Z</time>
      </trkpt>
      <trkpt lat="47.24666" lon="-1.66993">
        <ele>100</ele>
        <time>2021-08-14T07:10:40.000Z</time>
      </trkpt>
      <trkpt lat="47.24678" lon="-1.6698">
        <ele>100</ele>
        <time>2021-08-14T07:10:42.000Z</time>
      </trkpt>
      <trkpt lat="47.24689" lon="-1.66965">
        <ele>100</ele>
        <time>2021-08-14T07:10:44.000Z</time>
      </trkpt>
      <trkpt lat="47.24698" lon="-1.6695">
        <ele>100</ele>
        <time>2021-08-14T07:10:46.000Z</time>
      </trkpt>
      <trkpt lat="47.24709" lon="-1.66937">
        <ele>100</ele>
        <time>2021-08-14T07:10:48.000Z</time>
      </trkpt>
      <trkpt lat="47.24721" lon="-1.66926">
        <ele>100</ele>
        <time>2021-08-14T07:10:50.000Z</time>
      </trkpt>
      <trkpt lat="47.24734" lon="-1.66916">
        <ele>100</ele>
        <time>2021-08-14T07:10:52.000Z</time>
      </trkpt>
      <trkpt lat="47.24747" lon="-1.66909">
        <ele>100</ele>
        <time>2021-08-14T07:10:54.000Z</time>
      </trkpt>
      <trkpt lat="47.2476" lon="-1.66901">
        <ele>99</ele>
        <time>2021-08-14T07:10:56.000Z</time>
      </trkpt>
      <trkpt lat="47.24774" lon="-1.66892">
        <ele>99</ele>
        <time>2021-08-14T07:10:58.000Z</time>
      </trkpt>
      <trkpt lat="47.24787" lon="-1.66881">
        <ele>98</ele>
        <time>2021-08-14T07:11:00.000Z</time>
      </trkpt>
      <trkpt lat="47.24799" lon="-1.66869">
        <ele>98</ele>
        <time>2021-08-14T07:11:02.000Z</time>
      </trkpt>
      <trkpt lat="47.24811" lon="-1.66858">
        <ele>98</ele>
        <time>2021-08-14T07:11:04.000Z</time>
      </trkpt>
      <trkpt lat="47.24825" lon="-1.66849">
        <ele>97</ele>
        <time>2021-08-14T07:11:06.000Z</time>
      </trkpt>
      <trkpt lat="47.24839" lon="-1.66842">
        <ele>97</ele>
        <time>2021-08-14T07:11:08.000Z</time>
      </trkpt>
      <trkpt lat="47.24853" lon="-1.66838">
        <ele>97</ele>
        <time>2021-08-14T07:11:10.000Z</time>
      </trkpt>
      <trkpt lat="47.24868" lon="-1.66835">
        <ele>97</ele>
        <time>2021-08-14T07:11:12.000Z</time>
      </trkpt>
      <trkpt lat="47.24882" lon="-1.66831">
        <ele>97</ele>
        <time>2021-08-14T07:11:14.000Z</time>
      </trkpt>
      <trkpt lat="47.24897" lon="-1.66826">
        <ele>97</ele>
        <time>2021-08-14T07:11:16.000Z</time>
      </trkpt>
      <trkpt lat="47.24912" lon="-1.66822">
        <ele>96</ele>
        <time>2021-08-14T07:11:18.000Z</time>
      </trkpt>
      <trkpt lat="47.24927" lon="-1.66817">
        <ele>96</ele>
        <time>2021-08-14T07:11:20.000Z</time>
      </trkpt>
      <trkpt lat="47.24941" lon="-1.66813">
        <ele>97</ele>
        <time>2021-08-14T07:11:22.000Z</time>
      </trkpt>
      <trkpt lat="47.24955" lon="-1.66808">
        <ele>97</ele>
        <time>2021-08-14T07:11:24.000Z</time>
      </trkpt>
      <trkpt lat="47.24969" lon="-1.66804">
        <ele>97</ele>
        <time>2021-08-14T07:11:26.000Z</time>
      </trkpt>
      <trkpt lat="47.24984" lon="-1.668">
        <ele>97</ele>
        <time>2021-08-14T07:11:28.000Z</time>
      </trkpt>
      <trkpt lat="47.24998" lon="-1.66796">
        <ele>97</ele>
        <time>2021-08-14T07:11:30.000Z</time>
      </trkpt>
      <trkpt lat="47.25013" lon="-1.66794">
        <ele>98</ele>
        <time>2021-08-14T07:11:32.000Z</time>
      </trkpt>
      <trkpt lat="47.25027" lon="-1.66793">
        <ele>98</ele>
        <time>2021-08-14T07:11:34.000Z</time>
      </trkpt>
      <trkpt lat="47.25042" lon="-1.66792">
        <ele>98</ele>
        <time>2021-08-14T07:11:36.000Z</time>
      </trkpt>
      <trkpt lat="47.25057" lon="-1.66793">
        <ele>98</ele>
        <time>2021-08-14T07:11:38.000Z</time>
      </trkpt>
      <trkpt lat="47.25072" lon="-1.66794">
        <ele>98</ele>
        <time>2021-08-14T07:11:40.000Z</time>
      </trkpt>
      <trkpt lat="47.25087" lon="-1.66795">
        <ele>97</ele>
        <time>2021-08-14T07:11:42.000Z</time>
      </trkpt>
      <trkpt lat="47.25104" lon="-1.66799">
        <ele>97</ele>
        <time>2021-08-14T07:11:44.000Z</time>
      </trkpt>
      <trkpt lat="47.25121" lon="-1.66805">
        <ele>95</ele>
        <time>2021-08-14T07:11:46.000Z</time>
      </trkpt>
      <trkpt lat="47.2513" lon="-1.66808">
        <ele>95</ele>
        <time>2021-08-14T07:11:47.000Z</time>
      </trkpt>
      <trkpt lat="47.25139" lon="-1.66812">
        <ele>94</ele>
        <time>2021-08-14T07:11:48.000Z</time>
      </trkpt>
      <trkpt lat="47.25157" lon="-1.66818">
        <ele>93</ele>
        <time>2021-08-14T07:11:50.000Z</time>
      </trkpt>
      <trkpt lat="47.25166" lon="-1.66822">
        <ele>93</ele>
        <time>2021-08-14T07:11:51.000Z</time>
      </trkpt>
      <trkpt lat="47.25175" lon="-1.66824">
        <ele>93</ele>
        <time>2021-08-14T07:11:52.000Z</time>
      </trkpt>
      <trkpt lat="47.25185" lon="-1.66826">
        <ele>93</ele>
        <time>2021-08-14T07:11:53.000Z</time>
      </trkpt>
      <trkpt lat="47.25194" lon="-1.66828">
        <ele>92</ele>
        <time>2021-08-14T07:11:54.000Z</time>
      </trkpt>
      <trkpt lat="47.2521" lon="-1.66831">
        <ele>92</ele>
        <time>2021-08-14T07:11:56.000Z</time>
      </trkpt>
      <trkpt lat="47.25225" lon="-1.66835">
        <ele>92</ele>
        <time>2021-08-14T07:11:58.000Z</time>
      </trkpt>
      <trkpt lat="47.2524" lon="-1.66837">
        <ele>93</ele>
        <time>2021-08-14T07:12:00.000Z</time>
      </trkpt>
      <trkpt lat="47.25252" lon="-1.66839">
        <ele>93</ele>
        <time>2021-08-14T07:12:02.000Z</time>
      </trkpt>
      <trkpt lat="47.25265" lon="-1.66841">
        <ele>93</ele>
        <time>2021-08-14T07:12:04.000Z</time>
      </trkpt>
      <trkpt lat="47.25277" lon="-1.66843">
        <ele>94</ele>
        <time>2021-08-14T07:12:06.000Z</time>
      </trkpt>
      <trkpt lat="47.2529" lon="-1.66845">
        <ele>95</ele>
        <time>2021-08-14T07:12:08.000Z</time>
      </trkpt>
      <trkpt lat="47.25302" lon="-1.66846">
        <ele>95</ele>
        <time>2021-08-14T07:12:10.000Z</time>
      </trkpt>
      <trkpt lat="47.25314" lon="-1.66848">
        <ele>96</ele>
        <time>2021-08-14T07:12:12.000Z</time>
      </trkpt>
      <trkpt lat="47.25327" lon="-1.6685">
        <ele>97</ele>
        <time>2021-08-14T07:12:14.000Z</time>
      </trkpt>
      <trkpt lat="47.2534" lon="-1.66852">
        <ele>97</ele>
        <time>2021-08-14T07:12:16.000Z</time>
      </trkpt>
      <trkpt lat="47.25352" lon="-1.66853">
        <ele>97</ele>
        <time>2021-08-14T07:12:18.000Z</time>
      </trkpt>
      <trkpt lat="47.25364" lon="-1.66855">
        <ele>98</ele>
        <time>2021-08-14T07:12:20.000Z</time>
      </trkpt>
      <trkpt lat="47.25376" lon="-1.66856">
        <ele>99</ele>
        <time>2021-08-14T07:12:22.000Z</time>
      </trkpt>
      <trkpt lat="47.25389" lon="-1.66858">
        <ele>100</ele>
        <time>2021-08-14T07:12:24.000Z</time>
      </trkpt>
      <trkpt lat="47.25401" lon="-1.6686">
        <ele>100</ele>
        <time>2021-08-14T07:12:26.000Z</time>
      </trkpt>
      <trkpt lat="47.25413" lon="-1.66862">
        <ele>100</ele>
        <time>2021-08-14T07:12:28.000Z</time>
      </trkpt>
      <trkpt lat="47.25426" lon="-1.66864">
        <ele>99</ele>
        <time>2021-08-14T07:12:30.000Z</time>
      </trkpt>
      <trkpt lat="47.25438" lon="-1.66866">
        <ele>100</ele>
        <time>2021-08-14T07:12:32.000Z</time>
      </trkpt>
      <trkpt lat="47.2545" lon="-1.66868">
        <ele>100</ele>
        <time>2021-08-14T07:12:34.000Z</time>
      </trkpt>
      <trkpt lat="47.25462" lon="-1.66871">
        <ele>100</ele>
        <time>2021-08-14T07:12:36.000Z</time>
      </trkpt>
      <trkpt lat="47.25475" lon="-1.66872">
        <ele>100</ele>
        <time>2021-08-14T07:12:38.000Z</time>
      </trkpt>
      <trkpt lat="47.25487" lon="-1.66874">
        <ele>101</ele>
        <time>2021-08-14T07:12:40.000Z</time>
      </trkpt>
      <trkpt lat="47.25499" lon="-1.66876">
        <ele>102</ele>
        <time>2021-08-14T07:12:42.000Z</time>
      </trkpt>
      <trkpt lat="47.2551" lon="-1.66878">
        <ele>102</ele>
        <time>2021-08-14T07:12:44.000Z</time>
      </trkpt>
      <trkpt lat="47.25522" lon="-1.66876">
        <ele>102</ele>
        <time>2021-08-14T07:12:46.000Z</time>
      </trkpt>
      <trkpt lat="47.25534" lon="-1.66878">
        <ele>102</ele>
        <time>2021-08-14T07:12:48.000Z</time>
      </trkpt>
      <trkpt lat="47.25545" lon="-1.66882">
        <ele>102</ele>
        <time>2021-08-14T07:12:50.000Z</time>
      </trkpt>
      <trkpt lat="47.25557" lon="-1.66884">
        <ele>103</ele>
        <time>2021-08-14T07:12:52.000Z</time>
      </trkpt>
      <trkpt lat="47.25569" lon="-1.66885">
        <ele>103</ele>
        <time>2021-08-14T07:12:54.000Z</time>
      </trkpt>
      <trkpt lat="47.25581" lon="-1.66886">
        <ele>103</ele>
        <time>2021-08-14T07:12:56.000Z</time>
      </trkpt>
      <trkpt lat="47.25594" lon="-1.66886">
        <ele>103</ele>
        <time>2021-08-14T07:12:58.000Z</time>
      </trkpt>
      <trkpt lat="47.25607" lon="-1.66887">
        <ele>103</ele>
        <time>2021-08-14T07:13:00.000Z</time>
      </trkpt>
      <trkpt lat="47.25618" lon="-1.66888">
        <ele>103</ele>
        <time>2021-08-14T07:13:02.000Z</time>
      </trkpt>
      <trkpt lat="47.2563" lon="-1.66889">
        <ele>103</ele>
        <time>2021-08-14T07:13:04.000Z</time>
      </trkpt>
      <trkpt lat="47.25643" lon="-1.6689">
        <ele>103</ele>
        <time>2021-08-14T07:13:06.000Z</time>
      </trkpt>
      <trkpt lat="47.25655" lon="-1.66891">
        <ele>104</ele>
        <time>2021-08-14T07:13:08.000Z</time>
      </trkpt>
      <trkpt lat="47.25667" lon="-1.66891">
        <ele>104</ele>
        <time>2021-08-14T07:13:10.000Z</time>
      </trkpt>
      <trkpt lat="47.25679" lon="-1.66889">
        <ele>103</ele>
        <time>2021-08-14T07:13:12.000Z</time>
      </trkpt>
      <trkpt lat="47.25691" lon="-1.66885">
        <ele>103</ele>
        <time>2021-08-14T07:13:14.000Z</time>
      </trkpt>
      <trkpt lat="47.25703" lon="-1.66889">
        <ele>103</ele>
        <time>2021-08-14T07:13:16.000Z</time>
      </trkpt>
      <trkpt lat="47.25715" lon="-1.66894">
        <ele>103</ele>
        <time>2021-08-14T07:13:18.000Z</time>
      </trkpt>
      <trkpt lat="47.25726" lon="-1.66897">
        <ele>103</ele>
        <time>2021-08-14T07:13:20.000Z</time>
      </trkpt>
      <trkpt lat="47.25738" lon="-1.66898">
        <ele>103</ele>
        <time>2021-08-14T07:13:22.000Z</time>
      </trkpt>
      <trkpt lat="47.25752" lon="-1.66899">
        <ele>103</ele>
        <time>2021-08-14T07:13:24.000Z</time>
      </trkpt>
      <trkpt lat="47.25764" lon="-1.669">
        <ele>103</ele>
        <time>2021-08-14T07:13:26.000Z</time>
      </trkpt>
      <trkpt lat="47.25776" lon="-1.66901">
        <ele>104</ele>
        <time>2021-08-14T07:13:28.000Z</time>
      </trkpt>
      <trkpt lat="47.25787" lon="-1.66903">
        <ele>105</ele>
        <time>2021-08-14T07:13:30.000Z</time>
      </trkpt>
      <trkpt lat="47.25799" lon="-1.66906">
        <ele>106</ele>
        <time>2021-08-14T07:13:32.000Z</time>
      </trkpt>
      <trkpt lat="47.25811" lon="-1.66909">
        <ele>106</ele>
        <time>2021-08-14T07:13:34.000Z</time>
      </trkpt>
      <trkpt lat="47.25823" lon="-1.66912">
        <ele>107</ele>
        <time>2021-08-14T07:13:36.000Z</time>
      </trkpt>
      <trkpt lat="47.25835" lon="-1.66914">
        <ele>107</ele>
        <time>2021-08-14T07:13:38.000Z</time>
      </trkpt>
      <trkpt lat="47.25848" lon="-1.66917">
        <ele>107</ele>
        <time>2021-08-14T07:13:40.000Z</time>
      </trkpt>
      <trkpt lat="47.2586" lon="-1.6692">
        <ele>107</ele>
        <time>2021-08-14T07:13:42.000Z</time>
      </trkpt>
      <trkpt lat="47.25872" lon="-1.66923">
        <ele>108</ele>
        <time>2021-08-14T07:13:44.000Z</time>
      </trkpt>
      <trkpt lat="47.25884" lon="-1.66927">
        <ele>108</ele>
        <time>2021-08-14T07:13:46.000Z</time>
      </trkpt>
      <trkpt lat="47.25895" lon="-1.66931">
        <ele>109</ele>
        <time>2021-08-14T07:13:48.000Z</time>
      </trkpt>
      <trkpt lat="47.25907" lon="-1.66935">
        <ele>109</ele>
        <time>2021-08-14T07:13:50.000Z</time>
      </trkpt>
      <trkpt lat="47.25919" lon="-1.6694">
        <ele>109</ele>
        <time>2021-08-14T07:13:52.000Z</time>
      </trkpt>
      <trkpt lat="47.2593" lon="-1.66945">
        <ele>110</ele>
        <time>2021-08-14T07:13:54.000Z</time>
      </trkpt>
      <trkpt lat="47.25942" lon="-1.66949">
        <ele>110</ele>
        <time>2021-08-14T07:13:56.000Z</time>
      </trkpt>
      <trkpt lat="47.25954" lon="-1.66954">
        <ele>110</ele>
        <time>2021-08-14T07:13:58.000Z</time>
      </trkpt>
      <trkpt lat="47.25965" lon="-1.66959">
        <ele>110</ele>
        <time>2021-08-14T07:14:00.000Z</time>
      </trkpt>
      <trkpt lat="47.25976" lon="-1.66964">
        <ele>110</ele>
        <time>2021-08-14T07:14:02.000Z</time>
      </trkpt>
      <trkpt lat="47.25988" lon="-1.6697">
        <ele>110</ele>
        <time>2021-08-14T07:14:04.000Z</time>
      </trkpt>
      <trkpt lat="47.25999" lon="-1.66974">
        <ele>111</ele>
        <time>2021-08-14T07:14:06.000Z</time>
      </trkpt>
      <trkpt lat="47.2601" lon="-1.66979">
        <ele>111</ele>
        <time>2021-08-14T07:14:08.000Z</time>
      </trkpt>
      <trkpt lat="47.26021" lon="-1.66984">
        <ele>111</ele>
        <time>2021-08-14T07:14:10.000Z</time>
      </trkpt>
      <trkpt lat="47.26031" lon="-1.66989">
        <ele>112</ele>
        <time>2021-08-14T07:14:12.000Z</time>
      </trkpt>
      <trkpt lat="47.26042" lon="-1.66994">
        <ele>112</ele>
        <time>2021-08-14T07:14:14.000Z</time>
      </trkpt>
      <trkpt lat="47.26053" lon="-1.66999">
        <ele>113</ele>
        <time>2021-08-14T07:14:16.000Z</time>
      </trkpt>
      <trkpt lat="47.26064" lon="-1.67004">
        <ele>113</ele>
        <time>2021-08-14T07:14:18.000Z</time>
      </trkpt>
      <trkpt lat="47.26075" lon="-1.67009">
        <ele>114</ele>
        <time>2021-08-14T07:14:20.000Z</time>
      </trkpt>
      <trkpt lat="47.26086" lon="-1.67014">
        <ele>114</ele>
        <time>2021-08-14T07:14:22.000Z</time>
      </trkpt>
      <trkpt lat="47.26097" lon="-1.67019">
        <ele>114</ele>
        <time>2021-08-14T07:14:24.000Z</time>
      </trkpt>
      <trkpt lat="47.26108" lon="-1.67024">
        <ele>114</ele>
        <time>2021-08-14T07:14:26.000Z</time>
      </trkpt>
      <trkpt lat="47.2612" lon="-1.67029">
        <ele>115</ele>
        <time>2021-08-14T07:14:28.000Z</time>
      </trkpt>
      <trkpt lat="47.26131" lon="-1.67034">
        <ele>115</ele>
        <time>2021-08-14T07:14:30.000Z</time>
      </trkpt>
      <trkpt lat="47.26142" lon="-1.6704">
        <ele>115</ele>
        <time>2021-08-14T07:14:32.000Z</time>
      </trkpt>
      <trkpt lat="47.26154" lon="-1.67045">
        <ele>115</ele>
        <time>2021-08-14T07:14:34.000Z</time>
      </trkpt>
      <trkpt lat="47.26164" lon="-1.6705">
        <ele>115</ele>
        <time>2021-08-14T07:14:36.000Z</time>
      </trkpt>
      <trkpt lat="47.26175" lon="-1.67055">
        <ele>115</ele>
        <time>2021-08-14T07:14:38.000Z</time>
      </trkpt>
      <trkpt lat="47.26185" lon="-1.67059">
        <ele>116</ele>
        <time>2021-08-14T07:14:40.000Z</time>
      </trkpt>
      <trkpt lat="47.26195" lon="-1.6706">
        <ele>116</ele>
        <time>2021-08-14T07:14:42.000Z</time>
      </trkpt>
      <trkpt lat="47.26204" lon="-1.67064">
        <ele>116</ele>
        <time>2021-08-14T07:14:44.000Z</time>
      </trkpt>
      <trkpt lat="47.2621" lon="-1.67077">
        <ele>117</ele>
        <time>2021-08-14T07:14:46.000Z</time>
      </trkpt>
      <trkpt lat="47.26213" lon="-1.67093">
        <ele>118</ele>
        <time>2021-08-14T07:14:48.000Z</time>
      </trkpt>
      <trkpt lat="47.26216" lon="-1.67111">
        <ele>118</ele>
        <time>2021-08-14T07:14:50.000Z</time>
      </trkpt>
      <trkpt lat="47.26219" lon="-1.6713">
        <ele>118</ele>
        <time>2021-08-14T07:14:52.000Z</time>
      </trkpt>
      <trkpt lat="47.26223" lon="-1.67147">
        <ele>118</ele>
        <time>2021-08-14T07:14:54.000Z</time>
      </trkpt>
      <trkpt lat="47.26226" lon="-1.67165">
        <ele>118</ele>
        <time>2021-08-14T07:14:56.000Z</time>
      </trkpt>
      <trkpt lat="47.2623" lon="-1.67184">
        <ele>118</ele>
        <time>2021-08-14T07:14:58.000Z</time>
      </trkpt>
      <trkpt lat="47.26233" lon="-1.672">
        <ele>118</ele>
        <time>2021-08-14T07:15:00.000Z</time>
      </trkpt>
      <trkpt lat="47.26236" lon="-1.67218">
        <ele>118</ele>
        <time>2021-08-14T07:15:02.000Z</time>
      </trkpt>
      <trkpt lat="47.2624" lon="-1.67234">
        <ele>117</ele>
        <time>2021-08-14T07:15:04.000Z</time>
      </trkpt>
      <trkpt lat="47.26249" lon="-1.67242">
        <ele>118</ele>
        <time>2021-08-14T07:15:06.000Z</time>
      </trkpt>
      <trkpt lat="47.26262" lon="-1.67238">
        <ele>119</ele>
        <time>2021-08-14T07:15:08.000Z</time>
      </trkpt>
      <trkpt lat="47.26276" lon="-1.67236">
        <ele>118</ele>
        <time>2021-08-14T07:15:10.000Z</time>
      </trkpt>
      <trkpt lat="47.26289" lon="-1.67234">
        <ele>118</ele>
        <time>2021-08-14T07:15:12.000Z</time>
      </trkpt>
      <trkpt lat="47.26302" lon="-1.6723">
        <ele>119</ele>
        <time>2021-08-14T07:15:14.000Z</time>
      </trkpt>
      <trkpt lat="47.26315" lon="-1.67225">
        <ele>119</ele>
        <time>2021-08-14T07:15:16.000Z</time>
      </trkpt>
      <trkpt lat="47.26327" lon="-1.67221">
        <ele>119</ele>
        <time>2021-08-14T07:15:18.000Z</time>
      </trkpt>
      <trkpt lat="47.2634" lon="-1.67218">
        <ele>119</ele>
        <time>2021-08-14T07:15:20.000Z</time>
      </trkpt>
      <trkpt lat="47.2635" lon="-1.67226">
        <ele>119</ele>
        <time>2021-08-14T07:15:22.000Z</time>
      </trkpt>
      <trkpt lat="47.26355" lon="-1.67243">
        <ele>119</ele>
        <time>2021-08-14T07:15:24.000Z</time>
      </trkpt>
      <trkpt lat="47.26359" lon="-1.67262">
        <ele>118</ele>
        <time>2021-08-14T07:15:26.000Z</time>
      </trkpt>
      <trkpt lat="47.26363" lon="-1.67279">
        <ele>118</ele>
        <time>2021-08-14T07:15:28.000Z</time>
      </trkpt>
      <trkpt lat="47.26373" lon="-1.67291">
        <ele>118</ele>
        <time>2021-08-14T07:15:30.000Z</time>
      </trkpt>
      <trkpt lat="47.26385" lon="-1.67295">
        <ele>118</ele>
        <time>2021-08-14T07:15:32.000Z</time>
      </trkpt>
      <trkpt lat="47.26399" lon="-1.67298">
        <ele>118</ele>
        <time>2021-08-14T07:15:34.000Z</time>
      </trkpt>
      <trkpt lat="47.26411" lon="-1.67304">
        <ele>118</ele>
        <time>2021-08-14T07:15:36.000Z</time>
      </trkpt>
      <trkpt lat="47.26422" lon="-1.6731">
        <ele>118</ele>
        <time>2021-08-14T07:15:38.000Z</time>
      </trkpt>
      <trkpt lat="47.26433" lon="-1.67316">
        <ele>117</ele>
        <time>2021-08-14T07:15:40.000Z</time>
      </trkpt>
      <trkpt lat="47.26444" lon="-1.67316">
        <ele>117</ele>
        <time>2021-08-14T07:15:42.000Z</time>
      </trkpt>
      <trkpt lat="47.26454" lon="-1.67303">
        <ele>116</ele>
        <time>2021-08-14T07:15:44.000Z</time>
      </trkpt>
      <trkpt lat="47.2646" lon="-1.67286">
        <ele>117</ele>
        <time>2021-08-14T07:15:46.000Z</time>
      </trkpt>
      <trkpt lat="47.26467" lon="-1.67268">
        <ele>116</ele>
        <time>2021-08-14T07:15:48.000Z</time>
      </trkpt>
      <trkpt lat="47.26474" lon="-1.6725">
        <ele>116</ele>
        <time>2021-08-14T07:15:50.000Z</time>
      </trkpt>
      <trkpt lat="47.26481" lon="-1.67232">
        <ele>116</ele>
        <time>2021-08-14T07:15:52.000Z</time>
      </trkpt>
      <trkpt lat="47.26488" lon="-1.67214">
        <ele>115</ele>
        <time>2021-08-14T07:15:54.000Z</time>
      </trkpt>
      <trkpt lat="47.26497" lon="-1.67196">
        <ele>114</ele>
        <time>2021-08-14T07:15:56.000Z</time>
      </trkpt>
      <trkpt lat="47.26507" lon="-1.67178">
        <ele>113</ele>
        <time>2021-08-14T07:15:58.000Z</time>
      </trkpt>
      <trkpt lat="47.26519" lon="-1.67161">
        <ele>112</ele>
        <time>2021-08-14T07:16:00.000Z</time>
      </trkpt>
      <trkpt lat="47.26532" lon="-1.67146">
        <ele>111</ele>
        <time>2021-08-14T07:16:02.000Z</time>
      </trkpt>
      <trkpt lat="47.26547" lon="-1.67132">
        <ele>110</ele>
        <time>2021-08-14T07:16:04.000Z</time>
      </trkpt>
      <trkpt lat="47.26562" lon="-1.6712">
        <ele>110</ele>
        <time>2021-08-14T07:16:06.000Z</time>
      </trkpt>
      <trkpt lat="47.26571" lon="-1.67114">
        <ele>109</ele>
        <time>2021-08-14T07:16:07.000Z</time>
      </trkpt>
      <trkpt lat="47.26579" lon="-1.67108">
        <ele>109</ele>
        <time>2021-08-14T07:16:08.000Z</time>
      </trkpt>
      <trkpt lat="47.26594" lon="-1.67095">
        <ele>107</ele>
        <time>2021-08-14T07:16:10.000Z</time>
      </trkpt>
      <trkpt lat="47.26603" lon="-1.67091">
        <ele>107</ele>
        <time>2021-08-14T07:16:11.000Z</time>
      </trkpt>
      <trkpt lat="47.26612" lon="-1.67087">
        <ele>106</ele>
        <time>2021-08-14T07:16:12.000Z</time>
      </trkpt>
      <trkpt lat="47.26621" lon="-1.67083">
        <ele>105</ele>
        <time>2021-08-14T07:16:13.000Z</time>
      </trkpt>
      <trkpt lat="47.26629" lon="-1.67077">
        <ele>104</ele>
        <time>2021-08-14T07:16:14.000Z</time>
      </trkpt>
      <trkpt lat="47.26638" lon="-1.67071">
        <ele>104</ele>
        <time>2021-08-14T07:16:15.000Z</time>
      </trkpt>
      <trkpt lat="47.26646" lon="-1.67065">
        <ele>103</ele>
        <time>2021-08-14T07:16:16.000Z</time>
      </trkpt>
      <trkpt lat="47.26655" lon="-1.6706">
        <ele>102</ele>
        <time>2021-08-14T07:16:17.000Z</time>
      </trkpt>
      <trkpt lat="47.26664" lon="-1.67054">
        <ele>101</ele>
        <time>2021-08-14T07:16:18.000Z</time>
      </trkpt>
      <trkpt lat="47.26672" lon="-1.67048">
        <ele>100</ele>
        <time>2021-08-14T07:16:19.000Z</time>
      </trkpt>
      <trkpt lat="47.26681" lon="-1.67042">
        <ele>100</ele>
        <time>2021-08-14T07:16:20.000Z</time>
      </trkpt>
      <trkpt lat="47.26689" lon="-1.67036">
        <ele>100</ele>
        <time>2021-08-14T07:16:21.000Z</time>
      </trkpt>
      <trkpt lat="47.26697" lon="-1.67031">
        <ele>100</ele>
        <time>2021-08-14T07:16:22.000Z</time>
      </trkpt>
      <trkpt lat="47.26706" lon="-1.67025">
        <ele>100</ele>
        <time>2021-08-14T07:16:23.000Z</time>
      </trkpt>
      <trkpt lat="47.26714" lon="-1.6702">
        <ele>100</ele>
        <time>2021-08-14T07:16:24.000Z</time>
      </trkpt>
      <trkpt lat="47.26723" lon="-1.67015">
        <ele>100</ele>
        <time>2021-08-14T07:16:25.000Z</time>
      </trkpt>
      <trkpt lat="47.26732" lon="-1.67011">
        <ele>100</ele>
        <time>2021-08-14T07:16:26.000Z</time>
      </trkpt>
      <trkpt lat="47.26742" lon="-1.67007">
        <ele>100</ele>
        <time>2021-08-14T07:16:27.000Z</time>
      </trkpt>
      <trkpt lat="47.26752" lon="-1.67006">
        <ele>99</ele>
        <time>2021-08-14T07:16:28.000Z</time>
      </trkpt>
      <trkpt lat="47.26762" lon="-1.67007">
        <ele>98</ele>
        <time>2021-08-14T07:16:29.000Z</time>
      </trkpt>
      <trkpt lat="47.26772" lon="-1.67013">
        <ele>97</ele>
        <time>2021-08-14T07:16:30.000Z</time>
      </trkpt>
      <trkpt lat="47.26781" lon="-1.67021">
        <ele>97</ele>
        <time>2021-08-14T07:16:31.000Z</time>
      </trkpt>
      <trkpt lat="47.26788" lon="-1.6703">
        <ele>96</ele>
        <time>2021-08-14T07:16:32.000Z</time>
      </trkpt>
      <trkpt lat="47.26796" lon="-1.67039">
        <ele>95</ele>
        <time>2021-08-14T07:16:33.000Z</time>
      </trkpt>
      <trkpt lat="47.26804" lon="-1.67049">
        <ele>94</ele>
        <time>2021-08-14T07:16:34.000Z</time>
      </trkpt>
      <trkpt lat="47.26811" lon="-1.6706">
        <ele>94</ele>
        <time>2021-08-14T07:16:35.000Z</time>
      </trkpt>
      <trkpt lat="47.26816" lon="-1.67072">
        <ele>93</ele>
        <time>2021-08-14T07:16:36.000Z</time>
      </trkpt>
      <trkpt lat="47.26822" lon="-1.67084">
        <ele>93</ele>
        <time>2021-08-14T07:16:37.000Z</time>
      </trkpt>
      <trkpt lat="47.26828" lon="-1.67095">
        <ele>93</ele>
        <time>2021-08-14T07:16:38.000Z</time>
      </trkpt>
      <trkpt lat="47.26837" lon="-1.67102">
        <ele>92</ele>
        <time>2021-08-14T07:16:39.000Z</time>
      </trkpt>
      <trkpt lat="47.26845" lon="-1.67111">
        <ele>92</ele>
        <time>2021-08-14T07:16:40.000Z</time>
      </trkpt>
      <trkpt lat="47.26853" lon="-1.67121">
        <ele>91</ele>
        <time>2021-08-14T07:16:41.000Z</time>
      </trkpt>
      <trkpt lat="47.2686" lon="-1.6713">
        <ele>90</ele>
        <time>2021-08-14T07:16:42.000Z</time>
      </trkpt>
      <trkpt lat="47.26867" lon="-1.6714">
        <ele>90</ele>
        <time>2021-08-14T07:16:43.000Z</time>
      </trkpt>
      <trkpt lat="47.26874" lon="-1.67149">
        <ele>90</ele>
        <time>2021-08-14T07:16:44.000Z</time>
      </trkpt>
      <trkpt lat="47.2689" lon="-1.6716">
        <ele>89</ele>
        <time>2021-08-14T07:16:46.000Z</time>
      </trkpt>
      <trkpt lat="47.26904" lon="-1.67162">
        <ele>90</ele>
        <time>2021-08-14T07:16:48.000Z</time>
      </trkpt>
      <trkpt lat="47.26917" lon="-1.6716">
        <ele>90</ele>
        <time>2021-08-14T07:16:50.000Z</time>
      </trkpt>
      <trkpt lat="47.26926" lon="-1.67157">
        <ele>91</ele>
        <time>2021-08-14T07:16:52.000Z</time>
      </trkpt>
      <trkpt lat="47.2694" lon="-1.67152">
        <ele>92</ele>
        <time>2021-08-14T07:16:55.000Z</time>
      </trkpt>
      <trkpt lat="47.26949" lon="-1.67146">
        <ele>93</ele>
        <time>2021-08-14T07:16:57.000Z</time>
      </trkpt>
      <trkpt lat="47.26958" lon="-1.67142">
        <ele>94</ele>
        <time>2021-08-14T07:16:59.000Z</time>
      </trkpt>
      <trkpt lat="47.26968" lon="-1.67137">
        <ele>94</ele>
        <time>2021-08-14T07:17:01.000Z</time>
      </trkpt>
      <trkpt lat="47.26979" lon="-1.67131">
        <ele>95</ele>
        <time>2021-08-14T07:17:03.000Z</time>
      </trkpt>
      <trkpt lat="47.2699" lon="-1.67127">
        <ele>97</ele>
        <time>2021-08-14T07:17:05.000Z</time>
      </trkpt>
      <trkpt lat="47.26999" lon="-1.67124">
        <ele>98</ele>
        <time>2021-08-14T07:17:07.000Z</time>
      </trkpt>
      <trkpt lat="47.27011" lon="-1.67122">
        <ele>99</ele>
        <time>2021-08-14T07:17:09.000Z</time>
      </trkpt>
      <trkpt lat="47.27021" lon="-1.67121">
        <ele>100</ele>
        <time>2021-08-14T07:17:11.000Z</time>
      </trkpt>
      <trkpt lat="47.27032" lon="-1.67118">
        <ele>101</ele>
        <time>2021-08-14T07:17:13.000Z</time>
      </trkpt>
      <trkpt lat="47.27042" lon="-1.67117">
        <ele>101</ele>
        <time>2021-08-14T07:17:15.000Z</time>
      </trkpt>
      <trkpt lat="47.27053" lon="-1.67117">
        <ele>102</ele>
        <time>2021-08-14T07:17:17.000Z</time>
      </trkpt>
      <trkpt lat="47.27064" lon="-1.67119">
        <ele>103</ele>
        <time>2021-08-14T07:17:19.000Z</time>
      </trkpt>
      <trkpt lat="47.27075" lon="-1.6712">
        <ele>104</ele>
        <time>2021-08-14T07:17:21.000Z</time>
      </trkpt>
      <trkpt lat="47.27085" lon="-1.67121">
        <ele>104</ele>
        <time>2021-08-14T07:17:23.000Z</time>
      </trkpt>
      <trkpt lat="47.27095" lon="-1.67124">
        <ele>105</ele>
        <time>2021-08-14T07:17:25.000Z</time>
      </trkpt>
      <trkpt lat="47.27104" lon="-1.67128">
        <ele>105</ele>
        <time>2021-08-14T07:17:27.000Z</time>
      </trkpt>
      <trkpt lat="47.27114" lon="-1.67132">
        <ele>105</ele>
        <time>2021-08-14T07:17:29.000Z</time>
      </trkpt>
      <trkpt lat="47.27123" lon="-1.67135">
        <ele>107</ele>
        <time>2021-08-14T07:17:31.000Z</time>
      </trkpt>
      <trkpt lat="47.27132" lon="-1.67137">
        <ele>108</ele>
        <time>2021-08-14T07:17:33.000Z</time>
      </trkpt>
      <trkpt lat="47.27142" lon="-1.67141">
        <ele>109</ele>
        <time>2021-08-14T07:17:35.000Z</time>
      </trkpt>
      <trkpt lat="47.27151" lon="-1.67143">
        <ele>110</ele>
        <time>2021-08-14T07:17:37.000Z</time>
      </trkpt>
      <trkpt lat="47.2716" lon="-1.67146">
        <ele>111</ele>
        <time>2021-08-14T07:17:39.000Z</time>
      </trkpt>
      <trkpt lat="47.27171" lon="-1.67151">
        <ele>111</ele>
        <time>2021-08-14T07:17:41.000Z</time>
      </trkpt>
      <trkpt lat="47.27179" lon="-1.67157">
        <ele>111</ele>
        <time>2021-08-14T07:17:43.000Z</time>
      </trkpt>
      <trkpt lat="47.27188" lon="-1.67161">
        <ele>111</ele>
        <time>2021-08-14T07:17:45.000Z</time>
      </trkpt>
      <trkpt lat="47.272" lon="-1.67167">
        <ele>112</ele>
        <time>2021-08-14T07:17:48.000Z</time>
      </trkpt>
      <trkpt lat="47.27211" lon="-1.67171">
        <ele>113</ele>
        <time>2021-08-14T07:17:50.000Z</time>
      </trkpt>
      <trkpt lat="47.27221" lon="-1.67175">
        <ele>113</ele>
        <time>2021-08-14T07:17:52.000Z</time>
      </trkpt>
      <trkpt lat="47.27231" lon="-1.6718">
        <ele>113</ele>
        <time>2021-08-14T07:17:54.000Z</time>
      </trkpt>
      <trkpt lat="47.2724" lon="-1.67183">
        <ele>113</ele>
        <time>2021-08-14T07:17:56.000Z</time>
      </trkpt>
      <trkpt lat="47.27249" lon="-1.67187">
        <ele>114</ele>
        <time>2021-08-14T07:17:58.000Z</time>
      </trkpt>
      <trkpt lat="47.27259" lon="-1.6719">
        <ele>113</ele>
        <time>2021-08-14T07:18:00.000Z</time>
      </trkpt>
      <trkpt lat="47.27268" lon="-1.67195">
        <ele>114</ele>
        <time>2021-08-14T07:18:02.000Z</time>
      </trkpt>
      <trkpt lat="47.27278" lon="-1.672">
        <ele>113</ele>
        <time>2021-08-14T07:18:04.000Z</time>
      </trkpt>
      <trkpt lat="47.27288" lon="-1.67204">
        <ele>113</ele>
        <time>2021-08-14T07:18:06.000Z</time>
      </trkpt>
      <trkpt lat="47.27299" lon="-1.67207">
        <ele>113</ele>
        <time>2021-08-14T07:18:08.000Z</time>
      </trkpt>
      <trkpt lat="47.27309" lon="-1.67211">
        <ele>113</ele>
        <time>2021-08-14T07:18:10.000Z</time>
      </trkpt>
      <trkpt lat="47.27318" lon="-1.67213">
        <ele>114</ele>
        <time>2021-08-14T07:18:12.000Z</time>
      </trkpt>
      <trkpt lat="47.27328" lon="-1.67213">
        <ele>114</ele>
        <time>2021-08-14T07:18:14.000Z</time>
      </trkpt>
      <trkpt lat="47.27338" lon="-1.67213">
        <ele>115</ele>
        <time>2021-08-14T07:18:16.000Z</time>
      </trkpt>
      <trkpt lat="47.27348" lon="-1.67211">
        <ele>115</ele>
        <time>2021-08-14T07:18:18.000Z</time>
      </trkpt>
      <trkpt lat="47.27359" lon="-1.67208">
        <ele>115</ele>
        <time>2021-08-14T07:18:20.000Z</time>
      </trkpt>
      <trkpt lat="47.27369" lon="-1.67204">
        <ele>115</ele>
        <time>2021-08-14T07:18:22.000Z</time>
      </trkpt>
      <trkpt lat="47.27379" lon="-1.67198">
        <ele>115</ele>
        <time>2021-08-14T07:18:24.000Z</time>
      </trkpt>
      <trkpt lat="47.27388" lon="-1.67189">
        <ele>115</ele>
        <time>2021-08-14T07:18:26.000Z</time>
      </trkpt>
      <trkpt lat="47.27398" lon="-1.67181">
        <ele>115</ele>
        <time>2021-08-14T07:18:28.000Z</time>
      </trkpt>
      <trkpt lat="47.27407" lon="-1.67173">
        <ele>115</ele>
        <time>2021-08-14T07:18:30.000Z</time>
      </trkpt>
      <trkpt lat="47.27417" lon="-1.67164">
        <ele>114</ele>
        <time>2021-08-14T07:18:32.000Z</time>
      </trkpt>
      <trkpt lat="47.27425" lon="-1.67156">
        <ele>114</ele>
        <time>2021-08-14T07:18:34.000Z</time>
      </trkpt>
      <trkpt lat="47.27435" lon="-1.67148">
        <ele>113</ele>
        <time>2021-08-14T07:18:36.000Z</time>
      </trkpt>
      <trkpt lat="47.27444" lon="-1.6714">
        <ele>113</ele>
        <time>2021-08-14T07:18:38.000Z</time>
      </trkpt>
      <trkpt lat="47.27453" lon="-1.67132">
        <ele>113</ele>
        <time>2021-08-14T07:18:40.000Z</time>
      </trkpt>
      <trkpt lat="47.27462" lon="-1.67124">
        <ele>113</ele>
        <time>2021-08-14T07:18:42.000Z</time>
      </trkpt>
      <trkpt lat="47.27471" lon="-1.67115">
        <ele>113</ele>
        <time>2021-08-14T07:18:44.000Z</time>
      </trkpt>
      <trkpt lat="47.2748" lon="-1.67107">
        <ele>113</ele>
        <time>2021-08-14T07:18:46.000Z</time>
      </trkpt>
      <trkpt lat="47.27489" lon="-1.67099">
        <ele>113</ele>
        <time>2021-08-14T07:18:48.000Z</time>
      </trkpt>
      <trkpt lat="47.27498" lon="-1.67092">
        <ele>113</ele>
        <time>2021-08-14T07:18:50.000Z</time>
      </trkpt>
      <trkpt lat="47.27508" lon="-1.67084">
        <ele>113</ele>
        <time>2021-08-14T07:18:52.000Z</time>
      </trkpt>
      <trkpt lat="47.27516" lon="-1.67076">
        <ele>113</ele>
        <time>2021-08-14T07:18:54.000Z</time>
      </trkpt>
      <trkpt lat="47.27525" lon="-1.67078">
        <ele>113</ele>
        <time>2021-08-14T07:18:56.000Z</time>
      </trkpt>
      <trkpt lat="47.27531" lon="-1.67091">
        <ele>113</ele>
        <time>2021-08-14T07:18:58.000Z</time>
      </trkpt>
      <trkpt lat="47.27535" lon="-1.67108">
        <ele>114</ele>
        <time>2021-08-14T07:19:00.000Z</time>
      </trkpt>
      <trkpt lat="47.27537" lon="-1.67124">
        <ele>114</ele>
        <time>2021-08-14T07:19:02.000Z</time>
      </trkpt>
      <trkpt lat="47.2754" lon="-1.67139">
        <ele>114</ele>
        <time>2021-08-14T07:19:04.000Z</time>
      </trkpt>
      <trkpt lat="47.27543" lon="-1.67155">
        <ele>114</ele>
        <time>2021-08-14T07:19:06.000Z</time>
      </trkpt>
      <trkpt lat="47.27545" lon="-1.6717">
        <ele>115</ele>
        <time>2021-08-14T07:19:08.000Z</time>
      </trkpt>
      <trkpt lat="47.27549" lon="-1.67185">
        <ele>115</ele>
        <time>2021-08-14T07:19:10.000Z</time>
      </trkpt>
      <trkpt lat="47.27551" lon="-1.672">
        <ele>116</ele>
        <time>2021-08-14T07:19:12.000Z</time>
      </trkpt>
      <trkpt lat="47.27554" lon="-1.67215">
        <ele>116</ele>
        <time>2021-08-14T07:19:14.000Z</time>
      </trkpt>
      <trkpt lat="47.27557" lon="-1.6723">
        <ele>116</ele>
        <time>2021-08-14T07:19:16.000Z</time>
      </trkpt>
      <trkpt lat="47.2756" lon="-1.67246">
        <ele>117</ele>
        <time>2021-08-14T07:19:18.000Z</time>
      </trkpt>
      <trkpt lat="47.27563" lon="-1.67262">
        <ele>117</ele>
        <time>2021-08-14T07:19:20.000Z</time>
      </trkpt>
      <trkpt lat="47.27568" lon="-1.67276">
        <ele>117</ele>
        <time>2021-08-14T07:19:22.000Z</time>
      </trkpt>
      <trkpt lat="47.27574" lon="-1.67291">
        <ele>117</ele>
        <time>2021-08-14T07:19:24.000Z</time>
      </trkpt>
      <trkpt lat="47.27581" lon="-1.67304">
        <ele>117</ele>
        <time>2021-08-14T07:19:26.000Z</time>
      </trkpt>
      <trkpt lat="47.2759" lon="-1.67317">
        <ele>117</ele>
        <time>2021-08-14T07:19:28.000Z</time>
      </trkpt>
      <trkpt lat="47.27598" lon="-1.6733">
        <ele>118</ele>
        <time>2021-08-14T07:19:30.000Z</time>
      </trkpt>
      <trkpt lat="47.27607" lon="-1.67342">
        <ele>118</ele>
        <time>2021-08-14T07:19:32.000Z</time>
      </trkpt>
      <trkpt lat="47.27616" lon="-1.67355">
        <ele>118</ele>
        <time>2021-08-14T07:19:34.000Z</time>
      </trkpt>
      <trkpt lat="47.27625" lon="-1.67368">
        <ele>117</ele>
        <time>2021-08-14T07:19:36.000Z</time>
      </trkpt>
      <trkpt lat="47.27636" lon="-1.6738">
        <ele>117</ele>
        <time>2021-08-14T07:19:38.000Z</time>
      </trkpt>
      <trkpt lat="47.27648" lon="-1.6739">
        <ele>117</ele>
        <time>2021-08-14T07:19:40.000Z</time>
      </trkpt>
      <trkpt lat="47.2766" lon="-1.67397">
        <ele>116</ele>
        <time>2021-08-14T07:19:42.000Z</time>
      </trkpt>
      <trkpt lat="47.27672" lon="-1.67403">
        <ele>116</ele>
        <time>2021-08-14T07:19:44.000Z</time>
      </trkpt>
      <trkpt lat="47.27685" lon="-1.67408">
        <ele>117</ele>
        <time>2021-08-14T07:19:46.000Z</time>
      </trkpt>
      <trkpt lat="47.27699" lon="-1.67411">
        <ele>118</ele>
        <time>2021-08-14T07:19:48.000Z</time>
      </trkpt>
      <trkpt lat="47.27713" lon="-1.67415">
        <ele>118</ele>
        <time>2021-08-14T07:19:50.000Z</time>
      </trkpt>
      <trkpt lat="47.27727" lon="-1.6742">
        <ele>118</ele>
        <time>2021-08-14T07:19:52.000Z</time>
      </trkpt>
      <trkpt lat="47.27741" lon="-1.67423">
        <ele>118</ele>
        <time>2021-08-14T07:19:54.000Z</time>
      </trkpt>
      <trkpt lat="47.27755" lon="-1.67426">
        <ele>118</ele>
        <time>2021-08-14T07:19:56.000Z</time>
      </trkpt>
      <trkpt lat="47.27769" lon="-1.67429">
        <ele>118</ele>
        <time>2021-08-14T07:19:58.000Z</time>
      </trkpt>
      <trkpt lat="47.27784" lon="-1.6743">
        <ele>118</ele>
        <time>2021-08-14T07:20:00.000Z</time>
      </trkpt>
      <trkpt lat="47.27799" lon="-1.6743">
        <ele>116</ele>
        <time>2021-08-14T07:20:02.000Z</time>
      </trkpt>
      <trkpt lat="47.27815" lon="-1.6743">
        <ele>115</ele>
        <time>2021-08-14T07:20:04.000Z</time>
      </trkpt>
      <trkpt lat="47.27831" lon="-1.6743">
        <ele>113</ele>
        <time>2021-08-14T07:20:06.000Z</time>
      </trkpt>
      <trkpt lat="47.27847" lon="-1.67429">
        <ele>112</ele>
        <time>2021-08-14T07:20:08.000Z</time>
      </trkpt>
      <trkpt lat="47.27862" lon="-1.67429">
        <ele>112</ele>
        <time>2021-08-14T07:20:10.000Z</time>
      </trkpt>
      <trkpt lat="47.27878" lon="-1.67429">
        <ele>111</ele>
        <time>2021-08-14T07:20:12.000Z</time>
      </trkpt>
      <trkpt lat="47.27894" lon="-1.67428">
        <ele>111</ele>
        <time>2021-08-14T07:20:14.000Z</time>
      </trkpt>
      <trkpt lat="47.27909" lon="-1.6743">
        <ele>111</ele>
        <time>2021-08-14T07:20:16.000Z</time>
      </trkpt>
      <trkpt lat="47.27924" lon="-1.67434">
        <ele>111</ele>
        <time>2021-08-14T07:20:18.000Z</time>
      </trkpt>
      <trkpt lat="47.27939" lon="-1.67438">
        <ele>110</ele>
        <time>2021-08-14T07:20:20.000Z</time>
      </trkpt>
      <trkpt lat="47.27954" lon="-1.67443">
        <ele>109</ele>
        <time>2021-08-14T07:20:22.000Z</time>
      </trkpt>
      <trkpt lat="47.27968" lon="-1.6745">
        <ele>109</ele>
        <time>2021-08-14T07:20:24.000Z</time>
      </trkpt>
      <trkpt lat="47.27983" lon="-1.67457">
        <ele>109</ele>
        <time>2021-08-14T07:20:26.000Z</time>
      </trkpt>
      <trkpt lat="47.27997" lon="-1.67465">
        <ele>109</ele>
        <time>2021-08-14T07:20:28.000Z</time>
      </trkpt>
      <trkpt lat="47.2801" lon="-1.67473">
        <ele>109</ele>
        <time>2021-08-14T07:20:30.000Z</time>
      </trkpt>
      <trkpt lat="47.28023" lon="-1.6748">
        <ele>110</ele>
        <time>2021-08-14T07:20:32.000Z</time>
      </trkpt>
      <trkpt lat="47.28037" lon="-1.67487">
        <ele>110</ele>
        <time>2021-08-14T07:20:34.000Z</time>
      </trkpt>
      <trkpt lat="47.28049" lon="-1.67494">
        <ele>110</ele>
        <time>2021-08-14T07:20:36.000Z</time>
      </trkpt>
      <trkpt lat="47.28062" lon="-1.67501">
        <ele>110</ele>
        <time>2021-08-14T07:20:38.000Z</time>
      </trkpt>
      <trkpt lat="47.28074" lon="-1.67509">
        <ele>110</ele>
        <time>2021-08-14T07:20:40.000Z</time>
      </trkpt>
      <trkpt lat="47.28086" lon="-1.67516">
        <ele>110</ele>
        <time>2021-08-14T07:20:42.000Z</time>
      </trkpt>
      <trkpt lat="47.28098" lon="-1.67524">
        <ele>110</ele>
        <time>2021-08-14T07:20:44.000Z</time>
      </trkpt>
      <trkpt lat="47.28111" lon="-1.67531">
        <ele>111</ele>
        <time>2021-08-14T07:20:46.000Z</time>
      </trkpt>
      <trkpt lat="47.28124" lon="-1.67538">
        <ele>111</ele>
        <time>2021-08-14T07:20:48.000Z</time>
      </trkpt>
      <trkpt lat="47.28136" lon="-1.67546">
        <ele>111</ele>
        <time>2021-08-14T07:20:50.000Z</time>
      </trkpt>
      <trkpt lat="47.28148" lon="-1.67552">
        <ele>111</ele>
        <time>2021-08-14T07:20:52.000Z</time>
      </trkpt>
      <trkpt lat="47.2816" lon="-1.67559">
        <ele>111</ele>
        <time>2021-08-14T07:20:54.000Z</time>
      </trkpt>
      <trkpt lat="47.28172" lon="-1.67565">
        <ele>111</ele>
        <time>2021-08-14T07:20:56.000Z</time>
      </trkpt>
      <trkpt lat="47.28184" lon="-1.67573">
        <ele>111</ele>
        <time>2021-08-14T07:20:58.000Z</time>
      </trkpt>
      <trkpt lat="47.28196" lon="-1.6758">
        <ele>112</ele>
        <time>2021-08-14T07:21:00.000Z</time>
      </trkpt>
      <trkpt lat="47.28208" lon="-1.67587">
        <ele>112</ele>
        <time>2021-08-14T07:21:02.000Z</time>
      </trkpt>
      <trkpt lat="47.2822" lon="-1.67594">
        <ele>113</ele>
        <time>2021-08-14T07:21:04.000Z</time>
      </trkpt>
      <trkpt lat="47.28231" lon="-1.67602">
        <ele>113</ele>
        <time>2021-08-14T07:21:06.000Z</time>
      </trkpt>
      <trkpt lat="47.28244" lon="-1.67608">
        <ele>113</ele>
        <time>2021-08-14T07:21:08.000Z</time>
      </trkpt>
      <trkpt lat="47.28257" lon="-1.67614">
        <ele>113</ele>
        <time>2021-08-14T07:21:10.000Z</time>
      </trkpt>
      <trkpt lat="47.28271" lon="-1.67616">
        <ele>112</ele>
        <time>2021-08-14T07:21:12.000Z</time>
      </trkpt>
      <trkpt lat="47.28285" lon="-1.67618">
        <ele>112</ele>
        <time>2021-08-14T07:21:14.000Z</time>
      </trkpt>
      <trkpt lat="47.283" lon="-1.67617">
        <ele>113</ele>
        <time>2021-08-14T07:21:16.000Z</time>
      </trkpt>
      <trkpt lat="47.28314" lon="-1.67614">
        <ele>113</ele>
        <time>2021-08-14T07:21:18.000Z</time>
      </trkpt>
      <trkpt lat="47.28328" lon="-1.67612">
        <ele>112</ele>
        <time>2021-08-14T07:21:20.000Z</time>
      </trkpt>
      <trkpt lat="47.28343" lon="-1.67608">
        <ele>112</ele>
        <time>2021-08-14T07:21:22.000Z</time>
      </trkpt>
      <trkpt lat="47.28364" lon="-1.67605">
        <ele>111</ele>
        <time>2021-08-14T07:21:25.000Z</time>
      </trkpt>
      <trkpt lat="47.28379" lon="-1.67603">
        <ele>111</ele>
        <time>2021-08-14T07:21:27.000Z</time>
      </trkpt>
      <trkpt lat="47.28393" lon="-1.67601">
        <ele>110</ele>
        <time>2021-08-14T07:21:29.000Z</time>
      </trkpt>
      <trkpt lat="47.28408" lon="-1.67598">
        <ele>110</ele>
        <time>2021-08-14T07:21:31.000Z</time>
      </trkpt>
      <trkpt lat="47.28423" lon="-1.67598">
        <ele>109</ele>
        <time>2021-08-14T07:21:33.000Z</time>
      </trkpt>
      <trkpt lat="47.28437" lon="-1.67597">
        <ele>109</ele>
        <time>2021-08-14T07:21:35.000Z</time>
      </trkpt>
      <trkpt lat="47.28451" lon="-1.676">
        <ele>110</ele>
        <time>2021-08-14T07:21:37.000Z</time>
      </trkpt>
      <trkpt lat="47.28465" lon="-1.67604">
        <ele>111</ele>
        <time>2021-08-14T07:21:39.000Z</time>
      </trkpt>
      <trkpt lat="47.28485" lon="-1.67612">
        <ele>110</ele>
        <time>2021-08-14T07:21:42.000Z</time>
      </trkpt>
      <trkpt lat="47.28499" lon="-1.67616">
        <ele>110</ele>
        <time>2021-08-14T07:21:44.000Z</time>
      </trkpt>
      <trkpt lat="47.28513" lon="-1.6762">
        <ele>110</ele>
        <time>2021-08-14T07:21:46.000Z</time>
      </trkpt>
      <trkpt lat="47.28526" lon="-1.6762">
        <ele>111</ele>
        <time>2021-08-14T07:21:48.000Z</time>
      </trkpt>
      <trkpt lat="47.28545" lon="-1.67616">
        <ele>111</ele>
        <time>2021-08-14T07:21:51.000Z</time>
      </trkpt>
      <trkpt lat="47.28559" lon="-1.67609">
        <ele>110</ele>
        <time>2021-08-14T07:21:53.000Z</time>
      </trkpt>
      <trkpt lat="47.28572" lon="-1.67602">
        <ele>110</ele>
        <time>2021-08-14T07:21:55.000Z</time>
      </trkpt>
      <trkpt lat="47.28586" lon="-1.67594">
        <ele>109</ele>
        <time>2021-08-14T07:21:57.000Z</time>
      </trkpt>
      <trkpt lat="47.286" lon="-1.67587">
        <ele>109</ele>
        <time>2021-08-14T07:21:59.000Z</time>
      </trkpt>
      <trkpt lat="47.28613" lon="-1.67581">
        <ele>110</ele>
        <time>2021-08-14T07:22:01.000Z</time>
      </trkpt>
      <trkpt lat="47.28628" lon="-1.67576">
        <ele>110</ele>
        <time>2021-08-14T07:22:03.000Z</time>
      </trkpt>
      <trkpt lat="47.28642" lon="-1.67574">
        <ele>109</ele>
        <time>2021-08-14T07:22:05.000Z</time>
      </trkpt>
      <trkpt lat="47.28657" lon="-1.67577">
        <ele>109</ele>
        <time>2021-08-14T07:22:07.000Z</time>
      </trkpt>
      <trkpt lat="47.28671" lon="-1.67584">
        <ele>108</ele>
        <time>2021-08-14T07:22:09.000Z</time>
      </trkpt>
      <trkpt lat="47.28686" lon="-1.67593">
        <ele>107</ele>
        <time>2021-08-14T07:22:11.000Z</time>
      </trkpt>
      <trkpt lat="47.287" lon="-1.67602">
        <ele>107</ele>
        <time>2021-08-14T07:22:13.000Z</time>
      </trkpt>
      <trkpt lat="47.28713" lon="-1.67612">
        <ele>106</ele>
        <time>2021-08-14T07:22:15.000Z</time>
      </trkpt>
      <trkpt lat="47.28726" lon="-1.6762">
        <ele>106</ele>
        <time>2021-08-14T07:22:17.000Z</time>
      </trkpt>
      <trkpt lat="47.28737" lon="-1.67628">
        <ele>106</ele>
        <time>2021-08-14T07:22:19.000Z</time>
      </trkpt>
      <trkpt lat="47.28747" lon="-1.67631">
        <ele>107</ele>
        <time>2021-08-14T07:22:21.000Z</time>
      </trkpt>
      <trkpt lat="47.28754" lon="-1.6762">
        <ele>106</ele>
        <time>2021-08-14T07:22:23.000Z</time>
      </trkpt>
      <trkpt lat="47.28757" lon="-1.67602">
        <ele>106</ele>
        <time>2021-08-14T07:22:25.000Z</time>
      </trkpt>
      <trkpt lat="47.28762" lon="-1.67585">
        <ele>106</ele>
        <time>2021-08-14T07:22:27.000Z</time>
      </trkpt>
      <trkpt lat="47.28766" lon="-1.67566">
        <ele>106</ele>
        <time>2021-08-14T07:22:29.000Z</time>
      </trkpt>
      <trkpt lat="47.28771" lon="-1.67548">
        <ele>106</ele>
        <time>2021-08-14T07:22:31.000Z</time>
      </trkpt>
      <trkpt lat="47.28775" lon="-1.67529">
        <ele>106</ele>
        <time>2021-08-14T07:22:33.000Z</time>
      </trkpt>
      <trkpt lat="47.28779" lon="-1.67511">
        <ele>106</ele>
        <time>2021-08-14T07:22:35.000Z</time>
      </trkpt>
      <trkpt lat="47.28785" lon="-1.67491">
        <ele>107</ele>
        <time>2021-08-14T07:22:37.000Z</time>
      </trkpt>
      <trkpt lat="47.2879" lon="-1.67473">
        <ele>107</ele>
        <time>2021-08-14T07:22:39.000Z</time>
      </trkpt>
      <trkpt lat="47.28795" lon="-1.67456">
        <ele>108</ele>
        <time>2021-08-14T07:22:41.000Z</time>
      </trkpt>
      <trkpt lat="47.28801" lon="-1.67439">
        <ele>108</ele>
        <time>2021-08-14T07:22:43.000Z</time>
      </trkpt>
      <trkpt lat="47.28807" lon="-1.67421">
        <ele>109</ele>
        <time>2021-08-14T07:22:45.000Z</time>
      </trkpt>
      <trkpt lat="47.28813" lon="-1.67404">
        <ele>109</ele>
        <time>2021-08-14T07:22:47.000Z</time>
      </trkpt>
      <trkpt lat="47.28818" lon="-1.67387">
        <ele>109</ele>
        <time>2021-08-14T07:22:49.000Z</time>
      </trkpt>
      <trkpt lat="47.28825" lon="-1.67371">
        <ele>109</ele>
        <time>2021-08-14T07:22:51.000Z</time>
      </trkpt>
      <trkpt lat="47.28832" lon="-1.67357">
        <ele>109</ele>
        <time>2021-08-14T07:22:53.000Z</time>
      </trkpt>
      <trkpt lat="47.28841" lon="-1.67345">
        <ele>110</ele>
        <time>2021-08-14T07:22:55.000Z</time>
      </trkpt>
      <trkpt lat="47.28852" lon="-1.67338">
        <ele>110</ele>
        <time>2021-08-14T07:22:57.000Z</time>
      </trkpt>
      <trkpt lat="47.28864" lon="-1.67335">
        <ele>111</ele>
        <time>2021-08-14T07:22:59.000Z</time>
      </trkpt>
      <trkpt lat="47.28876" lon="-1.67334">
        <ele>111</ele>
        <time>2021-08-14T07:23:01.000Z</time>
      </trkpt>
      <trkpt lat="47.28889" lon="-1.67332">
        <ele>112</ele>
        <time>2021-08-14T07:23:03.000Z</time>
      </trkpt>
      <trkpt lat="47.28901" lon="-1.6733">
        <ele>112</ele>
        <time>2021-08-14T07:23:05.000Z</time>
      </trkpt>
      <trkpt lat="47.28913" lon="-1.6733">
        <ele>112</ele>
        <time>2021-08-14T07:23:07.000Z</time>
      </trkpt>
      <trkpt lat="47.28925" lon="-1.67332">
        <ele>112</ele>
        <time>2021-08-14T07:23:09.000Z</time>
      </trkpt>
      <trkpt lat="47.28937" lon="-1.67337">
        <ele>112</ele>
        <time>2021-08-14T07:23:11.000Z</time>
      </trkpt>
      <trkpt lat="47.2895" lon="-1.67343">
        <ele>112</ele>
        <time>2021-08-14T07:23:13.000Z</time>
      </trkpt>
      <trkpt lat="47.28962" lon="-1.67349">
        <ele>112</ele>
        <time>2021-08-14T07:23:15.000Z</time>
      </trkpt>
      <trkpt lat="47.28974" lon="-1.67354">
        <ele>112</ele>
        <time>2021-08-14T07:23:17.000Z</time>
      </trkpt>
      <trkpt lat="47.28986" lon="-1.67356">
        <ele>113</ele>
        <time>2021-08-14T07:23:19.000Z</time>
      </trkpt>
      <trkpt lat="47.28999" lon="-1.67355">
        <ele>113</ele>
        <time>2021-08-14T07:23:21.000Z</time>
      </trkpt>
      <trkpt lat="47.29011" lon="-1.67352">
        <ele>113</ele>
        <time>2021-08-14T07:23:23.000Z</time>
      </trkpt>
      <trkpt lat="47.29023" lon="-1.67348">
        <ele>113</ele>
        <time>2021-08-14T07:23:25.000Z</time>
      </trkpt>
      <trkpt lat="47.29036" lon="-1.67344">
        <ele>113</ele>
        <time>2021-08-14T07:23:27.000Z</time>
      </trkpt>
      <trkpt lat="47.29048" lon="-1.67339">
        <ele>113</ele>
        <time>2021-08-14T07:23:29.000Z</time>
      </trkpt>
      <trkpt lat="47.2906" lon="-1.67335">
        <ele>113</ele>
        <time>2021-08-14T07:23:31.000Z</time>
      </trkpt>
      <trkpt lat="47.29072" lon="-1.6733">
        <ele>113</ele>
        <time>2021-08-14T07:23:33.000Z</time>
      </trkpt>
      <trkpt lat="47.29084" lon="-1.67325">
        <ele>114</ele>
        <time>2021-08-14T07:23:35.000Z</time>
      </trkpt>
      <trkpt lat="47.29096" lon="-1.67322">
        <ele>114</ele>
        <time>2021-08-14T07:23:37.000Z</time>
      </trkpt>
      <trkpt lat="47.29107" lon="-1.67318">
        <ele>115</ele>
        <time>2021-08-14T07:23:39.000Z</time>
      </trkpt>
      <trkpt lat="47.29118" lon="-1.67314">
        <ele>115</ele>
        <time>2021-08-14T07:23:41.000Z</time>
      </trkpt>
      <trkpt lat="47.2913" lon="-1.67311">
        <ele>115</ele>
        <time>2021-08-14T07:23:43.000Z</time>
      </trkpt>
      <trkpt lat="47.29142" lon="-1.67311">
        <ele>116</ele>
        <time>2021-08-14T07:23:45.000Z</time>
      </trkpt>
      <trkpt lat="47.29154" lon="-1.67313">
        <ele>117</ele>
        <time>2021-08-14T07:23:47.000Z</time>
      </trkpt>
      <trkpt lat="47.29165" lon="-1.67316">
        <ele>118</ele>
        <time>2021-08-14T07:23:49.000Z</time>
      </trkpt>
      <trkpt lat="47.29177" lon="-1.67319">
        <ele>119</ele>
        <time>2021-08-14T07:23:51.000Z</time>
      </trkpt>
      <trkpt lat="47.29189" lon="-1.67323">
        <ele>119</ele>
        <time>2021-08-14T07:23:53.000Z</time>
      </trkpt>
      <trkpt lat="47.292" lon="-1.67326">
        <ele>120</ele>
        <time>2021-08-14T07:23:55.000Z</time>
      </trkpt>
      <trkpt lat="47.29213" lon="-1.67327">
        <ele>120</ele>
        <time>2021-08-14T07:23:57.000Z</time>
      </trkpt>
      <trkpt lat="47.29225" lon="-1.67326">
        <ele>121</ele>
        <time>2021-08-14T07:23:59.000Z</time>
      </trkpt>
      <trkpt lat="47.29238" lon="-1.67326">
        <ele>121</ele>
        <time>2021-08-14T07:24:01.000Z</time>
      </trkpt>
      <trkpt lat="47.29251" lon="-1.67324">
        <ele>121</ele>
        <time>2021-08-14T07:24:03.000Z</time>
      </trkpt>
      <trkpt lat="47.29263" lon="-1.67321">
        <ele>120</ele>
        <time>2021-08-14T07:24:05.000Z</time>
      </trkpt>
      <trkpt lat="47.29275" lon="-1.67313">
        <ele>120</ele>
        <time>2021-08-14T07:24:07.000Z</time>
      </trkpt>
      <trkpt lat="47.29285" lon="-1.67301">
        <ele>120</ele>
        <time>2021-08-14T07:24:09.000Z</time>
      </trkpt>
      <trkpt lat="47.29293" lon="-1.67288">
        <ele>119</ele>
        <time>2021-08-14T07:24:11.000Z</time>
      </trkpt>
      <trkpt lat="47.293" lon="-1.67273">
        <ele>119</ele>
        <time>2021-08-14T07:24:13.000Z</time>
      </trkpt>
      <trkpt lat="47.29308" lon="-1.67258">
        <ele>119</ele>
        <time>2021-08-14T07:24:15.000Z</time>
      </trkpt>
      <trkpt lat="47.29315" lon="-1.67243">
        <ele>120</ele>
        <time>2021-08-14T07:24:17.000Z</time>
      </trkpt>
      <trkpt lat="47.29323" lon="-1.67228">
        <ele>120</ele>
        <time>2021-08-14T07:24:19.000Z</time>
      </trkpt>
      <trkpt lat="47.2933" lon="-1.67213">
        <ele>120</ele>
        <time>2021-08-14T07:24:21.000Z</time>
      </trkpt>
      <trkpt lat="47.29337" lon="-1.67198">
        <ele>120</ele>
        <time>2021-08-14T07:24:23.000Z</time>
      </trkpt>
      <trkpt lat="47.29344" lon="-1.67184">
        <ele>120</ele>
        <time>2021-08-14T07:24:25.000Z</time>
      </trkpt>
      <trkpt lat="47.29352" lon="-1.6717">
        <ele>120</ele>
        <time>2021-08-14T07:24:27.000Z</time>
      </trkpt>
      <trkpt lat="47.2936" lon="-1.67154">
        <ele>120</ele>
        <time>2021-08-14T07:24:29.000Z</time>
      </trkpt>
      <trkpt lat="47.29367" lon="-1.67139">
        <ele>120</ele>
        <time>2021-08-14T07:24:31.000Z</time>
      </trkpt>
      <trkpt lat="47.29375" lon="-1.67123">
        <ele>120</ele>
        <time>2021-08-14T07:24:33.000Z</time>
      </trkpt>
      <trkpt lat="47.29382" lon="-1.67108">
        <ele>120</ele>
        <time>2021-08-14T07:24:35.000Z</time>
      </trkpt>
      <trkpt lat="47.29389" lon="-1.67093">
        <ele>121</ele>
        <time>2021-08-14T07:24:37.000Z</time>
      </trkpt>
      <trkpt lat="47.29397" lon="-1.67078">
        <ele>121</ele>
        <time>2021-08-14T07:24:39.000Z</time>
      </trkpt>
      <trkpt lat="47.29405" lon="-1.67063">
        <ele>121</ele>
        <time>2021-08-14T07:24:41.000Z</time>
      </trkpt>
      <trkpt lat="47.29412" lon="-1.67047">
        <ele>121</ele>
        <time>2021-08-14T07:24:43.000Z</time>
      </trkpt>
      <trkpt lat="47.29419" lon="-1.67032">
        <ele>121</ele>
        <time>2021-08-14T07:24:45.000Z</time>
      </trkpt>
      <trkpt lat="47.29427" lon="-1.67017">
        <ele>121</ele>
        <time>2021-08-14T07:24:47.000Z</time>
      </trkpt>
      <trkpt lat="47.29435" lon="-1.67003">
        <ele>121</ele>
        <time>2021-08-14T07:24:49.000Z</time>
      </trkpt>
      <trkpt lat="47.29444" lon="-1.6699">
        <ele>122</ele>
        <time>2021-08-14T07:24:51.000Z</time>
      </trkpt>
      <trkpt lat="47.29455" lon="-1.66979">
        <ele>122</ele>
        <time>2021-08-14T07:24:53.000Z</time>
      </trkpt>
      <trkpt lat="47.29466" lon="-1.6697">
        <ele>122</ele>
        <time>2021-08-14T07:24:55.000Z</time>
      </trkpt>
      <trkpt lat="47.29477" lon="-1.66963">
        <ele>123</ele>
        <time>2021-08-14T07:24:57.000Z</time>
      </trkpt>
      <trkpt lat="47.2949" lon="-1.66957">
        <ele>123</ele>
        <time>2021-08-14T07:24:59.000Z</time>
      </trkpt>
      <trkpt lat="47.29501" lon="-1.6695">
        <ele>123</ele>
        <time>2021-08-14T07:25:01.000Z</time>
      </trkpt>
      <trkpt lat="47.29514" lon="-1.66943">
        <ele>123</ele>
        <time>2021-08-14T07:25:03.000Z</time>
      </trkpt>
      <trkpt lat="47.29526" lon="-1.66935">
        <ele>123</ele>
        <time>2021-08-14T07:25:05.000Z</time>
      </trkpt>
      <trkpt lat="47.29539" lon="-1.66927">
        <ele>123</ele>
        <time>2021-08-14T07:25:07.000Z</time>
      </trkpt>
      <trkpt lat="47.29552" lon="-1.66921">
        <ele>122</ele>
        <time>2021-08-14T07:25:09.000Z</time>
      </trkpt>
      <trkpt lat="47.29564" lon="-1.66914">
        <ele>122</ele>
        <time>2021-08-14T07:25:11.000Z</time>
      </trkpt>
      <trkpt lat="47.29577" lon="-1.66907">
        <ele>122</ele>
        <time>2021-08-14T07:25:13.000Z</time>
      </trkpt>
      <trkpt lat="47.29591" lon="-1.66899">
        <ele>121</ele>
        <time>2021-08-14T07:25:15.000Z</time>
      </trkpt>
      <trkpt lat="47.29606" lon="-1.66892">
        <ele>121</ele>
        <time>2021-08-14T07:25:17.000Z</time>
      </trkpt>
      <trkpt lat="47.2962" lon="-1.66884">
        <ele>119</ele>
        <time>2021-08-14T07:25:19.000Z</time>
      </trkpt>
      <trkpt lat="47.29634" lon="-1.66876">
        <ele>119</ele>
        <time>2021-08-14T07:25:21.000Z</time>
      </trkpt>
      <trkpt lat="47.29648" lon="-1.66866">
        <ele>118</ele>
        <time>2021-08-14T07:25:23.000Z</time>
      </trkpt>
      <trkpt lat="47.2966" lon="-1.66853">
        <ele>118</ele>
        <time>2021-08-14T07:25:25.000Z</time>
      </trkpt>
      <trkpt lat="47.29671" lon="-1.66838">
        <ele>118</ele>
        <time>2021-08-14T07:25:27.000Z</time>
      </trkpt>
      <trkpt lat="47.29681" lon="-1.66822">
        <ele>118</ele>
        <time>2021-08-14T07:25:29.000Z</time>
      </trkpt>
      <trkpt lat="47.2969" lon="-1.66805">
        <ele>118</ele>
        <time>2021-08-14T07:25:31.000Z</time>
      </trkpt>
      <trkpt lat="47.297" lon="-1.66789">
        <ele>118</ele>
        <time>2021-08-14T07:25:33.000Z</time>
      </trkpt>
      <trkpt lat="47.2971" lon="-1.66773">
        <ele>118</ele>
        <time>2021-08-14T07:25:35.000Z</time>
      </trkpt>
      <trkpt lat="47.29719" lon="-1.66758">
        <ele>118</ele>
        <time>2021-08-14T07:25:37.000Z</time>
      </trkpt>
      <trkpt lat="47.29729" lon="-1.66743">
        <ele>119</ele>
        <time>2021-08-14T07:25:39.000Z</time>
      </trkpt>
      <trkpt lat="47.29738" lon="-1.66727">
        <ele>118</ele>
        <time>2021-08-14T07:25:41.000Z</time>
      </trkpt>
      <trkpt lat="47.29748" lon="-1.66712">
        <ele>119</ele>
        <time>2021-08-14T07:25:43.000Z</time>
      </trkpt>
      <trkpt lat="47.29758" lon="-1.66698">
        <ele>119</ele>
        <time>2021-08-14T07:25:45.000Z</time>
      </trkpt>
      <trkpt lat="47.29768" lon="-1.66684">
        <ele>119</ele>
        <time>2021-08-14T07:25:47.000Z</time>
      </trkpt>
      <trkpt lat="47.29779" lon="-1.66672">
        <ele>119</ele>
        <time>2021-08-14T07:25:49.000Z</time>
      </trkpt>
      <trkpt lat="47.29789" lon="-1.66661">
        <ele>120</ele>
        <time>2021-08-14T07:25:51.000Z</time>
      </trkpt>
      <trkpt lat="47.29798" lon="-1.6665">
        <ele>121</ele>
        <time>2021-08-14T07:25:53.000Z</time>
      </trkpt>
      <trkpt lat="47.29808" lon="-1.66638">
        <ele>121</ele>
        <time>2021-08-14T07:25:55.000Z</time>
      </trkpt>
      <trkpt lat="47.2982" lon="-1.66627">
        <ele>122</ele>
        <time>2021-08-14T07:25:57.000Z</time>
      </trkpt>
      <trkpt lat="47.29832" lon="-1.66614">
        <ele>122</ele>
        <time>2021-08-14T07:25:59.000Z</time>
      </trkpt>
      <trkpt lat="47.29843" lon="-1.66603">
        <ele>121</ele>
        <time>2021-08-14T07:26:01.000Z</time>
      </trkpt>
      <trkpt lat="47.29854" lon="-1.6659">
        <ele>121</ele>
        <time>2021-08-14T07:26:03.000Z</time>
      </trkpt>
      <trkpt lat="47.29865" lon="-1.66575">
        <ele>120</ele>
        <time>2021-08-14T07:26:05.000Z</time>
      </trkpt>
      <trkpt lat="47.29874" lon="-1.66561">
        <ele>120</ele>
        <time>2021-08-14T07:26:07.000Z</time>
      </trkpt>
      <trkpt lat="47.29882" lon="-1.66546">
        <ele>120</ele>
        <time>2021-08-14T07:26:09.000Z</time>
      </trkpt>
      <trkpt lat="47.29891" lon="-1.66532">
        <ele>120</ele>
        <time>2021-08-14T07:26:11.000Z</time>
      </trkpt>
      <trkpt lat="47.29899" lon="-1.66519">
        <ele>120</ele>
        <time>2021-08-14T07:26:13.000Z</time>
      </trkpt>
      <trkpt lat="47.29908" lon="-1.66505">
        <ele>119</ele>
        <time>2021-08-14T07:26:15.000Z</time>
      </trkpt>
      <trkpt lat="47.29916" lon="-1.66491">
        <ele>120</ele>
        <time>2021-08-14T07:26:17.000Z</time>
      </trkpt>
      <trkpt lat="47.29924" lon="-1.6648">
        <ele>119</ele>
        <time>2021-08-14T07:26:19.000Z</time>
      </trkpt>
      <trkpt lat="47.29931" lon="-1.66469">
        <ele>119</ele>
        <time>2021-08-14T07:26:21.000Z</time>
      </trkpt>
      <trkpt lat="47.29939" lon="-1.66456">
        <ele>117</ele>
        <time>2021-08-14T07:26:24.000Z</time>
      </trkpt>
      <trkpt lat="47.29947" lon="-1.66442">
        <ele>117</ele>
        <time>2021-08-14T07:26:29.000Z</time>
      </trkpt>
      <trkpt lat="47.29954" lon="-1.66433">
        <ele>117</ele>
        <time>2021-08-14T07:26:31.000Z</time>
      </trkpt>
      <trkpt lat="47.29963" lon="-1.6642">
        <ele>117</ele>
        <time>2021-08-14T07:26:33.000Z</time>
      </trkpt>
      <trkpt lat="47.29972" lon="-1.66407">
        <ele>116</ele>
        <time>2021-08-14T07:26:35.000Z</time>
      </trkpt>
      <trkpt lat="47.29981" lon="-1.66392">
        <ele>116</ele>
        <time>2021-08-14T07:26:37.000Z</time>
      </trkpt>
      <trkpt lat="47.29989" lon="-1.66378">
        <ele>116</ele>
        <time>2021-08-14T07:26:39.000Z</time>
      </trkpt>
      <trkpt lat="47.29999" lon="-1.66363">
        <ele>116</ele>
        <time>2021-08-14T07:26:41.000Z</time>
      </trkpt>
      <trkpt lat="47.30008" lon="-1.6635">
        <ele>116</ele>
        <time>2021-08-14T07:26:43.000Z</time>
      </trkpt>
      <trkpt lat="47.30017" lon="-1.66335">
        <ele>116</ele>
        <time>2021-08-14T07:26:45.000Z</time>
      </trkpt>
      <trkpt lat="47.30026" lon="-1.66321">
        <ele>117</ele>
        <time>2021-08-14T07:26:47.000Z</time>
      </trkpt>
      <trkpt lat="47.30035" lon="-1.66307">
        <ele>117</ele>
        <time>2021-08-14T07:26:49.000Z</time>
      </trkpt>
      <trkpt lat="47.30044" lon="-1.66291">
        <ele>116</ele>
        <time>2021-08-14T07:26:51.000Z</time>
      </trkpt>
      <trkpt lat="47.30054" lon="-1.66277">
        <ele>116</ele>
        <time>2021-08-14T07:26:53.000Z</time>
      </trkpt>
      <trkpt lat="47.30062" lon="-1.66262">
        <ele>117</ele>
        <time>2021-08-14T07:26:55.000Z</time>
      </trkpt>
      <trkpt lat="47.30071" lon="-1.66248">
        <ele>117</ele>
        <time>2021-08-14T07:26:57.000Z</time>
      </trkpt>
      <trkpt lat="47.30081" lon="-1.66234">
        <ele>116</ele>
        <time>2021-08-14T07:26:59.000Z</time>
      </trkpt>
      <trkpt lat="47.3009" lon="-1.66221">
        <ele>117</ele>
        <time>2021-08-14T07:27:01.000Z</time>
      </trkpt>
      <trkpt lat="47.30099" lon="-1.66208">
        <ele>117</ele>
        <time>2021-08-14T07:27:03.000Z</time>
      </trkpt>
      <trkpt lat="47.30108" lon="-1.66195">
        <ele>116</ele>
        <time>2021-08-14T07:27:05.000Z</time>
      </trkpt>
      <trkpt lat="47.30118" lon="-1.66182">
        <ele>116</ele>
        <time>2021-08-14T07:27:07.000Z</time>
      </trkpt>
      <trkpt lat="47.30129" lon="-1.66171">
        <ele>116</ele>
        <time>2021-08-14T07:27:09.000Z</time>
      </trkpt>
      <trkpt lat="47.30139" lon="-1.6616">
        <ele>117</ele>
        <time>2021-08-14T07:27:11.000Z</time>
      </trkpt>
      <trkpt lat="47.3015" lon="-1.66151">
        <ele>117</ele>
        <time>2021-08-14T07:27:13.000Z</time>
      </trkpt>
      <trkpt lat="47.3016" lon="-1.6614">
        <ele>118</ele>
        <time>2021-08-14T07:27:15.000Z</time>
      </trkpt>
      <trkpt lat="47.30169" lon="-1.6613">
        <ele>118</ele>
        <time>2021-08-14T07:27:17.000Z</time>
      </trkpt>
      <trkpt lat="47.3018" lon="-1.66119">
        <ele>118</ele>
        <time>2021-08-14T07:27:19.000Z</time>
      </trkpt>
      <trkpt lat="47.3019" lon="-1.66108">
        <ele>119</ele>
        <time>2021-08-14T07:27:21.000Z</time>
      </trkpt>
      <trkpt lat="47.302" lon="-1.66097">
        <ele>120</ele>
        <time>2021-08-14T07:27:23.000Z</time>
      </trkpt>
      <trkpt lat="47.30211" lon="-1.66086">
        <ele>120</ele>
        <time>2021-08-14T07:27:25.000Z</time>
      </trkpt>
      <trkpt lat="47.30222" lon="-1.66075">
        <ele>120</ele>
        <time>2021-08-14T07:27:27.000Z</time>
      </trkpt>
      <trkpt lat="47.30232" lon="-1.66065">
        <ele>120</ele>
        <time>2021-08-14T07:27:29.000Z</time>
      </trkpt>
      <trkpt lat="47.30242" lon="-1.66055">
        <ele>120</ele>
        <time>2021-08-14T07:27:31.000Z</time>
      </trkpt>
      <trkpt lat="47.30251" lon="-1.66044">
        <ele>120</ele>
        <time>2021-08-14T07:27:33.000Z</time>
      </trkpt>
      <trkpt lat="47.30262" lon="-1.66033">
        <ele>119</ele>
        <time>2021-08-14T07:27:35.000Z</time>
      </trkpt>
      <trkpt lat="47.30272" lon="-1.66023">
        <ele>118</ele>
        <time>2021-08-14T07:27:37.000Z</time>
      </trkpt>
      <trkpt lat="47.30282" lon="-1.66012">
        <ele>119</ele>
        <time>2021-08-14T07:27:39.000Z</time>
      </trkpt>
      <trkpt lat="47.30292" lon="-1.66002">
        <ele>119</ele>
        <time>2021-08-14T07:27:41.000Z</time>
      </trkpt>
      <trkpt lat="47.30303" lon="-1.65991">
        <ele>119</ele>
        <time>2021-08-14T07:27:43.000Z</time>
      </trkpt>
      <trkpt lat="47.30313" lon="-1.6598">
        <ele>119</ele>
        <time>2021-08-14T07:27:45.000Z</time>
      </trkpt>
      <trkpt lat="47.30324" lon="-1.65969">
        <ele>119</ele>
        <time>2021-08-14T07:27:47.000Z</time>
      </trkpt>
      <trkpt lat="47.30334" lon="-1.65958">
        <ele>119</ele>
        <time>2021-08-14T07:27:49.000Z</time>
      </trkpt>
      <trkpt lat="47.30344" lon="-1.65947">
        <ele>119</ele>
        <time>2021-08-14T07:27:51.000Z</time>
      </trkpt>
      <trkpt lat="47.30355" lon="-1.65937">
        <ele>118</ele>
        <time>2021-08-14T07:27:53.000Z</time>
      </trkpt>
      <trkpt lat="47.30365" lon="-1.65926">
        <ele>118</ele>
        <time>2021-08-14T07:27:55.000Z</time>
      </trkpt>
      <trkpt lat="47.30376" lon="-1.65915">
        <ele>118</ele>
        <time>2021-08-14T07:27:57.000Z</time>
      </trkpt>
      <trkpt lat="47.30387" lon="-1.65904">
        <ele>118</ele>
        <time>2021-08-14T07:27:59.000Z</time>
      </trkpt>
      <trkpt lat="47.30397" lon="-1.65894">
        <ele>118</ele>
        <time>2021-08-14T07:28:01.000Z</time>
      </trkpt>
      <trkpt lat="47.30408" lon="-1.65883">
        <ele>118</ele>
        <time>2021-08-14T07:28:03.000Z</time>
      </trkpt>
      <trkpt lat="47.30418" lon="-1.65873">
        <ele>117</ele>
        <time>2021-08-14T07:28:05.000Z</time>
      </trkpt>
      <trkpt lat="47.30428" lon="-1.65862">
        <ele>117</ele>
        <time>2021-08-14T07:28:07.000Z</time>
      </trkpt>
      <trkpt lat="47.30438" lon="-1.65853">
        <ele>118</ele>
        <time>2021-08-14T07:28:09.000Z</time>
      </trkpt>
      <trkpt lat="47.30449" lon="-1.65842">
        <ele>117</ele>
        <time>2021-08-14T07:28:11.000Z</time>
      </trkpt>
      <trkpt lat="47.30459" lon="-1.65831">
        <ele>117</ele>
        <time>2021-08-14T07:28:13.000Z</time>
      </trkpt>
      <trkpt lat="47.30469" lon="-1.6582">
        <ele>117</ele>
        <time>2021-08-14T07:28:15.000Z</time>
      </trkpt>
      <trkpt lat="47.30479" lon="-1.65809">
        <ele>117</ele>
        <time>2021-08-14T07:28:17.000Z</time>
      </trkpt>
      <trkpt lat="47.30489" lon="-1.65798">
        <ele>117</ele>
        <time>2021-08-14T07:28:19.000Z</time>
      </trkpt>
      <trkpt lat="47.305" lon="-1.65787">
        <ele>117</ele>
        <time>2021-08-14T07:28:21.000Z</time>
      </trkpt>
      <trkpt lat="47.3051" lon="-1.65777">
        <ele>117</ele>
        <time>2021-08-14T07:28:23.000Z</time>
      </trkpt>
      <trkpt lat="47.3052" lon="-1.65766">
        <ele>117</ele>
        <time>2021-08-14T07:28:25.000Z</time>
      </trkpt>
      <trkpt lat="47.3053" lon="-1.65755">
        <ele>117</ele>
        <time>2021-08-14T07:28:27.000Z</time>
      </trkpt>
      <trkpt lat="47.3054" lon="-1.65745">
        <ele>117</ele>
        <time>2021-08-14T07:28:29.000Z</time>
      </trkpt>
      <trkpt lat="47.3055" lon="-1.65734">
        <ele>117</ele>
        <time>2021-08-14T07:28:31.000Z</time>
      </trkpt>
      <trkpt lat="47.3056" lon="-1.65723">
        <ele>117</ele>
        <time>2021-08-14T07:28:33.000Z</time>
      </trkpt>
      <trkpt lat="47.3057" lon="-1.65713">
        <ele>118</ele>
        <time>2021-08-14T07:28:35.000Z</time>
      </trkpt>
      <trkpt lat="47.3058" lon="-1.65703">
        <ele>118</ele>
        <time>2021-08-14T07:28:37.000Z</time>
      </trkpt>
      <trkpt lat="47.3059" lon="-1.65693">
        <ele>118</ele>
        <time>2021-08-14T07:28:39.000Z</time>
      </trkpt>
      <trkpt lat="47.30601" lon="-1.65682">
        <ele>118</ele>
        <time>2021-08-14T07:28:41.000Z</time>
      </trkpt>
      <trkpt lat="47.30611" lon="-1.65671">
        <ele>118</ele>
        <time>2021-08-14T07:28:43.000Z</time>
      </trkpt>
      <trkpt lat="47.30622" lon="-1.6566">
        <ele>118</ele>
        <time>2021-08-14T07:28:45.000Z</time>
      </trkpt>
      <trkpt lat="47.30632" lon="-1.6565">
        <ele>118</ele>
        <time>2021-08-14T07:28:47.000Z</time>
      </trkpt>
      <trkpt lat="47.30643" lon="-1.65639">
        <ele>118</ele>
        <time>2021-08-14T07:28:49.000Z</time>
      </trkpt>
      <trkpt lat="47.30653" lon="-1.65629">
        <ele>119</ele>
        <time>2021-08-14T07:28:51.000Z</time>
      </trkpt>
      <trkpt lat="47.30663" lon="-1.65618">
        <ele>119</ele>
        <time>2021-08-14T07:28:53.000Z</time>
      </trkpt>
      <trkpt lat="47.30673" lon="-1.65607">
        <ele>119</ele>
        <time>2021-08-14T07:28:55.000Z</time>
      </trkpt>
      <trkpt lat="47.30683" lon="-1.65596">
        <ele>120</ele>
        <time>2021-08-14T07:28:57.000Z</time>
      </trkpt>
      <trkpt lat="47.30694" lon="-1.65585">
        <ele>121</ele>
        <time>2021-08-14T07:28:59.000Z</time>
      </trkpt>
      <trkpt lat="47.30704" lon="-1.65573">
        <ele>121</ele>
        <time>2021-08-14T07:29:01.000Z</time>
      </trkpt>
      <trkpt lat="47.30714" lon="-1.65561">
        <ele>121</ele>
        <time>2021-08-14T07:29:03.000Z</time>
      </trkpt>
      <trkpt lat="47.30724" lon="-1.65549">
        <ele>121</ele>
        <time>2021-08-14T07:29:05.000Z</time>
      </trkpt>
      <trkpt lat="47.30733" lon="-1.65535">
        <ele>120</ele>
        <time>2021-08-14T07:29:07.000Z</time>
      </trkpt>
      <trkpt lat="47.3074" lon="-1.6552">
        <ele>120</ele>
        <time>2021-08-14T07:29:09.000Z</time>
      </trkpt>
      <trkpt lat="47.30746" lon="-1.65504">
        <ele>120</ele>
        <time>2021-08-14T07:29:11.000Z</time>
      </trkpt>
      <trkpt lat="47.30755" lon="-1.65488">
        <ele>120</ele>
        <time>2021-08-14T07:29:13.000Z</time>
      </trkpt>
      <trkpt lat="47.30763" lon="-1.65473">
        <ele>119</ele>
        <time>2021-08-14T07:29:15.000Z</time>
      </trkpt>
      <trkpt lat="47.30771" lon="-1.65459">
        <ele>119</ele>
        <time>2021-08-14T07:29:17.000Z</time>
      </trkpt>
      <trkpt lat="47.3078" lon="-1.65444">
        <ele>120</ele>
        <time>2021-08-14T07:29:19.000Z</time>
      </trkpt>
      <trkpt lat="47.30788" lon="-1.6543">
        <ele>119</ele>
        <time>2021-08-14T07:29:21.000Z</time>
      </trkpt>
      <trkpt lat="47.30796" lon="-1.65414">
        <ele>119</ele>
        <time>2021-08-14T07:29:23.000Z</time>
      </trkpt>
      <trkpt lat="47.30805" lon="-1.65399">
        <ele>119</ele>
        <time>2021-08-14T07:29:25.000Z</time>
      </trkpt>
      <trkpt lat="47.30814" lon="-1.65384">
        <ele>119</ele>
        <time>2021-08-14T07:29:27.000Z</time>
      </trkpt>
      <trkpt lat="47.30823" lon="-1.65369">
        <ele>119</ele>
        <time>2021-08-14T07:29:29.000Z</time>
      </trkpt>
      <trkpt lat="47.30832" lon="-1.65353">
        <ele>118</ele>
        <time>2021-08-14T07:29:31.000Z</time>
      </trkpt>
      <trkpt lat="47.30841" lon="-1.65338">
        <ele>118</ele>
        <time>2021-08-14T07:29:33.000Z</time>
      </trkpt>
      <trkpt lat="47.3085" lon="-1.65321">
        <ele>118</ele>
        <time>2021-08-14T07:29:35.000Z</time>
      </trkpt>
      <trkpt lat="47.30859" lon="-1.65304">
        <ele>117</ele>
        <time>2021-08-14T07:29:37.000Z</time>
      </trkpt>
      <trkpt lat="47.30869" lon="-1.65287">
        <ele>117</ele>
        <time>2021-08-14T07:29:39.000Z</time>
      </trkpt>
      <trkpt lat="47.30878" lon="-1.6527">
        <ele>117</ele>
        <time>2021-08-14T07:29:41.000Z</time>
      </trkpt>
      <trkpt lat="47.30888" lon="-1.65253">
        <ele>117</ele>
        <time>2021-08-14T07:29:43.000Z</time>
      </trkpt>
      <trkpt lat="47.30897" lon="-1.65236">
        <ele>116</ele>
        <time>2021-08-14T07:29:45.000Z</time>
      </trkpt>
      <trkpt lat="47.30906" lon="-1.65219">
        <ele>116</ele>
        <time>2021-08-14T07:29:47.000Z</time>
      </trkpt>
      <trkpt lat="47.30916" lon="-1.65202">
        <ele>116</ele>
        <time>2021-08-14T07:29:49.000Z</time>
      </trkpt>
      <trkpt lat="47.30926" lon="-1.65185">
        <ele>115</ele>
        <time>2021-08-14T07:29:51.000Z</time>
      </trkpt>
      <trkpt lat="47.30935" lon="-1.65167">
        <ele>115</ele>
        <time>2021-08-14T07:29:53.000Z</time>
      </trkpt>
      <trkpt lat="47.30945" lon="-1.65149">
        <ele>115</ele>
        <time>2021-08-14T07:29:55.000Z</time>
      </trkpt>
      <trkpt lat="47.30955" lon="-1.65132">
        <ele>115</ele>
        <time>2021-08-14T07:29:57.000Z</time>
      </trkpt>
      <trkpt lat="47.30965" lon="-1.65115">
        <ele>115</ele>
        <time>2021-08-14T07:29:59.000Z</time>
      </trkpt>
      <trkpt lat="47.30975" lon="-1.65098">
        <ele>115</ele>
        <time>2021-08-14T07:30:01.000Z</time>
      </trkpt>
      <trkpt lat="47.30987" lon="-1.65085">
        <ele>116</ele>
        <time>2021-08-14T07:30:03.000Z</time>
      </trkpt>
      <trkpt lat="47.30999" lon="-1.65075">
        <ele>116</ele>
        <time>2021-08-14T07:30:05.000Z</time>
      </trkpt>
      <trkpt lat="47.31012" lon="-1.65067">
        <ele>116</ele>
        <time>2021-08-14T07:30:07.000Z</time>
      </trkpt>
      <trkpt lat="47.31026" lon="-1.6506">
        <ele>116</ele>
        <time>2021-08-14T07:30:09.000Z</time>
      </trkpt>
      <trkpt lat="47.3104" lon="-1.65054">
        <ele>116</ele>
        <time>2021-08-14T07:30:11.000Z</time>
      </trkpt>
      <trkpt lat="47.31054" lon="-1.65047">
        <ele>116</ele>
        <time>2021-08-14T07:30:13.000Z</time>
      </trkpt>
      <trkpt lat="47.31068" lon="-1.65042">
        <ele>116</ele>
        <time>2021-08-14T07:30:15.000Z</time>
      </trkpt>
      <trkpt lat="47.31082" lon="-1.65037">
        <ele>117</ele>
        <time>2021-08-14T07:30:17.000Z</time>
      </trkpt>
      <trkpt lat="47.31097" lon="-1.65033">
        <ele>116</ele>
        <time>2021-08-14T07:30:19.000Z</time>
      </trkpt>
      <trkpt lat="47.31111" lon="-1.65032">
        <ele>116</ele>
        <time>2021-08-14T07:30:21.000Z</time>
      </trkpt>
      <trkpt lat="47.31126" lon="-1.65034">
        <ele>116</ele>
        <time>2021-08-14T07:30:23.000Z</time>
      </trkpt>
      <trkpt lat="47.31141" lon="-1.6504">
        <ele>116</ele>
        <time>2021-08-14T07:30:25.000Z</time>
      </trkpt>
      <trkpt lat="47.31154" lon="-1.65048">
        <ele>116</ele>
        <time>2021-08-14T07:30:27.000Z</time>
      </trkpt>
      <trkpt lat="47.31166" lon="-1.65055">
        <ele>116</ele>
        <time>2021-08-14T07:30:29.000Z</time>
      </trkpt>
      <trkpt lat="47.31179" lon="-1.65057">
        <ele>116</ele>
        <time>2021-08-14T07:30:31.000Z</time>
      </trkpt>
      <trkpt lat="47.31191" lon="-1.65056">
        <ele>117</ele>
        <time>2021-08-14T07:30:33.000Z</time>
      </trkpt>
      <trkpt lat="47.31202" lon="-1.65052">
        <ele>117</ele>
        <time>2021-08-14T07:30:35.000Z</time>
      </trkpt>
      <trkpt lat="47.31213" lon="-1.65047">
        <ele>117</ele>
        <time>2021-08-14T07:30:37.000Z</time>
      </trkpt>
      <trkpt lat="47.31223" lon="-1.65041">
        <ele>118</ele>
        <time>2021-08-14T07:30:39.000Z</time>
      </trkpt>
      <trkpt lat="47.31234" lon="-1.65035">
        <ele>119</ele>
        <time>2021-08-14T07:30:41.000Z</time>
      </trkpt>
      <trkpt lat="47.31244" lon="-1.65028">
        <ele>119</ele>
        <time>2021-08-14T07:30:43.000Z</time>
      </trkpt>
      <trkpt lat="47.31254" lon="-1.65022">
        <ele>120</ele>
        <time>2021-08-14T07:30:45.000Z</time>
      </trkpt>
      <trkpt lat="47.31263" lon="-1.65016">
        <ele>120</ele>
        <time>2021-08-14T07:30:47.000Z</time>
      </trkpt>
      <trkpt lat="47.31274" lon="-1.65011">
        <ele>121</ele>
        <time>2021-08-14T07:30:49.000Z</time>
      </trkpt>
      <trkpt lat="47.31284" lon="-1.65004">
        <ele>121</ele>
        <time>2021-08-14T07:30:51.000Z</time>
      </trkpt>
      <trkpt lat="47.31294" lon="-1.64998">
        <ele>121</ele>
        <time>2021-08-14T07:30:53.000Z</time>
      </trkpt>
      <trkpt lat="47.31304" lon="-1.64993">
        <ele>121</ele>
        <time>2021-08-14T07:30:55.000Z</time>
      </trkpt>
      <trkpt lat="47.31314" lon="-1.64986">
        <ele>121</ele>
        <time>2021-08-14T07:30:57.000Z</time>
      </trkpt>
      <trkpt lat="47.31325" lon="-1.6498">
        <ele>121</ele>
        <time>2021-08-14T07:30:59.000Z</time>
      </trkpt>
      <trkpt lat="47.31335" lon="-1.64973">
        <ele>122</ele>
        <time>2021-08-14T07:31:01.000Z</time>
      </trkpt>
      <trkpt lat="47.31346" lon="-1.64967">
        <ele>121</ele>
        <time>2021-08-14T07:31:03.000Z</time>
      </trkpt>
      <trkpt lat="47.31357" lon="-1.64959">
        <ele>121</ele>
        <time>2021-08-14T07:31:05.000Z</time>
      </trkpt>
      <trkpt lat="47.31368" lon="-1.64952">
        <ele>121</ele>
        <time>2021-08-14T07:31:07.000Z</time>
      </trkpt>
      <trkpt lat="47.31379" lon="-1.64945">
        <ele>121</ele>
        <time>2021-08-14T07:31:09.000Z</time>
      </trkpt>
      <trkpt lat="47.31389" lon="-1.64939">
        <ele>121</ele>
        <time>2021-08-14T07:31:11.000Z</time>
      </trkpt>
      <trkpt lat="47.314" lon="-1.64932">
        <ele>121</ele>
        <time>2021-08-14T07:31:13.000Z</time>
      </trkpt>
      <trkpt lat="47.31411" lon="-1.64927">
        <ele>122</ele>
        <time>2021-08-14T07:31:15.000Z</time>
      </trkpt>
      <trkpt lat="47.31423" lon="-1.64921">
        <ele>122</ele>
        <time>2021-08-14T07:31:17.000Z</time>
      </trkpt>
      <trkpt lat="47.31437" lon="-1.64916">
        <ele>122</ele>
        <time>2021-08-14T07:31:19.000Z</time>
      </trkpt>
      <trkpt lat="47.31451" lon="-1.64915">
        <ele>123</ele>
        <time>2021-08-14T07:31:21.000Z</time>
      </trkpt>
      <trkpt lat="47.31468" lon="-1.64914">
        <ele>122</ele>
        <time>2021-08-14T07:31:23.000Z</time>
      </trkpt>
      <trkpt lat="47.31483" lon="-1.64912">
        <ele>123</ele>
        <time>2021-08-14T07:31:25.000Z</time>
      </trkpt>
      <trkpt lat="47.31497" lon="-1.64909">
        <ele>122</ele>
        <time>2021-08-14T07:31:27.000Z</time>
      </trkpt>
      <trkpt lat="47.31508" lon="-1.64906">
        <ele>121</ele>
        <time>2021-08-14T07:31:29.000Z</time>
      </trkpt>
      <trkpt lat="47.3152" lon="-1.64903">
        <ele>120</ele>
        <time>2021-08-14T07:31:31.000Z</time>
      </trkpt>
      <trkpt lat="47.31534" lon="-1.64897">
        <ele>118</ele>
        <time>2021-08-14T07:31:33.000Z</time>
      </trkpt>
      <trkpt lat="47.31547" lon="-1.64888">
        <ele>117</ele>
        <time>2021-08-14T07:31:35.000Z</time>
      </trkpt>
      <trkpt lat="47.31559" lon="-1.64879">
        <ele>116</ele>
        <time>2021-08-14T07:31:37.000Z</time>
      </trkpt>
      <trkpt lat="47.31573" lon="-1.6487">
        <ele>115</ele>
        <time>2021-08-14T07:31:39.000Z</time>
      </trkpt>
      <trkpt lat="47.31586" lon="-1.6486">
        <ele>114</ele>
        <time>2021-08-14T07:31:41.000Z</time>
      </trkpt>
      <trkpt lat="47.316" lon="-1.6485">
        <ele>113</ele>
        <time>2021-08-14T07:31:43.000Z</time>
      </trkpt>
      <trkpt lat="47.31614" lon="-1.64839">
        <ele>113</ele>
        <time>2021-08-14T07:31:45.000Z</time>
      </trkpt>
      <trkpt lat="47.31627" lon="-1.64824">
        <ele>113</ele>
        <time>2021-08-14T07:31:47.000Z</time>
      </trkpt>
      <trkpt lat="47.31641" lon="-1.64809">
        <ele>112</ele>
        <time>2021-08-14T07:31:49.000Z</time>
      </trkpt>
      <trkpt lat="47.31654" lon="-1.64794">
        <ele>111</ele>
        <time>2021-08-14T07:31:51.000Z</time>
      </trkpt>
      <trkpt lat="47.31668" lon="-1.64779">
        <ele>110</ele>
        <time>2021-08-14T07:31:53.000Z</time>
      </trkpt>
      <trkpt lat="47.31682" lon="-1.64764">
        <ele>109</ele>
        <time>2021-08-14T07:31:55.000Z</time>
      </trkpt>
      <trkpt lat="47.31697" lon="-1.64749">
        <ele>108</ele>
        <time>2021-08-14T07:31:57.000Z</time>
      </trkpt>
      <trkpt lat="47.31711" lon="-1.64734">
        <ele>108</ele>
        <time>2021-08-14T07:31:59.000Z</time>
      </trkpt>
      <trkpt lat="47.31726" lon="-1.6472">
        <ele>108</ele>
        <time>2021-08-14T07:32:01.000Z</time>
      </trkpt>
      <trkpt lat="47.3174" lon="-1.64708">
        <ele>108</ele>
        <time>2021-08-14T07:32:03.000Z</time>
      </trkpt>
      <trkpt lat="47.31755" lon="-1.64697">
        <ele>108</ele>
        <time>2021-08-14T07:32:05.000Z</time>
      </trkpt>
      <trkpt lat="47.3177" lon="-1.64688">
        <ele>109</ele>
        <time>2021-08-14T07:32:07.000Z</time>
      </trkpt>
      <trkpt lat="47.31785" lon="-1.64681">
        <ele>110</ele>
        <time>2021-08-14T07:32:09.000Z</time>
      </trkpt>
      <trkpt lat="47.31801" lon="-1.64675">
        <ele>111</ele>
        <time>2021-08-14T07:32:11.000Z</time>
      </trkpt>
      <trkpt lat="47.31817" lon="-1.64669">
        <ele>111</ele>
        <time>2021-08-14T07:32:13.000Z</time>
      </trkpt>
      <trkpt lat="47.31832" lon="-1.64664">
        <ele>111</ele>
        <time>2021-08-14T07:32:15.000Z</time>
      </trkpt>
      <trkpt lat="47.31848" lon="-1.64659">
        <ele>110</ele>
        <time>2021-08-14T07:32:17.000Z</time>
      </trkpt>
      <trkpt lat="47.31864" lon="-1.64653">
        <ele>110</ele>
        <time>2021-08-14T07:32:19.000Z</time>
      </trkpt>
      <trkpt lat="47.31881" lon="-1.64648">
        <ele>109</ele>
        <time>2021-08-14T07:32:21.000Z</time>
      </trkpt>
      <trkpt lat="47.31896" lon="-1.64642">
        <ele>108</ele>
        <time>2021-08-14T07:32:23.000Z</time>
      </trkpt>
      <trkpt lat="47.31912" lon="-1.64636">
        <ele>107</ele>
        <time>2021-08-14T07:32:25.000Z</time>
      </trkpt>
      <trkpt lat="47.31927" lon="-1.6463">
        <ele>107</ele>
        <time>2021-08-14T07:32:27.000Z</time>
      </trkpt>
      <trkpt lat="47.31943" lon="-1.64623">
        <ele>106</ele>
        <time>2021-08-14T07:32:29.000Z</time>
      </trkpt>
      <trkpt lat="47.31958" lon="-1.64617">
        <ele>105</ele>
        <time>2021-08-14T07:32:31.000Z</time>
      </trkpt>
      <trkpt lat="47.31975" lon="-1.64612">
        <ele>104</ele>
        <time>2021-08-14T07:32:33.000Z</time>
      </trkpt>
      <trkpt lat="47.31992" lon="-1.64606">
        <ele>102</ele>
        <time>2021-08-14T07:32:35.000Z</time>
      </trkpt>
      <trkpt lat="47.32001" lon="-1.64603">
        <ele>102</ele>
        <time>2021-08-14T07:32:36.000Z</time>
      </trkpt>
      <trkpt lat="47.32018" lon="-1.64597">
        <ele>101</ele>
        <time>2021-08-14T07:32:38.000Z</time>
      </trkpt>
      <trkpt lat="47.32033" lon="-1.64592">
        <ele>100</ele>
        <time>2021-08-14T07:32:40.000Z</time>
      </trkpt>
      <trkpt lat="47.3205" lon="-1.64586">
        <ele>99</ele>
        <time>2021-08-14T07:32:42.000Z</time>
      </trkpt>
      <trkpt lat="47.32066" lon="-1.64579">
        <ele>98</ele>
        <time>2021-08-14T07:32:44.000Z</time>
      </trkpt>
      <trkpt lat="47.32083" lon="-1.64572">
        <ele>98</ele>
        <time>2021-08-14T07:32:46.000Z</time>
      </trkpt>
      <trkpt lat="47.321" lon="-1.64566">
        <ele>97</ele>
        <time>2021-08-14T07:32:48.000Z</time>
      </trkpt>
      <trkpt lat="47.32109" lon="-1.64563">
        <ele>96</ele>
        <time>2021-08-14T07:32:49.000Z</time>
      </trkpt>
      <trkpt lat="47.32118" lon="-1.64559">
        <ele>96</ele>
        <time>2021-08-14T07:32:50.000Z</time>
      </trkpt>
      <trkpt lat="47.32127" lon="-1.64555">
        <ele>95</ele>
        <time>2021-08-14T07:32:51.000Z</time>
      </trkpt>
      <trkpt lat="47.32136" lon="-1.64551">
        <ele>94</ele>
        <time>2021-08-14T07:32:52.000Z</time>
      </trkpt>
      <trkpt lat="47.32145" lon="-1.64546">
        <ele>94</ele>
        <time>2021-08-14T07:32:53.000Z</time>
      </trkpt>
      <trkpt lat="47.32154" lon="-1.6454">
        <ele>93</ele>
        <time>2021-08-14T07:32:54.000Z</time>
      </trkpt>
      <trkpt lat="47.32163" lon="-1.64532">
        <ele>93</ele>
        <time>2021-08-14T07:32:55.000Z</time>
      </trkpt>
      <trkpt lat="47.32171" lon="-1.64523">
        <ele>92</ele>
        <time>2021-08-14T07:32:56.000Z</time>
      </trkpt>
      <trkpt lat="47.3218" lon="-1.64512">
        <ele>91</ele>
        <time>2021-08-14T07:32:57.000Z</time>
      </trkpt>
      <trkpt lat="47.32188" lon="-1.645">
        <ele>91</ele>
        <time>2021-08-14T07:32:58.000Z</time>
      </trkpt>
      <trkpt lat="47.32194" lon="-1.64487">
        <ele>90</ele>
        <time>2021-08-14T07:32:59.000Z</time>
      </trkpt>
      <trkpt lat="47.322" lon="-1.64474">
        <ele>89</ele>
        <time>2021-08-14T07:33:00.000Z</time>
      </trkpt>
      <trkpt lat="47.32206" lon="-1.64461">
        <ele>88</ele>
        <time>2021-08-14T07:33:01.000Z</time>
      </trkpt>
      <trkpt lat="47.32212" lon="-1.64448">
        <ele>87</ele>
        <time>2021-08-14T07:33:02.000Z</time>
      </trkpt>
      <trkpt lat="47.32218" lon="-1.64436">
        <ele>86</ele>
        <time>2021-08-14T07:33:03.000Z</time>
      </trkpt>
      <trkpt lat="47.32224" lon="-1.64424">
        <ele>85</ele>
        <time>2021-08-14T07:33:04.000Z</time>
      </trkpt>
      <trkpt lat="47.3223" lon="-1.64411">
        <ele>84</ele>
        <time>2021-08-14T07:33:05.000Z</time>
      </trkpt>
      <trkpt lat="47.32235" lon="-1.64398">
        <ele>83</ele>
        <time>2021-08-14T07:33:06.000Z</time>
      </trkpt>
      <trkpt lat="47.3224" lon="-1.64384">
        <ele>82</ele>
        <time>2021-08-14T07:33:07.000Z</time>
      </trkpt>
      <trkpt lat="47.32243" lon="-1.64369">
        <ele>82</ele>
        <time>2021-08-14T07:33:08.000Z</time>
      </trkpt>
      <trkpt lat="47.32246" lon="-1.64354">
        <ele>81</ele>
        <time>2021-08-14T07:33:09.000Z</time>
      </trkpt>
      <trkpt lat="47.3225" lon="-1.64339">
        <ele>81</ele>
        <time>2021-08-14T07:33:10.000Z</time>
      </trkpt>
      <trkpt lat="47.32252" lon="-1.64326">
        <ele>80</ele>
        <time>2021-08-14T07:33:11.000Z</time>
      </trkpt>
      <trkpt lat="47.32257" lon="-1.64309">
        <ele>79</ele>
        <time>2021-08-14T07:33:13.000Z</time>
      </trkpt>
      <trkpt lat="47.32269" lon="-1.64305">
        <ele>78</ele>
        <time>2021-08-14T07:33:15.000Z</time>
      </trkpt>
      <trkpt lat="47.32282" lon="-1.64314">
        <ele>77</ele>
        <time>2021-08-14T07:33:17.000Z</time>
      </trkpt>
      <trkpt lat="47.32298" lon="-1.64321">
        <ele>76</ele>
        <time>2021-08-14T07:33:19.000Z</time>
      </trkpt>
      <trkpt lat="47.32313" lon="-1.64329">
        <ele>76</ele>
        <time>2021-08-14T07:33:21.000Z</time>
      </trkpt>
      <trkpt lat="47.32329" lon="-1.64336">
        <ele>75</ele>
        <time>2021-08-14T07:33:23.000Z</time>
      </trkpt>
      <trkpt lat="47.32345" lon="-1.64341">
        <ele>74</ele>
        <time>2021-08-14T07:33:25.000Z</time>
      </trkpt>
      <trkpt lat="47.32361" lon="-1.64344">
        <ele>73</ele>
        <time>2021-08-14T07:33:27.000Z</time>
      </trkpt>
      <trkpt lat="47.32377" lon="-1.64347">
        <ele>73</ele>
        <time>2021-08-14T07:33:29.000Z</time>
      </trkpt>
      <trkpt lat="47.32393" lon="-1.6435">
        <ele>73</ele>
        <time>2021-08-14T07:33:31.000Z</time>
      </trkpt>
      <trkpt lat="47.32408" lon="-1.64353">
        <ele>72</ele>
        <time>2021-08-14T07:33:33.000Z</time>
      </trkpt>
      <trkpt lat="47.32423" lon="-1.64355">
        <ele>72</ele>
        <time>2021-08-14T07:33:35.000Z</time>
      </trkpt>
      <trkpt lat="47.32439" lon="-1.64358">
        <ele>72</ele>
        <time>2021-08-14T07:33:37.000Z</time>
      </trkpt>
      <trkpt lat="47.32453" lon="-1.64363">
        <ele>72</ele>
        <time>2021-08-14T07:33:39.000Z</time>
      </trkpt>
      <trkpt lat="47.32468" lon="-1.64372">
        <ele>73</ele>
        <time>2021-08-14T07:33:41.000Z</time>
      </trkpt>
      <trkpt lat="47.32481" lon="-1.64382">
        <ele>73</ele>
        <time>2021-08-14T07:33:43.000Z</time>
      </trkpt>
      <trkpt lat="47.32494" lon="-1.6439">
        <ele>73</ele>
        <time>2021-08-14T07:33:45.000Z</time>
      </trkpt>
      <trkpt lat="47.32507" lon="-1.64396">
        <ele>73</ele>
        <time>2021-08-14T07:33:47.000Z</time>
      </trkpt>
      <trkpt lat="47.32521" lon="-1.64399">
        <ele>74</ele>
        <time>2021-08-14T07:33:49.000Z</time>
      </trkpt>
      <trkpt lat="47.32534" lon="-1.64399">
        <ele>74</ele>
        <time>2021-08-14T07:33:51.000Z</time>
      </trkpt>
      <trkpt lat="47.32547" lon="-1.64398">
        <ele>73</ele>
        <time>2021-08-14T07:33:53.000Z</time>
      </trkpt>
      <trkpt lat="47.32564" lon="-1.64393">
        <ele>74</ele>
        <time>2021-08-14T07:33:56.000Z</time>
      </trkpt>
      <trkpt lat="47.3258" lon="-1.64388">
        <ele>74</ele>
        <time>2021-08-14T07:33:59.000Z</time>
      </trkpt>
      <trkpt lat="47.32596" lon="-1.64384">
        <ele>75</ele>
        <time>2021-08-14T07:34:02.000Z</time>
      </trkpt>
      <trkpt lat="47.32605" lon="-1.64381">
        <ele>76</ele>
        <time>2021-08-14T07:34:04.000Z</time>
      </trkpt>
      <trkpt lat="47.32615" lon="-1.64377">
        <ele>76</ele>
        <time>2021-08-14T07:34:06.000Z</time>
      </trkpt>
      <trkpt lat="47.3263" lon="-1.64373">
        <ele>77</ele>
        <time>2021-08-14T07:34:09.000Z</time>
      </trkpt>
      <trkpt lat="47.32641" lon="-1.6437">
        <ele>77</ele>
        <time>2021-08-14T07:34:11.000Z</time>
      </trkpt>
      <trkpt lat="47.32651" lon="-1.64367">
        <ele>77</ele>
        <time>2021-08-14T07:34:13.000Z</time>
      </trkpt>
      <trkpt lat="47.32661" lon="-1.64363">
        <ele>77</ele>
        <time>2021-08-14T07:34:15.000Z</time>
      </trkpt>
      <trkpt lat="47.32671" lon="-1.64361">
        <ele>78</ele>
        <time>2021-08-14T07:34:17.000Z</time>
      </trkpt>
      <trkpt lat="47.32682" lon="-1.64358">
        <ele>78</ele>
        <time>2021-08-14T07:34:19.000Z</time>
      </trkpt>
      <trkpt lat="47.32697" lon="-1.64353">
        <ele>79</ele>
        <time>2021-08-14T07:34:22.000Z</time>
      </trkpt>
      <trkpt lat="47.32706" lon="-1.6435">
        <ele>79</ele>
        <time>2021-08-14T07:34:24.000Z</time>
      </trkpt>
      <trkpt lat="47.32716" lon="-1.64348">
        <ele>80</ele>
        <time>2021-08-14T07:34:26.000Z</time>
      </trkpt>
      <trkpt lat="47.32725" lon="-1.64345">
        <ele>81</ele>
        <time>2021-08-14T07:34:28.000Z</time>
      </trkpt>
      <trkpt lat="47.32735" lon="-1.64343">
        <ele>82</ele>
        <time>2021-08-14T07:34:30.000Z</time>
      </trkpt>
      <trkpt lat="47.32744" lon="-1.64341">
        <ele>82</ele>
        <time>2021-08-14T07:34:32.000Z</time>
      </trkpt>
      <trkpt lat="47.32754" lon="-1.64339">
        <ele>83</ele>
        <time>2021-08-14T07:34:34.000Z</time>
      </trkpt>
      <trkpt lat="47.32764" lon="-1.64337">
        <ele>83</ele>
        <time>2021-08-14T07:34:36.000Z</time>
      </trkpt>
      <trkpt lat="47.32773" lon="-1.64335">
        <ele>84</ele>
        <time>2021-08-14T07:34:38.000Z</time>
      </trkpt>
      <trkpt lat="47.32782" lon="-1.64334">
        <ele>84</ele>
        <time>2021-08-14T07:34:40.000Z</time>
      </trkpt>
      <trkpt lat="47.32795" lon="-1.64332">
        <ele>84</ele>
        <time>2021-08-14T07:34:43.000Z</time>
      </trkpt>
      <trkpt lat="47.32805" lon="-1.6433">
        <ele>85</ele>
        <time>2021-08-14T07:34:45.000Z</time>
      </trkpt>
      <trkpt lat="47.32814" lon="-1.64329">
        <ele>86</ele>
        <time>2021-08-14T07:34:47.000Z</time>
      </trkpt>
      <trkpt lat="47.32824" lon="-1.64327">
        <ele>86</ele>
        <time>2021-08-14T07:34:49.000Z</time>
      </trkpt>
      <trkpt lat="47.32837" lon="-1.64325">
        <ele>86</ele>
        <time>2021-08-14T07:34:52.000Z</time>
      </trkpt>
      <trkpt lat="47.3285" lon="-1.64324">
        <ele>87</ele>
        <time>2021-08-14T07:34:55.000Z</time>
      </trkpt>
      <trkpt lat="47.32859" lon="-1.64322">
        <ele>88</ele>
        <time>2021-08-14T07:34:57.000Z</time>
      </trkpt>
      <trkpt lat="47.32872" lon="-1.6432">
        <ele>89</ele>
        <time>2021-08-14T07:35:00.000Z</time>
      </trkpt>
      <trkpt lat="47.32885" lon="-1.64317">
        <ele>89</ele>
        <time>2021-08-14T07:35:03.000Z</time>
      </trkpt>
      <trkpt lat="47.32895" lon="-1.64314">
        <ele>90</ele>
        <time>2021-08-14T07:35:05.000Z</time>
      </trkpt>
      <trkpt lat="47.32904" lon="-1.64312">
        <ele>90</ele>
        <time>2021-08-14T07:35:07.000Z</time>
      </trkpt>
      <trkpt lat="47.32918" lon="-1.6431">
        <ele>92</ele>
        <time>2021-08-14T07:35:10.000Z</time>
      </trkpt>
      <trkpt lat="47.32928" lon="-1.64309">
        <ele>93</ele>
        <time>2021-08-14T07:35:12.000Z</time>
      </trkpt>
      <trkpt lat="47.32937" lon="-1.64309">
        <ele>93</ele>
        <time>2021-08-14T07:35:14.000Z</time>
      </trkpt>
      <trkpt lat="47.3295" lon="-1.64309">
        <ele>94</ele>
        <time>2021-08-14T07:35:17.000Z</time>
      </trkpt>
      <trkpt lat="47.32964" lon="-1.64309">
        <ele>94</ele>
        <time>2021-08-14T07:35:20.000Z</time>
      </trkpt>
      <trkpt lat="47.32977" lon="-1.64309">
        <ele>94</ele>
        <time>2021-08-14T07:35:23.000Z</time>
      </trkpt>
      <trkpt lat="47.32989" lon="-1.64311">
        <ele>94</ele>
        <time>2021-08-14T07:35:26.000Z</time>
      </trkpt>
      <trkpt lat="47.33001" lon="-1.64314">
        <ele>94</ele>
        <time>2021-08-14T07:35:29.000Z</time>
      </trkpt>
      <trkpt lat="47.33013" lon="-1.64317">
        <ele>95</ele>
        <time>2021-08-14T07:35:32.000Z</time>
      </trkpt>
      <trkpt lat="47.33024" lon="-1.64321">
        <ele>96</ele>
        <time>2021-08-14T07:35:35.000Z</time>
      </trkpt>
      <trkpt lat="47.33034" lon="-1.64326">
        <ele>97</ele>
        <time>2021-08-14T07:35:38.000Z</time>
      </trkpt>
      <trkpt lat="47.33045" lon="-1.6433">
        <ele>98</ele>
        <time>2021-08-14T07:35:41.000Z</time>
      </trkpt>
      <trkpt lat="47.33056" lon="-1.64333">
        <ele>100</ele>
        <time>2021-08-14T07:35:44.000Z</time>
      </trkpt>
      <trkpt lat="47.33067" lon="-1.64336">
        <ele>102</ele>
        <time>2021-08-14T07:35:47.000Z</time>
      </trkpt>
      <trkpt lat="47.33078" lon="-1.6434">
        <ele>103</ele>
        <time>2021-08-14T07:35:50.000Z</time>
      </trkpt>
      <trkpt lat="47.33088" lon="-1.64344">
        <ele>103</ele>
        <time>2021-08-14T07:35:53.000Z</time>
      </trkpt>
      <trkpt lat="47.33098" lon="-1.64346">
        <ele>103</ele>
        <time>2021-08-14T07:35:56.000Z</time>
      </trkpt>
      <trkpt lat="47.33107" lon="-1.64347">
        <ele>104</ele>
        <time>2021-08-14T07:35:59.000Z</time>
      </trkpt>
      <trkpt lat="47.33119" lon="-1.64345">
        <ele>104</ele>
        <time>2021-08-14T07:36:02.000Z</time>
      </trkpt>
      <trkpt lat="47.33132" lon="-1.64343">
        <ele>105</ele>
        <time>2021-08-14T07:36:05.000Z</time>
      </trkpt>
      <trkpt lat="47.33144" lon="-1.6434">
        <ele>105</ele>
        <time>2021-08-14T07:36:08.000Z</time>
      </trkpt>
      <trkpt lat="47.33156" lon="-1.64336">
        <ele>106</ele>
        <time>2021-08-14T07:36:11.000Z</time>
      </trkpt>
      <trkpt lat="47.33167" lon="-1.64333">
        <ele>106</ele>
        <time>2021-08-14T07:36:14.000Z</time>
      </trkpt>
      <trkpt lat="47.33178" lon="-1.6433">
        <ele>107</ele>
        <time>2021-08-14T07:36:17.000Z</time>
      </trkpt>
      <trkpt lat="47.33188" lon="-1.64327">
        <ele>108</ele>
        <time>2021-08-14T07:36:20.000Z</time>
      </trkpt>
      <trkpt lat="47.33198" lon="-1.64325">
        <ele>108</ele>
        <time>2021-08-14T07:36:23.000Z</time>
      </trkpt>
      <trkpt lat="47.33209" lon="-1.64322">
        <ele>109</ele>
        <time>2021-08-14T07:36:26.000Z</time>
      </trkpt>
      <trkpt lat="47.33222" lon="-1.64318">
        <ele>110</ele>
        <time>2021-08-14T07:36:29.000Z</time>
      </trkpt>
      <trkpt lat="47.33232" lon="-1.64313">
        <ele>110</ele>
        <time>2021-08-14T07:36:31.000Z</time>
      </trkpt>
      <trkpt lat="47.33241" lon="-1.64309">
        <ele>111</ele>
        <time>2021-08-14T07:36:33.000Z</time>
      </trkpt>
      <trkpt lat="47.3325" lon="-1.64304">
        <ele>110</ele>
        <time>2021-08-14T07:36:35.000Z</time>
      </trkpt>
      <trkpt lat="47.33261" lon="-1.64295">
        <ele>110</ele>
        <time>2021-08-14T07:36:38.000Z</time>
      </trkpt>
      <trkpt lat="47.33269" lon="-1.64287">
        <ele>111</ele>
        <time>2021-08-14T07:36:40.000Z</time>
      </trkpt>
      <trkpt lat="47.33276" lon="-1.64278">
        <ele>111</ele>
        <time>2021-08-14T07:36:42.000Z</time>
      </trkpt>
      <trkpt lat="47.33284" lon="-1.6427">
        <ele>111</ele>
        <time>2021-08-14T07:36:44.000Z</time>
      </trkpt>
      <trkpt lat="47.33291" lon="-1.64261">
        <ele>111</ele>
        <time>2021-08-14T07:36:46.000Z</time>
      </trkpt>
      <trkpt lat="47.33298" lon="-1.64253">
        <ele>112</ele>
        <time>2021-08-14T07:36:48.000Z</time>
      </trkpt>
      <trkpt lat="47.33306" lon="-1.64243">
        <ele>112</ele>
        <time>2021-08-14T07:36:50.000Z</time>
      </trkpt>
      <trkpt lat="47.33315" lon="-1.64233">
        <ele>112</ele>
        <time>2021-08-14T07:36:52.000Z</time>
      </trkpt>
      <trkpt lat="47.33323" lon="-1.64223">
        <ele>112</ele>
        <time>2021-08-14T07:36:54.000Z</time>
      </trkpt>
      <trkpt lat="47.33331" lon="-1.64213">
        <ele>113</ele>
        <time>2021-08-14T07:36:56.000Z</time>
      </trkpt>
      <trkpt lat="47.33339" lon="-1.64203">
        <ele>114</ele>
        <time>2021-08-14T07:36:58.000Z</time>
      </trkpt>
      <trkpt lat="47.33347" lon="-1.64192">
        <ele>114</ele>
        <time>2021-08-14T07:37:00.000Z</time>
      </trkpt>
      <trkpt lat="47.33356" lon="-1.64182">
        <ele>114</ele>
        <time>2021-08-14T07:37:02.000Z</time>
      </trkpt>
      <trkpt lat="47.33365" lon="-1.64172">
        <ele>115</ele>
        <time>2021-08-14T07:37:04.000Z</time>
      </trkpt>
      <trkpt lat="47.33374" lon="-1.64162">
        <ele>115</ele>
        <time>2021-08-14T07:37:06.000Z</time>
      </trkpt>
      <trkpt lat="47.33383" lon="-1.64152">
        <ele>115</ele>
        <time>2021-08-14T07:37:08.000Z</time>
      </trkpt>
      <trkpt lat="47.33392" lon="-1.64141">
        <ele>116</ele>
        <time>2021-08-14T07:37:10.000Z</time>
      </trkpt>
      <trkpt lat="47.33402" lon="-1.6413">
        <ele>116</ele>
        <time>2021-08-14T07:37:12.000Z</time>
      </trkpt>
      <trkpt lat="47.33411" lon="-1.64119">
        <ele>116</ele>
        <time>2021-08-14T07:37:14.000Z</time>
      </trkpt>
      <trkpt lat="47.3342" lon="-1.64109">
        <ele>116</ele>
        <time>2021-08-14T07:37:16.000Z</time>
      </trkpt>
      <trkpt lat="47.3343" lon="-1.64098">
        <ele>116</ele>
        <time>2021-08-14T07:37:18.000Z</time>
      </trkpt>
      <trkpt lat="47.33439" lon="-1.64086">
        <ele>116</ele>
        <time>2021-08-14T07:37:20.000Z</time>
      </trkpt>
      <trkpt lat="47.33448" lon="-1.64076">
        <ele>116</ele>
        <time>2021-08-14T07:37:22.000Z</time>
      </trkpt>
      <trkpt lat="47.33457" lon="-1.64065">
        <ele>116</ele>
        <time>2021-08-14T07:37:24.000Z</time>
      </trkpt>
      <trkpt lat="47.33467" lon="-1.64054">
        <ele>116</ele>
        <time>2021-08-14T07:37:26.000Z</time>
      </trkpt>
      <trkpt lat="47.33476" lon="-1.64043">
        <ele>116</ele>
        <time>2021-08-14T07:37:28.000Z</time>
      </trkpt>
      <trkpt lat="47.33485" lon="-1.64032">
        <ele>116</ele>
        <time>2021-08-14T07:37:30.000Z</time>
      </trkpt>
      <trkpt lat="47.33494" lon="-1.64022">
        <ele>115</ele>
        <time>2021-08-14T07:37:32.000Z</time>
      </trkpt>
      <trkpt lat="47.33503" lon="-1.64011">
        <ele>115</ele>
        <time>2021-08-14T07:37:34.000Z</time>
      </trkpt>
      <trkpt lat="47.33513" lon="-1.64">
        <ele>115</ele>
        <time>2021-08-14T07:37:36.000Z</time>
      </trkpt>
      <trkpt lat="47.33522" lon="-1.63989">
        <ele>115</ele>
        <time>2021-08-14T07:37:38.000Z</time>
      </trkpt>
      <trkpt lat="47.33531" lon="-1.63979">
        <ele>115</ele>
        <time>2021-08-14T07:37:40.000Z</time>
      </trkpt>
      <trkpt lat="47.3354" lon="-1.63968">
        <ele>115</ele>
        <time>2021-08-14T07:37:42.000Z</time>
      </trkpt>
      <trkpt lat="47.33549" lon="-1.63957">
        <ele>115</ele>
        <time>2021-08-14T07:37:44.000Z</time>
      </trkpt>
      <trkpt lat="47.33558" lon="-1.63947">
        <ele>116</ele>
        <time>2021-08-14T07:37:46.000Z</time>
      </trkpt>
      <trkpt lat="47.33566" lon="-1.63936">
        <ele>116</ele>
        <time>2021-08-14T07:37:48.000Z</time>
      </trkpt>
      <trkpt lat="47.33575" lon="-1.63926">
        <ele>116</ele>
        <time>2021-08-14T07:37:50.000Z</time>
      </trkpt>
      <trkpt lat="47.33585" lon="-1.63914">
        <ele>116</ele>
        <time>2021-08-14T07:37:52.000Z</time>
      </trkpt>
      <trkpt lat="47.33595" lon="-1.63903">
        <ele>115</ele>
        <time>2021-08-14T07:37:54.000Z</time>
      </trkpt>
      <trkpt lat="47.33605" lon="-1.63891">
        <ele>116</ele>
        <time>2021-08-14T07:37:56.000Z</time>
      </trkpt>
      <trkpt lat="47.33615" lon="-1.6388">
        <ele>116</ele>
        <time>2021-08-14T07:37:58.000Z</time>
      </trkpt>
      <trkpt lat="47.33625" lon="-1.63868">
        <ele>116</ele>
        <time>2021-08-14T07:38:00.000Z</time>
      </trkpt>
      <trkpt lat="47.33635" lon="-1.63856">
        <ele>117</ele>
        <time>2021-08-14T07:38:02.000Z</time>
      </trkpt>
      <trkpt lat="47.33645" lon="-1.63843">
        <ele>117</ele>
        <time>2021-08-14T07:38:04.000Z</time>
      </trkpt>
      <trkpt lat="47.33655" lon="-1.63832">
        <ele>117</ele>
        <time>2021-08-14T07:38:06.000Z</time>
      </trkpt>
      <trkpt lat="47.33665" lon="-1.6382">
        <ele>116</ele>
        <time>2021-08-14T07:38:08.000Z</time>
      </trkpt>
      <trkpt lat="47.33675" lon="-1.63808">
        <ele>116</ele>
        <time>2021-08-14T07:38:10.000Z</time>
      </trkpt>
      <trkpt lat="47.33685" lon="-1.63796">
        <ele>115</ele>
        <time>2021-08-14T07:38:12.000Z</time>
      </trkpt>
      <trkpt lat="47.33695" lon="-1.63784">
        <ele>115</ele>
        <time>2021-08-14T07:38:14.000Z</time>
      </trkpt>
      <trkpt lat="47.33705" lon="-1.63773">
        <ele>115</ele>
        <time>2021-08-14T07:38:16.000Z</time>
      </trkpt>
      <trkpt lat="47.33715" lon="-1.63761">
        <ele>115</ele>
        <time>2021-08-14T07:38:18.000Z</time>
      </trkpt>
      <trkpt lat="47.33724" lon="-1.63751">
        <ele>115</ele>
        <time>2021-08-14T07:38:20.000Z</time>
      </trkpt>
      <trkpt lat="47.33732" lon="-1.63741">
        <ele>116</ele>
        <time>2021-08-14T07:38:22.000Z</time>
      </trkpt>
      <trkpt lat="47.3374" lon="-1.6373">
        <ele>117</ele>
        <time>2021-08-14T07:38:24.000Z</time>
      </trkpt>
      <trkpt lat="47.3375" lon="-1.63718">
        <ele>117</ele>
        <time>2021-08-14T07:38:26.000Z</time>
      </trkpt>
      <trkpt lat="47.33759" lon="-1.63706">
        <ele>117</ele>
        <time>2021-08-14T07:38:28.000Z</time>
      </trkpt>
      <trkpt lat="47.3377" lon="-1.63693">
        <ele>118</ele>
        <time>2021-08-14T07:38:30.000Z</time>
      </trkpt>
      <trkpt lat="47.3378" lon="-1.63682">
        <ele>118</ele>
        <time>2021-08-14T07:38:32.000Z</time>
      </trkpt>
      <trkpt lat="47.3379" lon="-1.6367">
        <ele>119</ele>
        <time>2021-08-14T07:38:34.000Z</time>
      </trkpt>
      <trkpt lat="47.338" lon="-1.63657">
        <ele>119</ele>
        <time>2021-08-14T07:38:36.000Z</time>
      </trkpt>
      <trkpt lat="47.33811" lon="-1.63645">
        <ele>120</ele>
        <time>2021-08-14T07:38:38.000Z</time>
      </trkpt>
      <trkpt lat="47.33822" lon="-1.63633">
        <ele>120</ele>
        <time>2021-08-14T07:38:40.000Z</time>
      </trkpt>
      <trkpt lat="47.33833" lon="-1.63621">
        <ele>119</ele>
        <time>2021-08-14T07:38:42.000Z</time>
      </trkpt>
      <trkpt lat="47.33842" lon="-1.6361">
        <ele>118</ele>
        <time>2021-08-14T07:38:44.000Z</time>
      </trkpt>
      <trkpt lat="47.33851" lon="-1.63601">
        <ele>117</ele>
        <time>2021-08-14T07:38:46.000Z</time>
      </trkpt>
      <trkpt lat="47.33861" lon="-1.63589">
        <ele>117</ele>
        <time>2021-08-14T07:38:49.000Z</time>
      </trkpt>
      <trkpt lat="47.33871" lon="-1.6358">
        <ele>116</ele>
        <time>2021-08-14T07:38:51.000Z</time>
      </trkpt>
      <trkpt lat="47.33881" lon="-1.63568">
        <ele>115</ele>
        <time>2021-08-14T07:38:53.000Z</time>
      </trkpt>
      <trkpt lat="47.33891" lon="-1.63556">
        <ele>115</ele>
        <time>2021-08-14T07:38:55.000Z</time>
      </trkpt>
      <trkpt lat="47.33901" lon="-1.63544">
        <ele>115</ele>
        <time>2021-08-14T07:38:57.000Z</time>
      </trkpt>
      <trkpt lat="47.33912" lon="-1.63533">
        <ele>116</ele>
        <time>2021-08-14T07:38:59.000Z</time>
      </trkpt>
      <trkpt lat="47.33923" lon="-1.63522">
        <ele>116</ele>
        <time>2021-08-14T07:39:01.000Z</time>
      </trkpt>
      <trkpt lat="47.33934" lon="-1.63514">
        <ele>116</ele>
        <time>2021-08-14T07:39:03.000Z</time>
      </trkpt>
      <trkpt lat="47.33944" lon="-1.63506">
        <ele>117</ele>
        <time>2021-08-14T07:39:05.000Z</time>
      </trkpt>
      <trkpt lat="47.33955" lon="-1.63499">
        <ele>117</ele>
        <time>2021-08-14T07:39:07.000Z</time>
      </trkpt>
      <trkpt lat="47.33967" lon="-1.63493">
        <ele>117</ele>
        <time>2021-08-14T07:39:09.000Z</time>
      </trkpt>
      <trkpt lat="47.33978" lon="-1.63488">
        <ele>118</ele>
        <time>2021-08-14T07:39:11.000Z</time>
      </trkpt>
      <trkpt lat="47.3399" lon="-1.63482">
        <ele>118</ele>
        <time>2021-08-14T07:39:13.000Z</time>
      </trkpt>
      <trkpt lat="47.34001" lon="-1.63475">
        <ele>118</ele>
        <time>2021-08-14T07:39:15.000Z</time>
      </trkpt>
      <trkpt lat="47.34014" lon="-1.63467">
        <ele>117</ele>
        <time>2021-08-14T07:39:17.000Z</time>
      </trkpt>
      <trkpt lat="47.34027" lon="-1.63459">
        <ele>117</ele>
        <time>2021-08-14T07:39:19.000Z</time>
      </trkpt>
      <trkpt lat="47.34039" lon="-1.63452">
        <ele>117</ele>
        <time>2021-08-14T07:39:21.000Z</time>
      </trkpt>
      <trkpt lat="47.34052" lon="-1.63444">
        <ele>117</ele>
        <time>2021-08-14T07:39:23.000Z</time>
      </trkpt>
      <trkpt lat="47.34064" lon="-1.63437">
        <ele>117</ele>
        <time>2021-08-14T07:39:25.000Z</time>
      </trkpt>
      <trkpt lat="47.34076" lon="-1.63431">
        <ele>118</ele>
        <time>2021-08-14T07:39:27.000Z</time>
      </trkpt>
      <trkpt lat="47.34088" lon="-1.63424">
        <ele>118</ele>
        <time>2021-08-14T07:39:29.000Z</time>
      </trkpt>
      <trkpt lat="47.341" lon="-1.63418">
        <ele>118</ele>
        <time>2021-08-14T07:39:31.000Z</time>
      </trkpt>
      <trkpt lat="47.34112" lon="-1.63411">
        <ele>118</ele>
        <time>2021-08-14T07:39:33.000Z</time>
      </trkpt>
      <trkpt lat="47.34125" lon="-1.63403">
        <ele>117</ele>
        <time>2021-08-14T07:39:35.000Z</time>
      </trkpt>
      <trkpt lat="47.34136" lon="-1.63396">
        <ele>117</ele>
        <time>2021-08-14T07:39:37.000Z</time>
      </trkpt>
      <trkpt lat="47.3415" lon="-1.63385">
        <ele>117</ele>
        <time>2021-08-14T07:39:39.000Z</time>
      </trkpt>
      <trkpt lat="47.34163" lon="-1.63374">
        <ele>115</ele>
        <time>2021-08-14T07:39:41.000Z</time>
      </trkpt>
      <trkpt lat="47.34174" lon="-1.63362">
        <ele>115</ele>
        <time>2021-08-14T07:39:43.000Z</time>
      </trkpt>
      <trkpt lat="47.34186" lon="-1.63351">
        <ele>115</ele>
        <time>2021-08-14T07:39:45.000Z</time>
      </trkpt>
      <trkpt lat="47.34197" lon="-1.63339">
        <ele>115</ele>
        <time>2021-08-14T07:39:47.000Z</time>
      </trkpt>
      <trkpt lat="47.34208" lon="-1.63327">
        <ele>115</ele>
        <time>2021-08-14T07:39:49.000Z</time>
      </trkpt>
      <trkpt lat="47.34219" lon="-1.63315">
        <ele>115</ele>
        <time>2021-08-14T07:39:51.000Z</time>
      </trkpt>
      <trkpt lat="47.34229" lon="-1.63301">
        <ele>115</ele>
        <time>2021-08-14T07:39:53.000Z</time>
      </trkpt>
      <trkpt lat="47.34238" lon="-1.63286">
        <ele>114</ele>
        <time>2021-08-14T07:39:55.000Z</time>
      </trkpt>
      <trkpt lat="47.34246" lon="-1.63269">
        <ele>114</ele>
        <time>2021-08-14T07:39:57.000Z</time>
      </trkpt>
      <trkpt lat="47.34252" lon="-1.63251">
        <ele>114</ele>
        <time>2021-08-14T07:39:59.000Z</time>
      </trkpt>
      <trkpt lat="47.34259" lon="-1.63233">
        <ele>114</ele>
        <time>2021-08-14T07:40:01.000Z</time>
      </trkpt>
      <trkpt lat="47.34266" lon="-1.63214">
        <ele>113</ele>
        <time>2021-08-14T07:40:03.000Z</time>
      </trkpt>
      <trkpt lat="47.34273" lon="-1.63195">
        <ele>113</ele>
        <time>2021-08-14T07:40:05.000Z</time>
      </trkpt>
      <trkpt lat="47.34281" lon="-1.63178">
        <ele>112</ele>
        <time>2021-08-14T07:40:07.000Z</time>
      </trkpt>
      <trkpt lat="47.34292" lon="-1.63164">
        <ele>112</ele>
        <time>2021-08-14T07:40:09.000Z</time>
      </trkpt>
      <trkpt lat="47.34302" lon="-1.6315">
        <ele>112</ele>
        <time>2021-08-14T07:40:11.000Z</time>
      </trkpt>
      <trkpt lat="47.34314" lon="-1.63137">
        <ele>111</ele>
        <time>2021-08-14T07:40:13.000Z</time>
      </trkpt>
      <trkpt lat="47.34325" lon="-1.63124">
        <ele>111</ele>
        <time>2021-08-14T07:40:15.000Z</time>
      </trkpt>
      <trkpt lat="47.34337" lon="-1.63111">
        <ele>111</ele>
        <time>2021-08-14T07:40:17.000Z</time>
      </trkpt>
      <trkpt lat="47.34349" lon="-1.63099">
        <ele>110</ele>
        <time>2021-08-14T07:40:19.000Z</time>
      </trkpt>
      <trkpt lat="47.34361" lon="-1.63086">
        <ele>110</ele>
        <time>2021-08-14T07:40:21.000Z</time>
      </trkpt>
      <trkpt lat="47.34373" lon="-1.63073">
        <ele>110</ele>
        <time>2021-08-14T07:40:23.000Z</time>
      </trkpt>
      <trkpt lat="47.34385" lon="-1.63061">
        <ele>109</ele>
        <time>2021-08-14T07:40:25.000Z</time>
      </trkpt>
      <trkpt lat="47.34397" lon="-1.63048">
        <ele>108</ele>
        <time>2021-08-14T07:40:27.000Z</time>
      </trkpt>
      <trkpt lat="47.34409" lon="-1.63036">
        <ele>108</ele>
        <time>2021-08-14T07:40:29.000Z</time>
      </trkpt>
      <trkpt lat="47.34421" lon="-1.63024">
        <ele>108</ele>
        <time>2021-08-14T07:40:31.000Z</time>
      </trkpt>
      <trkpt lat="47.34432" lon="-1.63013">
        <ele>108</ele>
        <time>2021-08-14T07:40:33.000Z</time>
      </trkpt>
      <trkpt lat="47.34443" lon="-1.63001">
        <ele>108</ele>
        <time>2021-08-14T07:40:35.000Z</time>
      </trkpt>
      <trkpt lat="47.34454" lon="-1.6299">
        <ele>108</ele>
        <time>2021-08-14T07:40:37.000Z</time>
      </trkpt>
      <trkpt lat="47.34465" lon="-1.62978">
        <ele>108</ele>
        <time>2021-08-14T07:40:39.000Z</time>
      </trkpt>
      <trkpt lat="47.34476" lon="-1.62967">
        <ele>108</ele>
        <time>2021-08-14T07:40:41.000Z</time>
      </trkpt>
      <trkpt lat="47.34487" lon="-1.62956">
        <ele>109</ele>
        <time>2021-08-14T07:40:43.000Z</time>
      </trkpt>
      <trkpt lat="47.34498" lon="-1.62944">
        <ele>109</ele>
        <time>2021-08-14T07:40:45.000Z</time>
      </trkpt>
      <trkpt lat="47.34509" lon="-1.62933">
        <ele>109</ele>
        <time>2021-08-14T07:40:47.000Z</time>
      </trkpt>
      <trkpt lat="47.34521" lon="-1.62921">
        <ele>109</ele>
        <time>2021-08-14T07:40:49.000Z</time>
      </trkpt>
      <trkpt lat="47.34532" lon="-1.6291">
        <ele>109</ele>
        <time>2021-08-14T07:40:51.000Z</time>
      </trkpt>
      <trkpt lat="47.34543" lon="-1.62898">
        <ele>109</ele>
        <time>2021-08-14T07:40:53.000Z</time>
      </trkpt>
      <trkpt lat="47.34554" lon="-1.62886">
        <ele>109</ele>
        <time>2021-08-14T07:40:55.000Z</time>
      </trkpt>
      <trkpt lat="47.34566" lon="-1.62874">
        <ele>109</ele>
        <time>2021-08-14T07:40:57.000Z</time>
      </trkpt>
      <trkpt lat="47.34577" lon="-1.62863">
        <ele>109</ele>
        <time>2021-08-14T07:40:59.000Z</time>
      </trkpt>
      <trkpt lat="47.34588" lon="-1.62851">
        <ele>109</ele>
        <time>2021-08-14T07:41:01.000Z</time>
      </trkpt>
      <trkpt lat="47.34598" lon="-1.62839">
        <ele>109</ele>
        <time>2021-08-14T07:41:03.000Z</time>
      </trkpt>
      <trkpt lat="47.34608" lon="-1.62827">
        <ele>109</ele>
        <time>2021-08-14T07:41:05.000Z</time>
      </trkpt>
      <trkpt lat="47.34618" lon="-1.62814">
        <ele>109</ele>
        <time>2021-08-14T07:41:07.000Z</time>
      </trkpt>
      <trkpt lat="47.34627" lon="-1.62801">
        <ele>109</ele>
        <time>2021-08-14T07:41:09.000Z</time>
      </trkpt>
      <trkpt lat="47.34637" lon="-1.62788">
        <ele>109</ele>
        <time>2021-08-14T07:41:11.000Z</time>
      </trkpt>
      <trkpt lat="47.34647" lon="-1.62774">
        <ele>109</ele>
        <time>2021-08-14T07:41:13.000Z</time>
      </trkpt>
      <trkpt lat="47.34656" lon="-1.62761">
        <ele>108</ele>
        <time>2021-08-14T07:41:15.000Z</time>
      </trkpt>
      <trkpt lat="47.34664" lon="-1.62746">
        <ele>108</ele>
        <time>2021-08-14T07:41:17.000Z</time>
      </trkpt>
      <trkpt lat="47.34671" lon="-1.6273">
        <ele>108</ele>
        <time>2021-08-14T07:41:19.000Z</time>
      </trkpt>
      <trkpt lat="47.34678" lon="-1.62713">
        <ele>108</ele>
        <time>2021-08-14T07:41:21.000Z</time>
      </trkpt>
      <trkpt lat="47.34685" lon="-1.62697">
        <ele>108</ele>
        <time>2021-08-14T07:41:23.000Z</time>
      </trkpt>
      <trkpt lat="47.34692" lon="-1.6268">
        <ele>107</ele>
        <time>2021-08-14T07:41:25.000Z</time>
      </trkpt>
      <trkpt lat="47.34699" lon="-1.62664">
        <ele>107</ele>
        <time>2021-08-14T07:41:27.000Z</time>
      </trkpt>
      <trkpt lat="47.34705" lon="-1.62648">
        <ele>107</ele>
        <time>2021-08-14T07:41:29.000Z</time>
      </trkpt>
      <trkpt lat="47.34711" lon="-1.62633">
        <ele>106</ele>
        <time>2021-08-14T07:41:31.000Z</time>
      </trkpt>
      <trkpt lat="47.34717" lon="-1.62619">
        <ele>106</ele>
        <time>2021-08-14T07:41:33.000Z</time>
      </trkpt>
      <trkpt lat="47.34722" lon="-1.62605">
        <ele>106</ele>
        <time>2021-08-14T07:41:35.000Z</time>
      </trkpt>
      <trkpt lat="47.34726" lon="-1.6259">
        <ele>105</ele>
        <time>2021-08-14T07:41:38.000Z</time>
      </trkpt>
      <trkpt lat="47.34731" lon="-1.62578">
        <ele>105</ele>
        <time>2021-08-14T07:41:41.000Z</time>
      </trkpt>
      <trkpt lat="47.34737" lon="-1.62564">
        <ele>105</ele>
        <time>2021-08-14T07:41:43.000Z</time>
      </trkpt>
      <trkpt lat="47.34744" lon="-1.62549">
        <ele>105</ele>
        <time>2021-08-14T07:41:45.000Z</time>
      </trkpt>
      <trkpt lat="47.3475" lon="-1.62532">
        <ele>106</ele>
        <time>2021-08-14T07:41:47.000Z</time>
      </trkpt>
      <trkpt lat="47.34756" lon="-1.62516">
        <ele>106</ele>
        <time>2021-08-14T07:41:49.000Z</time>
      </trkpt>
      <trkpt lat="47.34763" lon="-1.625">
        <ele>107</ele>
        <time>2021-08-14T07:41:51.000Z</time>
      </trkpt>
      <trkpt lat="47.3477" lon="-1.62485">
        <ele>107</ele>
        <time>2021-08-14T07:41:53.000Z</time>
      </trkpt>
      <trkpt lat="47.34779" lon="-1.62468">
        <ele>107</ele>
        <time>2021-08-14T07:41:55.000Z</time>
      </trkpt>
      <trkpt lat="47.34788" lon="-1.6245">
        <ele>107</ele>
        <time>2021-08-14T07:41:57.000Z</time>
      </trkpt>
      <trkpt lat="47.34797" lon="-1.62436">
        <ele>106</ele>
        <time>2021-08-14T07:41:59.000Z</time>
      </trkpt>
      <trkpt lat="47.34806" lon="-1.62421">
        <ele>106</ele>
        <time>2021-08-14T07:42:01.000Z</time>
      </trkpt>
      <trkpt lat="47.34815" lon="-1.62407">
        <ele>107</ele>
        <time>2021-08-14T07:42:03.000Z</time>
      </trkpt>
      <trkpt lat="47.34824" lon="-1.62393">
        <ele>107</ele>
        <time>2021-08-14T07:42:05.000Z</time>
      </trkpt>
      <trkpt lat="47.34832" lon="-1.62379">
        <ele>107</ele>
        <time>2021-08-14T07:42:07.000Z</time>
      </trkpt>
      <trkpt lat="47.3484" lon="-1.62365">
        <ele>107</ele>
        <time>2021-08-14T07:42:09.000Z</time>
      </trkpt>
      <trkpt lat="47.34849" lon="-1.62351">
        <ele>108</ele>
        <time>2021-08-14T07:42:11.000Z</time>
      </trkpt>
      <trkpt lat="47.34859" lon="-1.62336">
        <ele>108</ele>
        <time>2021-08-14T07:42:13.000Z</time>
      </trkpt>
      <trkpt lat="47.34868" lon="-1.62322">
        <ele>108</ele>
        <time>2021-08-14T07:42:15.000Z</time>
      </trkpt>
      <trkpt lat="47.34878" lon="-1.62307">
        <ele>107</ele>
        <time>2021-08-14T07:42:17.000Z</time>
      </trkpt>
      <trkpt lat="47.34887" lon="-1.62292">
        <ele>108</ele>
        <time>2021-08-14T07:42:19.000Z</time>
      </trkpt>
      <trkpt lat="47.34897" lon="-1.62279">
        <ele>107</ele>
        <time>2021-08-14T07:42:21.000Z</time>
      </trkpt>
      <trkpt lat="47.34907" lon="-1.62264">
        <ele>106</ele>
        <time>2021-08-14T07:42:23.000Z</time>
      </trkpt>
      <trkpt lat="47.34917" lon="-1.62251">
        <ele>106</ele>
        <time>2021-08-14T07:42:25.000Z</time>
      </trkpt>
      <trkpt lat="47.34928" lon="-1.6224">
        <ele>106</ele>
        <time>2021-08-14T07:42:27.000Z</time>
      </trkpt>
      <trkpt lat="47.3494" lon="-1.6223">
        <ele>105</ele>
        <time>2021-08-14T07:42:29.000Z</time>
      </trkpt>
      <trkpt lat="47.34952" lon="-1.62224">
        <ele>105</ele>
        <time>2021-08-14T07:42:31.000Z</time>
      </trkpt>
      <trkpt lat="47.34965" lon="-1.62217">
        <ele>105</ele>
        <time>2021-08-14T07:42:33.000Z</time>
      </trkpt>
      <trkpt lat="47.34978" lon="-1.62211">
        <ele>104</ele>
        <time>2021-08-14T07:42:35.000Z</time>
      </trkpt>
      <trkpt lat="47.34991" lon="-1.62204">
        <ele>103</ele>
        <time>2021-08-14T07:42:37.000Z</time>
      </trkpt>
      <trkpt lat="47.35003" lon="-1.62196">
        <ele>103</ele>
        <time>2021-08-14T07:42:39.000Z</time>
      </trkpt>
      <trkpt lat="47.35014" lon="-1.62184">
        <ele>102</ele>
        <time>2021-08-14T07:42:41.000Z</time>
      </trkpt>
      <trkpt lat="47.35024" lon="-1.62171">
        <ele>101</ele>
        <time>2021-08-14T07:42:43.000Z</time>
      </trkpt>
      <trkpt lat="47.35035" lon="-1.62156">
        <ele>101</ele>
        <time>2021-08-14T07:42:45.000Z</time>
      </trkpt>
      <trkpt lat="47.35045" lon="-1.6214">
        <ele>101</ele>
        <time>2021-08-14T07:42:47.000Z</time>
      </trkpt>
      <trkpt lat="47.35057" lon="-1.62125">
        <ele>100</ele>
        <time>2021-08-14T07:42:49.000Z</time>
      </trkpt>
      <trkpt lat="47.35068" lon="-1.62109">
        <ele>100</ele>
        <time>2021-08-14T07:42:51.000Z</time>
      </trkpt>
      <trkpt lat="47.3508" lon="-1.62094">
        <ele>100</ele>
        <time>2021-08-14T07:42:53.000Z</time>
      </trkpt>
      <trkpt lat="47.35091" lon="-1.62079">
        <ele>100</ele>
        <time>2021-08-14T07:42:55.000Z</time>
      </trkpt>
      <trkpt lat="47.35102" lon="-1.62064">
        <ele>100</ele>
        <time>2021-08-14T07:42:57.000Z</time>
      </trkpt>
      <trkpt lat="47.35113" lon="-1.62048">
        <ele>100</ele>
        <time>2021-08-14T07:42:59.000Z</time>
      </trkpt>
      <trkpt lat="47.35125" lon="-1.62033">
        <ele>100</ele>
        <time>2021-08-14T07:43:01.000Z</time>
      </trkpt>
      <trkpt lat="47.35137" lon="-1.62018">
        <ele>99</ele>
        <time>2021-08-14T07:43:03.000Z</time>
      </trkpt>
      <trkpt lat="47.35149" lon="-1.62002">
        <ele>99</ele>
        <time>2021-08-14T07:43:05.000Z</time>
      </trkpt>
      <trkpt lat="47.3516" lon="-1.61987">
        <ele>99</ele>
        <time>2021-08-14T07:43:07.000Z</time>
      </trkpt>
      <trkpt lat="47.35172" lon="-1.61972">
        <ele>99</ele>
        <time>2021-08-14T07:43:09.000Z</time>
      </trkpt>
      <trkpt lat="47.35184" lon="-1.61957">
        <ele>99</ele>
        <time>2021-08-14T07:43:11.000Z</time>
      </trkpt>
      <trkpt lat="47.35195" lon="-1.61942">
        <ele>98</ele>
        <time>2021-08-14T07:43:13.000Z</time>
      </trkpt>
      <trkpt lat="47.35207" lon="-1.61928">
        <ele>98</ele>
        <time>2021-08-14T07:43:15.000Z</time>
      </trkpt>
      <trkpt lat="47.35219" lon="-1.61913">
        <ele>98</ele>
        <time>2021-08-14T07:43:17.000Z</time>
      </trkpt>
      <trkpt lat="47.35231" lon="-1.61899">
        <ele>98</ele>
        <time>2021-08-14T07:43:19.000Z</time>
      </trkpt>
      <trkpt lat="47.35242" lon="-1.61886">
        <ele>97</ele>
        <time>2021-08-14T07:43:21.000Z</time>
      </trkpt>
      <trkpt lat="47.35253" lon="-1.61872">
        <ele>97</ele>
        <time>2021-08-14T07:43:23.000Z</time>
      </trkpt>
      <trkpt lat="47.35265" lon="-1.61858">
        <ele>96</ele>
        <time>2021-08-14T07:43:25.000Z</time>
      </trkpt>
      <trkpt lat="47.35276" lon="-1.61845">
        <ele>96</ele>
        <time>2021-08-14T07:43:27.000Z</time>
      </trkpt>
      <trkpt lat="47.35288" lon="-1.61831">
        <ele>96</ele>
        <time>2021-08-14T07:43:29.000Z</time>
      </trkpt>
      <trkpt lat="47.353" lon="-1.61818">
        <ele>96</ele>
        <time>2021-08-14T07:43:31.000Z</time>
      </trkpt>
      <trkpt lat="47.35312" lon="-1.61804">
        <ele>97</ele>
        <time>2021-08-14T07:43:33.000Z</time>
      </trkpt>
      <trkpt lat="47.35324" lon="-1.61791">
        <ele>96</ele>
        <time>2021-08-14T07:43:35.000Z</time>
      </trkpt>
      <trkpt lat="47.35336" lon="-1.61778">
        <ele>96</ele>
        <time>2021-08-14T07:43:37.000Z</time>
      </trkpt>
      <trkpt lat="47.35348" lon="-1.61765">
        <ele>96</ele>
        <time>2021-08-14T07:43:39.000Z</time>
      </trkpt>
      <trkpt lat="47.3536" lon="-1.61752">
        <ele>96</ele>
        <time>2021-08-14T07:43:41.000Z</time>
      </trkpt>
      <trkpt lat="47.35373" lon="-1.61741">
        <ele>97</ele>
        <time>2021-08-14T07:43:43.000Z</time>
      </trkpt>
      <trkpt lat="47.35385" lon="-1.6173">
        <ele>96</ele>
        <time>2021-08-14T07:43:45.000Z</time>
      </trkpt>
      <trkpt lat="47.35398" lon="-1.61719">
        <ele>97</ele>
        <time>2021-08-14T07:43:47.000Z</time>
      </trkpt>
      <trkpt lat="47.35411" lon="-1.61708">
        <ele>97</ele>
        <time>2021-08-14T07:43:49.000Z</time>
      </trkpt>
      <trkpt lat="47.35423" lon="-1.61697">
        <ele>97</ele>
        <time>2021-08-14T07:43:51.000Z</time>
      </trkpt>
      <trkpt lat="47.35436" lon="-1.61686">
        <ele>97</ele>
        <time>2021-08-14T07:43:53.000Z</time>
      </trkpt>
      <trkpt lat="47.35448" lon="-1.61676">
        <ele>97</ele>
        <time>2021-08-14T07:43:55.000Z</time>
      </trkpt>
      <trkpt lat="47.35461" lon="-1.61665">
        <ele>96</ele>
        <time>2021-08-14T07:43:57.000Z</time>
      </trkpt>
      <trkpt lat="47.35473" lon="-1.61654">
        <ele>95</ele>
        <time>2021-08-14T07:43:59.000Z</time>
      </trkpt>
      <trkpt lat="47.35485" lon="-1.61644">
        <ele>95</ele>
        <time>2021-08-14T07:44:01.000Z</time>
      </trkpt>
      <trkpt lat="47.35496" lon="-1.61635">
        <ele>95</ele>
        <time>2021-08-14T07:44:03.000Z</time>
      </trkpt>
      <trkpt lat="47.35506" lon="-1.61626">
        <ele>94</ele>
        <time>2021-08-14T07:44:05.000Z</time>
      </trkpt>
      <trkpt lat="47.3551" lon="-1.61609">
        <ele>95</ele>
        <time>2021-08-14T07:44:07.000Z</time>
      </trkpt>
      <trkpt lat="47.35506" lon="-1.61591">
        <ele>93</ele>
        <time>2021-08-14T07:44:09.000Z</time>
      </trkpt>
      <trkpt lat="47.35503" lon="-1.61569">
        <ele>92</ele>
        <time>2021-08-14T07:44:11.000Z</time>
      </trkpt>
      <trkpt lat="47.355" lon="-1.61548">
        <ele>92</ele>
        <time>2021-08-14T07:44:13.000Z</time>
      </trkpt>
      <trkpt lat="47.35497" lon="-1.61526">
        <ele>92</ele>
        <time>2021-08-14T07:44:15.000Z</time>
      </trkpt>
      <trkpt lat="47.35494" lon="-1.61503">
        <ele>91</ele>
        <time>2021-08-14T07:44:17.000Z</time>
      </trkpt>
      <trkpt lat="47.3549" lon="-1.61481">
        <ele>91</ele>
        <time>2021-08-14T07:44:19.000Z</time>
      </trkpt>
      <trkpt lat="47.35486" lon="-1.61458">
        <ele>90</ele>
        <time>2021-08-14T07:44:21.000Z</time>
      </trkpt>
      <trkpt lat="47.35482" lon="-1.61434">
        <ele>90</ele>
        <time>2021-08-14T07:44:23.000Z</time>
      </trkpt>
      <trkpt lat="47.35478" lon="-1.61411">
        <ele>89</ele>
        <time>2021-08-14T07:44:25.000Z</time>
      </trkpt>
      <trkpt lat="47.35474" lon="-1.61387">
        <ele>89</ele>
        <time>2021-08-14T07:44:27.000Z</time>
      </trkpt>
      <trkpt lat="47.35469" lon="-1.61364">
        <ele>88</ele>
        <time>2021-08-14T07:44:29.000Z</time>
      </trkpt>
      <trkpt lat="47.35464" lon="-1.61342">
        <ele>87</ele>
        <time>2021-08-14T07:44:31.000Z</time>
      </trkpt>
      <trkpt lat="47.3546" lon="-1.61318">
        <ele>87</ele>
        <time>2021-08-14T07:44:33.000Z</time>
      </trkpt>
      <trkpt lat="47.35454" lon="-1.61295">
        <ele>86</ele>
        <time>2021-08-14T07:44:35.000Z</time>
      </trkpt>
      <trkpt lat="47.35449" lon="-1.61272">
        <ele>85</ele>
        <time>2021-08-14T07:44:37.000Z</time>
      </trkpt>
      <trkpt lat="47.35444" lon="-1.6125">
        <ele>85</ele>
        <time>2021-08-14T07:44:39.000Z</time>
      </trkpt>
      <trkpt lat="47.3544" lon="-1.61229">
        <ele>85</ele>
        <time>2021-08-14T07:44:41.000Z</time>
      </trkpt>
      <trkpt lat="47.35437" lon="-1.61207">
        <ele>85</ele>
        <time>2021-08-14T07:44:43.000Z</time>
      </trkpt>
      <trkpt lat="47.35435" lon="-1.61185">
        <ele>85</ele>
        <time>2021-08-14T07:44:45.000Z</time>
      </trkpt>
      <trkpt lat="47.35434" lon="-1.61164">
        <ele>85</ele>
        <time>2021-08-14T07:44:47.000Z</time>
      </trkpt>
      <trkpt lat="47.35434" lon="-1.61143">
        <ele>85</ele>
        <time>2021-08-14T07:44:49.000Z</time>
      </trkpt>
      <trkpt lat="47.35435" lon="-1.61122">
        <ele>85</ele>
        <time>2021-08-14T07:44:51.000Z</time>
      </trkpt>
      <trkpt lat="47.35434" lon="-1.61101">
        <ele>86</ele>
        <time>2021-08-14T07:44:53.000Z</time>
      </trkpt>
      <trkpt lat="47.35435" lon="-1.6108">
        <ele>85</ele>
        <time>2021-08-14T07:44:55.000Z</time>
      </trkpt>
      <trkpt lat="47.35435" lon="-1.61059">
        <ele>86</ele>
        <time>2021-08-14T07:44:57.000Z</time>
      </trkpt>
      <trkpt lat="47.35435" lon="-1.61039">
        <ele>86</ele>
        <time>2021-08-14T07:44:59.000Z</time>
      </trkpt>
      <trkpt lat="47.35435" lon="-1.61017">
        <ele>86</ele>
        <time>2021-08-14T07:45:01.000Z</time>
      </trkpt>
      <trkpt lat="47.35436" lon="-1.60997">
        <ele>85</ele>
        <time>2021-08-14T07:45:03.000Z</time>
      </trkpt>
      <trkpt lat="47.35436" lon="-1.60976">
        <ele>86</ele>
        <time>2021-08-14T07:45:05.000Z</time>
      </trkpt>
      <trkpt lat="47.35436" lon="-1.60955">
        <ele>85</ele>
        <time>2021-08-14T07:45:07.000Z</time>
      </trkpt>
      <trkpt lat="47.35436" lon="-1.60934">
        <ele>85</ele>
        <time>2021-08-14T07:45:09.000Z</time>
      </trkpt>
      <trkpt lat="47.35436" lon="-1.60914">
        <ele>85</ele>
        <time>2021-08-14T07:45:11.000Z</time>
      </trkpt>
      <trkpt lat="47.35435" lon="-1.60894">
        <ele>85</ele>
        <time>2021-08-14T07:45:13.000Z</time>
      </trkpt>
      <trkpt lat="47.35432" lon="-1.60875">
        <ele>85</ele>
        <time>2021-08-14T07:45:15.000Z</time>
      </trkpt>
      <trkpt lat="47.35429" lon="-1.60858">
        <ele>85</ele>
        <time>2021-08-14T07:45:17.000Z</time>
      </trkpt>
      <trkpt lat="47.35426" lon="-1.60839">
        <ele>85</ele>
        <time>2021-08-14T07:45:19.000Z</time>
      </trkpt>
      <trkpt lat="47.35422" lon="-1.60822">
        <ele>86</ele>
        <time>2021-08-14T07:45:21.000Z</time>
      </trkpt>
      <trkpt lat="47.35419" lon="-1.60805">
        <ele>86</ele>
        <time>2021-08-14T07:45:23.000Z</time>
      </trkpt>
      <trkpt lat="47.35416" lon="-1.60788">
        <ele>86</ele>
        <time>2021-08-14T07:45:25.000Z</time>
      </trkpt>
      <trkpt lat="47.35413" lon="-1.60772">
        <ele>87</ele>
        <time>2021-08-14T07:45:27.000Z</time>
      </trkpt>
      <trkpt lat="47.3541" lon="-1.60756">
        <ele>88</ele>
        <time>2021-08-14T07:45:29.000Z</time>
      </trkpt>
      <trkpt lat="47.35408" lon="-1.60739">
        <ele>88</ele>
        <time>2021-08-14T07:45:31.000Z</time>
      </trkpt>
      <trkpt lat="47.35407" lon="-1.60722">
        <ele>88</ele>
        <time>2021-08-14T07:45:33.000Z</time>
      </trkpt>
      <trkpt lat="47.35407" lon="-1.60705">
        <ele>88</ele>
        <time>2021-08-14T07:45:35.000Z</time>
      </trkpt>
      <trkpt lat="47.35406" lon="-1.60688">
        <ele>89</ele>
        <time>2021-08-14T07:45:37.000Z</time>
      </trkpt>
      <trkpt lat="47.35406" lon="-1.60671">
        <ele>89</ele>
        <time>2021-08-14T07:45:39.000Z</time>
      </trkpt>
      <trkpt lat="47.35406" lon="-1.60655">
        <ele>90</ele>
        <time>2021-08-14T07:45:41.000Z</time>
      </trkpt>
      <trkpt lat="47.35406" lon="-1.60638">
        <ele>90</ele>
        <time>2021-08-14T07:45:43.000Z</time>
      </trkpt>
      <trkpt lat="47.35407" lon="-1.60621">
        <ele>90</ele>
        <time>2021-08-14T07:45:45.000Z</time>
      </trkpt>
      <trkpt lat="47.35408" lon="-1.60604">
        <ele>90</ele>
        <time>2021-08-14T07:45:47.000Z</time>
      </trkpt>
      <trkpt lat="47.35408" lon="-1.60588">
        <ele>91</ele>
        <time>2021-08-14T07:45:49.000Z</time>
      </trkpt>
      <trkpt lat="47.35409" lon="-1.60571">
        <ele>90</ele>
        <time>2021-08-14T07:45:51.000Z</time>
      </trkpt>
      <trkpt lat="47.35409" lon="-1.60555">
        <ele>90</ele>
        <time>2021-08-14T07:45:53.000Z</time>
      </trkpt>
      <trkpt lat="47.3541" lon="-1.60539">
        <ele>90</ele>
        <time>2021-08-14T07:45:55.000Z</time>
      </trkpt>
      <trkpt lat="47.3541" lon="-1.60525">
        <ele>90</ele>
        <time>2021-08-14T07:45:57.000Z</time>
      </trkpt>
      <trkpt lat="47.3541" lon="-1.6051">
        <ele>90</ele>
        <time>2021-08-14T07:46:00.000Z</time>
      </trkpt>
      <trkpt lat="47.35411" lon="-1.60496">
        <ele>90</ele>
        <time>2021-08-14T07:46:03.000Z</time>
      </trkpt>
      <trkpt lat="47.35412" lon="-1.60481">
        <ele>91</ele>
        <time>2021-08-14T07:46:05.000Z</time>
      </trkpt>
      <trkpt lat="47.35412" lon="-1.60464">
        <ele>91</ele>
        <time>2021-08-14T07:46:07.000Z</time>
      </trkpt>
      <trkpt lat="47.35413" lon="-1.60446">
        <ele>91</ele>
        <time>2021-08-14T07:46:09.000Z</time>
      </trkpt>
      <trkpt lat="47.35414" lon="-1.60427">
        <ele>91</ele>
        <time>2021-08-14T07:46:11.000Z</time>
      </trkpt>
      <trkpt lat="47.35414" lon="-1.6041">
        <ele>91</ele>
        <time>2021-08-14T07:46:13.000Z</time>
      </trkpt>
      <trkpt lat="47.35414" lon="-1.60391">
        <ele>91</ele>
        <time>2021-08-14T07:46:15.000Z</time>
      </trkpt>
      <trkpt lat="47.35414" lon="-1.60372">
        <ele>91</ele>
        <time>2021-08-14T07:46:17.000Z</time>
      </trkpt>
      <trkpt lat="47.35415" lon="-1.60353">
        <ele>92</ele>
        <time>2021-08-14T07:46:19.000Z</time>
      </trkpt>
      <trkpt lat="47.35415" lon="-1.60335">
        <ele>92</ele>
        <time>2021-08-14T07:46:21.000Z</time>
      </trkpt>
      <trkpt lat="47.35416" lon="-1.60316">
        <ele>92</ele>
        <time>2021-08-14T07:46:23.000Z</time>
      </trkpt>
      <trkpt lat="47.35416" lon="-1.60297">
        <ele>92</ele>
        <time>2021-08-14T07:46:25.000Z</time>
      </trkpt>
      <trkpt lat="47.35417" lon="-1.60279">
        <ele>92</ele>
        <time>2021-08-14T07:46:27.000Z</time>
      </trkpt>
      <trkpt lat="47.35418" lon="-1.60261">
        <ele>92</ele>
        <time>2021-08-14T07:46:29.000Z</time>
      </trkpt>
      <trkpt lat="47.35418" lon="-1.60242">
        <ele>92</ele>
        <time>2021-08-14T07:46:31.000Z</time>
      </trkpt>
      <trkpt lat="47.35419" lon="-1.60224">
        <ele>92</ele>
        <time>2021-08-14T07:46:33.000Z</time>
      </trkpt>
      <trkpt lat="47.3542" lon="-1.60205">
        <ele>92</ele>
        <time>2021-08-14T07:46:35.000Z</time>
      </trkpt>
      <trkpt lat="47.3542" lon="-1.60186">
        <ele>91</ele>
        <time>2021-08-14T07:46:37.000Z</time>
      </trkpt>
      <trkpt lat="47.35419" lon="-1.60167">
        <ele>91</ele>
        <time>2021-08-14T07:46:39.000Z</time>
      </trkpt>
      <trkpt lat="47.35416" lon="-1.60137">
        <ele>91</ele>
        <time>2021-08-14T07:46:42.000Z</time>
      </trkpt>
      <trkpt lat="47.35415" lon="-1.60118">
        <ele>91</ele>
        <time>2021-08-14T07:46:44.000Z</time>
      </trkpt>
      <trkpt lat="47.35416" lon="-1.60098">
        <ele>91</ele>
        <time>2021-08-14T07:46:46.000Z</time>
      </trkpt>
      <trkpt lat="47.35421" lon="-1.60067">
        <ele>91</ele>
        <time>2021-08-14T07:46:49.000Z</time>
      </trkpt>
      <trkpt lat="47.35428" lon="-1.60038">
        <ele>91</ele>
        <time>2021-08-14T07:46:52.000Z</time>
      </trkpt>
      <trkpt lat="47.35433" lon="-1.60019">
        <ele>91</ele>
        <time>2021-08-14T07:46:54.000Z</time>
      </trkpt>
      <trkpt lat="47.35438" lon="-1.6">
        <ele>91</ele>
        <time>2021-08-14T07:46:56.000Z</time>
      </trkpt>
      <trkpt lat="47.35442" lon="-1.59981">
        <ele>91</ele>
        <time>2021-08-14T07:46:58.000Z</time>
      </trkpt>
      <trkpt lat="47.35446" lon="-1.59961">
        <ele>91</ele>
        <time>2021-08-14T07:47:00.000Z</time>
      </trkpt>
      <trkpt lat="47.35448" lon="-1.59941">
        <ele>91</ele>
        <time>2021-08-14T07:47:02.000Z</time>
      </trkpt>
      <trkpt lat="47.3545" lon="-1.59923">
        <ele>91</ele>
        <time>2021-08-14T07:47:04.000Z</time>
      </trkpt>
      <trkpt lat="47.35453" lon="-1.59898">
        <ele>91</ele>
        <time>2021-08-14T07:47:07.000Z</time>
      </trkpt>
      <trkpt lat="47.35455" lon="-1.59881">
        <ele>91</ele>
        <time>2021-08-14T07:47:09.000Z</time>
      </trkpt>
      <trkpt lat="47.35458" lon="-1.59864">
        <ele>91</ele>
        <time>2021-08-14T07:47:11.000Z</time>
      </trkpt>
      <trkpt lat="47.3546" lon="-1.59846">
        <ele>91</ele>
        <time>2021-08-14T07:47:13.000Z</time>
      </trkpt>
      <trkpt lat="47.35463" lon="-1.59829">
        <ele>91</ele>
        <time>2021-08-14T07:47:15.000Z</time>
      </trkpt>
      <trkpt lat="47.35465" lon="-1.59813">
        <ele>92</ele>
        <time>2021-08-14T07:47:17.000Z</time>
      </trkpt>
      <trkpt lat="47.35465" lon="-1.598">
        <ele>92</ele>
        <time>2021-08-14T07:47:19.000Z</time>
      </trkpt>
      <trkpt lat="47.35453" lon="-1.5979">
        <ele>91</ele>
        <time>2021-08-14T07:47:22.000Z</time>
      </trkpt>
      <trkpt lat="47.3544" lon="-1.59787">
        <ele>91</ele>
        <time>2021-08-14T07:47:24.000Z</time>
      </trkpt>
      <trkpt lat="47.35428" lon="-1.59783">
        <ele>90</ele>
        <time>2021-08-14T07:47:26.000Z</time>
      </trkpt>
      <trkpt lat="47.35414" lon="-1.59778">
        <ele>90</ele>
        <time>2021-08-14T07:47:28.000Z</time>
      </trkpt>
      <trkpt lat="47.35401" lon="-1.59774">
        <ele>89</ele>
        <time>2021-08-14T07:47:30.000Z</time>
      </trkpt>
      <trkpt lat="47.35387" lon="-1.59769">
        <ele>89</ele>
        <time>2021-08-14T07:47:32.000Z</time>
      </trkpt>
      <trkpt lat="47.35373" lon="-1.59764">
        <ele>88</ele>
        <time>2021-08-14T07:47:34.000Z</time>
      </trkpt>
      <trkpt lat="47.35359" lon="-1.59759">
        <ele>87</ele>
        <time>2021-08-14T07:47:36.000Z</time>
      </trkpt>
      <trkpt lat="47.35345" lon="-1.59751">
        <ele>87</ele>
        <time>2021-08-14T07:47:38.000Z</time>
      </trkpt>
      <trkpt lat="47.3533" lon="-1.59741">
        <ele>87</ele>
        <time>2021-08-14T07:47:40.000Z</time>
      </trkpt>
      <trkpt lat="47.35315" lon="-1.59728">
        <ele>87</ele>
        <time>2021-08-14T07:47:42.000Z</time>
      </trkpt>
      <trkpt lat="47.35302" lon="-1.59713">
        <ele>86</ele>
        <time>2021-08-14T07:47:44.000Z</time>
      </trkpt>
      <trkpt lat="47.35289" lon="-1.59697">
        <ele>85</ele>
        <time>2021-08-14T07:47:46.000Z</time>
      </trkpt>
      <trkpt lat="47.35275" lon="-1.5968">
        <ele>85</ele>
        <time>2021-08-14T07:47:48.000Z</time>
      </trkpt>
      <trkpt lat="47.35262" lon="-1.59662">
        <ele>84</ele>
        <time>2021-08-14T07:47:50.000Z</time>
      </trkpt>
      <trkpt lat="47.35248" lon="-1.59645">
        <ele>83</ele>
        <time>2021-08-14T07:47:52.000Z</time>
      </trkpt>
      <trkpt lat="47.35234" lon="-1.59629">
        <ele>83</ele>
        <time>2021-08-14T07:47:54.000Z</time>
      </trkpt>
      <trkpt lat="47.35219" lon="-1.59613">
        <ele>83</ele>
        <time>2021-08-14T07:47:56.000Z</time>
      </trkpt>
      <trkpt lat="47.35212" lon="-1.59605">
        <ele>83</ele>
        <time>2021-08-14T07:47:57.000Z</time>
      </trkpt>
      <trkpt lat="47.35204" lon="-1.59596">
        <ele>83</ele>
        <time>2021-08-14T07:47:58.000Z</time>
      </trkpt>
      <trkpt lat="47.35196" lon="-1.59587">
        <ele>82</ele>
        <time>2021-08-14T07:47:59.000Z</time>
      </trkpt>
      <trkpt lat="47.35189" lon="-1.59577">
        <ele>81</ele>
        <time>2021-08-14T07:48:00.000Z</time>
      </trkpt>
      <trkpt lat="47.35181" lon="-1.59567">
        <ele>81</ele>
        <time>2021-08-14T07:48:01.000Z</time>
      </trkpt>
      <trkpt lat="47.35173" lon="-1.59555">
        <ele>80</ele>
        <time>2021-08-14T07:48:02.000Z</time>
      </trkpt>
      <trkpt lat="47.35164" lon="-1.59545">
        <ele>79</ele>
        <time>2021-08-14T07:48:03.000Z</time>
      </trkpt>
      <trkpt lat="47.35156" lon="-1.59534">
        <ele>77</ele>
        <time>2021-08-14T07:48:04.000Z</time>
      </trkpt>
      <trkpt lat="47.35148" lon="-1.59524">
        <ele>76</ele>
        <time>2021-08-14T07:48:05.000Z</time>
      </trkpt>
      <trkpt lat="47.35139" lon="-1.59514">
        <ele>75</ele>
        <time>2021-08-14T07:48:06.000Z</time>
      </trkpt>
      <trkpt lat="47.35131" lon="-1.59504">
        <ele>74</ele>
        <time>2021-08-14T07:48:07.000Z</time>
      </trkpt>
      <trkpt lat="47.35123" lon="-1.59494">
        <ele>74</ele>
        <time>2021-08-14T07:48:08.000Z</time>
      </trkpt>
      <trkpt lat="47.35115" lon="-1.59484">
        <ele>74</ele>
        <time>2021-08-14T07:48:09.000Z</time>
      </trkpt>
      <trkpt lat="47.35106" lon="-1.59474">
        <ele>73</ele>
        <time>2021-08-14T07:48:10.000Z</time>
      </trkpt>
      <trkpt lat="47.35099" lon="-1.59465">
        <ele>72</ele>
        <time>2021-08-14T07:48:11.000Z</time>
      </trkpt>
      <trkpt lat="47.35091" lon="-1.59455">
        <ele>72</ele>
        <time>2021-08-14T07:48:12.000Z</time>
      </trkpt>
      <trkpt lat="47.35083" lon="-1.59446">
        <ele>72</ele>
        <time>2021-08-14T07:48:13.000Z</time>
      </trkpt>
      <trkpt lat="47.35075" lon="-1.59436">
        <ele>72</ele>
        <time>2021-08-14T07:48:14.000Z</time>
      </trkpt>
      <trkpt lat="47.35067" lon="-1.59426">
        <ele>72</ele>
        <time>2021-08-14T07:48:15.000Z</time>
      </trkpt>
      <trkpt lat="47.35059" lon="-1.59417">
        <ele>72</ele>
        <time>2021-08-14T07:48:16.000Z</time>
      </trkpt>
      <trkpt lat="47.35052" lon="-1.59408">
        <ele>73</ele>
        <time>2021-08-14T07:48:17.000Z</time>
      </trkpt>
      <trkpt lat="47.35045" lon="-1.59399">
        <ele>73</ele>
        <time>2021-08-14T07:48:18.000Z</time>
      </trkpt>
      <trkpt lat="47.35033" lon="-1.59384">
        <ele>73</ele>
        <time>2021-08-14T07:48:20.000Z</time>
      </trkpt>
      <trkpt lat="47.35022" lon="-1.5937">
        <ele>73</ele>
        <time>2021-08-14T07:48:22.000Z</time>
      </trkpt>
      <trkpt lat="47.35011" lon="-1.59358">
        <ele>73</ele>
        <time>2021-08-14T07:48:24.000Z</time>
      </trkpt>
      <trkpt lat="47.35001" lon="-1.59346">
        <ele>73</ele>
        <time>2021-08-14T07:48:26.000Z</time>
      </trkpt>
      <trkpt lat="47.34992" lon="-1.59334">
        <ele>74</ele>
        <time>2021-08-14T07:48:28.000Z</time>
      </trkpt>
      <trkpt lat="47.34984" lon="-1.59322">
        <ele>75</ele>
        <time>2021-08-14T07:48:30.000Z</time>
      </trkpt>
      <trkpt lat="47.34974" lon="-1.59311">
        <ele>76</ele>
        <time>2021-08-14T07:48:32.000Z</time>
      </trkpt>
      <trkpt lat="47.34966" lon="-1.59301">
        <ele>77</ele>
        <time>2021-08-14T07:48:34.000Z</time>
      </trkpt>
      <trkpt lat="47.34957" lon="-1.59293">
        <ele>79</ele>
        <time>2021-08-14T07:48:36.000Z</time>
      </trkpt>
      <trkpt lat="47.34949" lon="-1.59283">
        <ele>80</ele>
        <time>2021-08-14T07:48:38.000Z</time>
      </trkpt>
      <trkpt lat="47.34942" lon="-1.59274">
        <ele>81</ele>
        <time>2021-08-14T07:48:40.000Z</time>
      </trkpt>
      <trkpt lat="47.34933" lon="-1.59265">
        <ele>81</ele>
        <time>2021-08-14T07:48:42.000Z</time>
      </trkpt>
      <trkpt lat="47.34924" lon="-1.59255">
        <ele>82</ele>
        <time>2021-08-14T07:48:44.000Z</time>
      </trkpt>
      <trkpt lat="47.34915" lon="-1.59242">
        <ele>82</ele>
        <time>2021-08-14T07:48:46.000Z</time>
      </trkpt>
      <trkpt lat="47.34906" lon="-1.59232">
        <ele>83</ele>
        <time>2021-08-14T07:48:48.000Z</time>
      </trkpt>
      <trkpt lat="47.34897" lon="-1.59223">
        <ele>83</ele>
        <time>2021-08-14T07:48:50.000Z</time>
      </trkpt>
      <trkpt lat="47.34889" lon="-1.59211">
        <ele>84</ele>
        <time>2021-08-14T07:48:52.000Z</time>
      </trkpt>
      <trkpt lat="47.34879" lon="-1.592">
        <ele>85</ele>
        <time>2021-08-14T07:48:54.000Z</time>
      </trkpt>
      <trkpt lat="47.34871" lon="-1.5919">
        <ele>85</ele>
        <time>2021-08-14T07:48:56.000Z</time>
      </trkpt>
      <trkpt lat="47.34863" lon="-1.5918">
        <ele>85</ele>
        <time>2021-08-14T07:48:58.000Z</time>
      </trkpt>
      <trkpt lat="47.34854" lon="-1.59169">
        <ele>85</ele>
        <time>2021-08-14T07:49:00.000Z</time>
      </trkpt>
      <trkpt lat="47.34846" lon="-1.59158">
        <ele>86</ele>
        <time>2021-08-14T07:49:02.000Z</time>
      </trkpt>
      <trkpt lat="47.34839" lon="-1.59148">
        <ele>87</ele>
        <time>2021-08-14T07:49:04.000Z</time>
      </trkpt>
      <trkpt lat="47.34831" lon="-1.59137">
        <ele>87</ele>
        <time>2021-08-14T07:49:06.000Z</time>
      </trkpt>
      <trkpt lat="47.34822" lon="-1.59126">
        <ele>88</ele>
        <time>2021-08-14T07:49:08.000Z</time>
      </trkpt>
      <trkpt lat="47.34814" lon="-1.59116">
        <ele>88</ele>
        <time>2021-08-14T07:49:10.000Z</time>
      </trkpt>
      <trkpt lat="47.34806" lon="-1.59106">
        <ele>88</ele>
        <time>2021-08-14T07:49:12.000Z</time>
      </trkpt>
      <trkpt lat="47.34798" lon="-1.59095">
        <ele>88</ele>
        <time>2021-08-14T07:49:14.000Z</time>
      </trkpt>
      <trkpt lat="47.34789" lon="-1.59085">
        <ele>88</ele>
        <time>2021-08-14T07:49:16.000Z</time>
      </trkpt>
      <trkpt lat="47.34781" lon="-1.59075">
        <ele>88</ele>
        <time>2021-08-14T07:49:18.000Z</time>
      </trkpt>
      <trkpt lat="47.34772" lon="-1.59065">
        <ele>89</ele>
        <time>2021-08-14T07:49:20.000Z</time>
      </trkpt>
      <trkpt lat="47.34764" lon="-1.59054">
        <ele>89</ele>
        <time>2021-08-14T07:49:22.000Z</time>
      </trkpt>
      <trkpt lat="47.34755" lon="-1.59044">
        <ele>89</ele>
        <time>2021-08-14T07:49:24.000Z</time>
      </trkpt>
      <trkpt lat="47.34746" lon="-1.59034">
        <ele>89</ele>
        <time>2021-08-14T07:49:26.000Z</time>
      </trkpt>
      <trkpt lat="47.34738" lon="-1.59023">
        <ele>89</ele>
        <time>2021-08-14T07:49:28.000Z</time>
      </trkpt>
      <trkpt lat="47.3473" lon="-1.59012">
        <ele>89</ele>
        <time>2021-08-14T07:49:30.000Z</time>
      </trkpt>
      <trkpt lat="47.34722" lon="-1.59001">
        <ele>89</ele>
        <time>2021-08-14T07:49:32.000Z</time>
      </trkpt>
      <trkpt lat="47.34714" lon="-1.5899">
        <ele>88</ele>
        <time>2021-08-14T07:49:34.000Z</time>
      </trkpt>
      <trkpt lat="47.34705" lon="-1.5898">
        <ele>89</ele>
        <time>2021-08-14T07:49:36.000Z</time>
      </trkpt>
      <trkpt lat="47.34696" lon="-1.5897">
        <ele>89</ele>
        <time>2021-08-14T07:49:38.000Z</time>
      </trkpt>
      <trkpt lat="47.34687" lon="-1.58959">
        <ele>88</ele>
        <time>2021-08-14T07:49:40.000Z</time>
      </trkpt>
      <trkpt lat="47.34678" lon="-1.58948">
        <ele>88</ele>
        <time>2021-08-14T07:49:42.000Z</time>
      </trkpt>
      <trkpt lat="47.34669" lon="-1.58936">
        <ele>89</ele>
        <time>2021-08-14T07:49:44.000Z</time>
      </trkpt>
      <trkpt lat="47.3466" lon="-1.58925">
        <ele>89</ele>
        <time>2021-08-14T07:49:46.000Z</time>
      </trkpt>
      <trkpt lat="47.3465" lon="-1.58913">
        <ele>88</ele>
        <time>2021-08-14T07:49:48.000Z</time>
      </trkpt>
      <trkpt lat="47.3464" lon="-1.58901">
        <ele>88</ele>
        <time>2021-08-14T07:49:50.000Z</time>
      </trkpt>
      <trkpt lat="47.34631" lon="-1.5889">
        <ele>88</ele>
        <time>2021-08-14T07:49:52.000Z</time>
      </trkpt>
      <trkpt lat="47.34621" lon="-1.58878">
        <ele>88</ele>
        <time>2021-08-14T07:49:54.000Z</time>
      </trkpt>
      <trkpt lat="47.34612" lon="-1.58866">
        <ele>88</ele>
        <time>2021-08-14T07:49:56.000Z</time>
      </trkpt>
      <trkpt lat="47.34602" lon="-1.58854">
        <ele>88</ele>
        <time>2021-08-14T07:49:58.000Z</time>
      </trkpt>
      <trkpt lat="47.34592" lon="-1.58841">
        <ele>88</ele>
        <time>2021-08-14T07:50:00.000Z</time>
      </trkpt>
      <trkpt lat="47.34582" lon="-1.58828">
        <ele>88</ele>
        <time>2021-08-14T07:50:02.000Z</time>
      </trkpt>
      <trkpt lat="47.34571" lon="-1.58815">
        <ele>88</ele>
        <time>2021-08-14T07:50:04.000Z</time>
      </trkpt>
      <trkpt lat="47.3456" lon="-1.58802">
        <ele>87</ele>
        <time>2021-08-14T07:50:06.000Z</time>
      </trkpt>
      <trkpt lat="47.3455" lon="-1.58789">
        <ele>88</ele>
        <time>2021-08-14T07:50:08.000Z</time>
      </trkpt>
      <trkpt lat="47.34539" lon="-1.58775">
        <ele>88</ele>
        <time>2021-08-14T07:50:10.000Z</time>
      </trkpt>
      <trkpt lat="47.34528" lon="-1.58761">
        <ele>88</ele>
        <time>2021-08-14T07:50:12.000Z</time>
      </trkpt>
      <trkpt lat="47.34517" lon="-1.58748">
        <ele>88</ele>
        <time>2021-08-14T07:50:14.000Z</time>
      </trkpt>
      <trkpt lat="47.34506" lon="-1.58735">
        <ele>88</ele>
        <time>2021-08-14T07:50:16.000Z</time>
      </trkpt>
      <trkpt lat="47.34497" lon="-1.58722">
        <ele>89</ele>
        <time>2021-08-14T07:50:18.000Z</time>
      </trkpt>
      <trkpt lat="47.34487" lon="-1.58708">
        <ele>89</ele>
        <time>2021-08-14T07:50:20.000Z</time>
      </trkpt>
      <trkpt lat="47.34478" lon="-1.58695">
        <ele>90</ele>
        <time>2021-08-14T07:50:22.000Z</time>
      </trkpt>
      <trkpt lat="47.3447" lon="-1.58682">
        <ele>90</ele>
        <time>2021-08-14T07:50:24.000Z</time>
      </trkpt>
      <trkpt lat="47.34462" lon="-1.58669">
        <ele>90</ele>
        <time>2021-08-14T07:50:26.000Z</time>
      </trkpt>
      <trkpt lat="47.34454" lon="-1.58656">
        <ele>91</ele>
        <time>2021-08-14T07:50:28.000Z</time>
      </trkpt>
      <trkpt lat="47.34445" lon="-1.58643">
        <ele>91</ele>
        <time>2021-08-14T07:50:30.000Z</time>
      </trkpt>
      <trkpt lat="47.34437" lon="-1.58631">
        <ele>92</ele>
        <time>2021-08-14T07:50:32.000Z</time>
      </trkpt>
      <trkpt lat="47.34428" lon="-1.58619">
        <ele>92</ele>
        <time>2021-08-14T07:50:34.000Z</time>
      </trkpt>
      <trkpt lat="47.3442" lon="-1.58607">
        <ele>92</ele>
        <time>2021-08-14T07:50:36.000Z</time>
      </trkpt>
      <trkpt lat="47.3441" lon="-1.58594">
        <ele>93</ele>
        <time>2021-08-14T07:50:38.000Z</time>
      </trkpt>
      <trkpt lat="47.34401" lon="-1.58582">
        <ele>93</ele>
        <time>2021-08-14T07:50:40.000Z</time>
      </trkpt>
      <trkpt lat="47.34392" lon="-1.5857">
        <ele>94</ele>
        <time>2021-08-14T07:50:42.000Z</time>
      </trkpt>
      <trkpt lat="47.34382" lon="-1.5856">
        <ele>94</ele>
        <time>2021-08-14T07:50:44.000Z</time>
      </trkpt>
      <trkpt lat="47.34373" lon="-1.58548">
        <ele>94</ele>
        <time>2021-08-14T07:50:46.000Z</time>
      </trkpt>
      <trkpt lat="47.34363" lon="-1.58536">
        <ele>94</ele>
        <time>2021-08-14T07:50:48.000Z</time>
      </trkpt>
      <trkpt lat="47.34354" lon="-1.58525">
        <ele>94</ele>
        <time>2021-08-14T07:50:50.000Z</time>
      </trkpt>
      <trkpt lat="47.34345" lon="-1.58514">
        <ele>94</ele>
        <time>2021-08-14T07:50:52.000Z</time>
      </trkpt>
      <trkpt lat="47.34336" lon="-1.58502">
        <ele>94</ele>
        <time>2021-08-14T07:50:54.000Z</time>
      </trkpt>
      <trkpt lat="47.34327" lon="-1.58489">
        <ele>94</ele>
        <time>2021-08-14T07:50:56.000Z</time>
      </trkpt>
      <trkpt lat="47.34318" lon="-1.58476">
        <ele>94</ele>
        <time>2021-08-14T07:50:58.000Z</time>
      </trkpt>
      <trkpt lat="47.3431" lon="-1.58462">
        <ele>94</ele>
        <time>2021-08-14T07:51:00.000Z</time>
      </trkpt>
      <trkpt lat="47.343" lon="-1.58449">
        <ele>94</ele>
        <time>2021-08-14T07:51:02.000Z</time>
      </trkpt>
      <trkpt lat="47.3429" lon="-1.58435">
        <ele>94</ele>
        <time>2021-08-14T07:51:04.000Z</time>
      </trkpt>
      <trkpt lat="47.3428" lon="-1.58421">
        <ele>93</ele>
        <time>2021-08-14T07:51:06.000Z</time>
      </trkpt>
      <trkpt lat="47.34269" lon="-1.58407">
        <ele>92</ele>
        <time>2021-08-14T07:51:08.000Z</time>
      </trkpt>
      <trkpt lat="47.34259" lon="-1.58392">
        <ele>92</ele>
        <time>2021-08-14T07:51:10.000Z</time>
      </trkpt>
      <trkpt lat="47.34248" lon="-1.58377">
        <ele>91</ele>
        <time>2021-08-14T07:51:12.000Z</time>
      </trkpt>
      <trkpt lat="47.34236" lon="-1.58362">
        <ele>90</ele>
        <time>2021-08-14T07:51:14.000Z</time>
      </trkpt>
      <trkpt lat="47.34225" lon="-1.58347">
        <ele>90</ele>
        <time>2021-08-14T07:51:16.000Z</time>
      </trkpt>
      <trkpt lat="47.34214" lon="-1.58331">
        <ele>89</ele>
        <time>2021-08-14T07:51:18.000Z</time>
      </trkpt>
      <trkpt lat="47.34202" lon="-1.58315">
        <ele>89</ele>
        <time>2021-08-14T07:51:20.000Z</time>
      </trkpt>
      <trkpt lat="47.34189" lon="-1.58299">
        <ele>89</ele>
        <time>2021-08-14T07:51:22.000Z</time>
      </trkpt>
      <trkpt lat="47.34177" lon="-1.58282">
        <ele>88</ele>
        <time>2021-08-14T07:51:24.000Z</time>
      </trkpt>
      <trkpt lat="47.34166" lon="-1.58265">
        <ele>87</ele>
        <time>2021-08-14T07:51:26.000Z</time>
      </trkpt>
      <trkpt lat="47.34153" lon="-1.58248">
        <ele>87</ele>
        <time>2021-08-14T07:51:28.000Z</time>
      </trkpt>
      <trkpt lat="47.34141" lon="-1.58231">
        <ele>87</ele>
        <time>2021-08-14T07:51:30.000Z</time>
      </trkpt>
      <trkpt lat="47.34128" lon="-1.58215">
        <ele>86</ele>
        <time>2021-08-14T07:51:32.000Z</time>
      </trkpt>
      <trkpt lat="47.34116" lon="-1.58198">
        <ele>86</ele>
        <time>2021-08-14T07:51:34.000Z</time>
      </trkpt>
      <trkpt lat="47.34104" lon="-1.58182">
        <ele>86</ele>
        <time>2021-08-14T07:51:36.000Z</time>
      </trkpt>
      <trkpt lat="47.34092" lon="-1.58166">
        <ele>86</ele>
        <time>2021-08-14T07:51:38.000Z</time>
      </trkpt>
      <trkpt lat="47.3408" lon="-1.58151">
        <ele>86</ele>
        <time>2021-08-14T07:51:40.000Z</time>
      </trkpt>
      <trkpt lat="47.34068" lon="-1.58135">
        <ele>86</ele>
        <time>2021-08-14T07:51:42.000Z</time>
      </trkpt>
      <trkpt lat="47.34055" lon="-1.58117">
        <ele>86</ele>
        <time>2021-08-14T07:51:44.000Z</time>
      </trkpt>
      <trkpt lat="47.34043" lon="-1.581">
        <ele>86</ele>
        <time>2021-08-14T07:51:46.000Z</time>
      </trkpt>
      <trkpt lat="47.3403" lon="-1.58083">
        <ele>85</ele>
        <time>2021-08-14T07:51:48.000Z</time>
      </trkpt>
      <trkpt lat="47.34018" lon="-1.58066">
        <ele>85</ele>
        <time>2021-08-14T07:51:50.000Z</time>
      </trkpt>
      <trkpt lat="47.34006" lon="-1.5805">
        <ele>85</ele>
        <time>2021-08-14T07:51:52.000Z</time>
      </trkpt>
      <trkpt lat="47.33994" lon="-1.58033">
        <ele>84</ele>
        <time>2021-08-14T07:51:54.000Z</time>
      </trkpt>
      <trkpt lat="47.33987" lon="-1.58023">
        <ele>84</ele>
        <time>2021-08-14T07:51:55.000Z</time>
      </trkpt>
      <trkpt lat="47.33975" lon="-1.58005">
        <ele>84</ele>
        <time>2021-08-14T07:51:57.000Z</time>
      </trkpt>
      <trkpt lat="47.33964" lon="-1.57989">
        <ele>83</ele>
        <time>2021-08-14T07:51:59.000Z</time>
      </trkpt>
      <trkpt lat="47.33953" lon="-1.57973">
        <ele>83</ele>
        <time>2021-08-14T07:52:01.000Z</time>
      </trkpt>
      <trkpt lat="47.33942" lon="-1.57958">
        <ele>83</ele>
        <time>2021-08-14T07:52:03.000Z</time>
      </trkpt>
      <trkpt lat="47.33931" lon="-1.57943">
        <ele>83</ele>
        <time>2021-08-14T07:52:05.000Z</time>
      </trkpt>
      <trkpt lat="47.33921" lon="-1.57929">
        <ele>84</ele>
        <time>2021-08-14T07:52:07.000Z</time>
      </trkpt>
      <trkpt lat="47.33911" lon="-1.57916">
        <ele>84</ele>
        <time>2021-08-14T07:52:09.000Z</time>
      </trkpt>
      <trkpt lat="47.33901" lon="-1.57903">
        <ele>85</ele>
        <time>2021-08-14T07:52:11.000Z</time>
      </trkpt>
      <trkpt lat="47.33891" lon="-1.57891">
        <ele>85</ele>
        <time>2021-08-14T07:52:13.000Z</time>
      </trkpt>
      <trkpt lat="47.33882" lon="-1.57878">
        <ele>85</ele>
        <time>2021-08-14T07:52:15.000Z</time>
      </trkpt>
      <trkpt lat="47.33872" lon="-1.57866">
        <ele>86</ele>
        <time>2021-08-14T07:52:17.000Z</time>
      </trkpt>
      <trkpt lat="47.33863" lon="-1.57855">
        <ele>86</ele>
        <time>2021-08-14T07:52:19.000Z</time>
      </trkpt>
      <trkpt lat="47.33854" lon="-1.57846">
        <ele>86</ele>
        <time>2021-08-14T07:52:21.000Z</time>
      </trkpt>
      <trkpt lat="47.33846" lon="-1.57839">
        <ele>86</ele>
        <time>2021-08-14T07:52:23.000Z</time>
      </trkpt>
      <trkpt lat="47.33839" lon="-1.57824">
        <ele>87</ele>
        <time>2021-08-14T07:52:26.000Z</time>
      </trkpt>
      <trkpt lat="47.3384" lon="-1.57809">
        <ele>87</ele>
        <time>2021-08-14T07:52:28.000Z</time>
      </trkpt>
      <trkpt lat="47.33844" lon="-1.57793">
        <ele>87</ele>
        <time>2021-08-14T07:52:30.000Z</time>
      </trkpt>
      <trkpt lat="47.33848" lon="-1.57777">
        <ele>87</ele>
        <time>2021-08-14T07:52:32.000Z</time>
      </trkpt>
      <trkpt lat="47.33852" lon="-1.57761">
        <ele>88</ele>
        <time>2021-08-14T07:52:34.000Z</time>
      </trkpt>
      <trkpt lat="47.33857" lon="-1.57746">
        <ele>88</ele>
        <time>2021-08-14T07:52:36.000Z</time>
      </trkpt>
      <trkpt lat="47.33861" lon="-1.5773">
        <ele>89</ele>
        <time>2021-08-14T07:52:38.000Z</time>
      </trkpt>
      <trkpt lat="47.33865" lon="-1.57714">
        <ele>89</ele>
        <time>2021-08-14T07:52:40.000Z</time>
      </trkpt>
      <trkpt lat="47.3387" lon="-1.57698">
        <ele>89</ele>
        <time>2021-08-14T07:52:42.000Z</time>
      </trkpt>
      <trkpt lat="47.33874" lon="-1.57682">
        <ele>90</ele>
        <time>2021-08-14T07:52:44.000Z</time>
      </trkpt>
      <trkpt lat="47.33879" lon="-1.57665">
        <ele>90</ele>
        <time>2021-08-14T07:52:46.000Z</time>
      </trkpt>
      <trkpt lat="47.33884" lon="-1.57649">
        <ele>90</ele>
        <time>2021-08-14T07:52:48.000Z</time>
      </trkpt>
      <trkpt lat="47.33889" lon="-1.57632">
        <ele>90</ele>
        <time>2021-08-14T07:52:50.000Z</time>
      </trkpt>
      <trkpt lat="47.33893" lon="-1.57615">
        <ele>91</ele>
        <time>2021-08-14T07:52:52.000Z</time>
      </trkpt>
      <trkpt lat="47.33897" lon="-1.57599">
        <ele>91</ele>
        <time>2021-08-14T07:52:54.000Z</time>
      </trkpt>
      <trkpt lat="47.33901" lon="-1.57582">
        <ele>91</ele>
        <time>2021-08-14T07:52:56.000Z</time>
      </trkpt>
      <trkpt lat="47.33906" lon="-1.57565">
        <ele>90</ele>
        <time>2021-08-14T07:52:58.000Z</time>
      </trkpt>
      <trkpt lat="47.33912" lon="-1.57547">
        <ele>90</ele>
        <time>2021-08-14T07:53:00.000Z</time>
      </trkpt>
      <trkpt lat="47.33918" lon="-1.57528">
        <ele>89</ele>
        <time>2021-08-14T07:53:02.000Z</time>
      </trkpt>
      <trkpt lat="47.33923" lon="-1.57509">
        <ele>89</ele>
        <time>2021-08-14T07:53:04.000Z</time>
      </trkpt>
      <trkpt lat="47.33929" lon="-1.57489">
        <ele>89</ele>
        <time>2021-08-14T07:53:06.000Z</time>
      </trkpt>
      <trkpt lat="47.33935" lon="-1.57469">
        <ele>89</ele>
        <time>2021-08-14T07:53:08.000Z</time>
      </trkpt>
      <trkpt lat="47.33941" lon="-1.57448">
        <ele>88</ele>
        <time>2021-08-14T07:53:10.000Z</time>
      </trkpt>
      <trkpt lat="47.33947" lon="-1.57427">
        <ele>87</ele>
        <time>2021-08-14T07:53:12.000Z</time>
      </trkpt>
      <trkpt lat="47.33953" lon="-1.57405">
        <ele>86</ele>
        <time>2021-08-14T07:53:14.000Z</time>
      </trkpt>
      <trkpt lat="47.3396" lon="-1.57384">
        <ele>85</ele>
        <time>2021-08-14T07:53:16.000Z</time>
      </trkpt>
      <trkpt lat="47.33966" lon="-1.57362">
        <ele>85</ele>
        <time>2021-08-14T07:53:18.000Z</time>
      </trkpt>
      <trkpt lat="47.33972" lon="-1.57339">
        <ele>84</ele>
        <time>2021-08-14T07:53:20.000Z</time>
      </trkpt>
      <trkpt lat="47.33977" lon="-1.57316">
        <ele>83</ele>
        <time>2021-08-14T07:53:22.000Z</time>
      </trkpt>
      <trkpt lat="47.3398" lon="-1.57293">
        <ele>83</ele>
        <time>2021-08-14T07:53:24.000Z</time>
      </trkpt>
      <trkpt lat="47.33983" lon="-1.57269">
        <ele>82</ele>
        <time>2021-08-14T07:53:26.000Z</time>
      </trkpt>
      <trkpt lat="47.33986" lon="-1.57245">
        <ele>81</ele>
        <time>2021-08-14T07:53:28.000Z</time>
      </trkpt>
      <trkpt lat="47.33987" lon="-1.57222">
        <ele>81</ele>
        <time>2021-08-14T07:53:30.000Z</time>
      </trkpt>
      <trkpt lat="47.33989" lon="-1.57199">
        <ele>80</ele>
        <time>2021-08-14T07:53:32.000Z</time>
      </trkpt>
      <trkpt lat="47.33991" lon="-1.57177">
        <ele>80</ele>
        <time>2021-08-14T07:53:34.000Z</time>
      </trkpt>
      <trkpt lat="47.33992" lon="-1.57155">
        <ele>80</ele>
        <time>2021-08-14T07:53:36.000Z</time>
      </trkpt>
      <trkpt lat="47.33992" lon="-1.57133">
        <ele>79</ele>
        <time>2021-08-14T07:53:38.000Z</time>
      </trkpt>
      <trkpt lat="47.33992" lon="-1.57112">
        <ele>80</ele>
        <time>2021-08-14T07:53:40.000Z</time>
      </trkpt>
      <trkpt lat="47.33992" lon="-1.5709">
        <ele>80</ele>
        <time>2021-08-14T07:53:42.000Z</time>
      </trkpt>
      <trkpt lat="47.33991" lon="-1.57067">
        <ele>80</ele>
        <time>2021-08-14T07:53:44.000Z</time>
      </trkpt>
      <trkpt lat="47.33991" lon="-1.57045">
        <ele>80</ele>
        <time>2021-08-14T07:53:46.000Z</time>
      </trkpt>
      <trkpt lat="47.33991" lon="-1.57022">
        <ele>79</ele>
        <time>2021-08-14T07:53:48.000Z</time>
      </trkpt>
      <trkpt lat="47.33992" lon="-1.56999">
        <ele>78</ele>
        <time>2021-08-14T07:53:50.000Z</time>
      </trkpt>
      <trkpt lat="47.33994" lon="-1.56976">
        <ele>78</ele>
        <time>2021-08-14T07:53:52.000Z</time>
      </trkpt>
      <trkpt lat="47.33994" lon="-1.56952">
        <ele>78</ele>
        <time>2021-08-14T07:53:54.000Z</time>
      </trkpt>
      <trkpt lat="47.33995" lon="-1.56929">
        <ele>77</ele>
        <time>2021-08-14T07:53:56.000Z</time>
      </trkpt>
      <trkpt lat="47.33996" lon="-1.56904">
        <ele>76</ele>
        <time>2021-08-14T07:53:58.000Z</time>
      </trkpt>
      <trkpt lat="47.33997" lon="-1.5688">
        <ele>76</ele>
        <time>2021-08-14T07:54:00.000Z</time>
      </trkpt>
      <trkpt lat="47.33998" lon="-1.56855">
        <ele>75</ele>
        <time>2021-08-14T07:54:02.000Z</time>
      </trkpt>
      <trkpt lat="47.34" lon="-1.56831">
        <ele>75</ele>
        <time>2021-08-14T07:54:04.000Z</time>
      </trkpt>
      <trkpt lat="47.34001" lon="-1.5681">
        <ele>76</ele>
        <time>2021-08-14T07:54:06.000Z</time>
      </trkpt>
      <trkpt lat="47.34002" lon="-1.56788">
        <ele>76</ele>
        <time>2021-08-14T07:54:08.000Z</time>
      </trkpt>
      <trkpt lat="47.34003" lon="-1.56766">
        <ele>76</ele>
        <time>2021-08-14T07:54:10.000Z</time>
      </trkpt>
      <trkpt lat="47.34004" lon="-1.56745">
        <ele>76</ele>
        <time>2021-08-14T07:54:12.000Z</time>
      </trkpt>
      <trkpt lat="47.34004" lon="-1.56724">
        <ele>76</ele>
        <time>2021-08-14T07:54:14.000Z</time>
      </trkpt>
      <trkpt lat="47.34006" lon="-1.56703">
        <ele>76</ele>
        <time>2021-08-14T07:54:16.000Z</time>
      </trkpt>
      <trkpt lat="47.34007" lon="-1.56682">
        <ele>76</ele>
        <time>2021-08-14T07:54:18.000Z</time>
      </trkpt>
      <trkpt lat="47.34008" lon="-1.5666">
        <ele>76</ele>
        <time>2021-08-14T07:54:20.000Z</time>
      </trkpt>
      <trkpt lat="47.34009" lon="-1.56638">
        <ele>75</ele>
        <time>2021-08-14T07:54:22.000Z</time>
      </trkpt>
      <trkpt lat="47.3401" lon="-1.56616">
        <ele>75</ele>
        <time>2021-08-14T07:54:24.000Z</time>
      </trkpt>
      <trkpt lat="47.34011" lon="-1.56593">
        <ele>74</ele>
        <time>2021-08-14T07:54:26.000Z</time>
      </trkpt>
      <trkpt lat="47.34012" lon="-1.56571">
        <ele>74</ele>
        <time>2021-08-14T07:54:28.000Z</time>
      </trkpt>
      <trkpt lat="47.34013" lon="-1.56548">
        <ele>73</ele>
        <time>2021-08-14T07:54:30.000Z</time>
      </trkpt>
      <trkpt lat="47.34014" lon="-1.56524">
        <ele>72</ele>
        <time>2021-08-14T07:54:32.000Z</time>
      </trkpt>
      <trkpt lat="47.34015" lon="-1.56501">
        <ele>72</ele>
        <time>2021-08-14T07:54:34.000Z</time>
      </trkpt>
      <trkpt lat="47.34016" lon="-1.56477">
        <ele>71</ele>
        <time>2021-08-14T07:54:36.000Z</time>
      </trkpt>
      <trkpt lat="47.34017" lon="-1.56454">
        <ele>71</ele>
        <time>2021-08-14T07:54:38.000Z</time>
      </trkpt>
      <trkpt lat="47.34018" lon="-1.56431">
        <ele>71</ele>
        <time>2021-08-14T07:54:40.000Z</time>
      </trkpt>
      <trkpt lat="47.34019" lon="-1.56409">
        <ele>71</ele>
        <time>2021-08-14T07:54:42.000Z</time>
      </trkpt>
      <trkpt lat="47.3402" lon="-1.56387">
        <ele>71</ele>
        <time>2021-08-14T07:54:44.000Z</time>
      </trkpt>
      <trkpt lat="47.3402" lon="-1.56367">
        <ele>71</ele>
        <time>2021-08-14T07:54:46.000Z</time>
      </trkpt>
      <trkpt lat="47.34019" lon="-1.56348">
        <ele>72</ele>
        <time>2021-08-14T07:54:48.000Z</time>
      </trkpt>
      <trkpt lat="47.34016" lon="-1.56329">
        <ele>72</ele>
        <time>2021-08-14T07:54:50.000Z</time>
      </trkpt>
      <trkpt lat="47.34013" lon="-1.56309">
        <ele>72</ele>
        <time>2021-08-14T07:54:52.000Z</time>
      </trkpt>
      <trkpt lat="47.34009" lon="-1.56287">
        <ele>71</ele>
        <time>2021-08-14T07:54:54.000Z</time>
      </trkpt>
      <trkpt lat="47.34006" lon="-1.56263">
        <ele>70</ele>
        <time>2021-08-14T07:54:56.000Z</time>
      </trkpt>
      <trkpt lat="47.34002" lon="-1.5624">
        <ele>70</ele>
        <time>2021-08-14T07:54:58.000Z</time>
      </trkpt>
      <trkpt lat="47.33997" lon="-1.56219">
        <ele>72</ele>
        <time>2021-08-14T07:55:00.000Z</time>
      </trkpt>
      <trkpt lat="47.33993" lon="-1.56195">
        <ele>72</ele>
        <time>2021-08-14T07:55:02.000Z</time>
      </trkpt>
      <trkpt lat="47.33991" lon="-1.56182">
        <ele>72</ele>
        <time>2021-08-14T07:55:03.000Z</time>
      </trkpt>
      <trkpt lat="47.33989" lon="-1.56169">
        <ele>72</ele>
        <time>2021-08-14T07:55:04.000Z</time>
      </trkpt>
      <trkpt lat="47.33987" lon="-1.56155">
        <ele>72</ele>
        <time>2021-08-14T07:55:05.000Z</time>
      </trkpt>
      <trkpt lat="47.33984" lon="-1.56143">
        <ele>72</ele>
        <time>2021-08-14T07:55:06.000Z</time>
      </trkpt>
      <trkpt lat="47.33982" lon="-1.56129">
        <ele>72</ele>
        <time>2021-08-14T07:55:07.000Z</time>
      </trkpt>
      <trkpt lat="47.33979" lon="-1.56103">
        <ele>71</ele>
        <time>2021-08-14T07:55:09.000Z</time>
      </trkpt>
      <trkpt lat="47.33978" lon="-1.5609">
        <ele>71</ele>
        <time>2021-08-14T07:55:10.000Z</time>
      </trkpt>
      <trkpt lat="47.33978" lon="-1.56076">
        <ele>71</ele>
        <time>2021-08-14T07:55:11.000Z</time>
      </trkpt>
      <trkpt lat="47.33977" lon="-1.56063">
        <ele>71</ele>
        <time>2021-08-14T07:55:12.000Z</time>
      </trkpt>
      <trkpt lat="47.33979" lon="-1.56049">
        <ele>70</ele>
        <time>2021-08-14T07:55:13.000Z</time>
      </trkpt>
      <trkpt lat="47.33983" lon="-1.56036">
        <ele>68</ele>
        <time>2021-08-14T07:55:14.000Z</time>
      </trkpt>
      <trkpt lat="47.33988" lon="-1.56024">
        <ele>67</ele>
        <time>2021-08-14T07:55:15.000Z</time>
      </trkpt>
      <trkpt lat="47.33995" lon="-1.56012">
        <ele>66</ele>
        <time>2021-08-14T07:55:16.000Z</time>
      </trkpt>
      <trkpt lat="47.34002" lon="-1.56002">
        <ele>65</ele>
        <time>2021-08-14T07:55:17.000Z</time>
      </trkpt>
      <trkpt lat="47.34008" lon="-1.55992">
        <ele>65</ele>
        <time>2021-08-14T07:55:18.000Z</time>
      </trkpt>
      <trkpt lat="47.34016" lon="-1.55983">
        <ele>65</ele>
        <time>2021-08-14T07:55:19.000Z</time>
      </trkpt>
      <trkpt lat="47.34023" lon="-1.55974">
        <ele>65</ele>
        <time>2021-08-14T07:55:20.000Z</time>
      </trkpt>
      <trkpt lat="47.34031" lon="-1.55965">
        <ele>64</ele>
        <time>2021-08-14T07:55:21.000Z</time>
      </trkpt>
      <trkpt lat="47.34038" lon="-1.55956">
        <ele>64</ele>
        <time>2021-08-14T07:55:22.000Z</time>
      </trkpt>
      <trkpt lat="47.34045" lon="-1.55947">
        <ele>63</ele>
        <time>2021-08-14T07:55:23.000Z</time>
      </trkpt>
      <trkpt lat="47.34057" lon="-1.55929">
        <ele>63</ele>
        <time>2021-08-14T07:55:25.000Z</time>
      </trkpt>
      <trkpt lat="47.34064" lon="-1.55908">
        <ele>63</ele>
        <time>2021-08-14T07:55:27.000Z</time>
      </trkpt>
      <trkpt lat="47.34064" lon="-1.55887">
        <ele>63</ele>
        <time>2021-08-14T07:55:29.000Z</time>
      </trkpt>
      <trkpt lat="47.34061" lon="-1.55871">
        <ele>64</ele>
        <time>2021-08-14T07:55:31.000Z</time>
      </trkpt>
      <trkpt lat="47.34058" lon="-1.55857">
        <ele>64</ele>
        <time>2021-08-14T07:55:33.000Z</time>
      </trkpt>
      <trkpt lat="47.34056" lon="-1.55841">
        <ele>64</ele>
        <time>2021-08-14T07:55:35.000Z</time>
      </trkpt>
      <trkpt lat="47.34052" lon="-1.55826">
        <ele>65</ele>
        <time>2021-08-14T07:55:37.000Z</time>
      </trkpt>
      <trkpt lat="47.3405" lon="-1.55811">
        <ele>65</ele>
        <time>2021-08-14T07:55:39.000Z</time>
      </trkpt>
      <trkpt lat="47.34049" lon="-1.55794">
        <ele>65</ele>
        <time>2021-08-14T07:55:41.000Z</time>
      </trkpt>
      <trkpt lat="47.34049" lon="-1.55776">
        <ele>65</ele>
        <time>2021-08-14T07:55:43.000Z</time>
      </trkpt>
      <trkpt lat="47.34051" lon="-1.55757">
        <ele>65</ele>
        <time>2021-08-14T07:55:45.000Z</time>
      </trkpt>
      <trkpt lat="47.34053" lon="-1.55741">
        <ele>66</ele>
        <time>2021-08-14T07:55:47.000Z</time>
      </trkpt>
      <trkpt lat="47.34056" lon="-1.55724">
        <ele>66</ele>
        <time>2021-08-14T07:55:49.000Z</time>
      </trkpt>
      <trkpt lat="47.3406" lon="-1.55707">
        <ele>66</ele>
        <time>2021-08-14T07:55:51.000Z</time>
      </trkpt>
      <trkpt lat="47.34064" lon="-1.5569">
        <ele>66</ele>
        <time>2021-08-14T07:55:53.000Z</time>
      </trkpt>
      <trkpt lat="47.34067" lon="-1.55674">
        <ele>66</ele>
        <time>2021-08-14T07:55:55.000Z</time>
      </trkpt>
      <trkpt lat="47.34071" lon="-1.55658">
        <ele>66</ele>
        <time>2021-08-14T07:55:57.000Z</time>
      </trkpt>
      <trkpt lat="47.34075" lon="-1.55642">
        <ele>66</ele>
        <time>2021-08-14T07:55:59.000Z</time>
      </trkpt>
      <trkpt lat="47.34079" lon="-1.55626">
        <ele>67</ele>
        <time>2021-08-14T07:56:01.000Z</time>
      </trkpt>
      <trkpt lat="47.34081" lon="-1.5561">
        <ele>67</ele>
        <time>2021-08-14T07:56:03.000Z</time>
      </trkpt>
      <trkpt lat="47.34085" lon="-1.55595">
        <ele>68</ele>
        <time>2021-08-14T07:56:05.000Z</time>
      </trkpt>
      <trkpt lat="47.34091" lon="-1.55579">
        <ele>68</ele>
        <time>2021-08-14T07:56:07.000Z</time>
      </trkpt>
      <trkpt lat="47.34097" lon="-1.55562">
        <ele>68</ele>
        <time>2021-08-14T07:56:09.000Z</time>
      </trkpt>
      <trkpt lat="47.34103" lon="-1.55546">
        <ele>67</ele>
        <time>2021-08-14T07:56:11.000Z</time>
      </trkpt>
      <trkpt lat="47.3411" lon="-1.5553">
        <ele>67</ele>
        <time>2021-08-14T07:56:13.000Z</time>
      </trkpt>
      <trkpt lat="47.34117" lon="-1.55515">
        <ele>67</ele>
        <time>2021-08-14T07:56:15.000Z</time>
      </trkpt>
      <trkpt lat="47.34124" lon="-1.55501">
        <ele>67</ele>
        <time>2021-08-14T07:56:17.000Z</time>
      </trkpt>
      <trkpt lat="47.34132" lon="-1.55487">
        <ele>67</ele>
        <time>2021-08-14T07:56:19.000Z</time>
      </trkpt>
      <trkpt lat="47.34141" lon="-1.55473">
        <ele>67</ele>
        <time>2021-08-14T07:56:21.000Z</time>
      </trkpt>
      <trkpt lat="47.34149" lon="-1.5546">
        <ele>68</ele>
        <time>2021-08-14T07:56:23.000Z</time>
      </trkpt>
      <trkpt lat="47.34157" lon="-1.55445">
        <ele>68</ele>
        <time>2021-08-14T07:56:25.000Z</time>
      </trkpt>
      <trkpt lat="47.34166" lon="-1.55431">
        <ele>68</ele>
        <time>2021-08-14T07:56:27.000Z</time>
      </trkpt>
      <trkpt lat="47.34175" lon="-1.55418">
        <ele>68</ele>
        <time>2021-08-14T07:56:29.000Z</time>
      </trkpt>
      <trkpt lat="47.34185" lon="-1.55403">
        <ele>69</ele>
        <time>2021-08-14T07:56:31.000Z</time>
      </trkpt>
      <trkpt lat="47.34194" lon="-1.55388">
        <ele>69</ele>
        <time>2021-08-14T07:56:33.000Z</time>
      </trkpt>
      <trkpt lat="47.34204" lon="-1.55374">
        <ele>69</ele>
        <time>2021-08-14T07:56:35.000Z</time>
      </trkpt>
      <trkpt lat="47.34213" lon="-1.55361">
        <ele>68</ele>
        <time>2021-08-14T07:56:37.000Z</time>
      </trkpt>
      <trkpt lat="47.34223" lon="-1.55347">
        <ele>68</ele>
        <time>2021-08-14T07:56:39.000Z</time>
      </trkpt>
      <trkpt lat="47.34232" lon="-1.55333">
        <ele>68</ele>
        <time>2021-08-14T07:56:41.000Z</time>
      </trkpt>
      <trkpt lat="47.34242" lon="-1.55319">
        <ele>68</ele>
        <time>2021-08-14T07:56:43.000Z</time>
      </trkpt>
      <trkpt lat="47.34252" lon="-1.55303">
        <ele>68</ele>
        <time>2021-08-14T07:56:45.000Z</time>
      </trkpt>
      <trkpt lat="47.34262" lon="-1.55288">
        <ele>68</ele>
        <time>2021-08-14T07:56:47.000Z</time>
      </trkpt>
      <trkpt lat="47.34272" lon="-1.55273">
        <ele>68</ele>
        <time>2021-08-14T07:56:49.000Z</time>
      </trkpt>
      <trkpt lat="47.34283" lon="-1.55257">
        <ele>67</ele>
        <time>2021-08-14T07:56:51.000Z</time>
      </trkpt>
      <trkpt lat="47.34292" lon="-1.55239">
        <ele>66</ele>
        <time>2021-08-14T07:56:53.000Z</time>
      </trkpt>
      <trkpt lat="47.34299" lon="-1.5522">
        <ele>65</ele>
        <time>2021-08-14T07:56:55.000Z</time>
      </trkpt>
      <trkpt lat="47.34305" lon="-1.55199">
        <ele>64</ele>
        <time>2021-08-14T07:56:57.000Z</time>
      </trkpt>
      <trkpt lat="47.34309" lon="-1.55177">
        <ele>63</ele>
        <time>2021-08-14T07:56:59.000Z</time>
      </trkpt>
      <trkpt lat="47.34311" lon="-1.55154">
        <ele>62</ele>
        <time>2021-08-14T07:57:01.000Z</time>
      </trkpt>
      <trkpt lat="47.34314" lon="-1.5513">
        <ele>61</ele>
        <time>2021-08-14T07:57:03.000Z</time>
      </trkpt>
      <trkpt lat="47.34316" lon="-1.55106">
        <ele>61</ele>
        <time>2021-08-14T07:57:05.000Z</time>
      </trkpt>
      <trkpt lat="47.34317" lon="-1.55084">
        <ele>61</ele>
        <time>2021-08-14T07:57:07.000Z</time>
      </trkpt>
      <trkpt lat="47.34318" lon="-1.55063">
        <ele>62</ele>
        <time>2021-08-14T07:57:09.000Z</time>
      </trkpt>
      <trkpt lat="47.3432" lon="-1.55043">
        <ele>62</ele>
        <time>2021-08-14T07:57:11.000Z</time>
      </trkpt>
      <trkpt lat="47.34321" lon="-1.55027">
        <ele>63</ele>
        <time>2021-08-14T07:57:13.000Z</time>
      </trkpt>
      <trkpt lat="47.34323" lon="-1.55012">
        <ele>64</ele>
        <time>2021-08-14T07:57:15.000Z</time>
      </trkpt>
      <trkpt lat="47.34324" lon="-1.54997">
        <ele>64</ele>
        <time>2021-08-14T07:57:17.000Z</time>
      </trkpt>
      <trkpt lat="47.34326" lon="-1.54983">
        <ele>65</ele>
        <time>2021-08-14T07:57:19.000Z</time>
      </trkpt>
      <trkpt lat="47.34328" lon="-1.54969">
        <ele>65</ele>
        <time>2021-08-14T07:57:21.000Z</time>
      </trkpt>
      <trkpt lat="47.34329" lon="-1.54954">
        <ele>66</ele>
        <time>2021-08-14T07:57:23.000Z</time>
      </trkpt>
      <trkpt lat="47.3433" lon="-1.54939">
        <ele>66</ele>
        <time>2021-08-14T07:57:25.000Z</time>
      </trkpt>
      <trkpt lat="47.34331" lon="-1.54925">
        <ele>67</ele>
        <time>2021-08-14T07:57:27.000Z</time>
      </trkpt>
      <trkpt lat="47.34332" lon="-1.54911">
        <ele>68</ele>
        <time>2021-08-14T07:57:29.000Z</time>
      </trkpt>
      <trkpt lat="47.34333" lon="-1.54896">
        <ele>68</ele>
        <time>2021-08-14T07:57:31.000Z</time>
      </trkpt>
      <trkpt lat="47.34334" lon="-1.54883">
        <ele>69</ele>
        <time>2021-08-14T07:57:33.000Z</time>
      </trkpt>
      <trkpt lat="47.34336" lon="-1.54869">
        <ele>69</ele>
        <time>2021-08-14T07:57:35.000Z</time>
      </trkpt>
      <trkpt lat="47.34338" lon="-1.54855">
        <ele>69</ele>
        <time>2021-08-14T07:57:37.000Z</time>
      </trkpt>
      <trkpt lat="47.34339" lon="-1.54841">
        <ele>70</ele>
        <time>2021-08-14T07:57:39.000Z</time>
      </trkpt>
      <trkpt lat="47.34341" lon="-1.54828">
        <ele>71</ele>
        <time>2021-08-14T07:57:41.000Z</time>
      </trkpt>
      <trkpt lat="47.34341" lon="-1.54814">
        <ele>71</ele>
        <time>2021-08-14T07:57:43.000Z</time>
      </trkpt>
      <trkpt lat="47.34343" lon="-1.548">
        <ele>71</ele>
        <time>2021-08-14T07:57:45.000Z</time>
      </trkpt>
      <trkpt lat="47.34345" lon="-1.5478">
        <ele>72</ele>
        <time>2021-08-14T07:57:48.000Z</time>
      </trkpt>
      <trkpt lat="47.34348" lon="-1.54761">
        <ele>72</ele>
        <time>2021-08-14T07:57:51.000Z</time>
      </trkpt>
      <trkpt lat="47.34353" lon="-1.54743">
        <ele>73</ele>
        <time>2021-08-14T07:57:54.000Z</time>
      </trkpt>
      <trkpt lat="47.34358" lon="-1.54731">
        <ele>74</ele>
        <time>2021-08-14T07:57:56.000Z</time>
      </trkpt>
      <trkpt lat="47.34364" lon="-1.5472">
        <ele>75</ele>
        <time>2021-08-14T07:57:58.000Z</time>
      </trkpt>
      <trkpt lat="47.3437" lon="-1.5471">
        <ele>75</ele>
        <time>2021-08-14T07:58:00.000Z</time>
      </trkpt>
      <trkpt lat="47.34378" lon="-1.54701">
        <ele>75</ele>
        <time>2021-08-14T07:58:02.000Z</time>
      </trkpt>
      <trkpt lat="47.34388" lon="-1.54689">
        <ele>75</ele>
        <time>2021-08-14T07:58:05.000Z</time>
      </trkpt>
      <trkpt lat="47.34396" lon="-1.54681">
        <ele>75</ele>
        <time>2021-08-14T07:58:07.000Z</time>
      </trkpt>
      <trkpt lat="47.34404" lon="-1.54673">
        <ele>75</ele>
        <time>2021-08-14T07:58:09.000Z</time>
      </trkpt>
      <trkpt lat="47.34411" lon="-1.54665">
        <ele>77</ele>
        <time>2021-08-14T07:58:11.000Z</time>
      </trkpt>
      <trkpt lat="47.34418" lon="-1.54655">
        <ele>77</ele>
        <time>2021-08-14T07:58:13.000Z</time>
      </trkpt>
      <trkpt lat="47.34423" lon="-1.54643">
        <ele>78</ele>
        <time>2021-08-14T07:58:15.000Z</time>
      </trkpt>
      <trkpt lat="47.34426" lon="-1.54629">
        <ele>78</ele>
        <time>2021-08-14T07:58:17.000Z</time>
      </trkpt>
      <trkpt lat="47.34427" lon="-1.54615">
        <ele>79</ele>
        <time>2021-08-14T07:58:19.000Z</time>
      </trkpt>
      <trkpt lat="47.34426" lon="-1.546">
        <ele>79</ele>
        <time>2021-08-14T07:58:21.000Z</time>
      </trkpt>
      <trkpt lat="47.34424" lon="-1.54585">
        <ele>79</ele>
        <time>2021-08-14T07:58:23.000Z</time>
      </trkpt>
      <trkpt lat="47.34422" lon="-1.54571">
        <ele>79</ele>
        <time>2021-08-14T07:58:25.000Z</time>
      </trkpt>
      <trkpt lat="47.34419" lon="-1.54557">
        <ele>80</ele>
        <time>2021-08-14T07:58:27.000Z</time>
      </trkpt>
      <trkpt lat="47.34417" lon="-1.54543">
        <ele>80</ele>
        <time>2021-08-14T07:58:29.000Z</time>
      </trkpt>
      <trkpt lat="47.34414" lon="-1.54529">
        <ele>80</ele>
        <time>2021-08-14T07:58:31.000Z</time>
      </trkpt>
      <trkpt lat="47.34411" lon="-1.54515">
        <ele>81</ele>
        <time>2021-08-14T07:58:33.000Z</time>
      </trkpt>
      <trkpt lat="47.34409" lon="-1.54501">
        <ele>81</ele>
        <time>2021-08-14T07:58:35.000Z</time>
      </trkpt>
      <trkpt lat="47.34406" lon="-1.54487">
        <ele>81</ele>
        <time>2021-08-14T07:58:37.000Z</time>
      </trkpt>
      <trkpt lat="47.34403" lon="-1.54473">
        <ele>82</ele>
        <time>2021-08-14T07:58:39.000Z</time>
      </trkpt>
      <trkpt lat="47.344" lon="-1.54459">
        <ele>82</ele>
        <time>2021-08-14T07:58:41.000Z</time>
      </trkpt>
      <trkpt lat="47.34397" lon="-1.54445">
        <ele>82</ele>
        <time>2021-08-14T07:58:43.000Z</time>
      </trkpt>
      <trkpt lat="47.34394" lon="-1.54431">
        <ele>82</ele>
        <time>2021-08-14T07:58:45.000Z</time>
      </trkpt>
      <trkpt lat="47.34391" lon="-1.54417">
        <ele>83</ele>
        <time>2021-08-14T07:58:47.000Z</time>
      </trkpt>
      <trkpt lat="47.34388" lon="-1.54403">
        <ele>83</ele>
        <time>2021-08-14T07:58:49.000Z</time>
      </trkpt>
      <trkpt lat="47.34384" lon="-1.5439">
        <ele>83</ele>
        <time>2021-08-14T07:58:51.000Z</time>
      </trkpt>
      <trkpt lat="47.34381" lon="-1.54377">
        <ele>83</ele>
        <time>2021-08-14T07:58:53.000Z</time>
      </trkpt>
      <trkpt lat="47.34377" lon="-1.54363">
        <ele>84</ele>
        <time>2021-08-14T07:58:55.000Z</time>
      </trkpt>
      <trkpt lat="47.34372" lon="-1.54349">
        <ele>84</ele>
        <time>2021-08-14T07:58:57.000Z</time>
      </trkpt>
      <trkpt lat="47.34367" lon="-1.54336">
        <ele>84</ele>
        <time>2021-08-14T07:58:59.000Z</time>
      </trkpt>
      <trkpt lat="47.34362" lon="-1.54322">
        <ele>84</ele>
        <time>2021-08-14T07:59:01.000Z</time>
      </trkpt>
      <trkpt lat="47.34358" lon="-1.54309">
        <ele>84</ele>
        <time>2021-08-14T07:59:03.000Z</time>
      </trkpt>
      <trkpt lat="47.34353" lon="-1.54296">
        <ele>84</ele>
        <time>2021-08-14T07:59:05.000Z</time>
      </trkpt>
      <trkpt lat="47.34348" lon="-1.54282">
        <ele>84</ele>
        <time>2021-08-14T07:59:07.000Z</time>
      </trkpt>
      <trkpt lat="47.34342" lon="-1.54268">
        <ele>84</ele>
        <time>2021-08-14T07:59:09.000Z</time>
      </trkpt>
      <trkpt lat="47.34335" lon="-1.54253">
        <ele>83</ele>
        <time>2021-08-14T07:59:11.000Z</time>
      </trkpt>
      <trkpt lat="47.34328" lon="-1.54238">
        <ele>83</ele>
        <time>2021-08-14T07:59:13.000Z</time>
      </trkpt>
      <trkpt lat="47.34322" lon="-1.54223">
        <ele>83</ele>
        <time>2021-08-14T07:59:15.000Z</time>
      </trkpt>
      <trkpt lat="47.34315" lon="-1.54206">
        <ele>83</ele>
        <time>2021-08-14T07:59:17.000Z</time>
      </trkpt>
      <trkpt lat="47.34309" lon="-1.54188">
        <ele>83</ele>
        <time>2021-08-14T07:59:19.000Z</time>
      </trkpt>
      <trkpt lat="47.34302" lon="-1.54171">
        <ele>83</ele>
        <time>2021-08-14T07:59:21.000Z</time>
      </trkpt>
      <trkpt lat="47.34297" lon="-1.54152">
        <ele>82</ele>
        <time>2021-08-14T07:59:23.000Z</time>
      </trkpt>
      <trkpt lat="47.34294" lon="-1.54132">
        <ele>82</ele>
        <time>2021-08-14T07:59:25.000Z</time>
      </trkpt>
      <trkpt lat="47.34291" lon="-1.54111">
        <ele>81</ele>
        <time>2021-08-14T07:59:27.000Z</time>
      </trkpt>
      <trkpt lat="47.34287" lon="-1.54091">
        <ele>81</ele>
        <time>2021-08-14T07:59:29.000Z</time>
      </trkpt>
      <trkpt lat="47.34284" lon="-1.54069">
        <ele>81</ele>
        <time>2021-08-14T07:59:31.000Z</time>
      </trkpt>
      <trkpt lat="47.3428" lon="-1.54048">
        <ele>80</ele>
        <time>2021-08-14T07:59:33.000Z</time>
      </trkpt>
      <trkpt lat="47.34275" lon="-1.54027">
        <ele>80</ele>
        <time>2021-08-14T07:59:35.000Z</time>
      </trkpt>
      <trkpt lat="47.34267" lon="-1.53999">
        <ele>79</ele>
        <time>2021-08-14T07:59:38.000Z</time>
      </trkpt>
      <trkpt lat="47.34259" lon="-1.53982">
        <ele>79</ele>
        <time>2021-08-14T07:59:40.000Z</time>
      </trkpt>
      <trkpt lat="47.3425" lon="-1.53953">
        <ele>79</ele>
        <time>2021-08-14T07:59:43.000Z</time>
      </trkpt>
      <trkpt lat="47.34241" lon="-1.53936">
        <ele>78</ele>
        <time>2021-08-14T07:59:45.000Z</time>
      </trkpt>
      <trkpt lat="47.34233" lon="-1.5392">
        <ele>79</ele>
        <time>2021-08-14T07:59:47.000Z</time>
      </trkpt>
      <trkpt lat="47.34223" lon="-1.53905">
        <ele>79</ele>
        <time>2021-08-14T07:59:49.000Z</time>
      </trkpt>
      <trkpt lat="47.34213" lon="-1.5389">
        <ele>79</ele>
        <time>2021-08-14T07:59:51.000Z</time>
      </trkpt>
      <trkpt lat="47.34202" lon="-1.53877">
        <ele>79</ele>
        <time>2021-08-14T07:59:53.000Z</time>
      </trkpt>
      <trkpt lat="47.34191" lon="-1.53864">
        <ele>80</ele>
        <time>2021-08-14T07:59:55.000Z</time>
      </trkpt>
      <trkpt lat="47.34179" lon="-1.53853">
        <ele>80</ele>
        <time>2021-08-14T07:59:57.000Z</time>
      </trkpt>
      <trkpt lat="47.34166" lon="-1.53842">
        <ele>81</ele>
        <time>2021-08-14T07:59:59.000Z</time>
      </trkpt>
      <trkpt lat="47.34154" lon="-1.53833">
        <ele>81</ele>
        <time>2021-08-14T08:00:01.000Z</time>
      </trkpt>
      <trkpt lat="47.34141" lon="-1.53823">
        <ele>81</ele>
        <time>2021-08-14T08:00:03.000Z</time>
      </trkpt>
      <trkpt lat="47.34131" lon="-1.53811">
        <ele>81</ele>
        <time>2021-08-14T08:00:05.000Z</time>
      </trkpt>
      <trkpt lat="47.3412" lon="-1.53798">
        <ele>81</ele>
        <time>2021-08-14T08:00:07.000Z</time>
      </trkpt>
      <trkpt lat="47.34109" lon="-1.53785">
        <ele>81</ele>
        <time>2021-08-14T08:00:09.000Z</time>
      </trkpt>
      <trkpt lat="47.34097" lon="-1.53773">
        <ele>81</ele>
        <time>2021-08-14T08:00:11.000Z</time>
      </trkpt>
      <trkpt lat="47.34086" lon="-1.53761">
        <ele>80</ele>
        <time>2021-08-14T08:00:13.000Z</time>
      </trkpt>
      <trkpt lat="47.34075" lon="-1.53749">
        <ele>80</ele>
        <time>2021-08-14T08:00:15.000Z</time>
      </trkpt>
      <trkpt lat="47.34064" lon="-1.53736">
        <ele>80</ele>
        <time>2021-08-14T08:00:17.000Z</time>
      </trkpt>
      <trkpt lat="47.34052" lon="-1.53725">
        <ele>80</ele>
        <time>2021-08-14T08:00:19.000Z</time>
      </trkpt>
      <trkpt lat="47.34041" lon="-1.53712">
        <ele>80</ele>
        <time>2021-08-14T08:00:21.000Z</time>
      </trkpt>
      <trkpt lat="47.34029" lon="-1.537">
        <ele>79</ele>
        <time>2021-08-14T08:00:23.000Z</time>
      </trkpt>
      <trkpt lat="47.34017" lon="-1.53688">
        <ele>79</ele>
        <time>2021-08-14T08:00:25.000Z</time>
      </trkpt>
      <trkpt lat="47.34005" lon="-1.53676">
        <ele>79</ele>
        <time>2021-08-14T08:00:27.000Z</time>
      </trkpt>
      <trkpt lat="47.33993" lon="-1.53664">
        <ele>78</ele>
        <time>2021-08-14T08:00:29.000Z</time>
      </trkpt>
      <trkpt lat="47.33981" lon="-1.53652">
        <ele>77</ele>
        <time>2021-08-14T08:00:31.000Z</time>
      </trkpt>
      <trkpt lat="47.33968" lon="-1.53639">
        <ele>76</ele>
        <time>2021-08-14T08:00:33.000Z</time>
      </trkpt>
      <trkpt lat="47.33955" lon="-1.53625">
        <ele>76</ele>
        <time>2021-08-14T08:00:35.000Z</time>
      </trkpt>
      <trkpt lat="47.33942" lon="-1.53611">
        <ele>75</ele>
        <time>2021-08-14T08:00:37.000Z</time>
      </trkpt>
      <trkpt lat="47.33929" lon="-1.53597">
        <ele>75</ele>
        <time>2021-08-14T08:00:39.000Z</time>
      </trkpt>
      <trkpt lat="47.33917" lon="-1.53582">
        <ele>75</ele>
        <time>2021-08-14T08:00:41.000Z</time>
      </trkpt>
      <trkpt lat="47.3391" lon="-1.53557">
        <ele>75</ele>
        <time>2021-08-14T08:00:43.000Z</time>
      </trkpt>
      <trkpt lat="47.33909" lon="-1.53543">
        <ele>75</ele>
        <time>2021-08-14T08:00:44.000Z</time>
      </trkpt>
      <trkpt lat="47.33909" lon="-1.5353">
        <ele>75</ele>
        <time>2021-08-14T08:00:45.000Z</time>
      </trkpt>
      <trkpt lat="47.33911" lon="-1.53504">
        <ele>74</ele>
        <time>2021-08-14T08:00:47.000Z</time>
      </trkpt>
      <trkpt lat="47.33912" lon="-1.53491">
        <ele>73</ele>
        <time>2021-08-14T08:00:48.000Z</time>
      </trkpt>
      <trkpt lat="47.33912" lon="-1.53464">
        <ele>73</ele>
        <time>2021-08-14T08:00:50.000Z</time>
      </trkpt>
      <trkpt lat="47.33906" lon="-1.5344">
        <ele>72</ele>
        <time>2021-08-14T08:00:52.000Z</time>
      </trkpt>
      <trkpt lat="47.33898" lon="-1.5342">
        <ele>72</ele>
        <time>2021-08-14T08:00:54.000Z</time>
      </trkpt>
      <trkpt lat="47.33893" lon="-1.53398">
        <ele>71</ele>
        <time>2021-08-14T08:00:56.000Z</time>
      </trkpt>
      <trkpt lat="47.33895" lon="-1.53373">
        <ele>70</ele>
        <time>2021-08-14T08:00:58.000Z</time>
      </trkpt>
      <trkpt lat="47.33904" lon="-1.5335">
        <ele>68</ele>
        <time>2021-08-14T08:01:00.000Z</time>
      </trkpt>
      <trkpt lat="47.33913" lon="-1.53328">
        <ele>67</ele>
        <time>2021-08-14T08:01:02.000Z</time>
      </trkpt>
      <trkpt lat="47.33922" lon="-1.53306">
        <ele>66</ele>
        <time>2021-08-14T08:01:04.000Z</time>
      </trkpt>
      <trkpt lat="47.3393" lon="-1.53284">
        <ele>66</ele>
        <time>2021-08-14T08:01:06.000Z</time>
      </trkpt>
      <trkpt lat="47.33939" lon="-1.53263">
        <ele>65</ele>
        <time>2021-08-14T08:01:08.000Z</time>
      </trkpt>
      <trkpt lat="47.33948" lon="-1.53241">
        <ele>65</ele>
        <time>2021-08-14T08:01:10.000Z</time>
      </trkpt>
      <trkpt lat="47.33955" lon="-1.53223">
        <ele>64</ele>
        <time>2021-08-14T08:01:12.000Z</time>
      </trkpt>
      <trkpt lat="47.33954" lon="-1.53205">
        <ele>63</ele>
        <time>2021-08-14T08:01:15.000Z</time>
      </trkpt>
      <trkpt lat="47.33948" lon="-1.53192">
        <ele>62</ele>
        <time>2021-08-14T08:01:17.000Z</time>
      </trkpt>
      <trkpt lat="47.33942" lon="-1.53178">
        <ele>62</ele>
        <time>2021-08-14T08:01:19.000Z</time>
      </trkpt>
      <trkpt lat="47.33934" lon="-1.53162">
        <ele>61</ele>
        <time>2021-08-14T08:01:21.000Z</time>
      </trkpt>
      <trkpt lat="47.33926" lon="-1.53146">
        <ele>59</ele>
        <time>2021-08-14T08:01:23.000Z</time>
      </trkpt>
      <trkpt lat="47.33918" lon="-1.53128">
        <ele>59</ele>
        <time>2021-08-14T08:01:25.000Z</time>
      </trkpt>
      <trkpt lat="47.33909" lon="-1.5311">
        <ele>58</ele>
        <time>2021-08-14T08:01:27.000Z</time>
      </trkpt>
      <trkpt lat="47.33901" lon="-1.53093">
        <ele>57</ele>
        <time>2021-08-14T08:01:29.000Z</time>
      </trkpt>
      <trkpt lat="47.33894" lon="-1.5308">
        <ele>56</ele>
        <time>2021-08-14T08:01:31.000Z</time>
      </trkpt>
      <trkpt lat="47.33894" lon="-1.53063">
        <ele>56</ele>
        <time>2021-08-14T08:01:34.000Z</time>
      </trkpt>
      <trkpt lat="47.339" lon="-1.53047">
        <ele>55</ele>
        <time>2021-08-14T08:01:36.000Z</time>
      </trkpt>
      <trkpt lat="47.33905" lon="-1.5303">
        <ele>54</ele>
        <time>2021-08-14T08:01:38.000Z</time>
      </trkpt>
      <trkpt lat="47.33912" lon="-1.53013">
        <ele>54</ele>
        <time>2021-08-14T08:01:40.000Z</time>
      </trkpt>
      <trkpt lat="47.33919" lon="-1.52996">
        <ele>53</ele>
        <time>2021-08-14T08:01:42.000Z</time>
      </trkpt>
      <trkpt lat="47.33925" lon="-1.52978">
        <ele>53</ele>
        <time>2021-08-14T08:01:44.000Z</time>
      </trkpt>
      <trkpt lat="47.33931" lon="-1.52962">
        <ele>54</ele>
        <time>2021-08-14T08:01:46.000Z</time>
      </trkpt>
      <trkpt lat="47.33937" lon="-1.52946">
        <ele>55</ele>
        <time>2021-08-14T08:01:48.000Z</time>
      </trkpt>
      <trkpt lat="47.33942" lon="-1.52931">
        <ele>56</ele>
        <time>2021-08-14T08:01:50.000Z</time>
      </trkpt>
      <trkpt lat="47.33947" lon="-1.52917">
        <ele>57</ele>
        <time>2021-08-14T08:01:52.000Z</time>
      </trkpt>
      <trkpt lat="47.33952" lon="-1.52904">
        <ele>57</ele>
        <time>2021-08-14T08:01:54.000Z</time>
      </trkpt>
      <trkpt lat="47.33957" lon="-1.5289">
        <ele>57</ele>
        <time>2021-08-14T08:01:56.000Z</time>
      </trkpt>
      <trkpt lat="47.33963" lon="-1.52877">
        <ele>58</ele>
        <time>2021-08-14T08:01:58.000Z</time>
      </trkpt>
      <trkpt lat="47.33968" lon="-1.52863">
        <ele>58</ele>
        <time>2021-08-14T08:02:01.000Z</time>
      </trkpt>
      <trkpt lat="47.33959" lon="-1.52852">
        <ele>58</ele>
        <time>2021-08-14T08:02:04.000Z</time>
      </trkpt>
      <trkpt lat="47.33949" lon="-1.52845">
        <ele>58</ele>
        <time>2021-08-14T08:02:06.000Z</time>
      </trkpt>
      <trkpt lat="47.33937" lon="-1.52835">
        <ele>57</ele>
        <time>2021-08-14T08:02:08.000Z</time>
      </trkpt>
      <trkpt lat="47.33925" lon="-1.52827">
        <ele>56</ele>
        <time>2021-08-14T08:02:10.000Z</time>
      </trkpt>
      <trkpt lat="47.33914" lon="-1.52817">
        <ele>56</ele>
        <time>2021-08-14T08:02:12.000Z</time>
      </trkpt>
      <trkpt lat="47.33907" lon="-1.528">
        <ele>55</ele>
        <time>2021-08-14T08:02:14.000Z</time>
      </trkpt>
      <trkpt lat="47.3391" lon="-1.52781">
        <ele>55</ele>
        <time>2021-08-14T08:02:16.000Z</time>
      </trkpt>
      <trkpt lat="47.33914" lon="-1.52763">
        <ele>56</ele>
        <time>2021-08-14T08:02:18.000Z</time>
      </trkpt>
      <trkpt lat="47.33918" lon="-1.52745">
        <ele>57</ele>
        <time>2021-08-14T08:02:20.000Z</time>
      </trkpt>
      <trkpt lat="47.33921" lon="-1.52726">
        <ele>57</ele>
        <time>2021-08-14T08:02:22.000Z</time>
      </trkpt>
      <trkpt lat="47.33922" lon="-1.52707">
        <ele>57</ele>
        <time>2021-08-14T08:02:24.000Z</time>
      </trkpt>
      <trkpt lat="47.33925" lon="-1.52688">
        <ele>57</ele>
        <time>2021-08-14T08:02:26.000Z</time>
      </trkpt>
      <trkpt lat="47.33928" lon="-1.52668">
        <ele>57</ele>
        <time>2021-08-14T08:02:28.000Z</time>
      </trkpt>
      <trkpt lat="47.33931" lon="-1.5265">
        <ele>58</ele>
        <time>2021-08-14T08:02:30.000Z</time>
      </trkpt>
      <trkpt lat="47.33934" lon="-1.52633">
        <ele>58</ele>
        <time>2021-08-14T08:02:32.000Z</time>
      </trkpt>
      <trkpt lat="47.33937" lon="-1.52619">
        <ele>59</ele>
        <time>2021-08-14T08:02:34.000Z</time>
      </trkpt>
      <trkpt lat="47.33931" lon="-1.52601">
        <ele>59</ele>
        <time>2021-08-14T08:02:37.000Z</time>
      </trkpt>
      <trkpt lat="47.33921" lon="-1.52598">
        <ele>59</ele>
        <time>2021-08-14T08:02:39.000Z</time>
      </trkpt>
      <trkpt lat="47.33909" lon="-1.52595">
        <ele>59</ele>
        <time>2021-08-14T08:02:41.000Z</time>
      </trkpt>
      <trkpt lat="47.33897" lon="-1.52591">
        <ele>60</ele>
        <time>2021-08-14T08:02:43.000Z</time>
      </trkpt>
      <trkpt lat="47.33883" lon="-1.52586">
        <ele>61</ele>
        <time>2021-08-14T08:02:45.000Z</time>
      </trkpt>
      <trkpt lat="47.3387" lon="-1.52581">
        <ele>61</ele>
        <time>2021-08-14T08:02:47.000Z</time>
      </trkpt>
      <trkpt lat="47.33856" lon="-1.52576">
        <ele>61</ele>
        <time>2021-08-14T08:02:49.000Z</time>
      </trkpt>
      <trkpt lat="47.33844" lon="-1.52571">
        <ele>62</ele>
        <time>2021-08-14T08:02:51.000Z</time>
      </trkpt>
      <trkpt lat="47.33831" lon="-1.52566">
        <ele>62</ele>
        <time>2021-08-14T08:02:53.000Z</time>
      </trkpt>
      <trkpt lat="47.3382" lon="-1.52561">
        <ele>63</ele>
        <time>2021-08-14T08:02:55.000Z</time>
      </trkpt>
      <trkpt lat="47.33807" lon="-1.52557">
        <ele>63</ele>
        <time>2021-08-14T08:02:57.000Z</time>
      </trkpt>
      <trkpt lat="47.33795" lon="-1.52554">
        <ele>64</ele>
        <time>2021-08-14T08:02:59.000Z</time>
      </trkpt>
      <trkpt lat="47.33785" lon="-1.52548">
        <ele>64</ele>
        <time>2021-08-14T08:03:01.000Z</time>
      </trkpt>
      <trkpt lat="47.33775" lon="-1.52544">
        <ele>63</ele>
        <time>2021-08-14T08:03:03.000Z</time>
      </trkpt>
      <trkpt lat="47.33764" lon="-1.52539">
        <ele>63</ele>
        <time>2021-08-14T08:03:05.000Z</time>
      </trkpt>
      <trkpt lat="47.33751" lon="-1.52534">
        <ele>62</ele>
        <time>2021-08-14T08:03:07.000Z</time>
      </trkpt>
      <trkpt lat="47.33738" lon="-1.52528">
        <ele>61</ele>
        <time>2021-08-14T08:03:09.000Z</time>
      </trkpt>
      <trkpt lat="47.33726" lon="-1.5252">
        <ele>60</ele>
        <time>2021-08-14T08:03:11.000Z</time>
      </trkpt>
      <trkpt lat="47.33714" lon="-1.5251">
        <ele>60</ele>
        <time>2021-08-14T08:03:13.000Z</time>
      </trkpt>
      <trkpt lat="47.33704" lon="-1.52499">
        <ele>59</ele>
        <time>2021-08-14T08:03:15.000Z</time>
      </trkpt>
      <trkpt lat="47.33695" lon="-1.52487">
        <ele>59</ele>
        <time>2021-08-14T08:03:17.000Z</time>
      </trkpt>
      <trkpt lat="47.33693" lon="-1.52473">
        <ele>59</ele>
        <time>2021-08-14T08:03:19.000Z</time>
      </trkpt>
      <trkpt lat="47.33699" lon="-1.52457">
        <ele>59</ele>
        <time>2021-08-14T08:03:21.000Z</time>
      </trkpt>
      <trkpt lat="47.33702" lon="-1.52442">
        <ele>61</ele>
        <time>2021-08-14T08:03:23.000Z</time>
      </trkpt>
      <trkpt lat="47.33705" lon="-1.52426">
        <ele>61</ele>
        <time>2021-08-14T08:03:25.000Z</time>
      </trkpt>
      <trkpt lat="47.33708" lon="-1.52412">
        <ele>62</ele>
        <time>2021-08-14T08:03:27.000Z</time>
      </trkpt>
      <trkpt lat="47.3371" lon="-1.52398">
        <ele>63</ele>
        <time>2021-08-14T08:03:29.000Z</time>
      </trkpt>
      <trkpt lat="47.33712" lon="-1.52382">
        <ele>63</ele>
        <time>2021-08-14T08:03:31.000Z</time>
      </trkpt>
      <trkpt lat="47.33715" lon="-1.52366">
        <ele>64</ele>
        <time>2021-08-14T08:03:33.000Z</time>
      </trkpt>
      <trkpt lat="47.33717" lon="-1.52351">
        <ele>64</ele>
        <time>2021-08-14T08:03:35.000Z</time>
      </trkpt>
      <trkpt lat="47.33721" lon="-1.52336">
        <ele>65</ele>
        <time>2021-08-14T08:03:37.000Z</time>
      </trkpt>
      <trkpt lat="47.33724" lon="-1.5232">
        <ele>65</ele>
        <time>2021-08-14T08:03:39.000Z</time>
      </trkpt>
      <trkpt lat="47.33727" lon="-1.52305">
        <ele>65</ele>
        <time>2021-08-14T08:03:41.000Z</time>
      </trkpt>
      <trkpt lat="47.3373" lon="-1.5229">
        <ele>65</ele>
        <time>2021-08-14T08:03:43.000Z</time>
      </trkpt>
      <trkpt lat="47.33733" lon="-1.52275">
        <ele>66</ele>
        <time>2021-08-14T08:03:45.000Z</time>
      </trkpt>
      <trkpt lat="47.33736" lon="-1.5226">
        <ele>66</ele>
        <time>2021-08-14T08:03:47.000Z</time>
      </trkpt>
      <trkpt lat="47.3374" lon="-1.52245">
        <ele>66</ele>
        <time>2021-08-14T08:03:49.000Z</time>
      </trkpt>
      <trkpt lat="47.33743" lon="-1.52229">
        <ele>67</ele>
        <time>2021-08-14T08:03:51.000Z</time>
      </trkpt>
      <trkpt lat="47.33746" lon="-1.52213">
        <ele>67</ele>
        <time>2021-08-14T08:03:53.000Z</time>
      </trkpt>
      <trkpt lat="47.33749" lon="-1.52196">
        <ele>67</ele>
        <time>2021-08-14T08:03:55.000Z</time>
      </trkpt>
      <trkpt lat="47.33751" lon="-1.52179">
        <ele>67</ele>
        <time>2021-08-14T08:03:57.000Z</time>
      </trkpt>
      <trkpt lat="47.33752" lon="-1.52162">
        <ele>67</ele>
        <time>2021-08-14T08:03:59.000Z</time>
      </trkpt>
      <trkpt lat="47.33753" lon="-1.52145">
        <ele>67</ele>
        <time>2021-08-14T08:04:01.000Z</time>
      </trkpt>
      <trkpt lat="47.33753" lon="-1.52129">
        <ele>67</ele>
        <time>2021-08-14T08:04:03.000Z</time>
      </trkpt>
      <trkpt lat="47.33755" lon="-1.52113">
        <ele>68</ele>
        <time>2021-08-14T08:04:05.000Z</time>
      </trkpt>
      <trkpt lat="47.33756" lon="-1.52097">
        <ele>68</ele>
        <time>2021-08-14T08:04:07.000Z</time>
      </trkpt>
      <trkpt lat="47.33758" lon="-1.52082">
        <ele>69</ele>
        <time>2021-08-14T08:04:09.000Z</time>
      </trkpt>
      <trkpt lat="47.3376" lon="-1.52067">
        <ele>69</ele>
        <time>2021-08-14T08:04:11.000Z</time>
      </trkpt>
      <trkpt lat="47.33759" lon="-1.52052">
        <ele>70</ele>
        <time>2021-08-14T08:04:13.000Z</time>
      </trkpt>
      <trkpt lat="47.33758" lon="-1.52037">
        <ele>70</ele>
        <time>2021-08-14T08:04:15.000Z</time>
      </trkpt>
      <trkpt lat="47.33758" lon="-1.52022">
        <ele>71</ele>
        <time>2021-08-14T08:04:17.000Z</time>
      </trkpt>
      <trkpt lat="47.33757" lon="-1.52006">
        <ele>71</ele>
        <time>2021-08-14T08:04:19.000Z</time>
      </trkpt>
      <trkpt lat="47.33755" lon="-1.51991">
        <ele>72</ele>
        <time>2021-08-14T08:04:21.000Z</time>
      </trkpt>
      <trkpt lat="47.33752" lon="-1.51976">
        <ele>72</ele>
        <time>2021-08-14T08:04:23.000Z</time>
      </trkpt>
      <trkpt lat="47.3375" lon="-1.5196">
        <ele>73</ele>
        <time>2021-08-14T08:04:25.000Z</time>
      </trkpt>
      <trkpt lat="47.33747" lon="-1.51945">
        <ele>74</ele>
        <time>2021-08-14T08:04:27.000Z</time>
      </trkpt>
      <trkpt lat="47.33746" lon="-1.5193">
        <ele>74</ele>
        <time>2021-08-14T08:04:29.000Z</time>
      </trkpt>
      <trkpt lat="47.33745" lon="-1.51915">
        <ele>74</ele>
        <time>2021-08-14T08:04:31.000Z</time>
      </trkpt>
      <trkpt lat="47.33745" lon="-1.51898">
        <ele>74</ele>
        <time>2021-08-14T08:04:33.000Z</time>
      </trkpt>
      <trkpt lat="47.33744" lon="-1.51883">
        <ele>74</ele>
        <time>2021-08-14T08:04:35.000Z</time>
      </trkpt>
      <trkpt lat="47.33743" lon="-1.51866">
        <ele>74</ele>
        <time>2021-08-14T08:04:37.000Z</time>
      </trkpt>
      <trkpt lat="47.33742" lon="-1.51851">
        <ele>75</ele>
        <time>2021-08-14T08:04:39.000Z</time>
      </trkpt>
      <trkpt lat="47.33742" lon="-1.51836">
        <ele>75</ele>
        <time>2021-08-14T08:04:41.000Z</time>
      </trkpt>
      <trkpt lat="47.33741" lon="-1.5182">
        <ele>75</ele>
        <time>2021-08-14T08:04:43.000Z</time>
      </trkpt>
      <trkpt lat="47.33741" lon="-1.51804">
        <ele>75</ele>
        <time>2021-08-14T08:04:45.000Z</time>
      </trkpt>
      <trkpt lat="47.3374" lon="-1.51788">
        <ele>75</ele>
        <time>2021-08-14T08:04:47.000Z</time>
      </trkpt>
      <trkpt lat="47.33739" lon="-1.51772">
        <ele>76</ele>
        <time>2021-08-14T08:04:49.000Z</time>
      </trkpt>
      <trkpt lat="47.33738" lon="-1.51755">
        <ele>76</ele>
        <time>2021-08-14T08:04:51.000Z</time>
      </trkpt>
      <trkpt lat="47.33738" lon="-1.51738">
        <ele>76</ele>
        <time>2021-08-14T08:04:53.000Z</time>
      </trkpt>
      <trkpt lat="47.33737" lon="-1.5172">
        <ele>76</ele>
        <time>2021-08-14T08:04:55.000Z</time>
      </trkpt>
      <trkpt lat="47.33736" lon="-1.51703">
        <ele>76</ele>
        <time>2021-08-14T08:04:57.000Z</time>
      </trkpt>
      <trkpt lat="47.33734" lon="-1.51687">
        <ele>75</ele>
        <time>2021-08-14T08:04:59.000Z</time>
      </trkpt>
      <trkpt lat="47.33731" lon="-1.51671">
        <ele>75</ele>
        <time>2021-08-14T08:05:01.000Z</time>
      </trkpt>
      <trkpt lat="47.33728" lon="-1.51653">
        <ele>75</ele>
        <time>2021-08-14T08:05:03.000Z</time>
      </trkpt>
      <trkpt lat="47.33724" lon="-1.51636">
        <ele>75</ele>
        <time>2021-08-14T08:05:05.000Z</time>
      </trkpt>
      <trkpt lat="47.33719" lon="-1.51619">
        <ele>75</ele>
        <time>2021-08-14T08:05:07.000Z</time>
      </trkpt>
      <trkpt lat="47.33714" lon="-1.51603">
        <ele>75</ele>
        <time>2021-08-14T08:05:09.000Z</time>
      </trkpt>
      <trkpt lat="47.3371" lon="-1.51584">
        <ele>74</ele>
        <time>2021-08-14T08:05:11.000Z</time>
      </trkpt>
      <trkpt lat="47.33706" lon="-1.51565">
        <ele>74</ele>
        <time>2021-08-14T08:05:13.000Z</time>
      </trkpt>
      <trkpt lat="47.33701" lon="-1.51545">
        <ele>73</ele>
        <time>2021-08-14T08:05:15.000Z</time>
      </trkpt>
      <trkpt lat="47.33697" lon="-1.51525">
        <ele>72</ele>
        <time>2021-08-14T08:05:17.000Z</time>
      </trkpt>
      <trkpt lat="47.33694" lon="-1.51503">
        <ele>71</ele>
        <time>2021-08-14T08:05:19.000Z</time>
      </trkpt>
      <trkpt lat="47.33693" lon="-1.51481">
        <ele>70</ele>
        <time>2021-08-14T08:05:21.000Z</time>
      </trkpt>
      <trkpt lat="47.33691" lon="-1.51458">
        <ele>70</ele>
        <time>2021-08-14T08:05:23.000Z</time>
      </trkpt>
      <trkpt lat="47.33689" lon="-1.51436">
        <ele>70</ele>
        <time>2021-08-14T08:05:25.000Z</time>
      </trkpt>
      <trkpt lat="47.33685" lon="-1.51414">
        <ele>69</ele>
        <time>2021-08-14T08:05:27.000Z</time>
      </trkpt>
      <trkpt lat="47.3368" lon="-1.51393">
        <ele>68</ele>
        <time>2021-08-14T08:05:29.000Z</time>
      </trkpt>
      <trkpt lat="47.33675" lon="-1.51371">
        <ele>68</ele>
        <time>2021-08-14T08:05:31.000Z</time>
      </trkpt>
      <trkpt lat="47.3367" lon="-1.5135">
        <ele>68</ele>
        <time>2021-08-14T08:05:33.000Z</time>
      </trkpt>
      <trkpt lat="47.33666" lon="-1.51328">
        <ele>67</ele>
        <time>2021-08-14T08:05:35.000Z</time>
      </trkpt>
      <trkpt lat="47.33661" lon="-1.51307">
        <ele>67</ele>
        <time>2021-08-14T08:05:37.000Z</time>
      </trkpt>
      <trkpt lat="47.33658" lon="-1.51285">
        <ele>67</ele>
        <time>2021-08-14T08:05:39.000Z</time>
      </trkpt>
      <trkpt lat="47.33655" lon="-1.51264">
        <ele>66</ele>
        <time>2021-08-14T08:05:41.000Z</time>
      </trkpt>
      <trkpt lat="47.33652" lon="-1.51242">
        <ele>66</ele>
        <time>2021-08-14T08:05:43.000Z</time>
      </trkpt>
      <trkpt lat="47.33651" lon="-1.5122">
        <ele>67</ele>
        <time>2021-08-14T08:05:45.000Z</time>
      </trkpt>
      <trkpt lat="47.3365" lon="-1.51199">
        <ele>67</ele>
        <time>2021-08-14T08:05:47.000Z</time>
      </trkpt>
      <trkpt lat="47.33649" lon="-1.51177">
        <ele>67</ele>
        <time>2021-08-14T08:05:49.000Z</time>
      </trkpt>
      <trkpt lat="47.33649" lon="-1.51156">
        <ele>67</ele>
        <time>2021-08-14T08:05:51.000Z</time>
      </trkpt>
      <trkpt lat="47.33649" lon="-1.51135">
        <ele>67</ele>
        <time>2021-08-14T08:05:53.000Z</time>
      </trkpt>
      <trkpt lat="47.33649" lon="-1.51116">
        <ele>67</ele>
        <time>2021-08-14T08:05:55.000Z</time>
      </trkpt>
      <trkpt lat="47.33649" lon="-1.51097">
        <ele>66</ele>
        <time>2021-08-14T08:05:57.000Z</time>
      </trkpt>
      <trkpt lat="47.33652" lon="-1.51078">
        <ele>66</ele>
        <time>2021-08-14T08:05:59.000Z</time>
      </trkpt>
      <trkpt lat="47.33658" lon="-1.51059">
        <ele>66</ele>
        <time>2021-08-14T08:06:01.000Z</time>
      </trkpt>
      <trkpt lat="47.33664" lon="-1.51041">
        <ele>65</ele>
        <time>2021-08-14T08:06:03.000Z</time>
      </trkpt>
      <trkpt lat="47.33669" lon="-1.51021">
        <ele>65</ele>
        <time>2021-08-14T08:06:05.000Z</time>
      </trkpt>
      <trkpt lat="47.33673" lon="-1.51001">
        <ele>65</ele>
        <time>2021-08-14T08:06:07.000Z</time>
      </trkpt>
      <trkpt lat="47.33677" lon="-1.50981">
        <ele>65</ele>
        <time>2021-08-14T08:06:09.000Z</time>
      </trkpt>
      <trkpt lat="47.33681" lon="-1.50961">
        <ele>65</ele>
        <time>2021-08-14T08:06:11.000Z</time>
      </trkpt>
      <trkpt lat="47.33684" lon="-1.50939">
        <ele>64</ele>
        <time>2021-08-14T08:06:13.000Z</time>
      </trkpt>
      <trkpt lat="47.33688" lon="-1.50918">
        <ele>64</ele>
        <time>2021-08-14T08:06:15.000Z</time>
      </trkpt>
      <trkpt lat="47.33692" lon="-1.50897">
        <ele>63</ele>
        <time>2021-08-14T08:06:17.000Z</time>
      </trkpt>
      <trkpt lat="47.33696" lon="-1.50876">
        <ele>63</ele>
        <time>2021-08-14T08:06:19.000Z</time>
      </trkpt>
      <trkpt lat="47.33701" lon="-1.50855">
        <ele>62</ele>
        <time>2021-08-14T08:06:21.000Z</time>
      </trkpt>
      <trkpt lat="47.33705" lon="-1.50833">
        <ele>62</ele>
        <time>2021-08-14T08:06:23.000Z</time>
      </trkpt>
      <trkpt lat="47.33709" lon="-1.50811">
        <ele>62</ele>
        <time>2021-08-14T08:06:25.000Z</time>
      </trkpt>
      <trkpt lat="47.33713" lon="-1.5079">
        <ele>62</ele>
        <time>2021-08-14T08:06:27.000Z</time>
      </trkpt>
      <trkpt lat="47.33717" lon="-1.50769">
        <ele>61</ele>
        <time>2021-08-14T08:06:29.000Z</time>
      </trkpt>
      <trkpt lat="47.3372" lon="-1.50747">
        <ele>61</ele>
        <time>2021-08-14T08:06:31.000Z</time>
      </trkpt>
      <trkpt lat="47.33725" lon="-1.50727">
        <ele>61</ele>
        <time>2021-08-14T08:06:33.000Z</time>
      </trkpt>
      <trkpt lat="47.33729" lon="-1.50706">
        <ele>61</ele>
        <time>2021-08-14T08:06:35.000Z</time>
      </trkpt>
      <trkpt lat="47.33733" lon="-1.50685">
        <ele>61</ele>
        <time>2021-08-14T08:06:37.000Z</time>
      </trkpt>
      <trkpt lat="47.33737" lon="-1.50664">
        <ele>60</ele>
        <time>2021-08-14T08:06:39.000Z</time>
      </trkpt>
      <trkpt lat="47.33741" lon="-1.50643">
        <ele>60</ele>
        <time>2021-08-14T08:06:41.000Z</time>
      </trkpt>
      <trkpt lat="47.33745" lon="-1.50622">
        <ele>60</ele>
        <time>2021-08-14T08:06:43.000Z</time>
      </trkpt>
      <trkpt lat="47.33749" lon="-1.50601">
        <ele>60</ele>
        <time>2021-08-14T08:06:45.000Z</time>
      </trkpt>
      <trkpt lat="47.33752" lon="-1.5058">
        <ele>60</ele>
        <time>2021-08-14T08:06:47.000Z</time>
      </trkpt>
      <trkpt lat="47.33757" lon="-1.50558">
        <ele>60</ele>
        <time>2021-08-14T08:06:49.000Z</time>
      </trkpt>
      <trkpt lat="47.33761" lon="-1.50538">
        <ele>60</ele>
        <time>2021-08-14T08:06:51.000Z</time>
      </trkpt>
      <trkpt lat="47.33766" lon="-1.50517">
        <ele>60</ele>
        <time>2021-08-14T08:06:53.000Z</time>
      </trkpt>
      <trkpt lat="47.3377" lon="-1.50496">
        <ele>60</ele>
        <time>2021-08-14T08:06:55.000Z</time>
      </trkpt>
      <trkpt lat="47.33774" lon="-1.50476">
        <ele>60</ele>
        <time>2021-08-14T08:06:57.000Z</time>
      </trkpt>
      <trkpt lat="47.33778" lon="-1.50456">
        <ele>60</ele>
        <time>2021-08-14T08:06:59.000Z</time>
      </trkpt>
      <trkpt lat="47.33782" lon="-1.50435">
        <ele>60</ele>
        <time>2021-08-14T08:07:01.000Z</time>
      </trkpt>
      <trkpt lat="47.33785" lon="-1.50415">
        <ele>60</ele>
        <time>2021-08-14T08:07:03.000Z</time>
      </trkpt>
      <trkpt lat="47.33789" lon="-1.50394">
        <ele>60</ele>
        <time>2021-08-14T08:07:05.000Z</time>
      </trkpt>
      <trkpt lat="47.33789" lon="-1.50374">
        <ele>60</ele>
        <time>2021-08-14T08:07:07.000Z</time>
      </trkpt>
      <trkpt lat="47.33787" lon="-1.50353">
        <ele>60</ele>
        <time>2021-08-14T08:07:09.000Z</time>
      </trkpt>
      <trkpt lat="47.33784" lon="-1.50333">
        <ele>60</ele>
        <time>2021-08-14T08:07:11.000Z</time>
      </trkpt>
      <trkpt lat="47.33781" lon="-1.50312">
        <ele>61</ele>
        <time>2021-08-14T08:07:13.000Z</time>
      </trkpt>
      <trkpt lat="47.33778" lon="-1.50292">
        <ele>60</ele>
        <time>2021-08-14T08:07:15.000Z</time>
      </trkpt>
      <trkpt lat="47.33776" lon="-1.50273">
        <ele>61</ele>
        <time>2021-08-14T08:07:17.000Z</time>
      </trkpt>
      <trkpt lat="47.33773" lon="-1.50254">
        <ele>61</ele>
        <time>2021-08-14T08:07:19.000Z</time>
      </trkpt>
      <trkpt lat="47.3377" lon="-1.50236">
        <ele>61</ele>
        <time>2021-08-14T08:07:21.000Z</time>
      </trkpt>
      <trkpt lat="47.33767" lon="-1.50217">
        <ele>61</ele>
        <time>2021-08-14T08:07:23.000Z</time>
      </trkpt>
      <trkpt lat="47.33765" lon="-1.50197">
        <ele>61</ele>
        <time>2021-08-14T08:07:25.000Z</time>
      </trkpt>
      <trkpt lat="47.33761" lon="-1.50178">
        <ele>62</ele>
        <time>2021-08-14T08:07:27.000Z</time>
      </trkpt>
      <trkpt lat="47.33758" lon="-1.5016">
        <ele>62</ele>
        <time>2021-08-14T08:07:29.000Z</time>
      </trkpt>
      <trkpt lat="47.33755" lon="-1.5014">
        <ele>63</ele>
        <time>2021-08-14T08:07:31.000Z</time>
      </trkpt>
      <trkpt lat="47.33753" lon="-1.50121">
        <ele>64</ele>
        <time>2021-08-14T08:07:33.000Z</time>
      </trkpt>
      <trkpt lat="47.33751" lon="-1.50103">
        <ele>65</ele>
        <time>2021-08-14T08:07:35.000Z</time>
      </trkpt>
      <trkpt lat="47.3375" lon="-1.50082">
        <ele>65</ele>
        <time>2021-08-14T08:07:37.000Z</time>
      </trkpt>
      <trkpt lat="47.33749" lon="-1.50063">
        <ele>64</ele>
        <time>2021-08-14T08:07:39.000Z</time>
      </trkpt>
      <trkpt lat="47.33748" lon="-1.50044">
        <ele>64</ele>
        <time>2021-08-14T08:07:41.000Z</time>
      </trkpt>
      <trkpt lat="47.33745" lon="-1.50026">
        <ele>64</ele>
        <time>2021-08-14T08:07:43.000Z</time>
      </trkpt>
      <trkpt lat="47.33742" lon="-1.50008">
        <ele>64</ele>
        <time>2021-08-14T08:07:45.000Z</time>
      </trkpt>
      <trkpt lat="47.33738" lon="-1.4999">
        <ele>64</ele>
        <time>2021-08-14T08:07:47.000Z</time>
      </trkpt>
      <trkpt lat="47.33734" lon="-1.49972">
        <ele>63</ele>
        <time>2021-08-14T08:07:49.000Z</time>
      </trkpt>
      <trkpt lat="47.33728" lon="-1.49954">
        <ele>64</ele>
        <time>2021-08-14T08:07:51.000Z</time>
      </trkpt>
      <trkpt lat="47.33721" lon="-1.49936">
        <ele>63</ele>
        <time>2021-08-14T08:07:53.000Z</time>
      </trkpt>
      <trkpt lat="47.33711" lon="-1.49921">
        <ele>62</ele>
        <time>2021-08-14T08:07:55.000Z</time>
      </trkpt>
      <trkpt lat="47.33699" lon="-1.49906">
        <ele>61</ele>
        <time>2021-08-14T08:07:57.000Z</time>
      </trkpt>
      <trkpt lat="47.33686" lon="-1.49892">
        <ele>60</ele>
        <time>2021-08-14T08:07:59.000Z</time>
      </trkpt>
      <trkpt lat="47.33674" lon="-1.49874">
        <ele>58</ele>
        <time>2021-08-14T08:08:01.000Z</time>
      </trkpt>
      <trkpt lat="47.33664" lon="-1.49853">
        <ele>58</ele>
        <time>2021-08-14T08:08:03.000Z</time>
      </trkpt>
      <trkpt lat="47.33657" lon="-1.49831">
        <ele>57</ele>
        <time>2021-08-14T08:08:05.000Z</time>
      </trkpt>
      <trkpt lat="47.33653" lon="-1.49807">
        <ele>57</ele>
        <time>2021-08-14T08:08:07.000Z</time>
      </trkpt>
      <trkpt lat="47.33652" lon="-1.49783">
        <ele>57</ele>
        <time>2021-08-14T08:08:09.000Z</time>
      </trkpt>
      <trkpt lat="47.3365" lon="-1.4976">
        <ele>57</ele>
        <time>2021-08-14T08:08:11.000Z</time>
      </trkpt>
      <trkpt lat="47.33648" lon="-1.49735">
        <ele>57</ele>
        <time>2021-08-14T08:08:13.000Z</time>
      </trkpt>
      <trkpt lat="47.33645" lon="-1.49711">
        <ele>57</ele>
        <time>2021-08-14T08:08:15.000Z</time>
      </trkpt>
      <trkpt lat="47.33642" lon="-1.49687">
        <ele>57</ele>
        <time>2021-08-14T08:08:17.000Z</time>
      </trkpt>
      <trkpt lat="47.33639" lon="-1.49665">
        <ele>57</ele>
        <time>2021-08-14T08:08:19.000Z</time>
      </trkpt>
      <trkpt lat="47.33637" lon="-1.49643">
        <ele>57</ele>
        <time>2021-08-14T08:08:21.000Z</time>
      </trkpt>
      <trkpt lat="47.33637" lon="-1.49621">
        <ele>58</ele>
        <time>2021-08-14T08:08:23.000Z</time>
      </trkpt>
      <trkpt lat="47.33639" lon="-1.49598">
        <ele>57</ele>
        <time>2021-08-14T08:08:25.000Z</time>
      </trkpt>
      <trkpt lat="47.33638" lon="-1.49576">
        <ele>57</ele>
        <time>2021-08-14T08:08:27.000Z</time>
      </trkpt>
      <trkpt lat="47.33636" lon="-1.49554">
        <ele>58</ele>
        <time>2021-08-14T08:08:29.000Z</time>
      </trkpt>
      <trkpt lat="47.33633" lon="-1.49531">
        <ele>58</ele>
        <time>2021-08-14T08:08:31.000Z</time>
      </trkpt>
      <trkpt lat="47.33628" lon="-1.4951">
        <ele>57</ele>
        <time>2021-08-14T08:08:33.000Z</time>
      </trkpt>
      <trkpt lat="47.33622" lon="-1.4949">
        <ele>57</ele>
        <time>2021-08-14T08:08:35.000Z</time>
      </trkpt>
      <trkpt lat="47.33615" lon="-1.4947">
        <ele>58</ele>
        <time>2021-08-14T08:08:37.000Z</time>
      </trkpt>
      <trkpt lat="47.33607" lon="-1.49451">
        <ele>58</ele>
        <time>2021-08-14T08:08:39.000Z</time>
      </trkpt>
      <trkpt lat="47.33598" lon="-1.49432">
        <ele>57</ele>
        <time>2021-08-14T08:08:41.000Z</time>
      </trkpt>
      <trkpt lat="47.3359" lon="-1.49413">
        <ele>57</ele>
        <time>2021-08-14T08:08:43.000Z</time>
      </trkpt>
      <trkpt lat="47.33582" lon="-1.49394">
        <ele>57</ele>
        <time>2021-08-14T08:08:45.000Z</time>
      </trkpt>
      <trkpt lat="47.33575" lon="-1.49375">
        <ele>57</ele>
        <time>2021-08-14T08:08:47.000Z</time>
      </trkpt>
      <trkpt lat="47.33567" lon="-1.49358">
        <ele>57</ele>
        <time>2021-08-14T08:08:49.000Z</time>
      </trkpt>
      <trkpt lat="47.33563" lon="-1.4934">
        <ele>57</ele>
        <time>2021-08-14T08:08:51.000Z</time>
      </trkpt>
      <trkpt lat="47.33569" lon="-1.49323">
        <ele>58</ele>
        <time>2021-08-14T08:08:53.000Z</time>
      </trkpt>
      <trkpt lat="47.33579" lon="-1.49309">
        <ele>58</ele>
        <time>2021-08-14T08:08:55.000Z</time>
      </trkpt>
      <trkpt lat="47.33589" lon="-1.49296">
        <ele>59</ele>
        <time>2021-08-14T08:08:57.000Z</time>
      </trkpt>
      <trkpt lat="47.33599" lon="-1.49282">
        <ele>59</ele>
        <time>2021-08-14T08:08:59.000Z</time>
      </trkpt>
      <trkpt lat="47.3361" lon="-1.49269">
        <ele>59</ele>
        <time>2021-08-14T08:09:01.000Z</time>
      </trkpt>
      <trkpt lat="47.3362" lon="-1.49256">
        <ele>59</ele>
        <time>2021-08-14T08:09:03.000Z</time>
      </trkpt>
      <trkpt lat="47.3363" lon="-1.49244">
        <ele>60</ele>
        <time>2021-08-14T08:09:05.000Z</time>
      </trkpt>
      <trkpt lat="47.3364" lon="-1.49231">
        <ele>60</ele>
        <time>2021-08-14T08:09:07.000Z</time>
      </trkpt>
      <trkpt lat="47.33651" lon="-1.49219">
        <ele>60</ele>
        <time>2021-08-14T08:09:09.000Z</time>
      </trkpt>
      <trkpt lat="47.3366" lon="-1.49207">
        <ele>60</ele>
        <time>2021-08-14T08:09:11.000Z</time>
      </trkpt>
      <trkpt lat="47.3367" lon="-1.49195">
        <ele>61</ele>
        <time>2021-08-14T08:09:13.000Z</time>
      </trkpt>
      <trkpt lat="47.3368" lon="-1.49183">
        <ele>61</ele>
        <time>2021-08-14T08:09:15.000Z</time>
      </trkpt>
      <trkpt lat="47.33687" lon="-1.49169">
        <ele>61</ele>
        <time>2021-08-14T08:09:17.000Z</time>
      </trkpt>
      <trkpt lat="47.33693" lon="-1.49153">
        <ele>61</ele>
        <time>2021-08-14T08:09:19.000Z</time>
      </trkpt>
      <trkpt lat="47.33696" lon="-1.49134">
        <ele>61</ele>
        <time>2021-08-14T08:09:21.000Z</time>
      </trkpt>
      <trkpt lat="47.33697" lon="-1.49116">
        <ele>61</ele>
        <time>2021-08-14T08:09:23.000Z</time>
      </trkpt>
      <trkpt lat="47.337" lon="-1.49098">
        <ele>62</ele>
        <time>2021-08-14T08:09:25.000Z</time>
      </trkpt>
      <trkpt lat="47.33706" lon="-1.49083">
        <ele>62</ele>
        <time>2021-08-14T08:09:27.000Z</time>
      </trkpt>
      <trkpt lat="47.33713" lon="-1.49071">
        <ele>62</ele>
        <time>2021-08-14T08:09:29.000Z</time>
      </trkpt>
      <trkpt lat="47.33721" lon="-1.49062">
        <ele>62</ele>
        <time>2021-08-14T08:09:31.000Z</time>
      </trkpt>
      <trkpt lat="47.3373" lon="-1.49051">
        <ele>62</ele>
        <time>2021-08-14T08:09:33.000Z</time>
      </trkpt>
      <trkpt lat="47.33738" lon="-1.49041">
        <ele>62</ele>
        <time>2021-08-14T08:09:35.000Z</time>
      </trkpt>
      <trkpt lat="47.33747" lon="-1.49031">
        <ele>63</ele>
        <time>2021-08-14T08:09:37.000Z</time>
      </trkpt>
      <trkpt lat="47.33756" lon="-1.49021">
        <ele>63</ele>
        <time>2021-08-14T08:09:39.000Z</time>
      </trkpt>
      <trkpt lat="47.33765" lon="-1.4901">
        <ele>64</ele>
        <time>2021-08-14T08:09:41.000Z</time>
      </trkpt>
      <trkpt lat="47.33774" lon="-1.49">
        <ele>64</ele>
        <time>2021-08-14T08:09:43.000Z</time>
      </trkpt>
      <trkpt lat="47.33782" lon="-1.4899">
        <ele>64</ele>
        <time>2021-08-14T08:09:45.000Z</time>
      </trkpt>
      <trkpt lat="47.33791" lon="-1.48979">
        <ele>64</ele>
        <time>2021-08-14T08:09:47.000Z</time>
      </trkpt>
      <trkpt lat="47.338" lon="-1.48966">
        <ele>65</ele>
        <time>2021-08-14T08:09:49.000Z</time>
      </trkpt>
      <trkpt lat="47.33809" lon="-1.48954">
        <ele>64</ele>
        <time>2021-08-14T08:09:51.000Z</time>
      </trkpt>
      <trkpt lat="47.33818" lon="-1.4894">
        <ele>64</ele>
        <time>2021-08-14T08:09:53.000Z</time>
      </trkpt>
      <trkpt lat="47.33827" lon="-1.48926">
        <ele>64</ele>
        <time>2021-08-14T08:09:55.000Z</time>
      </trkpt>
      <trkpt lat="47.33836" lon="-1.48911">
        <ele>64</ele>
        <time>2021-08-14T08:09:57.000Z</time>
      </trkpt>
      <trkpt lat="47.33845" lon="-1.48896">
        <ele>64</ele>
        <time>2021-08-14T08:09:59.000Z</time>
      </trkpt>
      <trkpt lat="47.33855" lon="-1.48882">
        <ele>64</ele>
        <time>2021-08-14T08:10:01.000Z</time>
      </trkpt>
      <trkpt lat="47.33864" lon="-1.48867">
        <ele>64</ele>
        <time>2021-08-14T08:10:03.000Z</time>
      </trkpt>
      <trkpt lat="47.33874" lon="-1.48852">
        <ele>63</ele>
        <time>2021-08-14T08:10:05.000Z</time>
      </trkpt>
      <trkpt lat="47.33884" lon="-1.48837">
        <ele>63</ele>
        <time>2021-08-14T08:10:07.000Z</time>
      </trkpt>
      <trkpt lat="47.33893" lon="-1.48821">
        <ele>63</ele>
        <time>2021-08-14T08:10:09.000Z</time>
      </trkpt>
      <trkpt lat="47.33904" lon="-1.48805">
        <ele>62</ele>
        <time>2021-08-14T08:10:11.000Z</time>
      </trkpt>
      <trkpt lat="47.33914" lon="-1.48789">
        <ele>62</ele>
        <time>2021-08-14T08:10:13.000Z</time>
      </trkpt>
      <trkpt lat="47.33924" lon="-1.48772">
        <ele>61</ele>
        <time>2021-08-14T08:10:15.000Z</time>
      </trkpt>
      <trkpt lat="47.33935" lon="-1.48755">
        <ele>61</ele>
        <time>2021-08-14T08:10:17.000Z</time>
      </trkpt>
      <trkpt lat="47.33945" lon="-1.48739">
        <ele>61</ele>
        <time>2021-08-14T08:10:19.000Z</time>
      </trkpt>
      <trkpt lat="47.33956" lon="-1.48722">
        <ele>60</ele>
        <time>2021-08-14T08:10:21.000Z</time>
      </trkpt>
      <trkpt lat="47.33966" lon="-1.48706">
        <ele>60</ele>
        <time>2021-08-14T08:10:23.000Z</time>
      </trkpt>
      <trkpt lat="47.33976" lon="-1.48689">
        <ele>60</ele>
        <time>2021-08-14T08:10:25.000Z</time>
      </trkpt>
      <trkpt lat="47.33986" lon="-1.48672">
        <ele>60</ele>
        <time>2021-08-14T08:10:27.000Z</time>
      </trkpt>
      <trkpt lat="47.33997" lon="-1.48654">
        <ele>59</ele>
        <time>2021-08-14T08:10:29.000Z</time>
      </trkpt>
      <trkpt lat="47.34007" lon="-1.48638">
        <ele>59</ele>
        <time>2021-08-14T08:10:31.000Z</time>
      </trkpt>
      <trkpt lat="47.34017" lon="-1.4862">
        <ele>58</ele>
        <time>2021-08-14T08:10:33.000Z</time>
      </trkpt>
      <trkpt lat="47.34027" lon="-1.48603">
        <ele>58</ele>
        <time>2021-08-14T08:10:35.000Z</time>
      </trkpt>
      <trkpt lat="47.34037" lon="-1.48585">
        <ele>58</ele>
        <time>2021-08-14T08:10:37.000Z</time>
      </trkpt>
      <trkpt lat="47.34045" lon="-1.48567">
        <ele>58</ele>
        <time>2021-08-14T08:10:39.000Z</time>
      </trkpt>
      <trkpt lat="47.34054" lon="-1.48549">
        <ele>58</ele>
        <time>2021-08-14T08:10:41.000Z</time>
      </trkpt>
      <trkpt lat="47.34062" lon="-1.48531">
        <ele>58</ele>
        <time>2021-08-14T08:10:43.000Z</time>
      </trkpt>
      <trkpt lat="47.3407" lon="-1.48513">
        <ele>58</ele>
        <time>2021-08-14T08:10:45.000Z</time>
      </trkpt>
      <trkpt lat="47.34079" lon="-1.48497">
        <ele>59</ele>
        <time>2021-08-14T08:10:47.000Z</time>
      </trkpt>
      <trkpt lat="47.34087" lon="-1.48479">
        <ele>59</ele>
        <time>2021-08-14T08:10:49.000Z</time>
      </trkpt>
      <trkpt lat="47.34095" lon="-1.48461">
        <ele>58</ele>
        <time>2021-08-14T08:10:51.000Z</time>
      </trkpt>
      <trkpt lat="47.34104" lon="-1.48444">
        <ele>58</ele>
        <time>2021-08-14T08:10:53.000Z</time>
      </trkpt>
      <trkpt lat="47.34112" lon="-1.48426">
        <ele>58</ele>
        <time>2021-08-14T08:10:55.000Z</time>
      </trkpt>
      <trkpt lat="47.34121" lon="-1.48408">
        <ele>58</ele>
        <time>2021-08-14T08:10:57.000Z</time>
      </trkpt>
      <trkpt lat="47.34129" lon="-1.48391">
        <ele>58</ele>
        <time>2021-08-14T08:10:59.000Z</time>
      </trkpt>
      <trkpt lat="47.34137" lon="-1.48374">
        <ele>58</ele>
        <time>2021-08-14T08:11:01.000Z</time>
      </trkpt>
      <trkpt lat="47.34145" lon="-1.48357">
        <ele>58</ele>
        <time>2021-08-14T08:11:03.000Z</time>
      </trkpt>
      <trkpt lat="47.34153" lon="-1.4834">
        <ele>58</ele>
        <time>2021-08-14T08:11:05.000Z</time>
      </trkpt>
      <trkpt lat="47.34161" lon="-1.48323">
        <ele>59</ele>
        <time>2021-08-14T08:11:07.000Z</time>
      </trkpt>
      <trkpt lat="47.34169" lon="-1.48306">
        <ele>59</ele>
        <time>2021-08-14T08:11:09.000Z</time>
      </trkpt>
      <trkpt lat="47.34178" lon="-1.4829">
        <ele>58</ele>
        <time>2021-08-14T08:11:11.000Z</time>
      </trkpt>
      <trkpt lat="47.34186" lon="-1.48272">
        <ele>59</ele>
        <time>2021-08-14T08:11:13.000Z</time>
      </trkpt>
      <trkpt lat="47.34196" lon="-1.48256">
        <ele>58</ele>
        <time>2021-08-14T08:11:15.000Z</time>
      </trkpt>
      <trkpt lat="47.34205" lon="-1.4824">
        <ele>59</ele>
        <time>2021-08-14T08:11:17.000Z</time>
      </trkpt>
      <trkpt lat="47.34215" lon="-1.48224">
        <ele>58</ele>
        <time>2021-08-14T08:11:19.000Z</time>
      </trkpt>
      <trkpt lat="47.34224" lon="-1.48208">
        <ele>58</ele>
        <time>2021-08-14T08:11:21.000Z</time>
      </trkpt>
      <trkpt lat="47.34233" lon="-1.48193">
        <ele>58</ele>
        <time>2021-08-14T08:11:23.000Z</time>
      </trkpt>
      <trkpt lat="47.34243" lon="-1.48178">
        <ele>58</ele>
        <time>2021-08-14T08:11:25.000Z</time>
      </trkpt>
      <trkpt lat="47.34253" lon="-1.48163">
        <ele>58</ele>
        <time>2021-08-14T08:11:27.000Z</time>
      </trkpt>
      <trkpt lat="47.34262" lon="-1.48147">
        <ele>58</ele>
        <time>2021-08-14T08:11:29.000Z</time>
      </trkpt>
      <trkpt lat="47.34271" lon="-1.48132">
        <ele>58</ele>
        <time>2021-08-14T08:11:31.000Z</time>
      </trkpt>
      <trkpt lat="47.3428" lon="-1.48117">
        <ele>58</ele>
        <time>2021-08-14T08:11:33.000Z</time>
      </trkpt>
      <trkpt lat="47.3429" lon="-1.48102">
        <ele>59</ele>
        <time>2021-08-14T08:11:35.000Z</time>
      </trkpt>
      <trkpt lat="47.34299" lon="-1.48086">
        <ele>58</ele>
        <time>2021-08-14T08:11:37.000Z</time>
      </trkpt>
      <trkpt lat="47.34308" lon="-1.48071">
        <ele>59</ele>
        <time>2021-08-14T08:11:39.000Z</time>
      </trkpt>
      <trkpt lat="47.34317" lon="-1.48056">
        <ele>58</ele>
        <time>2021-08-14T08:11:41.000Z</time>
      </trkpt>
      <trkpt lat="47.34327" lon="-1.48041">
        <ele>59</ele>
        <time>2021-08-14T08:11:43.000Z</time>
      </trkpt>
      <trkpt lat="47.34336" lon="-1.48026">
        <ele>59</ele>
        <time>2021-08-14T08:11:45.000Z</time>
      </trkpt>
      <trkpt lat="47.34345" lon="-1.48011">
        <ele>59</ele>
        <time>2021-08-14T08:11:47.000Z</time>
      </trkpt>
      <trkpt lat="47.34354" lon="-1.47996">
        <ele>59</ele>
        <time>2021-08-14T08:11:49.000Z</time>
      </trkpt>
      <trkpt lat="47.34364" lon="-1.47981">
        <ele>59</ele>
        <time>2021-08-14T08:11:51.000Z</time>
      </trkpt>
      <trkpt lat="47.34374" lon="-1.47966">
        <ele>59</ele>
        <time>2021-08-14T08:11:53.000Z</time>
      </trkpt>
      <trkpt lat="47.34384" lon="-1.47951">
        <ele>59</ele>
        <time>2021-08-14T08:11:55.000Z</time>
      </trkpt>
      <trkpt lat="47.34394" lon="-1.47937">
        <ele>58</ele>
        <time>2021-08-14T08:11:57.000Z</time>
      </trkpt>
      <trkpt lat="47.34405" lon="-1.47923">
        <ele>58</ele>
        <time>2021-08-14T08:11:59.000Z</time>
      </trkpt>
      <trkpt lat="47.34414" lon="-1.4791">
        <ele>58</ele>
        <time>2021-08-14T08:12:01.000Z</time>
      </trkpt>
      <trkpt lat="47.34424" lon="-1.47897">
        <ele>58</ele>
        <time>2021-08-14T08:12:03.000Z</time>
      </trkpt>
      <trkpt lat="47.34434" lon="-1.47885">
        <ele>58</ele>
        <time>2021-08-14T08:12:05.000Z</time>
      </trkpt>
      <trkpt lat="47.34444" lon="-1.47872">
        <ele>59</ele>
        <time>2021-08-14T08:12:07.000Z</time>
      </trkpt>
      <trkpt lat="47.34454" lon="-1.47861">
        <ele>59</ele>
        <time>2021-08-14T08:12:09.000Z</time>
      </trkpt>
      <trkpt lat="47.34465" lon="-1.47849">
        <ele>59</ele>
        <time>2021-08-14T08:12:11.000Z</time>
      </trkpt>
      <trkpt lat="47.34476" lon="-1.47837">
        <ele>59</ele>
        <time>2021-08-14T08:12:13.000Z</time>
      </trkpt>
      <trkpt lat="47.34486" lon="-1.47825">
        <ele>59</ele>
        <time>2021-08-14T08:12:15.000Z</time>
      </trkpt>
      <trkpt lat="47.34497" lon="-1.47812">
        <ele>59</ele>
        <time>2021-08-14T08:12:17.000Z</time>
      </trkpt>
      <trkpt lat="47.34507" lon="-1.47801">
        <ele>59</ele>
        <time>2021-08-14T08:12:19.000Z</time>
      </trkpt>
      <trkpt lat="47.34518" lon="-1.47789">
        <ele>58</ele>
        <time>2021-08-14T08:12:21.000Z</time>
      </trkpt>
      <trkpt lat="47.34528" lon="-1.47777">
        <ele>59</ele>
        <time>2021-08-14T08:12:23.000Z</time>
      </trkpt>
      <trkpt lat="47.34539" lon="-1.47765">
        <ele>58</ele>
        <time>2021-08-14T08:12:25.000Z</time>
      </trkpt>
      <trkpt lat="47.34549" lon="-1.47753">
        <ele>58</ele>
        <time>2021-08-14T08:12:27.000Z</time>
      </trkpt>
      <trkpt lat="47.3456" lon="-1.47741">
        <ele>57</ele>
        <time>2021-08-14T08:12:29.000Z</time>
      </trkpt>
      <trkpt lat="47.3457" lon="-1.4773">
        <ele>57</ele>
        <time>2021-08-14T08:12:31.000Z</time>
      </trkpt>
      <trkpt lat="47.34581" lon="-1.47717">
        <ele>57</ele>
        <time>2021-08-14T08:12:33.000Z</time>
      </trkpt>
      <trkpt lat="47.34598" lon="-1.47698">
        <ele>57</ele>
        <time>2021-08-14T08:12:36.000Z</time>
      </trkpt>
      <trkpt lat="47.34609" lon="-1.47686">
        <ele>57</ele>
        <time>2021-08-14T08:12:38.000Z</time>
      </trkpt>
      <trkpt lat="47.34619" lon="-1.47674">
        <ele>57</ele>
        <time>2021-08-14T08:12:40.000Z</time>
      </trkpt>
      <trkpt lat="47.3463" lon="-1.47663">
        <ele>57</ele>
        <time>2021-08-14T08:12:42.000Z</time>
      </trkpt>
      <trkpt lat="47.3464" lon="-1.47651">
        <ele>57</ele>
        <time>2021-08-14T08:12:44.000Z</time>
      </trkpt>
      <trkpt lat="47.34651" lon="-1.47639">
        <ele>57</ele>
        <time>2021-08-14T08:12:46.000Z</time>
      </trkpt>
      <trkpt lat="47.34667" lon="-1.47621">
        <ele>58</ele>
        <time>2021-08-14T08:12:49.000Z</time>
      </trkpt>
      <trkpt lat="47.34678" lon="-1.47609">
        <ele>57</ele>
        <time>2021-08-14T08:12:51.000Z</time>
      </trkpt>
      <trkpt lat="47.34688" lon="-1.47598">
        <ele>57</ele>
        <time>2021-08-14T08:12:53.000Z</time>
      </trkpt>
      <trkpt lat="47.34698" lon="-1.47587">
        <ele>58</ele>
        <time>2021-08-14T08:12:55.000Z</time>
      </trkpt>
      <trkpt lat="47.34708" lon="-1.47576">
        <ele>58</ele>
        <time>2021-08-14T08:12:57.000Z</time>
      </trkpt>
      <trkpt lat="47.34718" lon="-1.47564">
        <ele>59</ele>
        <time>2021-08-14T08:12:59.000Z</time>
      </trkpt>
      <trkpt lat="47.34729" lon="-1.47552">
        <ele>59</ele>
        <time>2021-08-14T08:13:01.000Z</time>
      </trkpt>
      <trkpt lat="47.34739" lon="-1.4754">
        <ele>58</ele>
        <time>2021-08-14T08:13:03.000Z</time>
      </trkpt>
      <trkpt lat="47.34755" lon="-1.47521">
        <ele>58</ele>
        <time>2021-08-14T08:13:06.000Z</time>
      </trkpt>
      <trkpt lat="47.34765" lon="-1.47507">
        <ele>58</ele>
        <time>2021-08-14T08:13:08.000Z</time>
      </trkpt>
      <trkpt lat="47.34773" lon="-1.47492">
        <ele>58</ele>
        <time>2021-08-14T08:13:10.000Z</time>
      </trkpt>
      <trkpt lat="47.34784" lon="-1.47468">
        <ele>58</ele>
        <time>2021-08-14T08:13:13.000Z</time>
      </trkpt>
      <trkpt lat="47.34792" lon="-1.47451">
        <ele>58</ele>
        <time>2021-08-14T08:13:15.000Z</time>
      </trkpt>
      <trkpt lat="47.34799" lon="-1.47434">
        <ele>58</ele>
        <time>2021-08-14T08:13:17.000Z</time>
      </trkpt>
      <trkpt lat="47.34806" lon="-1.47417">
        <ele>58</ele>
        <time>2021-08-14T08:13:19.000Z</time>
      </trkpt>
      <trkpt lat="47.34813" lon="-1.47399">
        <ele>58</ele>
        <time>2021-08-14T08:13:21.000Z</time>
      </trkpt>
      <trkpt lat="47.3482" lon="-1.47383">
        <ele>57</ele>
        <time>2021-08-14T08:13:23.000Z</time>
      </trkpt>
      <trkpt lat="47.34828" lon="-1.47368">
        <ele>58</ele>
        <time>2021-08-14T08:13:25.000Z</time>
      </trkpt>
      <trkpt lat="47.34837" lon="-1.47355">
        <ele>58</ele>
        <time>2021-08-14T08:13:27.000Z</time>
      </trkpt>
      <trkpt lat="47.34847" lon="-1.47342">
        <ele>58</ele>
        <time>2021-08-14T08:13:29.000Z</time>
      </trkpt>
      <trkpt lat="47.34858" lon="-1.47331">
        <ele>58</ele>
        <time>2021-08-14T08:13:31.000Z</time>
      </trkpt>
      <trkpt lat="47.34869" lon="-1.4732">
        <ele>59</ele>
        <time>2021-08-14T08:13:33.000Z</time>
      </trkpt>
      <trkpt lat="47.34881" lon="-1.47311">
        <ele>59</ele>
        <time>2021-08-14T08:13:35.000Z</time>
      </trkpt>
      <trkpt lat="47.34893" lon="-1.47302">
        <ele>59</ele>
        <time>2021-08-14T08:13:37.000Z</time>
      </trkpt>
      <trkpt lat="47.34904" lon="-1.47292">
        <ele>60</ele>
        <time>2021-08-14T08:13:39.000Z</time>
      </trkpt>
      <trkpt lat="47.34915" lon="-1.47283">
        <ele>60</ele>
        <time>2021-08-14T08:13:41.000Z</time>
      </trkpt>
      <trkpt lat="47.34927" lon="-1.47275">
        <ele>60</ele>
        <time>2021-08-14T08:13:43.000Z</time>
      </trkpt>
      <trkpt lat="47.34938" lon="-1.47268">
        <ele>61</ele>
        <time>2021-08-14T08:13:45.000Z</time>
      </trkpt>
      <trkpt lat="47.34949" lon="-1.47262">
        <ele>61</ele>
        <time>2021-08-14T08:13:47.000Z</time>
      </trkpt>
      <trkpt lat="47.34961" lon="-1.47257">
        <ele>62</ele>
        <time>2021-08-14T08:13:49.000Z</time>
      </trkpt>
      <trkpt lat="47.34971" lon="-1.47252">
        <ele>62</ele>
        <time>2021-08-14T08:13:51.000Z</time>
      </trkpt>
      <trkpt lat="47.34981" lon="-1.47248">
        <ele>62</ele>
        <time>2021-08-14T08:13:53.000Z</time>
      </trkpt>
      <trkpt lat="47.3499" lon="-1.4724">
        <ele>62</ele>
        <time>2021-08-14T08:13:55.000Z</time>
      </trkpt>
      <trkpt lat="47.34998" lon="-1.47231">
        <ele>62</ele>
        <time>2021-08-14T08:13:57.000Z</time>
      </trkpt>
      <trkpt lat="47.35008" lon="-1.47222">
        <ele>62</ele>
        <time>2021-08-14T08:13:59.000Z</time>
      </trkpt>
      <trkpt lat="47.35018" lon="-1.47215">
        <ele>63</ele>
        <time>2021-08-14T08:14:01.000Z</time>
      </trkpt>
      <trkpt lat="47.35029" lon="-1.47215">
        <ele>62</ele>
        <time>2021-08-14T08:14:03.000Z</time>
      </trkpt>
      <trkpt lat="47.35041" lon="-1.47219">
        <ele>62</ele>
        <time>2021-08-14T08:14:05.000Z</time>
      </trkpt>
      <trkpt lat="47.35052" lon="-1.47224">
        <ele>63</ele>
        <time>2021-08-14T08:14:07.000Z</time>
      </trkpt>
      <trkpt lat="47.35064" lon="-1.47229">
        <ele>63</ele>
        <time>2021-08-14T08:14:09.000Z</time>
      </trkpt>
      <trkpt lat="47.35076" lon="-1.47232">
        <ele>63</ele>
        <time>2021-08-14T08:14:11.000Z</time>
      </trkpt>
      <trkpt lat="47.35088" lon="-1.47235">
        <ele>62</ele>
        <time>2021-08-14T08:14:13.000Z</time>
      </trkpt>
      <trkpt lat="47.351" lon="-1.47238">
        <ele>62</ele>
        <time>2021-08-14T08:14:15.000Z</time>
      </trkpt>
      <trkpt lat="47.35112" lon="-1.47241">
        <ele>62</ele>
        <time>2021-08-14T08:14:17.000Z</time>
      </trkpt>
      <trkpt lat="47.35125" lon="-1.47242">
        <ele>62</ele>
        <time>2021-08-14T08:14:19.000Z</time>
      </trkpt>
      <trkpt lat="47.35137" lon="-1.47244">
        <ele>62</ele>
        <time>2021-08-14T08:14:21.000Z</time>
      </trkpt>
      <trkpt lat="47.3515" lon="-1.47245">
        <ele>61</ele>
        <time>2021-08-14T08:14:23.000Z</time>
      </trkpt>
      <trkpt lat="47.35163" lon="-1.47244">
        <ele>60</ele>
        <time>2021-08-14T08:14:25.000Z</time>
      </trkpt>
      <trkpt lat="47.35175" lon="-1.47241">
        <ele>60</ele>
        <time>2021-08-14T08:14:27.000Z</time>
      </trkpt>
      <trkpt lat="47.35187" lon="-1.47237">
        <ele>60</ele>
        <time>2021-08-14T08:14:29.000Z</time>
      </trkpt>
      <trkpt lat="47.35198" lon="-1.47234">
        <ele>60</ele>
        <time>2021-08-14T08:14:31.000Z</time>
      </trkpt>
      <trkpt lat="47.3521" lon="-1.47239">
        <ele>60</ele>
        <time>2021-08-14T08:14:33.000Z</time>
      </trkpt>
      <trkpt lat="47.3522" lon="-1.47253">
        <ele>61</ele>
        <time>2021-08-14T08:14:35.000Z</time>
      </trkpt>
      <trkpt lat="47.35228" lon="-1.47266">
        <ele>62</ele>
        <time>2021-08-14T08:14:37.000Z</time>
      </trkpt>
      <trkpt lat="47.35235" lon="-1.4728">
        <ele>62</ele>
        <time>2021-08-14T08:14:39.000Z</time>
      </trkpt>
      <trkpt lat="47.35244" lon="-1.47293">
        <ele>61</ele>
        <time>2021-08-14T08:14:41.000Z</time>
      </trkpt>
      <trkpt lat="47.35254" lon="-1.47301">
        <ele>61</ele>
        <time>2021-08-14T08:14:43.000Z</time>
      </trkpt>
      <trkpt lat="47.35265" lon="-1.47296">
        <ele>61</ele>
        <time>2021-08-14T08:14:45.000Z</time>
      </trkpt>
      <trkpt lat="47.35274" lon="-1.47287">
        <ele>61</ele>
        <time>2021-08-14T08:14:47.000Z</time>
      </trkpt>
      <trkpt lat="47.35285" lon="-1.47283">
        <ele>61</ele>
        <time>2021-08-14T08:14:49.000Z</time>
      </trkpt>
      <trkpt lat="47.35298" lon="-1.47281">
        <ele>61</ele>
        <time>2021-08-14T08:14:51.000Z</time>
      </trkpt>
      <trkpt lat="47.3531" lon="-1.4728">
        <ele>61</ele>
        <time>2021-08-14T08:14:53.000Z</time>
      </trkpt>
      <trkpt lat="47.35321" lon="-1.4728">
        <ele>61</ele>
        <time>2021-08-14T08:14:55.000Z</time>
      </trkpt>
      <trkpt lat="47.35333" lon="-1.47281">
        <ele>61</ele>
        <time>2021-08-14T08:14:57.000Z</time>
      </trkpt>
      <trkpt lat="47.35344" lon="-1.47281">
        <ele>61</ele>
        <time>2021-08-14T08:14:59.000Z</time>
      </trkpt>
      <trkpt lat="47.35355" lon="-1.47279">
        <ele>62</ele>
        <time>2021-08-14T08:15:01.000Z</time>
      </trkpt>
      <trkpt lat="47.35366" lon="-1.47277">
        <ele>63</ele>
        <time>2021-08-14T08:15:03.000Z</time>
      </trkpt>
      <trkpt lat="47.35376" lon="-1.47272">
        <ele>63</ele>
        <time>2021-08-14T08:15:05.000Z</time>
      </trkpt>
      <trkpt lat="47.35385" lon="-1.47263">
        <ele>64</ele>
        <time>2021-08-14T08:15:07.000Z</time>
      </trkpt>
      <trkpt lat="47.35395" lon="-1.47254">
        <ele>65</ele>
        <time>2021-08-14T08:15:09.000Z</time>
      </trkpt>
      <trkpt lat="47.35404" lon="-1.47246">
        <ele>65</ele>
        <time>2021-08-14T08:15:11.000Z</time>
      </trkpt>
      <trkpt lat="47.35414" lon="-1.47237">
        <ele>66</ele>
        <time>2021-08-14T08:15:13.000Z</time>
      </trkpt>
      <trkpt lat="47.35424" lon="-1.47228">
        <ele>67</ele>
        <time>2021-08-14T08:15:15.000Z</time>
      </trkpt>
      <trkpt lat="47.35435" lon="-1.47218">
        <ele>68</ele>
        <time>2021-08-14T08:15:17.000Z</time>
      </trkpt>
      <trkpt lat="47.35445" lon="-1.47209">
        <ele>68</ele>
        <time>2021-08-14T08:15:19.000Z</time>
      </trkpt>
      <trkpt lat="47.35456" lon="-1.472">
        <ele>69</ele>
        <time>2021-08-14T08:15:21.000Z</time>
      </trkpt>
      <trkpt lat="47.35466" lon="-1.47191">
        <ele>70</ele>
        <time>2021-08-14T08:15:23.000Z</time>
      </trkpt>
      <trkpt lat="47.35476" lon="-1.47182">
        <ele>71</ele>
        <time>2021-08-14T08:15:25.000Z</time>
      </trkpt>
      <trkpt lat="47.35485" lon="-1.47174">
        <ele>72</ele>
        <time>2021-08-14T08:15:27.000Z</time>
      </trkpt>
      <trkpt lat="47.35493" lon="-1.47166">
        <ele>72</ele>
        <time>2021-08-14T08:15:29.000Z</time>
      </trkpt>
      <trkpt lat="47.35502" lon="-1.47158">
        <ele>72</ele>
        <time>2021-08-14T08:15:31.000Z</time>
      </trkpt>
      <trkpt lat="47.35511" lon="-1.4715">
        <ele>72</ele>
        <time>2021-08-14T08:15:33.000Z</time>
      </trkpt>
      <trkpt lat="47.35521" lon="-1.47142">
        <ele>72</ele>
        <time>2021-08-14T08:15:35.000Z</time>
      </trkpt>
      <trkpt lat="47.35531" lon="-1.47133">
        <ele>72</ele>
        <time>2021-08-14T08:15:37.000Z</time>
      </trkpt>
      <trkpt lat="47.35541" lon="-1.47125">
        <ele>72</ele>
        <time>2021-08-14T08:15:39.000Z</time>
      </trkpt>
      <trkpt lat="47.35552" lon="-1.47115">
        <ele>72</ele>
        <time>2021-08-14T08:15:41.000Z</time>
      </trkpt>
      <trkpt lat="47.35562" lon="-1.47107">
        <ele>72</ele>
        <time>2021-08-14T08:15:43.000Z</time>
      </trkpt>
      <trkpt lat="47.35572" lon="-1.47098">
        <ele>73</ele>
        <time>2021-08-14T08:15:45.000Z</time>
      </trkpt>
      <trkpt lat="47.35582" lon="-1.4709">
        <ele>73</ele>
        <time>2021-08-14T08:15:47.000Z</time>
      </trkpt>
      <trkpt lat="47.35592" lon="-1.47082">
        <ele>73</ele>
        <time>2021-08-14T08:15:49.000Z</time>
      </trkpt>
      <trkpt lat="47.35602" lon="-1.47073">
        <ele>73</ele>
        <time>2021-08-14T08:15:51.000Z</time>
      </trkpt>
      <trkpt lat="47.35613" lon="-1.47064">
        <ele>72</ele>
        <time>2021-08-14T08:15:53.000Z</time>
      </trkpt>
      <trkpt lat="47.35626" lon="-1.47053">
        <ele>71</ele>
        <time>2021-08-14T08:15:55.000Z</time>
      </trkpt>
      <trkpt lat="47.3564" lon="-1.4704">
        <ele>70</ele>
        <time>2021-08-14T08:15:57.000Z</time>
      </trkpt>
      <trkpt lat="47.35655" lon="-1.47026">
        <ele>68</ele>
        <time>2021-08-14T08:15:59.000Z</time>
      </trkpt>
      <trkpt lat="47.35663" lon="-1.47019">
        <ele>68</ele>
        <time>2021-08-14T08:16:00.000Z</time>
      </trkpt>
      <trkpt lat="47.35671" lon="-1.47012">
        <ele>66</ele>
        <time>2021-08-14T08:16:01.000Z</time>
      </trkpt>
      <trkpt lat="47.3568" lon="-1.47004">
        <ele>65</ele>
        <time>2021-08-14T08:16:02.000Z</time>
      </trkpt>
      <trkpt lat="47.3569" lon="-1.46996">
        <ele>63</ele>
        <time>2021-08-14T08:16:03.000Z</time>
      </trkpt>
      <trkpt lat="47.357" lon="-1.46988">
        <ele>62</ele>
        <time>2021-08-14T08:16:04.000Z</time>
      </trkpt>
      <trkpt lat="47.35709" lon="-1.4698">
        <ele>62</ele>
        <time>2021-08-14T08:16:05.000Z</time>
      </trkpt>
      <trkpt lat="47.35717" lon="-1.46972">
        <ele>62</ele>
        <time>2021-08-14T08:16:06.000Z</time>
      </trkpt>
      <trkpt lat="47.35731" lon="-1.4696">
        <ele>61</ele>
        <time>2021-08-14T08:16:08.000Z</time>
      </trkpt>
      <trkpt lat="47.35741" lon="-1.46948">
        <ele>61</ele>
        <time>2021-08-14T08:16:10.000Z</time>
      </trkpt>
      <trkpt lat="47.35744" lon="-1.46933">
        <ele>61</ele>
        <time>2021-08-14T08:16:12.000Z</time>
      </trkpt>
      <trkpt lat="47.35742" lon="-1.46914">
        <ele>61</ele>
        <time>2021-08-14T08:16:14.000Z</time>
      </trkpt>
      <trkpt lat="47.35739" lon="-1.46895">
        <ele>61</ele>
        <time>2021-08-14T08:16:16.000Z</time>
      </trkpt>
      <trkpt lat="47.35738" lon="-1.46873">
        <ele>60</ele>
        <time>2021-08-14T08:16:18.000Z</time>
      </trkpt>
      <trkpt lat="47.35735" lon="-1.46852">
        <ele>59</ele>
        <time>2021-08-14T08:16:20.000Z</time>
      </trkpt>
      <trkpt lat="47.35733" lon="-1.46831">
        <ele>58</ele>
        <time>2021-08-14T08:16:22.000Z</time>
      </trkpt>
      <trkpt lat="47.35733" lon="-1.46808">
        <ele>56</ele>
        <time>2021-08-14T08:16:24.000Z</time>
      </trkpt>
      <trkpt lat="47.35736" lon="-1.46787">
        <ele>55</ele>
        <time>2021-08-14T08:16:26.000Z</time>
      </trkpt>
      <trkpt lat="47.35739" lon="-1.46767">
        <ele>55</ele>
        <time>2021-08-14T08:16:28.000Z</time>
      </trkpt>
      <trkpt lat="47.35742" lon="-1.46747">
        <ele>56</ele>
        <time>2021-08-14T08:16:30.000Z</time>
      </trkpt>
      <trkpt lat="47.35744" lon="-1.46726">
        <ele>55</ele>
        <time>2021-08-14T08:16:32.000Z</time>
      </trkpt>
      <trkpt lat="47.35747" lon="-1.46707">
        <ele>55</ele>
        <time>2021-08-14T08:16:34.000Z</time>
      </trkpt>
      <trkpt lat="47.3575" lon="-1.46687">
        <ele>56</ele>
        <time>2021-08-14T08:16:36.000Z</time>
      </trkpt>
      <trkpt lat="47.35753" lon="-1.46667">
        <ele>56</ele>
        <time>2021-08-14T08:16:38.000Z</time>
      </trkpt>
      <trkpt lat="47.35761" lon="-1.46648">
        <ele>55</ele>
        <time>2021-08-14T08:16:40.000Z</time>
      </trkpt>
      <trkpt lat="47.35772" lon="-1.46635">
        <ele>56</ele>
        <time>2021-08-14T08:16:42.000Z</time>
      </trkpt>
      <trkpt lat="47.35784" lon="-1.46625">
        <ele>56</ele>
        <time>2021-08-14T08:16:44.000Z</time>
      </trkpt>
      <trkpt lat="47.35797" lon="-1.46615">
        <ele>56</ele>
        <time>2021-08-14T08:16:46.000Z</time>
      </trkpt>
      <trkpt lat="47.35809" lon="-1.46605">
        <ele>56</ele>
        <time>2021-08-14T08:16:48.000Z</time>
      </trkpt>
      <trkpt lat="47.35821" lon="-1.46595">
        <ele>57</ele>
        <time>2021-08-14T08:16:50.000Z</time>
      </trkpt>
      <trkpt lat="47.35833" lon="-1.46585">
        <ele>57</ele>
        <time>2021-08-14T08:16:52.000Z</time>
      </trkpt>
      <trkpt lat="47.35845" lon="-1.46576">
        <ele>56</ele>
        <time>2021-08-14T08:16:54.000Z</time>
      </trkpt>
      <trkpt lat="47.35858" lon="-1.46565">
        <ele>56</ele>
        <time>2021-08-14T08:16:56.000Z</time>
      </trkpt>
      <trkpt lat="47.3587" lon="-1.46556">
        <ele>56</ele>
        <time>2021-08-14T08:16:58.000Z</time>
      </trkpt>
      <trkpt lat="47.3588" lon="-1.46545">
        <ele>56</ele>
        <time>2021-08-14T08:17:00.000Z</time>
      </trkpt>
      <trkpt lat="47.35886" lon="-1.46527">
        <ele>57</ele>
        <time>2021-08-14T08:17:02.000Z</time>
      </trkpt>
      <trkpt lat="47.3589" lon="-1.46508">
        <ele>56</ele>
        <time>2021-08-14T08:17:04.000Z</time>
      </trkpt>
      <trkpt lat="47.35894" lon="-1.46488">
        <ele>56</ele>
        <time>2021-08-14T08:17:06.000Z</time>
      </trkpt>
      <trkpt lat="47.35899" lon="-1.46468">
        <ele>55</ele>
        <time>2021-08-14T08:17:08.000Z</time>
      </trkpt>
      <trkpt lat="47.35902" lon="-1.46447">
        <ele>55</ele>
        <time>2021-08-14T08:17:10.000Z</time>
      </trkpt>
      <trkpt lat="47.35906" lon="-1.46428">
        <ele>55</ele>
        <time>2021-08-14T08:17:12.000Z</time>
      </trkpt>
      <trkpt lat="47.35908" lon="-1.46408">
        <ele>55</ele>
        <time>2021-08-14T08:17:14.000Z</time>
      </trkpt>
      <trkpt lat="47.35908" lon="-1.46388">
        <ele>55</ele>
        <time>2021-08-14T08:17:16.000Z</time>
      </trkpt>
      <trkpt lat="47.35902" lon="-1.46371">
        <ele>55</ele>
        <time>2021-08-14T08:17:18.000Z</time>
      </trkpt>
      <trkpt lat="47.35892" lon="-1.46357">
        <ele>55</ele>
        <time>2021-08-14T08:17:20.000Z</time>
      </trkpt>
      <trkpt lat="47.35883" lon="-1.46343">
        <ele>55</ele>
        <time>2021-08-14T08:17:22.000Z</time>
      </trkpt>
      <trkpt lat="47.35873" lon="-1.4633">
        <ele>55</ele>
        <time>2021-08-14T08:17:24.000Z</time>
      </trkpt>
      <trkpt lat="47.35863" lon="-1.46317">
        <ele>56</ele>
        <time>2021-08-14T08:17:26.000Z</time>
      </trkpt>
      <trkpt lat="47.35853" lon="-1.46303">
        <ele>56</ele>
        <time>2021-08-14T08:17:28.000Z</time>
      </trkpt>
      <trkpt lat="47.35845" lon="-1.46288">
        <ele>56</ele>
        <time>2021-08-14T08:17:30.000Z</time>
      </trkpt>
      <trkpt lat="47.35838" lon="-1.4627">
        <ele>56</ele>
        <time>2021-08-14T08:17:32.000Z</time>
      </trkpt>
      <trkpt lat="47.35834" lon="-1.46249">
        <ele>56</ele>
        <time>2021-08-14T08:17:34.000Z</time>
      </trkpt>
      <trkpt lat="47.35835" lon="-1.46229">
        <ele>56</ele>
        <time>2021-08-14T08:17:36.000Z</time>
      </trkpt>
      <trkpt lat="47.35841" lon="-1.4621">
        <ele>56</ele>
        <time>2021-08-14T08:17:38.000Z</time>
      </trkpt>
      <trkpt lat="47.35845" lon="-1.46191">
        <ele>56</ele>
        <time>2021-08-14T08:17:40.000Z</time>
      </trkpt>
      <trkpt lat="47.35844" lon="-1.46172">
        <ele>56</ele>
        <time>2021-08-14T08:17:42.000Z</time>
      </trkpt>
      <trkpt lat="47.3584" lon="-1.46151">
        <ele>56</ele>
        <time>2021-08-14T08:17:44.000Z</time>
      </trkpt>
      <trkpt lat="47.35835" lon="-1.46132">
        <ele>56</ele>
        <time>2021-08-14T08:17:46.000Z</time>
      </trkpt>
      <trkpt lat="47.35831" lon="-1.46112">
        <ele>57</ele>
        <time>2021-08-14T08:17:48.000Z</time>
      </trkpt>
      <trkpt lat="47.35826" lon="-1.46095">
        <ele>57</ele>
        <time>2021-08-14T08:17:50.000Z</time>
      </trkpt>
      <trkpt lat="47.35822" lon="-1.46076">
        <ele>57</ele>
        <time>2021-08-14T08:17:52.000Z</time>
      </trkpt>
      <trkpt lat="47.35816" lon="-1.46059">
        <ele>57</ele>
        <time>2021-08-14T08:17:54.000Z</time>
      </trkpt>
      <trkpt lat="47.3581" lon="-1.46043">
        <ele>57</ele>
        <time>2021-08-14T08:17:56.000Z</time>
      </trkpt>
      <trkpt lat="47.35806" lon="-1.46025">
        <ele>58</ele>
        <time>2021-08-14T08:17:58.000Z</time>
      </trkpt>
      <trkpt lat="47.35803" lon="-1.46008">
        <ele>58</ele>
        <time>2021-08-14T08:18:00.000Z</time>
      </trkpt>
      <trkpt lat="47.35801" lon="-1.45993">
        <ele>59</ele>
        <time>2021-08-14T08:18:02.000Z</time>
      </trkpt>
      <trkpt lat="47.358" lon="-1.45976">
        <ele>59</ele>
        <time>2021-08-14T08:18:04.000Z</time>
      </trkpt>
      <trkpt lat="47.35801" lon="-1.45958">
        <ele>59</ele>
        <time>2021-08-14T08:18:06.000Z</time>
      </trkpt>
      <trkpt lat="47.35801" lon="-1.45941">
        <ele>60</ele>
        <time>2021-08-14T08:18:08.000Z</time>
      </trkpt>
      <trkpt lat="47.35801" lon="-1.45924">
        <ele>60</ele>
        <time>2021-08-14T08:18:10.000Z</time>
      </trkpt>
      <trkpt lat="47.35801" lon="-1.45908">
        <ele>61</ele>
        <time>2021-08-14T08:18:12.000Z</time>
      </trkpt>
      <trkpt lat="47.35801" lon="-1.45891">
        <ele>61</ele>
        <time>2021-08-14T08:18:14.000Z</time>
      </trkpt>
      <trkpt lat="47.358" lon="-1.45874">
        <ele>61</ele>
        <time>2021-08-14T08:18:16.000Z</time>
      </trkpt>
      <trkpt lat="47.35799" lon="-1.45857">
        <ele>61</ele>
        <time>2021-08-14T08:18:18.000Z</time>
      </trkpt>
      <trkpt lat="47.35799" lon="-1.4584">
        <ele>61</ele>
        <time>2021-08-14T08:18:20.000Z</time>
      </trkpt>
      <trkpt lat="47.35798" lon="-1.45824">
        <ele>61</ele>
        <time>2021-08-14T08:18:22.000Z</time>
      </trkpt>
      <trkpt lat="47.35798" lon="-1.45808">
        <ele>61</ele>
        <time>2021-08-14T08:18:24.000Z</time>
      </trkpt>
      <trkpt lat="47.35797" lon="-1.45792">
        <ele>62</ele>
        <time>2021-08-14T08:18:26.000Z</time>
      </trkpt>
      <trkpt lat="47.35796" lon="-1.45776">
        <ele>61</ele>
        <time>2021-08-14T08:18:28.000Z</time>
      </trkpt>
      <trkpt lat="47.35796" lon="-1.45761">
        <ele>61</ele>
        <time>2021-08-14T08:18:30.000Z</time>
      </trkpt>
      <trkpt lat="47.35795" lon="-1.45746">
        <ele>61</ele>
        <time>2021-08-14T08:18:32.000Z</time>
      </trkpt>
      <trkpt lat="47.35792" lon="-1.45733">
        <ele>62</ele>
        <time>2021-08-14T08:18:35.000Z</time>
      </trkpt>
      <trkpt lat="47.35787" lon="-1.45722">
        <ele>62</ele>
        <time>2021-08-14T08:18:39.000Z</time>
      </trkpt>
      <trkpt lat="47.35785" lon="-1.45708">
        <ele>62</ele>
        <time>2021-08-14T08:18:41.000Z</time>
      </trkpt>
      <trkpt lat="47.35782" lon="-1.45694">
        <ele>62</ele>
        <time>2021-08-14T08:18:43.000Z</time>
      </trkpt>
      <trkpt lat="47.35778" lon="-1.45679">
        <ele>62</ele>
        <time>2021-08-14T08:18:45.000Z</time>
      </trkpt>
      <trkpt lat="47.35775" lon="-1.45663">
        <ele>62</ele>
        <time>2021-08-14T08:18:47.000Z</time>
      </trkpt>
      <trkpt lat="47.35771" lon="-1.45647">
        <ele>62</ele>
        <time>2021-08-14T08:18:49.000Z</time>
      </trkpt>
      <trkpt lat="47.35768" lon="-1.4563">
        <ele>63</ele>
        <time>2021-08-14T08:18:51.000Z</time>
      </trkpt>
      <trkpt lat="47.35764" lon="-1.45613">
        <ele>63</ele>
        <time>2021-08-14T08:18:53.000Z</time>
      </trkpt>
      <trkpt lat="47.35763" lon="-1.45595">
        <ele>63</ele>
        <time>2021-08-14T08:18:55.000Z</time>
      </trkpt>
      <trkpt lat="47.35763" lon="-1.45578">
        <ele>63</ele>
        <time>2021-08-14T08:18:57.000Z</time>
      </trkpt>
      <trkpt lat="47.35764" lon="-1.4556">
        <ele>64</ele>
        <time>2021-08-14T08:18:59.000Z</time>
      </trkpt>
      <trkpt lat="47.35768" lon="-1.45544">
        <ele>64</ele>
        <time>2021-08-14T08:19:01.000Z</time>
      </trkpt>
      <trkpt lat="47.35773" lon="-1.45527">
        <ele>64</ele>
        <time>2021-08-14T08:19:03.000Z</time>
      </trkpt>
      <trkpt lat="47.35778" lon="-1.4551">
        <ele>65</ele>
        <time>2021-08-14T08:19:05.000Z</time>
      </trkpt>
      <trkpt lat="47.35783" lon="-1.45493">
        <ele>65</ele>
        <time>2021-08-14T08:19:07.000Z</time>
      </trkpt>
      <trkpt lat="47.35789" lon="-1.45477">
        <ele>65</ele>
        <time>2021-08-14T08:19:09.000Z</time>
      </trkpt>
      <trkpt lat="47.35793" lon="-1.4546">
        <ele>65</ele>
        <time>2021-08-14T08:19:11.000Z</time>
      </trkpt>
      <trkpt lat="47.35798" lon="-1.45443">
        <ele>65</ele>
        <time>2021-08-14T08:19:13.000Z</time>
      </trkpt>
      <trkpt lat="47.358" lon="-1.45425">
        <ele>64</ele>
        <time>2021-08-14T08:19:15.000Z</time>
      </trkpt>
      <trkpt lat="47.35801" lon="-1.45407">
        <ele>64</ele>
        <time>2021-08-14T08:19:17.000Z</time>
      </trkpt>
      <trkpt lat="47.358" lon="-1.4539">
        <ele>65</ele>
        <time>2021-08-14T08:19:19.000Z</time>
      </trkpt>
      <trkpt lat="47.35798" lon="-1.45372">
        <ele>65</ele>
        <time>2021-08-14T08:19:21.000Z</time>
      </trkpt>
      <trkpt lat="47.35795" lon="-1.45356">
        <ele>66</ele>
        <time>2021-08-14T08:19:23.000Z</time>
      </trkpt>
      <trkpt lat="47.35792" lon="-1.45338">
        <ele>66</ele>
        <time>2021-08-14T08:19:25.000Z</time>
      </trkpt>
      <trkpt lat="47.35789" lon="-1.4532">
        <ele>66</ele>
        <time>2021-08-14T08:19:27.000Z</time>
      </trkpt>
      <trkpt lat="47.35786" lon="-1.45303">
        <ele>66</ele>
        <time>2021-08-14T08:19:29.000Z</time>
      </trkpt>
      <trkpt lat="47.35783" lon="-1.45285">
        <ele>66</ele>
        <time>2021-08-14T08:19:31.000Z</time>
      </trkpt>
      <trkpt lat="47.3578" lon="-1.45268">
        <ele>66</ele>
        <time>2021-08-14T08:19:33.000Z</time>
      </trkpt>
      <trkpt lat="47.35778" lon="-1.45251">
        <ele>66</ele>
        <time>2021-08-14T08:19:35.000Z</time>
      </trkpt>
      <trkpt lat="47.35775" lon="-1.45235">
        <ele>66</ele>
        <time>2021-08-14T08:19:37.000Z</time>
      </trkpt>
      <trkpt lat="47.35772" lon="-1.45218">
        <ele>66</ele>
        <time>2021-08-14T08:19:39.000Z</time>
      </trkpt>
      <trkpt lat="47.35769" lon="-1.45201">
        <ele>67</ele>
        <time>2021-08-14T08:19:41.000Z</time>
      </trkpt>
      <trkpt lat="47.35767" lon="-1.45183">
        <ele>67</ele>
        <time>2021-08-14T08:19:43.000Z</time>
      </trkpt>
      <trkpt lat="47.35765" lon="-1.45166">
        <ele>67</ele>
        <time>2021-08-14T08:19:45.000Z</time>
      </trkpt>
      <trkpt lat="47.35765" lon="-1.4515">
        <ele>67</ele>
        <time>2021-08-14T08:19:47.000Z</time>
      </trkpt>
      <trkpt lat="47.35766" lon="-1.45133">
        <ele>68</ele>
        <time>2021-08-14T08:19:49.000Z</time>
      </trkpt>
      <trkpt lat="47.35766" lon="-1.45117">
        <ele>68</ele>
        <time>2021-08-14T08:19:51.000Z</time>
      </trkpt>
      <trkpt lat="47.35768" lon="-1.451">
        <ele>68</ele>
        <time>2021-08-14T08:19:53.000Z</time>
      </trkpt>
      <trkpt lat="47.35771" lon="-1.45083">
        <ele>69</ele>
        <time>2021-08-14T08:19:55.000Z</time>
      </trkpt>
      <trkpt lat="47.35773" lon="-1.45067">
        <ele>69</ele>
        <time>2021-08-14T08:19:57.000Z</time>
      </trkpt>
      <trkpt lat="47.35775" lon="-1.4505">
        <ele>70</ele>
        <time>2021-08-14T08:19:59.000Z</time>
      </trkpt>
      <trkpt lat="47.35778" lon="-1.45033">
        <ele>70</ele>
        <time>2021-08-14T08:20:01.000Z</time>
      </trkpt>
      <trkpt lat="47.35779" lon="-1.45016">
        <ele>71</ele>
        <time>2021-08-14T08:20:03.000Z</time>
      </trkpt>
      <trkpt lat="47.3578" lon="-1.44999">
        <ele>71</ele>
        <time>2021-08-14T08:20:05.000Z</time>
      </trkpt>
      <trkpt lat="47.35781" lon="-1.44982">
        <ele>72</ele>
        <time>2021-08-14T08:20:07.000Z</time>
      </trkpt>
      <trkpt lat="47.35781" lon="-1.44965">
        <ele>72</ele>
        <time>2021-08-14T08:20:09.000Z</time>
      </trkpt>
      <trkpt lat="47.35781" lon="-1.44949">
        <ele>72</ele>
        <time>2021-08-14T08:20:11.000Z</time>
      </trkpt>
      <trkpt lat="47.35782" lon="-1.44932">
        <ele>72</ele>
        <time>2021-08-14T08:20:13.000Z</time>
      </trkpt>
      <trkpt lat="47.35783" lon="-1.44915">
        <ele>72</ele>
        <time>2021-08-14T08:20:15.000Z</time>
      </trkpt>
      <trkpt lat="47.35783" lon="-1.44898">
        <ele>73</ele>
        <time>2021-08-14T08:20:17.000Z</time>
      </trkpt>
      <trkpt lat="47.35784" lon="-1.44881">
        <ele>73</ele>
        <time>2021-08-14T08:20:19.000Z</time>
      </trkpt>
      <trkpt lat="47.35784" lon="-1.44864">
        <ele>73</ele>
        <time>2021-08-14T08:20:21.000Z</time>
      </trkpt>
      <trkpt lat="47.35784" lon="-1.44848">
        <ele>74</ele>
        <time>2021-08-14T08:20:23.000Z</time>
      </trkpt>
      <trkpt lat="47.35785" lon="-1.44832">
        <ele>74</ele>
        <time>2021-08-14T08:20:25.000Z</time>
      </trkpt>
      <trkpt lat="47.35785" lon="-1.44815">
        <ele>74</ele>
        <time>2021-08-14T08:20:27.000Z</time>
      </trkpt>
      <trkpt lat="47.35785" lon="-1.44801">
        <ele>75</ele>
        <time>2021-08-14T08:20:29.000Z</time>
      </trkpt>
      <trkpt lat="47.35786" lon="-1.44785">
        <ele>75</ele>
        <time>2021-08-14T08:20:31.000Z</time>
      </trkpt>
      <trkpt lat="47.35785" lon="-1.4477">
        <ele>76</ele>
        <time>2021-08-14T08:20:33.000Z</time>
      </trkpt>
      <trkpt lat="47.35786" lon="-1.44755">
        <ele>76</ele>
        <time>2021-08-14T08:20:35.000Z</time>
      </trkpt>
      <trkpt lat="47.35786" lon="-1.44739">
        <ele>77</ele>
        <time>2021-08-14T08:20:37.000Z</time>
      </trkpt>
      <trkpt lat="47.35787" lon="-1.44722">
        <ele>77</ele>
        <time>2021-08-14T08:20:39.000Z</time>
      </trkpt>
      <trkpt lat="47.35787" lon="-1.44705">
        <ele>78</ele>
        <time>2021-08-14T08:20:41.000Z</time>
      </trkpt>
      <trkpt lat="47.35787" lon="-1.44689">
        <ele>78</ele>
        <time>2021-08-14T08:20:43.000Z</time>
      </trkpt>
      <trkpt lat="47.35787" lon="-1.44672">
        <ele>79</ele>
        <time>2021-08-14T08:20:45.000Z</time>
      </trkpt>
      <trkpt lat="47.35788" lon="-1.44656">
        <ele>79</ele>
        <time>2021-08-14T08:20:47.000Z</time>
      </trkpt>
      <trkpt lat="47.35788" lon="-1.4464">
        <ele>80</ele>
        <time>2021-08-14T08:20:49.000Z</time>
      </trkpt>
      <trkpt lat="47.35789" lon="-1.44623">
        <ele>80</ele>
        <time>2021-08-14T08:20:51.000Z</time>
      </trkpt>
      <trkpt lat="47.35791" lon="-1.44607">
        <ele>81</ele>
        <time>2021-08-14T08:20:53.000Z</time>
      </trkpt>
      <trkpt lat="47.35792" lon="-1.44591">
        <ele>81</ele>
        <time>2021-08-14T08:20:55.000Z</time>
      </trkpt>
      <trkpt lat="47.35794" lon="-1.44575">
        <ele>82</ele>
        <time>2021-08-14T08:20:57.000Z</time>
      </trkpt>
      <trkpt lat="47.35795" lon="-1.4456">
        <ele>82</ele>
        <time>2021-08-14T08:20:59.000Z</time>
      </trkpt>
      <trkpt lat="47.35797" lon="-1.44544">
        <ele>82</ele>
        <time>2021-08-14T08:21:01.000Z</time>
      </trkpt>
      <trkpt lat="47.35799" lon="-1.44529">
        <ele>83</ele>
        <time>2021-08-14T08:21:03.000Z</time>
      </trkpt>
      <trkpt lat="47.35801" lon="-1.44513">
        <ele>83</ele>
        <time>2021-08-14T08:21:05.000Z</time>
      </trkpt>
      <trkpt lat="47.35802" lon="-1.44498">
        <ele>83</ele>
        <time>2021-08-14T08:21:07.000Z</time>
      </trkpt>
      <trkpt lat="47.35803" lon="-1.44482">
        <ele>83</ele>
        <time>2021-08-14T08:21:09.000Z</time>
      </trkpt>
      <trkpt lat="47.35805" lon="-1.44467">
        <ele>83</ele>
        <time>2021-08-14T08:21:11.000Z</time>
      </trkpt>
      <trkpt lat="47.35806" lon="-1.44452">
        <ele>83</ele>
        <time>2021-08-14T08:21:13.000Z</time>
      </trkpt>
      <trkpt lat="47.35807" lon="-1.44435">
        <ele>83</ele>
        <time>2021-08-14T08:21:15.000Z</time>
      </trkpt>
      <trkpt lat="47.35807" lon="-1.44419">
        <ele>83</ele>
        <time>2021-08-14T08:21:17.000Z</time>
      </trkpt>
      <trkpt lat="47.35807" lon="-1.44403">
        <ele>83</ele>
        <time>2021-08-14T08:21:19.000Z</time>
      </trkpt>
      <trkpt lat="47.35807" lon="-1.44388">
        <ele>83</ele>
        <time>2021-08-14T08:21:21.000Z</time>
      </trkpt>
      <trkpt lat="47.35807" lon="-1.44371">
        <ele>83</ele>
        <time>2021-08-14T08:21:23.000Z</time>
      </trkpt>
      <trkpt lat="47.35808" lon="-1.44353">
        <ele>83</ele>
        <time>2021-08-14T08:21:25.000Z</time>
      </trkpt>
      <trkpt lat="47.35808" lon="-1.44335">
        <ele>83</ele>
        <time>2021-08-14T08:21:27.000Z</time>
      </trkpt>
      <trkpt lat="47.35808" lon="-1.44318">
        <ele>83</ele>
        <time>2021-08-14T08:21:29.000Z</time>
      </trkpt>
      <trkpt lat="47.3581" lon="-1.443">
        <ele>82</ele>
        <time>2021-08-14T08:21:31.000Z</time>
      </trkpt>
      <trkpt lat="47.35813" lon="-1.44283">
        <ele>83</ele>
        <time>2021-08-14T08:21:33.000Z</time>
      </trkpt>
      <trkpt lat="47.35818" lon="-1.44268">
        <ele>83</ele>
        <time>2021-08-14T08:21:35.000Z</time>
      </trkpt>
      <trkpt lat="47.35825" lon="-1.44253">
        <ele>82</ele>
        <time>2021-08-14T08:21:37.000Z</time>
      </trkpt>
      <trkpt lat="47.35833" lon="-1.4424">
        <ele>82</ele>
        <time>2021-08-14T08:21:39.000Z</time>
      </trkpt>
      <trkpt lat="47.35841" lon="-1.44228">
        <ele>83</ele>
        <time>2021-08-14T08:21:41.000Z</time>
      </trkpt>
      <trkpt lat="47.35849" lon="-1.44216">
        <ele>84</ele>
        <time>2021-08-14T08:21:43.000Z</time>
      </trkpt>
      <trkpt lat="47.35857" lon="-1.44204">
        <ele>84</ele>
        <time>2021-08-14T08:21:45.000Z</time>
      </trkpt>
      <trkpt lat="47.35866" lon="-1.44191">
        <ele>84</ele>
        <time>2021-08-14T08:21:47.000Z</time>
      </trkpt>
      <trkpt lat="47.35875" lon="-1.4418">
        <ele>84</ele>
        <time>2021-08-14T08:21:49.000Z</time>
      </trkpt>
      <trkpt lat="47.35884" lon="-1.44167">
        <ele>84</ele>
        <time>2021-08-14T08:21:51.000Z</time>
      </trkpt>
      <trkpt lat="47.35893" lon="-1.44155">
        <ele>85</ele>
        <time>2021-08-14T08:21:53.000Z</time>
      </trkpt>
      <trkpt lat="47.35902" lon="-1.44143">
        <ele>85</ele>
        <time>2021-08-14T08:21:55.000Z</time>
      </trkpt>
      <trkpt lat="47.35911" lon="-1.44132">
        <ele>86</ele>
        <time>2021-08-14T08:21:57.000Z</time>
      </trkpt>
      <trkpt lat="47.35919" lon="-1.44121">
        <ele>86</ele>
        <time>2021-08-14T08:21:59.000Z</time>
      </trkpt>
      <trkpt lat="47.35928" lon="-1.44109">
        <ele>86</ele>
        <time>2021-08-14T08:22:01.000Z</time>
      </trkpt>
      <trkpt lat="47.35937" lon="-1.44096">
        <ele>86</ele>
        <time>2021-08-14T08:22:03.000Z</time>
      </trkpt>
      <trkpt lat="47.35946" lon="-1.44083">
        <ele>86</ele>
        <time>2021-08-14T08:22:05.000Z</time>
      </trkpt>
      <trkpt lat="47.35955" lon="-1.44072">
        <ele>86</ele>
        <time>2021-08-14T08:22:07.000Z</time>
      </trkpt>
      <trkpt lat="47.35964" lon="-1.44061">
        <ele>87</ele>
        <time>2021-08-14T08:22:09.000Z</time>
      </trkpt>
      <trkpt lat="47.35974" lon="-1.4405">
        <ele>87</ele>
        <time>2021-08-14T08:22:11.000Z</time>
      </trkpt>
      <trkpt lat="47.35983" lon="-1.44037">
        <ele>88</ele>
        <time>2021-08-14T08:22:13.000Z</time>
      </trkpt>
      <trkpt lat="47.35993" lon="-1.44025">
        <ele>88</ele>
        <time>2021-08-14T08:22:15.000Z</time>
      </trkpt>
      <trkpt lat="47.36003" lon="-1.44014">
        <ele>88</ele>
        <time>2021-08-14T08:22:17.000Z</time>
      </trkpt>
      <trkpt lat="47.36013" lon="-1.44002">
        <ele>89</ele>
        <time>2021-08-14T08:22:19.000Z</time>
      </trkpt>
      <trkpt lat="47.36022" lon="-1.43989">
        <ele>88</ele>
        <time>2021-08-14T08:22:21.000Z</time>
      </trkpt>
      <trkpt lat="47.36032" lon="-1.43974">
        <ele>86</ele>
        <time>2021-08-14T08:22:23.000Z</time>
      </trkpt>
      <trkpt lat="47.3604" lon="-1.43958">
        <ele>85</ele>
        <time>2021-08-14T08:22:25.000Z</time>
      </trkpt>
      <trkpt lat="47.36048" lon="-1.4394">
        <ele>84</ele>
        <time>2021-08-14T08:22:27.000Z</time>
      </trkpt>
      <trkpt lat="47.36054" lon="-1.43922">
        <ele>83</ele>
        <time>2021-08-14T08:22:29.000Z</time>
      </trkpt>
      <trkpt lat="47.36059" lon="-1.43903">
        <ele>83</ele>
        <time>2021-08-14T08:22:31.000Z</time>
      </trkpt>
      <trkpt lat="47.36063" lon="-1.43882">
        <ele>83</ele>
        <time>2021-08-14T08:22:33.000Z</time>
      </trkpt>
      <trkpt lat="47.36066" lon="-1.43861">
        <ele>82</ele>
        <time>2021-08-14T08:22:35.000Z</time>
      </trkpt>
      <trkpt lat="47.36069" lon="-1.43839">
        <ele>82</ele>
        <time>2021-08-14T08:22:37.000Z</time>
      </trkpt>
      <trkpt lat="47.36072" lon="-1.43815">
        <ele>80</ele>
        <time>2021-08-14T08:22:39.000Z</time>
      </trkpt>
      <trkpt lat="47.36075" lon="-1.43791">
        <ele>79</ele>
        <time>2021-08-14T08:22:41.000Z</time>
      </trkpt>
      <trkpt lat="47.36079" lon="-1.43768">
        <ele>78</ele>
        <time>2021-08-14T08:22:43.000Z</time>
      </trkpt>
      <trkpt lat="47.36086" lon="-1.43744">
        <ele>78</ele>
        <time>2021-08-14T08:22:45.000Z</time>
      </trkpt>
      <trkpt lat="47.36094" lon="-1.43721">
        <ele>77</ele>
        <time>2021-08-14T08:22:47.000Z</time>
      </trkpt>
      <trkpt lat="47.36098" lon="-1.4371">
        <ele>77</ele>
        <time>2021-08-14T08:22:48.000Z</time>
      </trkpt>
      <trkpt lat="47.36109" lon="-1.43689">
        <ele>76</ele>
        <time>2021-08-14T08:22:50.000Z</time>
      </trkpt>
      <trkpt lat="47.36121" lon="-1.4367">
        <ele>76</ele>
        <time>2021-08-14T08:22:52.000Z</time>
      </trkpt>
      <trkpt lat="47.36131" lon="-1.43651">
        <ele>76</ele>
        <time>2021-08-14T08:22:54.000Z</time>
      </trkpt>
      <trkpt lat="47.36142" lon="-1.43632">
        <ele>76</ele>
        <time>2021-08-14T08:22:56.000Z</time>
      </trkpt>
      <trkpt lat="47.36151" lon="-1.43613">
        <ele>76</ele>
        <time>2021-08-14T08:22:58.000Z</time>
      </trkpt>
      <trkpt lat="47.3616" lon="-1.43594">
        <ele>77</ele>
        <time>2021-08-14T08:23:00.000Z</time>
      </trkpt>
      <trkpt lat="47.36169" lon="-1.43575">
        <ele>77</ele>
        <time>2021-08-14T08:23:02.000Z</time>
      </trkpt>
      <trkpt lat="47.36177" lon="-1.43557">
        <ele>77</ele>
        <time>2021-08-14T08:23:04.000Z</time>
      </trkpt>
      <trkpt lat="47.36186" lon="-1.4354">
        <ele>78</ele>
        <time>2021-08-14T08:23:06.000Z</time>
      </trkpt>
      <trkpt lat="47.36195" lon="-1.43524">
        <ele>78</ele>
        <time>2021-08-14T08:23:08.000Z</time>
      </trkpt>
      <trkpt lat="47.36204" lon="-1.4351">
        <ele>79</ele>
        <time>2021-08-14T08:23:10.000Z</time>
      </trkpt>
      <trkpt lat="47.36213" lon="-1.43498">
        <ele>79</ele>
        <time>2021-08-14T08:23:12.000Z</time>
      </trkpt>
      <trkpt lat="47.36221" lon="-1.43486">
        <ele>79</ele>
        <time>2021-08-14T08:23:14.000Z</time>
      </trkpt>
      <trkpt lat="47.3623" lon="-1.43476">
        <ele>80</ele>
        <time>2021-08-14T08:23:16.000Z</time>
      </trkpt>
      <trkpt lat="47.36239" lon="-1.43466">
        <ele>81</ele>
        <time>2021-08-14T08:23:18.000Z</time>
      </trkpt>
      <trkpt lat="47.36247" lon="-1.43458">
        <ele>81</ele>
        <time>2021-08-14T08:23:20.000Z</time>
      </trkpt>
      <trkpt lat="47.36255" lon="-1.43449">
        <ele>81</ele>
        <time>2021-08-14T08:23:22.000Z</time>
      </trkpt>
      <trkpt lat="47.36263" lon="-1.4344">
        <ele>82</ele>
        <time>2021-08-14T08:23:24.000Z</time>
      </trkpt>
      <trkpt lat="47.36271" lon="-1.43432">
        <ele>82</ele>
        <time>2021-08-14T08:23:26.000Z</time>
      </trkpt>
      <trkpt lat="47.36279" lon="-1.43425">
        <ele>83</ele>
        <time>2021-08-14T08:23:28.000Z</time>
      </trkpt>
      <trkpt lat="47.36287" lon="-1.43417">
        <ele>83</ele>
        <time>2021-08-14T08:23:30.000Z</time>
      </trkpt>
      <trkpt lat="47.36298" lon="-1.43406">
        <ele>84</ele>
        <time>2021-08-14T08:23:33.000Z</time>
      </trkpt>
      <trkpt lat="47.36308" lon="-1.43396">
        <ele>84</ele>
        <time>2021-08-14T08:23:36.000Z</time>
      </trkpt>
      <trkpt lat="47.36318" lon="-1.43386">
        <ele>85</ele>
        <time>2021-08-14T08:23:39.000Z</time>
      </trkpt>
      <trkpt lat="47.36328" lon="-1.43375">
        <ele>86</ele>
        <time>2021-08-14T08:23:42.000Z</time>
      </trkpt>
      <trkpt lat="47.36338" lon="-1.43366">
        <ele>87</ele>
        <time>2021-08-14T08:23:45.000Z</time>
      </trkpt>
      <trkpt lat="47.36348" lon="-1.43357">
        <ele>87</ele>
        <time>2021-08-14T08:23:48.000Z</time>
      </trkpt>
      <trkpt lat="47.36357" lon="-1.43347">
        <ele>88</ele>
        <time>2021-08-14T08:23:51.000Z</time>
      </trkpt>
      <trkpt lat="47.36367" lon="-1.43336">
        <ele>88</ele>
        <time>2021-08-14T08:23:54.000Z</time>
      </trkpt>
      <trkpt lat="47.36377" lon="-1.43326">
        <ele>89</ele>
        <time>2021-08-14T08:23:57.000Z</time>
      </trkpt>
      <trkpt lat="47.36386" lon="-1.43317">
        <ele>90</ele>
        <time>2021-08-14T08:24:00.000Z</time>
      </trkpt>
      <trkpt lat="47.36396" lon="-1.43307">
        <ele>91</ele>
        <time>2021-08-14T08:24:03.000Z</time>
      </trkpt>
      <trkpt lat="47.36405" lon="-1.43297">
        <ele>91</ele>
        <time>2021-08-14T08:24:06.000Z</time>
      </trkpt>
      <trkpt lat="47.36415" lon="-1.43287">
        <ele>92</ele>
        <time>2021-08-14T08:24:09.000Z</time>
      </trkpt>
      <trkpt lat="47.36424" lon="-1.43275">
        <ele>92</ele>
        <time>2021-08-14T08:24:12.000Z</time>
      </trkpt>
      <trkpt lat="47.36432" lon="-1.43264">
        <ele>93</ele>
        <time>2021-08-14T08:24:15.000Z</time>
      </trkpt>
      <trkpt lat="47.36439" lon="-1.43252">
        <ele>94</ele>
        <time>2021-08-14T08:24:18.000Z</time>
      </trkpt>
      <trkpt lat="47.36447" lon="-1.4324">
        <ele>95</ele>
        <time>2021-08-14T08:24:21.000Z</time>
      </trkpt>
      <trkpt lat="47.36454" lon="-1.43225">
        <ele>95</ele>
        <time>2021-08-14T08:24:24.000Z</time>
      </trkpt>
      <trkpt lat="47.36461" lon="-1.43211">
        <ele>96</ele>
        <time>2021-08-14T08:24:27.000Z</time>
      </trkpt>
      <trkpt lat="47.36468" lon="-1.43196">
        <ele>96</ele>
        <time>2021-08-14T08:24:30.000Z</time>
      </trkpt>
      <trkpt lat="47.36474" lon="-1.43181">
        <ele>97</ele>
        <time>2021-08-14T08:24:33.000Z</time>
      </trkpt>
      <trkpt lat="47.36481" lon="-1.43166">
        <ele>97</ele>
        <time>2021-08-14T08:24:36.000Z</time>
      </trkpt>
      <trkpt lat="47.36488" lon="-1.4315">
        <ele>98</ele>
        <time>2021-08-14T08:24:39.000Z</time>
      </trkpt>
      <trkpt lat="47.36493" lon="-1.43139">
        <ele>98</ele>
        <time>2021-08-14T08:24:41.000Z</time>
      </trkpt>
      <trkpt lat="47.36498" lon="-1.43128">
        <ele>98</ele>
        <time>2021-08-14T08:24:43.000Z</time>
      </trkpt>
      <trkpt lat="47.36503" lon="-1.43116">
        <ele>98</ele>
        <time>2021-08-14T08:24:45.000Z</time>
      </trkpt>
      <trkpt lat="47.36507" lon="-1.43103">
        <ele>98</ele>
        <time>2021-08-14T08:24:47.000Z</time>
      </trkpt>
      <trkpt lat="47.3651" lon="-1.43089">
        <ele>98</ele>
        <time>2021-08-14T08:24:49.000Z</time>
      </trkpt>
      <trkpt lat="47.36513" lon="-1.43076">
        <ele>98</ele>
        <time>2021-08-14T08:24:51.000Z</time>
      </trkpt>
      <trkpt lat="47.36515" lon="-1.43061">
        <ele>99</ele>
        <time>2021-08-14T08:24:53.000Z</time>
      </trkpt>
      <trkpt lat="47.36517" lon="-1.43046">
        <ele>99</ele>
        <time>2021-08-14T08:24:55.000Z</time>
      </trkpt>
      <trkpt lat="47.36518" lon="-1.4303">
        <ele>99</ele>
        <time>2021-08-14T08:24:57.000Z</time>
      </trkpt>
      <trkpt lat="47.36521" lon="-1.43015">
        <ele>99</ele>
        <time>2021-08-14T08:24:59.000Z</time>
      </trkpt>
      <trkpt lat="47.36524" lon="-1.43002">
        <ele>99</ele>
        <time>2021-08-14T08:25:01.000Z</time>
      </trkpt>
      <trkpt lat="47.3653" lon="-1.4299">
        <ele>99</ele>
        <time>2021-08-14T08:25:03.000Z</time>
      </trkpt>
      <trkpt lat="47.3654" lon="-1.42984">
        <ele>99</ele>
        <time>2021-08-14T08:25:05.000Z</time>
      </trkpt>
      <trkpt lat="47.3655" lon="-1.42983">
        <ele>99</ele>
        <time>2021-08-14T08:25:07.000Z</time>
      </trkpt>
      <trkpt lat="47.36562" lon="-1.42981">
        <ele>99</ele>
        <time>2021-08-14T08:25:09.000Z</time>
      </trkpt>
      <trkpt lat="47.36575" lon="-1.42981">
        <ele>99</ele>
        <time>2021-08-14T08:25:11.000Z</time>
      </trkpt>
      <trkpt lat="47.36587" lon="-1.42981">
        <ele>98</ele>
        <time>2021-08-14T08:25:13.000Z</time>
      </trkpt>
      <trkpt lat="47.36599" lon="-1.42981">
        <ele>98</ele>
        <time>2021-08-14T08:25:15.000Z</time>
      </trkpt>
      <trkpt lat="47.36612" lon="-1.4298">
        <ele>99</ele>
        <time>2021-08-14T08:25:17.000Z</time>
      </trkpt>
      <trkpt lat="47.36623" lon="-1.42979">
        <ele>99</ele>
        <time>2021-08-14T08:25:19.000Z</time>
      </trkpt>
      <trkpt lat="47.36635" lon="-1.4298">
        <ele>99</ele>
        <time>2021-08-14T08:25:21.000Z</time>
      </trkpt>
      <trkpt lat="47.36647" lon="-1.42979">
        <ele>99</ele>
        <time>2021-08-14T08:25:23.000Z</time>
      </trkpt>
      <trkpt lat="47.36659" lon="-1.42978">
        <ele>99</ele>
        <time>2021-08-14T08:25:25.000Z</time>
      </trkpt>
      <trkpt lat="47.3667" lon="-1.42978">
        <ele>99</ele>
        <time>2021-08-14T08:25:27.000Z</time>
      </trkpt>
      <trkpt lat="47.36681" lon="-1.42978">
        <ele>99</ele>
        <time>2021-08-14T08:25:29.000Z</time>
      </trkpt>
      <trkpt lat="47.36691" lon="-1.42964">
        <ele>99</ele>
        <time>2021-08-14T08:25:32.000Z</time>
      </trkpt>
      <trkpt lat="47.36696" lon="-1.42947">
        <ele>100</ele>
        <time>2021-08-14T08:25:34.000Z</time>
      </trkpt>
      <trkpt lat="47.36701" lon="-1.42931">
        <ele>99</ele>
        <time>2021-08-14T08:25:36.000Z</time>
      </trkpt>
      <trkpt lat="47.36705" lon="-1.42915">
        <ele>99</ele>
        <time>2021-08-14T08:25:38.000Z</time>
      </trkpt>
      <trkpt lat="47.3671" lon="-1.429">
        <ele>100</ele>
        <time>2021-08-14T08:25:40.000Z</time>
      </trkpt>
      <trkpt lat="47.36714" lon="-1.42884">
        <ele>101</ele>
        <time>2021-08-14T08:25:42.000Z</time>
      </trkpt>
      <trkpt lat="47.36718" lon="-1.42868">
        <ele>101</ele>
        <time>2021-08-14T08:25:44.000Z</time>
      </trkpt>
      <trkpt lat="47.36722" lon="-1.42852">
        <ele>101</ele>
        <time>2021-08-14T08:25:46.000Z</time>
      </trkpt>
      <trkpt lat="47.36726" lon="-1.42836">
        <ele>101</ele>
        <time>2021-08-14T08:25:48.000Z</time>
      </trkpt>
      <trkpt lat="47.36729" lon="-1.4282">
        <ele>101</ele>
        <time>2021-08-14T08:25:50.000Z</time>
      </trkpt>
      <trkpt lat="47.36731" lon="-1.42804">
        <ele>101</ele>
        <time>2021-08-14T08:25:52.000Z</time>
      </trkpt>
      <trkpt lat="47.36734" lon="-1.42787">
        <ele>101</ele>
        <time>2021-08-14T08:25:54.000Z</time>
      </trkpt>
      <trkpt lat="47.36735" lon="-1.4277">
        <ele>101</ele>
        <time>2021-08-14T08:25:56.000Z</time>
      </trkpt>
      <trkpt lat="47.36737" lon="-1.42753">
        <ele>101</ele>
        <time>2021-08-14T08:25:58.000Z</time>
      </trkpt>
      <trkpt lat="47.36738" lon="-1.42736">
        <ele>101</ele>
        <time>2021-08-14T08:26:00.000Z</time>
      </trkpt>
      <trkpt lat="47.36738" lon="-1.42718">
        <ele>101</ele>
        <time>2021-08-14T08:26:02.000Z</time>
      </trkpt>
      <trkpt lat="47.36738" lon="-1.42701">
        <ele>101</ele>
        <time>2021-08-14T08:26:04.000Z</time>
      </trkpt>
      <trkpt lat="47.36736" lon="-1.42675">
        <ele>101</ele>
        <time>2021-08-14T08:26:07.000Z</time>
      </trkpt>
      <trkpt lat="47.36734" lon="-1.42658">
        <ele>101</ele>
        <time>2021-08-14T08:26:09.000Z</time>
      </trkpt>
      <trkpt lat="47.36732" lon="-1.42641">
        <ele>101</ele>
        <time>2021-08-14T08:26:11.000Z</time>
      </trkpt>
      <trkpt lat="47.3673" lon="-1.42625">
        <ele>101</ele>
        <time>2021-08-14T08:26:13.000Z</time>
      </trkpt>
      <trkpt lat="47.36728" lon="-1.42609">
        <ele>101</ele>
        <time>2021-08-14T08:26:15.000Z</time>
      </trkpt>
      <trkpt lat="47.36726" lon="-1.42592">
        <ele>101</ele>
        <time>2021-08-14T08:26:17.000Z</time>
      </trkpt>
      <trkpt lat="47.36723" lon="-1.42576">
        <ele>101</ele>
        <time>2021-08-14T08:26:19.000Z</time>
      </trkpt>
      <trkpt lat="47.36719" lon="-1.42552">
        <ele>101</ele>
        <time>2021-08-14T08:26:22.000Z</time>
      </trkpt>
      <trkpt lat="47.36716" lon="-1.42535">
        <ele>102</ele>
        <time>2021-08-14T08:26:24.000Z</time>
      </trkpt>
      <trkpt lat="47.36713" lon="-1.42519">
        <ele>102</ele>
        <time>2021-08-14T08:26:26.000Z</time>
      </trkpt>
      <trkpt lat="47.36711" lon="-1.42503">
        <ele>102</ele>
        <time>2021-08-14T08:26:28.000Z</time>
      </trkpt>
      <trkpt lat="47.36707" lon="-1.42479">
        <ele>102</ele>
        <time>2021-08-14T08:26:31.000Z</time>
      </trkpt>
      <trkpt lat="47.36705" lon="-1.42463">
        <ele>102</ele>
        <time>2021-08-14T08:26:33.000Z</time>
      </trkpt>
      <trkpt lat="47.36702" lon="-1.42447">
        <ele>102</ele>
        <time>2021-08-14T08:26:35.000Z</time>
      </trkpt>
      <trkpt lat="47.36699" lon="-1.42431">
        <ele>103</ele>
        <time>2021-08-14T08:26:37.000Z</time>
      </trkpt>
      <trkpt lat="47.36697" lon="-1.42415">
        <ele>103</ele>
        <time>2021-08-14T08:26:39.000Z</time>
      </trkpt>
      <trkpt lat="47.36694" lon="-1.42398">
        <ele>103</ele>
        <time>2021-08-14T08:26:41.000Z</time>
      </trkpt>
      <trkpt lat="47.36691" lon="-1.42382">
        <ele>103</ele>
        <time>2021-08-14T08:26:43.000Z</time>
      </trkpt>
      <trkpt lat="47.36688" lon="-1.42366">
        <ele>103</ele>
        <time>2021-08-14T08:26:45.000Z</time>
      </trkpt>
      <trkpt lat="47.36687" lon="-1.4235">
        <ele>103</ele>
        <time>2021-08-14T08:26:47.000Z</time>
      </trkpt>
      <trkpt lat="47.36684" lon="-1.42334">
        <ele>103</ele>
        <time>2021-08-14T08:26:49.000Z</time>
      </trkpt>
      <trkpt lat="47.36681" lon="-1.4231">
        <ele>104</ele>
        <time>2021-08-14T08:26:52.000Z</time>
      </trkpt>
      <trkpt lat="47.36679" lon="-1.42294">
        <ele>104</ele>
        <time>2021-08-14T08:26:54.000Z</time>
      </trkpt>
      <trkpt lat="47.36678" lon="-1.42278">
        <ele>104</ele>
        <time>2021-08-14T08:26:56.000Z</time>
      </trkpt>
      <trkpt lat="47.36676" lon="-1.42262">
        <ele>104</ele>
        <time>2021-08-14T08:26:58.000Z</time>
      </trkpt>
      <trkpt lat="47.36674" lon="-1.42245">
        <ele>104</ele>
        <time>2021-08-14T08:27:00.000Z</time>
      </trkpt>
      <trkpt lat="47.36673" lon="-1.42229">
        <ele>104</ele>
        <time>2021-08-14T08:27:02.000Z</time>
      </trkpt>
      <trkpt lat="47.36671" lon="-1.42212">
        <ele>104</ele>
        <time>2021-08-14T08:27:04.000Z</time>
      </trkpt>
      <trkpt lat="47.3667" lon="-1.42196">
        <ele>104</ele>
        <time>2021-08-14T08:27:06.000Z</time>
      </trkpt>
      <trkpt lat="47.36668" lon="-1.4218">
        <ele>104</ele>
        <time>2021-08-14T08:27:08.000Z</time>
      </trkpt>
      <trkpt lat="47.36667" lon="-1.42164">
        <ele>104</ele>
        <time>2021-08-14T08:27:10.000Z</time>
      </trkpt>
      <trkpt lat="47.36666" lon="-1.42149">
        <ele>104</ele>
        <time>2021-08-14T08:27:12.000Z</time>
      </trkpt>
      <trkpt lat="47.36664" lon="-1.42133">
        <ele>105</ele>
        <time>2021-08-14T08:27:14.000Z</time>
      </trkpt>
      <trkpt lat="47.36663" lon="-1.42117">
        <ele>105</ele>
        <time>2021-08-14T08:27:16.000Z</time>
      </trkpt>
      <trkpt lat="47.36661" lon="-1.42101">
        <ele>105</ele>
        <time>2021-08-14T08:27:18.000Z</time>
      </trkpt>
      <trkpt lat="47.3666" lon="-1.42085">
        <ele>106</ele>
        <time>2021-08-14T08:27:20.000Z</time>
      </trkpt>
      <trkpt lat="47.36659" lon="-1.42068">
        <ele>106</ele>
        <time>2021-08-14T08:27:22.000Z</time>
      </trkpt>
      <trkpt lat="47.36657" lon="-1.42052">
        <ele>106</ele>
        <time>2021-08-14T08:27:24.000Z</time>
      </trkpt>
      <trkpt lat="47.36655" lon="-1.42035">
        <ele>106</ele>
        <time>2021-08-14T08:27:26.000Z</time>
      </trkpt>
      <trkpt lat="47.36654" lon="-1.42018">
        <ele>107</ele>
        <time>2021-08-14T08:27:28.000Z</time>
      </trkpt>
      <trkpt lat="47.36653" lon="-1.42003">
        <ele>107</ele>
        <time>2021-08-14T08:27:30.000Z</time>
      </trkpt>
      <trkpt lat="47.36652" lon="-1.41987">
        <ele>107</ele>
        <time>2021-08-14T08:27:32.000Z</time>
      </trkpt>
      <trkpt lat="47.3665" lon="-1.41972">
        <ele>108</ele>
        <time>2021-08-14T08:27:34.000Z</time>
      </trkpt>
      <trkpt lat="47.36649" lon="-1.41956">
        <ele>108</ele>
        <time>2021-08-14T08:27:36.000Z</time>
      </trkpt>
      <trkpt lat="47.36647" lon="-1.4194">
        <ele>109</ele>
        <time>2021-08-14T08:27:38.000Z</time>
      </trkpt>
      <trkpt lat="47.36646" lon="-1.41924">
        <ele>109</ele>
        <time>2021-08-14T08:27:40.000Z</time>
      </trkpt>
      <trkpt lat="47.36644" lon="-1.41908">
        <ele>110</ele>
        <time>2021-08-14T08:27:42.000Z</time>
      </trkpt>
      <trkpt lat="47.36642" lon="-1.41892">
        <ele>110</ele>
        <time>2021-08-14T08:27:44.000Z</time>
      </trkpt>
      <trkpt lat="47.36641" lon="-1.41876">
        <ele>110</ele>
        <time>2021-08-14T08:27:46.000Z</time>
      </trkpt>
      <trkpt lat="47.3664" lon="-1.41861">
        <ele>110</ele>
        <time>2021-08-14T08:27:48.000Z</time>
      </trkpt>
      <trkpt lat="47.36639" lon="-1.41846">
        <ele>110</ele>
        <time>2021-08-14T08:27:50.000Z</time>
      </trkpt>
      <trkpt lat="47.36637" lon="-1.41831">
        <ele>110</ele>
        <time>2021-08-14T08:27:52.000Z</time>
      </trkpt>
      <trkpt lat="47.36636" lon="-1.41816">
        <ele>111</ele>
        <time>2021-08-14T08:27:54.000Z</time>
      </trkpt>
      <trkpt lat="47.36635" lon="-1.41801">
        <ele>112</ele>
        <time>2021-08-14T08:27:56.000Z</time>
      </trkpt>
      <trkpt lat="47.36633" lon="-1.41785">
        <ele>111</ele>
        <time>2021-08-14T08:27:58.000Z</time>
      </trkpt>
      <trkpt lat="47.36632" lon="-1.4177">
        <ele>111</ele>
        <time>2021-08-14T08:28:00.000Z</time>
      </trkpt>
      <trkpt lat="47.36631" lon="-1.41755">
        <ele>111</ele>
        <time>2021-08-14T08:28:02.000Z</time>
      </trkpt>
      <trkpt lat="47.3663" lon="-1.41741">
        <ele>111</ele>
        <time>2021-08-14T08:28:04.000Z</time>
      </trkpt>
      <trkpt lat="47.36628" lon="-1.41726">
        <ele>112</ele>
        <time>2021-08-14T08:28:06.000Z</time>
      </trkpt>
      <trkpt lat="47.36627" lon="-1.4171">
        <ele>112</ele>
        <time>2021-08-14T08:28:08.000Z</time>
      </trkpt>
      <trkpt lat="47.36625" lon="-1.41694">
        <ele>112</ele>
        <time>2021-08-14T08:28:10.000Z</time>
      </trkpt>
      <trkpt lat="47.36625" lon="-1.41678">
        <ele>112</ele>
        <time>2021-08-14T08:28:12.000Z</time>
      </trkpt>
      <trkpt lat="47.36625" lon="-1.41662">
        <ele>112</ele>
        <time>2021-08-14T08:28:14.000Z</time>
      </trkpt>
      <trkpt lat="47.36625" lon="-1.41646">
        <ele>112</ele>
        <time>2021-08-14T08:28:16.000Z</time>
      </trkpt>
      <trkpt lat="47.36625" lon="-1.4163">
        <ele>112</ele>
        <time>2021-08-14T08:28:18.000Z</time>
      </trkpt>
      <trkpt lat="47.36625" lon="-1.41614">
        <ele>112</ele>
        <time>2021-08-14T08:28:20.000Z</time>
      </trkpt>
      <trkpt lat="47.36626" lon="-1.41599">
        <ele>112</ele>
        <time>2021-08-14T08:28:22.000Z</time>
      </trkpt>
      <trkpt lat="47.36628" lon="-1.41585">
        <ele>113</ele>
        <time>2021-08-14T08:28:24.000Z</time>
      </trkpt>
      <trkpt lat="47.36629" lon="-1.4157">
        <ele>113</ele>
        <time>2021-08-14T08:28:26.000Z</time>
      </trkpt>
      <trkpt lat="47.36629" lon="-1.41554">
        <ele>113</ele>
        <time>2021-08-14T08:28:28.000Z</time>
      </trkpt>
      <trkpt lat="47.36632" lon="-1.41539">
        <ele>114</ele>
        <time>2021-08-14T08:28:30.000Z</time>
      </trkpt>
      <trkpt lat="47.36636" lon="-1.41524">
        <ele>114</ele>
        <time>2021-08-14T08:28:32.000Z</time>
      </trkpt>
      <trkpt lat="47.3664" lon="-1.41508">
        <ele>113</ele>
        <time>2021-08-14T08:28:34.000Z</time>
      </trkpt>
      <trkpt lat="47.36644" lon="-1.41493">
        <ele>114</ele>
        <time>2021-08-14T08:28:36.000Z</time>
      </trkpt>
      <trkpt lat="47.36648" lon="-1.41476">
        <ele>114</ele>
        <time>2021-08-14T08:28:38.000Z</time>
      </trkpt>
      <trkpt lat="47.36652" lon="-1.4146">
        <ele>114</ele>
        <time>2021-08-14T08:28:40.000Z</time>
      </trkpt>
      <trkpt lat="47.36657" lon="-1.41445">
        <ele>114</ele>
        <time>2021-08-14T08:28:42.000Z</time>
      </trkpt>
      <trkpt lat="47.36661" lon="-1.41428">
        <ele>114</ele>
        <time>2021-08-14T08:28:44.000Z</time>
      </trkpt>
      <trkpt lat="47.36668" lon="-1.41413">
        <ele>114</ele>
        <time>2021-08-14T08:28:46.000Z</time>
      </trkpt>
      <trkpt lat="47.36674" lon="-1.41397">
        <ele>114</ele>
        <time>2021-08-14T08:28:48.000Z</time>
      </trkpt>
      <trkpt lat="47.36679" lon="-1.41381">
        <ele>113</ele>
        <time>2021-08-14T08:28:50.000Z</time>
      </trkpt>
      <trkpt lat="47.36685" lon="-1.41365">
        <ele>113</ele>
        <time>2021-08-14T08:28:52.000Z</time>
      </trkpt>
      <trkpt lat="47.36691" lon="-1.41349">
        <ele>113</ele>
        <time>2021-08-14T08:28:54.000Z</time>
      </trkpt>
      <trkpt lat="47.36696" lon="-1.41333">
        <ele>114</ele>
        <time>2021-08-14T08:28:56.000Z</time>
      </trkpt>
      <trkpt lat="47.36702" lon="-1.41318">
        <ele>114</ele>
        <time>2021-08-14T08:28:58.000Z</time>
      </trkpt>
      <trkpt lat="47.36708" lon="-1.41302">
        <ele>113</ele>
        <time>2021-08-14T08:29:00.000Z</time>
      </trkpt>
      <trkpt lat="47.36714" lon="-1.41286">
        <ele>113</ele>
        <time>2021-08-14T08:29:02.000Z</time>
      </trkpt>
      <trkpt lat="47.3672" lon="-1.4127">
        <ele>113</ele>
        <time>2021-08-14T08:29:04.000Z</time>
      </trkpt>
      <trkpt lat="47.36726" lon="-1.41254">
        <ele>112</ele>
        <time>2021-08-14T08:29:06.000Z</time>
      </trkpt>
      <trkpt lat="47.36731" lon="-1.41237">
        <ele>112</ele>
        <time>2021-08-14T08:29:08.000Z</time>
      </trkpt>
      <trkpt lat="47.36737" lon="-1.4122">
        <ele>112</ele>
        <time>2021-08-14T08:29:10.000Z</time>
      </trkpt>
      <trkpt lat="47.3674" lon="-1.41201">
        <ele>111</ele>
        <time>2021-08-14T08:29:12.000Z</time>
      </trkpt>
      <trkpt lat="47.36741" lon="-1.41181">
        <ele>111</ele>
        <time>2021-08-14T08:29:14.000Z</time>
      </trkpt>
      <trkpt lat="47.3674" lon="-1.41161">
        <ele>111</ele>
        <time>2021-08-14T08:29:16.000Z</time>
      </trkpt>
      <trkpt lat="47.36737" lon="-1.41143">
        <ele>111</ele>
        <time>2021-08-14T08:29:18.000Z</time>
      </trkpt>
      <trkpt lat="47.36733" lon="-1.41124">
        <ele>110</ele>
        <time>2021-08-14T08:29:20.000Z</time>
      </trkpt>
      <trkpt lat="47.36728" lon="-1.41106">
        <ele>109</ele>
        <time>2021-08-14T08:29:22.000Z</time>
      </trkpt>
      <trkpt lat="47.36724" lon="-1.41088">
        <ele>109</ele>
        <time>2021-08-14T08:29:24.000Z</time>
      </trkpt>
      <trkpt lat="47.36719" lon="-1.41069">
        <ele>109</ele>
        <time>2021-08-14T08:29:26.000Z</time>
      </trkpt>
      <trkpt lat="47.36714" lon="-1.41052">
        <ele>108</ele>
        <time>2021-08-14T08:29:28.000Z</time>
      </trkpt>
      <trkpt lat="47.3671" lon="-1.41033">
        <ele>107</ele>
        <time>2021-08-14T08:29:30.000Z</time>
      </trkpt>
      <trkpt lat="47.36705" lon="-1.41016">
        <ele>108</ele>
        <time>2021-08-14T08:29:32.000Z</time>
      </trkpt>
      <trkpt lat="47.367" lon="-1.40998">
        <ele>108</ele>
        <time>2021-08-14T08:29:34.000Z</time>
      </trkpt>
      <trkpt lat="47.36696" lon="-1.40981">
        <ele>108</ele>
        <time>2021-08-14T08:29:36.000Z</time>
      </trkpt>
      <trkpt lat="47.36693" lon="-1.40964">
        <ele>108</ele>
        <time>2021-08-14T08:29:38.000Z</time>
      </trkpt>
      <trkpt lat="47.3669" lon="-1.40947">
        <ele>109</ele>
        <time>2021-08-14T08:29:40.000Z</time>
      </trkpt>
      <trkpt lat="47.36689" lon="-1.40931">
        <ele>109</ele>
        <time>2021-08-14T08:29:42.000Z</time>
      </trkpt>
      <trkpt lat="47.36688" lon="-1.40914">
        <ele>109</ele>
        <time>2021-08-14T08:29:44.000Z</time>
      </trkpt>
      <trkpt lat="47.36688" lon="-1.40896">
        <ele>109</ele>
        <time>2021-08-14T08:29:46.000Z</time>
      </trkpt>
      <trkpt lat="47.36689" lon="-1.40879">
        <ele>110</ele>
        <time>2021-08-14T08:29:48.000Z</time>
      </trkpt>
      <trkpt lat="47.36689" lon="-1.40862">
        <ele>110</ele>
        <time>2021-08-14T08:29:50.000Z</time>
      </trkpt>
      <trkpt lat="47.3669" lon="-1.40845">
        <ele>110</ele>
        <time>2021-08-14T08:29:52.000Z</time>
      </trkpt>
      <trkpt lat="47.3669" lon="-1.40827">
        <ele>111</ele>
        <time>2021-08-14T08:29:54.000Z</time>
      </trkpt>
      <trkpt lat="47.36691" lon="-1.4081">
        <ele>111</ele>
        <time>2021-08-14T08:29:56.000Z</time>
      </trkpt>
      <trkpt lat="47.36692" lon="-1.40793">
        <ele>111</ele>
        <time>2021-08-14T08:29:58.000Z</time>
      </trkpt>
      <trkpt lat="47.36692" lon="-1.40775">
        <ele>111</ele>
        <time>2021-08-14T08:30:00.000Z</time>
      </trkpt>
      <trkpt lat="47.36693" lon="-1.40758">
        <ele>111</ele>
        <time>2021-08-14T08:30:02.000Z</time>
      </trkpt>
      <trkpt lat="47.36693" lon="-1.4074">
        <ele>111</ele>
        <time>2021-08-14T08:30:04.000Z</time>
      </trkpt>
      <trkpt lat="47.36694" lon="-1.40723">
        <ele>111</ele>
        <time>2021-08-14T08:30:06.000Z</time>
      </trkpt>
      <trkpt lat="47.36694" lon="-1.40706">
        <ele>111</ele>
        <time>2021-08-14T08:30:08.000Z</time>
      </trkpt>
      <trkpt lat="47.36695" lon="-1.40688">
        <ele>111</ele>
        <time>2021-08-14T08:30:10.000Z</time>
      </trkpt>
      <trkpt lat="47.36695" lon="-1.4067">
        <ele>110</ele>
        <time>2021-08-14T08:30:12.000Z</time>
      </trkpt>
      <trkpt lat="47.36696" lon="-1.40651">
        <ele>110</ele>
        <time>2021-08-14T08:30:14.000Z</time>
      </trkpt>
      <trkpt lat="47.36697" lon="-1.40632">
        <ele>109</ele>
        <time>2021-08-14T08:30:16.000Z</time>
      </trkpt>
      <trkpt lat="47.36698" lon="-1.40614">
        <ele>109</ele>
        <time>2021-08-14T08:30:18.000Z</time>
      </trkpt>
      <trkpt lat="47.36698" lon="-1.40595">
        <ele>109</ele>
        <time>2021-08-14T08:30:20.000Z</time>
      </trkpt>
      <trkpt lat="47.36698" lon="-1.40576">
        <ele>108</ele>
        <time>2021-08-14T08:30:22.000Z</time>
      </trkpt>
      <trkpt lat="47.36698" lon="-1.40555">
        <ele>108</ele>
        <time>2021-08-14T08:30:24.000Z</time>
      </trkpt>
      <trkpt lat="47.36697" lon="-1.40539">
        <ele>108</ele>
        <time>2021-08-14T08:30:26.000Z</time>
      </trkpt>
      <trkpt lat="47.36693" lon="-1.40525">
        <ele>107</ele>
        <time>2021-08-14T08:30:33.000Z</time>
      </trkpt>
      <trkpt lat="47.367" lon="-1.40513">
        <ele>107</ele>
        <time>2021-08-14T08:30:37.000Z</time>
      </trkpt>
      <trkpt lat="47.36712" lon="-1.40516">
        <ele>107</ele>
        <time>2021-08-14T08:30:40.000Z</time>
      </trkpt>
      <trkpt lat="47.3672" lon="-1.4051">
        <ele>106</ele>
        <time>2021-08-14T08:30:42.000Z</time>
      </trkpt>
      <trkpt lat="47.36725" lon="-1.40491">
        <ele>106</ele>
        <time>2021-08-14T08:30:46.000Z</time>
      </trkpt>
      <trkpt lat="47.36728" lon="-1.40473">
        <ele>105</ele>
        <time>2021-08-14T08:30:48.000Z</time>
      </trkpt>
      <trkpt lat="47.3673" lon="-1.40454">
        <ele>105</ele>
        <time>2021-08-14T08:30:50.000Z</time>
      </trkpt>
      <trkpt lat="47.3673" lon="-1.40433">
        <ele>105</ele>
        <time>2021-08-14T08:30:52.000Z</time>
      </trkpt>
      <trkpt lat="47.36733" lon="-1.40413">
        <ele>104</ele>
        <time>2021-08-14T08:30:54.000Z</time>
      </trkpt>
      <trkpt lat="47.36736" lon="-1.40393">
        <ele>103</ele>
        <time>2021-08-14T08:30:56.000Z</time>
      </trkpt>
      <trkpt lat="47.3674" lon="-1.40374">
        <ele>103</ele>
        <time>2021-08-14T08:30:58.000Z</time>
      </trkpt>
      <trkpt lat="47.36743" lon="-1.40354">
        <ele>103</ele>
        <time>2021-08-14T08:31:00.000Z</time>
      </trkpt>
      <trkpt lat="47.36746" lon="-1.40335">
        <ele>102</ele>
        <time>2021-08-14T08:31:02.000Z</time>
      </trkpt>
      <trkpt lat="47.36749" lon="-1.40315">
        <ele>102</ele>
        <time>2021-08-14T08:31:04.000Z</time>
      </trkpt>
      <trkpt lat="47.36752" lon="-1.40294">
        <ele>102</ele>
        <time>2021-08-14T08:31:06.000Z</time>
      </trkpt>
      <trkpt lat="47.36755" lon="-1.40274">
        <ele>102</ele>
        <time>2021-08-14T08:31:08.000Z</time>
      </trkpt>
      <trkpt lat="47.36758" lon="-1.40252">
        <ele>101</ele>
        <time>2021-08-14T08:31:10.000Z</time>
      </trkpt>
      <trkpt lat="47.36761" lon="-1.40229">
        <ele>101</ele>
        <time>2021-08-14T08:31:12.000Z</time>
      </trkpt>
      <trkpt lat="47.36763" lon="-1.40207">
        <ele>100</ele>
        <time>2021-08-14T08:31:14.000Z</time>
      </trkpt>
      <trkpt lat="47.36763" lon="-1.40185">
        <ele>100</ele>
        <time>2021-08-14T08:31:16.000Z</time>
      </trkpt>
      <trkpt lat="47.36764" lon="-1.40163">
        <ele>100</ele>
        <time>2021-08-14T08:31:18.000Z</time>
      </trkpt>
      <trkpt lat="47.36764" lon="-1.40141">
        <ele>100</ele>
        <time>2021-08-14T08:31:20.000Z</time>
      </trkpt>
      <trkpt lat="47.36763" lon="-1.40119">
        <ele>100</ele>
        <time>2021-08-14T08:31:22.000Z</time>
      </trkpt>
      <trkpt lat="47.36762" lon="-1.40098">
        <ele>100</ele>
        <time>2021-08-14T08:31:24.000Z</time>
      </trkpt>
      <trkpt lat="47.36762" lon="-1.4008">
        <ele>101</ele>
        <time>2021-08-14T08:31:26.000Z</time>
      </trkpt>
      <trkpt lat="47.36762" lon="-1.4006">
        <ele>102</ele>
        <time>2021-08-14T08:31:28.000Z</time>
      </trkpt>
      <trkpt lat="47.36763" lon="-1.40042">
        <ele>103</ele>
        <time>2021-08-14T08:31:30.000Z</time>
      </trkpt>
      <trkpt lat="47.36763" lon="-1.40023">
        <ele>104</ele>
        <time>2021-08-14T08:31:32.000Z</time>
      </trkpt>
      <trkpt lat="47.36763" lon="-1.40004">
        <ele>105</ele>
        <time>2021-08-14T08:31:34.000Z</time>
      </trkpt>
      <trkpt lat="47.36763" lon="-1.39984">
        <ele>105</ele>
        <time>2021-08-14T08:31:36.000Z</time>
      </trkpt>
      <trkpt lat="47.36763" lon="-1.39965">
        <ele>106</ele>
        <time>2021-08-14T08:31:38.000Z</time>
      </trkpt>
      <trkpt lat="47.36764" lon="-1.39947">
        <ele>107</ele>
        <time>2021-08-14T08:31:40.000Z</time>
      </trkpt>
      <trkpt lat="47.36764" lon="-1.39928">
        <ele>108</ele>
        <time>2021-08-14T08:31:42.000Z</time>
      </trkpt>
      <trkpt lat="47.36764" lon="-1.39912">
        <ele>108</ele>
        <time>2021-08-14T08:31:44.000Z</time>
      </trkpt>
      <trkpt lat="47.36764" lon="-1.39894">
        <ele>108</ele>
        <time>2021-08-14T08:31:46.000Z</time>
      </trkpt>
      <trkpt lat="47.36764" lon="-1.39878">
        <ele>108</ele>
        <time>2021-08-14T08:31:48.000Z</time>
      </trkpt>
      <trkpt lat="47.36764" lon="-1.39861">
        <ele>108</ele>
        <time>2021-08-14T08:31:50.000Z</time>
      </trkpt>
      <trkpt lat="47.36764" lon="-1.39845">
        <ele>109</ele>
        <time>2021-08-14T08:31:52.000Z</time>
      </trkpt>
      <trkpt lat="47.36763" lon="-1.39829">
        <ele>109</ele>
        <time>2021-08-14T08:31:54.000Z</time>
      </trkpt>
      <trkpt lat="47.36764" lon="-1.39814">
        <ele>110</ele>
        <time>2021-08-14T08:31:56.000Z</time>
      </trkpt>
      <trkpt lat="47.36764" lon="-1.39798">
        <ele>110</ele>
        <time>2021-08-14T08:31:58.000Z</time>
      </trkpt>
      <trkpt lat="47.36765" lon="-1.39782">
        <ele>110</ele>
        <time>2021-08-14T08:32:00.000Z</time>
      </trkpt>
      <trkpt lat="47.36764" lon="-1.39766">
        <ele>110</ele>
        <time>2021-08-14T08:32:02.000Z</time>
      </trkpt>
      <trkpt lat="47.36764" lon="-1.39749">
        <ele>110</ele>
        <time>2021-08-14T08:32:04.000Z</time>
      </trkpt>
      <trkpt lat="47.36764" lon="-1.39733">
        <ele>110</ele>
        <time>2021-08-14T08:32:06.000Z</time>
      </trkpt>
      <trkpt lat="47.36764" lon="-1.39716">
        <ele>110</ele>
        <time>2021-08-14T08:32:08.000Z</time>
      </trkpt>
      <trkpt lat="47.36765" lon="-1.397">
        <ele>110</ele>
        <time>2021-08-14T08:32:10.000Z</time>
      </trkpt>
      <trkpt lat="47.36765" lon="-1.39683">
        <ele>110</ele>
        <time>2021-08-14T08:32:12.000Z</time>
      </trkpt>
      <trkpt lat="47.36765" lon="-1.39668">
        <ele>110</ele>
        <time>2021-08-14T08:32:14.000Z</time>
      </trkpt>
      <trkpt lat="47.36765" lon="-1.39653">
        <ele>110</ele>
        <time>2021-08-14T08:32:16.000Z</time>
      </trkpt>
      <trkpt lat="47.36765" lon="-1.39638">
        <ele>111</ele>
        <time>2021-08-14T08:32:18.000Z</time>
      </trkpt>
      <trkpt lat="47.36765" lon="-1.39622">
        <ele>111</ele>
        <time>2021-08-14T08:32:20.000Z</time>
      </trkpt>
      <trkpt lat="47.36765" lon="-1.39606">
        <ele>111</ele>
        <time>2021-08-14T08:32:22.000Z</time>
      </trkpt>
      <trkpt lat="47.36766" lon="-1.39589">
        <ele>111</ele>
        <time>2021-08-14T08:32:24.000Z</time>
      </trkpt>
      <trkpt lat="47.36766" lon="-1.39573">
        <ele>111</ele>
        <time>2021-08-14T08:32:26.000Z</time>
      </trkpt>
      <trkpt lat="47.36765" lon="-1.39557">
        <ele>112</ele>
        <time>2021-08-14T08:32:28.000Z</time>
      </trkpt>
      <trkpt lat="47.36765" lon="-1.39541">
        <ele>112</ele>
        <time>2021-08-14T08:32:30.000Z</time>
      </trkpt>
      <trkpt lat="47.36765" lon="-1.39524">
        <ele>112</ele>
        <time>2021-08-14T08:32:32.000Z</time>
      </trkpt>
      <trkpt lat="47.36765" lon="-1.39507">
        <ele>112</ele>
        <time>2021-08-14T08:32:34.000Z</time>
      </trkpt>
      <trkpt lat="47.36765" lon="-1.39491">
        <ele>112</ele>
        <time>2021-08-14T08:32:36.000Z</time>
      </trkpt>
      <trkpt lat="47.36765" lon="-1.39474">
        <ele>112</ele>
        <time>2021-08-14T08:32:38.000Z</time>
      </trkpt>
      <trkpt lat="47.36766" lon="-1.39456">
        <ele>111</ele>
        <time>2021-08-14T08:32:40.000Z</time>
      </trkpt>
      <trkpt lat="47.36766" lon="-1.39439">
        <ele>112</ele>
        <time>2021-08-14T08:32:42.000Z</time>
      </trkpt>
      <trkpt lat="47.36766" lon="-1.39422">
        <ele>112</ele>
        <time>2021-08-14T08:32:44.000Z</time>
      </trkpt>
      <trkpt lat="47.36766" lon="-1.39405">
        <ele>112</ele>
        <time>2021-08-14T08:32:46.000Z</time>
      </trkpt>
      <trkpt lat="47.36767" lon="-1.39389">
        <ele>112</ele>
        <time>2021-08-14T08:32:48.000Z</time>
      </trkpt>
      <trkpt lat="47.36766" lon="-1.39372">
        <ele>112</ele>
        <time>2021-08-14T08:32:50.000Z</time>
      </trkpt>
      <trkpt lat="47.36765" lon="-1.39355">
        <ele>112</ele>
        <time>2021-08-14T08:32:52.000Z</time>
      </trkpt>
      <trkpt lat="47.36764" lon="-1.39338">
        <ele>112</ele>
        <time>2021-08-14T08:32:54.000Z</time>
      </trkpt>
      <trkpt lat="47.36761" lon="-1.39321">
        <ele>112</ele>
        <time>2021-08-14T08:32:56.000Z</time>
      </trkpt>
      <trkpt lat="47.36758" lon="-1.39304">
        <ele>112</ele>
        <time>2021-08-14T08:32:58.000Z</time>
      </trkpt>
      <trkpt lat="47.36754" lon="-1.39288">
        <ele>113</ele>
        <time>2021-08-14T08:33:00.000Z</time>
      </trkpt>
      <trkpt lat="47.3675" lon="-1.39273">
        <ele>113</ele>
        <time>2021-08-14T08:33:02.000Z</time>
      </trkpt>
      <trkpt lat="47.36744" lon="-1.39257">
        <ele>113</ele>
        <time>2021-08-14T08:33:04.000Z</time>
      </trkpt>
      <trkpt lat="47.36738" lon="-1.39244">
        <ele>114</ele>
        <time>2021-08-14T08:33:06.000Z</time>
      </trkpt>
      <trkpt lat="47.36732" lon="-1.3923">
        <ele>114</ele>
        <time>2021-08-14T08:33:08.000Z</time>
      </trkpt>
      <trkpt lat="47.36725" lon="-1.39216">
        <ele>114</ele>
        <time>2021-08-14T08:33:10.000Z</time>
      </trkpt>
      <trkpt lat="47.36719" lon="-1.39201">
        <ele>114</ele>
        <time>2021-08-14T08:33:12.000Z</time>
      </trkpt>
      <trkpt lat="47.36712" lon="-1.39187">
        <ele>114</ele>
        <time>2021-08-14T08:33:14.000Z</time>
      </trkpt>
      <trkpt lat="47.36705" lon="-1.39172">
        <ele>114</ele>
        <time>2021-08-14T08:33:16.000Z</time>
      </trkpt>
      <trkpt lat="47.36697" lon="-1.39158">
        <ele>115</ele>
        <time>2021-08-14T08:33:18.000Z</time>
      </trkpt>
      <trkpt lat="47.36691" lon="-1.39143">
        <ele>115</ele>
        <time>2021-08-14T08:33:20.000Z</time>
      </trkpt>
      <trkpt lat="47.36684" lon="-1.39129">
        <ele>115</ele>
        <time>2021-08-14T08:33:22.000Z</time>
      </trkpt>
      <trkpt lat="47.36677" lon="-1.39113">
        <ele>115</ele>
        <time>2021-08-14T08:33:24.000Z</time>
      </trkpt>
      <trkpt lat="47.3667" lon="-1.39099">
        <ele>115</ele>
        <time>2021-08-14T08:33:26.000Z</time>
      </trkpt>
      <trkpt lat="47.36663" lon="-1.39084">
        <ele>116</ele>
        <time>2021-08-14T08:33:28.000Z</time>
      </trkpt>
      <trkpt lat="47.36656" lon="-1.39069">
        <ele>115</ele>
        <time>2021-08-14T08:33:30.000Z</time>
      </trkpt>
      <trkpt lat="47.36649" lon="-1.39055">
        <ele>115</ele>
        <time>2021-08-14T08:33:32.000Z</time>
      </trkpt>
      <trkpt lat="47.36642" lon="-1.39041">
        <ele>115</ele>
        <time>2021-08-14T08:33:34.000Z</time>
      </trkpt>
      <trkpt lat="47.36634" lon="-1.39025">
        <ele>115</ele>
        <time>2021-08-14T08:33:36.000Z</time>
      </trkpt>
      <trkpt lat="47.36628" lon="-1.3901">
        <ele>115</ele>
        <time>2021-08-14T08:33:38.000Z</time>
      </trkpt>
      <trkpt lat="47.3662" lon="-1.38995">
        <ele>115</ele>
        <time>2021-08-14T08:33:40.000Z</time>
      </trkpt>
      <trkpt lat="47.36613" lon="-1.38981">
        <ele>116</ele>
        <time>2021-08-14T08:33:42.000Z</time>
      </trkpt>
      <trkpt lat="47.36606" lon="-1.38966">
        <ele>116</ele>
        <time>2021-08-14T08:33:44.000Z</time>
      </trkpt>
      <trkpt lat="47.36599" lon="-1.38953">
        <ele>116</ele>
        <time>2021-08-14T08:33:46.000Z</time>
      </trkpt>
      <trkpt lat="47.36592" lon="-1.38939">
        <ele>117</ele>
        <time>2021-08-14T08:33:48.000Z</time>
      </trkpt>
      <trkpt lat="47.36584" lon="-1.38924">
        <ele>117</ele>
        <time>2021-08-14T08:33:50.000Z</time>
      </trkpt>
      <trkpt lat="47.36577" lon="-1.38909">
        <ele>117</ele>
        <time>2021-08-14T08:33:52.000Z</time>
      </trkpt>
      <trkpt lat="47.36569" lon="-1.38893">
        <ele>117</ele>
        <time>2021-08-14T08:33:54.000Z</time>
      </trkpt>
      <trkpt lat="47.36563" lon="-1.38877">
        <ele>116</ele>
        <time>2021-08-14T08:33:56.000Z</time>
      </trkpt>
      <trkpt lat="47.36555" lon="-1.38862">
        <ele>117</ele>
        <time>2021-08-14T08:33:58.000Z</time>
      </trkpt>
      <trkpt lat="47.36548" lon="-1.38847">
        <ele>117</ele>
        <time>2021-08-14T08:34:00.000Z</time>
      </trkpt>
      <trkpt lat="47.36541" lon="-1.38832">
        <ele>117</ele>
        <time>2021-08-14T08:34:02.000Z</time>
      </trkpt>
      <trkpt lat="47.36534" lon="-1.38817">
        <ele>117</ele>
        <time>2021-08-14T08:34:04.000Z</time>
      </trkpt>
      <trkpt lat="47.36527" lon="-1.38801">
        <ele>117</ele>
        <time>2021-08-14T08:34:06.000Z</time>
      </trkpt>
      <trkpt lat="47.3652" lon="-1.38786">
        <ele>117</ele>
        <time>2021-08-14T08:34:08.000Z</time>
      </trkpt>
      <trkpt lat="47.36513" lon="-1.38771">
        <ele>117</ele>
        <time>2021-08-14T08:34:10.000Z</time>
      </trkpt>
      <trkpt lat="47.36506" lon="-1.38756">
        <ele>117</ele>
        <time>2021-08-14T08:34:12.000Z</time>
      </trkpt>
      <trkpt lat="47.36499" lon="-1.38741">
        <ele>117</ele>
        <time>2021-08-14T08:34:14.000Z</time>
      </trkpt>
      <trkpt lat="47.36492" lon="-1.38726">
        <ele>118</ele>
        <time>2021-08-14T08:34:16.000Z</time>
      </trkpt>
      <trkpt lat="47.36484" lon="-1.38712">
        <ele>118</ele>
        <time>2021-08-14T08:34:18.000Z</time>
      </trkpt>
      <trkpt lat="47.36476" lon="-1.38698">
        <ele>119</ele>
        <time>2021-08-14T08:34:20.000Z</time>
      </trkpt>
      <trkpt lat="47.3647" lon="-1.38683">
        <ele>119</ele>
        <time>2021-08-14T08:34:22.000Z</time>
      </trkpt>
      <trkpt lat="47.36464" lon="-1.38668">
        <ele>119</ele>
        <time>2021-08-14T08:34:24.000Z</time>
      </trkpt>
      <trkpt lat="47.36456" lon="-1.38654">
        <ele>119</ele>
        <time>2021-08-14T08:34:26.000Z</time>
      </trkpt>
      <trkpt lat="47.36449" lon="-1.38638">
        <ele>118</ele>
        <time>2021-08-14T08:34:28.000Z</time>
      </trkpt>
      <trkpt lat="47.36442" lon="-1.38623">
        <ele>118</ele>
        <time>2021-08-14T08:34:30.000Z</time>
      </trkpt>
      <trkpt lat="47.36435" lon="-1.38608">
        <ele>118</ele>
        <time>2021-08-14T08:34:32.000Z</time>
      </trkpt>
      <trkpt lat="47.36428" lon="-1.38593">
        <ele>118</ele>
        <time>2021-08-14T08:34:34.000Z</time>
      </trkpt>
      <trkpt lat="47.36421" lon="-1.38577">
        <ele>118</ele>
        <time>2021-08-14T08:34:36.000Z</time>
      </trkpt>
      <trkpt lat="47.36413" lon="-1.38563">
        <ele>118</ele>
        <time>2021-08-14T08:34:38.000Z</time>
      </trkpt>
      <trkpt lat="47.36405" lon="-1.38549">
        <ele>118</ele>
        <time>2021-08-14T08:34:40.000Z</time>
      </trkpt>
      <trkpt lat="47.36396" lon="-1.38536">
        <ele>118</ele>
        <time>2021-08-14T08:34:42.000Z</time>
      </trkpt>
      <trkpt lat="47.36387" lon="-1.38523">
        <ele>118</ele>
        <time>2021-08-14T08:34:44.000Z</time>
      </trkpt>
      <trkpt lat="47.36378" lon="-1.38511">
        <ele>118</ele>
        <time>2021-08-14T08:34:46.000Z</time>
      </trkpt>
      <trkpt lat="47.3637" lon="-1.38497">
        <ele>118</ele>
        <time>2021-08-14T08:34:48.000Z</time>
      </trkpt>
      <trkpt lat="47.36361" lon="-1.38483">
        <ele>118</ele>
        <time>2021-08-14T08:34:50.000Z</time>
      </trkpt>
      <trkpt lat="47.36352" lon="-1.3847">
        <ele>118</ele>
        <time>2021-08-14T08:34:52.000Z</time>
      </trkpt>
      <trkpt lat="47.36344" lon="-1.38457">
        <ele>118</ele>
        <time>2021-08-14T08:34:54.000Z</time>
      </trkpt>
      <trkpt lat="47.36335" lon="-1.38444">
        <ele>118</ele>
        <time>2021-08-14T08:34:56.000Z</time>
      </trkpt>
      <trkpt lat="47.36326" lon="-1.38431">
        <ele>118</ele>
        <time>2021-08-14T08:34:58.000Z</time>
      </trkpt>
      <trkpt lat="47.36316" lon="-1.38417">
        <ele>118</ele>
        <time>2021-08-14T08:35:00.000Z</time>
      </trkpt>
      <trkpt lat="47.36308" lon="-1.38403">
        <ele>118</ele>
        <time>2021-08-14T08:35:02.000Z</time>
      </trkpt>
      <trkpt lat="47.36298" lon="-1.38389">
        <ele>118</ele>
        <time>2021-08-14T08:35:04.000Z</time>
      </trkpt>
      <trkpt lat="47.36289" lon="-1.38375">
        <ele>118</ele>
        <time>2021-08-14T08:35:06.000Z</time>
      </trkpt>
      <trkpt lat="47.36279" lon="-1.38361">
        <ele>118</ele>
        <time>2021-08-14T08:35:08.000Z</time>
      </trkpt>
      <trkpt lat="47.3627" lon="-1.38346">
        <ele>118</ele>
        <time>2021-08-14T08:35:10.000Z</time>
      </trkpt>
      <trkpt lat="47.3626" lon="-1.38332">
        <ele>118</ele>
        <time>2021-08-14T08:35:12.000Z</time>
      </trkpt>
      <trkpt lat="47.36251" lon="-1.38318">
        <ele>118</ele>
        <time>2021-08-14T08:35:14.000Z</time>
      </trkpt>
      <trkpt lat="47.36242" lon="-1.38304">
        <ele>117</ele>
        <time>2021-08-14T08:35:16.000Z</time>
      </trkpt>
      <trkpt lat="47.36233" lon="-1.3829">
        <ele>117</ele>
        <time>2021-08-14T08:35:18.000Z</time>
      </trkpt>
      <trkpt lat="47.36224" lon="-1.38277">
        <ele>117</ele>
        <time>2021-08-14T08:35:20.000Z</time>
      </trkpt>
      <trkpt lat="47.36215" lon="-1.38263">
        <ele>117</ele>
        <time>2021-08-14T08:35:22.000Z</time>
      </trkpt>
      <trkpt lat="47.36206" lon="-1.3825">
        <ele>117</ele>
        <time>2021-08-14T08:35:24.000Z</time>
      </trkpt>
      <trkpt lat="47.36197" lon="-1.38236">
        <ele>117</ele>
        <time>2021-08-14T08:35:26.000Z</time>
      </trkpt>
      <trkpt lat="47.36188" lon="-1.38223">
        <ele>118</ele>
        <time>2021-08-14T08:35:28.000Z</time>
      </trkpt>
      <trkpt lat="47.36179" lon="-1.3821">
        <ele>118</ele>
        <time>2021-08-14T08:35:30.000Z</time>
      </trkpt>
      <trkpt lat="47.3617" lon="-1.38196">
        <ele>118</ele>
        <time>2021-08-14T08:35:32.000Z</time>
      </trkpt>
      <trkpt lat="47.36161" lon="-1.38183">
        <ele>118</ele>
        <time>2021-08-14T08:35:34.000Z</time>
      </trkpt>
      <trkpt lat="47.36152" lon="-1.38169">
        <ele>118</ele>
        <time>2021-08-14T08:35:36.000Z</time>
      </trkpt>
      <trkpt lat="47.36143" lon="-1.38156">
        <ele>119</ele>
        <time>2021-08-14T08:35:38.000Z</time>
      </trkpt>
      <trkpt lat="47.36134" lon="-1.38143">
        <ele>119</ele>
        <time>2021-08-14T08:35:40.000Z</time>
      </trkpt>
      <trkpt lat="47.36126" lon="-1.3813">
        <ele>119</ele>
        <time>2021-08-14T08:35:42.000Z</time>
      </trkpt>
      <trkpt lat="47.36117" lon="-1.38118">
        <ele>119</ele>
        <time>2021-08-14T08:35:44.000Z</time>
      </trkpt>
      <trkpt lat="47.36109" lon="-1.38105">
        <ele>119</ele>
        <time>2021-08-14T08:35:46.000Z</time>
      </trkpt>
      <trkpt lat="47.36101" lon="-1.38093">
        <ele>119</ele>
        <time>2021-08-14T08:35:48.000Z</time>
      </trkpt>
      <trkpt lat="47.36092" lon="-1.3808">
        <ele>120</ele>
        <time>2021-08-14T08:35:50.000Z</time>
      </trkpt>
      <trkpt lat="47.36083" lon="-1.38069">
        <ele>120</ele>
        <time>2021-08-14T08:35:52.000Z</time>
      </trkpt>
      <trkpt lat="47.36075" lon="-1.38056">
        <ele>120</ele>
        <time>2021-08-14T08:35:54.000Z</time>
      </trkpt>
      <trkpt lat="47.36067" lon="-1.38044">
        <ele>120</ele>
        <time>2021-08-14T08:35:56.000Z</time>
      </trkpt>
      <trkpt lat="47.36059" lon="-1.38031">
        <ele>120</ele>
        <time>2021-08-14T08:35:58.000Z</time>
      </trkpt>
      <trkpt lat="47.36051" lon="-1.38019">
        <ele>120</ele>
        <time>2021-08-14T08:36:00.000Z</time>
      </trkpt>
      <trkpt lat="47.36043" lon="-1.38006">
        <ele>120</ele>
        <time>2021-08-14T08:36:02.000Z</time>
      </trkpt>
      <trkpt lat="47.36035" lon="-1.37994">
        <ele>120</ele>
        <time>2021-08-14T08:36:04.000Z</time>
      </trkpt>
      <trkpt lat="47.36027" lon="-1.37982">
        <ele>121</ele>
        <time>2021-08-14T08:36:06.000Z</time>
      </trkpt>
      <trkpt lat="47.36018" lon="-1.3797">
        <ele>121</ele>
        <time>2021-08-14T08:36:08.000Z</time>
      </trkpt>
      <trkpt lat="47.3601" lon="-1.37957">
        <ele>121</ele>
        <time>2021-08-14T08:36:10.000Z</time>
      </trkpt>
      <trkpt lat="47.36002" lon="-1.37944">
        <ele>121</ele>
        <time>2021-08-14T08:36:12.000Z</time>
      </trkpt>
      <trkpt lat="47.35994" lon="-1.37932">
        <ele>121</ele>
        <time>2021-08-14T08:36:14.000Z</time>
      </trkpt>
      <trkpt lat="47.35986" lon="-1.37921">
        <ele>122</ele>
        <time>2021-08-14T08:36:16.000Z</time>
      </trkpt>
      <trkpt lat="47.35977" lon="-1.37908">
        <ele>122</ele>
        <time>2021-08-14T08:36:18.000Z</time>
      </trkpt>
      <trkpt lat="47.3597" lon="-1.37896">
        <ele>122</ele>
        <time>2021-08-14T08:36:20.000Z</time>
      </trkpt>
      <trkpt lat="47.35962" lon="-1.37884">
        <ele>122</ele>
        <time>2021-08-14T08:36:22.000Z</time>
      </trkpt>
      <trkpt lat="47.35954" lon="-1.37872">
        <ele>122</ele>
        <time>2021-08-14T08:36:24.000Z</time>
      </trkpt>
      <trkpt lat="47.35945" lon="-1.3786">
        <ele>123</ele>
        <time>2021-08-14T08:36:26.000Z</time>
      </trkpt>
      <trkpt lat="47.35938" lon="-1.37849">
        <ele>123</ele>
        <time>2021-08-14T08:36:28.000Z</time>
      </trkpt>
      <trkpt lat="47.3593" lon="-1.37837">
        <ele>123</ele>
        <time>2021-08-14T08:36:30.000Z</time>
      </trkpt>
      <trkpt lat="47.35922" lon="-1.37825">
        <ele>124</ele>
        <time>2021-08-14T08:36:32.000Z</time>
      </trkpt>
      <trkpt lat="47.35914" lon="-1.37812">
        <ele>124</ele>
        <time>2021-08-14T08:36:34.000Z</time>
      </trkpt>
      <trkpt lat="47.35906" lon="-1.378">
        <ele>124</ele>
        <time>2021-08-14T08:36:36.000Z</time>
      </trkpt>
      <trkpt lat="47.35898" lon="-1.37787">
        <ele>124</ele>
        <time>2021-08-14T08:36:38.000Z</time>
      </trkpt>
      <trkpt lat="47.3589" lon="-1.37776">
        <ele>125</ele>
        <time>2021-08-14T08:36:40.000Z</time>
      </trkpt>
      <trkpt lat="47.35882" lon="-1.37764">
        <ele>125</ele>
        <time>2021-08-14T08:36:42.000Z</time>
      </trkpt>
      <trkpt lat="47.35873" lon="-1.37751">
        <ele>125</ele>
        <time>2021-08-14T08:36:44.000Z</time>
      </trkpt>
      <trkpt lat="47.35865" lon="-1.37739">
        <ele>125</ele>
        <time>2021-08-14T08:36:46.000Z</time>
      </trkpt>
      <trkpt lat="47.35857" lon="-1.37727">
        <ele>125</ele>
        <time>2021-08-14T08:36:48.000Z</time>
      </trkpt>
      <trkpt lat="47.35849" lon="-1.37715">
        <ele>125</ele>
        <time>2021-08-14T08:36:50.000Z</time>
      </trkpt>
      <trkpt lat="47.35841" lon="-1.37703">
        <ele>126</ele>
        <time>2021-08-14T08:36:52.000Z</time>
      </trkpt>
      <trkpt lat="47.35834" lon="-1.37692">
        <ele>126</ele>
        <time>2021-08-14T08:36:54.000Z</time>
      </trkpt>
      <trkpt lat="47.35826" lon="-1.3768">
        <ele>126</ele>
        <time>2021-08-14T08:36:56.000Z</time>
      </trkpt>
      <trkpt lat="47.35818" lon="-1.37669">
        <ele>127</ele>
        <time>2021-08-14T08:36:58.000Z</time>
      </trkpt>
      <trkpt lat="47.35809" lon="-1.37658">
        <ele>127</ele>
        <time>2021-08-14T08:37:00.000Z</time>
      </trkpt>
      <trkpt lat="47.35802" lon="-1.37646">
        <ele>127</ele>
        <time>2021-08-14T08:37:02.000Z</time>
      </trkpt>
      <trkpt lat="47.35793" lon="-1.37634">
        <ele>127</ele>
        <time>2021-08-14T08:37:04.000Z</time>
      </trkpt>
      <trkpt lat="47.35786" lon="-1.37621">
        <ele>127</ele>
        <time>2021-08-14T08:37:06.000Z</time>
      </trkpt>
      <trkpt lat="47.35777" lon="-1.37609">
        <ele>127</ele>
        <time>2021-08-14T08:37:08.000Z</time>
      </trkpt>
      <trkpt lat="47.3577" lon="-1.37596">
        <ele>128</ele>
        <time>2021-08-14T08:37:10.000Z</time>
      </trkpt>
      <trkpt lat="47.35762" lon="-1.37584">
        <ele>128</ele>
        <time>2021-08-14T08:37:12.000Z</time>
      </trkpt>
      <trkpt lat="47.35754" lon="-1.37572">
        <ele>128</ele>
        <time>2021-08-14T08:37:14.000Z</time>
      </trkpt>
      <trkpt lat="47.35746" lon="-1.3756">
        <ele>128</ele>
        <time>2021-08-14T08:37:16.000Z</time>
      </trkpt>
      <trkpt lat="47.35738" lon="-1.37547">
        <ele>128</ele>
        <time>2021-08-14T08:37:18.000Z</time>
      </trkpt>
      <trkpt lat="47.3573" lon="-1.37535">
        <ele>128</ele>
        <time>2021-08-14T08:37:20.000Z</time>
      </trkpt>
      <trkpt lat="47.35721" lon="-1.37523">
        <ele>128</ele>
        <time>2021-08-14T08:37:22.000Z</time>
      </trkpt>
      <trkpt lat="47.35713" lon="-1.37511">
        <ele>129</ele>
        <time>2021-08-14T08:37:24.000Z</time>
      </trkpt>
      <trkpt lat="47.35704" lon="-1.37498">
        <ele>129</ele>
        <time>2021-08-14T08:37:26.000Z</time>
      </trkpt>
      <trkpt lat="47.35696" lon="-1.37486">
        <ele>129</ele>
        <time>2021-08-14T08:37:28.000Z</time>
      </trkpt>
      <trkpt lat="47.35687" lon="-1.37473">
        <ele>129</ele>
        <time>2021-08-14T08:37:30.000Z</time>
      </trkpt>
      <trkpt lat="47.35679" lon="-1.3746">
        <ele>129</ele>
        <time>2021-08-14T08:37:32.000Z</time>
      </trkpt>
      <trkpt lat="47.3567" lon="-1.37447">
        <ele>129</ele>
        <time>2021-08-14T08:37:34.000Z</time>
      </trkpt>
      <trkpt lat="47.35662" lon="-1.37434">
        <ele>129</ele>
        <time>2021-08-14T08:37:36.000Z</time>
      </trkpt>
      <trkpt lat="47.35654" lon="-1.37421">
        <ele>129</ele>
        <time>2021-08-14T08:37:38.000Z</time>
      </trkpt>
      <trkpt lat="47.35645" lon="-1.37409">
        <ele>129</ele>
        <time>2021-08-14T08:37:40.000Z</time>
      </trkpt>
      <trkpt lat="47.35637" lon="-1.37396">
        <ele>129</ele>
        <time>2021-08-14T08:37:42.000Z</time>
      </trkpt>
      <trkpt lat="47.35629" lon="-1.37384">
        <ele>129</ele>
        <time>2021-08-14T08:37:44.000Z</time>
      </trkpt>
      <trkpt lat="47.3562" lon="-1.37371">
        <ele>129</ele>
        <time>2021-08-14T08:37:46.000Z</time>
      </trkpt>
      <trkpt lat="47.35611" lon="-1.37357">
        <ele>129</ele>
        <time>2021-08-14T08:37:48.000Z</time>
      </trkpt>
      <trkpt lat="47.35602" lon="-1.37344">
        <ele>128</ele>
        <time>2021-08-14T08:37:50.000Z</time>
      </trkpt>
      <trkpt lat="47.35593" lon="-1.3733">
        <ele>128</ele>
        <time>2021-08-14T08:37:52.000Z</time>
      </trkpt>
      <trkpt lat="47.35584" lon="-1.37316">
        <ele>128</ele>
        <time>2021-08-14T08:37:54.000Z</time>
      </trkpt>
      <trkpt lat="47.35575" lon="-1.37303">
        <ele>128</ele>
        <time>2021-08-14T08:37:56.000Z</time>
      </trkpt>
      <trkpt lat="47.35565" lon="-1.37289">
        <ele>129</ele>
        <time>2021-08-14T08:37:58.000Z</time>
      </trkpt>
      <trkpt lat="47.35555" lon="-1.37276">
        <ele>129</ele>
        <time>2021-08-14T08:38:00.000Z</time>
      </trkpt>
      <trkpt lat="47.35545" lon="-1.37262">
        <ele>129</ele>
        <time>2021-08-14T08:38:02.000Z</time>
      </trkpt>
      <trkpt lat="47.35535" lon="-1.37247">
        <ele>129</ele>
        <time>2021-08-14T08:38:04.000Z</time>
      </trkpt>
      <trkpt lat="47.35525" lon="-1.37233">
        <ele>128</ele>
        <time>2021-08-14T08:38:06.000Z</time>
      </trkpt>
      <trkpt lat="47.35516" lon="-1.3722">
        <ele>129</ele>
        <time>2021-08-14T08:38:08.000Z</time>
      </trkpt>
      <trkpt lat="47.35508" lon="-1.37208">
        <ele>129</ele>
        <time>2021-08-14T08:38:10.000Z</time>
      </trkpt>
      <trkpt lat="47.35499" lon="-1.37193">
        <ele>130</ele>
        <time>2021-08-14T08:38:12.000Z</time>
      </trkpt>
      <trkpt lat="47.35491" lon="-1.3718">
        <ele>130</ele>
        <time>2021-08-14T08:38:14.000Z</time>
      </trkpt>
      <trkpt lat="47.35481" lon="-1.37167">
        <ele>131</ele>
        <time>2021-08-14T08:38:16.000Z</time>
      </trkpt>
      <trkpt lat="47.35473" lon="-1.37155">
        <ele>132</ele>
        <time>2021-08-14T08:38:18.000Z</time>
      </trkpt>
      <trkpt lat="47.35464" lon="-1.37143">
        <ele>132</ele>
        <time>2021-08-14T08:38:20.000Z</time>
      </trkpt>
      <trkpt lat="47.35456" lon="-1.3713">
        <ele>132</ele>
        <time>2021-08-14T08:38:22.000Z</time>
      </trkpt>
      <trkpt lat="47.35447" lon="-1.37117">
        <ele>133</ele>
        <time>2021-08-14T08:38:24.000Z</time>
      </trkpt>
      <trkpt lat="47.35438" lon="-1.37104">
        <ele>133</ele>
        <time>2021-08-14T08:38:26.000Z</time>
      </trkpt>
      <trkpt lat="47.35429" lon="-1.37091">
        <ele>134</ele>
        <time>2021-08-14T08:38:28.000Z</time>
      </trkpt>
      <trkpt lat="47.3542" lon="-1.37078">
        <ele>135</ele>
        <time>2021-08-14T08:38:30.000Z</time>
      </trkpt>
      <trkpt lat="47.35411" lon="-1.37063">
        <ele>136</ele>
        <time>2021-08-14T08:38:32.000Z</time>
      </trkpt>
      <trkpt lat="47.35401" lon="-1.37049">
        <ele>135</ele>
        <time>2021-08-14T08:38:34.000Z</time>
      </trkpt>
      <trkpt lat="47.35392" lon="-1.37035">
        <ele>135</ele>
        <time>2021-08-14T08:38:36.000Z</time>
      </trkpt>
      <trkpt lat="47.35383" lon="-1.3702">
        <ele>135</ele>
        <time>2021-08-14T08:38:38.000Z</time>
      </trkpt>
      <trkpt lat="47.35374" lon="-1.37005">
        <ele>135</ele>
        <time>2021-08-14T08:38:40.000Z</time>
      </trkpt>
      <trkpt lat="47.35365" lon="-1.3699">
        <ele>135</ele>
        <time>2021-08-14T08:38:42.000Z</time>
      </trkpt>
      <trkpt lat="47.35357" lon="-1.36975">
        <ele>134</ele>
        <time>2021-08-14T08:38:44.000Z</time>
      </trkpt>
      <trkpt lat="47.35348" lon="-1.36961">
        <ele>133</ele>
        <time>2021-08-14T08:38:46.000Z</time>
      </trkpt>
      <trkpt lat="47.35339" lon="-1.36947">
        <ele>133</ele>
        <time>2021-08-14T08:38:48.000Z</time>
      </trkpt>
      <trkpt lat="47.35329" lon="-1.36933">
        <ele>133</ele>
        <time>2021-08-14T08:38:50.000Z</time>
      </trkpt>
      <trkpt lat="47.3532" lon="-1.36918">
        <ele>133</ele>
        <time>2021-08-14T08:38:52.000Z</time>
      </trkpt>
      <trkpt lat="47.3531" lon="-1.36904">
        <ele>133</ele>
        <time>2021-08-14T08:38:54.000Z</time>
      </trkpt>
      <trkpt lat="47.353" lon="-1.36889">
        <ele>133</ele>
        <time>2021-08-14T08:38:56.000Z</time>
      </trkpt>
      <trkpt lat="47.3529" lon="-1.36875">
        <ele>133</ele>
        <time>2021-08-14T08:38:58.000Z</time>
      </trkpt>
      <trkpt lat="47.35281" lon="-1.3686">
        <ele>133</ele>
        <time>2021-08-14T08:39:00.000Z</time>
      </trkpt>
      <trkpt lat="47.35271" lon="-1.36844">
        <ele>133</ele>
        <time>2021-08-14T08:39:02.000Z</time>
      </trkpt>
      <trkpt lat="47.35261" lon="-1.36828">
        <ele>133</ele>
        <time>2021-08-14T08:39:04.000Z</time>
      </trkpt>
      <trkpt lat="47.3525" lon="-1.36813">
        <ele>133</ele>
        <time>2021-08-14T08:39:06.000Z</time>
      </trkpt>
      <trkpt lat="47.35239" lon="-1.36798">
        <ele>134</ele>
        <time>2021-08-14T08:39:08.000Z</time>
      </trkpt>
      <trkpt lat="47.35229" lon="-1.36782">
        <ele>134</ele>
        <time>2021-08-14T08:39:10.000Z</time>
      </trkpt>
      <trkpt lat="47.35218" lon="-1.36767">
        <ele>134</ele>
        <time>2021-08-14T08:39:12.000Z</time>
      </trkpt>
      <trkpt lat="47.35208" lon="-1.3675">
        <ele>133</ele>
        <time>2021-08-14T08:39:14.000Z</time>
      </trkpt>
      <trkpt lat="47.35198" lon="-1.36735">
        <ele>133</ele>
        <time>2021-08-14T08:39:16.000Z</time>
      </trkpt>
      <trkpt lat="47.35187" lon="-1.36719">
        <ele>133</ele>
        <time>2021-08-14T08:39:18.000Z</time>
      </trkpt>
      <trkpt lat="47.35177" lon="-1.36703">
        <ele>134</ele>
        <time>2021-08-14T08:39:20.000Z</time>
      </trkpt>
      <trkpt lat="47.35167" lon="-1.36688">
        <ele>134</ele>
        <time>2021-08-14T08:39:22.000Z</time>
      </trkpt>
      <trkpt lat="47.35156" lon="-1.36672">
        <ele>134</ele>
        <time>2021-08-14T08:39:24.000Z</time>
      </trkpt>
      <trkpt lat="47.35146" lon="-1.36656">
        <ele>134</ele>
        <time>2021-08-14T08:39:26.000Z</time>
      </trkpt>
      <trkpt lat="47.35135" lon="-1.3664">
        <ele>134</ele>
        <time>2021-08-14T08:39:28.000Z</time>
      </trkpt>
      <trkpt lat="47.35125" lon="-1.36625">
        <ele>134</ele>
        <time>2021-08-14T08:39:30.000Z</time>
      </trkpt>
      <trkpt lat="47.35114" lon="-1.36611">
        <ele>134</ele>
        <time>2021-08-14T08:39:32.000Z</time>
      </trkpt>
      <trkpt lat="47.35104" lon="-1.36595">
        <ele>134</ele>
        <time>2021-08-14T08:39:34.000Z</time>
      </trkpt>
      <trkpt lat="47.35094" lon="-1.36581">
        <ele>134</ele>
        <time>2021-08-14T08:39:36.000Z</time>
      </trkpt>
      <trkpt lat="47.35084" lon="-1.36566">
        <ele>134</ele>
        <time>2021-08-14T08:39:38.000Z</time>
      </trkpt>
      <trkpt lat="47.35073" lon="-1.36549">
        <ele>134</ele>
        <time>2021-08-14T08:39:40.000Z</time>
      </trkpt>
      <trkpt lat="47.35063" lon="-1.36533">
        <ele>133</ele>
        <time>2021-08-14T08:39:42.000Z</time>
      </trkpt>
      <trkpt lat="47.35053" lon="-1.36517">
        <ele>133</ele>
        <time>2021-08-14T08:39:44.000Z</time>
      </trkpt>
      <trkpt lat="47.35044" lon="-1.36502">
        <ele>133</ele>
        <time>2021-08-14T08:39:46.000Z</time>
      </trkpt>
      <trkpt lat="47.35035" lon="-1.36487">
        <ele>134</ele>
        <time>2021-08-14T08:39:48.000Z</time>
      </trkpt>
      <trkpt lat="47.35024" lon="-1.36471">
        <ele>134</ele>
        <time>2021-08-14T08:39:50.000Z</time>
      </trkpt>
      <trkpt lat="47.35014" lon="-1.36456">
        <ele>134</ele>
        <time>2021-08-14T08:39:52.000Z</time>
      </trkpt>
      <trkpt lat="47.35003" lon="-1.36441">
        <ele>133</ele>
        <time>2021-08-14T08:39:54.000Z</time>
      </trkpt>
      <trkpt lat="47.34992" lon="-1.36427">
        <ele>132</ele>
        <time>2021-08-14T08:39:56.000Z</time>
      </trkpt>
      <trkpt lat="47.34981" lon="-1.36414">
        <ele>132</ele>
        <time>2021-08-14T08:39:58.000Z</time>
      </trkpt>
      <trkpt lat="47.3497" lon="-1.364">
        <ele>132</ele>
        <time>2021-08-14T08:40:00.000Z</time>
      </trkpt>
      <trkpt lat="47.34959" lon="-1.36386">
        <ele>132</ele>
        <time>2021-08-14T08:40:02.000Z</time>
      </trkpt>
      <trkpt lat="47.34947" lon="-1.36372">
        <ele>132</ele>
        <time>2021-08-14T08:40:04.000Z</time>
      </trkpt>
      <trkpt lat="47.34936" lon="-1.36358">
        <ele>132</ele>
        <time>2021-08-14T08:40:06.000Z</time>
      </trkpt>
      <trkpt lat="47.34925" lon="-1.36344">
        <ele>132</ele>
        <time>2021-08-14T08:40:08.000Z</time>
      </trkpt>
      <trkpt lat="47.34914" lon="-1.3633">
        <ele>132</ele>
        <time>2021-08-14T08:40:10.000Z</time>
      </trkpt>
      <trkpt lat="47.34904" lon="-1.36316">
        <ele>132</ele>
        <time>2021-08-14T08:40:12.000Z</time>
      </trkpt>
      <trkpt lat="47.34894" lon="-1.363">
        <ele>132</ele>
        <time>2021-08-14T08:40:14.000Z</time>
      </trkpt>
      <trkpt lat="47.34885" lon="-1.36284">
        <ele>132</ele>
        <time>2021-08-14T08:40:16.000Z</time>
      </trkpt>
      <trkpt lat="47.34875" lon="-1.36269">
        <ele>132</ele>
        <time>2021-08-14T08:40:18.000Z</time>
      </trkpt>
      <trkpt lat="47.34866" lon="-1.36253">
        <ele>132</ele>
        <time>2021-08-14T08:40:20.000Z</time>
      </trkpt>
      <trkpt lat="47.34856" lon="-1.36237">
        <ele>132</ele>
        <time>2021-08-14T08:40:22.000Z</time>
      </trkpt>
      <trkpt lat="47.34848" lon="-1.36222">
        <ele>132</ele>
        <time>2021-08-14T08:40:24.000Z</time>
      </trkpt>
      <trkpt lat="47.34838" lon="-1.36208">
        <ele>132</ele>
        <time>2021-08-14T08:40:26.000Z</time>
      </trkpt>
      <trkpt lat="47.34829" lon="-1.36193">
        <ele>133</ele>
        <time>2021-08-14T08:40:28.000Z</time>
      </trkpt>
      <trkpt lat="47.34819" lon="-1.36178">
        <ele>133</ele>
        <time>2021-08-14T08:40:30.000Z</time>
      </trkpt>
      <trkpt lat="47.34803" lon="-1.36156">
        <ele>133</ele>
        <time>2021-08-14T08:40:33.000Z</time>
      </trkpt>
      <trkpt lat="47.34792" lon="-1.36141">
        <ele>133</ele>
        <time>2021-08-14T08:40:35.000Z</time>
      </trkpt>
      <trkpt lat="47.34782" lon="-1.36127">
        <ele>133</ele>
        <time>2021-08-14T08:40:37.000Z</time>
      </trkpt>
      <trkpt lat="47.34772" lon="-1.36115">
        <ele>133</ele>
        <time>2021-08-14T08:40:39.000Z</time>
      </trkpt>
      <trkpt lat="47.34762" lon="-1.36103">
        <ele>133</ele>
        <time>2021-08-14T08:40:41.000Z</time>
      </trkpt>
      <trkpt lat="47.34752" lon="-1.3609">
        <ele>133</ele>
        <time>2021-08-14T08:40:43.000Z</time>
      </trkpt>
      <trkpt lat="47.34742" lon="-1.36079">
        <ele>133</ele>
        <time>2021-08-14T08:40:45.000Z</time>
      </trkpt>
      <trkpt lat="47.34731" lon="-1.36066">
        <ele>132</ele>
        <time>2021-08-14T08:40:47.000Z</time>
      </trkpt>
      <trkpt lat="47.3472" lon="-1.36053">
        <ele>132</ele>
        <time>2021-08-14T08:40:49.000Z</time>
      </trkpt>
      <trkpt lat="47.34709" lon="-1.3604">
        <ele>132</ele>
        <time>2021-08-14T08:40:51.000Z</time>
      </trkpt>
      <trkpt lat="47.34697" lon="-1.36028">
        <ele>132</ele>
        <time>2021-08-14T08:40:53.000Z</time>
      </trkpt>
      <trkpt lat="47.34686" lon="-1.36016">
        <ele>131</ele>
        <time>2021-08-14T08:40:55.000Z</time>
      </trkpt>
      <trkpt lat="47.34674" lon="-1.36003">
        <ele>131</ele>
        <time>2021-08-14T08:40:57.000Z</time>
      </trkpt>
      <trkpt lat="47.34661" lon="-1.3599">
        <ele>131</ele>
        <time>2021-08-14T08:40:59.000Z</time>
      </trkpt>
      <trkpt lat="47.34649" lon="-1.35976">
        <ele>130</ele>
        <time>2021-08-14T08:41:01.000Z</time>
      </trkpt>
      <trkpt lat="47.34637" lon="-1.35963">
        <ele>129</ele>
        <time>2021-08-14T08:41:03.000Z</time>
      </trkpt>
      <trkpt lat="47.34625" lon="-1.3595">
        <ele>129</ele>
        <time>2021-08-14T08:41:05.000Z</time>
      </trkpt>
      <trkpt lat="47.34613" lon="-1.35936">
        <ele>129</ele>
        <time>2021-08-14T08:41:07.000Z</time>
      </trkpt>
      <trkpt lat="47.34601" lon="-1.35923">
        <ele>129</ele>
        <time>2021-08-14T08:41:09.000Z</time>
      </trkpt>
      <trkpt lat="47.3459" lon="-1.3591">
        <ele>129</ele>
        <time>2021-08-14T08:41:11.000Z</time>
      </trkpt>
      <trkpt lat="47.3458" lon="-1.35896">
        <ele>129</ele>
        <time>2021-08-14T08:41:13.000Z</time>
      </trkpt>
      <trkpt lat="47.34569" lon="-1.35882">
        <ele>129</ele>
        <time>2021-08-14T08:41:15.000Z</time>
      </trkpt>
      <trkpt lat="47.34559" lon="-1.35868">
        <ele>129</ele>
        <time>2021-08-14T08:41:17.000Z</time>
      </trkpt>
      <trkpt lat="47.3455" lon="-1.35854">
        <ele>129</ele>
        <time>2021-08-14T08:41:19.000Z</time>
      </trkpt>
      <trkpt lat="47.3454" lon="-1.35839">
        <ele>130</ele>
        <time>2021-08-14T08:41:21.000Z</time>
      </trkpt>
      <trkpt lat="47.34532" lon="-1.35824">
        <ele>130</ele>
        <time>2021-08-14T08:41:23.000Z</time>
      </trkpt>
      <trkpt lat="47.34523" lon="-1.35809">
        <ele>130</ele>
        <time>2021-08-14T08:41:25.000Z</time>
      </trkpt>
      <trkpt lat="47.34515" lon="-1.35795">
        <ele>130</ele>
        <time>2021-08-14T08:41:27.000Z</time>
      </trkpt>
      <trkpt lat="47.34506" lon="-1.35781">
        <ele>131</ele>
        <time>2021-08-14T08:41:29.000Z</time>
      </trkpt>
      <trkpt lat="47.34498" lon="-1.35767">
        <ele>131</ele>
        <time>2021-08-14T08:41:31.000Z</time>
      </trkpt>
      <trkpt lat="47.3449" lon="-1.35752">
        <ele>131</ele>
        <time>2021-08-14T08:41:33.000Z</time>
      </trkpt>
      <trkpt lat="47.34482" lon="-1.35738">
        <ele>132</ele>
        <time>2021-08-14T08:41:35.000Z</time>
      </trkpt>
      <trkpt lat="47.34475" lon="-1.35723">
        <ele>132</ele>
        <time>2021-08-14T08:41:37.000Z</time>
      </trkpt>
      <trkpt lat="47.34468" lon="-1.3571">
        <ele>133</ele>
        <time>2021-08-14T08:41:39.000Z</time>
      </trkpt>
      <trkpt lat="47.34461" lon="-1.35696">
        <ele>133</ele>
        <time>2021-08-14T08:41:41.000Z</time>
      </trkpt>
      <trkpt lat="47.34452" lon="-1.35683">
        <ele>133</ele>
        <time>2021-08-14T08:41:43.000Z</time>
      </trkpt>
      <trkpt lat="47.34443" lon="-1.35671">
        <ele>134</ele>
        <time>2021-08-14T08:41:45.000Z</time>
      </trkpt>
      <trkpt lat="47.34434" lon="-1.35658">
        <ele>135</ele>
        <time>2021-08-14T08:41:47.000Z</time>
      </trkpt>
      <trkpt lat="47.34425" lon="-1.35644">
        <ele>135</ele>
        <time>2021-08-14T08:41:49.000Z</time>
      </trkpt>
      <trkpt lat="47.34416" lon="-1.3563">
        <ele>135</ele>
        <time>2021-08-14T08:41:51.000Z</time>
      </trkpt>
      <trkpt lat="47.34406" lon="-1.35614">
        <ele>135</ele>
        <time>2021-08-14T08:41:53.000Z</time>
      </trkpt>
      <trkpt lat="47.34397" lon="-1.35597">
        <ele>135</ele>
        <time>2021-08-14T08:41:55.000Z</time>
      </trkpt>
      <trkpt lat="47.34388" lon="-1.35581">
        <ele>135</ele>
        <time>2021-08-14T08:41:57.000Z</time>
      </trkpt>
      <trkpt lat="47.34379" lon="-1.35565">
        <ele>135</ele>
        <time>2021-08-14T08:41:59.000Z</time>
      </trkpt>
      <trkpt lat="47.34371" lon="-1.3555">
        <ele>135</ele>
        <time>2021-08-14T08:42:01.000Z</time>
      </trkpt>
      <trkpt lat="47.34362" lon="-1.35534">
        <ele>135</ele>
        <time>2021-08-14T08:42:03.000Z</time>
      </trkpt>
      <trkpt lat="47.34354" lon="-1.3552">
        <ele>135</ele>
        <time>2021-08-14T08:42:05.000Z</time>
      </trkpt>
      <trkpt lat="47.34345" lon="-1.35505">
        <ele>134</ele>
        <time>2021-08-14T08:42:07.000Z</time>
      </trkpt>
      <trkpt lat="47.34337" lon="-1.3549">
        <ele>134</ele>
        <time>2021-08-14T08:42:09.000Z</time>
      </trkpt>
      <trkpt lat="47.34328" lon="-1.35474">
        <ele>134</ele>
        <time>2021-08-14T08:42:11.000Z</time>
      </trkpt>
      <trkpt lat="47.34319" lon="-1.35457">
        <ele>134</ele>
        <time>2021-08-14T08:42:13.000Z</time>
      </trkpt>
      <trkpt lat="47.3431" lon="-1.35442">
        <ele>134</ele>
        <time>2021-08-14T08:42:15.000Z</time>
      </trkpt>
      <trkpt lat="47.34301" lon="-1.35426">
        <ele>133</ele>
        <time>2021-08-14T08:42:17.000Z</time>
      </trkpt>
      <trkpt lat="47.34292" lon="-1.35411">
        <ele>133</ele>
        <time>2021-08-14T08:42:19.000Z</time>
      </trkpt>
      <trkpt lat="47.34283" lon="-1.35395">
        <ele>133</ele>
        <time>2021-08-14T08:42:21.000Z</time>
      </trkpt>
      <trkpt lat="47.34274" lon="-1.35379">
        <ele>133</ele>
        <time>2021-08-14T08:42:23.000Z</time>
      </trkpt>
      <trkpt lat="47.34264" lon="-1.35363">
        <ele>133</ele>
        <time>2021-08-14T08:42:25.000Z</time>
      </trkpt>
      <trkpt lat="47.34255" lon="-1.35347">
        <ele>133</ele>
        <time>2021-08-14T08:42:27.000Z</time>
      </trkpt>
      <trkpt lat="47.34246" lon="-1.35332">
        <ele>133</ele>
        <time>2021-08-14T08:42:29.000Z</time>
      </trkpt>
      <trkpt lat="47.34238" lon="-1.35318">
        <ele>133</ele>
        <time>2021-08-14T08:42:31.000Z</time>
      </trkpt>
      <trkpt lat="47.34229" lon="-1.35303">
        <ele>133</ele>
        <time>2021-08-14T08:42:33.000Z</time>
      </trkpt>
      <trkpt lat="47.3422" lon="-1.35289">
        <ele>133</ele>
        <time>2021-08-14T08:42:35.000Z</time>
      </trkpt>
      <trkpt lat="47.34211" lon="-1.35273">
        <ele>133</ele>
        <time>2021-08-14T08:42:37.000Z</time>
      </trkpt>
      <trkpt lat="47.34202" lon="-1.35258">
        <ele>133</ele>
        <time>2021-08-14T08:42:39.000Z</time>
      </trkpt>
      <trkpt lat="47.34193" lon="-1.35243">
        <ele>133</ele>
        <time>2021-08-14T08:42:41.000Z</time>
      </trkpt>
      <trkpt lat="47.34184" lon="-1.35229">
        <ele>133</ele>
        <time>2021-08-14T08:42:43.000Z</time>
      </trkpt>
      <trkpt lat="47.34175" lon="-1.35214">
        <ele>133</ele>
        <time>2021-08-14T08:42:45.000Z</time>
      </trkpt>
      <trkpt lat="47.34166" lon="-1.35199">
        <ele>132</ele>
        <time>2021-08-14T08:42:47.000Z</time>
      </trkpt>
      <trkpt lat="47.34157" lon="-1.35184">
        <ele>132</ele>
        <time>2021-08-14T08:42:49.000Z</time>
      </trkpt>
      <trkpt lat="47.34148" lon="-1.35168">
        <ele>132</ele>
        <time>2021-08-14T08:42:51.000Z</time>
      </trkpt>
      <trkpt lat="47.34138" lon="-1.35152">
        <ele>132</ele>
        <time>2021-08-14T08:42:53.000Z</time>
      </trkpt>
      <trkpt lat="47.34128" lon="-1.35136">
        <ele>132</ele>
        <time>2021-08-14T08:42:55.000Z</time>
      </trkpt>
      <trkpt lat="47.34119" lon="-1.35121">
        <ele>131</ele>
        <time>2021-08-14T08:42:57.000Z</time>
      </trkpt>
      <trkpt lat="47.3411" lon="-1.35106">
        <ele>131</ele>
        <time>2021-08-14T08:42:59.000Z</time>
      </trkpt>
      <trkpt lat="47.34101" lon="-1.35091">
        <ele>131</ele>
        <time>2021-08-14T08:43:01.000Z</time>
      </trkpt>
      <trkpt lat="47.34093" lon="-1.35076">
        <ele>132</ele>
        <time>2021-08-14T08:43:03.000Z</time>
      </trkpt>
      <trkpt lat="47.34084" lon="-1.35062">
        <ele>132</ele>
        <time>2021-08-14T08:43:05.000Z</time>
      </trkpt>
      <trkpt lat="47.34075" lon="-1.35047">
        <ele>132</ele>
        <time>2021-08-14T08:43:07.000Z</time>
      </trkpt>
      <trkpt lat="47.34066" lon="-1.35032">
        <ele>132</ele>
        <time>2021-08-14T08:43:09.000Z</time>
      </trkpt>
      <trkpt lat="47.34058" lon="-1.35017">
        <ele>132</ele>
        <time>2021-08-14T08:43:11.000Z</time>
      </trkpt>
      <trkpt lat="47.34049" lon="-1.35004">
        <ele>132</ele>
        <time>2021-08-14T08:43:13.000Z</time>
      </trkpt>
      <trkpt lat="47.34041" lon="-1.34991">
        <ele>132</ele>
        <time>2021-08-14T08:43:15.000Z</time>
      </trkpt>
      <trkpt lat="47.34033" lon="-1.3498">
        <ele>132</ele>
        <time>2021-08-14T08:43:17.000Z</time>
      </trkpt>
      <trkpt lat="47.34024" lon="-1.3497">
        <ele>132</ele>
        <time>2021-08-14T08:43:19.000Z</time>
      </trkpt>
      <trkpt lat="47.34015" lon="-1.34963">
        <ele>132</ele>
        <time>2021-08-14T08:43:21.000Z</time>
      </trkpt>
      <trkpt lat="47.34004" lon="-1.34957">
        <ele>132</ele>
        <time>2021-08-14T08:43:23.000Z</time>
      </trkpt>
      <trkpt lat="47.33993" lon="-1.34946">
        <ele>132</ele>
        <time>2021-08-14T08:43:25.000Z</time>
      </trkpt>
      <trkpt lat="47.33985" lon="-1.34928">
        <ele>131</ele>
        <time>2021-08-14T08:43:27.000Z</time>
      </trkpt>
      <trkpt lat="47.33973" lon="-1.34912">
        <ele>131</ele>
        <time>2021-08-14T08:43:29.000Z</time>
      </trkpt>
      <trkpt lat="47.33961" lon="-1.34899">
        <ele>131</ele>
        <time>2021-08-14T08:43:31.000Z</time>
      </trkpt>
      <trkpt lat="47.33948" lon="-1.34887">
        <ele>131</ele>
        <time>2021-08-14T08:43:33.000Z</time>
      </trkpt>
      <trkpt lat="47.33936" lon="-1.34874">
        <ele>131</ele>
        <time>2021-08-14T08:43:35.000Z</time>
      </trkpt>
      <trkpt lat="47.33923" lon="-1.34863">
        <ele>131</ele>
        <time>2021-08-14T08:43:37.000Z</time>
      </trkpt>
      <trkpt lat="47.33911" lon="-1.3485">
        <ele>131</ele>
        <time>2021-08-14T08:43:39.000Z</time>
      </trkpt>
      <trkpt lat="47.33899" lon="-1.34837">
        <ele>131</ele>
        <time>2021-08-14T08:43:41.000Z</time>
      </trkpt>
      <trkpt lat="47.33888" lon="-1.34822">
        <ele>131</ele>
        <time>2021-08-14T08:43:43.000Z</time>
      </trkpt>
      <trkpt lat="47.33877" lon="-1.34807">
        <ele>131</ele>
        <time>2021-08-14T08:43:45.000Z</time>
      </trkpt>
      <trkpt lat="47.33866" lon="-1.34792">
        <ele>131</ele>
        <time>2021-08-14T08:43:47.000Z</time>
      </trkpt>
      <trkpt lat="47.33855" lon="-1.34777">
        <ele>131</ele>
        <time>2021-08-14T08:43:49.000Z</time>
      </trkpt>
      <trkpt lat="47.33843" lon="-1.34761">
        <ele>130</ele>
        <time>2021-08-14T08:43:51.000Z</time>
      </trkpt>
      <trkpt lat="47.33832" lon="-1.34746">
        <ele>130</ele>
        <time>2021-08-14T08:43:53.000Z</time>
      </trkpt>
      <trkpt lat="47.33821" lon="-1.34731">
        <ele>130</ele>
        <time>2021-08-14T08:43:55.000Z</time>
      </trkpt>
      <trkpt lat="47.3381" lon="-1.34715">
        <ele>130</ele>
        <time>2021-08-14T08:43:57.000Z</time>
      </trkpt>
      <trkpt lat="47.33798" lon="-1.347">
        <ele>130</ele>
        <time>2021-08-14T08:43:59.000Z</time>
      </trkpt>
      <trkpt lat="47.33788" lon="-1.34685">
        <ele>130</ele>
        <time>2021-08-14T08:44:01.000Z</time>
      </trkpt>
      <trkpt lat="47.33777" lon="-1.3467">
        <ele>130</ele>
        <time>2021-08-14T08:44:03.000Z</time>
      </trkpt>
      <trkpt lat="47.33766" lon="-1.34655">
        <ele>130</ele>
        <time>2021-08-14T08:44:05.000Z</time>
      </trkpt>
      <trkpt lat="47.33756" lon="-1.3464">
        <ele>130</ele>
        <time>2021-08-14T08:44:07.000Z</time>
      </trkpt>
      <trkpt lat="47.33746" lon="-1.34626">
        <ele>130</ele>
        <time>2021-08-14T08:44:09.000Z</time>
      </trkpt>
      <trkpt lat="47.33735" lon="-1.34611">
        <ele>130</ele>
        <time>2021-08-14T08:44:11.000Z</time>
      </trkpt>
      <trkpt lat="47.33724" lon="-1.34597">
        <ele>130</ele>
        <time>2021-08-14T08:44:13.000Z</time>
      </trkpt>
      <trkpt lat="47.33714" lon="-1.34583">
        <ele>130</ele>
        <time>2021-08-14T08:44:15.000Z</time>
      </trkpt>
      <trkpt lat="47.33703" lon="-1.34568">
        <ele>130</ele>
        <time>2021-08-14T08:44:17.000Z</time>
      </trkpt>
      <trkpt lat="47.33693" lon="-1.34553">
        <ele>129</ele>
        <time>2021-08-14T08:44:19.000Z</time>
      </trkpt>
      <trkpt lat="47.33683" lon="-1.34538">
        <ele>129</ele>
        <time>2021-08-14T08:44:21.000Z</time>
      </trkpt>
      <trkpt lat="47.33673" lon="-1.34523">
        <ele>129</ele>
        <time>2021-08-14T08:44:23.000Z</time>
      </trkpt>
      <trkpt lat="47.33662" lon="-1.34507">
        <ele>129</ele>
        <time>2021-08-14T08:44:25.000Z</time>
      </trkpt>
      <trkpt lat="47.33652" lon="-1.34493">
        <ele>129</ele>
        <time>2021-08-14T08:44:27.000Z</time>
      </trkpt>
      <trkpt lat="47.33646" lon="-1.34477">
        <ele>128</ele>
        <time>2021-08-14T08:44:29.000Z</time>
      </trkpt>
      <trkpt lat="47.33651" lon="-1.34458">
        <ele>129</ele>
        <time>2021-08-14T08:44:31.000Z</time>
      </trkpt>
      <trkpt lat="47.33661" lon="-1.34444">
        <ele>129</ele>
        <time>2021-08-14T08:44:33.000Z</time>
      </trkpt>
      <trkpt lat="47.3367" lon="-1.34427">
        <ele>129</ele>
        <time>2021-08-14T08:44:35.000Z</time>
      </trkpt>
      <trkpt lat="47.33679" lon="-1.34409">
        <ele>128</ele>
        <time>2021-08-14T08:44:37.000Z</time>
      </trkpt>
      <trkpt lat="47.33688" lon="-1.34391">
        <ele>129</ele>
        <time>2021-08-14T08:44:39.000Z</time>
      </trkpt>
      <trkpt lat="47.33697" lon="-1.34373">
        <ele>129</ele>
        <time>2021-08-14T08:44:41.000Z</time>
      </trkpt>
      <trkpt lat="47.33706" lon="-1.34356">
        <ele>129</ele>
        <time>2021-08-14T08:44:43.000Z</time>
      </trkpt>
      <trkpt lat="47.33715" lon="-1.34338">
        <ele>129</ele>
        <time>2021-08-14T08:44:45.000Z</time>
      </trkpt>
      <trkpt lat="47.33724" lon="-1.34321">
        <ele>130</ele>
        <time>2021-08-14T08:44:47.000Z</time>
      </trkpt>
      <trkpt lat="47.33732" lon="-1.34304">
        <ele>130</ele>
        <time>2021-08-14T08:44:49.000Z</time>
      </trkpt>
      <trkpt lat="47.33742" lon="-1.34287">
        <ele>131</ele>
        <time>2021-08-14T08:44:51.000Z</time>
      </trkpt>
      <trkpt lat="47.3375" lon="-1.3427">
        <ele>132</ele>
        <time>2021-08-14T08:44:53.000Z</time>
      </trkpt>
      <trkpt lat="47.33759" lon="-1.34252">
        <ele>132</ele>
        <time>2021-08-14T08:44:55.000Z</time>
      </trkpt>
      <trkpt lat="47.33768" lon="-1.34235">
        <ele>132</ele>
        <time>2021-08-14T08:44:57.000Z</time>
      </trkpt>
      <trkpt lat="47.33777" lon="-1.34218">
        <ele>132</ele>
        <time>2021-08-14T08:44:59.000Z</time>
      </trkpt>
      <trkpt lat="47.33786" lon="-1.34203">
        <ele>131</ele>
        <time>2021-08-14T08:45:01.000Z</time>
      </trkpt>
      <trkpt lat="47.33795" lon="-1.34188">
        <ele>131</ele>
        <time>2021-08-14T08:45:03.000Z</time>
      </trkpt>
      <trkpt lat="47.33801" lon="-1.34172">
        <ele>130</ele>
        <time>2021-08-14T08:45:05.000Z</time>
      </trkpt>
      <trkpt lat="47.33801" lon="-1.34153">
        <ele>129</ele>
        <time>2021-08-14T08:45:07.000Z</time>
      </trkpt>
      <trkpt lat="47.33792" lon="-1.34136">
        <ele>129</ele>
        <time>2021-08-14T08:45:09.000Z</time>
      </trkpt>
      <trkpt lat="47.33783" lon="-1.3412">
        <ele>128</ele>
        <time>2021-08-14T08:45:11.000Z</time>
      </trkpt>
      <trkpt lat="47.33773" lon="-1.34103">
        <ele>128</ele>
        <time>2021-08-14T08:45:13.000Z</time>
      </trkpt>
      <trkpt lat="47.33764" lon="-1.34085">
        <ele>127</ele>
        <time>2021-08-14T08:45:15.000Z</time>
      </trkpt>
      <trkpt lat="47.33755" lon="-1.34068">
        <ele>127</ele>
        <time>2021-08-14T08:45:17.000Z</time>
      </trkpt>
      <trkpt lat="47.33745" lon="-1.3405">
        <ele>126</ele>
        <time>2021-08-14T08:45:19.000Z</time>
      </trkpt>
      <trkpt lat="47.33735" lon="-1.34032">
        <ele>126</ele>
        <time>2021-08-14T08:45:21.000Z</time>
      </trkpt>
      <trkpt lat="47.33726" lon="-1.34014">
        <ele>125</ele>
        <time>2021-08-14T08:45:23.000Z</time>
      </trkpt>
      <trkpt lat="47.33716" lon="-1.33996">
        <ele>125</ele>
        <time>2021-08-14T08:45:25.000Z</time>
      </trkpt>
      <trkpt lat="47.33706" lon="-1.33979">
        <ele>125</ele>
        <time>2021-08-14T08:45:27.000Z</time>
      </trkpt>
      <trkpt lat="47.33696" lon="-1.33962">
        <ele>125</ele>
        <time>2021-08-14T08:45:29.000Z</time>
      </trkpt>
      <trkpt lat="47.33687" lon="-1.33944">
        <ele>124</ele>
        <time>2021-08-14T08:45:31.000Z</time>
      </trkpt>
      <trkpt lat="47.33679" lon="-1.33926">
        <ele>124</ele>
        <time>2021-08-14T08:45:33.000Z</time>
      </trkpt>
      <trkpt lat="47.33672" lon="-1.33907">
        <ele>124</ele>
        <time>2021-08-14T08:45:35.000Z</time>
      </trkpt>
      <trkpt lat="47.33665" lon="-1.33887">
        <ele>124</ele>
        <time>2021-08-14T08:45:37.000Z</time>
      </trkpt>
      <trkpt lat="47.33659" lon="-1.33868">
        <ele>125</ele>
        <time>2021-08-14T08:45:39.000Z</time>
      </trkpt>
      <trkpt lat="47.33653" lon="-1.33848">
        <ele>124</ele>
        <time>2021-08-14T08:45:41.000Z</time>
      </trkpt>
      <trkpt lat="47.33647" lon="-1.33828">
        <ele>124</ele>
        <time>2021-08-14T08:45:43.000Z</time>
      </trkpt>
      <trkpt lat="47.33641" lon="-1.33808">
        <ele>124</ele>
        <time>2021-08-14T08:45:45.000Z</time>
      </trkpt>
      <trkpt lat="47.33636" lon="-1.33788">
        <ele>123</ele>
        <time>2021-08-14T08:45:47.000Z</time>
      </trkpt>
      <trkpt lat="47.33629" lon="-1.33768">
        <ele>123</ele>
        <time>2021-08-14T08:45:49.000Z</time>
      </trkpt>
      <trkpt lat="47.33624" lon="-1.33748">
        <ele>123</ele>
        <time>2021-08-14T08:45:51.000Z</time>
      </trkpt>
      <trkpt lat="47.33617" lon="-1.33728">
        <ele>123</ele>
        <time>2021-08-14T08:45:53.000Z</time>
      </trkpt>
      <trkpt lat="47.33612" lon="-1.33708">
        <ele>122</ele>
        <time>2021-08-14T08:45:55.000Z</time>
      </trkpt>
      <trkpt lat="47.33606" lon="-1.33688">
        <ele>122</ele>
        <time>2021-08-14T08:45:57.000Z</time>
      </trkpt>
      <trkpt lat="47.33599" lon="-1.33668">
        <ele>121</ele>
        <time>2021-08-14T08:45:59.000Z</time>
      </trkpt>
      <trkpt lat="47.33592" lon="-1.33648">
        <ele>121</ele>
        <time>2021-08-14T08:46:01.000Z</time>
      </trkpt>
      <trkpt lat="47.33584" lon="-1.33629">
        <ele>120</ele>
        <time>2021-08-14T08:46:03.000Z</time>
      </trkpt>
      <trkpt lat="47.33575" lon="-1.33611">
        <ele>120</ele>
        <time>2021-08-14T08:46:05.000Z</time>
      </trkpt>
      <trkpt lat="47.33566" lon="-1.33594">
        <ele>120</ele>
        <time>2021-08-14T08:46:07.000Z</time>
      </trkpt>
      <trkpt lat="47.33556" lon="-1.33578">
        <ele>120</ele>
        <time>2021-08-14T08:46:09.000Z</time>
      </trkpt>
      <trkpt lat="47.33546" lon="-1.33561">
        <ele>120</ele>
        <time>2021-08-14T08:46:11.000Z</time>
      </trkpt>
      <trkpt lat="47.33537" lon="-1.33544">
        <ele>120</ele>
        <time>2021-08-14T08:46:13.000Z</time>
      </trkpt>
      <trkpt lat="47.33527" lon="-1.33527">
        <ele>120</ele>
        <time>2021-08-14T08:46:15.000Z</time>
      </trkpt>
      <trkpt lat="47.33518" lon="-1.3351">
        <ele>120</ele>
        <time>2021-08-14T08:46:17.000Z</time>
      </trkpt>
      <trkpt lat="47.33509" lon="-1.33493">
        <ele>120</ele>
        <time>2021-08-14T08:46:19.000Z</time>
      </trkpt>
      <trkpt lat="47.33501" lon="-1.33476">
        <ele>120</ele>
        <time>2021-08-14T08:46:21.000Z</time>
      </trkpt>
      <trkpt lat="47.33492" lon="-1.33458">
        <ele>120</ele>
        <time>2021-08-14T08:46:23.000Z</time>
      </trkpt>
      <trkpt lat="47.33483" lon="-1.33441">
        <ele>119</ele>
        <time>2021-08-14T08:46:25.000Z</time>
      </trkpt>
      <trkpt lat="47.33474" lon="-1.33423">
        <ele>120</ele>
        <time>2021-08-14T08:46:27.000Z</time>
      </trkpt>
      <trkpt lat="47.33465" lon="-1.33406">
        <ele>119</ele>
        <time>2021-08-14T08:46:29.000Z</time>
      </trkpt>
      <trkpt lat="47.33456" lon="-1.33388">
        <ele>119</ele>
        <time>2021-08-14T08:46:31.000Z</time>
      </trkpt>
      <trkpt lat="47.33447" lon="-1.33372">
        <ele>119</ele>
        <time>2021-08-14T08:46:33.000Z</time>
      </trkpt>
      <trkpt lat="47.33437" lon="-1.33355">
        <ele>119</ele>
        <time>2021-08-14T08:46:35.000Z</time>
      </trkpt>
      <trkpt lat="47.33428" lon="-1.33339">
        <ele>119</ele>
        <time>2021-08-14T08:46:37.000Z</time>
      </trkpt>
      <trkpt lat="47.33418" lon="-1.33323">
        <ele>119</ele>
        <time>2021-08-14T08:46:39.000Z</time>
      </trkpt>
      <trkpt lat="47.33408" lon="-1.33308">
        <ele>119</ele>
        <time>2021-08-14T08:46:41.000Z</time>
      </trkpt>
      <trkpt lat="47.33398" lon="-1.33292">
        <ele>119</ele>
        <time>2021-08-14T08:46:43.000Z</time>
      </trkpt>
      <trkpt lat="47.33388" lon="-1.33275">
        <ele>120</ele>
        <time>2021-08-14T08:46:45.000Z</time>
      </trkpt>
      <trkpt lat="47.33378" lon="-1.33258">
        <ele>119</ele>
        <time>2021-08-14T08:46:47.000Z</time>
      </trkpt>
      <trkpt lat="47.33369" lon="-1.33242">
        <ele>119</ele>
        <time>2021-08-14T08:46:49.000Z</time>
      </trkpt>
      <trkpt lat="47.3336" lon="-1.33225">
        <ele>118</ele>
        <time>2021-08-14T08:46:51.000Z</time>
      </trkpt>
      <trkpt lat="47.33349" lon="-1.3321">
        <ele>117</ele>
        <time>2021-08-14T08:46:53.000Z</time>
      </trkpt>
      <trkpt lat="47.33337" lon="-1.33195">
        <ele>118</ele>
        <time>2021-08-14T08:46:55.000Z</time>
      </trkpt>
      <trkpt lat="47.33327" lon="-1.33179">
        <ele>117</ele>
        <time>2021-08-14T08:46:57.000Z</time>
      </trkpt>
      <trkpt lat="47.33318" lon="-1.33162">
        <ele>116</ele>
        <time>2021-08-14T08:46:59.000Z</time>
      </trkpt>
      <trkpt lat="47.33311" lon="-1.33144">
        <ele>116</ele>
        <time>2021-08-14T08:47:01.000Z</time>
      </trkpt>
      <trkpt lat="47.33303" lon="-1.33125">
        <ele>117</ele>
        <time>2021-08-14T08:47:03.000Z</time>
      </trkpt>
      <trkpt lat="47.33296" lon="-1.33107">
        <ele>117</ele>
        <time>2021-08-14T08:47:05.000Z</time>
      </trkpt>
      <trkpt lat="47.33288" lon="-1.33088">
        <ele>117</ele>
        <time>2021-08-14T08:47:07.000Z</time>
      </trkpt>
      <trkpt lat="47.3328" lon="-1.3307">
        <ele>116</ele>
        <time>2021-08-14T08:47:09.000Z</time>
      </trkpt>
      <trkpt lat="47.33271" lon="-1.33053">
        <ele>116</ele>
        <time>2021-08-14T08:47:11.000Z</time>
      </trkpt>
      <trkpt lat="47.33262" lon="-1.33037">
        <ele>117</ele>
        <time>2021-08-14T08:47:13.000Z</time>
      </trkpt>
      <trkpt lat="47.33253" lon="-1.33021">
        <ele>116</ele>
        <time>2021-08-14T08:47:15.000Z</time>
      </trkpt>
      <trkpt lat="47.33243" lon="-1.33005">
        <ele>116</ele>
        <time>2021-08-14T08:47:17.000Z</time>
      </trkpt>
      <trkpt lat="47.33233" lon="-1.32989">
        <ele>116</ele>
        <time>2021-08-14T08:47:19.000Z</time>
      </trkpt>
      <trkpt lat="47.33223" lon="-1.32973">
        <ele>115</ele>
        <time>2021-08-14T08:47:21.000Z</time>
      </trkpt>
      <trkpt lat="47.33213" lon="-1.32957">
        <ele>115</ele>
        <time>2021-08-14T08:47:23.000Z</time>
      </trkpt>
      <trkpt lat="47.33205" lon="-1.3294">
        <ele>115</ele>
        <time>2021-08-14T08:47:25.000Z</time>
      </trkpt>
      <trkpt lat="47.33198" lon="-1.32921">
        <ele>114</ele>
        <time>2021-08-14T08:47:27.000Z</time>
      </trkpt>
      <trkpt lat="47.33191" lon="-1.32901">
        <ele>114</ele>
        <time>2021-08-14T08:47:29.000Z</time>
      </trkpt>
      <trkpt lat="47.33184" lon="-1.32882">
        <ele>114</ele>
        <time>2021-08-14T08:47:31.000Z</time>
      </trkpt>
      <trkpt lat="47.33175" lon="-1.32865">
        <ele>114</ele>
        <time>2021-08-14T08:47:33.000Z</time>
      </trkpt>
      <trkpt lat="47.33165" lon="-1.32849">
        <ele>113</ele>
        <time>2021-08-14T08:47:35.000Z</time>
      </trkpt>
      <trkpt lat="47.33155" lon="-1.32832">
        <ele>113</ele>
        <time>2021-08-14T08:47:37.000Z</time>
      </trkpt>
      <trkpt lat="47.33145" lon="-1.32817">
        <ele>113</ele>
        <time>2021-08-14T08:47:39.000Z</time>
      </trkpt>
      <trkpt lat="47.33134" lon="-1.32802">
        <ele>112</ele>
        <time>2021-08-14T08:47:41.000Z</time>
      </trkpt>
      <trkpt lat="47.33121" lon="-1.32787">
        <ele>111</ele>
        <time>2021-08-14T08:47:43.000Z</time>
      </trkpt>
      <trkpt lat="47.33107" lon="-1.32771">
        <ele>111</ele>
        <time>2021-08-14T08:47:45.000Z</time>
      </trkpt>
      <trkpt lat="47.331" lon="-1.32763">
        <ele>111</ele>
        <time>2021-08-14T08:47:46.000Z</time>
      </trkpt>
      <trkpt lat="47.33093" lon="-1.32754">
        <ele>111</ele>
        <time>2021-08-14T08:47:47.000Z</time>
      </trkpt>
      <trkpt lat="47.33086" lon="-1.32745">
        <ele>110</ele>
        <time>2021-08-14T08:47:48.000Z</time>
      </trkpt>
      <trkpt lat="47.33078" lon="-1.32736">
        <ele>110</ele>
        <time>2021-08-14T08:47:49.000Z</time>
      </trkpt>
      <trkpt lat="47.33071" lon="-1.32728">
        <ele>109</ele>
        <time>2021-08-14T08:47:50.000Z</time>
      </trkpt>
      <trkpt lat="47.33063" lon="-1.32718">
        <ele>109</ele>
        <time>2021-08-14T08:47:51.000Z</time>
      </trkpt>
      <trkpt lat="47.33056" lon="-1.32709">
        <ele>109</ele>
        <time>2021-08-14T08:47:52.000Z</time>
      </trkpt>
      <trkpt lat="47.33048" lon="-1.327">
        <ele>108</ele>
        <time>2021-08-14T08:47:53.000Z</time>
      </trkpt>
      <trkpt lat="47.3304" lon="-1.32691">
        <ele>108</ele>
        <time>2021-08-14T08:47:54.000Z</time>
      </trkpt>
      <trkpt lat="47.33032" lon="-1.32682">
        <ele>107</ele>
        <time>2021-08-14T08:47:55.000Z</time>
      </trkpt>
      <trkpt lat="47.33024" lon="-1.32673">
        <ele>107</ele>
        <time>2021-08-14T08:47:56.000Z</time>
      </trkpt>
      <trkpt lat="47.33016" lon="-1.32663">
        <ele>106</ele>
        <time>2021-08-14T08:47:57.000Z</time>
      </trkpt>
      <trkpt lat="47.33008" lon="-1.32654">
        <ele>105</ele>
        <time>2021-08-14T08:47:58.000Z</time>
      </trkpt>
      <trkpt lat="47.33" lon="-1.32645">
        <ele>104</ele>
        <time>2021-08-14T08:47:59.000Z</time>
      </trkpt>
      <trkpt lat="47.32992" lon="-1.32636">
        <ele>103</ele>
        <time>2021-08-14T08:48:00.000Z</time>
      </trkpt>
      <trkpt lat="47.32984" lon="-1.32626">
        <ele>102</ele>
        <time>2021-08-14T08:48:01.000Z</time>
      </trkpt>
      <trkpt lat="47.32976" lon="-1.32616">
        <ele>101</ele>
        <time>2021-08-14T08:48:02.000Z</time>
      </trkpt>
      <trkpt lat="47.32967" lon="-1.32607">
        <ele>100</ele>
        <time>2021-08-14T08:48:03.000Z</time>
      </trkpt>
      <trkpt lat="47.32959" lon="-1.32595">
        <ele>98</ele>
        <time>2021-08-14T08:48:04.000Z</time>
      </trkpt>
      <trkpt lat="47.32953" lon="-1.32582">
        <ele>96</ele>
        <time>2021-08-14T08:48:05.000Z</time>
      </trkpt>
      <trkpt lat="47.32951" lon="-1.32567">
        <ele>94</ele>
        <time>2021-08-14T08:48:06.000Z</time>
      </trkpt>
      <trkpt lat="47.32951" lon="-1.3255">
        <ele>92</ele>
        <time>2021-08-14T08:48:07.000Z</time>
      </trkpt>
      <trkpt lat="47.32956" lon="-1.32534">
        <ele>91</ele>
        <time>2021-08-14T08:48:08.000Z</time>
      </trkpt>
      <trkpt lat="47.32964" lon="-1.32519">
        <ele>89</ele>
        <time>2021-08-14T08:48:09.000Z</time>
      </trkpt>
      <trkpt lat="47.32973" lon="-1.32505">
        <ele>87</ele>
        <time>2021-08-14T08:48:10.000Z</time>
      </trkpt>
      <trkpt lat="47.32983" lon="-1.32493">
        <ele>85</ele>
        <time>2021-08-14T08:48:11.000Z</time>
      </trkpt>
      <trkpt lat="47.32994" lon="-1.32483">
        <ele>84</ele>
        <time>2021-08-14T08:48:12.000Z</time>
      </trkpt>
      <trkpt lat="47.33004" lon="-1.32471">
        <ele>82</ele>
        <time>2021-08-14T08:48:13.000Z</time>
      </trkpt>
      <trkpt lat="47.33013" lon="-1.32458">
        <ele>81</ele>
        <time>2021-08-14T08:48:14.000Z</time>
      </trkpt>
      <trkpt lat="47.33021" lon="-1.32445">
        <ele>79</ele>
        <time>2021-08-14T08:48:15.000Z</time>
      </trkpt>
      <trkpt lat="47.33028" lon="-1.3243">
        <ele>77</ele>
        <time>2021-08-14T08:48:16.000Z</time>
      </trkpt>
      <trkpt lat="47.33034" lon="-1.32414">
        <ele>76</ele>
        <time>2021-08-14T08:48:17.000Z</time>
      </trkpt>
      <trkpt lat="47.3304" lon="-1.32395">
        <ele>75</ele>
        <time>2021-08-14T08:48:18.000Z</time>
      </trkpt>
      <trkpt lat="47.33044" lon="-1.32377">
        <ele>74</ele>
        <time>2021-08-14T08:48:19.000Z</time>
      </trkpt>
      <trkpt lat="47.33047" lon="-1.3236">
        <ele>73</ele>
        <time>2021-08-14T08:48:20.000Z</time>
      </trkpt>
      <trkpt lat="47.33051" lon="-1.32345">
        <ele>71</ele>
        <time>2021-08-14T08:48:21.000Z</time>
      </trkpt>
      <trkpt lat="47.33053" lon="-1.32331">
        <ele>69</ele>
        <time>2021-08-14T08:48:22.000Z</time>
      </trkpt>
      <trkpt lat="47.33056" lon="-1.32318">
        <ele>67</ele>
        <time>2021-08-14T08:48:23.000Z</time>
      </trkpt>
      <trkpt lat="47.3306" lon="-1.32294">
        <ele>64</ele>
        <time>2021-08-14T08:48:25.000Z</time>
      </trkpt>
      <trkpt lat="47.33058" lon="-1.32269">
        <ele>63</ele>
        <time>2021-08-14T08:48:27.000Z</time>
      </trkpt>
      <trkpt lat="47.33052" lon="-1.32246">
        <ele>63</ele>
        <time>2021-08-14T08:48:29.000Z</time>
      </trkpt>
      <trkpt lat="47.33051" lon="-1.32221">
        <ele>63</ele>
        <time>2021-08-14T08:48:31.000Z</time>
      </trkpt>
      <trkpt lat="47.33061" lon="-1.32203">
        <ele>63</ele>
        <time>2021-08-14T08:48:33.000Z</time>
      </trkpt>
      <trkpt lat="47.33063" lon="-1.32189">
        <ele>62</ele>
        <time>2021-08-14T08:48:35.000Z</time>
      </trkpt>
      <trkpt lat="47.33057" lon="-1.32173">
        <ele>62</ele>
        <time>2021-08-14T08:48:38.000Z</time>
      </trkpt>
      <trkpt lat="47.33058" lon="-1.32157">
        <ele>62</ele>
        <time>2021-08-14T08:48:41.000Z</time>
      </trkpt>
      <trkpt lat="47.33065" lon="-1.32144">
        <ele>60</ele>
        <time>2021-08-14T08:48:43.000Z</time>
      </trkpt>
      <trkpt lat="47.33072" lon="-1.3213">
        <ele>60</ele>
        <time>2021-08-14T08:48:45.000Z</time>
      </trkpt>
      <trkpt lat="47.33079" lon="-1.32118">
        <ele>59</ele>
        <time>2021-08-14T08:48:47.000Z</time>
      </trkpt>
      <trkpt lat="47.33086" lon="-1.32105">
        <ele>59</ele>
        <time>2021-08-14T08:48:49.000Z</time>
      </trkpt>
      <trkpt lat="47.33092" lon="-1.32093">
        <ele>60</ele>
        <time>2021-08-14T08:48:51.000Z</time>
      </trkpt>
      <trkpt lat="47.33096" lon="-1.32078">
        <ele>60</ele>
        <time>2021-08-14T08:48:53.000Z</time>
      </trkpt>
      <trkpt lat="47.33097" lon="-1.32061">
        <ele>60</ele>
        <time>2021-08-14T08:48:57.000Z</time>
      </trkpt>
      <trkpt lat="47.33095" lon="-1.32046">
        <ele>60</ele>
        <time>2021-08-14T08:49:00.000Z</time>
      </trkpt>
      <trkpt lat="47.33102" lon="-1.32037">
        <ele>60</ele>
        <time>2021-08-14T08:49:03.000Z</time>
      </trkpt>
      <trkpt lat="47.33108" lon="-1.32027">
        <ele>61</ele>
        <time>2021-08-14T08:49:05.000Z</time>
      </trkpt>
      <trkpt lat="47.33115" lon="-1.32012">
        <ele>61</ele>
        <time>2021-08-14T08:49:07.000Z</time>
      </trkpt>
      <trkpt lat="47.33123" lon="-1.31999">
        <ele>61</ele>
        <time>2021-08-14T08:49:09.000Z</time>
      </trkpt>
      <trkpt lat="47.33134" lon="-1.31989">
        <ele>61</ele>
        <time>2021-08-14T08:49:11.000Z</time>
      </trkpt>
      <trkpt lat="47.33144" lon="-1.31982">
        <ele>61</ele>
        <time>2021-08-14T08:49:13.000Z</time>
      </trkpt>
      <trkpt lat="47.33154" lon="-1.31976">
        <ele>61</ele>
        <time>2021-08-14T08:49:15.000Z</time>
      </trkpt>
      <trkpt lat="47.33162" lon="-1.31964">
        <ele>60</ele>
        <time>2021-08-14T08:49:17.000Z</time>
      </trkpt>
      <trkpt lat="47.33171" lon="-1.31946">
        <ele>59</ele>
        <time>2021-08-14T08:49:19.000Z</time>
      </trkpt>
      <trkpt lat="47.3318" lon="-1.31926">
        <ele>61</ele>
        <time>2021-08-14T08:49:21.000Z</time>
      </trkpt>
      <trkpt lat="47.33189" lon="-1.31911">
        <ele>60</ele>
        <time>2021-08-14T08:49:23.000Z</time>
      </trkpt>
      <trkpt lat="47.33198" lon="-1.31895">
        <ele>60</ele>
        <time>2021-08-14T08:49:25.000Z</time>
      </trkpt>
      <trkpt lat="47.33206" lon="-1.31879">
        <ele>61</ele>
        <time>2021-08-14T08:49:27.000Z</time>
      </trkpt>
      <trkpt lat="47.33214" lon="-1.31862">
        <ele>61</ele>
        <time>2021-08-14T08:49:29.000Z</time>
      </trkpt>
      <trkpt lat="47.33223" lon="-1.31846">
        <ele>61</ele>
        <time>2021-08-14T08:49:31.000Z</time>
      </trkpt>
      <trkpt lat="47.33231" lon="-1.31829">
        <ele>61</ele>
        <time>2021-08-14T08:49:33.000Z</time>
      </trkpt>
      <trkpt lat="47.33239" lon="-1.31812">
        <ele>61</ele>
        <time>2021-08-14T08:49:35.000Z</time>
      </trkpt>
      <trkpt lat="47.33247" lon="-1.31796">
        <ele>61</ele>
        <time>2021-08-14T08:49:37.000Z</time>
      </trkpt>
      <trkpt lat="47.33256" lon="-1.31779">
        <ele>61</ele>
        <time>2021-08-14T08:49:39.000Z</time>
      </trkpt>
      <trkpt lat="47.33264" lon="-1.31764">
        <ele>61</ele>
        <time>2021-08-14T08:49:41.000Z</time>
      </trkpt>
      <trkpt lat="47.33272" lon="-1.31748">
        <ele>61</ele>
        <time>2021-08-14T08:49:43.000Z</time>
      </trkpt>
      <trkpt lat="47.33281" lon="-1.31731">
        <ele>61</ele>
        <time>2021-08-14T08:49:45.000Z</time>
      </trkpt>
      <trkpt lat="47.3329" lon="-1.31714">
        <ele>61</ele>
        <time>2021-08-14T08:49:47.000Z</time>
      </trkpt>
      <trkpt lat="47.33298" lon="-1.31697">
        <ele>61</ele>
        <time>2021-08-14T08:49:49.000Z</time>
      </trkpt>
      <trkpt lat="47.33306" lon="-1.31681">
        <ele>62</ele>
        <time>2021-08-14T08:49:51.000Z</time>
      </trkpt>
      <trkpt lat="47.33315" lon="-1.31665">
        <ele>62</ele>
        <time>2021-08-14T08:49:53.000Z</time>
      </trkpt>
      <trkpt lat="47.33323" lon="-1.31649">
        <ele>62</ele>
        <time>2021-08-14T08:49:55.000Z</time>
      </trkpt>
      <trkpt lat="47.33331" lon="-1.31634">
        <ele>63</ele>
        <time>2021-08-14T08:49:57.000Z</time>
      </trkpt>
      <trkpt lat="47.33339" lon="-1.31618">
        <ele>63</ele>
        <time>2021-08-14T08:49:59.000Z</time>
      </trkpt>
      <trkpt lat="47.33347" lon="-1.31602">
        <ele>65</ele>
        <time>2021-08-14T08:50:01.000Z</time>
      </trkpt>
      <trkpt lat="47.33356" lon="-1.31585">
        <ele>65</ele>
        <time>2021-08-14T08:50:03.000Z</time>
      </trkpt>
      <trkpt lat="47.33364" lon="-1.31569">
        <ele>65</ele>
        <time>2021-08-14T08:50:05.000Z</time>
      </trkpt>
      <trkpt lat="47.33373" lon="-1.31554">
        <ele>66</ele>
        <time>2021-08-14T08:50:07.000Z</time>
      </trkpt>
      <trkpt lat="47.33381" lon="-1.31539">
        <ele>66</ele>
        <time>2021-08-14T08:50:09.000Z</time>
      </trkpt>
      <trkpt lat="47.33388" lon="-1.31522">
        <ele>67</ele>
        <time>2021-08-14T08:50:11.000Z</time>
      </trkpt>
      <trkpt lat="47.33397" lon="-1.31506">
        <ele>67</ele>
        <time>2021-08-14T08:50:13.000Z</time>
      </trkpt>
      <trkpt lat="47.33405" lon="-1.3149">
        <ele>67</ele>
        <time>2021-08-14T08:50:15.000Z</time>
      </trkpt>
      <trkpt lat="47.33413" lon="-1.31474">
        <ele>66</ele>
        <time>2021-08-14T08:50:17.000Z</time>
      </trkpt>
      <trkpt lat="47.33422" lon="-1.31459">
        <ele>66</ele>
        <time>2021-08-14T08:50:19.000Z</time>
      </trkpt>
      <trkpt lat="47.3343" lon="-1.31444">
        <ele>66</ele>
        <time>2021-08-14T08:50:21.000Z</time>
      </trkpt>
      <trkpt lat="47.33439" lon="-1.31429">
        <ele>66</ele>
        <time>2021-08-14T08:50:23.000Z</time>
      </trkpt>
      <trkpt lat="47.33447" lon="-1.31411">
        <ele>65</ele>
        <time>2021-08-14T08:50:25.000Z</time>
      </trkpt>
      <trkpt lat="47.33455" lon="-1.31396">
        <ele>64</ele>
        <time>2021-08-14T08:50:27.000Z</time>
      </trkpt>
      <trkpt lat="47.33462" lon="-1.3138">
        <ele>63</ele>
        <time>2021-08-14T08:50:29.000Z</time>
      </trkpt>
      <trkpt lat="47.33469" lon="-1.31363">
        <ele>63</ele>
        <time>2021-08-14T08:50:31.000Z</time>
      </trkpt>
      <trkpt lat="47.33478" lon="-1.31347">
        <ele>62</ele>
        <time>2021-08-14T08:50:33.000Z</time>
      </trkpt>
      <trkpt lat="47.33486" lon="-1.31332">
        <ele>62</ele>
        <time>2021-08-14T08:50:35.000Z</time>
      </trkpt>
      <trkpt lat="47.33494" lon="-1.31317">
        <ele>62</ele>
        <time>2021-08-14T08:50:37.000Z</time>
      </trkpt>
      <trkpt lat="47.33503" lon="-1.31301">
        <ele>62</ele>
        <time>2021-08-14T08:50:39.000Z</time>
      </trkpt>
      <trkpt lat="47.3351" lon="-1.31286">
        <ele>61</ele>
        <time>2021-08-14T08:50:41.000Z</time>
      </trkpt>
      <trkpt lat="47.33518" lon="-1.31272">
        <ele>61</ele>
        <time>2021-08-14T08:50:43.000Z</time>
      </trkpt>
      <trkpt lat="47.33525" lon="-1.31256">
        <ele>61</ele>
        <time>2021-08-14T08:50:45.000Z</time>
      </trkpt>
      <trkpt lat="47.33533" lon="-1.31241">
        <ele>61</ele>
        <time>2021-08-14T08:50:47.000Z</time>
      </trkpt>
      <trkpt lat="47.33541" lon="-1.31226">
        <ele>61</ele>
        <time>2021-08-14T08:50:49.000Z</time>
      </trkpt>
      <trkpt lat="47.33549" lon="-1.3121">
        <ele>61</ele>
        <time>2021-08-14T08:50:51.000Z</time>
      </trkpt>
      <trkpt lat="47.33557" lon="-1.31194">
        <ele>61</ele>
        <time>2021-08-14T08:50:53.000Z</time>
      </trkpt>
      <trkpt lat="47.33564" lon="-1.31177">
        <ele>60</ele>
        <time>2021-08-14T08:50:55.000Z</time>
      </trkpt>
      <trkpt lat="47.33573" lon="-1.31161">
        <ele>60</ele>
        <time>2021-08-14T08:50:57.000Z</time>
      </trkpt>
      <trkpt lat="47.33581" lon="-1.31146">
        <ele>60</ele>
        <time>2021-08-14T08:50:59.000Z</time>
      </trkpt>
      <trkpt lat="47.33589" lon="-1.31133">
        <ele>59</ele>
        <time>2021-08-14T08:51:01.000Z</time>
      </trkpt>
      <trkpt lat="47.33597" lon="-1.31118">
        <ele>60</ele>
        <time>2021-08-14T08:51:03.000Z</time>
      </trkpt>
      <trkpt lat="47.33605" lon="-1.31105">
        <ele>60</ele>
        <time>2021-08-14T08:51:05.000Z</time>
      </trkpt>
      <trkpt lat="47.33614" lon="-1.31091">
        <ele>61</ele>
        <time>2021-08-14T08:51:07.000Z</time>
      </trkpt>
      <trkpt lat="47.33623" lon="-1.31079">
        <ele>61</ele>
        <time>2021-08-14T08:51:09.000Z</time>
      </trkpt>
      <trkpt lat="47.33632" lon="-1.31067">
        <ele>61</ele>
        <time>2021-08-14T08:51:11.000Z</time>
      </trkpt>
      <trkpt lat="47.33639" lon="-1.31056">
        <ele>61</ele>
        <time>2021-08-14T08:51:13.000Z</time>
      </trkpt>
      <trkpt lat="47.33647" lon="-1.31045">
        <ele>61</ele>
        <time>2021-08-14T08:51:15.000Z</time>
      </trkpt>
      <trkpt lat="47.33654" lon="-1.31034">
        <ele>61</ele>
        <time>2021-08-14T08:51:17.000Z</time>
      </trkpt>
      <trkpt lat="47.33662" lon="-1.31023">
        <ele>61</ele>
        <time>2021-08-14T08:51:19.000Z</time>
      </trkpt>
      <trkpt lat="47.3367" lon="-1.31012">
        <ele>60</ele>
        <time>2021-08-14T08:51:21.000Z</time>
      </trkpt>
      <trkpt lat="47.33676" lon="-1.31002">
        <ele>60</ele>
        <time>2021-08-14T08:51:23.000Z</time>
      </trkpt>
      <trkpt lat="47.33683" lon="-1.3099">
        <ele>61</ele>
        <time>2021-08-14T08:51:27.000Z</time>
      </trkpt>
      <trkpt lat="47.33692" lon="-1.30985">
        <ele>61</ele>
        <time>2021-08-14T08:51:30.000Z</time>
      </trkpt>
      <trkpt lat="47.33702" lon="-1.30972">
        <ele>62</ele>
        <time>2021-08-14T08:51:33.000Z</time>
      </trkpt>
      <trkpt lat="47.33711" lon="-1.3096">
        <ele>62</ele>
        <time>2021-08-14T08:51:35.000Z</time>
      </trkpt>
      <trkpt lat="47.3372" lon="-1.30949">
        <ele>63</ele>
        <time>2021-08-14T08:51:37.000Z</time>
      </trkpt>
      <trkpt lat="47.33727" lon="-1.30939">
        <ele>64</ele>
        <time>2021-08-14T08:51:39.000Z</time>
      </trkpt>
      <trkpt lat="47.33735" lon="-1.30928">
        <ele>64</ele>
        <time>2021-08-14T08:51:41.000Z</time>
      </trkpt>
      <trkpt lat="47.33745" lon="-1.30917">
        <ele>63</ele>
        <time>2021-08-14T08:51:43.000Z</time>
      </trkpt>
      <trkpt lat="47.33753" lon="-1.30906">
        <ele>63</ele>
        <time>2021-08-14T08:51:45.000Z</time>
      </trkpt>
      <trkpt lat="47.33763" lon="-1.30896">
        <ele>63</ele>
        <time>2021-08-14T08:51:47.000Z</time>
      </trkpt>
      <trkpt lat="47.33773" lon="-1.30886">
        <ele>63</ele>
        <time>2021-08-14T08:51:49.000Z</time>
      </trkpt>
      <trkpt lat="47.33783" lon="-1.30875">
        <ele>63</ele>
        <time>2021-08-14T08:51:51.000Z</time>
      </trkpt>
      <trkpt lat="47.33793" lon="-1.30866">
        <ele>63</ele>
        <time>2021-08-14T08:51:53.000Z</time>
      </trkpt>
      <trkpt lat="47.33804" lon="-1.30855">
        <ele>63</ele>
        <time>2021-08-14T08:51:55.000Z</time>
      </trkpt>
      <trkpt lat="47.33813" lon="-1.30846">
        <ele>63</ele>
        <time>2021-08-14T08:51:57.000Z</time>
      </trkpt>
      <trkpt lat="47.33824" lon="-1.30836">
        <ele>63</ele>
        <time>2021-08-14T08:51:59.000Z</time>
      </trkpt>
      <trkpt lat="47.33834" lon="-1.30826">
        <ele>63</ele>
        <time>2021-08-14T08:52:01.000Z</time>
      </trkpt>
      <trkpt lat="47.33844" lon="-1.30816">
        <ele>64</ele>
        <time>2021-08-14T08:52:03.000Z</time>
      </trkpt>
      <trkpt lat="47.33854" lon="-1.30807">
        <ele>63</ele>
        <time>2021-08-14T08:52:05.000Z</time>
      </trkpt>
      <trkpt lat="47.33864" lon="-1.30796">
        <ele>63</ele>
        <time>2021-08-14T08:52:07.000Z</time>
      </trkpt>
      <trkpt lat="47.33874" lon="-1.30785">
        <ele>64</ele>
        <time>2021-08-14T08:52:09.000Z</time>
      </trkpt>
      <trkpt lat="47.33885" lon="-1.30775">
        <ele>64</ele>
        <time>2021-08-14T08:52:11.000Z</time>
      </trkpt>
      <trkpt lat="47.33894" lon="-1.30765">
        <ele>64</ele>
        <time>2021-08-14T08:52:13.000Z</time>
      </trkpt>
      <trkpt lat="47.33903" lon="-1.30754">
        <ele>64</ele>
        <time>2021-08-14T08:52:15.000Z</time>
      </trkpt>
      <trkpt lat="47.33912" lon="-1.30743">
        <ele>63</ele>
        <time>2021-08-14T08:52:17.000Z</time>
      </trkpt>
      <trkpt lat="47.3392" lon="-1.30731">
        <ele>63</ele>
        <time>2021-08-14T08:52:19.000Z</time>
      </trkpt>
      <trkpt lat="47.33927" lon="-1.30717">
        <ele>63</ele>
        <time>2021-08-14T08:52:21.000Z</time>
      </trkpt>
      <trkpt lat="47.33935" lon="-1.30706">
        <ele>64</ele>
        <time>2021-08-14T08:52:23.000Z</time>
      </trkpt>
      <trkpt lat="47.33943" lon="-1.30694">
        <ele>63</ele>
        <time>2021-08-14T08:52:25.000Z</time>
      </trkpt>
      <trkpt lat="47.33952" lon="-1.30681">
        <ele>63</ele>
        <time>2021-08-14T08:52:28.000Z</time>
      </trkpt>
      <trkpt lat="47.33964" lon="-1.3068">
        <ele>62</ele>
        <time>2021-08-14T08:52:31.000Z</time>
      </trkpt>
      <trkpt lat="47.33972" lon="-1.30686">
        <ele>63</ele>
        <time>2021-08-14T08:52:34.000Z</time>
      </trkpt>
      <trkpt lat="47.33982" lon="-1.30687">
        <ele>63</ele>
        <time>2021-08-14T08:52:36.000Z</time>
      </trkpt>
      <trkpt lat="47.33991" lon="-1.3068">
        <ele>62</ele>
        <time>2021-08-14T08:52:38.000Z</time>
      </trkpt>
      <trkpt lat="47.34005" lon="-1.30661">
        <ele>60</ele>
        <time>2021-08-14T08:52:41.000Z</time>
      </trkpt>
      <trkpt lat="47.34015" lon="-1.30648">
        <ele>59</ele>
        <time>2021-08-14T08:52:43.000Z</time>
      </trkpt>
      <trkpt lat="47.34023" lon="-1.30633">
        <ele>59</ele>
        <time>2021-08-14T08:52:45.000Z</time>
      </trkpt>
      <trkpt lat="47.34031" lon="-1.30618">
        <ele>59</ele>
        <time>2021-08-14T08:52:47.000Z</time>
      </trkpt>
      <trkpt lat="47.34039" lon="-1.30602">
        <ele>59</ele>
        <time>2021-08-14T08:52:49.000Z</time>
      </trkpt>
      <trkpt lat="47.34047" lon="-1.30588">
        <ele>59</ele>
        <time>2021-08-14T08:52:51.000Z</time>
      </trkpt>
      <trkpt lat="47.34056" lon="-1.30575">
        <ele>59</ele>
        <time>2021-08-14T08:52:53.000Z</time>
      </trkpt>
      <trkpt lat="47.34065" lon="-1.30559">
        <ele>59</ele>
        <time>2021-08-14T08:52:55.000Z</time>
      </trkpt>
      <trkpt lat="47.34073" lon="-1.30544">
        <ele>60</ele>
        <time>2021-08-14T08:52:57.000Z</time>
      </trkpt>
      <trkpt lat="47.3408" lon="-1.30529">
        <ele>60</ele>
        <time>2021-08-14T08:52:59.000Z</time>
      </trkpt>
      <trkpt lat="47.34087" lon="-1.30515">
        <ele>60</ele>
        <time>2021-08-14T08:53:01.000Z</time>
      </trkpt>
      <trkpt lat="47.34093" lon="-1.305">
        <ele>60</ele>
        <time>2021-08-14T08:53:03.000Z</time>
      </trkpt>
      <trkpt lat="47.34103" lon="-1.3048">
        <ele>61</ele>
        <time>2021-08-14T08:53:06.000Z</time>
      </trkpt>
      <trkpt lat="47.34109" lon="-1.30463">
        <ele>62</ele>
        <time>2021-08-14T08:53:08.000Z</time>
      </trkpt>
      <trkpt lat="47.34115" lon="-1.30448">
        <ele>62</ele>
        <time>2021-08-14T08:53:10.000Z</time>
      </trkpt>
      <trkpt lat="47.34122" lon="-1.30433">
        <ele>63</ele>
        <time>2021-08-14T08:53:12.000Z</time>
      </trkpt>
      <trkpt lat="47.34128" lon="-1.30418">
        <ele>63</ele>
        <time>2021-08-14T08:53:14.000Z</time>
      </trkpt>
      <trkpt lat="47.34134" lon="-1.30403">
        <ele>63</ele>
        <time>2021-08-14T08:53:16.000Z</time>
      </trkpt>
      <trkpt lat="47.3414" lon="-1.30388">
        <ele>64</ele>
        <time>2021-08-14T08:53:18.000Z</time>
      </trkpt>
      <trkpt lat="47.34146" lon="-1.30374">
        <ele>63</ele>
        <time>2021-08-14T08:53:20.000Z</time>
      </trkpt>
      <trkpt lat="47.34155" lon="-1.30351">
        <ele>62</ele>
        <time>2021-08-14T08:53:23.000Z</time>
      </trkpt>
      <trkpt lat="47.34162" lon="-1.30336">
        <ele>61</ele>
        <time>2021-08-14T08:53:25.000Z</time>
      </trkpt>
      <trkpt lat="47.34169" lon="-1.3032">
        <ele>60</ele>
        <time>2021-08-14T08:53:27.000Z</time>
      </trkpt>
      <trkpt lat="47.34176" lon="-1.30303">
        <ele>60</ele>
        <time>2021-08-14T08:53:29.000Z</time>
      </trkpt>
      <trkpt lat="47.34183" lon="-1.30284">
        <ele>59</ele>
        <time>2021-08-14T08:53:31.000Z</time>
      </trkpt>
      <trkpt lat="47.3419" lon="-1.30266">
        <ele>59</ele>
        <time>2021-08-14T08:53:33.000Z</time>
      </trkpt>
      <trkpt lat="47.34197" lon="-1.30249">
        <ele>59</ele>
        <time>2021-08-14T08:53:35.000Z</time>
      </trkpt>
      <trkpt lat="47.34204" lon="-1.30231">
        <ele>59</ele>
        <time>2021-08-14T08:53:37.000Z</time>
      </trkpt>
      <trkpt lat="47.34211" lon="-1.30213">
        <ele>59</ele>
        <time>2021-08-14T08:53:39.000Z</time>
      </trkpt>
      <trkpt lat="47.34217" lon="-1.30195">
        <ele>59</ele>
        <time>2021-08-14T08:53:41.000Z</time>
      </trkpt>
      <trkpt lat="47.34222" lon="-1.30177">
        <ele>59</ele>
        <time>2021-08-14T08:53:43.000Z</time>
      </trkpt>
      <trkpt lat="47.34227" lon="-1.30158">
        <ele>59</ele>
        <time>2021-08-14T08:53:45.000Z</time>
      </trkpt>
      <trkpt lat="47.34231" lon="-1.3014">
        <ele>60</ele>
        <time>2021-08-14T08:53:47.000Z</time>
      </trkpt>
      <trkpt lat="47.34236" lon="-1.30122">
        <ele>60</ele>
        <time>2021-08-14T08:53:49.000Z</time>
      </trkpt>
      <trkpt lat="47.34242" lon="-1.30105">
        <ele>61</ele>
        <time>2021-08-14T08:53:51.000Z</time>
      </trkpt>
      <trkpt lat="47.34248" lon="-1.30087">
        <ele>61</ele>
        <time>2021-08-14T08:53:53.000Z</time>
      </trkpt>
      <trkpt lat="47.34253" lon="-1.30069">
        <ele>62</ele>
        <time>2021-08-14T08:53:55.000Z</time>
      </trkpt>
      <trkpt lat="47.34257" lon="-1.30051">
        <ele>62</ele>
        <time>2021-08-14T08:53:57.000Z</time>
      </trkpt>
      <trkpt lat="47.34261" lon="-1.30033">
        <ele>63</ele>
        <time>2021-08-14T08:53:59.000Z</time>
      </trkpt>
      <trkpt lat="47.34265" lon="-1.30016">
        <ele>63</ele>
        <time>2021-08-14T08:54:01.000Z</time>
      </trkpt>
      <trkpt lat="47.34271" lon="-1.30001">
        <ele>63</ele>
        <time>2021-08-14T08:54:03.000Z</time>
      </trkpt>
      <trkpt lat="47.34274" lon="-1.29983">
        <ele>62</ele>
        <time>2021-08-14T08:54:05.000Z</time>
      </trkpt>
      <trkpt lat="47.34277" lon="-1.29964">
        <ele>62</ele>
        <time>2021-08-14T08:54:07.000Z</time>
      </trkpt>
      <trkpt lat="47.34281" lon="-1.29946">
        <ele>61</ele>
        <time>2021-08-14T08:54:09.000Z</time>
      </trkpt>
      <trkpt lat="47.34286" lon="-1.29929">
        <ele>61</ele>
        <time>2021-08-14T08:54:11.000Z</time>
      </trkpt>
      <trkpt lat="47.34292" lon="-1.29911">
        <ele>61</ele>
        <time>2021-08-14T08:54:13.000Z</time>
      </trkpt>
      <trkpt lat="47.34297" lon="-1.29893">
        <ele>60</ele>
        <time>2021-08-14T08:54:15.000Z</time>
      </trkpt>
      <trkpt lat="47.34303" lon="-1.29875">
        <ele>60</ele>
        <time>2021-08-14T08:54:17.000Z</time>
      </trkpt>
      <trkpt lat="47.3431" lon="-1.29858">
        <ele>60</ele>
        <time>2021-08-14T08:54:19.000Z</time>
      </trkpt>
      <trkpt lat="47.34316" lon="-1.2984">
        <ele>60</ele>
        <time>2021-08-14T08:54:21.000Z</time>
      </trkpt>
      <trkpt lat="47.34323" lon="-1.29823">
        <ele>60</ele>
        <time>2021-08-14T08:54:23.000Z</time>
      </trkpt>
      <trkpt lat="47.3433" lon="-1.29806">
        <ele>59</ele>
        <time>2021-08-14T08:54:25.000Z</time>
      </trkpt>
      <trkpt lat="47.34338" lon="-1.29789">
        <ele>59</ele>
        <time>2021-08-14T08:54:27.000Z</time>
      </trkpt>
      <trkpt lat="47.34345" lon="-1.29772">
        <ele>59</ele>
        <time>2021-08-14T08:54:29.000Z</time>
      </trkpt>
      <trkpt lat="47.34352" lon="-1.29757">
        <ele>59</ele>
        <time>2021-08-14T08:54:31.000Z</time>
      </trkpt>
      <trkpt lat="47.3436" lon="-1.29742">
        <ele>59</ele>
        <time>2021-08-14T08:54:33.000Z</time>
      </trkpt>
      <trkpt lat="47.34367" lon="-1.29726">
        <ele>59</ele>
        <time>2021-08-14T08:54:35.000Z</time>
      </trkpt>
      <trkpt lat="47.34374" lon="-1.29712">
        <ele>59</ele>
        <time>2021-08-14T08:54:37.000Z</time>
      </trkpt>
      <trkpt lat="47.34382" lon="-1.29697">
        <ele>59</ele>
        <time>2021-08-14T08:54:39.000Z</time>
      </trkpt>
      <trkpt lat="47.3439" lon="-1.29682">
        <ele>59</ele>
        <time>2021-08-14T08:54:41.000Z</time>
      </trkpt>
      <trkpt lat="47.34397" lon="-1.29667">
        <ele>59</ele>
        <time>2021-08-14T08:54:43.000Z</time>
      </trkpt>
      <trkpt lat="47.34404" lon="-1.29651">
        <ele>59</ele>
        <time>2021-08-14T08:54:45.000Z</time>
      </trkpt>
      <trkpt lat="47.3441" lon="-1.29633">
        <ele>60</ele>
        <time>2021-08-14T08:54:47.000Z</time>
      </trkpt>
      <trkpt lat="47.34414" lon="-1.29615">
        <ele>60</ele>
        <time>2021-08-14T08:54:49.000Z</time>
      </trkpt>
      <trkpt lat="47.34417" lon="-1.29598">
        <ele>59</ele>
        <time>2021-08-14T08:54:51.000Z</time>
      </trkpt>
      <trkpt lat="47.34419" lon="-1.29579">
        <ele>60</ele>
        <time>2021-08-14T08:54:53.000Z</time>
      </trkpt>
      <trkpt lat="47.34421" lon="-1.29561">
        <ele>60</ele>
        <time>2021-08-14T08:54:55.000Z</time>
      </trkpt>
      <trkpt lat="47.34424" lon="-1.29543">
        <ele>60</ele>
        <time>2021-08-14T08:54:57.000Z</time>
      </trkpt>
      <trkpt lat="47.34427" lon="-1.29524">
        <ele>60</ele>
        <time>2021-08-14T08:54:59.000Z</time>
      </trkpt>
      <trkpt lat="47.34429" lon="-1.29506">
        <ele>59</ele>
        <time>2021-08-14T08:55:01.000Z</time>
      </trkpt>
      <trkpt lat="47.34432" lon="-1.29487">
        <ele>59</ele>
        <time>2021-08-14T08:55:03.000Z</time>
      </trkpt>
      <trkpt lat="47.34435" lon="-1.29469">
        <ele>59</ele>
        <time>2021-08-14T08:55:05.000Z</time>
      </trkpt>
      <trkpt lat="47.34437" lon="-1.29451">
        <ele>59</ele>
        <time>2021-08-14T08:55:07.000Z</time>
      </trkpt>
      <trkpt lat="47.34438" lon="-1.29432">
        <ele>60</ele>
        <time>2021-08-14T08:55:09.000Z</time>
      </trkpt>
      <trkpt lat="47.34439" lon="-1.29414">
        <ele>60</ele>
        <time>2021-08-14T08:55:11.000Z</time>
      </trkpt>
      <trkpt lat="47.34439" lon="-1.29395">
        <ele>60</ele>
        <time>2021-08-14T08:55:13.000Z</time>
      </trkpt>
      <trkpt lat="47.3444" lon="-1.29377">
        <ele>60</ele>
        <time>2021-08-14T08:55:15.000Z</time>
      </trkpt>
      <trkpt lat="47.3444" lon="-1.29358">
        <ele>60</ele>
        <time>2021-08-14T08:55:17.000Z</time>
      </trkpt>
      <trkpt lat="47.34439" lon="-1.2934">
        <ele>60</ele>
        <time>2021-08-14T08:55:19.000Z</time>
      </trkpt>
      <trkpt lat="47.34439" lon="-1.29321">
        <ele>60</ele>
        <time>2021-08-14T08:55:21.000Z</time>
      </trkpt>
      <trkpt lat="47.34439" lon="-1.29303">
        <ele>60</ele>
        <time>2021-08-14T08:55:23.000Z</time>
      </trkpt>
      <trkpt lat="47.34438" lon="-1.29284">
        <ele>60</ele>
        <time>2021-08-14T08:55:25.000Z</time>
      </trkpt>
      <trkpt lat="47.34438" lon="-1.29266">
        <ele>61</ele>
        <time>2021-08-14T08:55:27.000Z</time>
      </trkpt>
      <trkpt lat="47.34438" lon="-1.29247">
        <ele>61</ele>
        <time>2021-08-14T08:55:29.000Z</time>
      </trkpt>
      <trkpt lat="47.34437" lon="-1.29229">
        <ele>61</ele>
        <time>2021-08-14T08:55:31.000Z</time>
      </trkpt>
      <trkpt lat="47.34437" lon="-1.29211">
        <ele>61</ele>
        <time>2021-08-14T08:55:33.000Z</time>
      </trkpt>
      <trkpt lat="47.34438" lon="-1.29193">
        <ele>61</ele>
        <time>2021-08-14T08:55:35.000Z</time>
      </trkpt>
      <trkpt lat="47.34437" lon="-1.29177">
        <ele>62</ele>
        <time>2021-08-14T08:55:37.000Z</time>
      </trkpt>
      <trkpt lat="47.34437" lon="-1.29161">
        <ele>63</ele>
        <time>2021-08-14T08:55:39.000Z</time>
      </trkpt>
      <trkpt lat="47.34436" lon="-1.29146">
        <ele>63</ele>
        <time>2021-08-14T08:55:41.000Z</time>
      </trkpt>
      <trkpt lat="47.34436" lon="-1.29132">
        <ele>63</ele>
        <time>2021-08-14T08:55:43.000Z</time>
      </trkpt>
      <trkpt lat="47.34435" lon="-1.29113">
        <ele>63</ele>
        <time>2021-08-14T08:55:46.000Z</time>
      </trkpt>
      <trkpt lat="47.34434" lon="-1.29097">
        <ele>63</ele>
        <time>2021-08-14T08:55:48.000Z</time>
      </trkpt>
      <trkpt lat="47.34435" lon="-1.2908">
        <ele>62</ele>
        <time>2021-08-14T08:55:50.000Z</time>
      </trkpt>
      <trkpt lat="47.34437" lon="-1.29062">
        <ele>62</ele>
        <time>2021-08-14T08:55:52.000Z</time>
      </trkpt>
      <trkpt lat="47.34438" lon="-1.29047">
        <ele>62</ele>
        <time>2021-08-14T08:55:54.000Z</time>
      </trkpt>
      <trkpt lat="47.34441" lon="-1.29033">
        <ele>62</ele>
        <time>2021-08-14T08:55:56.000Z</time>
      </trkpt>
      <trkpt lat="47.34442" lon="-1.29017">
        <ele>62</ele>
        <time>2021-08-14T08:55:59.000Z</time>
      </trkpt>
      <trkpt lat="47.34441" lon="-1.29">
        <ele>63</ele>
        <time>2021-08-14T08:56:03.000Z</time>
      </trkpt>
      <trkpt lat="47.34443" lon="-1.28985">
        <ele>62</ele>
        <time>2021-08-14T08:56:06.000Z</time>
      </trkpt>
      <trkpt lat="47.34444" lon="-1.28968">
        <ele>61</ele>
        <time>2021-08-14T08:56:10.000Z</time>
      </trkpt>
      <trkpt lat="47.34447" lon="-1.2895">
        <ele>62</ele>
        <time>2021-08-14T08:56:13.000Z</time>
      </trkpt>
      <trkpt lat="47.34453" lon="-1.28936">
        <ele>60</ele>
        <time>2021-08-14T08:56:15.000Z</time>
      </trkpt>
      <trkpt lat="47.34459" lon="-1.28922">
        <ele>60</ele>
        <time>2021-08-14T08:56:17.000Z</time>
      </trkpt>
      <trkpt lat="47.34464" lon="-1.28906">
        <ele>59</ele>
        <time>2021-08-14T08:56:19.000Z</time>
      </trkpt>
      <trkpt lat="47.3447" lon="-1.28891">
        <ele>58</ele>
        <time>2021-08-14T08:56:21.000Z</time>
      </trkpt>
      <trkpt lat="47.34475" lon="-1.28876">
        <ele>59</ele>
        <time>2021-08-14T08:56:23.000Z</time>
      </trkpt>
      <trkpt lat="47.34481" lon="-1.28862">
        <ele>59</ele>
        <time>2021-08-14T08:56:25.000Z</time>
      </trkpt>
      <trkpt lat="47.34487" lon="-1.28849">
        <ele>59</ele>
        <time>2021-08-14T08:56:27.000Z</time>
      </trkpt>
      <trkpt lat="47.34491" lon="-1.28835">
        <ele>60</ele>
        <time>2021-08-14T08:56:36.000Z</time>
      </trkpt>
      <trkpt lat="47.34492" lon="-1.2882">
        <ele>61</ele>
        <time>2021-08-14T08:56:40.000Z</time>
      </trkpt>
      <trkpt lat="47.34491" lon="-1.28806">
        <ele>62</ele>
        <time>2021-08-14T08:56:45.000Z</time>
      </trkpt>
      <trkpt lat="47.3448" lon="-1.28798">
        <ele>60</ele>
        <time>2021-08-14T08:56:52.000Z</time>
      </trkpt>
      <trkpt lat="47.34469" lon="-1.28795">
        <ele>60</ele>
        <time>2021-08-14T08:56:54.000Z</time>
      </trkpt>
      <trkpt lat="47.34458" lon="-1.28792">
        <ele>59</ele>
        <time>2021-08-14T08:56:56.000Z</time>
      </trkpt>
      <trkpt lat="47.34446" lon="-1.28789">
        <ele>59</ele>
        <time>2021-08-14T08:56:58.000Z</time>
      </trkpt>
      <trkpt lat="47.34434" lon="-1.28786">
        <ele>59</ele>
        <time>2021-08-14T08:57:00.000Z</time>
      </trkpt>
      <trkpt lat="47.34422" lon="-1.28783">
        <ele>58</ele>
        <time>2021-08-14T08:57:02.000Z</time>
      </trkpt>
      <trkpt lat="47.3441" lon="-1.2878">
        <ele>58</ele>
        <time>2021-08-14T08:57:04.000Z</time>
      </trkpt>
      <trkpt lat="47.34398" lon="-1.28775">
        <ele>58</ele>
        <time>2021-08-14T08:57:06.000Z</time>
      </trkpt>
      <trkpt lat="47.3439" lon="-1.28769">
        <ele>59</ele>
        <time>2021-08-14T08:57:08.000Z</time>
      </trkpt>
      <trkpt lat="47.34397" lon="-1.2876">
        <ele>60</ele>
        <time>2021-08-14T08:57:13.000Z</time>
      </trkpt>
      <trkpt lat="47.34407" lon="-1.28764">
        <ele>60</ele>
        <time>2021-08-14T08:57:15.000Z</time>
      </trkpt>
      <trkpt lat="47.34418" lon="-1.28766">
        <ele>59</ele>
        <time>2021-08-14T08:57:17.000Z</time>
      </trkpt>
      <trkpt lat="47.34429" lon="-1.28768">
        <ele>58</ele>
        <time>2021-08-14T08:57:19.000Z</time>
      </trkpt>
      <trkpt lat="47.34439" lon="-1.28771">
        <ele>59</ele>
        <time>2021-08-14T08:57:21.000Z</time>
      </trkpt>
      <trkpt lat="47.34449" lon="-1.28773">
        <ele>59</ele>
        <time>2021-08-14T08:57:23.000Z</time>
      </trkpt>
      <trkpt lat="47.34457" lon="-1.28767">
        <ele>58</ele>
        <time>2021-08-14T08:57:25.000Z</time>
      </trkpt>
      <trkpt lat="47.34463" lon="-1.28747">
        <ele>56</ele>
        <time>2021-08-14T08:57:27.000Z</time>
      </trkpt>
      <trkpt lat="47.34467" lon="-1.28725">
        <ele>56</ele>
        <time>2021-08-14T08:57:29.000Z</time>
      </trkpt>
      <trkpt lat="47.3447" lon="-1.28705">
        <ele>56</ele>
        <time>2021-08-14T08:57:31.000Z</time>
      </trkpt>
      <trkpt lat="47.34473" lon="-1.28687">
        <ele>56</ele>
        <time>2021-08-14T08:57:33.000Z</time>
      </trkpt>
      <trkpt lat="47.34479" lon="-1.2867">
        <ele>56</ele>
        <time>2021-08-14T08:57:35.000Z</time>
      </trkpt>
      <trkpt lat="47.34485" lon="-1.28653">
        <ele>56</ele>
        <time>2021-08-14T08:57:37.000Z</time>
      </trkpt>
      <trkpt lat="47.34491" lon="-1.28637">
        <ele>57</ele>
        <time>2021-08-14T08:57:39.000Z</time>
      </trkpt>
      <trkpt lat="47.345" lon="-1.28626">
        <ele>57</ele>
        <time>2021-08-14T08:57:41.000Z</time>
      </trkpt>
      <trkpt lat="47.34509" lon="-1.28615">
        <ele>57</ele>
        <time>2021-08-14T08:57:43.000Z</time>
      </trkpt>
      <trkpt lat="47.34516" lon="-1.286">
        <ele>58</ele>
        <time>2021-08-14T08:57:45.000Z</time>
      </trkpt>
      <trkpt lat="47.34524" lon="-1.28586">
        <ele>58</ele>
        <time>2021-08-14T08:57:47.000Z</time>
      </trkpt>
      <trkpt lat="47.34533" lon="-1.28579">
        <ele>58</ele>
        <time>2021-08-14T08:57:49.000Z</time>
      </trkpt>
      <trkpt lat="47.34545" lon="-1.28575">
        <ele>59</ele>
        <time>2021-08-14T08:57:52.000Z</time>
      </trkpt>
      <trkpt lat="47.34548" lon="-1.28562">
        <ele>59</ele>
        <time>2021-08-14T08:57:54.000Z</time>
      </trkpt>
      <trkpt lat="47.3455" lon="-1.28548">
        <ele>60</ele>
        <time>2021-08-14T08:57:56.000Z</time>
      </trkpt>
      <trkpt lat="47.34556" lon="-1.28533">
        <ele>60</ele>
        <time>2021-08-14T08:57:59.000Z</time>
      </trkpt>
      <trkpt lat="47.34566" lon="-1.28532">
        <ele>60</ele>
        <time>2021-08-14T08:58:02.000Z</time>
      </trkpt>
      <trkpt lat="47.34574" lon="-1.28536">
        <ele>61</ele>
        <time>2021-08-14T08:58:05.000Z</time>
      </trkpt>
      <trkpt lat="47.34565" lon="-1.28522">
        <ele>63</ele>
        <time>2021-08-14T08:58:14.000Z</time>
      </trkpt>
      <trkpt lat="47.34557" lon="-1.28511">
        <ele>63</ele>
        <time>2021-08-14T08:58:16.000Z</time>
      </trkpt>
      <trkpt lat="47.34548" lon="-1.28498">
        <ele>63</ele>
        <time>2021-08-14T08:58:18.000Z</time>
      </trkpt>
      <trkpt lat="47.3454" lon="-1.28486">
        <ele>63</ele>
        <time>2021-08-14T08:58:20.000Z</time>
      </trkpt>
      <trkpt lat="47.34532" lon="-1.28471">
        <ele>64</ele>
        <time>2021-08-14T08:58:22.000Z</time>
      </trkpt>
      <trkpt lat="47.34524" lon="-1.28455">
        <ele>64</ele>
        <time>2021-08-14T08:58:24.000Z</time>
      </trkpt>
      <trkpt lat="47.34517" lon="-1.28438">
        <ele>64</ele>
        <time>2021-08-14T08:58:26.000Z</time>
      </trkpt>
      <trkpt lat="47.34512" lon="-1.28418">
        <ele>65</ele>
        <time>2021-08-14T08:58:28.000Z</time>
      </trkpt>
      <trkpt lat="47.34509" lon="-1.28397">
        <ele>65</ele>
        <time>2021-08-14T08:58:30.000Z</time>
      </trkpt>
      <trkpt lat="47.34506" lon="-1.28378">
        <ele>65</ele>
        <time>2021-08-14T08:58:32.000Z</time>
      </trkpt>
      <trkpt lat="47.34505" lon="-1.28358">
        <ele>65</ele>
        <time>2021-08-14T08:58:34.000Z</time>
      </trkpt>
      <trkpt lat="47.34504" lon="-1.28339">
        <ele>64</ele>
        <time>2021-08-14T08:58:36.000Z</time>
      </trkpt>
      <trkpt lat="47.34504" lon="-1.2832">
        <ele>64</ele>
        <time>2021-08-14T08:58:38.000Z</time>
      </trkpt>
      <trkpt lat="47.34506" lon="-1.283">
        <ele>65</ele>
        <time>2021-08-14T08:58:40.000Z</time>
      </trkpt>
      <trkpt lat="47.34507" lon="-1.28281">
        <ele>65</ele>
        <time>2021-08-14T08:58:42.000Z</time>
      </trkpt>
      <trkpt lat="47.3451" lon="-1.28262">
        <ele>65</ele>
        <time>2021-08-14T08:58:44.000Z</time>
      </trkpt>
      <trkpt lat="47.34512" lon="-1.28243">
        <ele>66</ele>
        <time>2021-08-14T08:58:46.000Z</time>
      </trkpt>
      <trkpt lat="47.34515" lon="-1.28224">
        <ele>67</ele>
        <time>2021-08-14T08:58:48.000Z</time>
      </trkpt>
      <trkpt lat="47.34518" lon="-1.28204">
        <ele>67</ele>
        <time>2021-08-14T08:58:50.000Z</time>
      </trkpt>
      <trkpt lat="47.34519" lon="-1.28183">
        <ele>66</ele>
        <time>2021-08-14T08:58:52.000Z</time>
      </trkpt>
      <trkpt lat="47.3452" lon="-1.28163">
        <ele>66</ele>
        <time>2021-08-14T08:58:54.000Z</time>
      </trkpt>
      <trkpt lat="47.34519" lon="-1.28145">
        <ele>65</ele>
        <time>2021-08-14T08:58:56.000Z</time>
      </trkpt>
      <trkpt lat="47.34517" lon="-1.28128">
        <ele>66</ele>
        <time>2021-08-14T08:58:58.000Z</time>
      </trkpt>
      <trkpt lat="47.34515" lon="-1.2811">
        <ele>65</ele>
        <time>2021-08-14T08:59:00.000Z</time>
      </trkpt>
      <trkpt lat="47.34511" lon="-1.28093">
        <ele>65</ele>
        <time>2021-08-14T08:59:02.000Z</time>
      </trkpt>
      <trkpt lat="47.34506" lon="-1.28077">
        <ele>66</ele>
        <time>2021-08-14T08:59:04.000Z</time>
      </trkpt>
      <trkpt lat="47.34501" lon="-1.28062">
        <ele>66</ele>
        <time>2021-08-14T08:59:06.000Z</time>
      </trkpt>
      <trkpt lat="47.34496" lon="-1.28047">
        <ele>66</ele>
        <time>2021-08-14T08:59:08.000Z</time>
      </trkpt>
      <trkpt lat="47.34489" lon="-1.28033">
        <ele>66</ele>
        <time>2021-08-14T08:59:10.000Z</time>
      </trkpt>
      <trkpt lat="47.34482" lon="-1.28019">
        <ele>66</ele>
        <time>2021-08-14T08:59:12.000Z</time>
      </trkpt>
      <trkpt lat="47.34474" lon="-1.28007">
        <ele>67</ele>
        <time>2021-08-14T08:59:14.000Z</time>
      </trkpt>
      <trkpt lat="47.34466" lon="-1.27995">
        <ele>67</ele>
        <time>2021-08-14T08:59:16.000Z</time>
      </trkpt>
      <trkpt lat="47.34457" lon="-1.27985">
        <ele>67</ele>
        <time>2021-08-14T08:59:18.000Z</time>
      </trkpt>
      <trkpt lat="47.34449" lon="-1.27976">
        <ele>66</ele>
        <time>2021-08-14T08:59:20.000Z</time>
      </trkpt>
      <trkpt lat="47.34439" lon="-1.27969">
        <ele>66</ele>
        <time>2021-08-14T08:59:22.000Z</time>
      </trkpt>
      <trkpt lat="47.34428" lon="-1.27962">
        <ele>66</ele>
        <time>2021-08-14T08:59:24.000Z</time>
      </trkpt>
      <trkpt lat="47.34416" lon="-1.27955">
        <ele>67</ele>
        <time>2021-08-14T08:59:26.000Z</time>
      </trkpt>
      <trkpt lat="47.34404" lon="-1.2795">
        <ele>67</ele>
        <time>2021-08-14T08:59:28.000Z</time>
      </trkpt>
      <trkpt lat="47.34391" lon="-1.27944">
        <ele>67</ele>
        <time>2021-08-14T08:59:30.000Z</time>
      </trkpt>
      <trkpt lat="47.34379" lon="-1.27939">
        <ele>67</ele>
        <time>2021-08-14T08:59:32.000Z</time>
      </trkpt>
      <trkpt lat="47.34366" lon="-1.27935">
        <ele>67</ele>
        <time>2021-08-14T08:59:34.000Z</time>
      </trkpt>
      <trkpt lat="47.34354" lon="-1.27932">
        <ele>67</ele>
        <time>2021-08-14T08:59:36.000Z</time>
      </trkpt>
      <trkpt lat="47.34341" lon="-1.27927">
        <ele>67</ele>
        <time>2021-08-14T08:59:38.000Z</time>
      </trkpt>
      <trkpt lat="47.34329" lon="-1.27923">
        <ele>66</ele>
        <time>2021-08-14T08:59:40.000Z</time>
      </trkpt>
      <trkpt lat="47.34316" lon="-1.27919">
        <ele>66</ele>
        <time>2021-08-14T08:59:42.000Z</time>
      </trkpt>
      <trkpt lat="47.34304" lon="-1.27915">
        <ele>65</ele>
        <time>2021-08-14T08:59:44.000Z</time>
      </trkpt>
      <trkpt lat="47.34291" lon="-1.27911">
        <ele>65</ele>
        <time>2021-08-14T08:59:46.000Z</time>
      </trkpt>
      <trkpt lat="47.34278" lon="-1.27907">
        <ele>65</ele>
        <time>2021-08-14T08:59:48.000Z</time>
      </trkpt>
      <trkpt lat="47.34266" lon="-1.27903">
        <ele>65</ele>
        <time>2021-08-14T08:59:50.000Z</time>
      </trkpt>
      <trkpt lat="47.34253" lon="-1.27899">
        <ele>65</ele>
        <time>2021-08-14T08:59:52.000Z</time>
      </trkpt>
      <trkpt lat="47.3424" lon="-1.27895">
        <ele>65</ele>
        <time>2021-08-14T08:59:54.000Z</time>
      </trkpt>
      <trkpt lat="47.34227" lon="-1.27891">
        <ele>65</ele>
        <time>2021-08-14T08:59:56.000Z</time>
      </trkpt>
      <trkpt lat="47.34215" lon="-1.27887">
        <ele>65</ele>
        <time>2021-08-14T08:59:58.000Z</time>
      </trkpt>
      <trkpt lat="47.34202" lon="-1.27882">
        <ele>65</ele>
        <time>2021-08-14T09:00:00.000Z</time>
      </trkpt>
      <trkpt lat="47.3419" lon="-1.27878">
        <ele>65</ele>
        <time>2021-08-14T09:00:02.000Z</time>
      </trkpt>
      <trkpt lat="47.34177" lon="-1.27874">
        <ele>65</ele>
        <time>2021-08-14T09:00:04.000Z</time>
      </trkpt>
      <trkpt lat="47.34164" lon="-1.2787">
        <ele>65</ele>
        <time>2021-08-14T09:00:06.000Z</time>
      </trkpt>
      <trkpt lat="47.34152" lon="-1.27867">
        <ele>65</ele>
        <time>2021-08-14T09:00:08.000Z</time>
      </trkpt>
      <trkpt lat="47.34139" lon="-1.27863">
        <ele>65</ele>
        <time>2021-08-14T09:00:10.000Z</time>
      </trkpt>
      <trkpt lat="47.34126" lon="-1.27859">
        <ele>65</ele>
        <time>2021-08-14T09:00:12.000Z</time>
      </trkpt>
      <trkpt lat="47.34113" lon="-1.27854">
        <ele>65</ele>
        <time>2021-08-14T09:00:14.000Z</time>
      </trkpt>
      <trkpt lat="47.34101" lon="-1.2785">
        <ele>65</ele>
        <time>2021-08-14T09:00:16.000Z</time>
      </trkpt>
      <trkpt lat="47.34088" lon="-1.27846">
        <ele>65</ele>
        <time>2021-08-14T09:00:18.000Z</time>
      </trkpt>
      <trkpt lat="47.34076" lon="-1.27843">
        <ele>64</ele>
        <time>2021-08-14T09:00:20.000Z</time>
      </trkpt>
      <trkpt lat="47.34063" lon="-1.27839">
        <ele>64</ele>
        <time>2021-08-14T09:00:22.000Z</time>
      </trkpt>
      <trkpt lat="47.3405" lon="-1.27835">
        <ele>64</ele>
        <time>2021-08-14T09:00:24.000Z</time>
      </trkpt>
      <trkpt lat="47.34037" lon="-1.2783">
        <ele>64</ele>
        <time>2021-08-14T09:00:26.000Z</time>
      </trkpt>
      <trkpt lat="47.34024" lon="-1.27826">
        <ele>64</ele>
        <time>2021-08-14T09:00:28.000Z</time>
      </trkpt>
      <trkpt lat="47.34011" lon="-1.27822">
        <ele>64</ele>
        <time>2021-08-14T09:00:30.000Z</time>
      </trkpt>
      <trkpt lat="47.33998" lon="-1.27819">
        <ele>64</ele>
        <time>2021-08-14T09:00:32.000Z</time>
      </trkpt>
      <trkpt lat="47.33985" lon="-1.27815">
        <ele>64</ele>
        <time>2021-08-14T09:00:34.000Z</time>
      </trkpt>
      <trkpt lat="47.33972" lon="-1.2781">
        <ele>64</ele>
        <time>2021-08-14T09:00:36.000Z</time>
      </trkpt>
      <trkpt lat="47.3396" lon="-1.27806">
        <ele>64</ele>
        <time>2021-08-14T09:00:38.000Z</time>
      </trkpt>
      <trkpt lat="47.33948" lon="-1.27802">
        <ele>64</ele>
        <time>2021-08-14T09:00:40.000Z</time>
      </trkpt>
      <trkpt lat="47.33935" lon="-1.27798">
        <ele>64</ele>
        <time>2021-08-14T09:00:42.000Z</time>
      </trkpt>
      <trkpt lat="47.33922" lon="-1.27794">
        <ele>63</ele>
        <time>2021-08-14T09:00:44.000Z</time>
      </trkpt>
      <trkpt lat="47.33908" lon="-1.2779">
        <ele>63</ele>
        <time>2021-08-14T09:00:46.000Z</time>
      </trkpt>
      <trkpt lat="47.33895" lon="-1.27786">
        <ele>63</ele>
        <time>2021-08-14T09:00:48.000Z</time>
      </trkpt>
      <trkpt lat="47.33882" lon="-1.27782">
        <ele>63</ele>
        <time>2021-08-14T09:00:50.000Z</time>
      </trkpt>
      <trkpt lat="47.33868" lon="-1.27777">
        <ele>63</ele>
        <time>2021-08-14T09:00:52.000Z</time>
      </trkpt>
      <trkpt lat="47.33855" lon="-1.27773">
        <ele>62</ele>
        <time>2021-08-14T09:00:54.000Z</time>
      </trkpt>
      <trkpt lat="47.33841" lon="-1.27769">
        <ele>62</ele>
        <time>2021-08-14T09:00:56.000Z</time>
      </trkpt>
      <trkpt lat="47.33828" lon="-1.27765">
        <ele>62</ele>
        <time>2021-08-14T09:00:58.000Z</time>
      </trkpt>
      <trkpt lat="47.33814" lon="-1.2776">
        <ele>62</ele>
        <time>2021-08-14T09:01:00.000Z</time>
      </trkpt>
      <trkpt lat="47.338" lon="-1.27756">
        <ele>62</ele>
        <time>2021-08-14T09:01:02.000Z</time>
      </trkpt>
      <trkpt lat="47.33787" lon="-1.27752">
        <ele>62</ele>
        <time>2021-08-14T09:01:04.000Z</time>
      </trkpt>
      <trkpt lat="47.33775" lon="-1.27748">
        <ele>61</ele>
        <time>2021-08-14T09:01:06.000Z</time>
      </trkpt>
      <trkpt lat="47.33763" lon="-1.27742">
        <ele>61</ele>
        <time>2021-08-14T09:01:08.000Z</time>
      </trkpt>
      <trkpt lat="47.33752" lon="-1.27734">
        <ele>61</ele>
        <time>2021-08-14T09:01:10.000Z</time>
      </trkpt>
      <trkpt lat="47.33741" lon="-1.27738">
        <ele>60</ele>
        <time>2021-08-14T09:01:12.000Z</time>
      </trkpt>
      <trkpt lat="47.33744" lon="-1.27756">
        <ele>60</ele>
        <time>2021-08-14T09:01:15.000Z</time>
      </trkpt>
      <trkpt lat="47.33755" lon="-1.27758">
        <ele>59</ele>
        <time>2021-08-14T09:01:17.000Z</time>
      </trkpt>
      <trkpt lat="47.33767" lon="-1.2776">
        <ele>59</ele>
        <time>2021-08-14T09:01:19.000Z</time>
      </trkpt>
      <trkpt lat="47.33781" lon="-1.27765">
        <ele>58</ele>
        <time>2021-08-14T09:01:21.000Z</time>
      </trkpt>
      <trkpt lat="47.33794" lon="-1.27771">
        <ele>58</ele>
        <time>2021-08-14T09:01:23.000Z</time>
      </trkpt>
      <trkpt lat="47.33806" lon="-1.27775">
        <ele>59</ele>
        <time>2021-08-14T09:01:25.000Z</time>
      </trkpt>
      <trkpt lat="47.33818" lon="-1.27779">
        <ele>59</ele>
        <time>2021-08-14T09:01:27.000Z</time>
      </trkpt>
      <trkpt lat="47.3383" lon="-1.27782">
        <ele>59</ele>
        <time>2021-08-14T09:01:29.000Z</time>
      </trkpt>
      <trkpt lat="47.33842" lon="-1.27786">
        <ele>59</ele>
        <time>2021-08-14T09:01:31.000Z</time>
      </trkpt>
      <trkpt lat="47.33852" lon="-1.27789">
        <ele>59</ele>
        <time>2021-08-14T09:01:33.000Z</time>
      </trkpt>
      <trkpt lat="47.33862" lon="-1.27792">
        <ele>59</ele>
        <time>2021-08-14T09:01:35.000Z</time>
      </trkpt>
      <trkpt lat="47.33872" lon="-1.27795">
        <ele>58</ele>
        <time>2021-08-14T09:01:37.000Z</time>
      </trkpt>
      <trkpt lat="47.33882" lon="-1.27799">
        <ele>58</ele>
        <time>2021-08-14T09:01:40.000Z</time>
      </trkpt>
      <trkpt lat="47.33889" lon="-1.27789">
        <ele>57</ele>
        <time>2021-08-14T09:01:45.000Z</time>
      </trkpt>
      <trkpt lat="47.33885" lon="-1.27801">
        <ele>60</ele>
        <time>2021-08-14T09:03:03.000Z</time>
      </trkpt>
      <trkpt lat="47.3388" lon="-1.27815">
        <ele>64</ele>
        <time>2021-08-14T09:03:06.000Z</time>
      </trkpt>
      <trkpt lat="47.33878" lon="-1.2783">
        <ele>64</ele>
        <time>2021-08-14T09:03:08.000Z</time>
      </trkpt>
      <trkpt lat="47.33877" lon="-1.27845">
        <ele>66</ele>
        <time>2021-08-14T09:03:10.000Z</time>
      </trkpt>
      <trkpt lat="47.33875" lon="-1.27864">
        <ele>66</ele>
        <time>2021-08-14T09:03:12.000Z</time>
      </trkpt>
      <trkpt lat="47.33875" lon="-1.27885">
        <ele>65</ele>
        <time>2021-08-14T09:03:14.000Z</time>
      </trkpt>
      <trkpt lat="47.33874" lon="-1.27909">
        <ele>64</ele>
        <time>2021-08-14T09:03:16.000Z</time>
      </trkpt>
      <trkpt lat="47.33873" lon="-1.27935">
        <ele>63</ele>
        <time>2021-08-14T09:03:18.000Z</time>
      </trkpt>
      <trkpt lat="47.33873" lon="-1.2796">
        <ele>62</ele>
        <time>2021-08-14T09:03:20.000Z</time>
      </trkpt>
      <trkpt lat="47.33872" lon="-1.27982">
        <ele>61</ele>
        <time>2021-08-14T09:03:22.000Z</time>
      </trkpt>
      <trkpt lat="47.3387" lon="-1.28004">
        <ele>61</ele>
        <time>2021-08-14T09:03:24.000Z</time>
      </trkpt>
      <trkpt lat="47.33868" lon="-1.28027">
        <ele>61</ele>
        <time>2021-08-14T09:03:26.000Z</time>
      </trkpt>
      <trkpt lat="47.33866" lon="-1.28047">
        <ele>60</ele>
        <time>2021-08-14T09:03:28.000Z</time>
      </trkpt>
      <trkpt lat="47.33864" lon="-1.28065">
        <ele>61</ele>
        <time>2021-08-14T09:03:30.000Z</time>
      </trkpt>
      <trkpt lat="47.33861" lon="-1.28086">
        <ele>60</ele>
        <time>2021-08-14T09:03:32.000Z</time>
      </trkpt>
      <trkpt lat="47.33859" lon="-1.28107">
        <ele>60</ele>
        <time>2021-08-14T09:03:34.000Z</time>
      </trkpt>
      <trkpt lat="47.33856" lon="-1.2813">
        <ele>60</ele>
        <time>2021-08-14T09:03:36.000Z</time>
      </trkpt>
      <trkpt lat="47.33854" lon="-1.28152">
        <ele>60</ele>
        <time>2021-08-14T09:03:38.000Z</time>
      </trkpt>
      <trkpt lat="47.33852" lon="-1.28175">
        <ele>61</ele>
        <time>2021-08-14T09:03:40.000Z</time>
      </trkpt>
      <trkpt lat="47.33849" lon="-1.28201">
        <ele>60</ele>
        <time>2021-08-14T09:03:42.000Z</time>
      </trkpt>
      <trkpt lat="47.33847" lon="-1.28214">
        <ele>60</ele>
        <time>2021-08-14T09:03:43.000Z</time>
      </trkpt>
      <trkpt lat="47.33843" lon="-1.28237">
        <ele>60</ele>
        <time>2021-08-14T09:03:45.000Z</time>
      </trkpt>
      <trkpt lat="47.33839" lon="-1.28259">
        <ele>59</ele>
        <time>2021-08-14T09:03:47.000Z</time>
      </trkpt>
      <trkpt lat="47.33836" lon="-1.28279">
        <ele>59</ele>
        <time>2021-08-14T09:03:49.000Z</time>
      </trkpt>
      <trkpt lat="47.33833" lon="-1.283">
        <ele>58</ele>
        <time>2021-08-14T09:03:51.000Z</time>
      </trkpt>
      <trkpt lat="47.33829" lon="-1.28322">
        <ele>58</ele>
        <time>2021-08-14T09:03:53.000Z</time>
      </trkpt>
      <trkpt lat="47.33826" lon="-1.28343">
        <ele>58</ele>
        <time>2021-08-14T09:03:55.000Z</time>
      </trkpt>
      <trkpt lat="47.33823" lon="-1.28365">
        <ele>58</ele>
        <time>2021-08-14T09:03:57.000Z</time>
      </trkpt>
      <trkpt lat="47.33819" lon="-1.28385">
        <ele>58</ele>
        <time>2021-08-14T09:03:59.000Z</time>
      </trkpt>
      <trkpt lat="47.33816" lon="-1.28405">
        <ele>58</ele>
        <time>2021-08-14T09:04:01.000Z</time>
      </trkpt>
      <trkpt lat="47.33813" lon="-1.28428">
        <ele>58</ele>
        <time>2021-08-14T09:04:03.000Z</time>
      </trkpt>
      <trkpt lat="47.33811" lon="-1.2845">
        <ele>58</ele>
        <time>2021-08-14T09:04:05.000Z</time>
      </trkpt>
      <trkpt lat="47.33809" lon="-1.28472">
        <ele>57</ele>
        <time>2021-08-14T09:04:07.000Z</time>
      </trkpt>
      <trkpt lat="47.33807" lon="-1.28492">
        <ele>57</ele>
        <time>2021-08-14T09:04:09.000Z</time>
      </trkpt>
      <trkpt lat="47.33805" lon="-1.28512">
        <ele>57</ele>
        <time>2021-08-14T09:04:11.000Z</time>
      </trkpt>
      <trkpt lat="47.33802" lon="-1.28531">
        <ele>58</ele>
        <time>2021-08-14T09:04:13.000Z</time>
      </trkpt>
      <trkpt lat="47.33804" lon="-1.28548">
        <ele>58</ele>
        <time>2021-08-14T09:04:15.000Z</time>
      </trkpt>
      <trkpt lat="47.33813" lon="-1.28564">
        <ele>58</ele>
        <time>2021-08-14T09:04:17.000Z</time>
      </trkpt>
      <trkpt lat="47.33817" lon="-1.28576">
        <ele>59</ele>
        <time>2021-08-14T09:04:19.000Z</time>
      </trkpt>
      <trkpt lat="47.33813" lon="-1.28588">
        <ele>60</ele>
        <time>2021-08-14T09:04:22.000Z</time>
      </trkpt>
      <trkpt lat="47.33805" lon="-1.28605">
        <ele>61</ele>
        <time>2021-08-14T09:04:25.000Z</time>
      </trkpt>
      <trkpt lat="47.33801" lon="-1.28621">
        <ele>62</ele>
        <time>2021-08-14T09:04:27.000Z</time>
      </trkpt>
      <trkpt lat="47.33798" lon="-1.2864">
        <ele>63</ele>
        <time>2021-08-14T09:04:29.000Z</time>
      </trkpt>
      <trkpt lat="47.33797" lon="-1.2866">
        <ele>64</ele>
        <time>2021-08-14T09:04:31.000Z</time>
      </trkpt>
      <trkpt lat="47.33792" lon="-1.28681">
        <ele>65</ele>
        <time>2021-08-14T09:04:33.000Z</time>
      </trkpt>
      <trkpt lat="47.33786" lon="-1.28701">
        <ele>64</ele>
        <time>2021-08-14T09:04:35.000Z</time>
      </trkpt>
      <trkpt lat="47.33782" lon="-1.28722">
        <ele>63</ele>
        <time>2021-08-14T09:04:37.000Z</time>
      </trkpt>
      <trkpt lat="47.3378" lon="-1.28745">
        <ele>63</ele>
        <time>2021-08-14T09:04:39.000Z</time>
      </trkpt>
      <trkpt lat="47.33779" lon="-1.28766">
        <ele>63</ele>
        <time>2021-08-14T09:04:41.000Z</time>
      </trkpt>
      <trkpt lat="47.33776" lon="-1.28785">
        <ele>63</ele>
        <time>2021-08-14T09:04:43.000Z</time>
      </trkpt>
      <trkpt lat="47.33773" lon="-1.28807">
        <ele>63</ele>
        <time>2021-08-14T09:04:45.000Z</time>
      </trkpt>
      <trkpt lat="47.33773" lon="-1.28826">
        <ele>64</ele>
        <time>2021-08-14T09:04:47.000Z</time>
      </trkpt>
      <trkpt lat="47.33773" lon="-1.28846">
        <ele>64</ele>
        <time>2021-08-14T09:04:49.000Z</time>
      </trkpt>
      <trkpt lat="47.33774" lon="-1.28865">
        <ele>65</ele>
        <time>2021-08-14T09:04:51.000Z</time>
      </trkpt>
      <trkpt lat="47.33775" lon="-1.28884">
        <ele>65</ele>
        <time>2021-08-14T09:04:53.000Z</time>
      </trkpt>
      <trkpt lat="47.33771" lon="-1.289">
        <ele>65</ele>
        <time>2021-08-14T09:04:55.000Z</time>
      </trkpt>
      <trkpt lat="47.33766" lon="-1.28917">
        <ele>65</ele>
        <time>2021-08-14T09:04:57.000Z</time>
      </trkpt>
      <trkpt lat="47.33763" lon="-1.28936">
        <ele>65</ele>
        <time>2021-08-14T09:04:59.000Z</time>
      </trkpt>
      <trkpt lat="47.33761" lon="-1.28957">
        <ele>65</ele>
        <time>2021-08-14T09:05:01.000Z</time>
      </trkpt>
      <trkpt lat="47.33759" lon="-1.2898">
        <ele>65</ele>
        <time>2021-08-14T09:05:03.000Z</time>
      </trkpt>
      <trkpt lat="47.33757" lon="-1.29001">
        <ele>64</ele>
        <time>2021-08-14T09:05:05.000Z</time>
      </trkpt>
      <trkpt lat="47.33758" lon="-1.29022">
        <ele>63</ele>
        <time>2021-08-14T09:05:07.000Z</time>
      </trkpt>
      <trkpt lat="47.33756" lon="-1.29045">
        <ele>63</ele>
        <time>2021-08-14T09:05:09.000Z</time>
      </trkpt>
      <trkpt lat="47.33754" lon="-1.29068">
        <ele>64</ele>
        <time>2021-08-14T09:05:11.000Z</time>
      </trkpt>
      <trkpt lat="47.33754" lon="-1.29089">
        <ele>64</ele>
        <time>2021-08-14T09:05:13.000Z</time>
      </trkpt>
      <trkpt lat="47.33754" lon="-1.29111">
        <ele>64</ele>
        <time>2021-08-14T09:05:15.000Z</time>
      </trkpt>
      <trkpt lat="47.33754" lon="-1.29133">
        <ele>64</ele>
        <time>2021-08-14T09:05:17.000Z</time>
      </trkpt>
      <trkpt lat="47.33754" lon="-1.29152">
        <ele>64</ele>
        <time>2021-08-14T09:05:19.000Z</time>
      </trkpt>
      <trkpt lat="47.33753" lon="-1.29169">
        <ele>64</ele>
        <time>2021-08-14T09:05:21.000Z</time>
      </trkpt>
      <trkpt lat="47.33749" lon="-1.29188">
        <ele>64</ele>
        <time>2021-08-14T09:05:23.000Z</time>
      </trkpt>
      <trkpt lat="47.33743" lon="-1.29209">
        <ele>64</ele>
        <time>2021-08-14T09:05:25.000Z</time>
      </trkpt>
      <trkpt lat="47.33738" lon="-1.29228">
        <ele>64</ele>
        <time>2021-08-14T09:05:27.000Z</time>
      </trkpt>
      <trkpt lat="47.33735" lon="-1.2925">
        <ele>64</ele>
        <time>2021-08-14T09:05:29.000Z</time>
      </trkpt>
      <trkpt lat="47.33728" lon="-1.2927">
        <ele>62</ele>
        <time>2021-08-14T09:05:31.000Z</time>
      </trkpt>
      <trkpt lat="47.33722" lon="-1.2929">
        <ele>61</ele>
        <time>2021-08-14T09:05:33.000Z</time>
      </trkpt>
      <trkpt lat="47.33716" lon="-1.29308">
        <ele>61</ele>
        <time>2021-08-14T09:05:35.000Z</time>
      </trkpt>
      <trkpt lat="47.33711" lon="-1.29328">
        <ele>60</ele>
        <time>2021-08-14T09:05:37.000Z</time>
      </trkpt>
      <trkpt lat="47.33705" lon="-1.29347">
        <ele>60</ele>
        <time>2021-08-14T09:05:39.000Z</time>
      </trkpt>
      <trkpt lat="47.33699" lon="-1.29365">
        <ele>59</ele>
        <time>2021-08-14T09:05:41.000Z</time>
      </trkpt>
      <trkpt lat="47.33693" lon="-1.29385">
        <ele>59</ele>
        <time>2021-08-14T09:05:43.000Z</time>
      </trkpt>
      <trkpt lat="47.33687" lon="-1.29403">
        <ele>59</ele>
        <time>2021-08-14T09:05:45.000Z</time>
      </trkpt>
      <trkpt lat="47.3368" lon="-1.29421">
        <ele>59</ele>
        <time>2021-08-14T09:05:47.000Z</time>
      </trkpt>
      <trkpt lat="47.33673" lon="-1.29437">
        <ele>59</ele>
        <time>2021-08-14T09:05:49.000Z</time>
      </trkpt>
      <trkpt lat="47.33666" lon="-1.29453">
        <ele>60</ele>
        <time>2021-08-14T09:05:51.000Z</time>
      </trkpt>
      <trkpt lat="47.33661" lon="-1.29469">
        <ele>61</ele>
        <time>2021-08-14T09:05:53.000Z</time>
      </trkpt>
      <trkpt lat="47.33659" lon="-1.29488">
        <ele>62</ele>
        <time>2021-08-14T09:05:55.000Z</time>
      </trkpt>
      <trkpt lat="47.33655" lon="-1.29509">
        <ele>62</ele>
        <time>2021-08-14T09:05:57.000Z</time>
      </trkpt>
      <trkpt lat="47.33652" lon="-1.29528">
        <ele>62</ele>
        <time>2021-08-14T09:05:59.000Z</time>
      </trkpt>
      <trkpt lat="47.33647" lon="-1.29544">
        <ele>63</ele>
        <time>2021-08-14T09:06:01.000Z</time>
      </trkpt>
      <trkpt lat="47.33634" lon="-1.2955">
        <ele>62</ele>
        <time>2021-08-14T09:06:03.000Z</time>
      </trkpt>
      <trkpt lat="47.33621" lon="-1.29546">
        <ele>62</ele>
        <time>2021-08-14T09:06:05.000Z</time>
      </trkpt>
      <trkpt lat="47.33601" lon="-1.29532">
        <ele>61</ele>
        <time>2021-08-14T09:06:08.000Z</time>
      </trkpt>
      <trkpt lat="47.33588" lon="-1.2952">
        <ele>60</ele>
        <time>2021-08-14T09:06:10.000Z</time>
      </trkpt>
      <trkpt lat="47.33576" lon="-1.2951">
        <ele>59</ele>
        <time>2021-08-14T09:06:12.000Z</time>
      </trkpt>
      <trkpt lat="47.33563" lon="-1.29499">
        <ele>58</ele>
        <time>2021-08-14T09:06:14.000Z</time>
      </trkpt>
      <trkpt lat="47.33551" lon="-1.29489">
        <ele>58</ele>
        <time>2021-08-14T09:06:16.000Z</time>
      </trkpt>
      <trkpt lat="47.33538" lon="-1.29479">
        <ele>58</ele>
        <time>2021-08-14T09:06:18.000Z</time>
      </trkpt>
      <trkpt lat="47.33525" lon="-1.29469">
        <ele>57</ele>
        <time>2021-08-14T09:06:20.000Z</time>
      </trkpt>
      <trkpt lat="47.33512" lon="-1.29459">
        <ele>57</ele>
        <time>2021-08-14T09:06:22.000Z</time>
      </trkpt>
      <trkpt lat="47.335" lon="-1.29449">
        <ele>57</ele>
        <time>2021-08-14T09:06:24.000Z</time>
      </trkpt>
      <trkpt lat="47.33488" lon="-1.2944">
        <ele>57</ele>
        <time>2021-08-14T09:06:26.000Z</time>
      </trkpt>
      <trkpt lat="47.33477" lon="-1.29431">
        <ele>57</ele>
        <time>2021-08-14T09:06:28.000Z</time>
      </trkpt>
      <trkpt lat="47.33466" lon="-1.29421">
        <ele>57</ele>
        <time>2021-08-14T09:06:30.000Z</time>
      </trkpt>
      <trkpt lat="47.33448" lon="-1.29406">
        <ele>57</ele>
        <time>2021-08-14T09:06:33.000Z</time>
      </trkpt>
      <trkpt lat="47.33437" lon="-1.29398">
        <ele>56</ele>
        <time>2021-08-14T09:06:35.000Z</time>
      </trkpt>
      <trkpt lat="47.33421" lon="-1.29385">
        <ele>56</ele>
        <time>2021-08-14T09:06:38.000Z</time>
      </trkpt>
      <trkpt lat="47.33409" lon="-1.29369">
        <ele>56</ele>
        <time>2021-08-14T09:06:42.000Z</time>
      </trkpt>
      <trkpt lat="47.33406" lon="-1.29346">
        <ele>58</ele>
        <time>2021-08-14T09:06:45.000Z</time>
      </trkpt>
      <trkpt lat="47.33395" lon="-1.29325">
        <ele>60</ele>
        <time>2021-08-14T09:06:48.000Z</time>
      </trkpt>
      <trkpt lat="47.33382" lon="-1.29302">
        <ele>60</ele>
        <time>2021-08-14T09:06:51.000Z</time>
      </trkpt>
      <trkpt lat="47.33373" lon="-1.29286">
        <ele>59</ele>
        <time>2021-08-14T09:06:53.000Z</time>
      </trkpt>
      <trkpt lat="47.33364" lon="-1.2927">
        <ele>58</ele>
        <time>2021-08-14T09:06:55.000Z</time>
      </trkpt>
      <trkpt lat="47.33356" lon="-1.29255">
        <ele>57</ele>
        <time>2021-08-14T09:06:57.000Z</time>
      </trkpt>
      <trkpt lat="47.33345" lon="-1.29243">
        <ele>57</ele>
        <time>2021-08-14T09:06:59.000Z</time>
      </trkpt>
      <trkpt lat="47.33334" lon="-1.29233">
        <ele>57</ele>
        <time>2021-08-14T09:07:01.000Z</time>
      </trkpt>
      <trkpt lat="47.33322" lon="-1.29223">
        <ele>57</ele>
        <time>2021-08-14T09:07:03.000Z</time>
      </trkpt>
      <trkpt lat="47.33309" lon="-1.29214">
        <ele>56</ele>
        <time>2021-08-14T09:07:05.000Z</time>
      </trkpt>
      <trkpt lat="47.33297" lon="-1.29205">
        <ele>57</ele>
        <time>2021-08-14T09:07:07.000Z</time>
      </trkpt>
      <trkpt lat="47.33284" lon="-1.29196">
        <ele>57</ele>
        <time>2021-08-14T09:07:09.000Z</time>
      </trkpt>
      <trkpt lat="47.33272" lon="-1.29188">
        <ele>57</ele>
        <time>2021-08-14T09:07:11.000Z</time>
      </trkpt>
      <trkpt lat="47.33261" lon="-1.2918">
        <ele>58</ele>
        <time>2021-08-14T09:07:13.000Z</time>
      </trkpt>
      <trkpt lat="47.3325" lon="-1.29173">
        <ele>60</ele>
        <time>2021-08-14T09:07:15.000Z</time>
      </trkpt>
      <trkpt lat="47.3324" lon="-1.29169">
        <ele>61</ele>
        <time>2021-08-14T09:07:17.000Z</time>
      </trkpt>
      <trkpt lat="47.33229" lon="-1.29163">
        <ele>62</ele>
        <time>2021-08-14T09:07:19.000Z</time>
      </trkpt>
      <trkpt lat="47.33216" lon="-1.29155">
        <ele>61</ele>
        <time>2021-08-14T09:07:21.000Z</time>
      </trkpt>
      <trkpt lat="47.33204" lon="-1.29151">
        <ele>61</ele>
        <time>2021-08-14T09:07:23.000Z</time>
      </trkpt>
      <trkpt lat="47.33194" lon="-1.29153">
        <ele>63</ele>
        <time>2021-08-14T09:07:25.000Z</time>
      </trkpt>
      <trkpt lat="47.33184" lon="-1.29164">
        <ele>64</ele>
        <time>2021-08-14T09:07:27.000Z</time>
      </trkpt>
      <trkpt lat="47.33174" lon="-1.29176">
        <ele>64</ele>
        <time>2021-08-14T09:07:29.000Z</time>
      </trkpt>
      <trkpt lat="47.3317" lon="-1.29191">
        <ele>65</ele>
        <time>2021-08-14T09:07:31.000Z</time>
      </trkpt>
      <trkpt lat="47.3317" lon="-1.29207">
        <ele>65</ele>
        <time>2021-08-14T09:07:33.000Z</time>
      </trkpt>
      <trkpt lat="47.33168" lon="-1.29223">
        <ele>65</ele>
        <time>2021-08-14T09:07:35.000Z</time>
      </trkpt>
      <trkpt lat="47.3316" lon="-1.29232">
        <ele>65</ele>
        <time>2021-08-14T09:07:37.000Z</time>
      </trkpt>
      <trkpt lat="47.3315" lon="-1.29244">
        <ele>64</ele>
        <time>2021-08-14T09:07:39.000Z</time>
      </trkpt>
      <trkpt lat="47.33142" lon="-1.29259">
        <ele>65</ele>
        <time>2021-08-14T09:07:41.000Z</time>
      </trkpt>
      <trkpt lat="47.33135" lon="-1.29271">
        <ele>65</ele>
        <time>2021-08-14T09:07:43.000Z</time>
      </trkpt>
      <trkpt lat="47.3313" lon="-1.29285">
        <ele>65</ele>
        <time>2021-08-14T09:07:45.000Z</time>
      </trkpt>
      <trkpt lat="47.33126" lon="-1.293">
        <ele>65</ele>
        <time>2021-08-14T09:07:47.000Z</time>
      </trkpt>
      <trkpt lat="47.33127" lon="-1.2932">
        <ele>64</ele>
        <time>2021-08-14T09:07:49.000Z</time>
      </trkpt>
      <trkpt lat="47.33133" lon="-1.29337">
        <ele>64</ele>
        <time>2021-08-14T09:07:51.000Z</time>
      </trkpt>
      <trkpt lat="47.33146" lon="-1.29351">
        <ele>65</ele>
        <time>2021-08-14T09:07:53.000Z</time>
      </trkpt>
      <trkpt lat="47.3315" lon="-1.29363">
        <ele>64</ele>
        <time>2021-08-14T09:07:55.000Z</time>
      </trkpt>
      <trkpt lat="47.33146" lon="-1.29379">
        <ele>64</ele>
        <time>2021-08-14T09:07:57.000Z</time>
      </trkpt>
      <trkpt lat="47.33138" lon="-1.29392">
        <ele>65</ele>
        <time>2021-08-14T09:07:59.000Z</time>
      </trkpt>
      <trkpt lat="47.33129" lon="-1.29406">
        <ele>65</ele>
        <time>2021-08-14T09:08:01.000Z</time>
      </trkpt>
      <trkpt lat="47.33119" lon="-1.29421">
        <ele>65</ele>
        <time>2021-08-14T09:08:03.000Z</time>
      </trkpt>
      <trkpt lat="47.3311" lon="-1.29436">
        <ele>66</ele>
        <time>2021-08-14T09:08:05.000Z</time>
      </trkpt>
      <trkpt lat="47.331" lon="-1.2945">
        <ele>66</ele>
        <time>2021-08-14T09:08:07.000Z</time>
      </trkpt>
      <trkpt lat="47.3309" lon="-1.29464">
        <ele>66</ele>
        <time>2021-08-14T09:08:09.000Z</time>
      </trkpt>
      <trkpt lat="47.3308" lon="-1.29479">
        <ele>67</ele>
        <time>2021-08-14T09:08:11.000Z</time>
      </trkpt>
      <trkpt lat="47.3307" lon="-1.29495">
        <ele>67</ele>
        <time>2021-08-14T09:08:13.000Z</time>
      </trkpt>
      <trkpt lat="47.3306" lon="-1.29511">
        <ele>67</ele>
        <time>2021-08-14T09:08:15.000Z</time>
      </trkpt>
      <trkpt lat="47.3305" lon="-1.29526">
        <ele>67</ele>
        <time>2021-08-14T09:08:17.000Z</time>
      </trkpt>
      <trkpt lat="47.33041" lon="-1.29542">
        <ele>67</ele>
        <time>2021-08-14T09:08:19.000Z</time>
      </trkpt>
      <trkpt lat="47.33032" lon="-1.29556">
        <ele>66</ele>
        <time>2021-08-14T09:08:21.000Z</time>
      </trkpt>
      <trkpt lat="47.33023" lon="-1.29571">
        <ele>66</ele>
        <time>2021-08-14T09:08:23.000Z</time>
      </trkpt>
      <trkpt lat="47.33015" lon="-1.29587">
        <ele>65</ele>
        <time>2021-08-14T09:08:25.000Z</time>
      </trkpt>
      <trkpt lat="47.33007" lon="-1.29602">
        <ele>65</ele>
        <time>2021-08-14T09:08:27.000Z</time>
      </trkpt>
      <trkpt lat="47.33" lon="-1.29618">
        <ele>65</ele>
        <time>2021-08-14T09:08:29.000Z</time>
      </trkpt>
      <trkpt lat="47.32992" lon="-1.29633">
        <ele>65</ele>
        <time>2021-08-14T09:08:31.000Z</time>
      </trkpt>
      <trkpt lat="47.32983" lon="-1.2965">
        <ele>67</ele>
        <time>2021-08-14T09:08:33.000Z</time>
      </trkpt>
      <trkpt lat="47.32973" lon="-1.29665">
        <ele>66</ele>
        <time>2021-08-14T09:08:35.000Z</time>
      </trkpt>
      <trkpt lat="47.32962" lon="-1.29682">
        <ele>65</ele>
        <time>2021-08-14T09:08:37.000Z</time>
      </trkpt>
      <trkpt lat="47.32952" lon="-1.29697">
        <ele>65</ele>
        <time>2021-08-14T09:08:39.000Z</time>
      </trkpt>
      <trkpt lat="47.32943" lon="-1.29712">
        <ele>65</ele>
        <time>2021-08-14T09:08:41.000Z</time>
      </trkpt>
      <trkpt lat="47.32933" lon="-1.29727">
        <ele>66</ele>
        <time>2021-08-14T09:08:43.000Z</time>
      </trkpt>
      <trkpt lat="47.32924" lon="-1.29742">
        <ele>67</ele>
        <time>2021-08-14T09:08:45.000Z</time>
      </trkpt>
      <trkpt lat="47.32914" lon="-1.29758">
        <ele>66</ele>
        <time>2021-08-14T09:08:47.000Z</time>
      </trkpt>
      <trkpt lat="47.32904" lon="-1.29776">
        <ele>66</ele>
        <time>2021-08-14T09:08:49.000Z</time>
      </trkpt>
      <trkpt lat="47.32895" lon="-1.29793">
        <ele>66</ele>
        <time>2021-08-14T09:08:51.000Z</time>
      </trkpt>
      <trkpt lat="47.32885" lon="-1.29809">
        <ele>65</ele>
        <time>2021-08-14T09:08:53.000Z</time>
      </trkpt>
      <trkpt lat="47.32875" lon="-1.29825">
        <ele>65</ele>
        <time>2021-08-14T09:08:55.000Z</time>
      </trkpt>
      <trkpt lat="47.32865" lon="-1.29842">
        <ele>65</ele>
        <time>2021-08-14T09:08:57.000Z</time>
      </trkpt>
      <trkpt lat="47.32856" lon="-1.2986">
        <ele>63</ele>
        <time>2021-08-14T09:08:59.000Z</time>
      </trkpt>
      <trkpt lat="47.32846" lon="-1.29877">
        <ele>62</ele>
        <time>2021-08-14T09:09:01.000Z</time>
      </trkpt>
      <trkpt lat="47.32838" lon="-1.29893">
        <ele>63</ele>
        <time>2021-08-14T09:09:03.000Z</time>
      </trkpt>
      <trkpt lat="47.3283" lon="-1.29908">
        <ele>63</ele>
        <time>2021-08-14T09:09:05.000Z</time>
      </trkpt>
      <trkpt lat="47.32823" lon="-1.29923">
        <ele>63</ele>
        <time>2021-08-14T09:09:07.000Z</time>
      </trkpt>
      <trkpt lat="47.32815" lon="-1.29938">
        <ele>64</ele>
        <time>2021-08-14T09:09:09.000Z</time>
      </trkpt>
      <trkpt lat="47.32807" lon="-1.29953">
        <ele>64</ele>
        <time>2021-08-14T09:09:11.000Z</time>
      </trkpt>
      <trkpt lat="47.32798" lon="-1.2997">
        <ele>64</ele>
        <time>2021-08-14T09:09:13.000Z</time>
      </trkpt>
      <trkpt lat="47.32789" lon="-1.29987">
        <ele>63</ele>
        <time>2021-08-14T09:09:15.000Z</time>
      </trkpt>
      <trkpt lat="47.32779" lon="-1.30005">
        <ele>63</ele>
        <time>2021-08-14T09:09:17.000Z</time>
      </trkpt>
      <trkpt lat="47.32771" lon="-1.30022">
        <ele>63</ele>
        <time>2021-08-14T09:09:19.000Z</time>
      </trkpt>
      <trkpt lat="47.32763" lon="-1.30038">
        <ele>62</ele>
        <time>2021-08-14T09:09:21.000Z</time>
      </trkpt>
      <trkpt lat="47.32754" lon="-1.30056">
        <ele>61</ele>
        <time>2021-08-14T09:09:23.000Z</time>
      </trkpt>
      <trkpt lat="47.32746" lon="-1.30073">
        <ele>61</ele>
        <time>2021-08-14T09:09:25.000Z</time>
      </trkpt>
      <trkpt lat="47.32738" lon="-1.30089">
        <ele>61</ele>
        <time>2021-08-14T09:09:27.000Z</time>
      </trkpt>
      <trkpt lat="47.3273" lon="-1.30105">
        <ele>61</ele>
        <time>2021-08-14T09:09:29.000Z</time>
      </trkpt>
      <trkpt lat="47.3272" lon="-1.30122">
        <ele>60</ele>
        <time>2021-08-14T09:09:31.000Z</time>
      </trkpt>
      <trkpt lat="47.32711" lon="-1.30137">
        <ele>60</ele>
        <time>2021-08-14T09:09:33.000Z</time>
      </trkpt>
      <trkpt lat="47.32701" lon="-1.30152">
        <ele>61</ele>
        <time>2021-08-14T09:09:35.000Z</time>
      </trkpt>
      <trkpt lat="47.32692" lon="-1.30167">
        <ele>61</ele>
        <time>2021-08-14T09:09:37.000Z</time>
      </trkpt>
      <trkpt lat="47.32682" lon="-1.30183">
        <ele>61</ele>
        <time>2021-08-14T09:09:39.000Z</time>
      </trkpt>
      <trkpt lat="47.32674" lon="-1.30199">
        <ele>61</ele>
        <time>2021-08-14T09:09:41.000Z</time>
      </trkpt>
      <trkpt lat="47.32665" lon="-1.30215">
        <ele>62</ele>
        <time>2021-08-14T09:09:43.000Z</time>
      </trkpt>
      <trkpt lat="47.32656" lon="-1.3023">
        <ele>62</ele>
        <time>2021-08-14T09:09:45.000Z</time>
      </trkpt>
      <trkpt lat="47.32646" lon="-1.30244">
        <ele>62</ele>
        <time>2021-08-14T09:09:47.000Z</time>
      </trkpt>
      <trkpt lat="47.3264" lon="-1.30261">
        <ele>61</ele>
        <time>2021-08-14T09:09:49.000Z</time>
      </trkpt>
      <trkpt lat="47.32646" lon="-1.30277">
        <ele>61</ele>
        <time>2021-08-14T09:09:51.000Z</time>
      </trkpt>
      <trkpt lat="47.32652" lon="-1.30293">
        <ele>60</ele>
        <time>2021-08-14T09:09:53.000Z</time>
      </trkpt>
      <trkpt lat="47.32659" lon="-1.30311">
        <ele>59</ele>
        <time>2021-08-14T09:09:55.000Z</time>
      </trkpt>
      <trkpt lat="47.32667" lon="-1.30328">
        <ele>58</ele>
        <time>2021-08-14T09:09:57.000Z</time>
      </trkpt>
      <trkpt lat="47.32674" lon="-1.30345">
        <ele>58</ele>
        <time>2021-08-14T09:09:59.000Z</time>
      </trkpt>
      <trkpt lat="47.32682" lon="-1.30364">
        <ele>58</ele>
        <time>2021-08-14T09:10:01.000Z</time>
      </trkpt>
      <trkpt lat="47.32686" lon="-1.30385">
        <ele>58</ele>
        <time>2021-08-14T09:10:03.000Z</time>
      </trkpt>
      <trkpt lat="47.32685" lon="-1.30405">
        <ele>59</ele>
        <time>2021-08-14T09:10:05.000Z</time>
      </trkpt>
      <trkpt lat="47.3268" lon="-1.30424">
        <ele>59</ele>
        <time>2021-08-14T09:10:07.000Z</time>
      </trkpt>
      <trkpt lat="47.32673" lon="-1.30442">
        <ele>59</ele>
        <time>2021-08-14T09:10:09.000Z</time>
      </trkpt>
      <trkpt lat="47.32665" lon="-1.3046">
        <ele>59</ele>
        <time>2021-08-14T09:10:11.000Z</time>
      </trkpt>
      <trkpt lat="47.32657" lon="-1.30477">
        <ele>60</ele>
        <time>2021-08-14T09:10:13.000Z</time>
      </trkpt>
      <trkpt lat="47.32649" lon="-1.30494">
        <ele>60</ele>
        <time>2021-08-14T09:10:15.000Z</time>
      </trkpt>
      <trkpt lat="47.32642" lon="-1.30512">
        <ele>60</ele>
        <time>2021-08-14T09:10:17.000Z</time>
      </trkpt>
      <trkpt lat="47.32634" lon="-1.3053">
        <ele>61</ele>
        <time>2021-08-14T09:10:19.000Z</time>
      </trkpt>
      <trkpt lat="47.32627" lon="-1.30547">
        <ele>61</ele>
        <time>2021-08-14T09:10:21.000Z</time>
      </trkpt>
      <trkpt lat="47.32619" lon="-1.30566">
        <ele>60</ele>
        <time>2021-08-14T09:10:23.000Z</time>
      </trkpt>
      <trkpt lat="47.3261" lon="-1.30584">
        <ele>60</ele>
        <time>2021-08-14T09:10:25.000Z</time>
      </trkpt>
      <trkpt lat="47.32603" lon="-1.30602">
        <ele>60</ele>
        <time>2021-08-14T09:10:27.000Z</time>
      </trkpt>
      <trkpt lat="47.32594" lon="-1.30621">
        <ele>60</ele>
        <time>2021-08-14T09:10:29.000Z</time>
      </trkpt>
      <trkpt lat="47.32586" lon="-1.30639">
        <ele>60</ele>
        <time>2021-08-14T09:10:31.000Z</time>
      </trkpt>
      <trkpt lat="47.32578" lon="-1.30656">
        <ele>60</ele>
        <time>2021-08-14T09:10:33.000Z</time>
      </trkpt>
      <trkpt lat="47.32569" lon="-1.30674">
        <ele>59</ele>
        <time>2021-08-14T09:10:35.000Z</time>
      </trkpt>
      <trkpt lat="47.3256" lon="-1.30694">
        <ele>59</ele>
        <time>2021-08-14T09:10:37.000Z</time>
      </trkpt>
      <trkpt lat="47.32552" lon="-1.30715">
        <ele>59</ele>
        <time>2021-08-14T09:10:39.000Z</time>
      </trkpt>
      <trkpt lat="47.32543" lon="-1.30736">
        <ele>59</ele>
        <time>2021-08-14T09:10:41.000Z</time>
      </trkpt>
      <trkpt lat="47.32535" lon="-1.30757">
        <ele>60</ele>
        <time>2021-08-14T09:10:43.000Z</time>
      </trkpt>
      <trkpt lat="47.32526" lon="-1.30776">
        <ele>60</ele>
        <time>2021-08-14T09:10:45.000Z</time>
      </trkpt>
      <trkpt lat="47.32519" lon="-1.30798">
        <ele>60</ele>
        <time>2021-08-14T09:10:47.000Z</time>
      </trkpt>
      <trkpt lat="47.32511" lon="-1.30819">
        <ele>59</ele>
        <time>2021-08-14T09:10:49.000Z</time>
      </trkpt>
      <trkpt lat="47.32503" lon="-1.3084">
        <ele>59</ele>
        <time>2021-08-14T09:10:51.000Z</time>
      </trkpt>
      <trkpt lat="47.32495" lon="-1.30861">
        <ele>59</ele>
        <time>2021-08-14T09:10:53.000Z</time>
      </trkpt>
      <trkpt lat="47.32487" lon="-1.30882">
        <ele>58</ele>
        <time>2021-08-14T09:10:55.000Z</time>
      </trkpt>
      <trkpt lat="47.32479" lon="-1.30903">
        <ele>57</ele>
        <time>2021-08-14T09:10:57.000Z</time>
      </trkpt>
      <trkpt lat="47.32472" lon="-1.30924">
        <ele>58</ele>
        <time>2021-08-14T09:10:59.000Z</time>
      </trkpt>
      <trkpt lat="47.32465" lon="-1.30944">
        <ele>58</ele>
        <time>2021-08-14T09:11:01.000Z</time>
      </trkpt>
      <trkpt lat="47.32459" lon="-1.30964">
        <ele>58</ele>
        <time>2021-08-14T09:11:03.000Z</time>
      </trkpt>
      <trkpt lat="47.32452" lon="-1.30983">
        <ele>59</ele>
        <time>2021-08-14T09:11:05.000Z</time>
      </trkpt>
      <trkpt lat="47.32447" lon="-1.31003">
        <ele>59</ele>
        <time>2021-08-14T09:11:07.000Z</time>
      </trkpt>
      <trkpt lat="47.32442" lon="-1.31025">
        <ele>59</ele>
        <time>2021-08-14T09:11:09.000Z</time>
      </trkpt>
      <trkpt lat="47.32437" lon="-1.31045">
        <ele>59</ele>
        <time>2021-08-14T09:11:11.000Z</time>
      </trkpt>
      <trkpt lat="47.32432" lon="-1.31064">
        <ele>60</ele>
        <time>2021-08-14T09:11:13.000Z</time>
      </trkpt>
      <trkpt lat="47.32427" lon="-1.31082">
        <ele>61</ele>
        <time>2021-08-14T09:11:15.000Z</time>
      </trkpt>
      <trkpt lat="47.32419" lon="-1.31102">
        <ele>61</ele>
        <time>2021-08-14T09:11:17.000Z</time>
      </trkpt>
      <trkpt lat="47.32413" lon="-1.31122">
        <ele>61</ele>
        <time>2021-08-14T09:11:19.000Z</time>
      </trkpt>
      <trkpt lat="47.32406" lon="-1.31143">
        <ele>61</ele>
        <time>2021-08-14T09:11:21.000Z</time>
      </trkpt>
      <trkpt lat="47.32401" lon="-1.31162">
        <ele>62</ele>
        <time>2021-08-14T09:11:23.000Z</time>
      </trkpt>
      <trkpt lat="47.32394" lon="-1.31181">
        <ele>62</ele>
        <time>2021-08-14T09:11:25.000Z</time>
      </trkpt>
      <trkpt lat="47.32389" lon="-1.31199">
        <ele>62</ele>
        <time>2021-08-14T09:11:27.000Z</time>
      </trkpt>
      <trkpt lat="47.32382" lon="-1.31219">
        <ele>62</ele>
        <time>2021-08-14T09:11:29.000Z</time>
      </trkpt>
      <trkpt lat="47.32375" lon="-1.31239">
        <ele>62</ele>
        <time>2021-08-14T09:11:31.000Z</time>
      </trkpt>
      <trkpt lat="47.32365" lon="-1.31259">
        <ele>60</ele>
        <time>2021-08-14T09:11:33.000Z</time>
      </trkpt>
      <trkpt lat="47.32356" lon="-1.31276">
        <ele>59</ele>
        <time>2021-08-14T09:11:35.000Z</time>
      </trkpt>
      <trkpt lat="47.32345" lon="-1.31291">
        <ele>59</ele>
        <time>2021-08-14T09:11:37.000Z</time>
      </trkpt>
      <trkpt lat="47.32336" lon="-1.31306">
        <ele>60</ele>
        <time>2021-08-14T09:11:39.000Z</time>
      </trkpt>
      <trkpt lat="47.32327" lon="-1.31322">
        <ele>60</ele>
        <time>2021-08-14T09:11:41.000Z</time>
      </trkpt>
      <trkpt lat="47.32318" lon="-1.31337">
        <ele>61</ele>
        <time>2021-08-14T09:11:43.000Z</time>
      </trkpt>
      <trkpt lat="47.32308" lon="-1.31351">
        <ele>61</ele>
        <time>2021-08-14T09:11:45.000Z</time>
      </trkpt>
      <trkpt lat="47.32297" lon="-1.31367">
        <ele>61</ele>
        <time>2021-08-14T09:11:47.000Z</time>
      </trkpt>
      <trkpt lat="47.32287" lon="-1.31383">
        <ele>61</ele>
        <time>2021-08-14T09:11:49.000Z</time>
      </trkpt>
      <trkpt lat="47.32277" lon="-1.31399">
        <ele>62</ele>
        <time>2021-08-14T09:11:51.000Z</time>
      </trkpt>
      <trkpt lat="47.32267" lon="-1.31414">
        <ele>62</ele>
        <time>2021-08-14T09:11:53.000Z</time>
      </trkpt>
      <trkpt lat="47.32258" lon="-1.31431">
        <ele>62</ele>
        <time>2021-08-14T09:11:55.000Z</time>
      </trkpt>
      <trkpt lat="47.32247" lon="-1.31446">
        <ele>62</ele>
        <time>2021-08-14T09:11:57.000Z</time>
      </trkpt>
      <trkpt lat="47.32237" lon="-1.31462">
        <ele>63</ele>
        <time>2021-08-14T09:11:59.000Z</time>
      </trkpt>
      <trkpt lat="47.32226" lon="-1.3148">
        <ele>64</ele>
        <time>2021-08-14T09:12:01.000Z</time>
      </trkpt>
      <trkpt lat="47.32216" lon="-1.31496">
        <ele>63</ele>
        <time>2021-08-14T09:12:03.000Z</time>
      </trkpt>
      <trkpt lat="47.32206" lon="-1.31513">
        <ele>63</ele>
        <time>2021-08-14T09:12:05.000Z</time>
      </trkpt>
      <trkpt lat="47.32195" lon="-1.31529">
        <ele>62</ele>
        <time>2021-08-14T09:12:07.000Z</time>
      </trkpt>
      <trkpt lat="47.32186" lon="-1.31544">
        <ele>63</ele>
        <time>2021-08-14T09:12:09.000Z</time>
      </trkpt>
      <trkpt lat="47.32177" lon="-1.31561">
        <ele>64</ele>
        <time>2021-08-14T09:12:11.000Z</time>
      </trkpt>
      <trkpt lat="47.32166" lon="-1.31578">
        <ele>63</ele>
        <time>2021-08-14T09:12:13.000Z</time>
      </trkpt>
      <trkpt lat="47.32156" lon="-1.31593">
        <ele>63</ele>
        <time>2021-08-14T09:12:15.000Z</time>
      </trkpt>
      <trkpt lat="47.32145" lon="-1.31609">
        <ele>62</ele>
        <time>2021-08-14T09:12:17.000Z</time>
      </trkpt>
      <trkpt lat="47.32135" lon="-1.31626">
        <ele>62</ele>
        <time>2021-08-14T09:12:19.000Z</time>
      </trkpt>
      <trkpt lat="47.32124" lon="-1.31642">
        <ele>62</ele>
        <time>2021-08-14T09:12:21.000Z</time>
      </trkpt>
      <trkpt lat="47.32113" lon="-1.31659">
        <ele>61</ele>
        <time>2021-08-14T09:12:23.000Z</time>
      </trkpt>
      <trkpt lat="47.32104" lon="-1.31676">
        <ele>62</ele>
        <time>2021-08-14T09:12:25.000Z</time>
      </trkpt>
      <trkpt lat="47.32094" lon="-1.31692">
        <ele>63</ele>
        <time>2021-08-14T09:12:27.000Z</time>
      </trkpt>
      <trkpt lat="47.32085" lon="-1.31708">
        <ele>63</ele>
        <time>2021-08-14T09:12:29.000Z</time>
      </trkpt>
      <trkpt lat="47.32075" lon="-1.31724">
        <ele>63</ele>
        <time>2021-08-14T09:12:31.000Z</time>
      </trkpt>
      <trkpt lat="47.32067" lon="-1.31741">
        <ele>63</ele>
        <time>2021-08-14T09:12:33.000Z</time>
      </trkpt>
      <trkpt lat="47.32058" lon="-1.31759">
        <ele>63</ele>
        <time>2021-08-14T09:12:35.000Z</time>
      </trkpt>
      <trkpt lat="47.3205" lon="-1.31777">
        <ele>63</ele>
        <time>2021-08-14T09:12:37.000Z</time>
      </trkpt>
      <trkpt lat="47.32043" lon="-1.31797">
        <ele>63</ele>
        <time>2021-08-14T09:12:39.000Z</time>
      </trkpt>
      <trkpt lat="47.32035" lon="-1.31816">
        <ele>63</ele>
        <time>2021-08-14T09:12:41.000Z</time>
      </trkpt>
      <trkpt lat="47.32029" lon="-1.31835">
        <ele>63</ele>
        <time>2021-08-14T09:12:43.000Z</time>
      </trkpt>
      <trkpt lat="47.32022" lon="-1.31855">
        <ele>63</ele>
        <time>2021-08-14T09:12:45.000Z</time>
      </trkpt>
      <trkpt lat="47.32015" lon="-1.31875">
        <ele>64</ele>
        <time>2021-08-14T09:12:47.000Z</time>
      </trkpt>
      <trkpt lat="47.32009" lon="-1.31895">
        <ele>64</ele>
        <time>2021-08-14T09:12:49.000Z</time>
      </trkpt>
      <trkpt lat="47.32004" lon="-1.31913">
        <ele>65</ele>
        <time>2021-08-14T09:12:51.000Z</time>
      </trkpt>
      <trkpt lat="47.31997" lon="-1.31931">
        <ele>66</ele>
        <time>2021-08-14T09:12:53.000Z</time>
      </trkpt>
      <trkpt lat="47.31989" lon="-1.31949">
        <ele>66</ele>
        <time>2021-08-14T09:12:55.000Z</time>
      </trkpt>
      <trkpt lat="47.3198" lon="-1.31967">
        <ele>64</ele>
        <time>2021-08-14T09:12:57.000Z</time>
      </trkpt>
      <trkpt lat="47.31971" lon="-1.31984">
        <ele>63</ele>
        <time>2021-08-14T09:12:59.000Z</time>
      </trkpt>
      <trkpt lat="47.31962" lon="-1.32">
        <ele>62</ele>
        <time>2021-08-14T09:13:01.000Z</time>
      </trkpt>
      <trkpt lat="47.3195" lon="-1.32011">
        <ele>63</ele>
        <time>2021-08-14T09:13:03.000Z</time>
      </trkpt>
      <trkpt lat="47.31937" lon="-1.32018">
        <ele>63</ele>
        <time>2021-08-14T09:13:05.000Z</time>
      </trkpt>
      <trkpt lat="47.31924" lon="-1.32019">
        <ele>63</ele>
        <time>2021-08-14T09:13:07.000Z</time>
      </trkpt>
      <trkpt lat="47.31913" lon="-1.32017">
        <ele>64</ele>
        <time>2021-08-14T09:13:09.000Z</time>
      </trkpt>
      <trkpt lat="47.31898" lon="-1.3201">
        <ele>64</ele>
        <time>2021-08-14T09:13:11.000Z</time>
      </trkpt>
      <trkpt lat="47.31882" lon="-1.32003">
        <ele>65</ele>
        <time>2021-08-14T09:13:13.000Z</time>
      </trkpt>
      <trkpt lat="47.31867" lon="-1.31995">
        <ele>66</ele>
        <time>2021-08-14T09:13:15.000Z</time>
      </trkpt>
      <trkpt lat="47.31854" lon="-1.31986">
        <ele>66</ele>
        <time>2021-08-14T09:13:17.000Z</time>
      </trkpt>
      <trkpt lat="47.31841" lon="-1.31977">
        <ele>65</ele>
        <time>2021-08-14T09:13:19.000Z</time>
      </trkpt>
      <trkpt lat="47.31829" lon="-1.31968">
        <ele>64</ele>
        <time>2021-08-14T09:13:21.000Z</time>
      </trkpt>
      <trkpt lat="47.31817" lon="-1.31961">
        <ele>64</ele>
        <time>2021-08-14T09:13:23.000Z</time>
      </trkpt>
      <trkpt lat="47.31807" lon="-1.31958">
        <ele>63</ele>
        <time>2021-08-14T09:13:25.000Z</time>
      </trkpt>
      <trkpt lat="47.31797" lon="-1.31966">
        <ele>62</ele>
        <time>2021-08-14T09:13:27.000Z</time>
      </trkpt>
      <trkpt lat="47.3179" lon="-1.31983">
        <ele>62</ele>
        <time>2021-08-14T09:13:29.000Z</time>
      </trkpt>
      <trkpt lat="47.31784" lon="-1.32">
        <ele>61</ele>
        <time>2021-08-14T09:13:31.000Z</time>
      </trkpt>
      <trkpt lat="47.31778" lon="-1.32018">
        <ele>61</ele>
        <time>2021-08-14T09:13:33.000Z</time>
      </trkpt>
      <trkpt lat="47.31771" lon="-1.32035">
        <ele>61</ele>
        <time>2021-08-14T09:13:35.000Z</time>
      </trkpt>
      <trkpt lat="47.31765" lon="-1.32051">
        <ele>61</ele>
        <time>2021-08-14T09:13:37.000Z</time>
      </trkpt>
      <trkpt lat="47.31759" lon="-1.32068">
        <ele>62</ele>
        <time>2021-08-14T09:13:39.000Z</time>
      </trkpt>
      <trkpt lat="47.31754" lon="-1.32084">
        <ele>62</ele>
        <time>2021-08-14T09:13:41.000Z</time>
      </trkpt>
      <trkpt lat="47.31748" lon="-1.32102">
        <ele>62</ele>
        <time>2021-08-14T09:13:43.000Z</time>
      </trkpt>
      <trkpt lat="47.31743" lon="-1.32118">
        <ele>62</ele>
        <time>2021-08-14T09:13:45.000Z</time>
      </trkpt>
      <trkpt lat="47.31737" lon="-1.32136">
        <ele>62</ele>
        <time>2021-08-14T09:13:47.000Z</time>
      </trkpt>
      <trkpt lat="47.31731" lon="-1.32155">
        <ele>62</ele>
        <time>2021-08-14T09:13:49.000Z</time>
      </trkpt>
      <trkpt lat="47.31728" lon="-1.32175">
        <ele>62</ele>
        <time>2021-08-14T09:13:51.000Z</time>
      </trkpt>
      <trkpt lat="47.31725" lon="-1.32194">
        <ele>63</ele>
        <time>2021-08-14T09:13:53.000Z</time>
      </trkpt>
      <trkpt lat="47.31723" lon="-1.32213">
        <ele>63</ele>
        <time>2021-08-14T09:13:55.000Z</time>
      </trkpt>
      <trkpt lat="47.31721" lon="-1.32232">
        <ele>63</ele>
        <time>2021-08-14T09:13:57.000Z</time>
      </trkpt>
      <trkpt lat="47.31718" lon="-1.32251">
        <ele>63</ele>
        <time>2021-08-14T09:13:59.000Z</time>
      </trkpt>
      <trkpt lat="47.31714" lon="-1.32269">
        <ele>62</ele>
        <time>2021-08-14T09:14:01.000Z</time>
      </trkpt>
      <trkpt lat="47.3171" lon="-1.32288">
        <ele>62</ele>
        <time>2021-08-14T09:14:03.000Z</time>
      </trkpt>
      <trkpt lat="47.31706" lon="-1.32307">
        <ele>61</ele>
        <time>2021-08-14T09:14:05.000Z</time>
      </trkpt>
      <trkpt lat="47.31702" lon="-1.32326">
        <ele>61</ele>
        <time>2021-08-14T09:14:07.000Z</time>
      </trkpt>
      <trkpt lat="47.31698" lon="-1.32344">
        <ele>61</ele>
        <time>2021-08-14T09:14:09.000Z</time>
      </trkpt>
      <trkpt lat="47.31695" lon="-1.32364">
        <ele>61</ele>
        <time>2021-08-14T09:14:11.000Z</time>
      </trkpt>
      <trkpt lat="47.31692" lon="-1.32382">
        <ele>61</ele>
        <time>2021-08-14T09:14:13.000Z</time>
      </trkpt>
      <trkpt lat="47.3169" lon="-1.32402">
        <ele>61</ele>
        <time>2021-08-14T09:14:15.000Z</time>
      </trkpt>
      <trkpt lat="47.31689" lon="-1.3242">
        <ele>61</ele>
        <time>2021-08-14T09:14:17.000Z</time>
      </trkpt>
      <trkpt lat="47.31688" lon="-1.32438">
        <ele>61</ele>
        <time>2021-08-14T09:14:19.000Z</time>
      </trkpt>
      <trkpt lat="47.31686" lon="-1.32457">
        <ele>62</ele>
        <time>2021-08-14T09:14:21.000Z</time>
      </trkpt>
      <trkpt lat="47.31683" lon="-1.32476">
        <ele>61</ele>
        <time>2021-08-14T09:14:23.000Z</time>
      </trkpt>
      <trkpt lat="47.31678" lon="-1.32494">
        <ele>61</ele>
        <time>2021-08-14T09:14:25.000Z</time>
      </trkpt>
      <trkpt lat="47.31671" lon="-1.3251">
        <ele>62</ele>
        <time>2021-08-14T09:14:27.000Z</time>
      </trkpt>
      <trkpt lat="47.31665" lon="-1.32527">
        <ele>62</ele>
        <time>2021-08-14T09:14:29.000Z</time>
      </trkpt>
      <trkpt lat="47.31657" lon="-1.32542">
        <ele>62</ele>
        <time>2021-08-14T09:14:31.000Z</time>
      </trkpt>
      <trkpt lat="47.3165" lon="-1.32558">
        <ele>62</ele>
        <time>2021-08-14T09:14:33.000Z</time>
      </trkpt>
      <trkpt lat="47.31642" lon="-1.32572">
        <ele>63</ele>
        <time>2021-08-14T09:14:35.000Z</time>
      </trkpt>
      <trkpt lat="47.31634" lon="-1.32588">
        <ele>63</ele>
        <time>2021-08-14T09:14:37.000Z</time>
      </trkpt>
      <trkpt lat="47.31626" lon="-1.32605">
        <ele>62</ele>
        <time>2021-08-14T09:14:39.000Z</time>
      </trkpt>
      <trkpt lat="47.31617" lon="-1.32619">
        <ele>62</ele>
        <time>2021-08-14T09:14:41.000Z</time>
      </trkpt>
      <trkpt lat="47.31607" lon="-1.32633">
        <ele>61</ele>
        <time>2021-08-14T09:14:43.000Z</time>
      </trkpt>
      <trkpt lat="47.31597" lon="-1.32647">
        <ele>61</ele>
        <time>2021-08-14T09:14:45.000Z</time>
      </trkpt>
      <trkpt lat="47.31588" lon="-1.32659">
        <ele>61</ele>
        <time>2021-08-14T09:14:47.000Z</time>
      </trkpt>
      <trkpt lat="47.31578" lon="-1.32672">
        <ele>60</ele>
        <time>2021-08-14T09:14:49.000Z</time>
      </trkpt>
      <trkpt lat="47.31569" lon="-1.32683">
        <ele>60</ele>
        <time>2021-08-14T09:14:51.000Z</time>
      </trkpt>
      <trkpt lat="47.31559" lon="-1.32695">
        <ele>60</ele>
        <time>2021-08-14T09:14:53.000Z</time>
      </trkpt>
      <trkpt lat="47.31549" lon="-1.32708">
        <ele>61</ele>
        <time>2021-08-14T09:14:55.000Z</time>
      </trkpt>
      <trkpt lat="47.31538" lon="-1.3272">
        <ele>61</ele>
        <time>2021-08-14T09:14:57.000Z</time>
      </trkpt>
      <trkpt lat="47.31528" lon="-1.32732">
        <ele>61</ele>
        <time>2021-08-14T09:14:59.000Z</time>
      </trkpt>
      <trkpt lat="47.31517" lon="-1.32744">
        <ele>61</ele>
        <time>2021-08-14T09:15:01.000Z</time>
      </trkpt>
      <trkpt lat="47.31507" lon="-1.32756">
        <ele>59</ele>
        <time>2021-08-14T09:15:03.000Z</time>
      </trkpt>
      <trkpt lat="47.31496" lon="-1.32769">
        <ele>59</ele>
        <time>2021-08-14T09:15:05.000Z</time>
      </trkpt>
      <trkpt lat="47.31485" lon="-1.32781">
        <ele>59</ele>
        <time>2021-08-14T09:15:07.000Z</time>
      </trkpt>
      <trkpt lat="47.31473" lon="-1.32793">
        <ele>59</ele>
        <time>2021-08-14T09:15:09.000Z</time>
      </trkpt>
      <trkpt lat="47.3146" lon="-1.32802">
        <ele>59</ele>
        <time>2021-08-14T09:15:11.000Z</time>
      </trkpt>
      <trkpt lat="47.31446" lon="-1.32812">
        <ele>59</ele>
        <time>2021-08-14T09:15:13.000Z</time>
      </trkpt>
      <trkpt lat="47.31433" lon="-1.32823">
        <ele>59</ele>
        <time>2021-08-14T09:15:15.000Z</time>
      </trkpt>
      <trkpt lat="47.31421" lon="-1.32833">
        <ele>59</ele>
        <time>2021-08-14T09:15:17.000Z</time>
      </trkpt>
      <trkpt lat="47.3141" lon="-1.32843">
        <ele>59</ele>
        <time>2021-08-14T09:15:19.000Z</time>
      </trkpt>
      <trkpt lat="47.31398" lon="-1.32853">
        <ele>59</ele>
        <time>2021-08-14T09:15:21.000Z</time>
      </trkpt>
      <trkpt lat="47.31386" lon="-1.32863">
        <ele>59</ele>
        <time>2021-08-14T09:15:23.000Z</time>
      </trkpt>
      <trkpt lat="47.31374" lon="-1.32873">
        <ele>59</ele>
        <time>2021-08-14T09:15:25.000Z</time>
      </trkpt>
      <trkpt lat="47.31361" lon="-1.32884">
        <ele>59</ele>
        <time>2021-08-14T09:15:27.000Z</time>
      </trkpt>
      <trkpt lat="47.31349" lon="-1.32895">
        <ele>59</ele>
        <time>2021-08-14T09:15:29.000Z</time>
      </trkpt>
      <trkpt lat="47.31337" lon="-1.32906">
        <ele>59</ele>
        <time>2021-08-14T09:15:31.000Z</time>
      </trkpt>
      <trkpt lat="47.31324" lon="-1.32917">
        <ele>60</ele>
        <time>2021-08-14T09:15:33.000Z</time>
      </trkpt>
      <trkpt lat="47.31312" lon="-1.32928">
        <ele>60</ele>
        <time>2021-08-14T09:15:35.000Z</time>
      </trkpt>
      <trkpt lat="47.31299" lon="-1.32939">
        <ele>59</ele>
        <time>2021-08-14T09:15:37.000Z</time>
      </trkpt>
      <trkpt lat="47.31286" lon="-1.3295">
        <ele>59</ele>
        <time>2021-08-14T09:15:39.000Z</time>
      </trkpt>
      <trkpt lat="47.31274" lon="-1.32961">
        <ele>59</ele>
        <time>2021-08-14T09:15:41.000Z</time>
      </trkpt>
      <trkpt lat="47.3126" lon="-1.32972">
        <ele>60</ele>
        <time>2021-08-14T09:15:43.000Z</time>
      </trkpt>
      <trkpt lat="47.31247" lon="-1.32982">
        <ele>60</ele>
        <time>2021-08-14T09:15:45.000Z</time>
      </trkpt>
      <trkpt lat="47.31234" lon="-1.32991">
        <ele>60</ele>
        <time>2021-08-14T09:15:47.000Z</time>
      </trkpt>
      <trkpt lat="47.3122" lon="-1.32997">
        <ele>60</ele>
        <time>2021-08-14T09:15:49.000Z</time>
      </trkpt>
      <trkpt lat="47.31206" lon="-1.33003">
        <ele>60</ele>
        <time>2021-08-14T09:15:51.000Z</time>
      </trkpt>
      <trkpt lat="47.31192" lon="-1.33008">
        <ele>61</ele>
        <time>2021-08-14T09:15:53.000Z</time>
      </trkpt>
      <trkpt lat="47.31178" lon="-1.33014">
        <ele>61</ele>
        <time>2021-08-14T09:15:55.000Z</time>
      </trkpt>
      <trkpt lat="47.31164" lon="-1.3302">
        <ele>61</ele>
        <time>2021-08-14T09:15:57.000Z</time>
      </trkpt>
      <trkpt lat="47.31149" lon="-1.33025">
        <ele>60</ele>
        <time>2021-08-14T09:15:59.000Z</time>
      </trkpt>
      <trkpt lat="47.31134" lon="-1.33029">
        <ele>60</ele>
        <time>2021-08-14T09:16:01.000Z</time>
      </trkpt>
      <trkpt lat="47.3112" lon="-1.33035">
        <ele>60</ele>
        <time>2021-08-14T09:16:03.000Z</time>
      </trkpt>
      <trkpt lat="47.31106" lon="-1.33041">
        <ele>60</ele>
        <time>2021-08-14T09:16:05.000Z</time>
      </trkpt>
      <trkpt lat="47.31092" lon="-1.33047">
        <ele>60</ele>
        <time>2021-08-14T09:16:07.000Z</time>
      </trkpt>
      <trkpt lat="47.31078" lon="-1.33054">
        <ele>60</ele>
        <time>2021-08-14T09:16:09.000Z</time>
      </trkpt>
      <trkpt lat="47.31064" lon="-1.3306">
        <ele>60</ele>
        <time>2021-08-14T09:16:11.000Z</time>
      </trkpt>
      <trkpt lat="47.31049" lon="-1.33066">
        <ele>60</ele>
        <time>2021-08-14T09:16:13.000Z</time>
      </trkpt>
      <trkpt lat="47.31035" lon="-1.33073">
        <ele>60</ele>
        <time>2021-08-14T09:16:15.000Z</time>
      </trkpt>
      <trkpt lat="47.31021" lon="-1.33079">
        <ele>59</ele>
        <time>2021-08-14T09:16:17.000Z</time>
      </trkpt>
      <trkpt lat="47.31006" lon="-1.33084">
        <ele>59</ele>
        <time>2021-08-14T09:16:19.000Z</time>
      </trkpt>
      <trkpt lat="47.30992" lon="-1.33091">
        <ele>59</ele>
        <time>2021-08-14T09:16:21.000Z</time>
      </trkpt>
      <trkpt lat="47.30977" lon="-1.33097">
        <ele>59</ele>
        <time>2021-08-14T09:16:23.000Z</time>
      </trkpt>
      <trkpt lat="47.30963" lon="-1.33103">
        <ele>59</ele>
        <time>2021-08-14T09:16:25.000Z</time>
      </trkpt>
      <trkpt lat="47.30949" lon="-1.33109">
        <ele>59</ele>
        <time>2021-08-14T09:16:27.000Z</time>
      </trkpt>
      <trkpt lat="47.30934" lon="-1.33115">
        <ele>59</ele>
        <time>2021-08-14T09:16:29.000Z</time>
      </trkpt>
      <trkpt lat="47.30919" lon="-1.33121">
        <ele>58</ele>
        <time>2021-08-14T09:16:31.000Z</time>
      </trkpt>
      <trkpt lat="47.30904" lon="-1.33127">
        <ele>58</ele>
        <time>2021-08-14T09:16:33.000Z</time>
      </trkpt>
      <trkpt lat="47.30889" lon="-1.33134">
        <ele>58</ele>
        <time>2021-08-14T09:16:35.000Z</time>
      </trkpt>
      <trkpt lat="47.30874" lon="-1.3314">
        <ele>58</ele>
        <time>2021-08-14T09:16:37.000Z</time>
      </trkpt>
      <trkpt lat="47.3086" lon="-1.33146">
        <ele>58</ele>
        <time>2021-08-14T09:16:39.000Z</time>
      </trkpt>
      <trkpt lat="47.30846" lon="-1.33153">
        <ele>58</ele>
        <time>2021-08-14T09:16:41.000Z</time>
      </trkpt>
      <trkpt lat="47.30831" lon="-1.33159">
        <ele>58</ele>
        <time>2021-08-14T09:16:43.000Z</time>
      </trkpt>
      <trkpt lat="47.30817" lon="-1.33165">
        <ele>58</ele>
        <time>2021-08-14T09:16:45.000Z</time>
      </trkpt>
      <trkpt lat="47.30802" lon="-1.33171">
        <ele>58</ele>
        <time>2021-08-14T09:16:47.000Z</time>
      </trkpt>
      <trkpt lat="47.30788" lon="-1.33177">
        <ele>58</ele>
        <time>2021-08-14T09:16:49.000Z</time>
      </trkpt>
      <trkpt lat="47.30773" lon="-1.33183">
        <ele>58</ele>
        <time>2021-08-14T09:16:51.000Z</time>
      </trkpt>
      <trkpt lat="47.30759" lon="-1.33189">
        <ele>58</ele>
        <time>2021-08-14T09:16:53.000Z</time>
      </trkpt>
      <trkpt lat="47.30745" lon="-1.33195">
        <ele>58</ele>
        <time>2021-08-14T09:16:55.000Z</time>
      </trkpt>
      <trkpt lat="47.3073" lon="-1.33201">
        <ele>58</ele>
        <time>2021-08-14T09:16:57.000Z</time>
      </trkpt>
      <trkpt lat="47.30716" lon="-1.33206">
        <ele>57</ele>
        <time>2021-08-14T09:16:59.000Z</time>
      </trkpt>
      <trkpt lat="47.30701" lon="-1.33211">
        <ele>57</ele>
        <time>2021-08-14T09:17:01.000Z</time>
      </trkpt>
      <trkpt lat="47.30686" lon="-1.33215">
        <ele>56</ele>
        <time>2021-08-14T09:17:03.000Z</time>
      </trkpt>
      <trkpt lat="47.30672" lon="-1.3322">
        <ele>57</ele>
        <time>2021-08-14T09:17:05.000Z</time>
      </trkpt>
      <trkpt lat="47.30657" lon="-1.33225">
        <ele>57</ele>
        <time>2021-08-14T09:17:07.000Z</time>
      </trkpt>
      <trkpt lat="47.30643" lon="-1.3323">
        <ele>57</ele>
        <time>2021-08-14T09:17:09.000Z</time>
      </trkpt>
      <trkpt lat="47.30629" lon="-1.33238">
        <ele>57</ele>
        <time>2021-08-14T09:17:11.000Z</time>
      </trkpt>
      <trkpt lat="47.30618" lon="-1.33256">
        <ele>57</ele>
        <time>2021-08-14T09:17:13.000Z</time>
      </trkpt>
      <trkpt lat="47.30613" lon="-1.33278">
        <ele>57</ele>
        <time>2021-08-14T09:17:15.000Z</time>
      </trkpt>
      <trkpt lat="47.30612" lon="-1.33302">
        <ele>57</ele>
        <time>2021-08-14T09:17:17.000Z</time>
      </trkpt>
      <trkpt lat="47.30618" lon="-1.33324">
        <ele>57</ele>
        <time>2021-08-14T09:17:19.000Z</time>
      </trkpt>
      <trkpt lat="47.30626" lon="-1.33343">
        <ele>57</ele>
        <time>2021-08-14T09:17:21.000Z</time>
      </trkpt>
      <trkpt lat="47.30635" lon="-1.33362">
        <ele>57</ele>
        <time>2021-08-14T09:17:23.000Z</time>
      </trkpt>
      <trkpt lat="47.30642" lon="-1.33382">
        <ele>57</ele>
        <time>2021-08-14T09:17:25.000Z</time>
      </trkpt>
      <trkpt lat="47.3065" lon="-1.33402">
        <ele>57</ele>
        <time>2021-08-14T09:17:27.000Z</time>
      </trkpt>
      <trkpt lat="47.30656" lon="-1.33422">
        <ele>57</ele>
        <time>2021-08-14T09:17:29.000Z</time>
      </trkpt>
      <trkpt lat="47.30663" lon="-1.33441">
        <ele>57</ele>
        <time>2021-08-14T09:17:31.000Z</time>
      </trkpt>
      <trkpt lat="47.3067" lon="-1.33461">
        <ele>57</ele>
        <time>2021-08-14T09:17:33.000Z</time>
      </trkpt>
      <trkpt lat="47.30676" lon="-1.3348">
        <ele>57</ele>
        <time>2021-08-14T09:17:35.000Z</time>
      </trkpt>
      <trkpt lat="47.30683" lon="-1.335">
        <ele>57</ele>
        <time>2021-08-14T09:17:37.000Z</time>
      </trkpt>
      <trkpt lat="47.3069" lon="-1.33519">
        <ele>57</ele>
        <time>2021-08-14T09:17:39.000Z</time>
      </trkpt>
      <trkpt lat="47.30696" lon="-1.33538">
        <ele>57</ele>
        <time>2021-08-14T09:17:41.000Z</time>
      </trkpt>
      <trkpt lat="47.30702" lon="-1.33558">
        <ele>57</ele>
        <time>2021-08-14T09:17:43.000Z</time>
      </trkpt>
      <trkpt lat="47.30709" lon="-1.33577">
        <ele>57</ele>
        <time>2021-08-14T09:17:45.000Z</time>
      </trkpt>
      <trkpt lat="47.30715" lon="-1.33596">
        <ele>57</ele>
        <time>2021-08-14T09:17:47.000Z</time>
      </trkpt>
      <trkpt lat="47.30722" lon="-1.33615">
        <ele>57</ele>
        <time>2021-08-14T09:17:49.000Z</time>
      </trkpt>
      <trkpt lat="47.30726" lon="-1.33635">
        <ele>57</ele>
        <time>2021-08-14T09:17:51.000Z</time>
      </trkpt>
      <trkpt lat="47.30725" lon="-1.33655">
        <ele>57</ele>
        <time>2021-08-14T09:17:53.000Z</time>
      </trkpt>
      <trkpt lat="47.30719" lon="-1.33674">
        <ele>58</ele>
        <time>2021-08-14T09:17:55.000Z</time>
      </trkpt>
      <trkpt lat="47.30712" lon="-1.33692">
        <ele>58</ele>
        <time>2021-08-14T09:17:57.000Z</time>
      </trkpt>
      <trkpt lat="47.30704" lon="-1.33709">
        <ele>59</ele>
        <time>2021-08-14T09:17:59.000Z</time>
      </trkpt>
      <trkpt lat="47.30693" lon="-1.33725">
        <ele>59</ele>
        <time>2021-08-14T09:18:01.000Z</time>
      </trkpt>
      <trkpt lat="47.30681" lon="-1.33737">
        <ele>59</ele>
        <time>2021-08-14T09:18:03.000Z</time>
      </trkpt>
      <trkpt lat="47.30668" lon="-1.33747">
        <ele>60</ele>
        <time>2021-08-14T09:18:05.000Z</time>
      </trkpt>
      <trkpt lat="47.30655" lon="-1.33756">
        <ele>59</ele>
        <time>2021-08-14T09:18:07.000Z</time>
      </trkpt>
      <trkpt lat="47.30642" lon="-1.33762">
        <ele>59</ele>
        <time>2021-08-14T09:18:09.000Z</time>
      </trkpt>
      <trkpt lat="47.30628" lon="-1.33766">
        <ele>59</ele>
        <time>2021-08-14T09:18:11.000Z</time>
      </trkpt>
      <trkpt lat="47.30614" lon="-1.33771">
        <ele>59</ele>
        <time>2021-08-14T09:18:13.000Z</time>
      </trkpt>
      <trkpt lat="47.306" lon="-1.33776">
        <ele>58</ele>
        <time>2021-08-14T09:18:15.000Z</time>
      </trkpt>
      <trkpt lat="47.30586" lon="-1.3378">
        <ele>58</ele>
        <time>2021-08-14T09:18:17.000Z</time>
      </trkpt>
      <trkpt lat="47.30571" lon="-1.33786">
        <ele>57</ele>
        <time>2021-08-14T09:18:19.000Z</time>
      </trkpt>
      <trkpt lat="47.30557" lon="-1.33793">
        <ele>57</ele>
        <time>2021-08-14T09:18:21.000Z</time>
      </trkpt>
      <trkpt lat="47.30543" lon="-1.33801">
        <ele>57</ele>
        <time>2021-08-14T09:18:23.000Z</time>
      </trkpt>
      <trkpt lat="47.3053" lon="-1.33809">
        <ele>57</ele>
        <time>2021-08-14T09:18:25.000Z</time>
      </trkpt>
      <trkpt lat="47.30517" lon="-1.33817">
        <ele>57</ele>
        <time>2021-08-14T09:18:27.000Z</time>
      </trkpt>
      <trkpt lat="47.30503" lon="-1.33825">
        <ele>57</ele>
        <time>2021-08-14T09:18:29.000Z</time>
      </trkpt>
      <trkpt lat="47.30491" lon="-1.33834">
        <ele>57</ele>
        <time>2021-08-14T09:18:31.000Z</time>
      </trkpt>
      <trkpt lat="47.30479" lon="-1.33845">
        <ele>57</ele>
        <time>2021-08-14T09:18:33.000Z</time>
      </trkpt>
      <trkpt lat="47.30467" lon="-1.33856">
        <ele>57</ele>
        <time>2021-08-14T09:18:35.000Z</time>
      </trkpt>
      <trkpt lat="47.30456" lon="-1.33867">
        <ele>58</ele>
        <time>2021-08-14T09:18:37.000Z</time>
      </trkpt>
      <trkpt lat="47.30439" lon="-1.33883">
        <ele>59</ele>
        <time>2021-08-14T09:18:40.000Z</time>
      </trkpt>
      <trkpt lat="47.30423" lon="-1.339">
        <ele>59</ele>
        <time>2021-08-14T09:18:43.000Z</time>
      </trkpt>
      <trkpt lat="47.30413" lon="-1.33913">
        <ele>59</ele>
        <time>2021-08-14T09:18:45.000Z</time>
      </trkpt>
      <trkpt lat="47.30404" lon="-1.33927">
        <ele>59</ele>
        <time>2021-08-14T09:18:47.000Z</time>
      </trkpt>
      <trkpt lat="47.30396" lon="-1.33941">
        <ele>59</ele>
        <time>2021-08-14T09:18:49.000Z</time>
      </trkpt>
      <trkpt lat="47.30387" lon="-1.33954">
        <ele>59</ele>
        <time>2021-08-14T09:18:51.000Z</time>
      </trkpt>
      <trkpt lat="47.30375" lon="-1.33962">
        <ele>59</ele>
        <time>2021-08-14T09:18:53.000Z</time>
      </trkpt>
      <trkpt lat="47.30361" lon="-1.33965">
        <ele>60</ele>
        <time>2021-08-14T09:18:56.000Z</time>
      </trkpt>
      <trkpt lat="47.30353" lon="-1.33982">
        <ele>61</ele>
        <time>2021-08-14T09:18:59.000Z</time>
      </trkpt>
      <trkpt lat="47.30344" lon="-1.33999">
        <ele>61</ele>
        <time>2021-08-14T09:19:01.000Z</time>
      </trkpt>
      <trkpt lat="47.30332" lon="-1.34022">
        <ele>60</ele>
        <time>2021-08-14T09:19:04.000Z</time>
      </trkpt>
      <trkpt lat="47.30324" lon="-1.34038">
        <ele>59</ele>
        <time>2021-08-14T09:19:06.000Z</time>
      </trkpt>
      <trkpt lat="47.30314" lon="-1.34053">
        <ele>59</ele>
        <time>2021-08-14T09:19:08.000Z</time>
      </trkpt>
      <trkpt lat="47.30303" lon="-1.34067">
        <ele>59</ele>
        <time>2021-08-14T09:19:10.000Z</time>
      </trkpt>
      <trkpt lat="47.30291" lon="-1.34078">
        <ele>58</ele>
        <time>2021-08-14T09:19:12.000Z</time>
      </trkpt>
      <trkpt lat="47.3028" lon="-1.3409">
        <ele>58</ele>
        <time>2021-08-14T09:19:14.000Z</time>
      </trkpt>
      <trkpt lat="47.30271" lon="-1.34101">
        <ele>58</ele>
        <time>2021-08-14T09:19:16.000Z</time>
      </trkpt>
      <trkpt lat="47.3026" lon="-1.34105">
        <ele>58</ele>
        <time>2021-08-14T09:19:19.000Z</time>
      </trkpt>
      <trkpt lat="47.30253" lon="-1.34093">
        <ele>59</ele>
        <time>2021-08-14T09:19:21.000Z</time>
      </trkpt>
      <trkpt lat="47.30246" lon="-1.34079">
        <ele>59</ele>
        <time>2021-08-14T09:19:23.000Z</time>
      </trkpt>
      <trkpt lat="47.3024" lon="-1.34063">
        <ele>59</ele>
        <time>2021-08-14T09:19:25.000Z</time>
      </trkpt>
      <trkpt lat="47.30234" lon="-1.34046">
        <ele>59</ele>
        <time>2021-08-14T09:19:27.000Z</time>
      </trkpt>
      <trkpt lat="47.30228" lon="-1.34032">
        <ele>60</ele>
        <time>2021-08-14T09:19:29.000Z</time>
      </trkpt>
      <trkpt lat="47.30224" lon="-1.34017">
        <ele>61</ele>
        <time>2021-08-14T09:19:31.000Z</time>
      </trkpt>
      <trkpt lat="47.3022" lon="-1.34003">
        <ele>62</ele>
        <time>2021-08-14T09:19:33.000Z</time>
      </trkpt>
      <trkpt lat="47.30212" lon="-1.33996">
        <ele>62</ele>
        <time>2021-08-14T09:19:36.000Z</time>
      </trkpt>
      <trkpt lat="47.30203" lon="-1.34007">
        <ele>63</ele>
        <time>2021-08-14T09:19:39.000Z</time>
      </trkpt>
      <trkpt lat="47.30192" lon="-1.34019">
        <ele>63</ele>
        <time>2021-08-14T09:19:41.000Z</time>
      </trkpt>
      <trkpt lat="47.3018" lon="-1.34031">
        <ele>64</ele>
        <time>2021-08-14T09:19:43.000Z</time>
      </trkpt>
      <trkpt lat="47.30169" lon="-1.34044">
        <ele>64</ele>
        <time>2021-08-14T09:19:45.000Z</time>
      </trkpt>
      <trkpt lat="47.30158" lon="-1.34053">
        <ele>63</ele>
        <time>2021-08-14T09:19:47.000Z</time>
      </trkpt>
      <trkpt lat="47.30146" lon="-1.34062">
        <ele>63</ele>
        <time>2021-08-14T09:19:49.000Z</time>
      </trkpt>
      <trkpt lat="47.30136" lon="-1.34071">
        <ele>62</ele>
        <time>2021-08-14T09:19:51.000Z</time>
      </trkpt>
      <trkpt lat="47.30126" lon="-1.3408">
        <ele>62</ele>
        <time>2021-08-14T09:19:53.000Z</time>
      </trkpt>
      <trkpt lat="47.30118" lon="-1.34092">
        <ele>62</ele>
        <time>2021-08-14T09:19:55.000Z</time>
      </trkpt>
      <trkpt lat="47.30114" lon="-1.34107">
        <ele>62</ele>
        <time>2021-08-14T09:19:57.000Z</time>
      </trkpt>
      <trkpt lat="47.3011" lon="-1.34122">
        <ele>62</ele>
        <time>2021-08-14T09:19:59.000Z</time>
      </trkpt>
      <trkpt lat="47.30107" lon="-1.34136">
        <ele>61</ele>
        <time>2021-08-14T09:20:01.000Z</time>
      </trkpt>
      <trkpt lat="47.30096" lon="-1.34144">
        <ele>61</ele>
        <time>2021-08-14T09:20:04.000Z</time>
      </trkpt>
      <trkpt lat="47.30088" lon="-1.34137">
        <ele>61</ele>
        <time>2021-08-14T09:20:06.000Z</time>
      </trkpt>
      <trkpt lat="47.30081" lon="-1.34126">
        <ele>60</ele>
        <time>2021-08-14T09:20:08.000Z</time>
      </trkpt>
      <trkpt lat="47.30073" lon="-1.34116">
        <ele>60</ele>
        <time>2021-08-14T09:20:10.000Z</time>
      </trkpt>
      <trkpt lat="47.30062" lon="-1.34107">
        <ele>59</ele>
        <time>2021-08-14T09:20:12.000Z</time>
      </trkpt>
      <trkpt lat="47.3005" lon="-1.34104">
        <ele>58</ele>
        <time>2021-08-14T09:20:14.000Z</time>
      </trkpt>
      <trkpt lat="47.30037" lon="-1.34109">
        <ele>58</ele>
        <time>2021-08-14T09:20:16.000Z</time>
      </trkpt>
      <trkpt lat="47.30026" lon="-1.34115">
        <ele>58</ele>
        <time>2021-08-14T09:20:18.000Z</time>
      </trkpt>
      <trkpt lat="47.30017" lon="-1.34127">
        <ele>58</ele>
        <time>2021-08-14T09:20:20.000Z</time>
      </trkpt>
      <trkpt lat="47.30013" lon="-1.34143">
        <ele>59</ele>
        <time>2021-08-14T09:20:22.000Z</time>
      </trkpt>
      <trkpt lat="47.30016" lon="-1.34162">
        <ele>59</ele>
        <time>2021-08-14T09:20:24.000Z</time>
      </trkpt>
      <trkpt lat="47.3002" lon="-1.34181">
        <ele>59</ele>
        <time>2021-08-14T09:20:26.000Z</time>
      </trkpt>
      <trkpt lat="47.30024" lon="-1.342">
        <ele>59</ele>
        <time>2021-08-14T09:20:28.000Z</time>
      </trkpt>
      <trkpt lat="47.30028" lon="-1.34219">
        <ele>59</ele>
        <time>2021-08-14T09:20:30.000Z</time>
      </trkpt>
      <trkpt lat="47.30032" lon="-1.34238">
        <ele>58</ele>
        <time>2021-08-14T09:20:32.000Z</time>
      </trkpt>
      <trkpt lat="47.30036" lon="-1.34257">
        <ele>57</ele>
        <time>2021-08-14T09:20:34.000Z</time>
      </trkpt>
      <trkpt lat="47.3004" lon="-1.34277">
        <ele>57</ele>
        <time>2021-08-14T09:20:36.000Z</time>
      </trkpt>
      <trkpt lat="47.30043" lon="-1.34296">
        <ele>56</ele>
        <time>2021-08-14T09:20:38.000Z</time>
      </trkpt>
      <trkpt lat="47.30048" lon="-1.34314">
        <ele>56</ele>
        <time>2021-08-14T09:20:40.000Z</time>
      </trkpt>
      <trkpt lat="47.30051" lon="-1.34332">
        <ele>56</ele>
        <time>2021-08-14T09:20:42.000Z</time>
      </trkpt>
      <trkpt lat="47.30054" lon="-1.34349">
        <ele>56</ele>
        <time>2021-08-14T09:20:44.000Z</time>
      </trkpt>
      <trkpt lat="47.30058" lon="-1.34366">
        <ele>57</ele>
        <time>2021-08-14T09:20:46.000Z</time>
      </trkpt>
      <trkpt lat="47.30061" lon="-1.34384">
        <ele>57</ele>
        <time>2021-08-14T09:20:48.000Z</time>
      </trkpt>
      <trkpt lat="47.30065" lon="-1.34401">
        <ele>57</ele>
        <time>2021-08-14T09:20:50.000Z</time>
      </trkpt>
      <trkpt lat="47.30068" lon="-1.34418">
        <ele>57</ele>
        <time>2021-08-14T09:20:52.000Z</time>
      </trkpt>
      <trkpt lat="47.30071" lon="-1.34438">
        <ele>57</ele>
        <time>2021-08-14T09:20:54.000Z</time>
      </trkpt>
      <trkpt lat="47.30074" lon="-1.34457">
        <ele>57</ele>
        <time>2021-08-14T09:20:56.000Z</time>
      </trkpt>
      <trkpt lat="47.30078" lon="-1.34477">
        <ele>58</ele>
        <time>2021-08-14T09:20:58.000Z</time>
      </trkpt>
      <trkpt lat="47.30081" lon="-1.34495">
        <ele>57</ele>
        <time>2021-08-14T09:21:00.000Z</time>
      </trkpt>
      <trkpt lat="47.30086" lon="-1.34511">
        <ele>57</ele>
        <time>2021-08-14T09:21:02.000Z</time>
      </trkpt>
      <trkpt lat="47.30094" lon="-1.34524">
        <ele>56</ele>
        <time>2021-08-14T09:21:04.000Z</time>
      </trkpt>
      <trkpt lat="47.30102" lon="-1.34538">
        <ele>56</ele>
        <time>2021-08-14T09:21:06.000Z</time>
      </trkpt>
      <trkpt lat="47.30106" lon="-1.34553">
        <ele>57</ele>
        <time>2021-08-14T09:21:08.000Z</time>
      </trkpt>
      <trkpt lat="47.30104" lon="-1.34571">
        <ele>57</ele>
        <time>2021-08-14T09:21:10.000Z</time>
      </trkpt>
      <trkpt lat="47.301" lon="-1.34588">
        <ele>58</ele>
        <time>2021-08-14T09:21:12.000Z</time>
      </trkpt>
      <trkpt lat="47.30097" lon="-1.34605">
        <ele>60</ele>
        <time>2021-08-14T09:21:14.000Z</time>
      </trkpt>
      <trkpt lat="47.30097" lon="-1.34621">
        <ele>60</ele>
        <time>2021-08-14T09:21:16.000Z</time>
      </trkpt>
      <trkpt lat="47.301" lon="-1.3464">
        <ele>60</ele>
        <time>2021-08-14T09:21:18.000Z</time>
      </trkpt>
      <trkpt lat="47.30103" lon="-1.3466">
        <ele>60</ele>
        <time>2021-08-14T09:21:20.000Z</time>
      </trkpt>
      <trkpt lat="47.30104" lon="-1.3468">
        <ele>60</ele>
        <time>2021-08-14T09:21:22.000Z</time>
      </trkpt>
      <trkpt lat="47.30105" lon="-1.34701">
        <ele>61</ele>
        <time>2021-08-14T09:21:24.000Z</time>
      </trkpt>
      <trkpt lat="47.30106" lon="-1.34721">
        <ele>61</ele>
        <time>2021-08-14T09:21:26.000Z</time>
      </trkpt>
      <trkpt lat="47.30106" lon="-1.34741">
        <ele>60</ele>
        <time>2021-08-14T09:21:28.000Z</time>
      </trkpt>
      <trkpt lat="47.30105" lon="-1.34761">
        <ele>60</ele>
        <time>2021-08-14T09:21:30.000Z</time>
      </trkpt>
      <trkpt lat="47.30105" lon="-1.34782">
        <ele>60</ele>
        <time>2021-08-14T09:21:32.000Z</time>
      </trkpt>
      <trkpt lat="47.30104" lon="-1.34802">
        <ele>60</ele>
        <time>2021-08-14T09:21:34.000Z</time>
      </trkpt>
      <trkpt lat="47.30103" lon="-1.34823">
        <ele>60</ele>
        <time>2021-08-14T09:21:36.000Z</time>
      </trkpt>
      <trkpt lat="47.30101" lon="-1.34844">
        <ele>60</ele>
        <time>2021-08-14T09:21:38.000Z</time>
      </trkpt>
      <trkpt lat="47.30099" lon="-1.34863">
        <ele>61</ele>
        <time>2021-08-14T09:21:40.000Z</time>
      </trkpt>
      <trkpt lat="47.30096" lon="-1.34883">
        <ele>61</ele>
        <time>2021-08-14T09:21:42.000Z</time>
      </trkpt>
      <trkpt lat="47.30092" lon="-1.34903">
        <ele>61</ele>
        <time>2021-08-14T09:21:44.000Z</time>
      </trkpt>
      <trkpt lat="47.30088" lon="-1.34924">
        <ele>60</ele>
        <time>2021-08-14T09:21:46.000Z</time>
      </trkpt>
      <trkpt lat="47.30084" lon="-1.34945">
        <ele>60</ele>
        <time>2021-08-14T09:21:48.000Z</time>
      </trkpt>
      <trkpt lat="47.30079" lon="-1.34965">
        <ele>59</ele>
        <time>2021-08-14T09:21:50.000Z</time>
      </trkpt>
      <trkpt lat="47.30073" lon="-1.34984">
        <ele>59</ele>
        <time>2021-08-14T09:21:52.000Z</time>
      </trkpt>
      <trkpt lat="47.30067" lon="-1.35004">
        <ele>59</ele>
        <time>2021-08-14T09:21:54.000Z</time>
      </trkpt>
      <trkpt lat="47.30061" lon="-1.35022">
        <ele>59</ele>
        <time>2021-08-14T09:21:56.000Z</time>
      </trkpt>
      <trkpt lat="47.30055" lon="-1.35041">
        <ele>59</ele>
        <time>2021-08-14T09:21:58.000Z</time>
      </trkpt>
      <trkpt lat="47.30048" lon="-1.35059">
        <ele>59</ele>
        <time>2021-08-14T09:22:00.000Z</time>
      </trkpt>
      <trkpt lat="47.30041" lon="-1.35077">
        <ele>59</ele>
        <time>2021-08-14T09:22:02.000Z</time>
      </trkpt>
      <trkpt lat="47.30033" lon="-1.35095">
        <ele>59</ele>
        <time>2021-08-14T09:22:04.000Z</time>
      </trkpt>
      <trkpt lat="47.30025" lon="-1.35112">
        <ele>59</ele>
        <time>2021-08-14T09:22:06.000Z</time>
      </trkpt>
      <trkpt lat="47.30016" lon="-1.35129">
        <ele>59</ele>
        <time>2021-08-14T09:22:08.000Z</time>
      </trkpt>
      <trkpt lat="47.30008" lon="-1.35146">
        <ele>60</ele>
        <time>2021-08-14T09:22:10.000Z</time>
      </trkpt>
      <trkpt lat="47.29999" lon="-1.35163">
        <ele>60</ele>
        <time>2021-08-14T09:22:12.000Z</time>
      </trkpt>
      <trkpt lat="47.2999" lon="-1.3518">
        <ele>60</ele>
        <time>2021-08-14T09:22:14.000Z</time>
      </trkpt>
      <trkpt lat="47.29981" lon="-1.35198">
        <ele>59</ele>
        <time>2021-08-14T09:22:16.000Z</time>
      </trkpt>
      <trkpt lat="47.29973" lon="-1.35215">
        <ele>59</ele>
        <time>2021-08-14T09:22:18.000Z</time>
      </trkpt>
      <trkpt lat="47.29963" lon="-1.35232">
        <ele>59</ele>
        <time>2021-08-14T09:22:20.000Z</time>
      </trkpt>
      <trkpt lat="47.29954" lon="-1.3525">
        <ele>59</ele>
        <time>2021-08-14T09:22:22.000Z</time>
      </trkpt>
      <trkpt lat="47.29945" lon="-1.35267">
        <ele>59</ele>
        <time>2021-08-14T09:22:24.000Z</time>
      </trkpt>
      <trkpt lat="47.29936" lon="-1.35285">
        <ele>59</ele>
        <time>2021-08-14T09:22:26.000Z</time>
      </trkpt>
      <trkpt lat="47.29926" lon="-1.35303">
        <ele>59</ele>
        <time>2021-08-14T09:22:28.000Z</time>
      </trkpt>
      <trkpt lat="47.29917" lon="-1.35322">
        <ele>59</ele>
        <time>2021-08-14T09:22:30.000Z</time>
      </trkpt>
      <trkpt lat="47.29907" lon="-1.3534">
        <ele>59</ele>
        <time>2021-08-14T09:22:32.000Z</time>
      </trkpt>
      <trkpt lat="47.29898" lon="-1.35359">
        <ele>59</ele>
        <time>2021-08-14T09:22:34.000Z</time>
      </trkpt>
      <trkpt lat="47.29889" lon="-1.35377">
        <ele>58</ele>
        <time>2021-08-14T09:22:36.000Z</time>
      </trkpt>
      <trkpt lat="47.2988" lon="-1.35395">
        <ele>58</ele>
        <time>2021-08-14T09:22:38.000Z</time>
      </trkpt>
      <trkpt lat="47.2987" lon="-1.35414">
        <ele>58</ele>
        <time>2021-08-14T09:22:40.000Z</time>
      </trkpt>
      <trkpt lat="47.29861" lon="-1.35432">
        <ele>58</ele>
        <time>2021-08-14T09:22:42.000Z</time>
      </trkpt>
      <trkpt lat="47.29851" lon="-1.35451">
        <ele>58</ele>
        <time>2021-08-14T09:22:44.000Z</time>
      </trkpt>
      <trkpt lat="47.29841" lon="-1.3547">
        <ele>58</ele>
        <time>2021-08-14T09:22:46.000Z</time>
      </trkpt>
      <trkpt lat="47.29831" lon="-1.3549">
        <ele>58</ele>
        <time>2021-08-14T09:22:48.000Z</time>
      </trkpt>
      <trkpt lat="47.2982" lon="-1.35509">
        <ele>58</ele>
        <time>2021-08-14T09:22:50.000Z</time>
      </trkpt>
      <trkpt lat="47.29811" lon="-1.35528">
        <ele>58</ele>
        <time>2021-08-14T09:22:52.000Z</time>
      </trkpt>
      <trkpt lat="47.298" lon="-1.35548">
        <ele>58</ele>
        <time>2021-08-14T09:22:54.000Z</time>
      </trkpt>
      <trkpt lat="47.2979" lon="-1.35568">
        <ele>58</ele>
        <time>2021-08-14T09:22:56.000Z</time>
      </trkpt>
      <trkpt lat="47.2978" lon="-1.35587">
        <ele>58</ele>
        <time>2021-08-14T09:22:58.000Z</time>
      </trkpt>
      <trkpt lat="47.2977" lon="-1.35606">
        <ele>58</ele>
        <time>2021-08-14T09:23:00.000Z</time>
      </trkpt>
      <trkpt lat="47.2976" lon="-1.35625">
        <ele>58</ele>
        <time>2021-08-14T09:23:02.000Z</time>
      </trkpt>
      <trkpt lat="47.29751" lon="-1.35644">
        <ele>59</ele>
        <time>2021-08-14T09:23:04.000Z</time>
      </trkpt>
      <trkpt lat="47.29741" lon="-1.35663">
        <ele>59</ele>
        <time>2021-08-14T09:23:06.000Z</time>
      </trkpt>
      <trkpt lat="47.29731" lon="-1.35683">
        <ele>58</ele>
        <time>2021-08-14T09:23:08.000Z</time>
      </trkpt>
      <trkpt lat="47.29721" lon="-1.35702">
        <ele>58</ele>
        <time>2021-08-14T09:23:10.000Z</time>
      </trkpt>
      <trkpt lat="47.29711" lon="-1.35721">
        <ele>58</ele>
        <time>2021-08-14T09:23:12.000Z</time>
      </trkpt>
      <trkpt lat="47.29701" lon="-1.3574">
        <ele>58</ele>
        <time>2021-08-14T09:23:14.000Z</time>
      </trkpt>
      <trkpt lat="47.29691" lon="-1.35759">
        <ele>59</ele>
        <time>2021-08-14T09:23:16.000Z</time>
      </trkpt>
      <trkpt lat="47.29681" lon="-1.35779">
        <ele>59</ele>
        <time>2021-08-14T09:23:18.000Z</time>
      </trkpt>
      <trkpt lat="47.29671" lon="-1.35798">
        <ele>59</ele>
        <time>2021-08-14T09:23:20.000Z</time>
      </trkpt>
      <trkpt lat="47.29661" lon="-1.35818">
        <ele>58</ele>
        <time>2021-08-14T09:23:22.000Z</time>
      </trkpt>
      <trkpt lat="47.29651" lon="-1.35837">
        <ele>58</ele>
        <time>2021-08-14T09:23:24.000Z</time>
      </trkpt>
      <trkpt lat="47.29641" lon="-1.35856">
        <ele>58</ele>
        <time>2021-08-14T09:23:26.000Z</time>
      </trkpt>
      <trkpt lat="47.29632" lon="-1.35875">
        <ele>58</ele>
        <time>2021-08-14T09:23:28.000Z</time>
      </trkpt>
      <trkpt lat="47.29621" lon="-1.35895">
        <ele>58</ele>
        <time>2021-08-14T09:23:30.000Z</time>
      </trkpt>
      <trkpt lat="47.29611" lon="-1.35914">
        <ele>58</ele>
        <time>2021-08-14T09:23:32.000Z</time>
      </trkpt>
      <trkpt lat="47.29602" lon="-1.35933">
        <ele>58</ele>
        <time>2021-08-14T09:23:34.000Z</time>
      </trkpt>
      <trkpt lat="47.29591" lon="-1.35953">
        <ele>58</ele>
        <time>2021-08-14T09:23:36.000Z</time>
      </trkpt>
      <trkpt lat="47.29582" lon="-1.35972">
        <ele>58</ele>
        <time>2021-08-14T09:23:38.000Z</time>
      </trkpt>
      <trkpt lat="47.29571" lon="-1.35992">
        <ele>58</ele>
        <time>2021-08-14T09:23:40.000Z</time>
      </trkpt>
      <trkpt lat="47.29562" lon="-1.36011">
        <ele>58</ele>
        <time>2021-08-14T09:23:42.000Z</time>
      </trkpt>
      <trkpt lat="47.29551" lon="-1.36031">
        <ele>58</ele>
        <time>2021-08-14T09:23:44.000Z</time>
      </trkpt>
      <trkpt lat="47.29541" lon="-1.3605">
        <ele>58</ele>
        <time>2021-08-14T09:23:46.000Z</time>
      </trkpt>
      <trkpt lat="47.29531" lon="-1.3607">
        <ele>58</ele>
        <time>2021-08-14T09:23:48.000Z</time>
      </trkpt>
      <trkpt lat="47.29521" lon="-1.36089">
        <ele>58</ele>
        <time>2021-08-14T09:23:50.000Z</time>
      </trkpt>
      <trkpt lat="47.29511" lon="-1.36108">
        <ele>59</ele>
        <time>2021-08-14T09:23:52.000Z</time>
      </trkpt>
      <trkpt lat="47.29502" lon="-1.36127">
        <ele>59</ele>
        <time>2021-08-14T09:23:54.000Z</time>
      </trkpt>
      <trkpt lat="47.29492" lon="-1.36146">
        <ele>58</ele>
        <time>2021-08-14T09:23:56.000Z</time>
      </trkpt>
      <trkpt lat="47.29482" lon="-1.36165">
        <ele>58</ele>
        <time>2021-08-14T09:23:58.000Z</time>
      </trkpt>
      <trkpt lat="47.29472" lon="-1.36184">
        <ele>58</ele>
        <time>2021-08-14T09:24:00.000Z</time>
      </trkpt>
      <trkpt lat="47.29462" lon="-1.36202">
        <ele>58</ele>
        <time>2021-08-14T09:24:02.000Z</time>
      </trkpt>
      <trkpt lat="47.29453" lon="-1.36221">
        <ele>58</ele>
        <time>2021-08-14T09:24:04.000Z</time>
      </trkpt>
      <trkpt lat="47.29443" lon="-1.36239">
        <ele>58</ele>
        <time>2021-08-14T09:24:06.000Z</time>
      </trkpt>
      <trkpt lat="47.29433" lon="-1.36258">
        <ele>58</ele>
        <time>2021-08-14T09:24:08.000Z</time>
      </trkpt>
      <trkpt lat="47.29424" lon="-1.36278">
        <ele>58</ele>
        <time>2021-08-14T09:24:10.000Z</time>
      </trkpt>
      <trkpt lat="47.29414" lon="-1.36297">
        <ele>58</ele>
        <time>2021-08-14T09:24:12.000Z</time>
      </trkpt>
      <trkpt lat="47.29404" lon="-1.36315">
        <ele>58</ele>
        <time>2021-08-14T09:24:14.000Z</time>
      </trkpt>
      <trkpt lat="47.29394" lon="-1.36335">
        <ele>58</ele>
        <time>2021-08-14T09:24:16.000Z</time>
      </trkpt>
      <trkpt lat="47.29385" lon="-1.36354">
        <ele>58</ele>
        <time>2021-08-14T09:24:18.000Z</time>
      </trkpt>
      <trkpt lat="47.29374" lon="-1.36373">
        <ele>58</ele>
        <time>2021-08-14T09:24:20.000Z</time>
      </trkpt>
      <trkpt lat="47.29364" lon="-1.36392">
        <ele>58</ele>
        <time>2021-08-14T09:24:22.000Z</time>
      </trkpt>
      <trkpt lat="47.29354" lon="-1.36412">
        <ele>58</ele>
        <time>2021-08-14T09:24:24.000Z</time>
      </trkpt>
      <trkpt lat="47.29344" lon="-1.36431">
        <ele>58</ele>
        <time>2021-08-14T09:24:26.000Z</time>
      </trkpt>
      <trkpt lat="47.29335" lon="-1.36451">
        <ele>58</ele>
        <time>2021-08-14T09:24:28.000Z</time>
      </trkpt>
      <trkpt lat="47.29325" lon="-1.36469">
        <ele>58</ele>
        <time>2021-08-14T09:24:30.000Z</time>
      </trkpt>
      <trkpt lat="47.29315" lon="-1.36488">
        <ele>58</ele>
        <time>2021-08-14T09:24:32.000Z</time>
      </trkpt>
      <trkpt lat="47.29305" lon="-1.36507">
        <ele>58</ele>
        <time>2021-08-14T09:24:34.000Z</time>
      </trkpt>
      <trkpt lat="47.29295" lon="-1.36526">
        <ele>59</ele>
        <time>2021-08-14T09:24:36.000Z</time>
      </trkpt>
      <trkpt lat="47.29285" lon="-1.36545">
        <ele>59</ele>
        <time>2021-08-14T09:24:38.000Z</time>
      </trkpt>
      <trkpt lat="47.29275" lon="-1.36565">
        <ele>59</ele>
        <time>2021-08-14T09:24:40.000Z</time>
      </trkpt>
      <trkpt lat="47.29266" lon="-1.36584">
        <ele>59</ele>
        <time>2021-08-14T09:24:42.000Z</time>
      </trkpt>
      <trkpt lat="47.29256" lon="-1.36603">
        <ele>59</ele>
        <time>2021-08-14T09:24:44.000Z</time>
      </trkpt>
      <trkpt lat="47.29246" lon="-1.36623">
        <ele>59</ele>
        <time>2021-08-14T09:24:46.000Z</time>
      </trkpt>
      <trkpt lat="47.29236" lon="-1.36642">
        <ele>58</ele>
        <time>2021-08-14T09:24:48.000Z</time>
      </trkpt>
      <trkpt lat="47.29226" lon="-1.36661">
        <ele>58</ele>
        <time>2021-08-14T09:24:50.000Z</time>
      </trkpt>
      <trkpt lat="47.29216" lon="-1.36681">
        <ele>58</ele>
        <time>2021-08-14T09:24:52.000Z</time>
      </trkpt>
      <trkpt lat="47.29205" lon="-1.367">
        <ele>58</ele>
        <time>2021-08-14T09:24:54.000Z</time>
      </trkpt>
      <trkpt lat="47.29195" lon="-1.36719">
        <ele>58</ele>
        <time>2021-08-14T09:24:56.000Z</time>
      </trkpt>
      <trkpt lat="47.29185" lon="-1.36739">
        <ele>58</ele>
        <time>2021-08-14T09:24:58.000Z</time>
      </trkpt>
      <trkpt lat="47.29175" lon="-1.36758">
        <ele>58</ele>
        <time>2021-08-14T09:25:00.000Z</time>
      </trkpt>
      <trkpt lat="47.29166" lon="-1.36777">
        <ele>58</ele>
        <time>2021-08-14T09:25:02.000Z</time>
      </trkpt>
      <trkpt lat="47.29155" lon="-1.36797">
        <ele>58</ele>
        <time>2021-08-14T09:25:04.000Z</time>
      </trkpt>
      <trkpt lat="47.29145" lon="-1.36816">
        <ele>58</ele>
        <time>2021-08-14T09:25:06.000Z</time>
      </trkpt>
      <trkpt lat="47.29135" lon="-1.36835">
        <ele>58</ele>
        <time>2021-08-14T09:25:08.000Z</time>
      </trkpt>
      <trkpt lat="47.29125" lon="-1.36855">
        <ele>59</ele>
        <time>2021-08-14T09:25:10.000Z</time>
      </trkpt>
      <trkpt lat="47.29115" lon="-1.36874">
        <ele>59</ele>
        <time>2021-08-14T09:25:12.000Z</time>
      </trkpt>
      <trkpt lat="47.29106" lon="-1.36893">
        <ele>59</ele>
        <time>2021-08-14T09:25:14.000Z</time>
      </trkpt>
      <trkpt lat="47.29096" lon="-1.36912">
        <ele>58</ele>
        <time>2021-08-14T09:25:16.000Z</time>
      </trkpt>
      <trkpt lat="47.29086" lon="-1.36931">
        <ele>58</ele>
        <time>2021-08-14T09:25:18.000Z</time>
      </trkpt>
      <trkpt lat="47.29076" lon="-1.3695">
        <ele>58</ele>
        <time>2021-08-14T09:25:20.000Z</time>
      </trkpt>
      <trkpt lat="47.29066" lon="-1.3697">
        <ele>59</ele>
        <time>2021-08-14T09:25:22.000Z</time>
      </trkpt>
      <trkpt lat="47.29056" lon="-1.36989">
        <ele>59</ele>
        <time>2021-08-14T09:25:24.000Z</time>
      </trkpt>
      <trkpt lat="47.29046" lon="-1.37009">
        <ele>59</ele>
        <time>2021-08-14T09:25:26.000Z</time>
      </trkpt>
      <trkpt lat="47.29036" lon="-1.37029">
        <ele>59</ele>
        <time>2021-08-14T09:25:28.000Z</time>
      </trkpt>
      <trkpt lat="47.29026" lon="-1.37047">
        <ele>59</ele>
        <time>2021-08-14T09:25:30.000Z</time>
      </trkpt>
      <trkpt lat="47.29017" lon="-1.37067">
        <ele>58</ele>
        <time>2021-08-14T09:25:32.000Z</time>
      </trkpt>
      <trkpt lat="47.29007" lon="-1.37086">
        <ele>59</ele>
        <time>2021-08-14T09:25:34.000Z</time>
      </trkpt>
      <trkpt lat="47.28998" lon="-1.37105">
        <ele>59</ele>
        <time>2021-08-14T09:25:36.000Z</time>
      </trkpt>
      <trkpt lat="47.28989" lon="-1.37124">
        <ele>59</ele>
        <time>2021-08-14T09:25:38.000Z</time>
      </trkpt>
      <trkpt lat="47.28981" lon="-1.37143">
        <ele>59</ele>
        <time>2021-08-14T09:25:40.000Z</time>
      </trkpt>
      <trkpt lat="47.28973" lon="-1.37163">
        <ele>59</ele>
        <time>2021-08-14T09:25:42.000Z</time>
      </trkpt>
      <trkpt lat="47.28965" lon="-1.37183">
        <ele>59</ele>
        <time>2021-08-14T09:25:44.000Z</time>
      </trkpt>
      <trkpt lat="47.28957" lon="-1.37202">
        <ele>59</ele>
        <time>2021-08-14T09:25:46.000Z</time>
      </trkpt>
      <trkpt lat="47.28949" lon="-1.37222">
        <ele>59</ele>
        <time>2021-08-14T09:25:48.000Z</time>
      </trkpt>
      <trkpt lat="47.28943" lon="-1.37241">
        <ele>59</ele>
        <time>2021-08-14T09:25:50.000Z</time>
      </trkpt>
      <trkpt lat="47.28936" lon="-1.37261">
        <ele>59</ele>
        <time>2021-08-14T09:25:52.000Z</time>
      </trkpt>
      <trkpt lat="47.2893" lon="-1.37281">
        <ele>59</ele>
        <time>2021-08-14T09:25:54.000Z</time>
      </trkpt>
      <trkpt lat="47.28924" lon="-1.37301">
        <ele>59</ele>
        <time>2021-08-14T09:25:56.000Z</time>
      </trkpt>
      <trkpt lat="47.28917" lon="-1.37321">
        <ele>58</ele>
        <time>2021-08-14T09:25:58.000Z</time>
      </trkpt>
      <trkpt lat="47.28911" lon="-1.37341">
        <ele>58</ele>
        <time>2021-08-14T09:26:00.000Z</time>
      </trkpt>
      <trkpt lat="47.28905" lon="-1.37361">
        <ele>58</ele>
        <time>2021-08-14T09:26:02.000Z</time>
      </trkpt>
      <trkpt lat="47.28899" lon="-1.3738">
        <ele>59</ele>
        <time>2021-08-14T09:26:04.000Z</time>
      </trkpt>
      <trkpt lat="47.28893" lon="-1.374">
        <ele>59</ele>
        <time>2021-08-14T09:26:06.000Z</time>
      </trkpt>
      <trkpt lat="47.28887" lon="-1.37419">
        <ele>59</ele>
        <time>2021-08-14T09:26:08.000Z</time>
      </trkpt>
      <trkpt lat="47.28881" lon="-1.37438">
        <ele>59</ele>
        <time>2021-08-14T09:26:10.000Z</time>
      </trkpt>
      <trkpt lat="47.28875" lon="-1.37458">
        <ele>59</ele>
        <time>2021-08-14T09:26:12.000Z</time>
      </trkpt>
      <trkpt lat="47.28868" lon="-1.37477">
        <ele>59</ele>
        <time>2021-08-14T09:26:14.000Z</time>
      </trkpt>
      <trkpt lat="47.28862" lon="-1.37496">
        <ele>59</ele>
        <time>2021-08-14T09:26:16.000Z</time>
      </trkpt>
      <trkpt lat="47.28856" lon="-1.37515">
        <ele>58</ele>
        <time>2021-08-14T09:26:18.000Z</time>
      </trkpt>
      <trkpt lat="47.2885" lon="-1.37533">
        <ele>58</ele>
        <time>2021-08-14T09:26:20.000Z</time>
      </trkpt>
      <trkpt lat="47.28845" lon="-1.3755">
        <ele>58</ele>
        <time>2021-08-14T09:26:22.000Z</time>
      </trkpt>
      <trkpt lat="47.2884" lon="-1.37567">
        <ele>59</ele>
        <time>2021-08-14T09:26:24.000Z</time>
      </trkpt>
      <trkpt lat="47.2884" lon="-1.37585">
        <ele>59</ele>
        <time>2021-08-14T09:26:26.000Z</time>
      </trkpt>
      <trkpt lat="47.28847" lon="-1.37598">
        <ele>59</ele>
        <time>2021-08-14T09:26:28.000Z</time>
      </trkpt>
      <trkpt lat="47.28857" lon="-1.37608">
        <ele>60</ele>
        <time>2021-08-14T09:26:30.000Z</time>
      </trkpt>
      <trkpt lat="47.28867" lon="-1.37619">
        <ele>60</ele>
        <time>2021-08-14T09:26:32.000Z</time>
      </trkpt>
      <trkpt lat="47.28876" lon="-1.3763">
        <ele>60</ele>
        <time>2021-08-14T09:26:34.000Z</time>
      </trkpt>
      <trkpt lat="47.28885" lon="-1.37642">
        <ele>61</ele>
        <time>2021-08-14T09:26:36.000Z</time>
      </trkpt>
      <trkpt lat="47.28895" lon="-1.37654">
        <ele>61</ele>
        <time>2021-08-14T09:26:38.000Z</time>
      </trkpt>
      <trkpt lat="47.28904" lon="-1.37664">
        <ele>62</ele>
        <time>2021-08-14T09:26:40.000Z</time>
      </trkpt>
      <trkpt lat="47.28912" lon="-1.37675">
        <ele>62</ele>
        <time>2021-08-14T09:26:42.000Z</time>
      </trkpt>
      <trkpt lat="47.2892" lon="-1.37688">
        <ele>61</ele>
        <time>2021-08-14T09:26:44.000Z</time>
      </trkpt>
      <trkpt lat="47.28931" lon="-1.37701">
        <ele>60</ele>
        <time>2021-08-14T09:26:46.000Z</time>
      </trkpt>
      <trkpt lat="47.28942" lon="-1.37714">
        <ele>59</ele>
        <time>2021-08-14T09:26:48.000Z</time>
      </trkpt>
      <trkpt lat="47.28952" lon="-1.37727">
        <ele>59</ele>
        <time>2021-08-14T09:26:50.000Z</time>
      </trkpt>
      <trkpt lat="47.28963" lon="-1.3774">
        <ele>59</ele>
        <time>2021-08-14T09:26:52.000Z</time>
      </trkpt>
      <trkpt lat="47.28973" lon="-1.37753">
        <ele>59</ele>
        <time>2021-08-14T09:26:54.000Z</time>
      </trkpt>
      <trkpt lat="47.28984" lon="-1.37765">
        <ele>58</ele>
        <time>2021-08-14T09:26:56.000Z</time>
      </trkpt>
      <trkpt lat="47.28994" lon="-1.37778">
        <ele>58</ele>
        <time>2021-08-14T09:26:58.000Z</time>
      </trkpt>
      <trkpt lat="47.29004" lon="-1.37791">
        <ele>58</ele>
        <time>2021-08-14T09:27:00.000Z</time>
      </trkpt>
      <trkpt lat="47.29014" lon="-1.37803">
        <ele>58</ele>
        <time>2021-08-14T09:27:02.000Z</time>
      </trkpt>
      <trkpt lat="47.29024" lon="-1.37815">
        <ele>58</ele>
        <time>2021-08-14T09:27:04.000Z</time>
      </trkpt>
      <trkpt lat="47.29034" lon="-1.37828">
        <ele>58</ele>
        <time>2021-08-14T09:27:06.000Z</time>
      </trkpt>
      <trkpt lat="47.29045" lon="-1.3784">
        <ele>58</ele>
        <time>2021-08-14T09:27:08.000Z</time>
      </trkpt>
      <trkpt lat="47.29055" lon="-1.37853">
        <ele>58</ele>
        <time>2021-08-14T09:27:10.000Z</time>
      </trkpt>
      <trkpt lat="47.29065" lon="-1.37865">
        <ele>59</ele>
        <time>2021-08-14T09:27:12.000Z</time>
      </trkpt>
      <trkpt lat="47.29074" lon="-1.37877">
        <ele>59</ele>
        <time>2021-08-14T09:27:14.000Z</time>
      </trkpt>
      <trkpt lat="47.29084" lon="-1.37888">
        <ele>59</ele>
        <time>2021-08-14T09:27:16.000Z</time>
      </trkpt>
      <trkpt lat="47.29094" lon="-1.37897">
        <ele>60</ele>
        <time>2021-08-14T09:27:18.000Z</time>
      </trkpt>
      <trkpt lat="47.29104" lon="-1.37907">
        <ele>60</ele>
        <time>2021-08-14T09:27:20.000Z</time>
      </trkpt>
      <trkpt lat="47.29113" lon="-1.37919">
        <ele>61</ele>
        <time>2021-08-14T09:27:22.000Z</time>
      </trkpt>
      <trkpt lat="47.29122" lon="-1.37931">
        <ele>61</ele>
        <time>2021-08-14T09:27:24.000Z</time>
      </trkpt>
      <trkpt lat="47.29132" lon="-1.37943">
        <ele>62</ele>
        <time>2021-08-14T09:27:26.000Z</time>
      </trkpt>
      <trkpt lat="47.29142" lon="-1.37955">
        <ele>62</ele>
        <time>2021-08-14T09:27:28.000Z</time>
      </trkpt>
      <trkpt lat="47.29151" lon="-1.37966">
        <ele>62</ele>
        <time>2021-08-14T09:27:30.000Z</time>
      </trkpt>
      <trkpt lat="47.29161" lon="-1.37978">
        <ele>62</ele>
        <time>2021-08-14T09:27:32.000Z</time>
      </trkpt>
      <trkpt lat="47.2917" lon="-1.3799">
        <ele>62</ele>
        <time>2021-08-14T09:27:34.000Z</time>
      </trkpt>
      <trkpt lat="47.2918" lon="-1.38002">
        <ele>62</ele>
        <time>2021-08-14T09:27:36.000Z</time>
      </trkpt>
      <trkpt lat="47.2919" lon="-1.38014">
        <ele>63</ele>
        <time>2021-08-14T09:27:38.000Z</time>
      </trkpt>
      <trkpt lat="47.29199" lon="-1.38026">
        <ele>63</ele>
        <time>2021-08-14T09:27:40.000Z</time>
      </trkpt>
      <trkpt lat="47.29208" lon="-1.38038">
        <ele>63</ele>
        <time>2021-08-14T09:27:42.000Z</time>
      </trkpt>
      <trkpt lat="47.29218" lon="-1.38049">
        <ele>64</ele>
        <time>2021-08-14T09:27:44.000Z</time>
      </trkpt>
      <trkpt lat="47.29227" lon="-1.38061">
        <ele>64</ele>
        <time>2021-08-14T09:27:46.000Z</time>
      </trkpt>
      <trkpt lat="47.29238" lon="-1.38072">
        <ele>65</ele>
        <time>2021-08-14T09:27:48.000Z</time>
      </trkpt>
      <trkpt lat="47.29248" lon="-1.38084">
        <ele>65</ele>
        <time>2021-08-14T09:27:50.000Z</time>
      </trkpt>
      <trkpt lat="47.29258" lon="-1.38097">
        <ele>65</ele>
        <time>2021-08-14T09:27:52.000Z</time>
      </trkpt>
      <trkpt lat="47.29268" lon="-1.38109">
        <ele>65</ele>
        <time>2021-08-14T09:27:54.000Z</time>
      </trkpt>
      <trkpt lat="47.29277" lon="-1.38121">
        <ele>65</ele>
        <time>2021-08-14T09:27:56.000Z</time>
      </trkpt>
      <trkpt lat="47.29288" lon="-1.38134">
        <ele>65</ele>
        <time>2021-08-14T09:27:58.000Z</time>
      </trkpt>
      <trkpt lat="47.29298" lon="-1.38146">
        <ele>65</ele>
        <time>2021-08-14T09:28:00.000Z</time>
      </trkpt>
      <trkpt lat="47.29307" lon="-1.38159">
        <ele>66</ele>
        <time>2021-08-14T09:28:02.000Z</time>
      </trkpt>
      <trkpt lat="47.29318" lon="-1.38172">
        <ele>65</ele>
        <time>2021-08-14T09:28:04.000Z</time>
      </trkpt>
      <trkpt lat="47.29329" lon="-1.38184">
        <ele>65</ele>
        <time>2021-08-14T09:28:06.000Z</time>
      </trkpt>
      <trkpt lat="47.2934" lon="-1.38197">
        <ele>65</ele>
        <time>2021-08-14T09:28:08.000Z</time>
      </trkpt>
      <trkpt lat="47.2935" lon="-1.3821">
        <ele>65</ele>
        <time>2021-08-14T09:28:10.000Z</time>
      </trkpt>
      <trkpt lat="47.2936" lon="-1.38224">
        <ele>65</ele>
        <time>2021-08-14T09:28:12.000Z</time>
      </trkpt>
      <trkpt lat="47.29371" lon="-1.38236">
        <ele>65</ele>
        <time>2021-08-14T09:28:14.000Z</time>
      </trkpt>
      <trkpt lat="47.29382" lon="-1.38249">
        <ele>65</ele>
        <time>2021-08-14T09:28:16.000Z</time>
      </trkpt>
      <trkpt lat="47.29393" lon="-1.38262">
        <ele>64</ele>
        <time>2021-08-14T09:28:18.000Z</time>
      </trkpt>
      <trkpt lat="47.29403" lon="-1.38275">
        <ele>64</ele>
        <time>2021-08-14T09:28:20.000Z</time>
      </trkpt>
      <trkpt lat="47.29413" lon="-1.38288">
        <ele>64</ele>
        <time>2021-08-14T09:28:22.000Z</time>
      </trkpt>
      <trkpt lat="47.29424" lon="-1.383">
        <ele>64</ele>
        <time>2021-08-14T09:28:24.000Z</time>
      </trkpt>
      <trkpt lat="47.29435" lon="-1.38311">
        <ele>63</ele>
        <time>2021-08-14T09:28:26.000Z</time>
      </trkpt>
      <trkpt lat="47.29443" lon="-1.38322">
        <ele>62</ele>
        <time>2021-08-14T09:28:28.000Z</time>
      </trkpt>
      <trkpt lat="47.2944" lon="-1.38336">
        <ele>61</ele>
        <time>2021-08-14T09:28:30.000Z</time>
      </trkpt>
      <trkpt lat="47.29437" lon="-1.38352">
        <ele>61</ele>
        <time>2021-08-14T09:28:32.000Z</time>
      </trkpt>
      <trkpt lat="47.29434" lon="-1.38372">
        <ele>61</ele>
        <time>2021-08-14T09:28:34.000Z</time>
      </trkpt>
      <trkpt lat="47.2943" lon="-1.38393">
        <ele>60</ele>
        <time>2021-08-14T09:28:36.000Z</time>
      </trkpt>
      <trkpt lat="47.29424" lon="-1.38414">
        <ele>59</ele>
        <time>2021-08-14T09:28:38.000Z</time>
      </trkpt>
      <trkpt lat="47.29419" lon="-1.38435">
        <ele>58</ele>
        <time>2021-08-14T09:28:40.000Z</time>
      </trkpt>
      <trkpt lat="47.29414" lon="-1.38456">
        <ele>58</ele>
        <time>2021-08-14T09:28:42.000Z</time>
      </trkpt>
      <trkpt lat="47.29409" lon="-1.38477">
        <ele>58</ele>
        <time>2021-08-14T09:28:44.000Z</time>
      </trkpt>
      <trkpt lat="47.294" lon="-1.38494">
        <ele>58</ele>
        <time>2021-08-14T09:28:46.000Z</time>
      </trkpt>
      <trkpt lat="47.29392" lon="-1.38514">
        <ele>57</ele>
        <time>2021-08-14T09:28:48.000Z</time>
      </trkpt>
      <trkpt lat="47.29386" lon="-1.38533">
        <ele>57</ele>
        <time>2021-08-14T09:28:50.000Z</time>
      </trkpt>
      <trkpt lat="47.2938" lon="-1.38553">
        <ele>58</ele>
        <time>2021-08-14T09:28:52.000Z</time>
      </trkpt>
      <trkpt lat="47.29372" lon="-1.38572">
        <ele>57</ele>
        <time>2021-08-14T09:28:54.000Z</time>
      </trkpt>
      <trkpt lat="47.29364" lon="-1.38593">
        <ele>56</ele>
        <time>2021-08-14T09:28:56.000Z</time>
      </trkpt>
      <trkpt lat="47.29357" lon="-1.38615">
        <ele>56</ele>
        <time>2021-08-14T09:28:58.000Z</time>
      </trkpt>
      <trkpt lat="47.29351" lon="-1.38638">
        <ele>56</ele>
        <time>2021-08-14T09:29:00.000Z</time>
      </trkpt>
      <trkpt lat="47.29344" lon="-1.38659">
        <ele>56</ele>
        <time>2021-08-14T09:29:02.000Z</time>
      </trkpt>
      <trkpt lat="47.29337" lon="-1.38678">
        <ele>56</ele>
        <time>2021-08-14T09:29:04.000Z</time>
      </trkpt>
      <trkpt lat="47.29331" lon="-1.38697">
        <ele>55</ele>
        <time>2021-08-14T09:29:06.000Z</time>
      </trkpt>
      <trkpt lat="47.29324" lon="-1.38716">
        <ele>55</ele>
        <time>2021-08-14T09:29:08.000Z</time>
      </trkpt>
      <trkpt lat="47.29322" lon="-1.38737">
        <ele>55</ele>
        <time>2021-08-14T09:29:10.000Z</time>
      </trkpt>
      <trkpt lat="47.29319" lon="-1.38756">
        <ele>56</ele>
        <time>2021-08-14T09:29:12.000Z</time>
      </trkpt>
      <trkpt lat="47.29314" lon="-1.38774">
        <ele>56</ele>
        <time>2021-08-14T09:29:14.000Z</time>
      </trkpt>
      <trkpt lat="47.29309" lon="-1.38793">
        <ele>55</ele>
        <time>2021-08-14T09:29:16.000Z</time>
      </trkpt>
      <trkpt lat="47.29303" lon="-1.38812">
        <ele>55</ele>
        <time>2021-08-14T09:29:18.000Z</time>
      </trkpt>
      <trkpt lat="47.29298" lon="-1.38832">
        <ele>55</ele>
        <time>2021-08-14T09:29:20.000Z</time>
      </trkpt>
      <trkpt lat="47.29292" lon="-1.38852">
        <ele>55</ele>
        <time>2021-08-14T09:29:22.000Z</time>
      </trkpt>
      <trkpt lat="47.29287" lon="-1.38872">
        <ele>55</ele>
        <time>2021-08-14T09:29:24.000Z</time>
      </trkpt>
      <trkpt lat="47.29282" lon="-1.38892">
        <ele>55</ele>
        <time>2021-08-14T09:29:26.000Z</time>
      </trkpt>
      <trkpt lat="47.29276" lon="-1.38912">
        <ele>55</ele>
        <time>2021-08-14T09:29:28.000Z</time>
      </trkpt>
      <trkpt lat="47.29271" lon="-1.38931">
        <ele>55</ele>
        <time>2021-08-14T09:29:30.000Z</time>
      </trkpt>
      <trkpt lat="47.29265" lon="-1.38951">
        <ele>55</ele>
        <time>2021-08-14T09:29:32.000Z</time>
      </trkpt>
      <trkpt lat="47.2926" lon="-1.3897">
        <ele>56</ele>
        <time>2021-08-14T09:29:34.000Z</time>
      </trkpt>
      <trkpt lat="47.29255" lon="-1.38989">
        <ele>56</ele>
        <time>2021-08-14T09:29:36.000Z</time>
      </trkpt>
      <trkpt lat="47.2925" lon="-1.39009">
        <ele>56</ele>
        <time>2021-08-14T09:29:38.000Z</time>
      </trkpt>
      <trkpt lat="47.29245" lon="-1.39028">
        <ele>56</ele>
        <time>2021-08-14T09:29:40.000Z</time>
      </trkpt>
      <trkpt lat="47.2924" lon="-1.39047">
        <ele>56</ele>
        <time>2021-08-14T09:29:42.000Z</time>
      </trkpt>
      <trkpt lat="47.29234" lon="-1.39066">
        <ele>56</ele>
        <time>2021-08-14T09:29:44.000Z</time>
      </trkpt>
      <trkpt lat="47.29228" lon="-1.39084">
        <ele>56</ele>
        <time>2021-08-14T09:29:46.000Z</time>
      </trkpt>
      <trkpt lat="47.2922" lon="-1.39101">
        <ele>55</ele>
        <time>2021-08-14T09:29:48.000Z</time>
      </trkpt>
      <trkpt lat="47.29212" lon="-1.39117">
        <ele>56</ele>
        <time>2021-08-14T09:29:50.000Z</time>
      </trkpt>
      <trkpt lat="47.29202" lon="-1.39131">
        <ele>56</ele>
        <time>2021-08-14T09:29:52.000Z</time>
      </trkpt>
      <trkpt lat="47.29191" lon="-1.39145">
        <ele>56</ele>
        <time>2021-08-14T09:29:54.000Z</time>
      </trkpt>
      <trkpt lat="47.2918" lon="-1.39158">
        <ele>56</ele>
        <time>2021-08-14T09:29:56.000Z</time>
      </trkpt>
      <trkpt lat="47.29168" lon="-1.39171">
        <ele>56</ele>
        <time>2021-08-14T09:29:58.000Z</time>
      </trkpt>
      <trkpt lat="47.29157" lon="-1.39184">
        <ele>56</ele>
        <time>2021-08-14T09:30:00.000Z</time>
      </trkpt>
      <trkpt lat="47.29146" lon="-1.39197">
        <ele>56</ele>
        <time>2021-08-14T09:30:02.000Z</time>
      </trkpt>
      <trkpt lat="47.29135" lon="-1.3921">
        <ele>56</ele>
        <time>2021-08-14T09:30:04.000Z</time>
      </trkpt>
      <trkpt lat="47.29124" lon="-1.39223">
        <ele>56</ele>
        <time>2021-08-14T09:30:06.000Z</time>
      </trkpt>
      <trkpt lat="47.29114" lon="-1.39236">
        <ele>56</ele>
        <time>2021-08-14T09:30:08.000Z</time>
      </trkpt>
      <trkpt lat="47.29104" lon="-1.3925">
        <ele>56</ele>
        <time>2021-08-14T09:30:10.000Z</time>
      </trkpt>
      <trkpt lat="47.29095" lon="-1.39265">
        <ele>56</ele>
        <time>2021-08-14T09:30:12.000Z</time>
      </trkpt>
      <trkpt lat="47.29087" lon="-1.3928">
        <ele>56</ele>
        <time>2021-08-14T09:30:14.000Z</time>
      </trkpt>
      <trkpt lat="47.29079" lon="-1.39294">
        <ele>57</ele>
        <time>2021-08-14T09:30:16.000Z</time>
      </trkpt>
      <trkpt lat="47.29069" lon="-1.39306">
        <ele>56</ele>
        <time>2021-08-14T09:30:18.000Z</time>
      </trkpt>
      <trkpt lat="47.29058" lon="-1.39316">
        <ele>57</ele>
        <time>2021-08-14T09:30:20.000Z</time>
      </trkpt>
      <trkpt lat="47.29047" lon="-1.39327">
        <ele>58</ele>
        <time>2021-08-14T09:30:22.000Z</time>
      </trkpt>
      <trkpt lat="47.29037" lon="-1.3934">
        <ele>58</ele>
        <time>2021-08-14T09:30:24.000Z</time>
      </trkpt>
      <trkpt lat="47.29026" lon="-1.39353">
        <ele>58</ele>
        <time>2021-08-14T09:30:26.000Z</time>
      </trkpt>
      <trkpt lat="47.29017" lon="-1.39366">
        <ele>58</ele>
        <time>2021-08-14T09:30:28.000Z</time>
      </trkpt>
      <trkpt lat="47.29008" lon="-1.3938">
        <ele>59</ele>
        <time>2021-08-14T09:30:30.000Z</time>
      </trkpt>
      <trkpt lat="47.28998" lon="-1.39394">
        <ele>58</ele>
        <time>2021-08-14T09:30:32.000Z</time>
      </trkpt>
      <trkpt lat="47.28988" lon="-1.39406">
        <ele>59</ele>
        <time>2021-08-14T09:30:34.000Z</time>
      </trkpt>
      <trkpt lat="47.28978" lon="-1.39419">
        <ele>58</ele>
        <time>2021-08-14T09:30:36.000Z</time>
      </trkpt>
      <trkpt lat="47.28968" lon="-1.39432">
        <ele>58</ele>
        <time>2021-08-14T09:30:38.000Z</time>
      </trkpt>
      <trkpt lat="47.28957" lon="-1.39445">
        <ele>58</ele>
        <time>2021-08-14T09:30:40.000Z</time>
      </trkpt>
      <trkpt lat="47.28947" lon="-1.39457">
        <ele>58</ele>
        <time>2021-08-14T09:30:42.000Z</time>
      </trkpt>
      <trkpt lat="47.28937" lon="-1.39469">
        <ele>59</ele>
        <time>2021-08-14T09:30:44.000Z</time>
      </trkpt>
      <trkpt lat="47.28927" lon="-1.39482">
        <ele>59</ele>
        <time>2021-08-14T09:30:46.000Z</time>
      </trkpt>
      <trkpt lat="47.28916" lon="-1.39495">
        <ele>59</ele>
        <time>2021-08-14T09:30:48.000Z</time>
      </trkpt>
      <trkpt lat="47.28906" lon="-1.39507">
        <ele>59</ele>
        <time>2021-08-14T09:30:50.000Z</time>
      </trkpt>
      <trkpt lat="47.28896" lon="-1.3952">
        <ele>59</ele>
        <time>2021-08-14T09:30:52.000Z</time>
      </trkpt>
      <trkpt lat="47.28885" lon="-1.39532">
        <ele>59</ele>
        <time>2021-08-14T09:30:54.000Z</time>
      </trkpt>
      <trkpt lat="47.28874" lon="-1.39545">
        <ele>59</ele>
        <time>2021-08-14T09:30:56.000Z</time>
      </trkpt>
      <trkpt lat="47.28864" lon="-1.39557">
        <ele>59</ele>
        <time>2021-08-14T09:30:58.000Z</time>
      </trkpt>
      <trkpt lat="47.28853" lon="-1.3957">
        <ele>60</ele>
        <time>2021-08-14T09:31:00.000Z</time>
      </trkpt>
      <trkpt lat="47.28843" lon="-1.39583">
        <ele>60</ele>
        <time>2021-08-14T09:31:02.000Z</time>
      </trkpt>
      <trkpt lat="47.28832" lon="-1.39596">
        <ele>59</ele>
        <time>2021-08-14T09:31:04.000Z</time>
      </trkpt>
      <trkpt lat="47.28822" lon="-1.39609">
        <ele>60</ele>
        <time>2021-08-14T09:31:06.000Z</time>
      </trkpt>
      <trkpt lat="47.28812" lon="-1.39622">
        <ele>59</ele>
        <time>2021-08-14T09:31:08.000Z</time>
      </trkpt>
      <trkpt lat="47.28801" lon="-1.39634">
        <ele>59</ele>
        <time>2021-08-14T09:31:10.000Z</time>
      </trkpt>
      <trkpt lat="47.28791" lon="-1.39647">
        <ele>59</ele>
        <time>2021-08-14T09:31:12.000Z</time>
      </trkpt>
      <trkpt lat="47.2878" lon="-1.39659">
        <ele>59</ele>
        <time>2021-08-14T09:31:14.000Z</time>
      </trkpt>
      <trkpt lat="47.28764" lon="-1.39678">
        <ele>60</ele>
        <time>2021-08-14T09:31:17.000Z</time>
      </trkpt>
      <trkpt lat="47.28755" lon="-1.39691">
        <ele>60</ele>
        <time>2021-08-14T09:31:19.000Z</time>
      </trkpt>
      <trkpt lat="47.28745" lon="-1.39704">
        <ele>60</ele>
        <time>2021-08-14T09:31:21.000Z</time>
      </trkpt>
      <trkpt lat="47.28728" lon="-1.39723">
        <ele>60</ele>
        <time>2021-08-14T09:31:24.000Z</time>
      </trkpt>
      <trkpt lat="47.28712" lon="-1.39742">
        <ele>60</ele>
        <time>2021-08-14T09:31:27.000Z</time>
      </trkpt>
      <trkpt lat="47.28701" lon="-1.39754">
        <ele>60</ele>
        <time>2021-08-14T09:31:29.000Z</time>
      </trkpt>
      <trkpt lat="47.2869" lon="-1.39766">
        <ele>60</ele>
        <time>2021-08-14T09:31:31.000Z</time>
      </trkpt>
      <trkpt lat="47.2868" lon="-1.39778">
        <ele>60</ele>
        <time>2021-08-14T09:31:33.000Z</time>
      </trkpt>
      <trkpt lat="47.2867" lon="-1.39792">
        <ele>60</ele>
        <time>2021-08-14T09:31:35.000Z</time>
      </trkpt>
      <trkpt lat="47.28661" lon="-1.39807">
        <ele>59</ele>
        <time>2021-08-14T09:31:37.000Z</time>
      </trkpt>
      <trkpt lat="47.28651" lon="-1.39822">
        <ele>58</ele>
        <time>2021-08-14T09:31:39.000Z</time>
      </trkpt>
      <trkpt lat="47.28641" lon="-1.39837">
        <ele>58</ele>
        <time>2021-08-14T09:31:41.000Z</time>
      </trkpt>
      <trkpt lat="47.28631" lon="-1.39852">
        <ele>58</ele>
        <time>2021-08-14T09:31:43.000Z</time>
      </trkpt>
      <trkpt lat="47.28622" lon="-1.39866">
        <ele>57</ele>
        <time>2021-08-14T09:31:45.000Z</time>
      </trkpt>
      <trkpt lat="47.28612" lon="-1.3988">
        <ele>57</ele>
        <time>2021-08-14T09:31:47.000Z</time>
      </trkpt>
      <trkpt lat="47.28603" lon="-1.39895">
        <ele>58</ele>
        <time>2021-08-14T09:31:49.000Z</time>
      </trkpt>
      <trkpt lat="47.28593" lon="-1.39909">
        <ele>58</ele>
        <time>2021-08-14T09:31:51.000Z</time>
      </trkpt>
      <trkpt lat="47.28584" lon="-1.39923">
        <ele>59</ele>
        <time>2021-08-14T09:31:53.000Z</time>
      </trkpt>
      <trkpt lat="47.28575" lon="-1.39937">
        <ele>59</ele>
        <time>2021-08-14T09:31:55.000Z</time>
      </trkpt>
      <trkpt lat="47.28565" lon="-1.39951">
        <ele>59</ele>
        <time>2021-08-14T09:31:57.000Z</time>
      </trkpt>
      <trkpt lat="47.28556" lon="-1.39966">
        <ele>59</ele>
        <time>2021-08-14T09:31:59.000Z</time>
      </trkpt>
      <trkpt lat="47.28546" lon="-1.39979">
        <ele>59</ele>
        <time>2021-08-14T09:32:01.000Z</time>
      </trkpt>
      <trkpt lat="47.28536" lon="-1.39993">
        <ele>59</ele>
        <time>2021-08-14T09:32:03.000Z</time>
      </trkpt>
      <trkpt lat="47.28528" lon="-1.40006">
        <ele>59</ele>
        <time>2021-08-14T09:32:05.000Z</time>
      </trkpt>
      <trkpt lat="47.28519" lon="-1.4002">
        <ele>60</ele>
        <time>2021-08-14T09:32:07.000Z</time>
      </trkpt>
      <trkpt lat="47.2851" lon="-1.40034">
        <ele>60</ele>
        <time>2021-08-14T09:32:09.000Z</time>
      </trkpt>
      <trkpt lat="47.28502" lon="-1.40047">
        <ele>61</ele>
        <time>2021-08-14T09:32:11.000Z</time>
      </trkpt>
      <trkpt lat="47.28493" lon="-1.40063">
        <ele>61</ele>
        <time>2021-08-14T09:32:13.000Z</time>
      </trkpt>
      <trkpt lat="47.28485" lon="-1.4008">
        <ele>61</ele>
        <time>2021-08-14T09:32:15.000Z</time>
      </trkpt>
      <trkpt lat="47.28478" lon="-1.40097">
        <ele>61</ele>
        <time>2021-08-14T09:32:17.000Z</time>
      </trkpt>
      <trkpt lat="47.28471" lon="-1.40114">
        <ele>61</ele>
        <time>2021-08-14T09:32:19.000Z</time>
      </trkpt>
      <trkpt lat="47.28465" lon="-1.40132">
        <ele>61</ele>
        <time>2021-08-14T09:32:21.000Z</time>
      </trkpt>
      <trkpt lat="47.28457" lon="-1.40151">
        <ele>61</ele>
        <time>2021-08-14T09:32:23.000Z</time>
      </trkpt>
      <trkpt lat="47.2845" lon="-1.40169">
        <ele>61</ele>
        <time>2021-08-14T09:32:25.000Z</time>
      </trkpt>
      <trkpt lat="47.28444" lon="-1.40186">
        <ele>60</ele>
        <time>2021-08-14T09:32:27.000Z</time>
      </trkpt>
      <trkpt lat="47.28436" lon="-1.40203">
        <ele>60</ele>
        <time>2021-08-14T09:32:29.000Z</time>
      </trkpt>
      <trkpt lat="47.28429" lon="-1.4022">
        <ele>60</ele>
        <time>2021-08-14T09:32:31.000Z</time>
      </trkpt>
      <trkpt lat="47.28421" lon="-1.40236">
        <ele>59</ele>
        <time>2021-08-14T09:32:33.000Z</time>
      </trkpt>
      <trkpt lat="47.28414" lon="-1.40252">
        <ele>60</ele>
        <time>2021-08-14T09:32:35.000Z</time>
      </trkpt>
      <trkpt lat="47.28406" lon="-1.40269">
        <ele>60</ele>
        <time>2021-08-14T09:32:37.000Z</time>
      </trkpt>
      <trkpt lat="47.28399" lon="-1.40286">
        <ele>60</ele>
        <time>2021-08-14T09:32:39.000Z</time>
      </trkpt>
      <trkpt lat="47.28392" lon="-1.40303">
        <ele>59</ele>
        <time>2021-08-14T09:32:41.000Z</time>
      </trkpt>
      <trkpt lat="47.28383" lon="-1.40318">
        <ele>59</ele>
        <time>2021-08-14T09:32:43.000Z</time>
      </trkpt>
      <trkpt lat="47.28373" lon="-1.40334">
        <ele>59</ele>
        <time>2021-08-14T09:32:45.000Z</time>
      </trkpt>
      <trkpt lat="47.28364" lon="-1.40348">
        <ele>59</ele>
        <time>2021-08-14T09:32:47.000Z</time>
      </trkpt>
      <trkpt lat="47.28354" lon="-1.40362">
        <ele>59</ele>
        <time>2021-08-14T09:32:49.000Z</time>
      </trkpt>
      <trkpt lat="47.28343" lon="-1.40375">
        <ele>58</ele>
        <time>2021-08-14T09:32:51.000Z</time>
      </trkpt>
      <trkpt lat="47.28332" lon="-1.4039">
        <ele>58</ele>
        <time>2021-08-14T09:32:53.000Z</time>
      </trkpt>
      <trkpt lat="47.28322" lon="-1.40403">
        <ele>58</ele>
        <time>2021-08-14T09:32:55.000Z</time>
      </trkpt>
      <trkpt lat="47.28312" lon="-1.40416">
        <ele>58</ele>
        <time>2021-08-14T09:32:57.000Z</time>
      </trkpt>
      <trkpt lat="47.283" lon="-1.40428">
        <ele>58</ele>
        <time>2021-08-14T09:32:59.000Z</time>
      </trkpt>
      <trkpt lat="47.28289" lon="-1.4044">
        <ele>58</ele>
        <time>2021-08-14T09:33:01.000Z</time>
      </trkpt>
      <trkpt lat="47.28278" lon="-1.40451">
        <ele>58</ele>
        <time>2021-08-14T09:33:03.000Z</time>
      </trkpt>
      <trkpt lat="47.28266" lon="-1.40462">
        <ele>58</ele>
        <time>2021-08-14T09:33:05.000Z</time>
      </trkpt>
      <trkpt lat="47.28255" lon="-1.40472">
        <ele>59</ele>
        <time>2021-08-14T09:33:07.000Z</time>
      </trkpt>
      <trkpt lat="47.28244" lon="-1.40484">
        <ele>59</ele>
        <time>2021-08-14T09:33:09.000Z</time>
      </trkpt>
      <trkpt lat="47.28233" lon="-1.40495">
        <ele>59</ele>
        <time>2021-08-14T09:33:11.000Z</time>
      </trkpt>
      <trkpt lat="47.28223" lon="-1.40506">
        <ele>59</ele>
        <time>2021-08-14T09:33:13.000Z</time>
      </trkpt>
      <trkpt lat="47.28211" lon="-1.40517">
        <ele>59</ele>
        <time>2021-08-14T09:33:15.000Z</time>
      </trkpt>
      <trkpt lat="47.282" lon="-1.40529">
        <ele>59</ele>
        <time>2021-08-14T09:33:17.000Z</time>
      </trkpt>
      <trkpt lat="47.28188" lon="-1.40539">
        <ele>58</ele>
        <time>2021-08-14T09:33:19.000Z</time>
      </trkpt>
      <trkpt lat="47.28177" lon="-1.4055">
        <ele>58</ele>
        <time>2021-08-14T09:33:21.000Z</time>
      </trkpt>
      <trkpt lat="47.28165" lon="-1.40561">
        <ele>58</ele>
        <time>2021-08-14T09:33:23.000Z</time>
      </trkpt>
      <trkpt lat="47.28154" lon="-1.40572">
        <ele>58</ele>
        <time>2021-08-14T09:33:25.000Z</time>
      </trkpt>
      <trkpt lat="47.28143" lon="-1.40584">
        <ele>58</ele>
        <time>2021-08-14T09:33:27.000Z</time>
      </trkpt>
      <trkpt lat="47.28132" lon="-1.40595">
        <ele>58</ele>
        <time>2021-08-14T09:33:29.000Z</time>
      </trkpt>
      <trkpt lat="47.2812" lon="-1.40606">
        <ele>59</ele>
        <time>2021-08-14T09:33:31.000Z</time>
      </trkpt>
      <trkpt lat="47.28108" lon="-1.40617">
        <ele>58</ele>
        <time>2021-08-14T09:33:33.000Z</time>
      </trkpt>
      <trkpt lat="47.28097" lon="-1.4063">
        <ele>59</ele>
        <time>2021-08-14T09:33:35.000Z</time>
      </trkpt>
      <trkpt lat="47.28085" lon="-1.40641">
        <ele>59</ele>
        <time>2021-08-14T09:33:37.000Z</time>
      </trkpt>
      <trkpt lat="47.28074" lon="-1.40652">
        <ele>59</ele>
        <time>2021-08-14T09:33:39.000Z</time>
      </trkpt>
      <trkpt lat="47.28062" lon="-1.40662">
        <ele>59</ele>
        <time>2021-08-14T09:33:41.000Z</time>
      </trkpt>
      <trkpt lat="47.28051" lon="-1.40673">
        <ele>59</ele>
        <time>2021-08-14T09:33:43.000Z</time>
      </trkpt>
      <trkpt lat="47.28039" lon="-1.40685">
        <ele>59</ele>
        <time>2021-08-14T09:33:45.000Z</time>
      </trkpt>
      <trkpt lat="47.28027" lon="-1.40696">
        <ele>58</ele>
        <time>2021-08-14T09:33:47.000Z</time>
      </trkpt>
      <trkpt lat="47.28016" lon="-1.40708">
        <ele>58</ele>
        <time>2021-08-14T09:33:49.000Z</time>
      </trkpt>
      <trkpt lat="47.28005" lon="-1.4072">
        <ele>57</ele>
        <time>2021-08-14T09:33:51.000Z</time>
      </trkpt>
      <trkpt lat="47.27992" lon="-1.40731">
        <ele>57</ele>
        <time>2021-08-14T09:33:53.000Z</time>
      </trkpt>
      <trkpt lat="47.2798" lon="-1.40741">
        <ele>56</ele>
        <time>2021-08-14T09:33:55.000Z</time>
      </trkpt>
      <trkpt lat="47.27968" lon="-1.40753">
        <ele>56</ele>
        <time>2021-08-14T09:33:57.000Z</time>
      </trkpt>
      <trkpt lat="47.27957" lon="-1.40764">
        <ele>56</ele>
        <time>2021-08-14T09:33:59.000Z</time>
      </trkpt>
      <trkpt lat="47.27944" lon="-1.40774">
        <ele>56</ele>
        <time>2021-08-14T09:34:01.000Z</time>
      </trkpt>
      <trkpt lat="47.27932" lon="-1.40785">
        <ele>56</ele>
        <time>2021-08-14T09:34:03.000Z</time>
      </trkpt>
      <trkpt lat="47.2792" lon="-1.40796">
        <ele>56</ele>
        <time>2021-08-14T09:34:05.000Z</time>
      </trkpt>
      <trkpt lat="47.27909" lon="-1.40807">
        <ele>56</ele>
        <time>2021-08-14T09:34:07.000Z</time>
      </trkpt>
      <trkpt lat="47.27897" lon="-1.40819">
        <ele>56</ele>
        <time>2021-08-14T09:34:09.000Z</time>
      </trkpt>
      <trkpt lat="47.27887" lon="-1.40831">
        <ele>56</ele>
        <time>2021-08-14T09:34:11.000Z</time>
      </trkpt>
      <trkpt lat="47.27878" lon="-1.40846">
        <ele>56</ele>
        <time>2021-08-14T09:34:13.000Z</time>
      </trkpt>
      <trkpt lat="47.2787" lon="-1.40862">
        <ele>56</ele>
        <time>2021-08-14T09:34:15.000Z</time>
      </trkpt>
      <trkpt lat="47.27862" lon="-1.40879">
        <ele>56</ele>
        <time>2021-08-14T09:34:17.000Z</time>
      </trkpt>
      <trkpt lat="47.27854" lon="-1.40896">
        <ele>56</ele>
        <time>2021-08-14T09:34:19.000Z</time>
      </trkpt>
      <trkpt lat="47.27846" lon="-1.40913">
        <ele>56</ele>
        <time>2021-08-14T09:34:21.000Z</time>
      </trkpt>
      <trkpt lat="47.27839" lon="-1.40929">
        <ele>56</ele>
        <time>2021-08-14T09:34:23.000Z</time>
      </trkpt>
      <trkpt lat="47.2783" lon="-1.40945">
        <ele>57</ele>
        <time>2021-08-14T09:34:25.000Z</time>
      </trkpt>
      <trkpt lat="47.27822" lon="-1.40961">
        <ele>57</ele>
        <time>2021-08-14T09:34:27.000Z</time>
      </trkpt>
      <trkpt lat="47.27813" lon="-1.40977">
        <ele>56</ele>
        <time>2021-08-14T09:34:29.000Z</time>
      </trkpt>
      <trkpt lat="47.27804" lon="-1.40993">
        <ele>57</ele>
        <time>2021-08-14T09:34:31.000Z</time>
      </trkpt>
      <trkpt lat="47.27794" lon="-1.41006">
        <ele>57</ele>
        <time>2021-08-14T09:34:33.000Z</time>
      </trkpt>
      <trkpt lat="47.27784" lon="-1.4102">
        <ele>57</ele>
        <time>2021-08-14T09:34:35.000Z</time>
      </trkpt>
      <trkpt lat="47.27777" lon="-1.41034">
        <ele>57</ele>
        <time>2021-08-14T09:34:37.000Z</time>
      </trkpt>
      <trkpt lat="47.2777" lon="-1.41052">
        <ele>56</ele>
        <time>2021-08-14T09:34:39.000Z</time>
      </trkpt>
      <trkpt lat="47.27762" lon="-1.4107">
        <ele>57</ele>
        <time>2021-08-14T09:34:41.000Z</time>
      </trkpt>
      <trkpt lat="47.27752" lon="-1.41084">
        <ele>57</ele>
        <time>2021-08-14T09:34:43.000Z</time>
      </trkpt>
      <trkpt lat="47.27741" lon="-1.41095">
        <ele>57</ele>
        <time>2021-08-14T09:34:45.000Z</time>
      </trkpt>
      <trkpt lat="47.27729" lon="-1.41106">
        <ele>57</ele>
        <time>2021-08-14T09:34:47.000Z</time>
      </trkpt>
      <trkpt lat="47.27717" lon="-1.41118">
        <ele>57</ele>
        <time>2021-08-14T09:34:49.000Z</time>
      </trkpt>
      <trkpt lat="47.27706" lon="-1.4113">
        <ele>57</ele>
        <time>2021-08-14T09:34:51.000Z</time>
      </trkpt>
      <trkpt lat="47.27694" lon="-1.41142">
        <ele>56</ele>
        <time>2021-08-14T09:34:53.000Z</time>
      </trkpt>
      <trkpt lat="47.27683" lon="-1.41155">
        <ele>56</ele>
        <time>2021-08-14T09:34:55.000Z</time>
      </trkpt>
      <trkpt lat="47.27673" lon="-1.41169">
        <ele>57</ele>
        <time>2021-08-14T09:34:57.000Z</time>
      </trkpt>
      <trkpt lat="47.27661" lon="-1.4118">
        <ele>57</ele>
        <time>2021-08-14T09:34:59.000Z</time>
      </trkpt>
      <trkpt lat="47.2765" lon="-1.41192">
        <ele>57</ele>
        <time>2021-08-14T09:35:01.000Z</time>
      </trkpt>
      <trkpt lat="47.27639" lon="-1.41203">
        <ele>57</ele>
        <time>2021-08-14T09:35:03.000Z</time>
      </trkpt>
      <trkpt lat="47.27628" lon="-1.41214">
        <ele>57</ele>
        <time>2021-08-14T09:35:05.000Z</time>
      </trkpt>
      <trkpt lat="47.27616" lon="-1.41226">
        <ele>57</ele>
        <time>2021-08-14T09:35:07.000Z</time>
      </trkpt>
      <trkpt lat="47.27605" lon="-1.41238">
        <ele>57</ele>
        <time>2021-08-14T09:35:09.000Z</time>
      </trkpt>
      <trkpt lat="47.27593" lon="-1.41251">
        <ele>56</ele>
        <time>2021-08-14T09:35:11.000Z</time>
      </trkpt>
      <trkpt lat="47.27582" lon="-1.41263">
        <ele>56</ele>
        <time>2021-08-14T09:35:13.000Z</time>
      </trkpt>
      <trkpt lat="47.27571" lon="-1.41277">
        <ele>56</ele>
        <time>2021-08-14T09:35:15.000Z</time>
      </trkpt>
      <trkpt lat="47.2756" lon="-1.4129">
        <ele>56</ele>
        <time>2021-08-14T09:35:17.000Z</time>
      </trkpt>
      <trkpt lat="47.27549" lon="-1.41302">
        <ele>56</ele>
        <time>2021-08-14T09:35:19.000Z</time>
      </trkpt>
      <trkpt lat="47.27539" lon="-1.41317">
        <ele>56</ele>
        <time>2021-08-14T09:35:21.000Z</time>
      </trkpt>
      <trkpt lat="47.27528" lon="-1.41331">
        <ele>56</ele>
        <time>2021-08-14T09:35:23.000Z</time>
      </trkpt>
      <trkpt lat="47.27518" lon="-1.41346">
        <ele>56</ele>
        <time>2021-08-14T09:35:25.000Z</time>
      </trkpt>
      <trkpt lat="47.27507" lon="-1.4136">
        <ele>56</ele>
        <time>2021-08-14T09:35:27.000Z</time>
      </trkpt>
      <trkpt lat="47.27498" lon="-1.41375">
        <ele>56</ele>
        <time>2021-08-14T09:35:29.000Z</time>
      </trkpt>
      <trkpt lat="47.27488" lon="-1.4139">
        <ele>56</ele>
        <time>2021-08-14T09:35:31.000Z</time>
      </trkpt>
      <trkpt lat="47.27479" lon="-1.41406">
        <ele>56</ele>
        <time>2021-08-14T09:35:33.000Z</time>
      </trkpt>
      <trkpt lat="47.2747" lon="-1.41423">
        <ele>56</ele>
        <time>2021-08-14T09:35:35.000Z</time>
      </trkpt>
      <trkpt lat="47.27461" lon="-1.41439">
        <ele>56</ele>
        <time>2021-08-14T09:35:37.000Z</time>
      </trkpt>
      <trkpt lat="47.27452" lon="-1.41455">
        <ele>56</ele>
        <time>2021-08-14T09:35:39.000Z</time>
      </trkpt>
      <trkpt lat="47.27443" lon="-1.41472">
        <ele>56</ele>
        <time>2021-08-14T09:35:41.000Z</time>
      </trkpt>
      <trkpt lat="47.27434" lon="-1.41487">
        <ele>56</ele>
        <time>2021-08-14T09:35:43.000Z</time>
      </trkpt>
      <trkpt lat="47.27424" lon="-1.41503">
        <ele>56</ele>
        <time>2021-08-14T09:35:45.000Z</time>
      </trkpt>
      <trkpt lat="47.27415" lon="-1.41519">
        <ele>56</ele>
        <time>2021-08-14T09:35:47.000Z</time>
      </trkpt>
      <trkpt lat="47.27406" lon="-1.41534">
        <ele>55</ele>
        <time>2021-08-14T09:35:49.000Z</time>
      </trkpt>
      <trkpt lat="47.27396" lon="-1.41548">
        <ele>56</ele>
        <time>2021-08-14T09:35:51.000Z</time>
      </trkpt>
      <trkpt lat="47.27387" lon="-1.41564">
        <ele>56</ele>
        <time>2021-08-14T09:35:53.000Z</time>
      </trkpt>
      <trkpt lat="47.27377" lon="-1.41579">
        <ele>57</ele>
        <time>2021-08-14T09:35:55.000Z</time>
      </trkpt>
      <trkpt lat="47.27367" lon="-1.41594">
        <ele>57</ele>
        <time>2021-08-14T09:35:57.000Z</time>
      </trkpt>
      <trkpt lat="47.27357" lon="-1.41609">
        <ele>56</ele>
        <time>2021-08-14T09:35:59.000Z</time>
      </trkpt>
      <trkpt lat="47.27347" lon="-1.41624">
        <ele>56</ele>
        <time>2021-08-14T09:36:01.000Z</time>
      </trkpt>
      <trkpt lat="47.27337" lon="-1.41639">
        <ele>56</ele>
        <time>2021-08-14T09:36:03.000Z</time>
      </trkpt>
      <trkpt lat="47.27327" lon="-1.41654">
        <ele>56</ele>
        <time>2021-08-14T09:36:05.000Z</time>
      </trkpt>
      <trkpt lat="47.27318" lon="-1.41671">
        <ele>56</ele>
        <time>2021-08-14T09:36:07.000Z</time>
      </trkpt>
      <trkpt lat="47.2731" lon="-1.41686">
        <ele>56</ele>
        <time>2021-08-14T09:36:09.000Z</time>
      </trkpt>
      <trkpt lat="47.27302" lon="-1.41703">
        <ele>57</ele>
        <time>2021-08-14T09:36:11.000Z</time>
      </trkpt>
      <trkpt lat="47.27293" lon="-1.4172">
        <ele>56</ele>
        <time>2021-08-14T09:36:13.000Z</time>
      </trkpt>
      <trkpt lat="47.27285" lon="-1.41737">
        <ele>57</ele>
        <time>2021-08-14T09:36:15.000Z</time>
      </trkpt>
      <trkpt lat="47.27276" lon="-1.41754">
        <ele>57</ele>
        <time>2021-08-14T09:36:17.000Z</time>
      </trkpt>
      <trkpt lat="47.27267" lon="-1.41771">
        <ele>57</ele>
        <time>2021-08-14T09:36:19.000Z</time>
      </trkpt>
      <trkpt lat="47.27258" lon="-1.41787">
        <ele>57</ele>
        <time>2021-08-14T09:36:21.000Z</time>
      </trkpt>
      <trkpt lat="47.27249" lon="-1.41804">
        <ele>57</ele>
        <time>2021-08-14T09:36:23.000Z</time>
      </trkpt>
      <trkpt lat="47.27241" lon="-1.4182">
        <ele>57</ele>
        <time>2021-08-14T09:36:25.000Z</time>
      </trkpt>
      <trkpt lat="47.27231" lon="-1.41836">
        <ele>57</ele>
        <time>2021-08-14T09:36:27.000Z</time>
      </trkpt>
      <trkpt lat="47.27222" lon="-1.41853">
        <ele>58</ele>
        <time>2021-08-14T09:36:29.000Z</time>
      </trkpt>
      <trkpt lat="47.27212" lon="-1.41871">
        <ele>57</ele>
        <time>2021-08-14T09:36:31.000Z</time>
      </trkpt>
      <trkpt lat="47.27202" lon="-1.41888">
        <ele>57</ele>
        <time>2021-08-14T09:36:33.000Z</time>
      </trkpt>
      <trkpt lat="47.27192" lon="-1.41905">
        <ele>57</ele>
        <time>2021-08-14T09:36:35.000Z</time>
      </trkpt>
      <trkpt lat="47.27183" lon="-1.41922">
        <ele>57</ele>
        <time>2021-08-14T09:36:37.000Z</time>
      </trkpt>
      <trkpt lat="47.27174" lon="-1.41938">
        <ele>57</ele>
        <time>2021-08-14T09:36:39.000Z</time>
      </trkpt>
      <trkpt lat="47.27164" lon="-1.41956">
        <ele>58</ele>
        <time>2021-08-14T09:36:41.000Z</time>
      </trkpt>
      <trkpt lat="47.27154" lon="-1.41973">
        <ele>58</ele>
        <time>2021-08-14T09:36:43.000Z</time>
      </trkpt>
      <trkpt lat="47.27144" lon="-1.41991">
        <ele>57</ele>
        <time>2021-08-14T09:36:45.000Z</time>
      </trkpt>
      <trkpt lat="47.27134" lon="-1.42009">
        <ele>57</ele>
        <time>2021-08-14T09:36:47.000Z</time>
      </trkpt>
      <trkpt lat="47.27125" lon="-1.42025">
        <ele>57</ele>
        <time>2021-08-14T09:36:49.000Z</time>
      </trkpt>
      <trkpt lat="47.27114" lon="-1.42041">
        <ele>57</ele>
        <time>2021-08-14T09:36:51.000Z</time>
      </trkpt>
      <trkpt lat="47.27103" lon="-1.42056">
        <ele>57</ele>
        <time>2021-08-14T09:36:53.000Z</time>
      </trkpt>
      <trkpt lat="47.27093" lon="-1.42072">
        <ele>56</ele>
        <time>2021-08-14T09:36:55.000Z</time>
      </trkpt>
      <trkpt lat="47.27083" lon="-1.42088">
        <ele>56</ele>
        <time>2021-08-14T09:36:57.000Z</time>
      </trkpt>
      <trkpt lat="47.27073" lon="-1.42103">
        <ele>56</ele>
        <time>2021-08-14T09:36:59.000Z</time>
      </trkpt>
      <trkpt lat="47.27063" lon="-1.4212">
        <ele>56</ele>
        <time>2021-08-14T09:37:01.000Z</time>
      </trkpt>
      <trkpt lat="47.27055" lon="-1.42136">
        <ele>56</ele>
        <time>2021-08-14T09:37:03.000Z</time>
      </trkpt>
      <trkpt lat="47.27046" lon="-1.42153">
        <ele>56</ele>
        <time>2021-08-14T09:37:05.000Z</time>
      </trkpt>
      <trkpt lat="47.27037" lon="-1.42169">
        <ele>56</ele>
        <time>2021-08-14T09:37:07.000Z</time>
      </trkpt>
      <trkpt lat="47.27028" lon="-1.42185">
        <ele>56</ele>
        <time>2021-08-14T09:37:09.000Z</time>
      </trkpt>
      <trkpt lat="47.27018" lon="-1.42201">
        <ele>57</ele>
        <time>2021-08-14T09:37:11.000Z</time>
      </trkpt>
      <trkpt lat="47.27009" lon="-1.42217">
        <ele>57</ele>
        <time>2021-08-14T09:37:13.000Z</time>
      </trkpt>
      <trkpt lat="47.27" lon="-1.42234">
        <ele>56</ele>
        <time>2021-08-14T09:37:15.000Z</time>
      </trkpt>
      <trkpt lat="47.26991" lon="-1.42251">
        <ele>56</ele>
        <time>2021-08-14T09:37:17.000Z</time>
      </trkpt>
      <trkpt lat="47.26982" lon="-1.42267">
        <ele>56</ele>
        <time>2021-08-14T09:37:19.000Z</time>
      </trkpt>
      <trkpt lat="47.26973" lon="-1.42285">
        <ele>56</ele>
        <time>2021-08-14T09:37:21.000Z</time>
      </trkpt>
      <trkpt lat="47.26964" lon="-1.42301">
        <ele>57</ele>
        <time>2021-08-14T09:37:23.000Z</time>
      </trkpt>
      <trkpt lat="47.26956" lon="-1.42319">
        <ele>56</ele>
        <time>2021-08-14T09:37:25.000Z</time>
      </trkpt>
      <trkpt lat="47.26948" lon="-1.42336">
        <ele>56</ele>
        <time>2021-08-14T09:37:27.000Z</time>
      </trkpt>
      <trkpt lat="47.2694" lon="-1.42353">
        <ele>57</ele>
        <time>2021-08-14T09:37:29.000Z</time>
      </trkpt>
      <trkpt lat="47.26932" lon="-1.4237">
        <ele>57</ele>
        <time>2021-08-14T09:37:31.000Z</time>
      </trkpt>
      <trkpt lat="47.26923" lon="-1.42387">
        <ele>57</ele>
        <time>2021-08-14T09:37:33.000Z</time>
      </trkpt>
      <trkpt lat="47.26915" lon="-1.42404">
        <ele>57</ele>
        <time>2021-08-14T09:37:35.000Z</time>
      </trkpt>
      <trkpt lat="47.26905" lon="-1.4242">
        <ele>56</ele>
        <time>2021-08-14T09:37:37.000Z</time>
      </trkpt>
      <trkpt lat="47.26896" lon="-1.42437">
        <ele>57</ele>
        <time>2021-08-14T09:37:39.000Z</time>
      </trkpt>
      <trkpt lat="47.26887" lon="-1.42453">
        <ele>56</ele>
        <time>2021-08-14T09:37:41.000Z</time>
      </trkpt>
      <trkpt lat="47.26878" lon="-1.42471">
        <ele>56</ele>
        <time>2021-08-14T09:37:43.000Z</time>
      </trkpt>
      <trkpt lat="47.26868" lon="-1.42488">
        <ele>56</ele>
        <time>2021-08-14T09:37:45.000Z</time>
      </trkpt>
      <trkpt lat="47.26859" lon="-1.42504">
        <ele>56</ele>
        <time>2021-08-14T09:37:47.000Z</time>
      </trkpt>
      <trkpt lat="47.26849" lon="-1.42521">
        <ele>56</ele>
        <time>2021-08-14T09:37:49.000Z</time>
      </trkpt>
      <trkpt lat="47.2684" lon="-1.42539">
        <ele>56</ele>
        <time>2021-08-14T09:37:51.000Z</time>
      </trkpt>
      <trkpt lat="47.26831" lon="-1.42556">
        <ele>55</ele>
        <time>2021-08-14T09:37:53.000Z</time>
      </trkpt>
      <trkpt lat="47.26823" lon="-1.42573">
        <ele>56</ele>
        <time>2021-08-14T09:37:55.000Z</time>
      </trkpt>
      <trkpt lat="47.26815" lon="-1.4259">
        <ele>56</ele>
        <time>2021-08-14T09:37:57.000Z</time>
      </trkpt>
      <trkpt lat="47.26807" lon="-1.42607">
        <ele>56</ele>
        <time>2021-08-14T09:37:59.000Z</time>
      </trkpt>
      <trkpt lat="47.268" lon="-1.42625">
        <ele>56</ele>
        <time>2021-08-14T09:38:01.000Z</time>
      </trkpt>
      <trkpt lat="47.26792" lon="-1.42643">
        <ele>56</ele>
        <time>2021-08-14T09:38:03.000Z</time>
      </trkpt>
      <trkpt lat="47.26785" lon="-1.42661">
        <ele>55</ele>
        <time>2021-08-14T09:38:05.000Z</time>
      </trkpt>
      <trkpt lat="47.26778" lon="-1.42679">
        <ele>56</ele>
        <time>2021-08-14T09:38:07.000Z</time>
      </trkpt>
      <trkpt lat="47.26772" lon="-1.42699">
        <ele>56</ele>
        <time>2021-08-14T09:38:09.000Z</time>
      </trkpt>
      <trkpt lat="47.26765" lon="-1.42718">
        <ele>56</ele>
        <time>2021-08-14T09:38:11.000Z</time>
      </trkpt>
      <trkpt lat="47.26757" lon="-1.42735">
        <ele>56</ele>
        <time>2021-08-14T09:38:13.000Z</time>
      </trkpt>
      <trkpt lat="47.2675" lon="-1.42751">
        <ele>56</ele>
        <time>2021-08-14T09:38:15.000Z</time>
      </trkpt>
      <trkpt lat="47.26741" lon="-1.42768">
        <ele>56</ele>
        <time>2021-08-14T09:38:17.000Z</time>
      </trkpt>
      <trkpt lat="47.26733" lon="-1.42787">
        <ele>56</ele>
        <time>2021-08-14T09:38:19.000Z</time>
      </trkpt>
      <trkpt lat="47.26729" lon="-1.42805">
        <ele>57</ele>
        <time>2021-08-14T09:38:21.000Z</time>
      </trkpt>
      <trkpt lat="47.26724" lon="-1.42823">
        <ele>57</ele>
        <time>2021-08-14T09:38:23.000Z</time>
      </trkpt>
      <trkpt lat="47.26717" lon="-1.42841">
        <ele>57</ele>
        <time>2021-08-14T09:38:25.000Z</time>
      </trkpt>
      <trkpt lat="47.26709" lon="-1.42859">
        <ele>56</ele>
        <time>2021-08-14T09:38:27.000Z</time>
      </trkpt>
      <trkpt lat="47.26701" lon="-1.42878">
        <ele>55</ele>
        <time>2021-08-14T09:38:29.000Z</time>
      </trkpt>
      <trkpt lat="47.26694" lon="-1.42895">
        <ele>55</ele>
        <time>2021-08-14T09:38:31.000Z</time>
      </trkpt>
      <trkpt lat="47.26684" lon="-1.42914">
        <ele>55</ele>
        <time>2021-08-14T09:38:33.000Z</time>
      </trkpt>
      <trkpt lat="47.26676" lon="-1.42931">
        <ele>55</ele>
        <time>2021-08-14T09:38:35.000Z</time>
      </trkpt>
      <trkpt lat="47.26667" lon="-1.42948">
        <ele>56</ele>
        <time>2021-08-14T09:38:37.000Z</time>
      </trkpt>
      <trkpt lat="47.26658" lon="-1.42966">
        <ele>56</ele>
        <time>2021-08-14T09:38:39.000Z</time>
      </trkpt>
      <trkpt lat="47.26649" lon="-1.42984">
        <ele>55</ele>
        <time>2021-08-14T09:38:41.000Z</time>
      </trkpt>
      <trkpt lat="47.2664" lon="-1.43002">
        <ele>54</ele>
        <time>2021-08-14T09:38:43.000Z</time>
      </trkpt>
      <trkpt lat="47.26631" lon="-1.4302">
        <ele>54</ele>
        <time>2021-08-14T09:38:45.000Z</time>
      </trkpt>
      <trkpt lat="47.26623" lon="-1.43037">
        <ele>54</ele>
        <time>2021-08-14T09:38:47.000Z</time>
      </trkpt>
      <trkpt lat="47.26614" lon="-1.43055">
        <ele>54</ele>
        <time>2021-08-14T09:38:49.000Z</time>
      </trkpt>
      <trkpt lat="47.26605" lon="-1.43072">
        <ele>54</ele>
        <time>2021-08-14T09:38:51.000Z</time>
      </trkpt>
      <trkpt lat="47.26596" lon="-1.43089">
        <ele>54</ele>
        <time>2021-08-14T09:38:53.000Z</time>
      </trkpt>
      <trkpt lat="47.26586" lon="-1.43105">
        <ele>54</ele>
        <time>2021-08-14T09:38:55.000Z</time>
      </trkpt>
      <trkpt lat="47.26577" lon="-1.43121">
        <ele>54</ele>
        <time>2021-08-14T09:38:57.000Z</time>
      </trkpt>
      <trkpt lat="47.26567" lon="-1.43136">
        <ele>54</ele>
        <time>2021-08-14T09:38:59.000Z</time>
      </trkpt>
      <trkpt lat="47.26558" lon="-1.43151">
        <ele>55</ele>
        <time>2021-08-14T09:39:01.000Z</time>
      </trkpt>
      <trkpt lat="47.26548" lon="-1.43166">
        <ele>55</ele>
        <time>2021-08-14T09:39:03.000Z</time>
      </trkpt>
      <trkpt lat="47.26539" lon="-1.4318">
        <ele>55</ele>
        <time>2021-08-14T09:39:05.000Z</time>
      </trkpt>
      <trkpt lat="47.26529" lon="-1.43194">
        <ele>56</ele>
        <time>2021-08-14T09:39:07.000Z</time>
      </trkpt>
      <trkpt lat="47.26518" lon="-1.43207">
        <ele>56</ele>
        <time>2021-08-14T09:39:09.000Z</time>
      </trkpt>
      <trkpt lat="47.26508" lon="-1.43219">
        <ele>57</ele>
        <time>2021-08-14T09:39:11.000Z</time>
      </trkpt>
      <trkpt lat="47.26498" lon="-1.43233">
        <ele>57</ele>
        <time>2021-08-14T09:39:13.000Z</time>
      </trkpt>
      <trkpt lat="47.26488" lon="-1.43246">
        <ele>56</ele>
        <time>2021-08-14T09:39:15.000Z</time>
      </trkpt>
      <trkpt lat="47.26479" lon="-1.43259">
        <ele>56</ele>
        <time>2021-08-14T09:39:17.000Z</time>
      </trkpt>
      <trkpt lat="47.2647" lon="-1.43273">
        <ele>57</ele>
        <time>2021-08-14T09:39:19.000Z</time>
      </trkpt>
      <trkpt lat="47.26461" lon="-1.43287">
        <ele>58</ele>
        <time>2021-08-14T09:39:21.000Z</time>
      </trkpt>
      <trkpt lat="47.26451" lon="-1.43303">
        <ele>59</ele>
        <time>2021-08-14T09:39:23.000Z</time>
      </trkpt>
      <trkpt lat="47.26442" lon="-1.43319">
        <ele>59</ele>
        <time>2021-08-14T09:39:25.000Z</time>
      </trkpt>
      <trkpt lat="47.26432" lon="-1.43333">
        <ele>59</ele>
        <time>2021-08-14T09:39:27.000Z</time>
      </trkpt>
      <trkpt lat="47.26422" lon="-1.43348">
        <ele>58</ele>
        <time>2021-08-14T09:39:29.000Z</time>
      </trkpt>
      <trkpt lat="47.26411" lon="-1.43361">
        <ele>57</ele>
        <time>2021-08-14T09:39:31.000Z</time>
      </trkpt>
      <trkpt lat="47.264" lon="-1.43374">
        <ele>56</ele>
        <time>2021-08-14T09:39:33.000Z</time>
      </trkpt>
      <trkpt lat="47.26389" lon="-1.43387">
        <ele>57</ele>
        <time>2021-08-14T09:39:35.000Z</time>
      </trkpt>
      <trkpt lat="47.26378" lon="-1.43399">
        <ele>57</ele>
        <time>2021-08-14T09:39:37.000Z</time>
      </trkpt>
      <trkpt lat="47.26367" lon="-1.43411">
        <ele>56</ele>
        <time>2021-08-14T09:39:39.000Z</time>
      </trkpt>
      <trkpt lat="47.26356" lon="-1.43423">
        <ele>57</ele>
        <time>2021-08-14T09:39:41.000Z</time>
      </trkpt>
      <trkpt lat="47.26345" lon="-1.43435">
        <ele>56</ele>
        <time>2021-08-14T09:39:43.000Z</time>
      </trkpt>
      <trkpt lat="47.26333" lon="-1.43447">
        <ele>56</ele>
        <time>2021-08-14T09:39:45.000Z</time>
      </trkpt>
      <trkpt lat="47.26322" lon="-1.43458">
        <ele>57</ele>
        <time>2021-08-14T09:39:47.000Z</time>
      </trkpt>
      <trkpt lat="47.26311" lon="-1.4347">
        <ele>57</ele>
        <time>2021-08-14T09:39:49.000Z</time>
      </trkpt>
      <trkpt lat="47.26301" lon="-1.43482">
        <ele>58</ele>
        <time>2021-08-14T09:39:51.000Z</time>
      </trkpt>
      <trkpt lat="47.2629" lon="-1.4349">
        <ele>58</ele>
        <time>2021-08-14T09:39:53.000Z</time>
      </trkpt>
      <trkpt lat="47.26277" lon="-1.43493">
        <ele>58</ele>
        <time>2021-08-14T09:39:55.000Z</time>
      </trkpt>
      <trkpt lat="47.26263" lon="-1.43497">
        <ele>58</ele>
        <time>2021-08-14T09:39:57.000Z</time>
      </trkpt>
      <trkpt lat="47.2625" lon="-1.43508">
        <ele>57</ele>
        <time>2021-08-14T09:39:59.000Z</time>
      </trkpt>
      <trkpt lat="47.26237" lon="-1.43519">
        <ele>58</ele>
        <time>2021-08-14T09:40:01.000Z</time>
      </trkpt>
      <trkpt lat="47.26227" lon="-1.43533">
        <ele>57</ele>
        <time>2021-08-14T09:40:03.000Z</time>
      </trkpt>
      <trkpt lat="47.26219" lon="-1.43545">
        <ele>56</ele>
        <time>2021-08-14T09:40:05.000Z</time>
      </trkpt>
      <trkpt lat="47.26214" lon="-1.4356">
        <ele>56</ele>
        <time>2021-08-14T09:40:07.000Z</time>
      </trkpt>
      <trkpt lat="47.26211" lon="-1.43579">
        <ele>57</ele>
        <time>2021-08-14T09:40:09.000Z</time>
      </trkpt>
      <trkpt lat="47.26202" lon="-1.43596">
        <ele>57</ele>
        <time>2021-08-14T09:40:11.000Z</time>
      </trkpt>
      <trkpt lat="47.26193" lon="-1.4361">
        <ele>56</ele>
        <time>2021-08-14T09:40:13.000Z</time>
      </trkpt>
      <trkpt lat="47.26186" lon="-1.43626">
        <ele>56</ele>
        <time>2021-08-14T09:40:15.000Z</time>
      </trkpt>
      <trkpt lat="47.26178" lon="-1.43641">
        <ele>56</ele>
        <time>2021-08-14T09:40:17.000Z</time>
      </trkpt>
      <trkpt lat="47.26169" lon="-1.43655">
        <ele>56</ele>
        <time>2021-08-14T09:40:19.000Z</time>
      </trkpt>
      <trkpt lat="47.26159" lon="-1.4367">
        <ele>56</ele>
        <time>2021-08-14T09:40:21.000Z</time>
      </trkpt>
      <trkpt lat="47.2615" lon="-1.43684">
        <ele>56</ele>
        <time>2021-08-14T09:40:23.000Z</time>
      </trkpt>
      <trkpt lat="47.26142" lon="-1.43696">
        <ele>56</ele>
        <time>2021-08-14T09:40:25.000Z</time>
      </trkpt>
      <trkpt lat="47.26134" lon="-1.43708">
        <ele>56</ele>
        <time>2021-08-14T09:40:27.000Z</time>
      </trkpt>
      <trkpt lat="47.26127" lon="-1.43719">
        <ele>57</ele>
        <time>2021-08-14T09:40:29.000Z</time>
      </trkpt>
      <trkpt lat="47.26119" lon="-1.43731">
        <ele>57</ele>
        <time>2021-08-14T09:40:31.000Z</time>
      </trkpt>
      <trkpt lat="47.26108" lon="-1.43744">
        <ele>56</ele>
        <time>2021-08-14T09:40:33.000Z</time>
      </trkpt>
      <trkpt lat="47.26098" lon="-1.43758">
        <ele>57</ele>
        <time>2021-08-14T09:40:35.000Z</time>
      </trkpt>
      <trkpt lat="47.26086" lon="-1.43774">
        <ele>56</ele>
        <time>2021-08-14T09:40:37.000Z</time>
      </trkpt>
      <trkpt lat="47.26075" lon="-1.4379">
        <ele>56</ele>
        <time>2021-08-14T09:40:39.000Z</time>
      </trkpt>
      <trkpt lat="47.26063" lon="-1.43805">
        <ele>56</ele>
        <time>2021-08-14T09:40:41.000Z</time>
      </trkpt>
      <trkpt lat="47.26052" lon="-1.43822">
        <ele>56</ele>
        <time>2021-08-14T09:40:43.000Z</time>
      </trkpt>
      <trkpt lat="47.26045" lon="-1.43839">
        <ele>56</ele>
        <time>2021-08-14T09:40:45.000Z</time>
      </trkpt>
      <trkpt lat="47.26036" lon="-1.43857">
        <ele>56</ele>
        <time>2021-08-14T09:40:47.000Z</time>
      </trkpt>
      <trkpt lat="47.26024" lon="-1.43871">
        <ele>56</ele>
        <time>2021-08-14T09:40:49.000Z</time>
      </trkpt>
      <trkpt lat="47.26011" lon="-1.43883">
        <ele>56</ele>
        <time>2021-08-14T09:40:51.000Z</time>
      </trkpt>
      <trkpt lat="47.26" lon="-1.43895">
        <ele>57</ele>
        <time>2021-08-14T09:40:53.000Z</time>
      </trkpt>
      <trkpt lat="47.25987" lon="-1.43908">
        <ele>57</ele>
        <time>2021-08-14T09:40:55.000Z</time>
      </trkpt>
      <trkpt lat="47.25975" lon="-1.4392">
        <ele>57</ele>
        <time>2021-08-14T09:40:57.000Z</time>
      </trkpt>
      <trkpt lat="47.25964" lon="-1.43933">
        <ele>57</ele>
        <time>2021-08-14T09:40:59.000Z</time>
      </trkpt>
      <trkpt lat="47.25954" lon="-1.43947">
        <ele>58</ele>
        <time>2021-08-14T09:41:01.000Z</time>
      </trkpt>
      <trkpt lat="47.25944" lon="-1.4396">
        <ele>58</ele>
        <time>2021-08-14T09:41:03.000Z</time>
      </trkpt>
      <trkpt lat="47.25932" lon="-1.43973">
        <ele>59</ele>
        <time>2021-08-14T09:41:05.000Z</time>
      </trkpt>
      <trkpt lat="47.2592" lon="-1.43986">
        <ele>59</ele>
        <time>2021-08-14T09:41:07.000Z</time>
      </trkpt>
      <trkpt lat="47.2591" lon="-1.43999">
        <ele>59</ele>
        <time>2021-08-14T09:41:09.000Z</time>
      </trkpt>
      <trkpt lat="47.25898" lon="-1.44012">
        <ele>59</ele>
        <time>2021-08-14T09:41:11.000Z</time>
      </trkpt>
      <trkpt lat="47.25886" lon="-1.44026">
        <ele>59</ele>
        <time>2021-08-14T09:41:13.000Z</time>
      </trkpt>
      <trkpt lat="47.25877" lon="-1.44042">
        <ele>59</ele>
        <time>2021-08-14T09:41:15.000Z</time>
      </trkpt>
      <trkpt lat="47.25871" lon="-1.44062">
        <ele>58</ele>
        <time>2021-08-14T09:41:17.000Z</time>
      </trkpt>
      <trkpt lat="47.25865" lon="-1.4408">
        <ele>57</ele>
        <time>2021-08-14T09:41:19.000Z</time>
      </trkpt>
      <trkpt lat="47.25855" lon="-1.44095">
        <ele>57</ele>
        <time>2021-08-14T09:41:21.000Z</time>
      </trkpt>
      <trkpt lat="47.25844" lon="-1.44108">
        <ele>57</ele>
        <time>2021-08-14T09:41:23.000Z</time>
      </trkpt>
      <trkpt lat="47.25833" lon="-1.4412">
        <ele>57</ele>
        <time>2021-08-14T09:41:25.000Z</time>
      </trkpt>
      <trkpt lat="47.25822" lon="-1.44133">
        <ele>56</ele>
        <time>2021-08-14T09:41:27.000Z</time>
      </trkpt>
      <trkpt lat="47.25811" lon="-1.44146">
        <ele>56</ele>
        <time>2021-08-14T09:41:29.000Z</time>
      </trkpt>
      <trkpt lat="47.25799" lon="-1.44158">
        <ele>56</ele>
        <time>2021-08-14T09:41:31.000Z</time>
      </trkpt>
      <trkpt lat="47.25788" lon="-1.4417">
        <ele>57</ele>
        <time>2021-08-14T09:41:33.000Z</time>
      </trkpt>
      <trkpt lat="47.25777" lon="-1.44184">
        <ele>57</ele>
        <time>2021-08-14T09:41:35.000Z</time>
      </trkpt>
      <trkpt lat="47.25765" lon="-1.44198">
        <ele>57</ele>
        <time>2021-08-14T09:41:37.000Z</time>
      </trkpt>
      <trkpt lat="47.25754" lon="-1.44212">
        <ele>57</ele>
        <time>2021-08-14T09:41:39.000Z</time>
      </trkpt>
      <trkpt lat="47.25744" lon="-1.44227">
        <ele>56</ele>
        <time>2021-08-14T09:41:41.000Z</time>
      </trkpt>
      <trkpt lat="47.25733" lon="-1.4424">
        <ele>56</ele>
        <time>2021-08-14T09:41:43.000Z</time>
      </trkpt>
      <trkpt lat="47.25722" lon="-1.44254">
        <ele>56</ele>
        <time>2021-08-14T09:41:45.000Z</time>
      </trkpt>
      <trkpt lat="47.25711" lon="-1.44268">
        <ele>55</ele>
        <time>2021-08-14T09:41:47.000Z</time>
      </trkpt>
      <trkpt lat="47.257" lon="-1.44281">
        <ele>55</ele>
        <time>2021-08-14T09:41:49.000Z</time>
      </trkpt>
      <trkpt lat="47.25688" lon="-1.44293">
        <ele>56</ele>
        <time>2021-08-14T09:41:51.000Z</time>
      </trkpt>
      <trkpt lat="47.25677" lon="-1.44306">
        <ele>57</ele>
        <time>2021-08-14T09:41:53.000Z</time>
      </trkpt>
      <trkpt lat="47.25666" lon="-1.4432">
        <ele>56</ele>
        <time>2021-08-14T09:41:55.000Z</time>
      </trkpt>
      <trkpt lat="47.25655" lon="-1.44335">
        <ele>56</ele>
        <time>2021-08-14T09:41:57.000Z</time>
      </trkpt>
      <trkpt lat="47.25643" lon="-1.44348">
        <ele>56</ele>
        <time>2021-08-14T09:41:59.000Z</time>
      </trkpt>
      <trkpt lat="47.25631" lon="-1.44361">
        <ele>56</ele>
        <time>2021-08-14T09:42:01.000Z</time>
      </trkpt>
      <trkpt lat="47.25619" lon="-1.44373">
        <ele>56</ele>
        <time>2021-08-14T09:42:03.000Z</time>
      </trkpt>
      <trkpt lat="47.25608" lon="-1.44385">
        <ele>57</ele>
        <time>2021-08-14T09:42:05.000Z</time>
      </trkpt>
      <trkpt lat="47.25598" lon="-1.44398">
        <ele>56</ele>
        <time>2021-08-14T09:42:07.000Z</time>
      </trkpt>
      <trkpt lat="47.25587" lon="-1.44411">
        <ele>57</ele>
        <time>2021-08-14T09:42:09.000Z</time>
      </trkpt>
      <trkpt lat="47.25578" lon="-1.44423">
        <ele>57</ele>
        <time>2021-08-14T09:42:11.000Z</time>
      </trkpt>
      <trkpt lat="47.2557" lon="-1.44433">
        <ele>57</ele>
        <time>2021-08-14T09:42:13.000Z</time>
      </trkpt>
      <trkpt lat="47.25561" lon="-1.44443">
        <ele>57</ele>
        <time>2021-08-14T09:42:15.000Z</time>
      </trkpt>
      <trkpt lat="47.25551" lon="-1.44456">
        <ele>57</ele>
        <time>2021-08-14T09:42:17.000Z</time>
      </trkpt>
      <trkpt lat="47.25542" lon="-1.44472">
        <ele>57</ele>
        <time>2021-08-14T09:42:19.000Z</time>
      </trkpt>
      <trkpt lat="47.25532" lon="-1.44489">
        <ele>57</ele>
        <time>2021-08-14T09:42:21.000Z</time>
      </trkpt>
      <trkpt lat="47.25521" lon="-1.44505">
        <ele>58</ele>
        <time>2021-08-14T09:42:23.000Z</time>
      </trkpt>
      <trkpt lat="47.25509" lon="-1.44521">
        <ele>57</ele>
        <time>2021-08-14T09:42:25.000Z</time>
      </trkpt>
      <trkpt lat="47.25497" lon="-1.44538">
        <ele>57</ele>
        <time>2021-08-14T09:42:27.000Z</time>
      </trkpt>
      <trkpt lat="47.25486" lon="-1.44554">
        <ele>56</ele>
        <time>2021-08-14T09:42:29.000Z</time>
      </trkpt>
      <trkpt lat="47.25475" lon="-1.4457">
        <ele>55</ele>
        <time>2021-08-14T09:42:31.000Z</time>
      </trkpt>
      <trkpt lat="47.25465" lon="-1.44586">
        <ele>56</ele>
        <time>2021-08-14T09:42:33.000Z</time>
      </trkpt>
      <trkpt lat="47.25454" lon="-1.44601">
        <ele>56</ele>
        <time>2021-08-14T09:42:35.000Z</time>
      </trkpt>
      <trkpt lat="47.25444" lon="-1.44616">
        <ele>57</ele>
        <time>2021-08-14T09:42:37.000Z</time>
      </trkpt>
      <trkpt lat="47.25434" lon="-1.4463">
        <ele>57</ele>
        <time>2021-08-14T09:42:39.000Z</time>
      </trkpt>
      <trkpt lat="47.25423" lon="-1.44643">
        <ele>57</ele>
        <time>2021-08-14T09:42:41.000Z</time>
      </trkpt>
      <trkpt lat="47.25413" lon="-1.44657">
        <ele>57</ele>
        <time>2021-08-14T09:42:43.000Z</time>
      </trkpt>
      <trkpt lat="47.25402" lon="-1.44674">
        <ele>57</ele>
        <time>2021-08-14T09:42:45.000Z</time>
      </trkpt>
      <trkpt lat="47.25391" lon="-1.44688">
        <ele>58</ele>
        <time>2021-08-14T09:42:47.000Z</time>
      </trkpt>
      <trkpt lat="47.2538" lon="-1.44701">
        <ele>57</ele>
        <time>2021-08-14T09:42:49.000Z</time>
      </trkpt>
      <trkpt lat="47.25368" lon="-1.44714">
        <ele>57</ele>
        <time>2021-08-14T09:42:51.000Z</time>
      </trkpt>
      <trkpt lat="47.25357" lon="-1.44726">
        <ele>58</ele>
        <time>2021-08-14T09:42:53.000Z</time>
      </trkpt>
      <trkpt lat="47.25345" lon="-1.44738">
        <ele>58</ele>
        <time>2021-08-14T09:42:55.000Z</time>
      </trkpt>
      <trkpt lat="47.25333" lon="-1.4475">
        <ele>59</ele>
        <time>2021-08-14T09:42:57.000Z</time>
      </trkpt>
      <trkpt lat="47.25322" lon="-1.44763">
        <ele>59</ele>
        <time>2021-08-14T09:42:59.000Z</time>
      </trkpt>
      <trkpt lat="47.2531" lon="-1.44775">
        <ele>59</ele>
        <time>2021-08-14T09:43:01.000Z</time>
      </trkpt>
      <trkpt lat="47.25299" lon="-1.44787">
        <ele>59</ele>
        <time>2021-08-14T09:43:03.000Z</time>
      </trkpt>
      <trkpt lat="47.25288" lon="-1.448">
        <ele>58</ele>
        <time>2021-08-14T09:43:05.000Z</time>
      </trkpt>
      <trkpt lat="47.25277" lon="-1.44811">
        <ele>57</ele>
        <time>2021-08-14T09:43:07.000Z</time>
      </trkpt>
      <trkpt lat="47.25267" lon="-1.44825">
        <ele>57</ele>
        <time>2021-08-14T09:43:09.000Z</time>
      </trkpt>
      <trkpt lat="47.25256" lon="-1.44838">
        <ele>57</ele>
        <time>2021-08-14T09:43:11.000Z</time>
      </trkpt>
      <trkpt lat="47.25244" lon="-1.4485">
        <ele>58</ele>
        <time>2021-08-14T09:43:13.000Z</time>
      </trkpt>
      <trkpt lat="47.25232" lon="-1.44861">
        <ele>58</ele>
        <time>2021-08-14T09:43:15.000Z</time>
      </trkpt>
      <trkpt lat="47.25221" lon="-1.44872">
        <ele>58</ele>
        <time>2021-08-14T09:43:17.000Z</time>
      </trkpt>
      <trkpt lat="47.25208" lon="-1.44883">
        <ele>58</ele>
        <time>2021-08-14T09:43:19.000Z</time>
      </trkpt>
      <trkpt lat="47.25196" lon="-1.44893">
        <ele>58</ele>
        <time>2021-08-14T09:43:21.000Z</time>
      </trkpt>
      <trkpt lat="47.25184" lon="-1.44903">
        <ele>58</ele>
        <time>2021-08-14T09:43:23.000Z</time>
      </trkpt>
      <trkpt lat="47.25171" lon="-1.44914">
        <ele>59</ele>
        <time>2021-08-14T09:43:25.000Z</time>
      </trkpt>
      <trkpt lat="47.25158" lon="-1.44925">
        <ele>59</ele>
        <time>2021-08-14T09:43:27.000Z</time>
      </trkpt>
      <trkpt lat="47.25146" lon="-1.44936">
        <ele>59</ele>
        <time>2021-08-14T09:43:29.000Z</time>
      </trkpt>
      <trkpt lat="47.25135" lon="-1.44947">
        <ele>58</ele>
        <time>2021-08-14T09:43:31.000Z</time>
      </trkpt>
      <trkpt lat="47.25123" lon="-1.44959">
        <ele>58</ele>
        <time>2021-08-14T09:43:33.000Z</time>
      </trkpt>
      <trkpt lat="47.2511" lon="-1.44971">
        <ele>58</ele>
        <time>2021-08-14T09:43:35.000Z</time>
      </trkpt>
      <trkpt lat="47.25097" lon="-1.44982">
        <ele>58</ele>
        <time>2021-08-14T09:43:37.000Z</time>
      </trkpt>
      <trkpt lat="47.25085" lon="-1.44992">
        <ele>57</ele>
        <time>2021-08-14T09:43:39.000Z</time>
      </trkpt>
      <trkpt lat="47.25072" lon="-1.45001">
        <ele>58</ele>
        <time>2021-08-14T09:43:41.000Z</time>
      </trkpt>
      <trkpt lat="47.2506" lon="-1.4501">
        <ele>58</ele>
        <time>2021-08-14T09:43:43.000Z</time>
      </trkpt>
      <trkpt lat="47.25047" lon="-1.4502">
        <ele>57</ele>
        <time>2021-08-14T09:43:45.000Z</time>
      </trkpt>
      <trkpt lat="47.25034" lon="-1.45031">
        <ele>57</ele>
        <time>2021-08-14T09:43:47.000Z</time>
      </trkpt>
      <trkpt lat="47.25022" lon="-1.45041">
        <ele>57</ele>
        <time>2021-08-14T09:43:49.000Z</time>
      </trkpt>
      <trkpt lat="47.25009" lon="-1.45052">
        <ele>57</ele>
        <time>2021-08-14T09:43:51.000Z</time>
      </trkpt>
      <trkpt lat="47.24998" lon="-1.45065">
        <ele>57</ele>
        <time>2021-08-14T09:43:53.000Z</time>
      </trkpt>
      <trkpt lat="47.24987" lon="-1.45079">
        <ele>57</ele>
        <time>2021-08-14T09:43:55.000Z</time>
      </trkpt>
      <trkpt lat="47.24975" lon="-1.45092">
        <ele>57</ele>
        <time>2021-08-14T09:43:57.000Z</time>
      </trkpt>
      <trkpt lat="47.24964" lon="-1.45103">
        <ele>58</ele>
        <time>2021-08-14T09:43:59.000Z</time>
      </trkpt>
      <trkpt lat="47.24953" lon="-1.45115">
        <ele>58</ele>
        <time>2021-08-14T09:44:01.000Z</time>
      </trkpt>
      <trkpt lat="47.24942" lon="-1.45128">
        <ele>58</ele>
        <time>2021-08-14T09:44:03.000Z</time>
      </trkpt>
      <trkpt lat="47.2493" lon="-1.45139">
        <ele>58</ele>
        <time>2021-08-14T09:44:05.000Z</time>
      </trkpt>
      <trkpt lat="47.24918" lon="-1.45152">
        <ele>57</ele>
        <time>2021-08-14T09:44:07.000Z</time>
      </trkpt>
      <trkpt lat="47.24907" lon="-1.45164">
        <ele>57</ele>
        <time>2021-08-14T09:44:09.000Z</time>
      </trkpt>
      <trkpt lat="47.24896" lon="-1.45177">
        <ele>58</ele>
        <time>2021-08-14T09:44:11.000Z</time>
      </trkpt>
      <trkpt lat="47.24886" lon="-1.4519">
        <ele>58</ele>
        <time>2021-08-14T09:44:13.000Z</time>
      </trkpt>
      <trkpt lat="47.24876" lon="-1.45205">
        <ele>58</ele>
        <time>2021-08-14T09:44:15.000Z</time>
      </trkpt>
      <trkpt lat="47.24866" lon="-1.45218">
        <ele>58</ele>
        <time>2021-08-14T09:44:17.000Z</time>
      </trkpt>
      <trkpt lat="47.24856" lon="-1.45233">
        <ele>58</ele>
        <time>2021-08-14T09:44:19.000Z</time>
      </trkpt>
      <trkpt lat="47.24847" lon="-1.45249">
        <ele>59</ele>
        <time>2021-08-14T09:44:21.000Z</time>
      </trkpt>
      <trkpt lat="47.24838" lon="-1.45265">
        <ele>59</ele>
        <time>2021-08-14T09:44:23.000Z</time>
      </trkpt>
      <trkpt lat="47.24829" lon="-1.4528">
        <ele>59</ele>
        <time>2021-08-14T09:44:25.000Z</time>
      </trkpt>
      <trkpt lat="47.24821" lon="-1.45296">
        <ele>59</ele>
        <time>2021-08-14T09:44:27.000Z</time>
      </trkpt>
      <trkpt lat="47.24814" lon="-1.45311">
        <ele>60</ele>
        <time>2021-08-14T09:44:29.000Z</time>
      </trkpt>
      <trkpt lat="47.24806" lon="-1.45328">
        <ele>59</ele>
        <time>2021-08-14T09:44:31.000Z</time>
      </trkpt>
      <trkpt lat="47.24798" lon="-1.45343">
        <ele>60</ele>
        <time>2021-08-14T09:44:33.000Z</time>
      </trkpt>
      <trkpt lat="47.24791" lon="-1.45359">
        <ele>60</ele>
        <time>2021-08-14T09:44:35.000Z</time>
      </trkpt>
      <trkpt lat="47.24784" lon="-1.45376">
        <ele>61</ele>
        <time>2021-08-14T09:44:37.000Z</time>
      </trkpt>
      <trkpt lat="47.24773" lon="-1.45404">
        <ele>60</ele>
        <time>2021-08-14T09:44:40.000Z</time>
      </trkpt>
      <trkpt lat="47.24766" lon="-1.45421">
        <ele>60</ele>
        <time>2021-08-14T09:44:42.000Z</time>
      </trkpt>
      <trkpt lat="47.24755" lon="-1.45448">
        <ele>60</ele>
        <time>2021-08-14T09:44:45.000Z</time>
      </trkpt>
      <trkpt lat="47.24749" lon="-1.45466">
        <ele>60</ele>
        <time>2021-08-14T09:44:47.000Z</time>
      </trkpt>
      <trkpt lat="47.24741" lon="-1.45485">
        <ele>59</ele>
        <time>2021-08-14T09:44:49.000Z</time>
      </trkpt>
      <trkpt lat="47.24734" lon="-1.45502">
        <ele>58</ele>
        <time>2021-08-14T09:44:51.000Z</time>
      </trkpt>
      <trkpt lat="47.24727" lon="-1.45521">
        <ele>57</ele>
        <time>2021-08-14T09:44:53.000Z</time>
      </trkpt>
      <trkpt lat="47.24721" lon="-1.4554">
        <ele>56</ele>
        <time>2021-08-14T09:44:55.000Z</time>
      </trkpt>
      <trkpt lat="47.24714" lon="-1.45558">
        <ele>56</ele>
        <time>2021-08-14T09:44:57.000Z</time>
      </trkpt>
      <trkpt lat="47.24709" lon="-1.45576">
        <ele>56</ele>
        <time>2021-08-14T09:44:59.000Z</time>
      </trkpt>
      <trkpt lat="47.24703" lon="-1.45594">
        <ele>56</ele>
        <time>2021-08-14T09:45:01.000Z</time>
      </trkpt>
      <trkpt lat="47.24697" lon="-1.45612">
        <ele>56</ele>
        <time>2021-08-14T09:45:03.000Z</time>
      </trkpt>
      <trkpt lat="47.24691" lon="-1.4563">
        <ele>56</ele>
        <time>2021-08-14T09:45:05.000Z</time>
      </trkpt>
      <trkpt lat="47.24686" lon="-1.45647">
        <ele>56</ele>
        <time>2021-08-14T09:45:07.000Z</time>
      </trkpt>
      <trkpt lat="47.2468" lon="-1.45664">
        <ele>55</ele>
        <time>2021-08-14T09:45:09.000Z</time>
      </trkpt>
      <trkpt lat="47.24675" lon="-1.45681">
        <ele>55</ele>
        <time>2021-08-14T09:45:11.000Z</time>
      </trkpt>
      <trkpt lat="47.2467" lon="-1.45699">
        <ele>56</ele>
        <time>2021-08-14T09:45:13.000Z</time>
      </trkpt>
      <trkpt lat="47.24665" lon="-1.45718">
        <ele>56</ele>
        <time>2021-08-14T09:45:15.000Z</time>
      </trkpt>
      <trkpt lat="47.24661" lon="-1.45737">
        <ele>56</ele>
        <time>2021-08-14T09:45:17.000Z</time>
      </trkpt>
      <trkpt lat="47.24658" lon="-1.45756">
        <ele>56</ele>
        <time>2021-08-14T09:45:19.000Z</time>
      </trkpt>
      <trkpt lat="47.24653" lon="-1.45773">
        <ele>56</ele>
        <time>2021-08-14T09:45:21.000Z</time>
      </trkpt>
      <trkpt lat="47.24649" lon="-1.4579">
        <ele>56</ele>
        <time>2021-08-14T09:45:23.000Z</time>
      </trkpt>
      <trkpt lat="47.24643" lon="-1.45807">
        <ele>57</ele>
        <time>2021-08-14T09:45:25.000Z</time>
      </trkpt>
      <trkpt lat="47.24637" lon="-1.45823">
        <ele>57</ele>
        <time>2021-08-14T09:45:27.000Z</time>
      </trkpt>
      <trkpt lat="47.24632" lon="-1.45841">
        <ele>58</ele>
        <time>2021-08-14T09:45:29.000Z</time>
      </trkpt>
      <trkpt lat="47.24629" lon="-1.45859">
        <ele>59</ele>
        <time>2021-08-14T09:45:31.000Z</time>
      </trkpt>
      <trkpt lat="47.24624" lon="-1.45877">
        <ele>60</ele>
        <time>2021-08-14T09:45:33.000Z</time>
      </trkpt>
      <trkpt lat="47.24619" lon="-1.45896">
        <ele>61</ele>
        <time>2021-08-14T09:45:35.000Z</time>
      </trkpt>
      <trkpt lat="47.24613" lon="-1.45914">
        <ele>62</ele>
        <time>2021-08-14T09:45:37.000Z</time>
      </trkpt>
      <trkpt lat="47.24606" lon="-1.45931">
        <ele>62</ele>
        <time>2021-08-14T09:45:39.000Z</time>
      </trkpt>
      <trkpt lat="47.24599" lon="-1.45947">
        <ele>62</ele>
        <time>2021-08-14T09:45:41.000Z</time>
      </trkpt>
      <trkpt lat="47.2459" lon="-1.45964">
        <ele>62</ele>
        <time>2021-08-14T09:45:43.000Z</time>
      </trkpt>
      <trkpt lat="47.24582" lon="-1.45982">
        <ele>63</ele>
        <time>2021-08-14T09:45:45.000Z</time>
      </trkpt>
      <trkpt lat="47.24573" lon="-1.46">
        <ele>63</ele>
        <time>2021-08-14T09:45:47.000Z</time>
      </trkpt>
      <trkpt lat="47.24566" lon="-1.46016">
        <ele>63</ele>
        <time>2021-08-14T09:45:49.000Z</time>
      </trkpt>
      <trkpt lat="47.24557" lon="-1.46033">
        <ele>63</ele>
        <time>2021-08-14T09:45:51.000Z</time>
      </trkpt>
      <trkpt lat="47.24549" lon="-1.46048">
        <ele>63</ele>
        <time>2021-08-14T09:45:53.000Z</time>
      </trkpt>
      <trkpt lat="47.24541" lon="-1.46065">
        <ele>63</ele>
        <time>2021-08-14T09:45:55.000Z</time>
      </trkpt>
      <trkpt lat="47.24533" lon="-1.46083">
        <ele>62</ele>
        <time>2021-08-14T09:45:57.000Z</time>
      </trkpt>
      <trkpt lat="47.24525" lon="-1.46099">
        <ele>61</ele>
        <time>2021-08-14T09:45:59.000Z</time>
      </trkpt>
      <trkpt lat="47.24515" lon="-1.46114">
        <ele>59</ele>
        <time>2021-08-14T09:46:01.000Z</time>
      </trkpt>
      <trkpt lat="47.24505" lon="-1.46126">
        <ele>58</ele>
        <time>2021-08-14T09:46:03.000Z</time>
      </trkpt>
      <trkpt lat="47.24494" lon="-1.46139">
        <ele>58</ele>
        <time>2021-08-14T09:46:05.000Z</time>
      </trkpt>
      <trkpt lat="47.24483" lon="-1.46152">
        <ele>58</ele>
        <time>2021-08-14T09:46:07.000Z</time>
      </trkpt>
      <trkpt lat="47.24472" lon="-1.46165">
        <ele>58</ele>
        <time>2021-08-14T09:46:09.000Z</time>
      </trkpt>
      <trkpt lat="47.24462" lon="-1.46178">
        <ele>58</ele>
        <time>2021-08-14T09:46:11.000Z</time>
      </trkpt>
      <trkpt lat="47.24452" lon="-1.46191">
        <ele>59</ele>
        <time>2021-08-14T09:46:13.000Z</time>
      </trkpt>
      <trkpt lat="47.24442" lon="-1.46205">
        <ele>59</ele>
        <time>2021-08-14T09:46:15.000Z</time>
      </trkpt>
      <trkpt lat="47.24432" lon="-1.46217">
        <ele>60</ele>
        <time>2021-08-14T09:46:17.000Z</time>
      </trkpt>
      <trkpt lat="47.24421" lon="-1.4623">
        <ele>59</ele>
        <time>2021-08-14T09:46:19.000Z</time>
      </trkpt>
      <trkpt lat="47.24411" lon="-1.46243">
        <ele>59</ele>
        <time>2021-08-14T09:46:21.000Z</time>
      </trkpt>
      <trkpt lat="47.24401" lon="-1.46257">
        <ele>59</ele>
        <time>2021-08-14T09:46:23.000Z</time>
      </trkpt>
      <trkpt lat="47.24392" lon="-1.4627">
        <ele>60</ele>
        <time>2021-08-14T09:46:25.000Z</time>
      </trkpt>
      <trkpt lat="47.24382" lon="-1.46285">
        <ele>60</ele>
        <time>2021-08-14T09:46:27.000Z</time>
      </trkpt>
      <trkpt lat="47.24372" lon="-1.463">
        <ele>60</ele>
        <time>2021-08-14T09:46:29.000Z</time>
      </trkpt>
      <trkpt lat="47.24362" lon="-1.46314">
        <ele>59</ele>
        <time>2021-08-14T09:46:31.000Z</time>
      </trkpt>
      <trkpt lat="47.24354" lon="-1.46328">
        <ele>58</ele>
        <time>2021-08-14T09:46:33.000Z</time>
      </trkpt>
      <trkpt lat="47.24346" lon="-1.46342">
        <ele>58</ele>
        <time>2021-08-14T09:46:35.000Z</time>
      </trkpt>
      <trkpt lat="47.24338" lon="-1.46357">
        <ele>58</ele>
        <time>2021-08-14T09:46:37.000Z</time>
      </trkpt>
      <trkpt lat="47.24329" lon="-1.46372">
        <ele>58</ele>
        <time>2021-08-14T09:46:39.000Z</time>
      </trkpt>
      <trkpt lat="47.2432" lon="-1.46388">
        <ele>57</ele>
        <time>2021-08-14T09:46:41.000Z</time>
      </trkpt>
      <trkpt lat="47.24311" lon="-1.46403">
        <ele>57</ele>
        <time>2021-08-14T09:46:43.000Z</time>
      </trkpt>
      <trkpt lat="47.24302" lon="-1.46418">
        <ele>57</ele>
        <time>2021-08-14T09:46:45.000Z</time>
      </trkpt>
      <trkpt lat="47.24294" lon="-1.46434">
        <ele>57</ele>
        <time>2021-08-14T09:46:47.000Z</time>
      </trkpt>
      <trkpt lat="47.24284" lon="-1.46448">
        <ele>57</ele>
        <time>2021-08-14T09:46:49.000Z</time>
      </trkpt>
      <trkpt lat="47.24273" lon="-1.46461">
        <ele>57</ele>
        <time>2021-08-14T09:46:51.000Z</time>
      </trkpt>
      <trkpt lat="47.24262" lon="-1.46474">
        <ele>57</ele>
        <time>2021-08-14T09:46:53.000Z</time>
      </trkpt>
      <trkpt lat="47.24253" lon="-1.46487">
        <ele>57</ele>
        <time>2021-08-14T09:46:55.000Z</time>
      </trkpt>
      <trkpt lat="47.24244" lon="-1.465">
        <ele>57</ele>
        <time>2021-08-14T09:46:57.000Z</time>
      </trkpt>
      <trkpt lat="47.24234" lon="-1.46512">
        <ele>57</ele>
        <time>2021-08-14T09:46:59.000Z</time>
      </trkpt>
      <trkpt lat="47.24224" lon="-1.46525">
        <ele>57</ele>
        <time>2021-08-14T09:47:01.000Z</time>
      </trkpt>
      <trkpt lat="47.24213" lon="-1.46537">
        <ele>56</ele>
        <time>2021-08-14T09:47:03.000Z</time>
      </trkpt>
      <trkpt lat="47.24203" lon="-1.46549">
        <ele>57</ele>
        <time>2021-08-14T09:47:05.000Z</time>
      </trkpt>
      <trkpt lat="47.24192" lon="-1.46563">
        <ele>57</ele>
        <time>2021-08-14T09:47:07.000Z</time>
      </trkpt>
      <trkpt lat="47.24183" lon="-1.46576">
        <ele>57</ele>
        <time>2021-08-14T09:47:09.000Z</time>
      </trkpt>
      <trkpt lat="47.24172" lon="-1.46588">
        <ele>57</ele>
        <time>2021-08-14T09:47:11.000Z</time>
      </trkpt>
      <trkpt lat="47.24162" lon="-1.46601">
        <ele>57</ele>
        <time>2021-08-14T09:47:13.000Z</time>
      </trkpt>
      <trkpt lat="47.24152" lon="-1.46614">
        <ele>57</ele>
        <time>2021-08-14T09:47:15.000Z</time>
      </trkpt>
      <trkpt lat="47.24143" lon="-1.46626">
        <ele>57</ele>
        <time>2021-08-14T09:47:17.000Z</time>
      </trkpt>
      <trkpt lat="47.24133" lon="-1.46639">
        <ele>57</ele>
        <time>2021-08-14T09:47:19.000Z</time>
      </trkpt>
      <trkpt lat="47.24124" lon="-1.46652">
        <ele>57</ele>
        <time>2021-08-14T09:47:21.000Z</time>
      </trkpt>
      <trkpt lat="47.24114" lon="-1.46665">
        <ele>58</ele>
        <time>2021-08-14T09:47:23.000Z</time>
      </trkpt>
      <trkpt lat="47.24105" lon="-1.46678">
        <ele>58</ele>
        <time>2021-08-14T09:47:25.000Z</time>
      </trkpt>
      <trkpt lat="47.24096" lon="-1.46692">
        <ele>59</ele>
        <time>2021-08-14T09:47:27.000Z</time>
      </trkpt>
      <trkpt lat="47.24088" lon="-1.46706">
        <ele>58</ele>
        <time>2021-08-14T09:47:29.000Z</time>
      </trkpt>
      <trkpt lat="47.24082" lon="-1.46721">
        <ele>58</ele>
        <time>2021-08-14T09:47:31.000Z</time>
      </trkpt>
      <trkpt lat="47.24074" lon="-1.46735">
        <ele>57</ele>
        <time>2021-08-14T09:47:33.000Z</time>
      </trkpt>
      <trkpt lat="47.24062" lon="-1.46744">
        <ele>57</ele>
        <time>2021-08-14T09:47:35.000Z</time>
      </trkpt>
      <trkpt lat="47.24049" lon="-1.46754">
        <ele>57</ele>
        <time>2021-08-14T09:47:37.000Z</time>
      </trkpt>
      <trkpt lat="47.24039" lon="-1.46765">
        <ele>56</ele>
        <time>2021-08-14T09:47:39.000Z</time>
      </trkpt>
      <trkpt lat="47.24028" lon="-1.46777">
        <ele>57</ele>
        <time>2021-08-14T09:47:41.000Z</time>
      </trkpt>
      <trkpt lat="47.24017" lon="-1.46789">
        <ele>57</ele>
        <time>2021-08-14T09:47:43.000Z</time>
      </trkpt>
      <trkpt lat="47.24007" lon="-1.46802">
        <ele>57</ele>
        <time>2021-08-14T09:47:45.000Z</time>
      </trkpt>
      <trkpt lat="47.23996" lon="-1.46814">
        <ele>57</ele>
        <time>2021-08-14T09:47:47.000Z</time>
      </trkpt>
      <trkpt lat="47.23985" lon="-1.46825">
        <ele>57</ele>
        <time>2021-08-14T09:47:49.000Z</time>
      </trkpt>
      <trkpt lat="47.23974" lon="-1.46837">
        <ele>57</ele>
        <time>2021-08-14T09:47:51.000Z</time>
      </trkpt>
      <trkpt lat="47.23964" lon="-1.46849">
        <ele>57</ele>
        <time>2021-08-14T09:47:53.000Z</time>
      </trkpt>
      <trkpt lat="47.23954" lon="-1.46859">
        <ele>57</ele>
        <time>2021-08-14T09:47:55.000Z</time>
      </trkpt>
      <trkpt lat="47.23942" lon="-1.46869">
        <ele>58</ele>
        <time>2021-08-14T09:47:57.000Z</time>
      </trkpt>
      <trkpt lat="47.2393" lon="-1.46877">
        <ele>58</ele>
        <time>2021-08-14T09:47:59.000Z</time>
      </trkpt>
      <trkpt lat="47.23919" lon="-1.46889">
        <ele>57</ele>
        <time>2021-08-14T09:48:01.000Z</time>
      </trkpt>
      <trkpt lat="47.23908" lon="-1.46902">
        <ele>57</ele>
        <time>2021-08-14T09:48:03.000Z</time>
      </trkpt>
      <trkpt lat="47.23897" lon="-1.46915">
        <ele>57</ele>
        <time>2021-08-14T09:48:05.000Z</time>
      </trkpt>
      <trkpt lat="47.23888" lon="-1.46929">
        <ele>57</ele>
        <time>2021-08-14T09:48:07.000Z</time>
      </trkpt>
      <trkpt lat="47.23879" lon="-1.46943">
        <ele>57</ele>
        <time>2021-08-14T09:48:09.000Z</time>
      </trkpt>
      <trkpt lat="47.23868" lon="-1.46955">
        <ele>57</ele>
        <time>2021-08-14T09:48:11.000Z</time>
      </trkpt>
      <trkpt lat="47.23858" lon="-1.46969">
        <ele>57</ele>
        <time>2021-08-14T09:48:13.000Z</time>
      </trkpt>
      <trkpt lat="47.23848" lon="-1.46983">
        <ele>57</ele>
        <time>2021-08-14T09:48:15.000Z</time>
      </trkpt>
      <trkpt lat="47.23838" lon="-1.46996">
        <ele>57</ele>
        <time>2021-08-14T09:48:17.000Z</time>
      </trkpt>
      <trkpt lat="47.23829" lon="-1.47011">
        <ele>57</ele>
        <time>2021-08-14T09:48:19.000Z</time>
      </trkpt>
      <trkpt lat="47.23819" lon="-1.47025">
        <ele>57</ele>
        <time>2021-08-14T09:48:21.000Z</time>
      </trkpt>
      <trkpt lat="47.23809" lon="-1.47039">
        <ele>56</ele>
        <time>2021-08-14T09:48:23.000Z</time>
      </trkpt>
      <trkpt lat="47.23799" lon="-1.47053">
        <ele>56</ele>
        <time>2021-08-14T09:48:25.000Z</time>
      </trkpt>
      <trkpt lat="47.2379" lon="-1.47066">
        <ele>56</ele>
        <time>2021-08-14T09:48:27.000Z</time>
      </trkpt>
      <trkpt lat="47.2378" lon="-1.4708">
        <ele>56</ele>
        <time>2021-08-14T09:48:29.000Z</time>
      </trkpt>
      <trkpt lat="47.2377" lon="-1.47095">
        <ele>55</ele>
        <time>2021-08-14T09:48:31.000Z</time>
      </trkpt>
      <trkpt lat="47.2376" lon="-1.47109">
        <ele>55</ele>
        <time>2021-08-14T09:48:33.000Z</time>
      </trkpt>
      <trkpt lat="47.2375" lon="-1.47123">
        <ele>55</ele>
        <time>2021-08-14T09:48:35.000Z</time>
      </trkpt>
      <trkpt lat="47.23739" lon="-1.47135">
        <ele>55</ele>
        <time>2021-08-14T09:48:37.000Z</time>
      </trkpt>
      <trkpt lat="47.23729" lon="-1.47147">
        <ele>56</ele>
        <time>2021-08-14T09:48:39.000Z</time>
      </trkpt>
      <trkpt lat="47.23719" lon="-1.47161">
        <ele>56</ele>
        <time>2021-08-14T09:48:41.000Z</time>
      </trkpt>
      <trkpt lat="47.23709" lon="-1.47175">
        <ele>56</ele>
        <time>2021-08-14T09:48:43.000Z</time>
      </trkpt>
      <trkpt lat="47.23699" lon="-1.47189">
        <ele>56</ele>
        <time>2021-08-14T09:48:45.000Z</time>
      </trkpt>
      <trkpt lat="47.23689" lon="-1.47203">
        <ele>56</ele>
        <time>2021-08-14T09:48:47.000Z</time>
      </trkpt>
      <trkpt lat="47.23679" lon="-1.47219">
        <ele>56</ele>
        <time>2021-08-14T09:48:49.000Z</time>
      </trkpt>
      <trkpt lat="47.23668" lon="-1.47232">
        <ele>57</ele>
        <time>2021-08-14T09:48:51.000Z</time>
      </trkpt>
      <trkpt lat="47.23657" lon="-1.47245">
        <ele>57</ele>
        <time>2021-08-14T09:48:53.000Z</time>
      </trkpt>
      <trkpt lat="47.23645" lon="-1.47257">
        <ele>57</ele>
        <time>2021-08-14T09:48:55.000Z</time>
      </trkpt>
      <trkpt lat="47.23634" lon="-1.4727">
        <ele>57</ele>
        <time>2021-08-14T09:48:57.000Z</time>
      </trkpt>
      <trkpt lat="47.23623" lon="-1.47282">
        <ele>57</ele>
        <time>2021-08-14T09:48:59.000Z</time>
      </trkpt>
      <trkpt lat="47.23612" lon="-1.47295">
        <ele>57</ele>
        <time>2021-08-14T09:49:01.000Z</time>
      </trkpt>
      <trkpt lat="47.236" lon="-1.47306">
        <ele>57</ele>
        <time>2021-08-14T09:49:03.000Z</time>
      </trkpt>
      <trkpt lat="47.23589" lon="-1.47318">
        <ele>57</ele>
        <time>2021-08-14T09:49:05.000Z</time>
      </trkpt>
      <trkpt lat="47.23577" lon="-1.47329">
        <ele>58</ele>
        <time>2021-08-14T09:49:07.000Z</time>
      </trkpt>
      <trkpt lat="47.23565" lon="-1.47339">
        <ele>58</ele>
        <time>2021-08-14T09:49:09.000Z</time>
      </trkpt>
      <trkpt lat="47.23554" lon="-1.47349">
        <ele>58</ele>
        <time>2021-08-14T09:49:11.000Z</time>
      </trkpt>
      <trkpt lat="47.23541" lon="-1.47359">
        <ele>57</ele>
        <time>2021-08-14T09:49:13.000Z</time>
      </trkpt>
      <trkpt lat="47.23529" lon="-1.47368">
        <ele>58</ele>
        <time>2021-08-14T09:49:15.000Z</time>
      </trkpt>
      <trkpt lat="47.23517" lon="-1.47378">
        <ele>57</ele>
        <time>2021-08-14T09:49:17.000Z</time>
      </trkpt>
      <trkpt lat="47.23505" lon="-1.47389">
        <ele>58</ele>
        <time>2021-08-14T09:49:19.000Z</time>
      </trkpt>
      <trkpt lat="47.23493" lon="-1.47398">
        <ele>58</ele>
        <time>2021-08-14T09:49:21.000Z</time>
      </trkpt>
      <trkpt lat="47.2348" lon="-1.47405">
        <ele>58</ele>
        <time>2021-08-14T09:49:23.000Z</time>
      </trkpt>
      <trkpt lat="47.23467" lon="-1.47411">
        <ele>58</ele>
        <time>2021-08-14T09:49:25.000Z</time>
      </trkpt>
      <trkpt lat="47.23454" lon="-1.47416">
        <ele>58</ele>
        <time>2021-08-14T09:49:27.000Z</time>
      </trkpt>
      <trkpt lat="47.23441" lon="-1.4742">
        <ele>58</ele>
        <time>2021-08-14T09:49:29.000Z</time>
      </trkpt>
      <trkpt lat="47.23429" lon="-1.47426">
        <ele>58</ele>
        <time>2021-08-14T09:49:31.000Z</time>
      </trkpt>
      <trkpt lat="47.23418" lon="-1.47434">
        <ele>58</ele>
        <time>2021-08-14T09:49:33.000Z</time>
      </trkpt>
      <trkpt lat="47.23406" lon="-1.47444">
        <ele>58</ele>
        <time>2021-08-14T09:49:35.000Z</time>
      </trkpt>
      <trkpt lat="47.23393" lon="-1.47452">
        <ele>58</ele>
        <time>2021-08-14T09:49:37.000Z</time>
      </trkpt>
      <trkpt lat="47.2338" lon="-1.47459">
        <ele>58</ele>
        <time>2021-08-14T09:49:39.000Z</time>
      </trkpt>
      <trkpt lat="47.23367" lon="-1.47466">
        <ele>58</ele>
        <time>2021-08-14T09:49:41.000Z</time>
      </trkpt>
      <trkpt lat="47.23352" lon="-1.47472">
        <ele>58</ele>
        <time>2021-08-14T09:49:43.000Z</time>
      </trkpt>
      <trkpt lat="47.23339" lon="-1.47478">
        <ele>57</ele>
        <time>2021-08-14T09:49:45.000Z</time>
      </trkpt>
      <trkpt lat="47.23327" lon="-1.47483">
        <ele>57</ele>
        <time>2021-08-14T09:49:47.000Z</time>
      </trkpt>
      <trkpt lat="47.23316" lon="-1.47496">
        <ele>58</ele>
        <time>2021-08-14T09:49:49.000Z</time>
      </trkpt>
      <trkpt lat="47.23305" lon="-1.47506">
        <ele>60</ele>
        <time>2021-08-14T09:49:51.000Z</time>
      </trkpt>
      <trkpt lat="47.23292" lon="-1.47512">
        <ele>60</ele>
        <time>2021-08-14T09:49:53.000Z</time>
      </trkpt>
      <trkpt lat="47.23279" lon="-1.47519">
        <ele>59</ele>
        <time>2021-08-14T09:49:55.000Z</time>
      </trkpt>
      <trkpt lat="47.23268" lon="-1.47529">
        <ele>59</ele>
        <time>2021-08-14T09:49:57.000Z</time>
      </trkpt>
      <trkpt lat="47.23258" lon="-1.47544">
        <ele>58</ele>
        <time>2021-08-14T09:49:59.000Z</time>
      </trkpt>
      <trkpt lat="47.23249" lon="-1.47558">
        <ele>58</ele>
        <time>2021-08-14T09:50:01.000Z</time>
      </trkpt>
      <trkpt lat="47.23241" lon="-1.47572">
        <ele>58</ele>
        <time>2021-08-14T09:50:03.000Z</time>
      </trkpt>
      <trkpt lat="47.23233" lon="-1.47586">
        <ele>58</ele>
        <time>2021-08-14T09:50:05.000Z</time>
      </trkpt>
      <trkpt lat="47.23225" lon="-1.47599">
        <ele>58</ele>
        <time>2021-08-14T09:50:07.000Z</time>
      </trkpt>
      <trkpt lat="47.23218" lon="-1.47615">
        <ele>58</ele>
        <time>2021-08-14T09:50:09.000Z</time>
      </trkpt>
      <trkpt lat="47.23214" lon="-1.47628">
        <ele>58</ele>
        <time>2021-08-14T09:50:11.000Z</time>
      </trkpt>
      <trkpt lat="47.23208" lon="-1.4764">
        <ele>58</ele>
        <time>2021-08-14T09:50:13.000Z</time>
      </trkpt>
      <trkpt lat="47.23201" lon="-1.47654">
        <ele>58</ele>
        <time>2021-08-14T09:50:15.000Z</time>
      </trkpt>
      <trkpt lat="47.23194" lon="-1.47671">
        <ele>57</ele>
        <time>2021-08-14T09:50:17.000Z</time>
      </trkpt>
      <trkpt lat="47.23187" lon="-1.4769">
        <ele>58</ele>
        <time>2021-08-14T09:50:19.000Z</time>
      </trkpt>
      <trkpt lat="47.23179" lon="-1.47708">
        <ele>57</ele>
        <time>2021-08-14T09:50:21.000Z</time>
      </trkpt>
      <trkpt lat="47.23171" lon="-1.47726">
        <ele>56</ele>
        <time>2021-08-14T09:50:23.000Z</time>
      </trkpt>
      <trkpt lat="47.23164" lon="-1.47744">
        <ele>55</ele>
        <time>2021-08-14T09:50:25.000Z</time>
      </trkpt>
      <trkpt lat="47.23156" lon="-1.47762">
        <ele>55</ele>
        <time>2021-08-14T09:50:27.000Z</time>
      </trkpt>
      <trkpt lat="47.23149" lon="-1.4778">
        <ele>54</ele>
        <time>2021-08-14T09:50:29.000Z</time>
      </trkpt>
      <trkpt lat="47.23143" lon="-1.47798">
        <ele>55</ele>
        <time>2021-08-14T09:50:31.000Z</time>
      </trkpt>
      <trkpt lat="47.23136" lon="-1.47814">
        <ele>55</ele>
        <time>2021-08-14T09:50:33.000Z</time>
      </trkpt>
      <trkpt lat="47.23129" lon="-1.47829">
        <ele>56</ele>
        <time>2021-08-14T09:50:35.000Z</time>
      </trkpt>
      <trkpt lat="47.23122" lon="-1.47846">
        <ele>56</ele>
        <time>2021-08-14T09:50:37.000Z</time>
      </trkpt>
      <trkpt lat="47.23113" lon="-1.47864">
        <ele>56</ele>
        <time>2021-08-14T09:50:39.000Z</time>
      </trkpt>
      <trkpt lat="47.23103" lon="-1.4788">
        <ele>55</ele>
        <time>2021-08-14T09:50:41.000Z</time>
      </trkpt>
      <trkpt lat="47.23093" lon="-1.47894">
        <ele>55</ele>
        <time>2021-08-14T09:50:43.000Z</time>
      </trkpt>
      <trkpt lat="47.23083" lon="-1.47907">
        <ele>55</ele>
        <time>2021-08-14T09:50:45.000Z</time>
      </trkpt>
      <trkpt lat="47.23073" lon="-1.47921">
        <ele>55</ele>
        <time>2021-08-14T09:50:47.000Z</time>
      </trkpt>
      <trkpt lat="47.23063" lon="-1.47934">
        <ele>55</ele>
        <time>2021-08-14T09:50:49.000Z</time>
      </trkpt>
      <trkpt lat="47.23053" lon="-1.47947">
        <ele>55</ele>
        <time>2021-08-14T09:50:51.000Z</time>
      </trkpt>
      <trkpt lat="47.23042" lon="-1.47961">
        <ele>55</ele>
        <time>2021-08-14T09:50:53.000Z</time>
      </trkpt>
      <trkpt lat="47.23033" lon="-1.47975">
        <ele>55</ele>
        <time>2021-08-14T09:50:55.000Z</time>
      </trkpt>
      <trkpt lat="47.23023" lon="-1.47989">
        <ele>55</ele>
        <time>2021-08-14T09:50:57.000Z</time>
      </trkpt>
      <trkpt lat="47.23014" lon="-1.48003">
        <ele>55</ele>
        <time>2021-08-14T09:50:59.000Z</time>
      </trkpt>
      <trkpt lat="47.23004" lon="-1.48018">
        <ele>55</ele>
        <time>2021-08-14T09:51:01.000Z</time>
      </trkpt>
      <trkpt lat="47.22995" lon="-1.48032">
        <ele>55</ele>
        <time>2021-08-14T09:51:03.000Z</time>
      </trkpt>
      <trkpt lat="47.22986" lon="-1.48048">
        <ele>54</ele>
        <time>2021-08-14T09:51:05.000Z</time>
      </trkpt>
      <trkpt lat="47.22977" lon="-1.48062">
        <ele>54</ele>
        <time>2021-08-14T09:51:07.000Z</time>
      </trkpt>
      <trkpt lat="47.22968" lon="-1.48077">
        <ele>54</ele>
        <time>2021-08-14T09:51:09.000Z</time>
      </trkpt>
      <trkpt lat="47.22959" lon="-1.48091">
        <ele>54</ele>
        <time>2021-08-14T09:51:11.000Z</time>
      </trkpt>
      <trkpt lat="47.2295" lon="-1.48106">
        <ele>54</ele>
        <time>2021-08-14T09:51:13.000Z</time>
      </trkpt>
      <trkpt lat="47.22938" lon="-1.48111">
        <ele>54</ele>
        <time>2021-08-14T09:51:15.000Z</time>
      </trkpt>
      <trkpt lat="47.22924" lon="-1.48113">
        <ele>55</ele>
        <time>2021-08-14T09:51:17.000Z</time>
      </trkpt>
      <trkpt lat="47.22911" lon="-1.48119">
        <ele>54</ele>
        <time>2021-08-14T09:51:19.000Z</time>
      </trkpt>
      <trkpt lat="47.22899" lon="-1.4813">
        <ele>54</ele>
        <time>2021-08-14T09:51:21.000Z</time>
      </trkpt>
      <trkpt lat="47.22889" lon="-1.48143">
        <ele>54</ele>
        <time>2021-08-14T09:51:23.000Z</time>
      </trkpt>
      <trkpt lat="47.2288" lon="-1.48156">
        <ele>54</ele>
        <time>2021-08-14T09:51:25.000Z</time>
      </trkpt>
      <trkpt lat="47.22873" lon="-1.48168">
        <ele>54</ele>
        <time>2021-08-14T09:51:27.000Z</time>
      </trkpt>
      <trkpt lat="47.22864" lon="-1.4818">
        <ele>54</ele>
        <time>2021-08-14T09:51:30.000Z</time>
      </trkpt>
      <trkpt lat="47.22858" lon="-1.4819">
        <ele>55</ele>
        <time>2021-08-14T09:51:32.000Z</time>
      </trkpt>
      <trkpt lat="47.2285" lon="-1.48204">
        <ele>55</ele>
        <time>2021-08-14T09:51:34.000Z</time>
      </trkpt>
      <trkpt lat="47.2284" lon="-1.4822">
        <ele>55</ele>
        <time>2021-08-14T09:51:36.000Z</time>
      </trkpt>
      <trkpt lat="47.22829" lon="-1.48236">
        <ele>54</ele>
        <time>2021-08-14T09:51:38.000Z</time>
      </trkpt>
      <trkpt lat="47.22817" lon="-1.48252">
        <ele>54</ele>
        <time>2021-08-14T09:51:40.000Z</time>
      </trkpt>
      <trkpt lat="47.22807" lon="-1.4827">
        <ele>54</ele>
        <time>2021-08-14T09:51:42.000Z</time>
      </trkpt>
      <trkpt lat="47.22797" lon="-1.48288">
        <ele>55</ele>
        <time>2021-08-14T09:51:44.000Z</time>
      </trkpt>
      <trkpt lat="47.22786" lon="-1.48304">
        <ele>56</ele>
        <time>2021-08-14T09:51:46.000Z</time>
      </trkpt>
      <trkpt lat="47.22775" lon="-1.48322">
        <ele>56</ele>
        <time>2021-08-14T09:51:48.000Z</time>
      </trkpt>
      <trkpt lat="47.22765" lon="-1.48339">
        <ele>56</ele>
        <time>2021-08-14T09:51:50.000Z</time>
      </trkpt>
      <trkpt lat="47.22754" lon="-1.48354">
        <ele>56</ele>
        <time>2021-08-14T09:51:52.000Z</time>
      </trkpt>
      <trkpt lat="47.22744" lon="-1.48368">
        <ele>56</ele>
        <time>2021-08-14T09:51:54.000Z</time>
      </trkpt>
      <trkpt lat="47.22733" lon="-1.48383">
        <ele>56</ele>
        <time>2021-08-14T09:51:56.000Z</time>
      </trkpt>
      <trkpt lat="47.22721" lon="-1.48397">
        <ele>56</ele>
        <time>2021-08-14T09:51:58.000Z</time>
      </trkpt>
      <trkpt lat="47.2271" lon="-1.48411">
        <ele>55</ele>
        <time>2021-08-14T09:52:00.000Z</time>
      </trkpt>
      <trkpt lat="47.22701" lon="-1.48429">
        <ele>54</ele>
        <time>2021-08-14T09:52:02.000Z</time>
      </trkpt>
      <trkpt lat="47.22695" lon="-1.48449">
        <ele>54</ele>
        <time>2021-08-14T09:52:04.000Z</time>
      </trkpt>
      <trkpt lat="47.22689" lon="-1.48467">
        <ele>55</ele>
        <time>2021-08-14T09:52:06.000Z</time>
      </trkpt>
      <trkpt lat="47.22681" lon="-1.48485">
        <ele>54</ele>
        <time>2021-08-14T09:52:08.000Z</time>
      </trkpt>
      <trkpt lat="47.22673" lon="-1.48501">
        <ele>54</ele>
        <time>2021-08-14T09:52:10.000Z</time>
      </trkpt>
      <trkpt lat="47.22666" lon="-1.48518">
        <ele>53</ele>
        <time>2021-08-14T09:52:12.000Z</time>
      </trkpt>
      <trkpt lat="47.2266" lon="-1.48539">
        <ele>54</ele>
        <time>2021-08-14T09:52:14.000Z</time>
      </trkpt>
      <trkpt lat="47.22655" lon="-1.48559">
        <ele>54</ele>
        <time>2021-08-14T09:52:16.000Z</time>
      </trkpt>
      <trkpt lat="47.22648" lon="-1.48577">
        <ele>54</ele>
        <time>2021-08-14T09:52:18.000Z</time>
      </trkpt>
      <trkpt lat="47.22641" lon="-1.48594">
        <ele>54</ele>
        <time>2021-08-14T09:52:20.000Z</time>
      </trkpt>
      <trkpt lat="47.22635" lon="-1.4861">
        <ele>55</ele>
        <time>2021-08-14T09:52:22.000Z</time>
      </trkpt>
      <trkpt lat="47.22629" lon="-1.48626">
        <ele>56</ele>
        <time>2021-08-14T09:52:24.000Z</time>
      </trkpt>
      <trkpt lat="47.22624" lon="-1.48643">
        <ele>56</ele>
        <time>2021-08-14T09:52:26.000Z</time>
      </trkpt>
      <trkpt lat="47.22617" lon="-1.4866">
        <ele>57</ele>
        <time>2021-08-14T09:52:28.000Z</time>
      </trkpt>
      <trkpt lat="47.22612" lon="-1.4868">
        <ele>58</ele>
        <time>2021-08-14T09:52:30.000Z</time>
      </trkpt>
      <trkpt lat="47.22606" lon="-1.487">
        <ele>58</ele>
        <time>2021-08-14T09:52:32.000Z</time>
      </trkpt>
      <trkpt lat="47.22601" lon="-1.48719">
        <ele>57</ele>
        <time>2021-08-14T09:52:34.000Z</time>
      </trkpt>
      <trkpt lat="47.22595" lon="-1.48739">
        <ele>58</ele>
        <time>2021-08-14T09:52:36.000Z</time>
      </trkpt>
      <trkpt lat="47.2259" lon="-1.48758">
        <ele>57</ele>
        <time>2021-08-14T09:52:38.000Z</time>
      </trkpt>
      <trkpt lat="47.22585" lon="-1.48777">
        <ele>57</ele>
        <time>2021-08-14T09:52:40.000Z</time>
      </trkpt>
      <trkpt lat="47.22579" lon="-1.48794">
        <ele>57</ele>
        <time>2021-08-14T09:52:42.000Z</time>
      </trkpt>
      <trkpt lat="47.22573" lon="-1.48813">
        <ele>57</ele>
        <time>2021-08-14T09:52:44.000Z</time>
      </trkpt>
      <trkpt lat="47.22567" lon="-1.48829">
        <ele>57</ele>
        <time>2021-08-14T09:52:46.000Z</time>
      </trkpt>
      <trkpt lat="47.22562" lon="-1.48845">
        <ele>58</ele>
        <time>2021-08-14T09:52:48.000Z</time>
      </trkpt>
      <trkpt lat="47.22557" lon="-1.48862">
        <ele>59</ele>
        <time>2021-08-14T09:52:50.000Z</time>
      </trkpt>
      <trkpt lat="47.22552" lon="-1.48879">
        <ele>59</ele>
        <time>2021-08-14T09:52:52.000Z</time>
      </trkpt>
      <trkpt lat="47.22548" lon="-1.48897">
        <ele>59</ele>
        <time>2021-08-14T09:52:54.000Z</time>
      </trkpt>
      <trkpt lat="47.22541" lon="-1.48917">
        <ele>59</ele>
        <time>2021-08-14T09:52:56.000Z</time>
      </trkpt>
      <trkpt lat="47.22533" lon="-1.48938">
        <ele>60</ele>
        <time>2021-08-14T09:52:58.000Z</time>
      </trkpt>
      <trkpt lat="47.22526" lon="-1.48957">
        <ele>60</ele>
        <time>2021-08-14T09:53:00.000Z</time>
      </trkpt>
      <trkpt lat="47.22519" lon="-1.48975">
        <ele>60</ele>
        <time>2021-08-14T09:53:02.000Z</time>
      </trkpt>
      <trkpt lat="47.22513" lon="-1.48995">
        <ele>60</ele>
        <time>2021-08-14T09:53:04.000Z</time>
      </trkpt>
      <trkpt lat="47.22508" lon="-1.49014">
        <ele>60</ele>
        <time>2021-08-14T09:53:06.000Z</time>
      </trkpt>
      <trkpt lat="47.22505" lon="-1.4903">
        <ele>60</ele>
        <time>2021-08-14T09:53:08.000Z</time>
      </trkpt>
      <trkpt lat="47.225" lon="-1.49046">
        <ele>59</ele>
        <time>2021-08-14T09:53:10.000Z</time>
      </trkpt>
      <trkpt lat="47.22495" lon="-1.49063">
        <ele>60</ele>
        <time>2021-08-14T09:53:12.000Z</time>
      </trkpt>
      <trkpt lat="47.22487" lon="-1.49082">
        <ele>60</ele>
        <time>2021-08-14T09:53:14.000Z</time>
      </trkpt>
      <trkpt lat="47.22479" lon="-1.49102">
        <ele>61</ele>
        <time>2021-08-14T09:53:16.000Z</time>
      </trkpt>
      <trkpt lat="47.22473" lon="-1.49122">
        <ele>61</ele>
        <time>2021-08-14T09:53:18.000Z</time>
      </trkpt>
      <trkpt lat="47.22468" lon="-1.49144">
        <ele>62</ele>
        <time>2021-08-14T09:53:20.000Z</time>
      </trkpt>
      <trkpt lat="47.22462" lon="-1.49166">
        <ele>61</ele>
        <time>2021-08-14T09:53:22.000Z</time>
      </trkpt>
      <trkpt lat="47.22454" lon="-1.49186">
        <ele>61</ele>
        <time>2021-08-14T09:53:24.000Z</time>
      </trkpt>
      <trkpt lat="47.22446" lon="-1.49205">
        <ele>60</ele>
        <time>2021-08-14T09:53:26.000Z</time>
      </trkpt>
      <trkpt lat="47.2244" lon="-1.49225">
        <ele>60</ele>
        <time>2021-08-14T09:53:28.000Z</time>
      </trkpt>
      <trkpt lat="47.22433" lon="-1.49244">
        <ele>60</ele>
        <time>2021-08-14T09:53:30.000Z</time>
      </trkpt>
      <trkpt lat="47.22427" lon="-1.49264">
        <ele>59</ele>
        <time>2021-08-14T09:53:32.000Z</time>
      </trkpt>
      <trkpt lat="47.22419" lon="-1.49283">
        <ele>59</ele>
        <time>2021-08-14T09:53:34.000Z</time>
      </trkpt>
      <trkpt lat="47.22411" lon="-1.49301">
        <ele>58</ele>
        <time>2021-08-14T09:53:36.000Z</time>
      </trkpt>
      <trkpt lat="47.22405" lon="-1.4932">
        <ele>58</ele>
        <time>2021-08-14T09:53:38.000Z</time>
      </trkpt>
      <trkpt lat="47.22397" lon="-1.49338">
        <ele>59</ele>
        <time>2021-08-14T09:53:40.000Z</time>
      </trkpt>
      <trkpt lat="47.2239" lon="-1.49356">
        <ele>58</ele>
        <time>2021-08-14T09:53:42.000Z</time>
      </trkpt>
      <trkpt lat="47.22382" lon="-1.49374">
        <ele>57</ele>
        <time>2021-08-14T09:53:44.000Z</time>
      </trkpt>
      <trkpt lat="47.22375" lon="-1.49391">
        <ele>57</ele>
        <time>2021-08-14T09:53:46.000Z</time>
      </trkpt>
      <trkpt lat="47.22368" lon="-1.49408">
        <ele>58</ele>
        <time>2021-08-14T09:53:48.000Z</time>
      </trkpt>
      <trkpt lat="47.2236" lon="-1.49425">
        <ele>58</ele>
        <time>2021-08-14T09:53:50.000Z</time>
      </trkpt>
      <trkpt lat="47.22353" lon="-1.49441">
        <ele>58</ele>
        <time>2021-08-14T09:53:52.000Z</time>
      </trkpt>
      <trkpt lat="47.22348" lon="-1.49459">
        <ele>59</ele>
        <time>2021-08-14T09:53:54.000Z</time>
      </trkpt>
      <trkpt lat="47.22343" lon="-1.49477">
        <ele>60</ele>
        <time>2021-08-14T09:53:56.000Z</time>
      </trkpt>
      <trkpt lat="47.22337" lon="-1.49497">
        <ele>60</ele>
        <time>2021-08-14T09:53:58.000Z</time>
      </trkpt>
      <trkpt lat="47.22332" lon="-1.49517">
        <ele>59</ele>
        <time>2021-08-14T09:54:00.000Z</time>
      </trkpt>
      <trkpt lat="47.22325" lon="-1.49537">
        <ele>58</ele>
        <time>2021-08-14T09:54:02.000Z</time>
      </trkpt>
      <trkpt lat="47.22319" lon="-1.49554">
        <ele>58</ele>
        <time>2021-08-14T09:54:04.000Z</time>
      </trkpt>
      <trkpt lat="47.22312" lon="-1.49572">
        <ele>57</ele>
        <time>2021-08-14T09:54:06.000Z</time>
      </trkpt>
      <trkpt lat="47.22306" lon="-1.4959">
        <ele>58</ele>
        <time>2021-08-14T09:54:08.000Z</time>
      </trkpt>
      <trkpt lat="47.223" lon="-1.49608">
        <ele>58</ele>
        <time>2021-08-14T09:54:10.000Z</time>
      </trkpt>
      <trkpt lat="47.22294" lon="-1.49627">
        <ele>58</ele>
        <time>2021-08-14T09:54:12.000Z</time>
      </trkpt>
      <trkpt lat="47.22289" lon="-1.49646">
        <ele>58</ele>
        <time>2021-08-14T09:54:14.000Z</time>
      </trkpt>
      <trkpt lat="47.22283" lon="-1.49667">
        <ele>58</ele>
        <time>2021-08-14T09:54:16.000Z</time>
      </trkpt>
      <trkpt lat="47.22276" lon="-1.49686">
        <ele>58</ele>
        <time>2021-08-14T09:54:18.000Z</time>
      </trkpt>
      <trkpt lat="47.2227" lon="-1.49704">
        <ele>58</ele>
        <time>2021-08-14T09:54:20.000Z</time>
      </trkpt>
      <trkpt lat="47.22264" lon="-1.49722">
        <ele>58</ele>
        <time>2021-08-14T09:54:22.000Z</time>
      </trkpt>
      <trkpt lat="47.22259" lon="-1.49741">
        <ele>58</ele>
        <time>2021-08-14T09:54:24.000Z</time>
      </trkpt>
      <trkpt lat="47.22255" lon="-1.49761">
        <ele>58</ele>
        <time>2021-08-14T09:54:26.000Z</time>
      </trkpt>
      <trkpt lat="47.22252" lon="-1.49781">
        <ele>57</ele>
        <time>2021-08-14T09:54:28.000Z</time>
      </trkpt>
      <trkpt lat="47.2225" lon="-1.498">
        <ele>57</ele>
        <time>2021-08-14T09:54:30.000Z</time>
      </trkpt>
      <trkpt lat="47.22246" lon="-1.49819">
        <ele>57</ele>
        <time>2021-08-14T09:54:32.000Z</time>
      </trkpt>
      <trkpt lat="47.22242" lon="-1.49839">
        <ele>57</ele>
        <time>2021-08-14T09:54:34.000Z</time>
      </trkpt>
      <trkpt lat="47.22238" lon="-1.49857">
        <ele>58</ele>
        <time>2021-08-14T09:54:36.000Z</time>
      </trkpt>
      <trkpt lat="47.22233" lon="-1.49876">
        <ele>58</ele>
        <time>2021-08-14T09:54:38.000Z</time>
      </trkpt>
      <trkpt lat="47.22228" lon="-1.49895">
        <ele>58</ele>
        <time>2021-08-14T09:54:40.000Z</time>
      </trkpt>
      <trkpt lat="47.22224" lon="-1.49915">
        <ele>59</ele>
        <time>2021-08-14T09:54:42.000Z</time>
      </trkpt>
      <trkpt lat="47.22218" lon="-1.49934">
        <ele>59</ele>
        <time>2021-08-14T09:54:44.000Z</time>
      </trkpt>
      <trkpt lat="47.22214" lon="-1.49953">
        <ele>59</ele>
        <time>2021-08-14T09:54:46.000Z</time>
      </trkpt>
      <trkpt lat="47.22209" lon="-1.49971">
        <ele>60</ele>
        <time>2021-08-14T09:54:48.000Z</time>
      </trkpt>
      <trkpt lat="47.22204" lon="-1.4999">
        <ele>60</ele>
        <time>2021-08-14T09:54:50.000Z</time>
      </trkpt>
      <trkpt lat="47.22198" lon="-1.5001">
        <ele>59</ele>
        <time>2021-08-14T09:54:52.000Z</time>
      </trkpt>
      <trkpt lat="47.22192" lon="-1.50031">
        <ele>60</ele>
        <time>2021-08-14T09:54:54.000Z</time>
      </trkpt>
      <trkpt lat="47.22188" lon="-1.50052">
        <ele>59</ele>
        <time>2021-08-14T09:54:56.000Z</time>
      </trkpt>
      <trkpt lat="47.22184" lon="-1.50072">
        <ele>59</ele>
        <time>2021-08-14T09:54:58.000Z</time>
      </trkpt>
      <trkpt lat="47.22179" lon="-1.50092">
        <ele>59</ele>
        <time>2021-08-14T09:55:00.000Z</time>
      </trkpt>
      <trkpt lat="47.22173" lon="-1.50111">
        <ele>59</ele>
        <time>2021-08-14T09:55:02.000Z</time>
      </trkpt>
      <trkpt lat="47.22166" lon="-1.5013">
        <ele>59</ele>
        <time>2021-08-14T09:55:04.000Z</time>
      </trkpt>
      <trkpt lat="47.2216" lon="-1.50148">
        <ele>59</ele>
        <time>2021-08-14T09:55:06.000Z</time>
      </trkpt>
      <trkpt lat="47.22154" lon="-1.50168">
        <ele>59</ele>
        <time>2021-08-14T09:55:08.000Z</time>
      </trkpt>
      <trkpt lat="47.22149" lon="-1.50189">
        <ele>59</ele>
        <time>2021-08-14T09:55:10.000Z</time>
      </trkpt>
      <trkpt lat="47.22146" lon="-1.50208">
        <ele>59</ele>
        <time>2021-08-14T09:55:12.000Z</time>
      </trkpt>
      <trkpt lat="47.22141" lon="-1.50226">
        <ele>58</ele>
        <time>2021-08-14T09:55:14.000Z</time>
      </trkpt>
      <trkpt lat="47.22135" lon="-1.50242">
        <ele>58</ele>
        <time>2021-08-14T09:55:16.000Z</time>
      </trkpt>
      <trkpt lat="47.2213" lon="-1.5026">
        <ele>58</ele>
        <time>2021-08-14T09:55:18.000Z</time>
      </trkpt>
      <trkpt lat="47.22123" lon="-1.5028">
        <ele>58</ele>
        <time>2021-08-14T09:55:20.000Z</time>
      </trkpt>
      <trkpt lat="47.22116" lon="-1.50297">
        <ele>59</ele>
        <time>2021-08-14T09:55:22.000Z</time>
      </trkpt>
      <trkpt lat="47.22108" lon="-1.50313">
        <ele>59</ele>
        <time>2021-08-14T09:55:24.000Z</time>
      </trkpt>
      <trkpt lat="47.22099" lon="-1.5033">
        <ele>59</ele>
        <time>2021-08-14T09:55:26.000Z</time>
      </trkpt>
      <trkpt lat="47.22093" lon="-1.50346">
        <ele>58</ele>
        <time>2021-08-14T09:55:28.000Z</time>
      </trkpt>
      <trkpt lat="47.22088" lon="-1.50367">
        <ele>58</ele>
        <time>2021-08-14T09:55:30.000Z</time>
      </trkpt>
      <trkpt lat="47.22083" lon="-1.50387">
        <ele>58</ele>
        <time>2021-08-14T09:55:32.000Z</time>
      </trkpt>
      <trkpt lat="47.22077" lon="-1.50407">
        <ele>58</ele>
        <time>2021-08-14T09:55:34.000Z</time>
      </trkpt>
      <trkpt lat="47.22072" lon="-1.50426">
        <ele>58</ele>
        <time>2021-08-14T09:55:36.000Z</time>
      </trkpt>
      <trkpt lat="47.22069" lon="-1.50446">
        <ele>57</ele>
        <time>2021-08-14T09:55:38.000Z</time>
      </trkpt>
      <trkpt lat="47.22066" lon="-1.50466">
        <ele>57</ele>
        <time>2021-08-14T09:55:40.000Z</time>
      </trkpt>
      <trkpt lat="47.22064" lon="-1.50486">
        <ele>57</ele>
        <time>2021-08-14T09:55:42.000Z</time>
      </trkpt>
      <trkpt lat="47.22062" lon="-1.50505">
        <ele>57</ele>
        <time>2021-08-14T09:55:44.000Z</time>
      </trkpt>
      <trkpt lat="47.22061" lon="-1.50525">
        <ele>57</ele>
        <time>2021-08-14T09:55:46.000Z</time>
      </trkpt>
      <trkpt lat="47.2206" lon="-1.50543">
        <ele>57</ele>
        <time>2021-08-14T09:55:48.000Z</time>
      </trkpt>
      <trkpt lat="47.22058" lon="-1.5056">
        <ele>57</ele>
        <time>2021-08-14T09:55:50.000Z</time>
      </trkpt>
      <trkpt lat="47.22057" lon="-1.50579">
        <ele>57</ele>
        <time>2021-08-14T09:55:52.000Z</time>
      </trkpt>
      <trkpt lat="47.22057" lon="-1.50598">
        <ele>58</ele>
        <time>2021-08-14T09:55:54.000Z</time>
      </trkpt>
      <trkpt lat="47.22056" lon="-1.50616">
        <ele>58</ele>
        <time>2021-08-14T09:55:56.000Z</time>
      </trkpt>
      <trkpt lat="47.22054" lon="-1.50635">
        <ele>58</ele>
        <time>2021-08-14T09:55:58.000Z</time>
      </trkpt>
      <trkpt lat="47.22053" lon="-1.50656">
        <ele>58</ele>
        <time>2021-08-14T09:56:00.000Z</time>
      </trkpt>
      <trkpt lat="47.22051" lon="-1.50674">
        <ele>59</ele>
        <time>2021-08-14T09:56:02.000Z</time>
      </trkpt>
      <trkpt lat="47.22049" lon="-1.50692">
        <ele>60</ele>
        <time>2021-08-14T09:56:04.000Z</time>
      </trkpt>
      <trkpt lat="47.22049" lon="-1.5071">
        <ele>60</ele>
        <time>2021-08-14T09:56:06.000Z</time>
      </trkpt>
      <trkpt lat="47.22046" lon="-1.50729">
        <ele>60</ele>
        <time>2021-08-14T09:56:08.000Z</time>
      </trkpt>
      <trkpt lat="47.22044" lon="-1.50747">
        <ele>61</ele>
        <time>2021-08-14T09:56:10.000Z</time>
      </trkpt>
      <trkpt lat="47.22041" lon="-1.50767">
        <ele>61</ele>
        <time>2021-08-14T09:56:12.000Z</time>
      </trkpt>
      <trkpt lat="47.22036" lon="-1.50784">
        <ele>61</ele>
        <time>2021-08-14T09:56:14.000Z</time>
      </trkpt>
      <trkpt lat="47.2203" lon="-1.50803">
        <ele>62</ele>
        <time>2021-08-14T09:56:16.000Z</time>
      </trkpt>
      <trkpt lat="47.22024" lon="-1.5082">
        <ele>61</ele>
        <time>2021-08-14T09:56:18.000Z</time>
      </trkpt>
      <trkpt lat="47.22017" lon="-1.50836">
        <ele>61</ele>
        <time>2021-08-14T09:56:20.000Z</time>
      </trkpt>
      <trkpt lat="47.22011" lon="-1.50856">
        <ele>61</ele>
        <time>2021-08-14T09:56:22.000Z</time>
      </trkpt>
      <trkpt lat="47.22003" lon="-1.50875">
        <ele>61</ele>
        <time>2021-08-14T09:56:24.000Z</time>
      </trkpt>
      <trkpt lat="47.21996" lon="-1.50894">
        <ele>60</ele>
        <time>2021-08-14T09:56:26.000Z</time>
      </trkpt>
      <trkpt lat="47.21991" lon="-1.50913">
        <ele>60</ele>
        <time>2021-08-14T09:56:28.000Z</time>
      </trkpt>
      <trkpt lat="47.21985" lon="-1.5093">
        <ele>59</ele>
        <time>2021-08-14T09:56:30.000Z</time>
      </trkpt>
      <trkpt lat="47.2198" lon="-1.50948">
        <ele>58</ele>
        <time>2021-08-14T09:56:32.000Z</time>
      </trkpt>
      <trkpt lat="47.21976" lon="-1.50967">
        <ele>57</ele>
        <time>2021-08-14T09:56:34.000Z</time>
      </trkpt>
      <trkpt lat="47.21971" lon="-1.50985">
        <ele>57</ele>
        <time>2021-08-14T09:56:36.000Z</time>
      </trkpt>
      <trkpt lat="47.21966" lon="-1.51004">
        <ele>57</ele>
        <time>2021-08-14T09:56:38.000Z</time>
      </trkpt>
      <trkpt lat="47.2196" lon="-1.51021">
        <ele>57</ele>
        <time>2021-08-14T09:56:40.000Z</time>
      </trkpt>
      <trkpt lat="47.21955" lon="-1.51038">
        <ele>57</ele>
        <time>2021-08-14T09:56:42.000Z</time>
      </trkpt>
      <trkpt lat="47.2195" lon="-1.51053">
        <ele>57</ele>
        <time>2021-08-14T09:56:44.000Z</time>
      </trkpt>
      <trkpt lat="47.21943" lon="-1.51064">
        <ele>57</ele>
        <time>2021-08-14T09:56:46.000Z</time>
      </trkpt>
      <trkpt lat="47.21936" lon="-1.51077">
        <ele>57</ele>
        <time>2021-08-14T09:56:48.000Z</time>
      </trkpt>
      <trkpt lat="47.21929" lon="-1.51095">
        <ele>57</ele>
        <time>2021-08-14T09:56:50.000Z</time>
      </trkpt>
      <trkpt lat="47.21923" lon="-1.51113">
        <ele>56</ele>
        <time>2021-08-14T09:56:52.000Z</time>
      </trkpt>
      <trkpt lat="47.21917" lon="-1.51132">
        <ele>56</ele>
        <time>2021-08-14T09:56:54.000Z</time>
      </trkpt>
      <trkpt lat="47.21912" lon="-1.5115">
        <ele>56</ele>
        <time>2021-08-14T09:56:56.000Z</time>
      </trkpt>
      <trkpt lat="47.21906" lon="-1.51167">
        <ele>56</ele>
        <time>2021-08-14T09:56:58.000Z</time>
      </trkpt>
      <trkpt lat="47.219" lon="-1.51185">
        <ele>56</ele>
        <time>2021-08-14T09:57:00.000Z</time>
      </trkpt>
      <trkpt lat="47.21894" lon="-1.51202">
        <ele>56</ele>
        <time>2021-08-14T09:57:02.000Z</time>
      </trkpt>
      <trkpt lat="47.21889" lon="-1.5122">
        <ele>55</ele>
        <time>2021-08-14T09:57:04.000Z</time>
      </trkpt>
      <trkpt lat="47.21882" lon="-1.51237">
        <ele>55</ele>
        <time>2021-08-14T09:57:06.000Z</time>
      </trkpt>
      <trkpt lat="47.21874" lon="-1.51263">
        <ele>55</ele>
        <time>2021-08-14T09:57:09.000Z</time>
      </trkpt>
      <trkpt lat="47.21865" lon="-1.51289">
        <ele>55</ele>
        <time>2021-08-14T09:57:12.000Z</time>
      </trkpt>
      <trkpt lat="47.21857" lon="-1.51316">
        <ele>55</ele>
        <time>2021-08-14T09:57:15.000Z</time>
      </trkpt>
      <trkpt lat="47.21852" lon="-1.51333">
        <ele>55</ele>
        <time>2021-08-14T09:57:17.000Z</time>
      </trkpt>
      <trkpt lat="47.21846" lon="-1.51351">
        <ele>54</ele>
        <time>2021-08-14T09:57:19.000Z</time>
      </trkpt>
      <trkpt lat="47.21842" lon="-1.5137">
        <ele>54</ele>
        <time>2021-08-14T09:57:21.000Z</time>
      </trkpt>
      <trkpt lat="47.21837" lon="-1.51388">
        <ele>54</ele>
        <time>2021-08-14T09:57:23.000Z</time>
      </trkpt>
      <trkpt lat="47.21833" lon="-1.51405">
        <ele>54</ele>
        <time>2021-08-14T09:57:25.000Z</time>
      </trkpt>
      <trkpt lat="47.21829" lon="-1.51423">
        <ele>54</ele>
        <time>2021-08-14T09:57:27.000Z</time>
      </trkpt>
      <trkpt lat="47.21825" lon="-1.51442">
        <ele>55</ele>
        <time>2021-08-14T09:57:29.000Z</time>
      </trkpt>
      <trkpt lat="47.21821" lon="-1.51461">
        <ele>55</ele>
        <time>2021-08-14T09:57:31.000Z</time>
      </trkpt>
      <trkpt lat="47.21817" lon="-1.51479">
        <ele>54</ele>
        <time>2021-08-14T09:57:33.000Z</time>
      </trkpt>
      <trkpt lat="47.21813" lon="-1.51496">
        <ele>55</ele>
        <time>2021-08-14T09:57:35.000Z</time>
      </trkpt>
      <trkpt lat="47.21806" lon="-1.5151">
        <ele>55</ele>
        <time>2021-08-14T09:57:37.000Z</time>
      </trkpt>
      <trkpt lat="47.21799" lon="-1.51526">
        <ele>55</ele>
        <time>2021-08-14T09:57:39.000Z</time>
      </trkpt>
      <trkpt lat="47.21792" lon="-1.51543">
        <ele>55</ele>
        <time>2021-08-14T09:57:41.000Z</time>
      </trkpt>
      <trkpt lat="47.21786" lon="-1.5156">
        <ele>55</ele>
        <time>2021-08-14T09:57:43.000Z</time>
      </trkpt>
      <trkpt lat="47.21778" lon="-1.51575">
        <ele>55</ele>
        <time>2021-08-14T09:57:45.000Z</time>
      </trkpt>
      <trkpt lat="47.2177" lon="-1.51588">
        <ele>56</ele>
        <time>2021-08-14T09:57:47.000Z</time>
      </trkpt>
      <trkpt lat="47.2176" lon="-1.51601">
        <ele>56</ele>
        <time>2021-08-14T09:57:49.000Z</time>
      </trkpt>
      <trkpt lat="47.21752" lon="-1.51615">
        <ele>56</ele>
        <time>2021-08-14T09:57:51.000Z</time>
      </trkpt>
      <trkpt lat="47.21745" lon="-1.51629">
        <ele>55</ele>
        <time>2021-08-14T09:57:53.000Z</time>
      </trkpt>
      <trkpt lat="47.21738" lon="-1.51645">
        <ele>55</ele>
        <time>2021-08-14T09:57:55.000Z</time>
      </trkpt>
      <trkpt lat="47.21731" lon="-1.51661">
        <ele>55</ele>
        <time>2021-08-14T09:57:57.000Z</time>
      </trkpt>
      <trkpt lat="47.21724" lon="-1.51676">
        <ele>55</ele>
        <time>2021-08-14T09:57:59.000Z</time>
      </trkpt>
      <trkpt lat="47.21716" lon="-1.51692">
        <ele>54</ele>
        <time>2021-08-14T09:58:01.000Z</time>
      </trkpt>
      <trkpt lat="47.21709" lon="-1.51707">
        <ele>55</ele>
        <time>2021-08-14T09:58:03.000Z</time>
      </trkpt>
      <trkpt lat="47.21702" lon="-1.51722">
        <ele>55</ele>
        <time>2021-08-14T09:58:05.000Z</time>
      </trkpt>
      <trkpt lat="47.21696" lon="-1.51739">
        <ele>55</ele>
        <time>2021-08-14T09:58:07.000Z</time>
      </trkpt>
      <trkpt lat="47.21688" lon="-1.51756">
        <ele>56</ele>
        <time>2021-08-14T09:58:09.000Z</time>
      </trkpt>
      <trkpt lat="47.21681" lon="-1.51772">
        <ele>56</ele>
        <time>2021-08-14T09:58:11.000Z</time>
      </trkpt>
      <trkpt lat="47.21674" lon="-1.51788">
        <ele>56</ele>
        <time>2021-08-14T09:58:13.000Z</time>
      </trkpt>
      <trkpt lat="47.21667" lon="-1.51804">
        <ele>56</ele>
        <time>2021-08-14T09:58:15.000Z</time>
      </trkpt>
      <trkpt lat="47.2166" lon="-1.5182">
        <ele>56</ele>
        <time>2021-08-14T09:58:17.000Z</time>
      </trkpt>
      <trkpt lat="47.21654" lon="-1.51837">
        <ele>56</ele>
        <time>2021-08-14T09:58:19.000Z</time>
      </trkpt>
      <trkpt lat="47.21649" lon="-1.51853">
        <ele>56</ele>
        <time>2021-08-14T09:58:21.000Z</time>
      </trkpt>
      <trkpt lat="47.21646" lon="-1.5187">
        <ele>57</ele>
        <time>2021-08-14T09:58:23.000Z</time>
      </trkpt>
      <trkpt lat="47.21641" lon="-1.51889">
        <ele>57</ele>
        <time>2021-08-14T09:58:25.000Z</time>
      </trkpt>
      <trkpt lat="47.21634" lon="-1.51904">
        <ele>57</ele>
        <time>2021-08-14T09:58:27.000Z</time>
      </trkpt>
      <trkpt lat="47.21627" lon="-1.51921">
        <ele>56</ele>
        <time>2021-08-14T09:58:29.000Z</time>
      </trkpt>
      <trkpt lat="47.21623" lon="-1.51939">
        <ele>56</ele>
        <time>2021-08-14T09:58:31.000Z</time>
      </trkpt>
      <trkpt lat="47.2162" lon="-1.51958">
        <ele>56</ele>
        <time>2021-08-14T09:58:33.000Z</time>
      </trkpt>
      <trkpt lat="47.21616" lon="-1.51975">
        <ele>56</ele>
        <time>2021-08-14T09:58:35.000Z</time>
      </trkpt>
      <trkpt lat="47.21609" lon="-1.51988">
        <ele>56</ele>
        <time>2021-08-14T09:58:37.000Z</time>
      </trkpt>
      <trkpt lat="47.21602" lon="-1.52003">
        <ele>56</ele>
        <time>2021-08-14T09:58:39.000Z</time>
      </trkpt>
      <trkpt lat="47.21595" lon="-1.52022">
        <ele>56</ele>
        <time>2021-08-14T09:58:41.000Z</time>
      </trkpt>
      <trkpt lat="47.21589" lon="-1.52041">
        <ele>56</ele>
        <time>2021-08-14T09:58:43.000Z</time>
      </trkpt>
      <trkpt lat="47.21583" lon="-1.52058">
        <ele>56</ele>
        <time>2021-08-14T09:58:45.000Z</time>
      </trkpt>
      <trkpt lat="47.21578" lon="-1.52076">
        <ele>56</ele>
        <time>2021-08-14T09:58:47.000Z</time>
      </trkpt>
      <trkpt lat="47.21571" lon="-1.52094">
        <ele>55</ele>
        <time>2021-08-14T09:58:49.000Z</time>
      </trkpt>
      <trkpt lat="47.21566" lon="-1.52113">
        <ele>55</ele>
        <time>2021-08-14T09:58:51.000Z</time>
      </trkpt>
      <trkpt lat="47.2156" lon="-1.52131">
        <ele>55</ele>
        <time>2021-08-14T09:58:53.000Z</time>
      </trkpt>
      <trkpt lat="47.21554" lon="-1.52148">
        <ele>55</ele>
        <time>2021-08-14T09:58:55.000Z</time>
      </trkpt>
      <trkpt lat="47.21548" lon="-1.52167">
        <ele>56</ele>
        <time>2021-08-14T09:58:57.000Z</time>
      </trkpt>
      <trkpt lat="47.21543" lon="-1.52185">
        <ele>56</ele>
        <time>2021-08-14T09:58:59.000Z</time>
      </trkpt>
      <trkpt lat="47.21537" lon="-1.52203">
        <ele>56</ele>
        <time>2021-08-14T09:59:01.000Z</time>
      </trkpt>
      <trkpt lat="47.2153" lon="-1.52222">
        <ele>56</ele>
        <time>2021-08-14T09:59:03.000Z</time>
      </trkpt>
      <trkpt lat="47.21523" lon="-1.5224">
        <ele>56</ele>
        <time>2021-08-14T09:59:05.000Z</time>
      </trkpt>
      <trkpt lat="47.21517" lon="-1.52259">
        <ele>56</ele>
        <time>2021-08-14T09:59:07.000Z</time>
      </trkpt>
      <trkpt lat="47.21511" lon="-1.52279">
        <ele>56</ele>
        <time>2021-08-14T09:59:09.000Z</time>
      </trkpt>
      <trkpt lat="47.21506" lon="-1.523">
        <ele>56</ele>
        <time>2021-08-14T09:59:11.000Z</time>
      </trkpt>
      <trkpt lat="47.215" lon="-1.5232">
        <ele>56</ele>
        <time>2021-08-14T09:59:13.000Z</time>
      </trkpt>
      <trkpt lat="47.21493" lon="-1.5234">
        <ele>57</ele>
        <time>2021-08-14T09:59:15.000Z</time>
      </trkpt>
      <trkpt lat="47.21487" lon="-1.52359">
        <ele>57</ele>
        <time>2021-08-14T09:59:17.000Z</time>
      </trkpt>
      <trkpt lat="47.2148" lon="-1.52378">
        <ele>57</ele>
        <time>2021-08-14T09:59:19.000Z</time>
      </trkpt>
      <trkpt lat="47.21474" lon="-1.52398">
        <ele>57</ele>
        <time>2021-08-14T09:59:21.000Z</time>
      </trkpt>
      <trkpt lat="47.21467" lon="-1.52419">
        <ele>57</ele>
        <time>2021-08-14T09:59:23.000Z</time>
      </trkpt>
      <trkpt lat="47.21461" lon="-1.52438">
        <ele>57</ele>
        <time>2021-08-14T09:59:25.000Z</time>
      </trkpt>
      <trkpt lat="47.21455" lon="-1.52457">
        <ele>57</ele>
        <time>2021-08-14T09:59:27.000Z</time>
      </trkpt>
      <trkpt lat="47.2145" lon="-1.52478">
        <ele>57</ele>
        <time>2021-08-14T09:59:29.000Z</time>
      </trkpt>
      <trkpt lat="47.21443" lon="-1.52498">
        <ele>57</ele>
        <time>2021-08-14T09:59:31.000Z</time>
      </trkpt>
      <trkpt lat="47.21436" lon="-1.52518">
        <ele>57</ele>
        <time>2021-08-14T09:59:33.000Z</time>
      </trkpt>
      <trkpt lat="47.2143" lon="-1.52537">
        <ele>57</ele>
        <time>2021-08-14T09:59:35.000Z</time>
      </trkpt>
      <trkpt lat="47.21423" lon="-1.52556">
        <ele>57</ele>
        <time>2021-08-14T09:59:37.000Z</time>
      </trkpt>
      <trkpt lat="47.21417" lon="-1.52575">
        <ele>57</ele>
        <time>2021-08-14T09:59:39.000Z</time>
      </trkpt>
      <trkpt lat="47.21411" lon="-1.52595">
        <ele>56</ele>
        <time>2021-08-14T09:59:41.000Z</time>
      </trkpt>
      <trkpt lat="47.21405" lon="-1.52613">
        <ele>56</ele>
        <time>2021-08-14T09:59:43.000Z</time>
      </trkpt>
      <trkpt lat="47.21399" lon="-1.52632">
        <ele>57</ele>
        <time>2021-08-14T09:59:45.000Z</time>
      </trkpt>
      <trkpt lat="47.21393" lon="-1.5265">
        <ele>57</ele>
        <time>2021-08-14T09:59:47.000Z</time>
      </trkpt>
      <trkpt lat="47.21388" lon="-1.52669">
        <ele>58</ele>
        <time>2021-08-14T09:59:49.000Z</time>
      </trkpt>
      <trkpt lat="47.21384" lon="-1.52691">
        <ele>57</ele>
        <time>2021-08-14T09:59:51.000Z</time>
      </trkpt>
      <trkpt lat="47.21379" lon="-1.52713">
        <ele>59</ele>
        <time>2021-08-14T09:59:53.000Z</time>
      </trkpt>
      <trkpt lat="47.21375" lon="-1.52732">
        <ele>59</ele>
        <time>2021-08-14T09:59:55.000Z</time>
      </trkpt>
      <trkpt lat="47.2137" lon="-1.52753">
        <ele>59</ele>
        <time>2021-08-14T09:59:57.000Z</time>
      </trkpt>
      <trkpt lat="47.21366" lon="-1.52776">
        <ele>58</ele>
        <time>2021-08-14T09:59:59.000Z</time>
      </trkpt>
      <trkpt lat="47.21363" lon="-1.52797">
        <ele>58</ele>
        <time>2021-08-14T10:00:01.000Z</time>
      </trkpt>
      <trkpt lat="47.2136" lon="-1.52816">
        <ele>58</ele>
        <time>2021-08-14T10:00:03.000Z</time>
      </trkpt>
      <trkpt lat="47.21356" lon="-1.52836">
        <ele>57</ele>
        <time>2021-08-14T10:00:05.000Z</time>
      </trkpt>
      <trkpt lat="47.21351" lon="-1.52856">
        <ele>57</ele>
        <time>2021-08-14T10:00:07.000Z</time>
      </trkpt>
      <trkpt lat="47.21348" lon="-1.52878">
        <ele>56</ele>
        <time>2021-08-14T10:00:09.000Z</time>
      </trkpt>
      <trkpt lat="47.21344" lon="-1.52899">
        <ele>57</ele>
        <time>2021-08-14T10:00:11.000Z</time>
      </trkpt>
      <trkpt lat="47.21341" lon="-1.52921">
        <ele>56</ele>
        <time>2021-08-14T10:00:13.000Z</time>
      </trkpt>
      <trkpt lat="47.21338" lon="-1.52942">
        <ele>56</ele>
        <time>2021-08-14T10:00:15.000Z</time>
      </trkpt>
      <trkpt lat="47.21336" lon="-1.52963">
        <ele>56</ele>
        <time>2021-08-14T10:00:17.000Z</time>
      </trkpt>
      <trkpt lat="47.21333" lon="-1.52984">
        <ele>56</ele>
        <time>2021-08-14T10:00:19.000Z</time>
      </trkpt>
      <trkpt lat="47.21332" lon="-1.53006">
        <ele>56</ele>
        <time>2021-08-14T10:00:21.000Z</time>
      </trkpt>
      <trkpt lat="47.2133" lon="-1.53026">
        <ele>57</ele>
        <time>2021-08-14T10:00:23.000Z</time>
      </trkpt>
      <trkpt lat="47.21328" lon="-1.53046">
        <ele>57</ele>
        <time>2021-08-14T10:00:25.000Z</time>
      </trkpt>
      <trkpt lat="47.21327" lon="-1.53067">
        <ele>56</ele>
        <time>2021-08-14T10:00:27.000Z</time>
      </trkpt>
      <trkpt lat="47.21325" lon="-1.53087">
        <ele>56</ele>
        <time>2021-08-14T10:00:29.000Z</time>
      </trkpt>
      <trkpt lat="47.21324" lon="-1.53107">
        <ele>57</ele>
        <time>2021-08-14T10:00:31.000Z</time>
      </trkpt>
      <trkpt lat="47.2132" lon="-1.53125">
        <ele>57</ele>
        <time>2021-08-14T10:00:33.000Z</time>
      </trkpt>
      <trkpt lat="47.21317" lon="-1.53145">
        <ele>56</ele>
        <time>2021-08-14T10:00:35.000Z</time>
      </trkpt>
      <trkpt lat="47.21314" lon="-1.53166">
        <ele>56</ele>
        <time>2021-08-14T10:00:37.000Z</time>
      </trkpt>
      <trkpt lat="47.21312" lon="-1.53187">
        <ele>55</ele>
        <time>2021-08-14T10:00:39.000Z</time>
      </trkpt>
      <trkpt lat="47.2131" lon="-1.53207">
        <ele>56</ele>
        <time>2021-08-14T10:00:41.000Z</time>
      </trkpt>
      <trkpt lat="47.21308" lon="-1.53228">
        <ele>56</ele>
        <time>2021-08-14T10:00:43.000Z</time>
      </trkpt>
      <trkpt lat="47.21309" lon="-1.5325">
        <ele>56</ele>
        <time>2021-08-14T10:00:45.000Z</time>
      </trkpt>
      <trkpt lat="47.21309" lon="-1.5327">
        <ele>56</ele>
        <time>2021-08-14T10:00:47.000Z</time>
      </trkpt>
      <trkpt lat="47.21309" lon="-1.53291">
        <ele>56</ele>
        <time>2021-08-14T10:00:49.000Z</time>
      </trkpt>
      <trkpt lat="47.21308" lon="-1.53311">
        <ele>56</ele>
        <time>2021-08-14T10:00:51.000Z</time>
      </trkpt>
      <trkpt lat="47.21305" lon="-1.53332">
        <ele>55</ele>
        <time>2021-08-14T10:00:53.000Z</time>
      </trkpt>
      <trkpt lat="47.21301" lon="-1.53352">
        <ele>55</ele>
        <time>2021-08-14T10:00:55.000Z</time>
      </trkpt>
      <trkpt lat="47.21297" lon="-1.53371">
        <ele>56</ele>
        <time>2021-08-14T10:00:57.000Z</time>
      </trkpt>
      <trkpt lat="47.21294" lon="-1.53391">
        <ele>56</ele>
        <time>2021-08-14T10:00:59.000Z</time>
      </trkpt>
      <trkpt lat="47.21293" lon="-1.53411">
        <ele>56</ele>
        <time>2021-08-14T10:01:01.000Z</time>
      </trkpt>
      <trkpt lat="47.2129" lon="-1.53431">
        <ele>56</ele>
        <time>2021-08-14T10:01:03.000Z</time>
      </trkpt>
      <trkpt lat="47.21289" lon="-1.53449">
        <ele>56</ele>
        <time>2021-08-14T10:01:05.000Z</time>
      </trkpt>
      <trkpt lat="47.21294" lon="-1.53467">
        <ele>57</ele>
        <time>2021-08-14T10:01:07.000Z</time>
      </trkpt>
      <trkpt lat="47.213" lon="-1.53486">
        <ele>57</ele>
        <time>2021-08-14T10:01:09.000Z</time>
      </trkpt>
      <trkpt lat="47.21302" lon="-1.53506">
        <ele>57</ele>
        <time>2021-08-14T10:01:11.000Z</time>
      </trkpt>
      <trkpt lat="47.21302" lon="-1.53526">
        <ele>57</ele>
        <time>2021-08-14T10:01:13.000Z</time>
      </trkpt>
      <trkpt lat="47.21302" lon="-1.53545">
        <ele>57</ele>
        <time>2021-08-14T10:01:15.000Z</time>
      </trkpt>
      <trkpt lat="47.21303" lon="-1.53565">
        <ele>58</ele>
        <time>2021-08-14T10:01:17.000Z</time>
      </trkpt>
      <trkpt lat="47.21304" lon="-1.53584">
        <ele>57</ele>
        <time>2021-08-14T10:01:19.000Z</time>
      </trkpt>
      <trkpt lat="47.21303" lon="-1.53602">
        <ele>57</ele>
        <time>2021-08-14T10:01:21.000Z</time>
      </trkpt>
      <trkpt lat="47.21302" lon="-1.5362">
        <ele>57</ele>
        <time>2021-08-14T10:01:23.000Z</time>
      </trkpt>
      <trkpt lat="47.21295" lon="-1.53631">
        <ele>57</ele>
        <time>2021-08-14T10:01:25.000Z</time>
      </trkpt>
      <trkpt lat="47.21293" lon="-1.53646">
        <ele>58</ele>
        <time>2021-08-14T10:01:28.000Z</time>
      </trkpt>
      <trkpt lat="47.21292" lon="-1.53665">
        <ele>58</ele>
        <time>2021-08-14T10:01:31.000Z</time>
      </trkpt>
      <trkpt lat="47.21296" lon="-1.53678">
        <ele>58</ele>
        <time>2021-08-14T10:01:33.000Z</time>
      </trkpt>
      <trkpt lat="47.21301" lon="-1.53691">
        <ele>59</ele>
        <time>2021-08-14T10:01:35.000Z</time>
      </trkpt>
      <trkpt lat="47.21305" lon="-1.53709">
        <ele>58</ele>
        <time>2021-08-14T10:01:37.000Z</time>
      </trkpt>
      <trkpt lat="47.21307" lon="-1.53727">
        <ele>58</ele>
        <time>2021-08-14T10:01:39.000Z</time>
      </trkpt>
      <trkpt lat="47.21311" lon="-1.53746">
        <ele>58</ele>
        <time>2021-08-14T10:01:41.000Z</time>
      </trkpt>
      <trkpt lat="47.21313" lon="-1.53766">
        <ele>57</ele>
        <time>2021-08-14T10:01:43.000Z</time>
      </trkpt>
      <trkpt lat="47.21316" lon="-1.53785">
        <ele>57</ele>
        <time>2021-08-14T10:01:45.000Z</time>
      </trkpt>
      <trkpt lat="47.21319" lon="-1.53804">
        <ele>57</ele>
        <time>2021-08-14T10:01:47.000Z</time>
      </trkpt>
      <trkpt lat="47.21322" lon="-1.53822">
        <ele>57</ele>
        <time>2021-08-14T10:01:49.000Z</time>
      </trkpt>
      <trkpt lat="47.21325" lon="-1.53839">
        <ele>58</ele>
        <time>2021-08-14T10:01:51.000Z</time>
      </trkpt>
      <trkpt lat="47.21327" lon="-1.53856">
        <ele>58</ele>
        <time>2021-08-14T10:01:53.000Z</time>
      </trkpt>
      <trkpt lat="47.2133" lon="-1.53873">
        <ele>59</ele>
        <time>2021-08-14T10:01:55.000Z</time>
      </trkpt>
      <trkpt lat="47.21332" lon="-1.53889">
        <ele>59</ele>
        <time>2021-08-14T10:01:57.000Z</time>
      </trkpt>
      <trkpt lat="47.21334" lon="-1.53904">
        <ele>59</ele>
        <time>2021-08-14T10:01:59.000Z</time>
      </trkpt>
      <trkpt lat="47.21337" lon="-1.53918">
        <ele>59</ele>
        <time>2021-08-14T10:02:02.000Z</time>
      </trkpt>
      <trkpt lat="47.21348" lon="-1.53922">
        <ele>59</ele>
        <time>2021-08-14T10:02:10.000Z</time>
      </trkpt>
      <trkpt lat="47.21357" lon="-1.53927">
        <ele>59</ele>
        <time>2021-08-14T10:02:12.000Z</time>
      </trkpt>
      <trkpt lat="47.21369" lon="-1.53928">
        <ele>60</ele>
        <time>2021-08-14T10:02:16.000Z</time>
      </trkpt>
      <trkpt lat="47.21379" lon="-1.53933">
        <ele>60</ele>
        <time>2021-08-14T10:02:18.000Z</time>
      </trkpt>
      <trkpt lat="47.21387" lon="-1.53948">
        <ele>60</ele>
        <time>2021-08-14T10:02:20.000Z</time>
      </trkpt>
      <trkpt lat="47.21388" lon="-1.53966">
        <ele>59</ele>
        <time>2021-08-14T10:02:22.000Z</time>
      </trkpt>
      <trkpt lat="47.21385" lon="-1.53983">
        <ele>59</ele>
        <time>2021-08-14T10:02:24.000Z</time>
      </trkpt>
      <trkpt lat="47.21385" lon="-1.54001">
        <ele>58</ele>
        <time>2021-08-14T10:02:26.000Z</time>
      </trkpt>
      <trkpt lat="47.21394" lon="-1.54016">
        <ele>59</ele>
        <time>2021-08-14T10:02:28.000Z</time>
      </trkpt>
      <trkpt lat="47.21403" lon="-1.54029">
        <ele>59</ele>
        <time>2021-08-14T10:02:30.000Z</time>
      </trkpt>
      <trkpt lat="47.21413" lon="-1.54044">
        <ele>60</ele>
        <time>2021-08-14T10:02:32.000Z</time>
      </trkpt>
      <trkpt lat="47.21422" lon="-1.54059">
        <ele>60</ele>
        <time>2021-08-14T10:02:34.000Z</time>
      </trkpt>
      <trkpt lat="47.21431" lon="-1.54074">
        <ele>60</ele>
        <time>2021-08-14T10:02:36.000Z</time>
      </trkpt>
      <trkpt lat="47.2144" lon="-1.54088">
        <ele>61</ele>
        <time>2021-08-14T10:02:38.000Z</time>
      </trkpt>
      <trkpt lat="47.2145" lon="-1.54103">
        <ele>61</ele>
        <time>2021-08-14T10:02:40.000Z</time>
      </trkpt>
      <trkpt lat="47.21459" lon="-1.54117">
        <ele>61</ele>
        <time>2021-08-14T10:02:42.000Z</time>
      </trkpt>
      <trkpt lat="47.21469" lon="-1.5413">
        <ele>62</ele>
        <time>2021-08-14T10:02:44.000Z</time>
      </trkpt>
      <trkpt lat="47.21477" lon="-1.54144">
        <ele>62</ele>
        <time>2021-08-14T10:02:46.000Z</time>
      </trkpt>
      <trkpt lat="47.21485" lon="-1.54157">
        <ele>62</ele>
        <time>2021-08-14T10:02:48.000Z</time>
      </trkpt>
      <trkpt lat="47.21494" lon="-1.54171">
        <ele>62</ele>
        <time>2021-08-14T10:02:50.000Z</time>
      </trkpt>
      <trkpt lat="47.21504" lon="-1.54183">
        <ele>60</ele>
        <time>2021-08-14T10:02:52.000Z</time>
      </trkpt>
      <trkpt lat="47.21512" lon="-1.54198">
        <ele>60</ele>
        <time>2021-08-14T10:02:54.000Z</time>
      </trkpt>
      <trkpt lat="47.21521" lon="-1.54211">
        <ele>60</ele>
        <time>2021-08-14T10:02:56.000Z</time>
      </trkpt>
      <trkpt lat="47.21529" lon="-1.54222">
        <ele>59</ele>
        <time>2021-08-14T10:02:58.000Z</time>
      </trkpt>
      <trkpt lat="47.21536" lon="-1.54233">
        <ele>59</ele>
        <time>2021-08-14T10:03:00.000Z</time>
      </trkpt>
      <trkpt lat="47.21542" lon="-1.54244">
        <ele>59</ele>
        <time>2021-08-14T10:03:02.000Z</time>
      </trkpt>
      <trkpt lat="47.21549" lon="-1.54254">
        <ele>59</ele>
        <time>2021-08-14T10:03:05.000Z</time>
      </trkpt>
      <trkpt lat="47.21557" lon="-1.54265">
        <ele>60</ele>
        <time>2021-08-14T10:03:09.000Z</time>
      </trkpt>
      <trkpt lat="47.21561" lon="-1.54277">
        <ele>60</ele>
        <time>2021-08-14T10:03:20.000Z</time>
      </trkpt>
      <trkpt lat="47.21563" lon="-1.54293">
        <ele>59</ele>
        <time>2021-08-14T10:03:23.000Z</time>
      </trkpt>
      <trkpt lat="47.2157" lon="-1.54306">
        <ele>58</ele>
        <time>2021-08-14T10:03:25.000Z</time>
      </trkpt>
      <trkpt lat="47.21578" lon="-1.54321">
        <ele>57</ele>
        <time>2021-08-14T10:03:27.000Z</time>
      </trkpt>
      <trkpt lat="47.21586" lon="-1.54334">
        <ele>58</ele>
        <time>2021-08-14T10:03:29.000Z</time>
      </trkpt>
      <trkpt lat="47.21594" lon="-1.54346">
        <ele>57</ele>
        <time>2021-08-14T10:03:31.000Z</time>
      </trkpt>
      <trkpt lat="47.216" lon="-1.54359">
        <ele>59</ele>
        <time>2021-08-14T10:03:33.000Z</time>
      </trkpt>
      <trkpt lat="47.21605" lon="-1.54371">
        <ele>60</ele>
        <time>2021-08-14T10:03:37.000Z</time>
      </trkpt>
      <trkpt lat="47.21613" lon="-1.54387">
        <ele>60</ele>
        <time>2021-08-14T10:03:41.000Z</time>
      </trkpt>
      <trkpt lat="47.21616" lon="-1.54406">
        <ele>60</ele>
        <time>2021-08-14T10:03:43.000Z</time>
      </trkpt>
      <trkpt lat="47.21614" lon="-1.54428">
        <ele>60</ele>
        <time>2021-08-14T10:03:45.000Z</time>
      </trkpt>
      <trkpt lat="47.21612" lon="-1.54453">
        <ele>59</ele>
        <time>2021-08-14T10:03:47.000Z</time>
      </trkpt>
      <trkpt lat="47.21609" lon="-1.54477">
        <ele>58</ele>
        <time>2021-08-14T10:03:49.000Z</time>
      </trkpt>
      <trkpt lat="47.21604" lon="-1.54501">
        <ele>58</ele>
        <time>2021-08-14T10:03:51.000Z</time>
      </trkpt>
      <trkpt lat="47.21597" lon="-1.54523">
        <ele>58</ele>
        <time>2021-08-14T10:03:53.000Z</time>
      </trkpt>
      <trkpt lat="47.2159" lon="-1.54544">
        <ele>58</ele>
        <time>2021-08-14T10:03:55.000Z</time>
      </trkpt>
      <trkpt lat="47.21582" lon="-1.54564">
        <ele>58</ele>
        <time>2021-08-14T10:03:57.000Z</time>
      </trkpt>
      <trkpt lat="47.21574" lon="-1.54584">
        <ele>58</ele>
        <time>2021-08-14T10:03:59.000Z</time>
      </trkpt>
      <trkpt lat="47.21566" lon="-1.54605">
        <ele>57</ele>
        <time>2021-08-14T10:04:01.000Z</time>
      </trkpt>
      <trkpt lat="47.21559" lon="-1.54626">
        <ele>57</ele>
        <time>2021-08-14T10:04:03.000Z</time>
      </trkpt>
      <trkpt lat="47.21551" lon="-1.54646">
        <ele>57</ele>
        <time>2021-08-14T10:04:05.000Z</time>
      </trkpt>
      <trkpt lat="47.21543" lon="-1.54663">
        <ele>56</ele>
        <time>2021-08-14T10:04:07.000Z</time>
      </trkpt>
      <trkpt lat="47.21536" lon="-1.54681">
        <ele>57</ele>
        <time>2021-08-14T10:04:09.000Z</time>
      </trkpt>
      <trkpt lat="47.21531" lon="-1.54702">
        <ele>58</ele>
        <time>2021-08-14T10:04:11.000Z</time>
      </trkpt>
      <trkpt lat="47.21524" lon="-1.54723">
        <ele>58</ele>
        <time>2021-08-14T10:04:13.000Z</time>
      </trkpt>
      <trkpt lat="47.21516" lon="-1.54742">
        <ele>57</ele>
        <time>2021-08-14T10:04:15.000Z</time>
      </trkpt>
      <trkpt lat="47.2151" lon="-1.5476">
        <ele>57</ele>
        <time>2021-08-14T10:04:17.000Z</time>
      </trkpt>
      <trkpt lat="47.21502" lon="-1.54779">
        <ele>57</ele>
        <time>2021-08-14T10:04:19.000Z</time>
      </trkpt>
      <trkpt lat="47.21494" lon="-1.54798">
        <ele>56</ele>
        <time>2021-08-14T10:04:21.000Z</time>
      </trkpt>
      <trkpt lat="47.21486" lon="-1.54815">
        <ele>56</ele>
        <time>2021-08-14T10:04:23.000Z</time>
      </trkpt>
      <trkpt lat="47.21479" lon="-1.54831">
        <ele>56</ele>
        <time>2021-08-14T10:04:25.000Z</time>
      </trkpt>
      <trkpt lat="47.21472" lon="-1.54847">
        <ele>57</ele>
        <time>2021-08-14T10:04:27.000Z</time>
      </trkpt>
      <trkpt lat="47.21464" lon="-1.54865">
        <ele>58</ele>
        <time>2021-08-14T10:04:29.000Z</time>
      </trkpt>
      <trkpt lat="47.21455" lon="-1.54882">
        <ele>58</ele>
        <time>2021-08-14T10:04:31.000Z</time>
      </trkpt>
      <trkpt lat="47.21446" lon="-1.54899">
        <ele>58</ele>
        <time>2021-08-14T10:04:33.000Z</time>
      </trkpt>
      <trkpt lat="47.21438" lon="-1.54916">
        <ele>58</ele>
        <time>2021-08-14T10:04:35.000Z</time>
      </trkpt>
      <trkpt lat="47.2143" lon="-1.54934">
        <ele>58</ele>
        <time>2021-08-14T10:04:37.000Z</time>
      </trkpt>
      <trkpt lat="47.21422" lon="-1.54951">
        <ele>59</ele>
        <time>2021-08-14T10:04:39.000Z</time>
      </trkpt>
      <trkpt lat="47.21413" lon="-1.54969">
        <ele>59</ele>
        <time>2021-08-14T10:04:41.000Z</time>
      </trkpt>
      <trkpt lat="47.21406" lon="-1.54986">
        <ele>59</ele>
        <time>2021-08-14T10:04:43.000Z</time>
      </trkpt>
      <trkpt lat="47.21399" lon="-1.55005">
        <ele>58</ele>
        <time>2021-08-14T10:04:45.000Z</time>
      </trkpt>
      <trkpt lat="47.21391" lon="-1.55022">
        <ele>58</ele>
        <time>2021-08-14T10:04:47.000Z</time>
      </trkpt>
      <trkpt lat="47.21384" lon="-1.55038">
        <ele>58</ele>
        <time>2021-08-14T10:04:49.000Z</time>
      </trkpt>
      <trkpt lat="47.21377" lon="-1.55056">
        <ele>58</ele>
        <time>2021-08-14T10:04:51.000Z</time>
      </trkpt>
      <trkpt lat="47.2137" lon="-1.55073">
        <ele>58</ele>
        <time>2021-08-14T10:04:53.000Z</time>
      </trkpt>
      <trkpt lat="47.21363" lon="-1.55091">
        <ele>58</ele>
        <time>2021-08-14T10:04:55.000Z</time>
      </trkpt>
      <trkpt lat="47.21357" lon="-1.55108">
        <ele>58</ele>
        <time>2021-08-14T10:04:57.000Z</time>
      </trkpt>
      <trkpt lat="47.2135" lon="-1.55126">
        <ele>58</ele>
        <time>2021-08-14T10:04:59.000Z</time>
      </trkpt>
      <trkpt lat="47.21343" lon="-1.55142">
        <ele>58</ele>
        <time>2021-08-14T10:05:01.000Z</time>
      </trkpt>
      <trkpt lat="47.21336" lon="-1.5516">
        <ele>58</ele>
        <time>2021-08-14T10:05:03.000Z</time>
      </trkpt>
      <trkpt lat="47.2133" lon="-1.55177">
        <ele>59</ele>
        <time>2021-08-14T10:05:05.000Z</time>
      </trkpt>
      <trkpt lat="47.21323" lon="-1.55194">
        <ele>59</ele>
        <time>2021-08-14T10:05:07.000Z</time>
      </trkpt>
      <trkpt lat="47.21315" lon="-1.55211">
        <ele>58</ele>
        <time>2021-08-14T10:05:09.000Z</time>
      </trkpt>
      <trkpt lat="47.21308" lon="-1.55228">
        <ele>58</ele>
        <time>2021-08-14T10:05:11.000Z</time>
      </trkpt>
      <trkpt lat="47.21302" lon="-1.55244">
        <ele>58</ele>
        <time>2021-08-14T10:05:13.000Z</time>
      </trkpt>
      <trkpt lat="47.21295" lon="-1.55261">
        <ele>58</ele>
        <time>2021-08-14T10:05:15.000Z</time>
      </trkpt>
      <trkpt lat="47.21289" lon="-1.55276">
        <ele>58</ele>
        <time>2021-08-14T10:05:17.000Z</time>
      </trkpt>
      <trkpt lat="47.21283" lon="-1.5529">
        <ele>59</ele>
        <time>2021-08-14T10:05:19.000Z</time>
      </trkpt>
      <trkpt lat="47.21271" lon="-1.55293">
        <ele>61</ele>
        <time>2021-08-14T10:05:22.000Z</time>
      </trkpt>
      <trkpt lat="47.2126" lon="-1.553">
        <ele>62</ele>
        <time>2021-08-14T10:05:24.000Z</time>
      </trkpt>
      <trkpt lat="47.21257" lon="-1.55315">
        <ele>61</ele>
        <time>2021-08-14T10:05:26.000Z</time>
      </trkpt>
      <trkpt lat="47.2126" lon="-1.5533">
        <ele>60</ele>
        <time>2021-08-14T10:05:28.000Z</time>
      </trkpt>
      <trkpt lat="47.21268" lon="-1.55344">
        <ele>60</ele>
        <time>2021-08-14T10:05:31.000Z</time>
      </trkpt>
      <trkpt lat="47.21278" lon="-1.55354">
        <ele>59</ele>
        <time>2021-08-14T10:05:34.000Z</time>
      </trkpt>
      <trkpt lat="47.21282" lon="-1.55368">
        <ele>58</ele>
        <time>2021-08-14T10:05:36.000Z</time>
      </trkpt>
      <trkpt lat="47.21276" lon="-1.55383">
        <ele>58</ele>
        <time>2021-08-14T10:05:38.000Z</time>
      </trkpt>
      <trkpt lat="47.2127" lon="-1.55399">
        <ele>58</ele>
        <time>2021-08-14T10:05:40.000Z</time>
      </trkpt>
      <trkpt lat="47.21262" lon="-1.55415">
        <ele>59</ele>
        <time>2021-08-14T10:05:42.000Z</time>
      </trkpt>
      <trkpt lat="47.21253" lon="-1.55429">
        <ele>59</ele>
        <time>2021-08-14T10:05:44.000Z</time>
      </trkpt>
      <trkpt lat="47.21243" lon="-1.55442">
        <ele>59</ele>
        <time>2021-08-14T10:05:46.000Z</time>
      </trkpt>
      <trkpt lat="47.21234" lon="-1.55456">
        <ele>58</ele>
        <time>2021-08-14T10:05:48.000Z</time>
      </trkpt>
      <trkpt lat="47.21225" lon="-1.5547">
        <ele>58</ele>
        <time>2021-08-14T10:05:50.000Z</time>
      </trkpt>
      <trkpt lat="47.21219" lon="-1.55487">
        <ele>59</ele>
        <time>2021-08-14T10:05:52.000Z</time>
      </trkpt>
      <trkpt lat="47.21214" lon="-1.55504">
        <ele>59</ele>
        <time>2021-08-14T10:05:54.000Z</time>
      </trkpt>
      <trkpt lat="47.21209" lon="-1.55522">
        <ele>59</ele>
        <time>2021-08-14T10:05:56.000Z</time>
      </trkpt>
      <trkpt lat="47.21204" lon="-1.5554">
        <ele>59</ele>
        <time>2021-08-14T10:05:58.000Z</time>
      </trkpt>
      <trkpt lat="47.21198" lon="-1.55558">
        <ele>58</ele>
        <time>2021-08-14T10:06:00.000Z</time>
      </trkpt>
      <trkpt lat="47.21192" lon="-1.55576">
        <ele>58</ele>
        <time>2021-08-14T10:06:02.000Z</time>
      </trkpt>
      <trkpt lat="47.21187" lon="-1.55592">
        <ele>58</ele>
        <time>2021-08-14T10:06:04.000Z</time>
      </trkpt>
      <trkpt lat="47.21182" lon="-1.55609">
        <ele>58</ele>
        <time>2021-08-14T10:06:06.000Z</time>
      </trkpt>
      <trkpt lat="47.21178" lon="-1.55622">
        <ele>58</ele>
        <time>2021-08-14T10:06:08.000Z</time>
      </trkpt>
      <trkpt lat="47.21174" lon="-1.55636">
        <ele>58</ele>
        <time>2021-08-14T10:06:11.000Z</time>
      </trkpt>
      <trkpt lat="47.2117" lon="-1.55652">
        <ele>58</ele>
        <time>2021-08-14T10:06:15.000Z</time>
      </trkpt>
      <trkpt lat="47.21166" lon="-1.5567">
        <ele>59</ele>
        <time>2021-08-14T10:06:18.000Z</time>
      </trkpt>
      <trkpt lat="47.21158" lon="-1.55677">
        <ele>59</ele>
        <time>2021-08-14T10:06:20.000Z</time>
      </trkpt>
      <trkpt lat="47.21148" lon="-1.55673">
        <ele>59</ele>
        <time>2021-08-14T10:06:22.000Z</time>
      </trkpt>
      <trkpt lat="47.2114" lon="-1.55667">
        <ele>58</ele>
        <time>2021-08-14T10:06:24.000Z</time>
      </trkpt>
      <trkpt lat="47.21132" lon="-1.55675">
        <ele>57</ele>
        <time>2021-08-14T10:06:26.000Z</time>
      </trkpt>
      <trkpt lat="47.21128" lon="-1.5569">
        <ele>57</ele>
        <time>2021-08-14T10:06:28.000Z</time>
      </trkpt>
      <trkpt lat="47.21126" lon="-1.55708">
        <ele>57</ele>
        <time>2021-08-14T10:06:30.000Z</time>
      </trkpt>
      <trkpt lat="47.21122" lon="-1.55728">
        <ele>57</ele>
        <time>2021-08-14T10:06:32.000Z</time>
      </trkpt>
      <trkpt lat="47.21118" lon="-1.55746">
        <ele>56</ele>
        <time>2021-08-14T10:06:34.000Z</time>
      </trkpt>
      <trkpt lat="47.21112" lon="-1.55764">
        <ele>56</ele>
        <time>2021-08-14T10:06:36.000Z</time>
      </trkpt>
      <trkpt lat="47.21107" lon="-1.55781">
        <ele>56</ele>
        <time>2021-08-14T10:06:38.000Z</time>
      </trkpt>
      <trkpt lat="47.21102" lon="-1.55798">
        <ele>56</ele>
        <time>2021-08-14T10:06:40.000Z</time>
      </trkpt>
      <trkpt lat="47.21095" lon="-1.55815">
        <ele>56</ele>
        <time>2021-08-14T10:06:42.000Z</time>
      </trkpt>
      <trkpt lat="47.21089" lon="-1.55831">
        <ele>56</ele>
        <time>2021-08-14T10:06:44.000Z</time>
      </trkpt>
      <trkpt lat="47.21083" lon="-1.55847">
        <ele>56</ele>
        <time>2021-08-14T10:06:46.000Z</time>
      </trkpt>
      <trkpt lat="47.21077" lon="-1.55864">
        <ele>55</ele>
        <time>2021-08-14T10:06:48.000Z</time>
      </trkpt>
      <trkpt lat="47.2107" lon="-1.5588">
        <ele>55</ele>
        <time>2021-08-14T10:06:50.000Z</time>
      </trkpt>
      <trkpt lat="47.21062" lon="-1.55895">
        <ele>55</ele>
        <time>2021-08-14T10:06:52.000Z</time>
      </trkpt>
      <trkpt lat="47.21059" lon="-1.55908">
        <ele>55</ele>
        <time>2021-08-14T10:06:54.000Z</time>
      </trkpt>
      <trkpt lat="47.21055" lon="-1.55921">
        <ele>55</ele>
        <time>2021-08-14T10:06:58.000Z</time>
      </trkpt>
      <trkpt lat="47.21049" lon="-1.55934">
        <ele>56</ele>
        <time>2021-08-14T10:07:03.000Z</time>
      </trkpt>
      <trkpt lat="47.21045" lon="-1.55948">
        <ele>57</ele>
        <time>2021-08-14T10:07:07.000Z</time>
      </trkpt>
      <trkpt lat="47.2104" lon="-1.55962">
        <ele>58</ele>
        <time>2021-08-14T10:07:10.000Z</time>
      </trkpt>
      <trkpt lat="47.21035" lon="-1.55974">
        <ele>59</ele>
        <time>2021-08-14T10:07:12.000Z</time>
      </trkpt>
      <trkpt lat="47.2103" lon="-1.55986">
        <ele>60</ele>
        <time>2021-08-14T10:07:14.000Z</time>
      </trkpt>
      <trkpt lat="47.21024" lon="-1.55999">
        <ele>60</ele>
        <time>2021-08-14T10:07:16.000Z</time>
      </trkpt>
      <trkpt lat="47.21017" lon="-1.56012">
        <ele>61</ele>
        <time>2021-08-14T10:07:18.000Z</time>
      </trkpt>
      <trkpt lat="47.21011" lon="-1.56028">
        <ele>62</ele>
        <time>2021-08-14T10:07:20.000Z</time>
      </trkpt>
      <trkpt lat="47.21005" lon="-1.56044">
        <ele>61</ele>
        <time>2021-08-14T10:07:22.000Z</time>
      </trkpt>
      <trkpt lat="47.20999" lon="-1.56058">
        <ele>61</ele>
        <time>2021-08-14T10:07:24.000Z</time>
      </trkpt>
      <trkpt lat="47.20993" lon="-1.56069">
        <ele>62</ele>
        <time>2021-08-14T10:07:26.000Z</time>
      </trkpt>
      <trkpt lat="47.20988" lon="-1.56081">
        <ele>62</ele>
        <time>2021-08-14T10:07:28.000Z</time>
      </trkpt>
      <trkpt lat="47.20989" lon="-1.56098">
        <ele>61</ele>
        <time>2021-08-14T10:07:31.000Z</time>
      </trkpt>
      <trkpt lat="47.20989" lon="-1.56112">
        <ele>60</ele>
        <time>2021-08-14T10:07:35.000Z</time>
      </trkpt>
      <trkpt lat="47.20984" lon="-1.56124">
        <ele>60</ele>
        <time>2021-08-14T10:07:38.000Z</time>
      </trkpt>
      <trkpt lat="47.20981" lon="-1.56142">
        <ele>60</ele>
        <time>2021-08-14T10:07:41.000Z</time>
      </trkpt>
      <trkpt lat="47.20985" lon="-1.56155">
        <ele>60</ele>
        <time>2021-08-14T10:07:43.000Z</time>
      </trkpt>
      <trkpt lat="47.20984" lon="-1.56168">
        <ele>59</ele>
        <time>2021-08-14T10:07:46.000Z</time>
      </trkpt>
      <trkpt lat="47.20975" lon="-1.5617">
        <ele>61</ele>
        <time>2021-08-14T10:07:49.000Z</time>
      </trkpt>
      <trkpt lat="47.20965" lon="-1.56167">
        <ele>61</ele>
        <time>2021-08-14T10:07:51.000Z</time>
      </trkpt>
      <trkpt lat="47.20953" lon="-1.56164">
        <ele>61</ele>
        <time>2021-08-14T10:07:53.000Z</time>
      </trkpt>
      <trkpt lat="47.20943" lon="-1.56163">
        <ele>61</ele>
        <time>2021-08-14T10:07:55.000Z</time>
      </trkpt>
      <trkpt lat="47.20932" lon="-1.56161">
        <ele>60</ele>
        <time>2021-08-14T10:07:57.000Z</time>
      </trkpt>
      <trkpt lat="47.20921" lon="-1.56159">
        <ele>59</ele>
        <time>2021-08-14T10:07:59.000Z</time>
      </trkpt>
      <trkpt lat="47.20911" lon="-1.56156">
        <ele>58</ele>
        <time>2021-08-14T10:08:01.000Z</time>
      </trkpt>
      <trkpt lat="47.20901" lon="-1.56154">
        <ele>58</ele>
        <time>2021-08-14T10:08:03.000Z</time>
      </trkpt>
      <trkpt lat="47.2089" lon="-1.56151">
        <ele>58</ele>
        <time>2021-08-14T10:08:05.000Z</time>
      </trkpt>
      <trkpt lat="47.2088" lon="-1.56149">
        <ele>58</ele>
        <time>2021-08-14T10:08:07.000Z</time>
      </trkpt>
      <trkpt lat="47.20868" lon="-1.56146">
        <ele>57</ele>
        <time>2021-08-14T10:08:09.000Z</time>
      </trkpt>
      <trkpt lat="47.20856" lon="-1.56143">
        <ele>55</ele>
        <time>2021-08-14T10:08:11.000Z</time>
      </trkpt>
      <trkpt lat="47.20846" lon="-1.56141">
        <ele>55</ele>
        <time>2021-08-14T10:08:13.000Z</time>
      </trkpt>
      <trkpt lat="47.20836" lon="-1.56149">
        <ele>55</ele>
        <time>2021-08-14T10:08:16.000Z</time>
      </trkpt>
      <trkpt lat="47.20834" lon="-1.56165">
        <ele>55</ele>
        <time>2021-08-14T10:08:18.000Z</time>
      </trkpt>
      <trkpt lat="47.20833" lon="-1.56185">
        <ele>56</ele>
        <time>2021-08-14T10:08:20.000Z</time>
      </trkpt>
      <trkpt lat="47.20833" lon="-1.56204">
        <ele>55</ele>
        <time>2021-08-14T10:08:22.000Z</time>
      </trkpt>
      <trkpt lat="47.20832" lon="-1.56222">
        <ele>56</ele>
        <time>2021-08-14T10:08:24.000Z</time>
      </trkpt>
      <trkpt lat="47.20832" lon="-1.5624">
        <ele>56</ele>
        <time>2021-08-14T10:08:26.000Z</time>
      </trkpt>
      <trkpt lat="47.20833" lon="-1.56257">
        <ele>55</ele>
        <time>2021-08-14T10:08:28.000Z</time>
      </trkpt>
      <trkpt lat="47.20833" lon="-1.56271">
        <ele>56</ele>
        <time>2021-08-14T10:08:30.000Z</time>
      </trkpt>
      <trkpt lat="47.20831" lon="-1.56286">
        <ele>56</ele>
        <time>2021-08-14T10:08:32.000Z</time>
      </trkpt>
      <trkpt lat="47.2083" lon="-1.56304">
        <ele>56</ele>
        <time>2021-08-14T10:08:34.000Z</time>
      </trkpt>
      <trkpt lat="47.20826" lon="-1.56323">
        <ele>56</ele>
        <time>2021-08-14T10:08:36.000Z</time>
      </trkpt>
      <trkpt lat="47.20821" lon="-1.56344">
        <ele>57</ele>
        <time>2021-08-14T10:08:38.000Z</time>
      </trkpt>
      <trkpt lat="47.20817" lon="-1.56364">
        <ele>57</ele>
        <time>2021-08-14T10:08:40.000Z</time>
      </trkpt>
      <trkpt lat="47.20813" lon="-1.56384">
        <ele>58</ele>
        <time>2021-08-14T10:08:42.000Z</time>
      </trkpt>
      <trkpt lat="47.20808" lon="-1.56403">
        <ele>58</ele>
        <time>2021-08-14T10:08:44.000Z</time>
      </trkpt>
      <trkpt lat="47.20803" lon="-1.56423">
        <ele>57</ele>
        <time>2021-08-14T10:08:46.000Z</time>
      </trkpt>
      <trkpt lat="47.20799" lon="-1.56442">
        <ele>57</ele>
        <time>2021-08-14T10:08:48.000Z</time>
      </trkpt>
      <trkpt lat="47.20794" lon="-1.5646">
        <ele>57</ele>
        <time>2021-08-14T10:08:50.000Z</time>
      </trkpt>
      <trkpt lat="47.20789" lon="-1.56477">
        <ele>58</ele>
        <time>2021-08-14T10:08:52.000Z</time>
      </trkpt>
      <trkpt lat="47.20784" lon="-1.56495">
        <ele>59</ele>
        <time>2021-08-14T10:08:54.000Z</time>
      </trkpt>
      <trkpt lat="47.20779" lon="-1.56511">
        <ele>59</ele>
        <time>2021-08-14T10:08:56.000Z</time>
      </trkpt>
      <trkpt lat="47.20767" lon="-1.56516">
        <ele>59</ele>
        <time>2021-08-14T10:08:59.000Z</time>
      </trkpt>
      <trkpt lat="47.20758" lon="-1.56508">
        <ele>58</ele>
        <time>2021-08-14T10:09:01.000Z</time>
      </trkpt>
      <trkpt lat="47.20751" lon="-1.56501">
        <ele>58</ele>
        <time>2021-08-14T10:09:03.000Z</time>
      </trkpt>
      <trkpt lat="47.20742" lon="-1.56494">
        <ele>58</ele>
        <time>2021-08-14T10:09:07.000Z</time>
      </trkpt>
      <trkpt lat="47.20737" lon="-1.56512">
        <ele>58</ele>
        <time>2021-08-14T10:09:11.000Z</time>
      </trkpt>
      <trkpt lat="47.20731" lon="-1.56532">
        <ele>58</ele>
        <time>2021-08-14T10:09:13.000Z</time>
      </trkpt>
      <trkpt lat="47.20722" lon="-1.5655">
        <ele>58</ele>
        <time>2021-08-14T10:09:15.000Z</time>
      </trkpt>
      <trkpt lat="47.20711" lon="-1.56563">
        <ele>58</ele>
        <time>2021-08-14T10:09:17.000Z</time>
      </trkpt>
      <trkpt lat="47.20698" lon="-1.5657">
        <ele>58</ele>
        <time>2021-08-14T10:09:19.000Z</time>
      </trkpt>
      <trkpt lat="47.20685" lon="-1.56579">
        <ele>58</ele>
        <time>2021-08-14T10:09:21.000Z</time>
      </trkpt>
      <trkpt lat="47.20674" lon="-1.56592">
        <ele>58</ele>
        <time>2021-08-14T10:09:23.000Z</time>
      </trkpt>
      <trkpt lat="47.20662" lon="-1.56602">
        <ele>57</ele>
        <time>2021-08-14T10:09:25.000Z</time>
      </trkpt>
      <trkpt lat="47.20648" lon="-1.56608">
        <ele>56</ele>
        <time>2021-08-14T10:09:27.000Z</time>
      </trkpt>
      <trkpt lat="47.20634" lon="-1.56612">
        <ele>56</ele>
        <time>2021-08-14T10:09:29.000Z</time>
      </trkpt>
      <trkpt lat="47.2062" lon="-1.56621">
        <ele>56</ele>
        <time>2021-08-14T10:09:31.000Z</time>
      </trkpt>
      <trkpt lat="47.20607" lon="-1.56629">
        <ele>56</ele>
        <time>2021-08-14T10:09:33.000Z</time>
      </trkpt>
      <trkpt lat="47.20594" lon="-1.56637">
        <ele>56</ele>
        <time>2021-08-14T10:09:35.000Z</time>
      </trkpt>
      <trkpt lat="47.20581" lon="-1.56647">
        <ele>56</ele>
        <time>2021-08-14T10:09:37.000Z</time>
      </trkpt>
      <trkpt lat="47.20571" lon="-1.56662">
        <ele>55</ele>
        <time>2021-08-14T10:09:39.000Z</time>
      </trkpt>
      <trkpt lat="47.20557" lon="-1.56686">
        <ele>54</ele>
        <time>2021-08-14T10:09:42.000Z</time>
      </trkpt>
      <trkpt lat="47.20547" lon="-1.567">
        <ele>54</ele>
        <time>2021-08-14T10:09:44.000Z</time>
      </trkpt>
      <trkpt lat="47.20527" lon="-1.56712">
        <ele>54</ele>
        <time>2021-08-14T10:09:47.000Z</time>
      </trkpt>
      <trkpt lat="47.20514" lon="-1.56715">
        <ele>55</ele>
        <time>2021-08-14T10:09:49.000Z</time>
      </trkpt>
      <trkpt lat="47.20501" lon="-1.56716">
        <ele>54</ele>
        <time>2021-08-14T10:09:51.000Z</time>
      </trkpt>
      <trkpt lat="47.20488" lon="-1.56715">
        <ele>54</ele>
        <time>2021-08-14T10:09:53.000Z</time>
      </trkpt>
      <trkpt lat="47.20475" lon="-1.56713">
        <ele>54</ele>
        <time>2021-08-14T10:09:55.000Z</time>
      </trkpt>
      <trkpt lat="47.20463" lon="-1.5671">
        <ele>55</ele>
        <time>2021-08-14T10:09:57.000Z</time>
      </trkpt>
      <trkpt lat="47.20449" lon="-1.56706">
        <ele>55</ele>
        <time>2021-08-14T10:09:59.000Z</time>
      </trkpt>
      <trkpt lat="47.20436" lon="-1.56702">
        <ele>55</ele>
        <time>2021-08-14T10:10:01.000Z</time>
      </trkpt>
      <trkpt lat="47.20424" lon="-1.567">
        <ele>57</ele>
        <time>2021-08-14T10:10:03.000Z</time>
      </trkpt>
      <trkpt lat="47.20413" lon="-1.56698">
        <ele>58</ele>
        <time>2021-08-14T10:10:05.000Z</time>
      </trkpt>
      <trkpt lat="47.20403" lon="-1.567">
        <ele>59</ele>
        <time>2021-08-14T10:10:07.000Z</time>
      </trkpt>
      <trkpt lat="47.20398" lon="-1.56713">
        <ele>59</ele>
        <time>2021-08-14T10:10:09.000Z</time>
      </trkpt>
      <trkpt lat="47.20397" lon="-1.56733">
        <ele>60</ele>
        <time>2021-08-14T10:10:11.000Z</time>
      </trkpt>
      <trkpt lat="47.20396" lon="-1.56753">
        <ele>61</ele>
        <time>2021-08-14T10:10:13.000Z</time>
      </trkpt>
      <trkpt lat="47.20394" lon="-1.56774">
        <ele>62</ele>
        <time>2021-08-14T10:10:15.000Z</time>
      </trkpt>
      <trkpt lat="47.20391" lon="-1.56793">
        <ele>62</ele>
        <time>2021-08-14T10:10:17.000Z</time>
      </trkpt>
      <trkpt lat="47.2039" lon="-1.56816">
        <ele>63</ele>
        <time>2021-08-14T10:10:19.000Z</time>
      </trkpt>
      <trkpt lat="47.2039" lon="-1.56836">
        <ele>64</ele>
        <time>2021-08-14T10:10:21.000Z</time>
      </trkpt>
      <trkpt lat="47.20389" lon="-1.56853">
        <ele>65</ele>
        <time>2021-08-14T10:10:23.000Z</time>
      </trkpt>
      <trkpt lat="47.20388" lon="-1.56872">
        <ele>65</ele>
        <time>2021-08-14T10:10:25.000Z</time>
      </trkpt>
      <trkpt lat="47.20388" lon="-1.5689">
        <ele>66</ele>
        <time>2021-08-14T10:10:27.000Z</time>
      </trkpt>
      <trkpt lat="47.20387" lon="-1.56908">
        <ele>66</ele>
        <time>2021-08-14T10:10:29.000Z</time>
      </trkpt>
      <trkpt lat="47.20384" lon="-1.56928">
        <ele>65</ele>
        <time>2021-08-14T10:10:31.000Z</time>
      </trkpt>
      <trkpt lat="47.2038" lon="-1.56947">
        <ele>64</ele>
        <time>2021-08-14T10:10:33.000Z</time>
      </trkpt>
      <trkpt lat="47.20377" lon="-1.56967">
        <ele>62</ele>
        <time>2021-08-14T10:10:35.000Z</time>
      </trkpt>
      <trkpt lat="47.20375" lon="-1.56988">
        <ele>61</ele>
        <time>2021-08-14T10:10:37.000Z</time>
      </trkpt>
      <trkpt lat="47.20373" lon="-1.57008">
        <ele>60</ele>
        <time>2021-08-14T10:10:39.000Z</time>
      </trkpt>
      <trkpt lat="47.2037" lon="-1.57029">
        <ele>59</ele>
        <time>2021-08-14T10:10:41.000Z</time>
      </trkpt>
      <trkpt lat="47.20365" lon="-1.57047">
        <ele>59</ele>
        <time>2021-08-14T10:10:43.000Z</time>
      </trkpt>
      <trkpt lat="47.20357" lon="-1.57064">
        <ele>58</ele>
        <time>2021-08-14T10:10:45.000Z</time>
      </trkpt>
      <trkpt lat="47.2035" lon="-1.57081">
        <ele>58</ele>
        <time>2021-08-14T10:10:47.000Z</time>
      </trkpt>
      <trkpt lat="47.20342" lon="-1.57097">
        <ele>57</ele>
        <time>2021-08-14T10:10:49.000Z</time>
      </trkpt>
      <trkpt lat="47.2033" lon="-1.57107">
        <ele>57</ele>
        <time>2021-08-14T10:10:51.000Z</time>
      </trkpt>
      <trkpt lat="47.20318" lon="-1.57116">
        <ele>57</ele>
        <time>2021-08-14T10:10:53.000Z</time>
      </trkpt>
      <trkpt lat="47.20306" lon="-1.57124">
        <ele>58</ele>
        <time>2021-08-14T10:10:55.000Z</time>
      </trkpt>
      <trkpt lat="47.20294" lon="-1.57134">
        <ele>59</ele>
        <time>2021-08-14T10:10:57.000Z</time>
      </trkpt>
      <trkpt lat="47.20281" lon="-1.57142">
        <ele>59</ele>
        <time>2021-08-14T10:10:59.000Z</time>
      </trkpt>
      <trkpt lat="47.20268" lon="-1.5715">
        <ele>59</ele>
        <time>2021-08-14T10:11:01.000Z</time>
      </trkpt>
      <trkpt lat="47.20255" lon="-1.5716">
        <ele>58</ele>
        <time>2021-08-14T10:11:03.000Z</time>
      </trkpt>
      <trkpt lat="47.20241" lon="-1.57168">
        <ele>57</ele>
        <time>2021-08-14T10:11:05.000Z</time>
      </trkpt>
      <trkpt lat="47.20229" lon="-1.57177">
        <ele>57</ele>
        <time>2021-08-14T10:11:07.000Z</time>
      </trkpt>
      <trkpt lat="47.20216" lon="-1.57185">
        <ele>56</ele>
        <time>2021-08-14T10:11:09.000Z</time>
      </trkpt>
      <trkpt lat="47.20202" lon="-1.57194">
        <ele>56</ele>
        <time>2021-08-14T10:11:11.000Z</time>
      </trkpt>
      <trkpt lat="47.2019" lon="-1.57203">
        <ele>56</ele>
        <time>2021-08-14T10:11:13.000Z</time>
      </trkpt>
      <trkpt lat="47.20177" lon="-1.57212">
        <ele>56</ele>
        <time>2021-08-14T10:11:15.000Z</time>
      </trkpt>
      <trkpt lat="47.20164" lon="-1.5722">
        <ele>55</ele>
        <time>2021-08-14T10:11:17.000Z</time>
      </trkpt>
      <trkpt lat="47.20151" lon="-1.57229">
        <ele>55</ele>
        <time>2021-08-14T10:11:19.000Z</time>
      </trkpt>
      <trkpt lat="47.20138" lon="-1.57237">
        <ele>55</ele>
        <time>2021-08-14T10:11:21.000Z</time>
      </trkpt>
      <trkpt lat="47.20125" lon="-1.57246">
        <ele>54</ele>
        <time>2021-08-14T10:11:23.000Z</time>
      </trkpt>
      <trkpt lat="47.20112" lon="-1.57254">
        <ele>54</ele>
        <time>2021-08-14T10:11:25.000Z</time>
      </trkpt>
      <trkpt lat="47.20099" lon="-1.57262">
        <ele>54</ele>
        <time>2021-08-14T10:11:27.000Z</time>
      </trkpt>
      <trkpt lat="47.20087" lon="-1.5727">
        <ele>55</ele>
        <time>2021-08-14T10:11:29.000Z</time>
      </trkpt>
      <trkpt lat="47.20076" lon="-1.57279">
        <ele>54</ele>
        <time>2021-08-14T10:11:31.000Z</time>
      </trkpt>
      <trkpt lat="47.20064" lon="-1.57291">
        <ele>54</ele>
        <time>2021-08-14T10:11:33.000Z</time>
      </trkpt>
      <trkpt lat="47.20053" lon="-1.573">
        <ele>55</ele>
        <time>2021-08-14T10:11:35.000Z</time>
      </trkpt>
      <trkpt lat="47.20041" lon="-1.57308">
        <ele>55</ele>
        <time>2021-08-14T10:11:37.000Z</time>
      </trkpt>
      <trkpt lat="47.2003" lon="-1.57317">
        <ele>56</ele>
        <time>2021-08-14T10:11:39.000Z</time>
      </trkpt>
      <trkpt lat="47.20018" lon="-1.57324">
        <ele>56</ele>
        <time>2021-08-14T10:11:41.000Z</time>
      </trkpt>
      <trkpt lat="47.20008" lon="-1.57332">
        <ele>57</ele>
        <time>2021-08-14T10:11:43.000Z</time>
      </trkpt>
      <trkpt lat="47.19998" lon="-1.57339">
        <ele>57</ele>
        <time>2021-08-14T10:11:45.000Z</time>
      </trkpt>
      <trkpt lat="47.19989" lon="-1.57341">
        <ele>58</ele>
        <time>2021-08-14T10:11:47.000Z</time>
      </trkpt>
      <trkpt lat="47.19979" lon="-1.57329">
        <ele>59</ele>
        <time>2021-08-14T10:11:49.000Z</time>
      </trkpt>
      <trkpt lat="47.19978" lon="-1.5731">
        <ele>59</ele>
        <time>2021-08-14T10:11:51.000Z</time>
      </trkpt>
      <trkpt lat="47.19977" lon="-1.5729">
        <ele>58</ele>
        <time>2021-08-14T10:11:53.000Z</time>
      </trkpt>
      <trkpt lat="47.19977" lon="-1.5727">
        <ele>58</ele>
        <time>2021-08-14T10:11:55.000Z</time>
      </trkpt>
      <trkpt lat="47.19977" lon="-1.57251">
        <ele>58</ele>
        <time>2021-08-14T10:11:57.000Z</time>
      </trkpt>
      <trkpt lat="47.19977" lon="-1.57231">
        <ele>58</ele>
        <time>2021-08-14T10:11:59.000Z</time>
      </trkpt>
      <trkpt lat="47.19978" lon="-1.5721">
        <ele>58</ele>
        <time>2021-08-14T10:12:01.000Z</time>
      </trkpt>
      <trkpt lat="47.19978" lon="-1.5719">
        <ele>57</ele>
        <time>2021-08-14T10:12:03.000Z</time>
      </trkpt>
      <trkpt lat="47.19978" lon="-1.5717">
        <ele>57</ele>
        <time>2021-08-14T10:12:05.000Z</time>
      </trkpt>
      <trkpt lat="47.19977" lon="-1.57151">
        <ele>56</ele>
        <time>2021-08-14T10:12:07.000Z</time>
      </trkpt>
      <trkpt lat="47.19973" lon="-1.57132">
        <ele>56</ele>
        <time>2021-08-14T10:12:09.000Z</time>
      </trkpt>
      <trkpt lat="47.19969" lon="-1.57113">
        <ele>56</ele>
        <time>2021-08-14T10:12:11.000Z</time>
      </trkpt>
      <trkpt lat="47.19965" lon="-1.57095">
        <ele>56</ele>
        <time>2021-08-14T10:12:13.000Z</time>
      </trkpt>
      <trkpt lat="47.19961" lon="-1.57076">
        <ele>56</ele>
        <time>2021-08-14T10:12:15.000Z</time>
      </trkpt>
      <trkpt lat="47.19956" lon="-1.57058">
        <ele>56</ele>
        <time>2021-08-14T10:12:17.000Z</time>
      </trkpt>
      <trkpt lat="47.1995" lon="-1.57041">
        <ele>55</ele>
        <time>2021-08-14T10:12:19.000Z</time>
      </trkpt>
      <trkpt lat="47.19949" lon="-1.57021">
        <ele>55</ele>
        <time>2021-08-14T10:12:21.000Z</time>
      </trkpt>
      <trkpt lat="47.1995" lon="-1.57001">
        <ele>55</ele>
        <time>2021-08-14T10:12:23.000Z</time>
      </trkpt>
      <trkpt lat="47.1995" lon="-1.56983">
        <ele>54</ele>
        <time>2021-08-14T10:12:25.000Z</time>
      </trkpt>
      <trkpt lat="47.1995" lon="-1.56964">
        <ele>54</ele>
        <time>2021-08-14T10:12:27.000Z</time>
      </trkpt>
      <trkpt lat="47.1995" lon="-1.56945">
        <ele>54</ele>
        <time>2021-08-14T10:12:29.000Z</time>
      </trkpt>
      <trkpt lat="47.1995" lon="-1.56926">
        <ele>55</ele>
        <time>2021-08-14T10:12:31.000Z</time>
      </trkpt>
      <trkpt lat="47.1995" lon="-1.56907">
        <ele>55</ele>
        <time>2021-08-14T10:12:33.000Z</time>
      </trkpt>
      <trkpt lat="47.1995" lon="-1.56887">
        <ele>55</ele>
        <time>2021-08-14T10:12:35.000Z</time>
      </trkpt>
      <trkpt lat="47.1995" lon="-1.56868">
        <ele>55</ele>
        <time>2021-08-14T10:12:37.000Z</time>
      </trkpt>
      <trkpt lat="47.1995" lon="-1.56849">
        <ele>56</ele>
        <time>2021-08-14T10:12:39.000Z</time>
      </trkpt>
      <trkpt lat="47.19951" lon="-1.56831">
        <ele>56</ele>
        <time>2021-08-14T10:12:41.000Z</time>
      </trkpt>
      <trkpt lat="47.19951" lon="-1.56811">
        <ele>56</ele>
        <time>2021-08-14T10:12:43.000Z</time>
      </trkpt>
      <trkpt lat="47.19951" lon="-1.56791">
        <ele>56</ele>
        <time>2021-08-14T10:12:45.000Z</time>
      </trkpt>
      <trkpt lat="47.1995" lon="-1.56772">
        <ele>56</ele>
        <time>2021-08-14T10:12:47.000Z</time>
      </trkpt>
      <trkpt lat="47.19951" lon="-1.56752">
        <ele>56</ele>
        <time>2021-08-14T10:12:49.000Z</time>
      </trkpt>
      <trkpt lat="47.1995" lon="-1.56734">
        <ele>56</ele>
        <time>2021-08-14T10:12:51.000Z</time>
      </trkpt>
      <trkpt lat="47.1995" lon="-1.56714">
        <ele>56</ele>
        <time>2021-08-14T10:12:53.000Z</time>
      </trkpt>
      <trkpt lat="47.1995" lon="-1.56695">
        <ele>57</ele>
        <time>2021-08-14T10:12:55.000Z</time>
      </trkpt>
      <trkpt lat="47.1995" lon="-1.56676">
        <ele>57</ele>
        <time>2021-08-14T10:12:57.000Z</time>
      </trkpt>
      <trkpt lat="47.19951" lon="-1.56657">
        <ele>56</ele>
        <time>2021-08-14T10:12:59.000Z</time>
      </trkpt>
      <trkpt lat="47.19951" lon="-1.56638">
        <ele>57</ele>
        <time>2021-08-14T10:13:01.000Z</time>
      </trkpt>
      <trkpt lat="47.19951" lon="-1.56619">
        <ele>57</ele>
        <time>2021-08-14T10:13:03.000Z</time>
      </trkpt>
      <trkpt lat="47.19951" lon="-1.566">
        <ele>56</ele>
        <time>2021-08-14T10:13:05.000Z</time>
      </trkpt>
      <trkpt lat="47.19951" lon="-1.56582">
        <ele>56</ele>
        <time>2021-08-14T10:13:07.000Z</time>
      </trkpt>
      <trkpt lat="47.1995" lon="-1.56563">
        <ele>56</ele>
        <time>2021-08-14T10:13:09.000Z</time>
      </trkpt>
      <trkpt lat="47.1995" lon="-1.56544">
        <ele>56</ele>
        <time>2021-08-14T10:13:11.000Z</time>
      </trkpt>
      <trkpt lat="47.19951" lon="-1.56526">
        <ele>56</ele>
        <time>2021-08-14T10:13:13.000Z</time>
      </trkpt>
      <trkpt lat="47.19951" lon="-1.56507">
        <ele>56</ele>
        <time>2021-08-14T10:13:15.000Z</time>
      </trkpt>
      <trkpt lat="47.19953" lon="-1.56488">
        <ele>55</ele>
        <time>2021-08-14T10:13:17.000Z</time>
      </trkpt>
      <trkpt lat="47.19954" lon="-1.56469">
        <ele>55</ele>
        <time>2021-08-14T10:13:19.000Z</time>
      </trkpt>
      <trkpt lat="47.19958" lon="-1.56451">
        <ele>55</ele>
        <time>2021-08-14T10:13:21.000Z</time>
      </trkpt>
      <trkpt lat="47.19962" lon="-1.56433">
        <ele>55</ele>
        <time>2021-08-14T10:13:23.000Z</time>
      </trkpt>
      <trkpt lat="47.19966" lon="-1.56415">
        <ele>54</ele>
        <time>2021-08-14T10:13:25.000Z</time>
      </trkpt>
      <trkpt lat="47.19969" lon="-1.56396">
        <ele>54</ele>
        <time>2021-08-14T10:13:27.000Z</time>
      </trkpt>
      <trkpt lat="47.19971" lon="-1.56377">
        <ele>55</ele>
        <time>2021-08-14T10:13:29.000Z</time>
      </trkpt>
      <trkpt lat="47.19972" lon="-1.56358">
        <ele>55</ele>
        <time>2021-08-14T10:13:31.000Z</time>
      </trkpt>
      <trkpt lat="47.19973" lon="-1.56339">
        <ele>55</ele>
        <time>2021-08-14T10:13:33.000Z</time>
      </trkpt>
      <trkpt lat="47.19975" lon="-1.56321">
        <ele>55</ele>
        <time>2021-08-14T10:13:35.000Z</time>
      </trkpt>
      <trkpt lat="47.19976" lon="-1.56302">
        <ele>55</ele>
        <time>2021-08-14T10:13:37.000Z</time>
      </trkpt>
      <trkpt lat="47.19977" lon="-1.56284">
        <ele>55</ele>
        <time>2021-08-14T10:13:39.000Z</time>
      </trkpt>
      <trkpt lat="47.19977" lon="-1.56265">
        <ele>55</ele>
        <time>2021-08-14T10:13:41.000Z</time>
      </trkpt>
      <trkpt lat="47.19977" lon="-1.56247">
        <ele>55</ele>
        <time>2021-08-14T10:13:43.000Z</time>
      </trkpt>
      <trkpt lat="47.19977" lon="-1.56229">
        <ele>55</ele>
        <time>2021-08-14T10:13:45.000Z</time>
      </trkpt>
      <trkpt lat="47.19976" lon="-1.56211">
        <ele>56</ele>
        <time>2021-08-14T10:13:47.000Z</time>
      </trkpt>
      <trkpt lat="47.19975" lon="-1.56193">
        <ele>56</ele>
        <time>2021-08-14T10:13:49.000Z</time>
      </trkpt>
      <trkpt lat="47.19974" lon="-1.56177">
        <ele>56</ele>
        <time>2021-08-14T10:13:51.000Z</time>
      </trkpt>
      <trkpt lat="47.19967" lon="-1.56167">
        <ele>56</ele>
        <time>2021-08-14T10:13:53.000Z</time>
      </trkpt>
      <trkpt lat="47.19956" lon="-1.56168">
        <ele>56</ele>
        <time>2021-08-14T10:13:55.000Z</time>
      </trkpt>
      <trkpt lat="47.19945" lon="-1.56172">
        <ele>58</ele>
        <time>2021-08-14T10:13:57.000Z</time>
      </trkpt>
      <trkpt lat="47.19934" lon="-1.56174">
        <ele>59</ele>
        <time>2021-08-14T10:13:59.000Z</time>
      </trkpt>
      <trkpt lat="47.19923" lon="-1.56175">
        <ele>60</ele>
        <time>2021-08-14T10:14:01.000Z</time>
      </trkpt>
      <trkpt lat="47.19912" lon="-1.56178">
        <ele>60</ele>
        <time>2021-08-14T10:14:03.000Z</time>
      </trkpt>
      <trkpt lat="47.19901" lon="-1.56179">
        <ele>60</ele>
        <time>2021-08-14T10:14:05.000Z</time>
      </trkpt>
      <trkpt lat="47.19891" lon="-1.56181">
        <ele>61</ele>
        <time>2021-08-14T10:14:07.000Z</time>
      </trkpt>
      <trkpt lat="47.19879" lon="-1.56183">
        <ele>61</ele>
        <time>2021-08-14T10:14:09.000Z</time>
      </trkpt>
      <trkpt lat="47.19868" lon="-1.56184">
        <ele>61</ele>
        <time>2021-08-14T10:14:11.000Z</time>
      </trkpt>
      <trkpt lat="47.19858" lon="-1.56186">
        <ele>62</ele>
        <time>2021-08-14T10:14:13.000Z</time>
      </trkpt>
      <trkpt lat="47.19848" lon="-1.56188">
        <ele>62</ele>
        <time>2021-08-14T10:14:15.000Z</time>
      </trkpt>
      <trkpt lat="47.19837" lon="-1.5619">
        <ele>62</ele>
        <time>2021-08-14T10:14:17.000Z</time>
      </trkpt>
      <trkpt lat="47.19827" lon="-1.56192">
        <ele>62</ele>
        <time>2021-08-14T10:14:19.000Z</time>
      </trkpt>
      <trkpt lat="47.19817" lon="-1.56194">
        <ele>62</ele>
        <time>2021-08-14T10:14:21.000Z</time>
      </trkpt>
      <trkpt lat="47.19806" lon="-1.56195">
        <ele>62</ele>
        <time>2021-08-14T10:14:23.000Z</time>
      </trkpt>
      <trkpt lat="47.19795" lon="-1.56197">
        <ele>62</ele>
        <time>2021-08-14T10:14:25.000Z</time>
      </trkpt>
      <trkpt lat="47.19784" lon="-1.562">
        <ele>61</ele>
        <time>2021-08-14T10:14:27.000Z</time>
      </trkpt>
      <trkpt lat="47.19772" lon="-1.56201">
        <ele>61</ele>
        <time>2021-08-14T10:14:29.000Z</time>
      </trkpt>
      <trkpt lat="47.19762" lon="-1.56203">
        <ele>61</ele>
        <time>2021-08-14T10:14:31.000Z</time>
      </trkpt>
      <trkpt lat="47.19749" lon="-1.56206">
        <ele>60</ele>
        <time>2021-08-14T10:14:33.000Z</time>
      </trkpt>
      <trkpt lat="47.19736" lon="-1.56209">
        <ele>59</ele>
        <time>2021-08-14T10:14:35.000Z</time>
      </trkpt>
      <trkpt lat="47.19723" lon="-1.56211">
        <ele>59</ele>
        <time>2021-08-14T10:14:37.000Z</time>
      </trkpt>
      <trkpt lat="47.19709" lon="-1.56213">
        <ele>59</ele>
        <time>2021-08-14T10:14:39.000Z</time>
      </trkpt>
      <trkpt lat="47.19694" lon="-1.56216">
        <ele>59</ele>
        <time>2021-08-14T10:14:41.000Z</time>
      </trkpt>
      <trkpt lat="47.19679" lon="-1.5622">
        <ele>58</ele>
        <time>2021-08-14T10:14:43.000Z</time>
      </trkpt>
      <trkpt lat="47.19663" lon="-1.56225">
        <ele>56</ele>
        <time>2021-08-14T10:14:45.000Z</time>
      </trkpt>
      <trkpt lat="47.19646" lon="-1.56229">
        <ele>56</ele>
        <time>2021-08-14T10:14:47.000Z</time>
      </trkpt>
      <trkpt lat="47.19635" lon="-1.56249">
        <ele>55</ele>
        <time>2021-08-14T10:14:49.000Z</time>
      </trkpt>
      <trkpt lat="47.19633" lon="-1.56272">
        <ele>54</ele>
        <time>2021-08-14T10:14:51.000Z</time>
      </trkpt>
      <trkpt lat="47.19631" lon="-1.56295">
        <ele>54</ele>
        <time>2021-08-14T10:14:53.000Z</time>
      </trkpt>
      <trkpt lat="47.1963" lon="-1.56317">
        <ele>54</ele>
        <time>2021-08-14T10:14:55.000Z</time>
      </trkpt>
      <trkpt lat="47.19629" lon="-1.56339">
        <ele>54</ele>
        <time>2021-08-14T10:14:57.000Z</time>
      </trkpt>
      <trkpt lat="47.19628" lon="-1.56361">
        <ele>54</ele>
        <time>2021-08-14T10:14:59.000Z</time>
      </trkpt>
      <trkpt lat="47.19629" lon="-1.56383">
        <ele>54</ele>
        <time>2021-08-14T10:15:01.000Z</time>
      </trkpt>
      <trkpt lat="47.1963" lon="-1.56405">
        <ele>54</ele>
        <time>2021-08-14T10:15:03.000Z</time>
      </trkpt>
      <trkpt lat="47.19631" lon="-1.56427">
        <ele>53</ele>
        <time>2021-08-14T10:15:05.000Z</time>
      </trkpt>
      <trkpt lat="47.19631" lon="-1.56449">
        <ele>53</ele>
        <time>2021-08-14T10:15:07.000Z</time>
      </trkpt>
      <trkpt lat="47.19632" lon="-1.56471">
        <ele>54</ele>
        <time>2021-08-14T10:15:09.000Z</time>
      </trkpt>
      <trkpt lat="47.19633" lon="-1.56492">
        <ele>53</ele>
        <time>2021-08-14T10:15:11.000Z</time>
      </trkpt>
      <trkpt lat="47.19633" lon="-1.56513">
        <ele>53</ele>
        <time>2021-08-14T10:15:13.000Z</time>
      </trkpt>
      <trkpt lat="47.19633" lon="-1.56534">
        <ele>54</ele>
        <time>2021-08-14T10:15:15.000Z</time>
      </trkpt>
      <trkpt lat="47.19632" lon="-1.56556">
        <ele>54</ele>
        <time>2021-08-14T10:15:17.000Z</time>
      </trkpt>
      <trkpt lat="47.19631" lon="-1.56577">
        <ele>55</ele>
        <time>2021-08-14T10:15:19.000Z</time>
      </trkpt>
      <trkpt lat="47.1963" lon="-1.56598">
        <ele>55</ele>
        <time>2021-08-14T10:15:21.000Z</time>
      </trkpt>
      <trkpt lat="47.19629" lon="-1.5662">
        <ele>55</ele>
        <time>2021-08-14T10:15:23.000Z</time>
      </trkpt>
      <trkpt lat="47.19629" lon="-1.56641">
        <ele>56</ele>
        <time>2021-08-14T10:15:25.000Z</time>
      </trkpt>
      <trkpt lat="47.19628" lon="-1.56663">
        <ele>57</ele>
        <time>2021-08-14T10:15:27.000Z</time>
      </trkpt>
      <trkpt lat="47.19627" lon="-1.56685">
        <ele>56</ele>
        <time>2021-08-14T10:15:29.000Z</time>
      </trkpt>
      <trkpt lat="47.19627" lon="-1.56706">
        <ele>57</ele>
        <time>2021-08-14T10:15:31.000Z</time>
      </trkpt>
      <trkpt lat="47.19626" lon="-1.56727">
        <ele>57</ele>
        <time>2021-08-14T10:15:33.000Z</time>
      </trkpt>
      <trkpt lat="47.19623" lon="-1.56748">
        <ele>57</ele>
        <time>2021-08-14T10:15:35.000Z</time>
      </trkpt>
      <trkpt lat="47.19621" lon="-1.5677">
        <ele>56</ele>
        <time>2021-08-14T10:15:37.000Z</time>
      </trkpt>
      <trkpt lat="47.1962" lon="-1.56791">
        <ele>56</ele>
        <time>2021-08-14T10:15:39.000Z</time>
      </trkpt>
      <trkpt lat="47.19618" lon="-1.56812">
        <ele>56</ele>
        <time>2021-08-14T10:15:41.000Z</time>
      </trkpt>
      <trkpt lat="47.19617" lon="-1.56834">
        <ele>56</ele>
        <time>2021-08-14T10:15:43.000Z</time>
      </trkpt>
      <trkpt lat="47.19616" lon="-1.56855">
        <ele>56</ele>
        <time>2021-08-14T10:15:45.000Z</time>
      </trkpt>
      <trkpt lat="47.19615" lon="-1.56875">
        <ele>57</ele>
        <time>2021-08-14T10:15:47.000Z</time>
      </trkpt>
      <trkpt lat="47.19613" lon="-1.56896">
        <ele>57</ele>
        <time>2021-08-14T10:15:49.000Z</time>
      </trkpt>
      <trkpt lat="47.19612" lon="-1.56917">
        <ele>56</ele>
        <time>2021-08-14T10:15:51.000Z</time>
      </trkpt>
      <trkpt lat="47.19611" lon="-1.56938">
        <ele>56</ele>
        <time>2021-08-14T10:15:53.000Z</time>
      </trkpt>
      <trkpt lat="47.19609" lon="-1.56959">
        <ele>56</ele>
        <time>2021-08-14T10:15:55.000Z</time>
      </trkpt>
      <trkpt lat="47.19608" lon="-1.5698">
        <ele>56</ele>
        <time>2021-08-14T10:15:57.000Z</time>
      </trkpt>
      <trkpt lat="47.19606" lon="-1.57001">
        <ele>56</ele>
        <time>2021-08-14T10:15:59.000Z</time>
      </trkpt>
      <trkpt lat="47.19605" lon="-1.57023">
        <ele>56</ele>
        <time>2021-08-14T10:16:01.000Z</time>
      </trkpt>
      <trkpt lat="47.19604" lon="-1.57044">
        <ele>55</ele>
        <time>2021-08-14T10:16:03.000Z</time>
      </trkpt>
      <trkpt lat="47.19603" lon="-1.57065">
        <ele>55</ele>
        <time>2021-08-14T10:16:05.000Z</time>
      </trkpt>
      <trkpt lat="47.19602" lon="-1.57085">
        <ele>55</ele>
        <time>2021-08-14T10:16:07.000Z</time>
      </trkpt>
      <trkpt lat="47.196" lon="-1.57105">
        <ele>55</ele>
        <time>2021-08-14T10:16:09.000Z</time>
      </trkpt>
      <trkpt lat="47.19599" lon="-1.57124">
        <ele>55</ele>
        <time>2021-08-14T10:16:11.000Z</time>
      </trkpt>
      <trkpt lat="47.19597" lon="-1.57143">
        <ele>55</ele>
        <time>2021-08-14T10:16:13.000Z</time>
      </trkpt>
      <trkpt lat="47.19596" lon="-1.57162">
        <ele>55</ele>
        <time>2021-08-14T10:16:15.000Z</time>
      </trkpt>
      <trkpt lat="47.19595" lon="-1.57182">
        <ele>55</ele>
        <time>2021-08-14T10:16:17.000Z</time>
      </trkpt>
      <trkpt lat="47.19595" lon="-1.57203">
        <ele>55</ele>
        <time>2021-08-14T10:16:19.000Z</time>
      </trkpt>
      <trkpt lat="47.19594" lon="-1.57222">
        <ele>55</ele>
        <time>2021-08-14T10:16:21.000Z</time>
      </trkpt>
      <trkpt lat="47.19591" lon="-1.5724">
        <ele>55</ele>
        <time>2021-08-14T10:16:23.000Z</time>
      </trkpt>
      <trkpt lat="47.19589" lon="-1.57259">
        <ele>55</ele>
        <time>2021-08-14T10:16:25.000Z</time>
      </trkpt>
      <trkpt lat="47.19587" lon="-1.57279">
        <ele>55</ele>
        <time>2021-08-14T10:16:27.000Z</time>
      </trkpt>
      <trkpt lat="47.19587" lon="-1.57298">
        <ele>55</ele>
        <time>2021-08-14T10:16:29.000Z</time>
      </trkpt>
      <trkpt lat="47.19585" lon="-1.57317">
        <ele>55</ele>
        <time>2021-08-14T10:16:31.000Z</time>
      </trkpt>
      <trkpt lat="47.19583" lon="-1.57335">
        <ele>55</ele>
        <time>2021-08-14T10:16:33.000Z</time>
      </trkpt>
      <trkpt lat="47.19579" lon="-1.57351">
        <ele>55</ele>
        <time>2021-08-14T10:16:35.000Z</time>
      </trkpt>
      <trkpt lat="47.19575" lon="-1.57367">
        <ele>55</ele>
        <time>2021-08-14T10:16:37.000Z</time>
      </trkpt>
      <trkpt lat="47.19571" lon="-1.57384">
        <ele>56</ele>
        <time>2021-08-14T10:16:39.000Z</time>
      </trkpt>
      <trkpt lat="47.19567" lon="-1.57401">
        <ele>57</ele>
        <time>2021-08-14T10:16:41.000Z</time>
      </trkpt>
      <trkpt lat="47.19564" lon="-1.5742">
        <ele>57</ele>
        <time>2021-08-14T10:16:43.000Z</time>
      </trkpt>
      <trkpt lat="47.19561" lon="-1.57439">
        <ele>57</ele>
        <time>2021-08-14T10:16:45.000Z</time>
      </trkpt>
      <trkpt lat="47.19557" lon="-1.57457">
        <ele>56</ele>
        <time>2021-08-14T10:16:47.000Z</time>
      </trkpt>
      <trkpt lat="47.19554" lon="-1.57478">
        <ele>56</ele>
        <time>2021-08-14T10:16:49.000Z</time>
      </trkpt>
      <trkpt lat="47.1955" lon="-1.57499">
        <ele>55</ele>
        <time>2021-08-14T10:16:51.000Z</time>
      </trkpt>
      <trkpt lat="47.19546" lon="-1.57519">
        <ele>55</ele>
        <time>2021-08-14T10:16:53.000Z</time>
      </trkpt>
      <trkpt lat="47.19542" lon="-1.57539">
        <ele>55</ele>
        <time>2021-08-14T10:16:55.000Z</time>
      </trkpt>
      <trkpt lat="47.19538" lon="-1.57558">
        <ele>55</ele>
        <time>2021-08-14T10:16:57.000Z</time>
      </trkpt>
      <trkpt lat="47.19534" lon="-1.57577">
        <ele>55</ele>
        <time>2021-08-14T10:16:59.000Z</time>
      </trkpt>
      <trkpt lat="47.1953" lon="-1.57597">
        <ele>55</ele>
        <time>2021-08-14T10:17:01.000Z</time>
      </trkpt>
      <trkpt lat="47.19525" lon="-1.57616">
        <ele>54</ele>
        <time>2021-08-14T10:17:03.000Z</time>
      </trkpt>
      <trkpt lat="47.19522" lon="-1.57634">
        <ele>54</ele>
        <time>2021-08-14T10:17:05.000Z</time>
      </trkpt>
      <trkpt lat="47.19518" lon="-1.57653">
        <ele>54</ele>
        <time>2021-08-14T10:17:07.000Z</time>
      </trkpt>
      <trkpt lat="47.19514" lon="-1.57671">
        <ele>54</ele>
        <time>2021-08-14T10:17:09.000Z</time>
      </trkpt>
      <trkpt lat="47.1951" lon="-1.5769">
        <ele>53</ele>
        <time>2021-08-14T10:17:11.000Z</time>
      </trkpt>
      <trkpt lat="47.19506" lon="-1.57708">
        <ele>53</ele>
        <time>2021-08-14T10:17:13.000Z</time>
      </trkpt>
      <trkpt lat="47.19502" lon="-1.57727">
        <ele>53</ele>
        <time>2021-08-14T10:17:15.000Z</time>
      </trkpt>
      <trkpt lat="47.19499" lon="-1.57745">
        <ele>53</ele>
        <time>2021-08-14T10:17:17.000Z</time>
      </trkpt>
      <trkpt lat="47.19495" lon="-1.57764">
        <ele>53</ele>
        <time>2021-08-14T10:17:19.000Z</time>
      </trkpt>
      <trkpt lat="47.19491" lon="-1.57782">
        <ele>53</ele>
        <time>2021-08-14T10:17:21.000Z</time>
      </trkpt>
      <trkpt lat="47.19487" lon="-1.57801">
        <ele>53</ele>
        <time>2021-08-14T10:17:23.000Z</time>
      </trkpt>
      <trkpt lat="47.19483" lon="-1.57819">
        <ele>53</ele>
        <time>2021-08-14T10:17:25.000Z</time>
      </trkpt>
      <trkpt lat="47.1948" lon="-1.57839">
        <ele>53</ele>
        <time>2021-08-14T10:17:27.000Z</time>
      </trkpt>
      <trkpt lat="47.1948" lon="-1.57858">
        <ele>53</ele>
        <time>2021-08-14T10:17:29.000Z</time>
      </trkpt>
      <trkpt lat="47.19476" lon="-1.57877">
        <ele>53</ele>
        <time>2021-08-14T10:17:31.000Z</time>
      </trkpt>
      <trkpt lat="47.19472" lon="-1.57896">
        <ele>53</ele>
        <time>2021-08-14T10:17:33.000Z</time>
      </trkpt>
      <trkpt lat="47.19469" lon="-1.57915">
        <ele>52</ele>
        <time>2021-08-14T10:17:35.000Z</time>
      </trkpt>
      <trkpt lat="47.19467" lon="-1.57934">
        <ele>52</ele>
        <time>2021-08-14T10:17:37.000Z</time>
      </trkpt>
      <trkpt lat="47.19466" lon="-1.5795">
        <ele>52</ele>
        <time>2021-08-14T10:17:39.000Z</time>
      </trkpt>
      <trkpt lat="47.19465" lon="-1.57966">
        <ele>52</ele>
        <time>2021-08-14T10:17:42.000Z</time>
      </trkpt>
      <trkpt lat="47.19464" lon="-1.57982">
        <ele>53</ele>
        <time>2021-08-14T10:17:46.000Z</time>
      </trkpt>
      <trkpt lat="47.19463" lon="-1.58001">
        <ele>53</ele>
        <time>2021-08-14T10:17:49.000Z</time>
      </trkpt>
      <trkpt lat="47.19461" lon="-1.58016">
        <ele>53</ele>
        <time>2021-08-14T10:17:51.000Z</time>
      </trkpt>
      <trkpt lat="47.1946" lon="-1.58032">
        <ele>53</ele>
        <time>2021-08-14T10:17:53.000Z</time>
      </trkpt>
      <trkpt lat="47.19459" lon="-1.58047">
        <ele>53</ele>
        <time>2021-08-14T10:17:55.000Z</time>
      </trkpt>
      <trkpt lat="47.19456" lon="-1.58064">
        <ele>53</ele>
        <time>2021-08-14T10:17:58.000Z</time>
      </trkpt>
      <trkpt lat="47.19456" lon="-1.58081">
        <ele>52</ele>
        <time>2021-08-14T10:18:02.000Z</time>
      </trkpt>
      <trkpt lat="47.19451" lon="-1.58099">
        <ele>54</ele>
        <time>2021-08-14T10:18:05.000Z</time>
      </trkpt>
      <trkpt lat="47.19442" lon="-1.58108">
        <ele>54</ele>
        <time>2021-08-14T10:18:07.000Z</time>
      </trkpt>
      <trkpt lat="47.19432" lon="-1.58118">
        <ele>55</ele>
        <time>2021-08-14T10:18:09.000Z</time>
      </trkpt>
      <trkpt lat="47.19421" lon="-1.5813">
        <ele>55</ele>
        <time>2021-08-14T10:18:11.000Z</time>
      </trkpt>
      <trkpt lat="47.1941" lon="-1.58143">
        <ele>55</ele>
        <time>2021-08-14T10:18:13.000Z</time>
      </trkpt>
      <trkpt lat="47.194" lon="-1.58159">
        <ele>55</ele>
        <time>2021-08-14T10:18:15.000Z</time>
      </trkpt>
      <trkpt lat="47.19393" lon="-1.58176">
        <ele>55</ele>
        <time>2021-08-14T10:18:17.000Z</time>
      </trkpt>
      <trkpt lat="47.19385" lon="-1.58193">
        <ele>55</ele>
        <time>2021-08-14T10:18:19.000Z</time>
      </trkpt>
      <trkpt lat="47.19378" lon="-1.58211">
        <ele>55</ele>
        <time>2021-08-14T10:18:21.000Z</time>
      </trkpt>
      <trkpt lat="47.19372" lon="-1.58229">
        <ele>55</ele>
        <time>2021-08-14T10:18:23.000Z</time>
      </trkpt>
      <trkpt lat="47.19365" lon="-1.58247">
        <ele>55</ele>
        <time>2021-08-14T10:18:25.000Z</time>
      </trkpt>
      <trkpt lat="47.19358" lon="-1.58265">
        <ele>54</ele>
        <time>2021-08-14T10:18:27.000Z</time>
      </trkpt>
      <trkpt lat="47.19349" lon="-1.58279">
        <ele>55</ele>
        <time>2021-08-14T10:18:29.000Z</time>
      </trkpt>
      <trkpt lat="47.19338" lon="-1.58291">
        <ele>55</ele>
        <time>2021-08-14T10:18:31.000Z</time>
      </trkpt>
      <trkpt lat="47.19327" lon="-1.58302">
        <ele>54</ele>
        <time>2021-08-14T10:18:33.000Z</time>
      </trkpt>
      <trkpt lat="47.19316" lon="-1.58311">
        <ele>54</ele>
        <time>2021-08-14T10:18:35.000Z</time>
      </trkpt>
      <trkpt lat="47.19306" lon="-1.58321">
        <ele>54</ele>
        <time>2021-08-14T10:18:37.000Z</time>
      </trkpt>
      <trkpt lat="47.19296" lon="-1.5833">
        <ele>54</ele>
        <time>2021-08-14T10:18:39.000Z</time>
      </trkpt>
      <trkpt lat="47.19286" lon="-1.58337">
        <ele>54</ele>
        <time>2021-08-14T10:18:41.000Z</time>
      </trkpt>
      <trkpt lat="47.19278" lon="-1.58347">
        <ele>53</ele>
        <time>2021-08-14T10:18:43.000Z</time>
      </trkpt>
      <trkpt lat="47.19268" lon="-1.58356">
        <ele>53</ele>
        <time>2021-08-14T10:18:45.000Z</time>
      </trkpt>
      <trkpt lat="47.19257" lon="-1.58367">
        <ele>53</ele>
        <time>2021-08-14T10:18:47.000Z</time>
      </trkpt>
      <trkpt lat="47.19245" lon="-1.58377">
        <ele>53</ele>
        <time>2021-08-14T10:18:49.000Z</time>
      </trkpt>
      <trkpt lat="47.19233" lon="-1.58387">
        <ele>53</ele>
        <time>2021-08-14T10:18:51.000Z</time>
      </trkpt>
      <trkpt lat="47.19221" lon="-1.58398">
        <ele>53</ele>
        <time>2021-08-14T10:18:53.000Z</time>
      </trkpt>
      <trkpt lat="47.19211" lon="-1.58408">
        <ele>53</ele>
        <time>2021-08-14T10:18:55.000Z</time>
      </trkpt>
      <trkpt lat="47.19199" lon="-1.58419">
        <ele>53</ele>
        <time>2021-08-14T10:18:57.000Z</time>
      </trkpt>
      <trkpt lat="47.19188" lon="-1.58429">
        <ele>53</ele>
        <time>2021-08-14T10:18:59.000Z</time>
      </trkpt>
      <trkpt lat="47.19177" lon="-1.5844">
        <ele>54</ele>
        <time>2021-08-14T10:19:01.000Z</time>
      </trkpt>
      <trkpt lat="47.19166" lon="-1.5845">
        <ele>54</ele>
        <time>2021-08-14T10:19:03.000Z</time>
      </trkpt>
      <trkpt lat="47.19156" lon="-1.58461">
        <ele>54</ele>
        <time>2021-08-14T10:19:05.000Z</time>
      </trkpt>
      <trkpt lat="47.19147" lon="-1.58469">
        <ele>55</ele>
        <time>2021-08-14T10:19:07.000Z</time>
      </trkpt>
      <trkpt lat="47.19137" lon="-1.58479">
        <ele>55</ele>
        <time>2021-08-14T10:19:09.000Z</time>
      </trkpt>
      <trkpt lat="47.19127" lon="-1.5849">
        <ele>55</ele>
        <time>2021-08-14T10:19:11.000Z</time>
      </trkpt>
      <trkpt lat="47.19115" lon="-1.585">
        <ele>55</ele>
        <time>2021-08-14T10:19:13.000Z</time>
      </trkpt>
      <trkpt lat="47.19104" lon="-1.58511">
        <ele>54</ele>
        <time>2021-08-14T10:19:15.000Z</time>
      </trkpt>
      <trkpt lat="47.19093" lon="-1.5852">
        <ele>54</ele>
        <time>2021-08-14T10:19:17.000Z</time>
      </trkpt>
      <trkpt lat="47.19082" lon="-1.58532">
        <ele>55</ele>
        <time>2021-08-14T10:19:19.000Z</time>
      </trkpt>
      <trkpt lat="47.19071" lon="-1.58543">
        <ele>55</ele>
        <time>2021-08-14T10:19:21.000Z</time>
      </trkpt>
      <trkpt lat="47.19061" lon="-1.58555">
        <ele>55</ele>
        <time>2021-08-14T10:19:23.000Z</time>
      </trkpt>
      <trkpt lat="47.1905" lon="-1.58567">
        <ele>56</ele>
        <time>2021-08-14T10:19:25.000Z</time>
      </trkpt>
      <trkpt lat="47.19039" lon="-1.58577">
        <ele>56</ele>
        <time>2021-08-14T10:19:27.000Z</time>
      </trkpt>
      <trkpt lat="47.19028" lon="-1.5859">
        <ele>56</ele>
        <time>2021-08-14T10:19:29.000Z</time>
      </trkpt>
      <trkpt lat="47.19017" lon="-1.58602">
        <ele>56</ele>
        <time>2021-08-14T10:19:31.000Z</time>
      </trkpt>
      <trkpt lat="47.19006" lon="-1.58614">
        <ele>56</ele>
        <time>2021-08-14T10:19:33.000Z</time>
      </trkpt>
      <trkpt lat="47.18996" lon="-1.58624">
        <ele>56</ele>
        <time>2021-08-14T10:19:35.000Z</time>
      </trkpt>
      <trkpt lat="47.18985" lon="-1.58635">
        <ele>57</ele>
        <time>2021-08-14T10:19:37.000Z</time>
      </trkpt>
      <trkpt lat="47.18975" lon="-1.58646">
        <ele>57</ele>
        <time>2021-08-14T10:19:39.000Z</time>
      </trkpt>
      <trkpt lat="47.18963" lon="-1.58655">
        <ele>56</ele>
        <time>2021-08-14T10:19:41.000Z</time>
      </trkpt>
      <trkpt lat="47.18952" lon="-1.58666">
        <ele>56</ele>
        <time>2021-08-14T10:19:43.000Z</time>
      </trkpt>
      <trkpt lat="47.18941" lon="-1.58676">
        <ele>56</ele>
        <time>2021-08-14T10:19:45.000Z</time>
      </trkpt>
      <trkpt lat="47.1893" lon="-1.58687">
        <ele>56</ele>
        <time>2021-08-14T10:19:47.000Z</time>
      </trkpt>
      <trkpt lat="47.18919" lon="-1.58697">
        <ele>55</ele>
        <time>2021-08-14T10:19:49.000Z</time>
      </trkpt>
      <trkpt lat="47.18907" lon="-1.58707">
        <ele>56</ele>
        <time>2021-08-14T10:19:51.000Z</time>
      </trkpt>
      <trkpt lat="47.18896" lon="-1.58715">
        <ele>56</ele>
        <time>2021-08-14T10:19:53.000Z</time>
      </trkpt>
      <trkpt lat="47.18884" lon="-1.58722">
        <ele>56</ele>
        <time>2021-08-14T10:19:55.000Z</time>
      </trkpt>
      <trkpt lat="47.18872" lon="-1.58728">
        <ele>56</ele>
        <time>2021-08-14T10:19:57.000Z</time>
      </trkpt>
      <trkpt lat="47.18861" lon="-1.58735">
        <ele>56</ele>
        <time>2021-08-14T10:19:59.000Z</time>
      </trkpt>
      <trkpt lat="47.1885" lon="-1.5874">
        <ele>56</ele>
        <time>2021-08-14T10:20:01.000Z</time>
      </trkpt>
      <trkpt lat="47.18839" lon="-1.58747">
        <ele>56</ele>
        <time>2021-08-14T10:20:03.000Z</time>
      </trkpt>
      <trkpt lat="47.18832" lon="-1.5876">
        <ele>55</ele>
        <time>2021-08-14T10:20:05.000Z</time>
      </trkpt>
      <trkpt lat="47.18829" lon="-1.58775">
        <ele>55</ele>
        <time>2021-08-14T10:20:07.000Z</time>
      </trkpt>
      <trkpt lat="47.18822" lon="-1.58791">
        <ele>55</ele>
        <time>2021-08-14T10:20:09.000Z</time>
      </trkpt>
      <trkpt lat="47.18812" lon="-1.58803">
        <ele>55</ele>
        <time>2021-08-14T10:20:11.000Z</time>
      </trkpt>
      <trkpt lat="47.188" lon="-1.58811">
        <ele>55</ele>
        <time>2021-08-14T10:20:13.000Z</time>
      </trkpt>
      <trkpt lat="47.18789" lon="-1.58821">
        <ele>55</ele>
        <time>2021-08-14T10:20:15.000Z</time>
      </trkpt>
      <trkpt lat="47.18784" lon="-1.58841">
        <ele>55</ele>
        <time>2021-08-14T10:20:17.000Z</time>
      </trkpt>
      <trkpt lat="47.18779" lon="-1.5886">
        <ele>54</ele>
        <time>2021-08-14T10:20:19.000Z</time>
      </trkpt>
      <trkpt lat="47.18776" lon="-1.58881">
        <ele>54</ele>
        <time>2021-08-14T10:20:21.000Z</time>
      </trkpt>
      <trkpt lat="47.18773" lon="-1.58902">
        <ele>54</ele>
        <time>2021-08-14T10:20:23.000Z</time>
      </trkpt>
      <trkpt lat="47.1877" lon="-1.58924">
        <ele>54</ele>
        <time>2021-08-14T10:20:25.000Z</time>
      </trkpt>
      <trkpt lat="47.18768" lon="-1.58946">
        <ele>53</ele>
        <time>2021-08-14T10:20:27.000Z</time>
      </trkpt>
      <trkpt lat="47.18765" lon="-1.58967">
        <ele>54</ele>
        <time>2021-08-14T10:20:29.000Z</time>
      </trkpt>
      <trkpt lat="47.18763" lon="-1.58987">
        <ele>54</ele>
        <time>2021-08-14T10:20:31.000Z</time>
      </trkpt>
      <trkpt lat="47.18762" lon="-1.59007">
        <ele>55</ele>
        <time>2021-08-14T10:20:33.000Z</time>
      </trkpt>
      <trkpt lat="47.18759" lon="-1.59027">
        <ele>54</ele>
        <time>2021-08-14T10:20:35.000Z</time>
      </trkpt>
      <trkpt lat="47.18757" lon="-1.59048">
        <ele>54</ele>
        <time>2021-08-14T10:20:37.000Z</time>
      </trkpt>
      <trkpt lat="47.18755" lon="-1.59068">
        <ele>54</ele>
        <time>2021-08-14T10:20:39.000Z</time>
      </trkpt>
      <trkpt lat="47.18753" lon="-1.59088">
        <ele>54</ele>
        <time>2021-08-14T10:20:41.000Z</time>
      </trkpt>
      <trkpt lat="47.18751" lon="-1.59108">
        <ele>54</ele>
        <time>2021-08-14T10:20:43.000Z</time>
      </trkpt>
      <trkpt lat="47.18748" lon="-1.59129">
        <ele>54</ele>
        <time>2021-08-14T10:20:45.000Z</time>
      </trkpt>
      <trkpt lat="47.18746" lon="-1.59149">
        <ele>54</ele>
        <time>2021-08-14T10:20:47.000Z</time>
      </trkpt>
      <trkpt lat="47.18744" lon="-1.5917">
        <ele>54</ele>
        <time>2021-08-14T10:20:49.000Z</time>
      </trkpt>
      <trkpt lat="47.18742" lon="-1.5919">
        <ele>54</ele>
        <time>2021-08-14T10:20:51.000Z</time>
      </trkpt>
      <trkpt lat="47.1874" lon="-1.59211">
        <ele>54</ele>
        <time>2021-08-14T10:20:53.000Z</time>
      </trkpt>
      <trkpt lat="47.18738" lon="-1.59231">
        <ele>54</ele>
        <time>2021-08-14T10:20:55.000Z</time>
      </trkpt>
      <trkpt lat="47.18735" lon="-1.59251">
        <ele>54</ele>
        <time>2021-08-14T10:20:57.000Z</time>
      </trkpt>
      <trkpt lat="47.18733" lon="-1.59271">
        <ele>54</ele>
        <time>2021-08-14T10:20:59.000Z</time>
      </trkpt>
      <trkpt lat="47.18731" lon="-1.59292">
        <ele>54</ele>
        <time>2021-08-14T10:21:01.000Z</time>
      </trkpt>
      <trkpt lat="47.18729" lon="-1.59312">
        <ele>54</ele>
        <time>2021-08-14T10:21:03.000Z</time>
      </trkpt>
      <trkpt lat="47.18727" lon="-1.59333">
        <ele>54</ele>
        <time>2021-08-14T10:21:05.000Z</time>
      </trkpt>
      <trkpt lat="47.18725" lon="-1.59354">
        <ele>54</ele>
        <time>2021-08-14T10:21:07.000Z</time>
      </trkpt>
      <trkpt lat="47.18722" lon="-1.59374">
        <ele>54</ele>
        <time>2021-08-14T10:21:09.000Z</time>
      </trkpt>
      <trkpt lat="47.1872" lon="-1.59394">
        <ele>54</ele>
        <time>2021-08-14T10:21:11.000Z</time>
      </trkpt>
      <trkpt lat="47.18718" lon="-1.59415">
        <ele>54</ele>
        <time>2021-08-14T10:21:13.000Z</time>
      </trkpt>
      <trkpt lat="47.18716" lon="-1.59436">
        <ele>54</ele>
        <time>2021-08-14T10:21:15.000Z</time>
      </trkpt>
      <trkpt lat="47.18714" lon="-1.59457">
        <ele>54</ele>
        <time>2021-08-14T10:21:17.000Z</time>
      </trkpt>
      <trkpt lat="47.18712" lon="-1.59477">
        <ele>54</ele>
        <time>2021-08-14T10:21:19.000Z</time>
      </trkpt>
      <trkpt lat="47.1871" lon="-1.59497">
        <ele>54</ele>
        <time>2021-08-14T10:21:21.000Z</time>
      </trkpt>
      <trkpt lat="47.18707" lon="-1.59518">
        <ele>54</ele>
        <time>2021-08-14T10:21:23.000Z</time>
      </trkpt>
      <trkpt lat="47.18705" lon="-1.59538">
        <ele>54</ele>
        <time>2021-08-14T10:21:25.000Z</time>
      </trkpt>
      <trkpt lat="47.18702" lon="-1.59558">
        <ele>54</ele>
        <time>2021-08-14T10:21:27.000Z</time>
      </trkpt>
      <trkpt lat="47.187" lon="-1.59578">
        <ele>54</ele>
        <time>2021-08-14T10:21:29.000Z</time>
      </trkpt>
      <trkpt lat="47.18697" lon="-1.59598">
        <ele>54</ele>
        <time>2021-08-14T10:21:31.000Z</time>
      </trkpt>
      <trkpt lat="47.18695" lon="-1.59618">
        <ele>54</ele>
        <time>2021-08-14T10:21:33.000Z</time>
      </trkpt>
      <trkpt lat="47.18692" lon="-1.59639">
        <ele>54</ele>
        <time>2021-08-14T10:21:35.000Z</time>
      </trkpt>
      <trkpt lat="47.18689" lon="-1.59658">
        <ele>54</ele>
        <time>2021-08-14T10:21:37.000Z</time>
      </trkpt>
      <trkpt lat="47.18687" lon="-1.59678">
        <ele>54</ele>
        <time>2021-08-14T10:21:39.000Z</time>
      </trkpt>
      <trkpt lat="47.18684" lon="-1.59698">
        <ele>54</ele>
        <time>2021-08-14T10:21:41.000Z</time>
      </trkpt>
      <trkpt lat="47.18682" lon="-1.59718">
        <ele>53</ele>
        <time>2021-08-14T10:21:43.000Z</time>
      </trkpt>
      <trkpt lat="47.18681" lon="-1.59738">
        <ele>53</ele>
        <time>2021-08-14T10:21:45.000Z</time>
      </trkpt>
      <trkpt lat="47.18682" lon="-1.59759">
        <ele>53</ele>
        <time>2021-08-14T10:21:47.000Z</time>
      </trkpt>
      <trkpt lat="47.18682" lon="-1.59782">
        <ele>53</ele>
        <time>2021-08-14T10:21:49.000Z</time>
      </trkpt>
      <trkpt lat="47.18682" lon="-1.59809">
        <ele>53</ele>
        <time>2021-08-14T10:21:51.000Z</time>
      </trkpt>
      <trkpt lat="47.18679" lon="-1.59821">
        <ele>54</ele>
        <time>2021-08-14T10:21:52.000Z</time>
      </trkpt>
      <trkpt lat="47.18668" lon="-1.5984">
        <ele>54</ele>
        <time>2021-08-14T10:21:54.000Z</time>
      </trkpt>
      <trkpt lat="47.18653" lon="-1.59846">
        <ele>54</ele>
        <time>2021-08-14T10:21:56.000Z</time>
      </trkpt>
      <trkpt lat="47.18638" lon="-1.59841">
        <ele>53</ele>
        <time>2021-08-14T10:21:58.000Z</time>
      </trkpt>
      <trkpt lat="47.18625" lon="-1.59832">
        <ele>53</ele>
        <time>2021-08-14T10:22:00.000Z</time>
      </trkpt>
      <trkpt lat="47.18615" lon="-1.59837">
        <ele>52</ele>
        <time>2021-08-14T10:22:02.000Z</time>
      </trkpt>
      <trkpt lat="47.18617" lon="-1.59854">
        <ele>52</ele>
        <time>2021-08-14T10:22:04.000Z</time>
      </trkpt>
      <trkpt lat="47.18621" lon="-1.59872">
        <ele>53</ele>
        <time>2021-08-14T10:22:06.000Z</time>
      </trkpt>
      <trkpt lat="47.18619" lon="-1.59891">
        <ele>54</ele>
        <time>2021-08-14T10:22:08.000Z</time>
      </trkpt>
      <trkpt lat="47.18614" lon="-1.59909">
        <ele>54</ele>
        <time>2021-08-14T10:22:10.000Z</time>
      </trkpt>
      <trkpt lat="47.18608" lon="-1.59927">
        <ele>54</ele>
        <time>2021-08-14T10:22:12.000Z</time>
      </trkpt>
      <trkpt lat="47.18603" lon="-1.59945">
        <ele>54</ele>
        <time>2021-08-14T10:22:14.000Z</time>
      </trkpt>
      <trkpt lat="47.18594" lon="-1.59972">
        <ele>54</ele>
        <time>2021-08-14T10:22:17.000Z</time>
      </trkpt>
      <trkpt lat="47.18589" lon="-1.59989">
        <ele>53</ele>
        <time>2021-08-14T10:22:19.000Z</time>
      </trkpt>
      <trkpt lat="47.18583" lon="-1.60007">
        <ele>53</ele>
        <time>2021-08-14T10:22:21.000Z</time>
      </trkpt>
      <trkpt lat="47.18574" lon="-1.60033">
        <ele>53</ele>
        <time>2021-08-14T10:22:24.000Z</time>
      </trkpt>
      <trkpt lat="47.18568" lon="-1.6005">
        <ele>53</ele>
        <time>2021-08-14T10:22:26.000Z</time>
      </trkpt>
      <trkpt lat="47.18562" lon="-1.60067">
        <ele>53</ele>
        <time>2021-08-14T10:22:28.000Z</time>
      </trkpt>
      <trkpt lat="47.18555" lon="-1.60085">
        <ele>53</ele>
        <time>2021-08-14T10:22:30.000Z</time>
      </trkpt>
      <trkpt lat="47.18545" lon="-1.60109">
        <ele>53</ele>
        <time>2021-08-14T10:22:33.000Z</time>
      </trkpt>
      <trkpt lat="47.18538" lon="-1.60125">
        <ele>53</ele>
        <time>2021-08-14T10:22:35.000Z</time>
      </trkpt>
      <trkpt lat="47.18527" lon="-1.60149">
        <ele>53</ele>
        <time>2021-08-14T10:22:38.000Z</time>
      </trkpt>
      <trkpt lat="47.1852" lon="-1.60164">
        <ele>53</ele>
        <time>2021-08-14T10:22:40.000Z</time>
      </trkpt>
      <trkpt lat="47.18513" lon="-1.60179">
        <ele>53</ele>
        <time>2021-08-14T10:22:42.000Z</time>
      </trkpt>
      <trkpt lat="47.18505" lon="-1.60195">
        <ele>54</ele>
        <time>2021-08-14T10:22:44.000Z</time>
      </trkpt>
      <trkpt lat="47.18498" lon="-1.6021">
        <ele>54</ele>
        <time>2021-08-14T10:22:46.000Z</time>
      </trkpt>
      <trkpt lat="47.1849" lon="-1.60224">
        <ele>54</ele>
        <time>2021-08-14T10:22:48.000Z</time>
      </trkpt>
      <trkpt lat="47.18482" lon="-1.6024">
        <ele>54</ele>
        <time>2021-08-14T10:22:50.000Z</time>
      </trkpt>
      <trkpt lat="47.18474" lon="-1.60254">
        <ele>54</ele>
        <time>2021-08-14T10:22:52.000Z</time>
      </trkpt>
      <trkpt lat="47.18465" lon="-1.60269">
        <ele>53</ele>
        <time>2021-08-14T10:22:54.000Z</time>
      </trkpt>
      <trkpt lat="47.18457" lon="-1.60284">
        <ele>53</ele>
        <time>2021-08-14T10:22:56.000Z</time>
      </trkpt>
      <trkpt lat="47.18448" lon="-1.60298">
        <ele>53</ele>
        <time>2021-08-14T10:22:58.000Z</time>
      </trkpt>
      <trkpt lat="47.1844" lon="-1.60312">
        <ele>53</ele>
        <time>2021-08-14T10:23:00.000Z</time>
      </trkpt>
      <trkpt lat="47.18431" lon="-1.60327">
        <ele>53</ele>
        <time>2021-08-14T10:23:02.000Z</time>
      </trkpt>
      <trkpt lat="47.18422" lon="-1.60341">
        <ele>53</ele>
        <time>2021-08-14T10:23:04.000Z</time>
      </trkpt>
      <trkpt lat="47.18412" lon="-1.60355">
        <ele>53</ele>
        <time>2021-08-14T10:23:06.000Z</time>
      </trkpt>
      <trkpt lat="47.18402" lon="-1.60368">
        <ele>53</ele>
        <time>2021-08-14T10:23:08.000Z</time>
      </trkpt>
      <trkpt lat="47.18392" lon="-1.60381">
        <ele>53</ele>
        <time>2021-08-14T10:23:10.000Z</time>
      </trkpt>
      <trkpt lat="47.18382" lon="-1.60394">
        <ele>53</ele>
        <time>2021-08-14T10:23:12.000Z</time>
      </trkpt>
      <trkpt lat="47.18372" lon="-1.60408">
        <ele>53</ele>
        <time>2021-08-14T10:23:14.000Z</time>
      </trkpt>
      <trkpt lat="47.18362" lon="-1.60422">
        <ele>53</ele>
        <time>2021-08-14T10:23:16.000Z</time>
      </trkpt>
      <trkpt lat="47.18351" lon="-1.60435">
        <ele>53</ele>
        <time>2021-08-14T10:23:18.000Z</time>
      </trkpt>
      <trkpt lat="47.18341" lon="-1.60448">
        <ele>52</ele>
        <time>2021-08-14T10:23:20.000Z</time>
      </trkpt>
      <trkpt lat="47.18331" lon="-1.6046">
        <ele>52</ele>
        <time>2021-08-14T10:23:22.000Z</time>
      </trkpt>
      <trkpt lat="47.1832" lon="-1.60472">
        <ele>53</ele>
        <time>2021-08-14T10:23:24.000Z</time>
      </trkpt>
      <trkpt lat="47.1831" lon="-1.60484">
        <ele>53</ele>
        <time>2021-08-14T10:23:26.000Z</time>
      </trkpt>
      <trkpt lat="47.18299" lon="-1.60496">
        <ele>53</ele>
        <time>2021-08-14T10:23:28.000Z</time>
      </trkpt>
      <trkpt lat="47.18288" lon="-1.60508">
        <ele>53</ele>
        <time>2021-08-14T10:23:30.000Z</time>
      </trkpt>
      <trkpt lat="47.18277" lon="-1.60519">
        <ele>54</ele>
        <time>2021-08-14T10:23:32.000Z</time>
      </trkpt>
      <trkpt lat="47.18265" lon="-1.60531">
        <ele>53</ele>
        <time>2021-08-14T10:23:34.000Z</time>
      </trkpt>
      <trkpt lat="47.18254" lon="-1.60541">
        <ele>53</ele>
        <time>2021-08-14T10:23:36.000Z</time>
      </trkpt>
      <trkpt lat="47.18242" lon="-1.6055">
        <ele>53</ele>
        <time>2021-08-14T10:23:38.000Z</time>
      </trkpt>
      <trkpt lat="47.1823" lon="-1.60558">
        <ele>53</ele>
        <time>2021-08-14T10:23:40.000Z</time>
      </trkpt>
      <trkpt lat="47.18218" lon="-1.60566">
        <ele>54</ele>
        <time>2021-08-14T10:23:42.000Z</time>
      </trkpt>
      <trkpt lat="47.18206" lon="-1.60571">
        <ele>54</ele>
        <time>2021-08-14T10:23:44.000Z</time>
      </trkpt>
      <trkpt lat="47.18195" lon="-1.60576">
        <ele>54</ele>
        <time>2021-08-14T10:23:46.000Z</time>
      </trkpt>
      <trkpt lat="47.18189" lon="-1.6059">
        <ele>54</ele>
        <time>2021-08-14T10:23:49.000Z</time>
      </trkpt>
      <trkpt lat="47.18181" lon="-1.606">
        <ele>54</ele>
        <time>2021-08-14T10:23:51.000Z</time>
      </trkpt>
      <trkpt lat="47.18169" lon="-1.60603">
        <ele>53</ele>
        <time>2021-08-14T10:23:53.000Z</time>
      </trkpt>
      <trkpt lat="47.18157" lon="-1.60605">
        <ele>53</ele>
        <time>2021-08-14T10:23:55.000Z</time>
      </trkpt>
      <trkpt lat="47.18145" lon="-1.60604">
        <ele>53</ele>
        <time>2021-08-14T10:23:57.000Z</time>
      </trkpt>
      <trkpt lat="47.18132" lon="-1.60603">
        <ele>54</ele>
        <time>2021-08-14T10:23:59.000Z</time>
      </trkpt>
      <trkpt lat="47.1812" lon="-1.60599">
        <ele>54</ele>
        <time>2021-08-14T10:24:01.000Z</time>
      </trkpt>
      <trkpt lat="47.18106" lon="-1.60594">
        <ele>54</ele>
        <time>2021-08-14T10:24:03.000Z</time>
      </trkpt>
      <trkpt lat="47.18094" lon="-1.6059">
        <ele>54</ele>
        <time>2021-08-14T10:24:05.000Z</time>
      </trkpt>
      <trkpt lat="47.18082" lon="-1.60584">
        <ele>54</ele>
        <time>2021-08-14T10:24:07.000Z</time>
      </trkpt>
      <trkpt lat="47.1807" lon="-1.60577">
        <ele>54</ele>
        <time>2021-08-14T10:24:09.000Z</time>
      </trkpt>
      <trkpt lat="47.18059" lon="-1.6057">
        <ele>54</ele>
        <time>2021-08-14T10:24:11.000Z</time>
      </trkpt>
      <trkpt lat="47.18047" lon="-1.60563">
        <ele>54</ele>
        <time>2021-08-14T10:24:13.000Z</time>
      </trkpt>
      <trkpt lat="47.18036" lon="-1.60556">
        <ele>54</ele>
        <time>2021-08-14T10:24:15.000Z</time>
      </trkpt>
      <trkpt lat="47.18023" lon="-1.60553">
        <ele>54</ele>
        <time>2021-08-14T10:24:17.000Z</time>
      </trkpt>
      <trkpt lat="47.1801" lon="-1.60555">
        <ele>54</ele>
        <time>2021-08-14T10:24:19.000Z</time>
      </trkpt>
      <trkpt lat="47.17998" lon="-1.60558">
        <ele>54</ele>
        <time>2021-08-14T10:24:21.000Z</time>
      </trkpt>
      <trkpt lat="47.17986" lon="-1.60562">
        <ele>54</ele>
        <time>2021-08-14T10:24:23.000Z</time>
      </trkpt>
      <trkpt lat="47.17974" lon="-1.60566">
        <ele>54</ele>
        <time>2021-08-14T10:24:25.000Z</time>
      </trkpt>
      <trkpt lat="47.17962" lon="-1.60572">
        <ele>54</ele>
        <time>2021-08-14T10:24:27.000Z</time>
      </trkpt>
      <trkpt lat="47.17952" lon="-1.60578">
        <ele>54</ele>
        <time>2021-08-14T10:24:29.000Z</time>
      </trkpt>
      <trkpt lat="47.17941" lon="-1.60582">
        <ele>54</ele>
        <time>2021-08-14T10:24:31.000Z</time>
      </trkpt>
      <trkpt lat="47.1793" lon="-1.60587">
        <ele>55</ele>
        <time>2021-08-14T10:24:33.000Z</time>
      </trkpt>
      <trkpt lat="47.17917" lon="-1.60589">
        <ele>56</ele>
        <time>2021-08-14T10:24:36.000Z</time>
      </trkpt>
      <trkpt lat="47.17908" lon="-1.60591">
        <ele>56</ele>
        <time>2021-08-14T10:24:38.000Z</time>
      </trkpt>
      <trkpt lat="47.17903" lon="-1.60606">
        <ele>56</ele>
        <time>2021-08-14T10:24:40.000Z</time>
      </trkpt>
      <trkpt lat="47.17898" lon="-1.60625">
        <ele>55</ele>
        <time>2021-08-14T10:24:42.000Z</time>
      </trkpt>
      <trkpt lat="47.17892" lon="-1.60644">
        <ele>54</ele>
        <time>2021-08-14T10:24:44.000Z</time>
      </trkpt>
      <trkpt lat="47.17886" lon="-1.60663">
        <ele>54</ele>
        <time>2021-08-14T10:24:46.000Z</time>
      </trkpt>
      <trkpt lat="47.1788" lon="-1.60682">
        <ele>54</ele>
        <time>2021-08-14T10:24:48.000Z</time>
      </trkpt>
      <trkpt lat="47.17874" lon="-1.60702">
        <ele>54</ele>
        <time>2021-08-14T10:24:50.000Z</time>
      </trkpt>
      <trkpt lat="47.17868" lon="-1.60722">
        <ele>53</ele>
        <time>2021-08-14T10:24:52.000Z</time>
      </trkpt>
      <trkpt lat="47.17864" lon="-1.60741">
        <ele>54</ele>
        <time>2021-08-14T10:24:54.000Z</time>
      </trkpt>
      <trkpt lat="47.1786" lon="-1.6076">
        <ele>54</ele>
        <time>2021-08-14T10:24:56.000Z</time>
      </trkpt>
      <trkpt lat="47.17855" lon="-1.60779">
        <ele>54</ele>
        <time>2021-08-14T10:24:58.000Z</time>
      </trkpt>
      <trkpt lat="47.1785" lon="-1.60798">
        <ele>54</ele>
        <time>2021-08-14T10:25:00.000Z</time>
      </trkpt>
      <trkpt lat="47.17845" lon="-1.60816">
        <ele>53</ele>
        <time>2021-08-14T10:25:02.000Z</time>
      </trkpt>
      <trkpt lat="47.1784" lon="-1.60833">
        <ele>53</ele>
        <time>2021-08-14T10:25:04.000Z</time>
      </trkpt>
      <trkpt lat="47.17835" lon="-1.6085">
        <ele>53</ele>
        <time>2021-08-14T10:25:06.000Z</time>
      </trkpt>
      <trkpt lat="47.17827" lon="-1.60866">
        <ele>53</ele>
        <time>2021-08-14T10:25:08.000Z</time>
      </trkpt>
      <trkpt lat="47.17818" lon="-1.60881">
        <ele>52</ele>
        <time>2021-08-14T10:25:10.000Z</time>
      </trkpt>
      <trkpt lat="47.17807" lon="-1.60892">
        <ele>51</ele>
        <time>2021-08-14T10:25:12.000Z</time>
      </trkpt>
      <trkpt lat="47.17797" lon="-1.60902">
        <ele>51</ele>
        <time>2021-08-14T10:25:14.000Z</time>
      </trkpt>
      <trkpt lat="47.17787" lon="-1.6091">
        <ele>52</ele>
        <time>2021-08-14T10:25:16.000Z</time>
      </trkpt>
      <trkpt lat="47.17776" lon="-1.60919">
        <ele>52</ele>
        <time>2021-08-14T10:25:18.000Z</time>
      </trkpt>
      <trkpt lat="47.17764" lon="-1.60927">
        <ele>52</ele>
        <time>2021-08-14T10:25:20.000Z</time>
      </trkpt>
      <trkpt lat="47.17753" lon="-1.60935">
        <ele>52</ele>
        <time>2021-08-14T10:25:22.000Z</time>
      </trkpt>
      <trkpt lat="47.17742" lon="-1.60942">
        <ele>53</ele>
        <time>2021-08-14T10:25:24.000Z</time>
      </trkpt>
      <trkpt lat="47.17731" lon="-1.60951">
        <ele>53</ele>
        <time>2021-08-14T10:25:26.000Z</time>
      </trkpt>
      <trkpt lat="47.17719" lon="-1.60959">
        <ele>53</ele>
        <time>2021-08-14T10:25:28.000Z</time>
      </trkpt>
      <trkpt lat="47.17707" lon="-1.60966">
        <ele>54</ele>
        <time>2021-08-14T10:25:30.000Z</time>
      </trkpt>
      <trkpt lat="47.17696" lon="-1.60972">
        <ele>53</ele>
        <time>2021-08-14T10:25:32.000Z</time>
      </trkpt>
      <trkpt lat="47.17683" lon="-1.60974">
        <ele>53</ele>
        <time>2021-08-14T10:25:34.000Z</time>
      </trkpt>
      <trkpt lat="47.17669" lon="-1.60972">
        <ele>52</ele>
        <time>2021-08-14T10:25:36.000Z</time>
      </trkpt>
      <trkpt lat="47.17656" lon="-1.60976">
        <ele>52</ele>
        <time>2021-08-14T10:25:38.000Z</time>
      </trkpt>
      <trkpt lat="47.17644" lon="-1.60985">
        <ele>52</ele>
        <time>2021-08-14T10:25:40.000Z</time>
      </trkpt>
      <trkpt lat="47.17633" lon="-1.60995">
        <ele>52</ele>
        <time>2021-08-14T10:25:42.000Z</time>
      </trkpt>
      <trkpt lat="47.17621" lon="-1.61005">
        <ele>52</ele>
        <time>2021-08-14T10:25:44.000Z</time>
      </trkpt>
      <trkpt lat="47.1761" lon="-1.61015">
        <ele>52</ele>
        <time>2021-08-14T10:25:46.000Z</time>
      </trkpt>
      <trkpt lat="47.17599" lon="-1.61025">
        <ele>53</ele>
        <time>2021-08-14T10:25:48.000Z</time>
      </trkpt>
      <trkpt lat="47.17588" lon="-1.61034">
        <ele>53</ele>
        <time>2021-08-14T10:25:50.000Z</time>
      </trkpt>
      <trkpt lat="47.17577" lon="-1.61044">
        <ele>54</ele>
        <time>2021-08-14T10:25:52.000Z</time>
      </trkpt>
      <trkpt lat="47.17565" lon="-1.61053">
        <ele>53</ele>
        <time>2021-08-14T10:25:54.000Z</time>
      </trkpt>
      <trkpt lat="47.17554" lon="-1.61063">
        <ele>53</ele>
        <time>2021-08-14T10:25:56.000Z</time>
      </trkpt>
      <trkpt lat="47.17543" lon="-1.61073">
        <ele>54</ele>
        <time>2021-08-14T10:25:58.000Z</time>
      </trkpt>
      <trkpt lat="47.17532" lon="-1.61083">
        <ele>53</ele>
        <time>2021-08-14T10:26:00.000Z</time>
      </trkpt>
      <trkpt lat="47.17521" lon="-1.61093">
        <ele>54</ele>
        <time>2021-08-14T10:26:02.000Z</time>
      </trkpt>
      <trkpt lat="47.1751" lon="-1.61102">
        <ele>54</ele>
        <time>2021-08-14T10:26:04.000Z</time>
      </trkpt>
      <trkpt lat="47.17499" lon="-1.61106">
        <ele>54</ele>
        <time>2021-08-14T10:26:06.000Z</time>
      </trkpt>
      <trkpt lat="47.17486" lon="-1.61106">
        <ele>55</ele>
        <time>2021-08-14T10:26:08.000Z</time>
      </trkpt>
      <trkpt lat="47.17474" lon="-1.61102">
        <ele>55</ele>
        <time>2021-08-14T10:26:10.000Z</time>
      </trkpt>
      <trkpt lat="47.17463" lon="-1.61093">
        <ele>55</ele>
        <time>2021-08-14T10:26:12.000Z</time>
      </trkpt>
      <trkpt lat="47.17453" lon="-1.61083">
        <ele>55</ele>
        <time>2021-08-14T10:26:14.000Z</time>
      </trkpt>
      <trkpt lat="47.17445" lon="-1.61071">
        <ele>55</ele>
        <time>2021-08-14T10:26:16.000Z</time>
      </trkpt>
      <trkpt lat="47.17439" lon="-1.61058">
        <ele>55</ele>
        <time>2021-08-14T10:26:18.000Z</time>
      </trkpt>
      <trkpt lat="47.17434" lon="-1.61044">
        <ele>55</ele>
        <time>2021-08-14T10:26:20.000Z</time>
      </trkpt>
      <trkpt lat="47.17429" lon="-1.61031">
        <ele>55</ele>
        <time>2021-08-14T10:26:22.000Z</time>
      </trkpt>
      <trkpt lat="47.17423" lon="-1.61019">
        <ele>56</ele>
        <time>2021-08-14T10:26:25.000Z</time>
      </trkpt>
      <trkpt lat="47.1742" lon="-1.61036">
        <ele>56</ele>
        <time>2021-08-14T10:26:28.000Z</time>
      </trkpt>
      <trkpt lat="47.17423" lon="-1.6105">
        <ele>56</ele>
        <time>2021-08-14T10:26:30.000Z</time>
      </trkpt>
      <trkpt lat="47.17428" lon="-1.61065">
        <ele>56</ele>
        <time>2021-08-14T10:26:32.000Z</time>
      </trkpt>
      <trkpt lat="47.17435" lon="-1.6108">
        <ele>57</ele>
        <time>2021-08-14T10:26:34.000Z</time>
      </trkpt>
      <trkpt lat="47.17441" lon="-1.61095">
        <ele>58</ele>
        <time>2021-08-14T10:26:36.000Z</time>
      </trkpt>
      <trkpt lat="47.17447" lon="-1.61109">
        <ele>59</ele>
        <time>2021-08-14T10:26:38.000Z</time>
      </trkpt>
      <trkpt lat="47.17454" lon="-1.61122">
        <ele>60</ele>
        <time>2021-08-14T10:26:40.000Z</time>
      </trkpt>
      <trkpt lat="47.17459" lon="-1.61136">
        <ele>61</ele>
        <time>2021-08-14T10:26:42.000Z</time>
      </trkpt>
      <trkpt lat="47.17464" lon="-1.61149">
        <ele>61</ele>
        <time>2021-08-14T10:26:44.000Z</time>
      </trkpt>
      <trkpt lat="47.1747" lon="-1.61163">
        <ele>61</ele>
        <time>2021-08-14T10:26:46.000Z</time>
      </trkpt>
      <trkpt lat="47.17475" lon="-1.61177">
        <ele>61</ele>
        <time>2021-08-14T10:26:48.000Z</time>
      </trkpt>
      <trkpt lat="47.17481" lon="-1.6119">
        <ele>61</ele>
        <time>2021-08-14T10:26:50.000Z</time>
      </trkpt>
      <trkpt lat="47.17486" lon="-1.61203">
        <ele>60</ele>
        <time>2021-08-14T10:26:52.000Z</time>
      </trkpt>
      <trkpt lat="47.17491" lon="-1.61216">
        <ele>60</ele>
        <time>2021-08-14T10:26:54.000Z</time>
      </trkpt>
      <trkpt lat="47.17497" lon="-1.6123">
        <ele>60</ele>
        <time>2021-08-14T10:26:56.000Z</time>
      </trkpt>
      <trkpt lat="47.17503" lon="-1.61243">
        <ele>60</ele>
        <time>2021-08-14T10:26:58.000Z</time>
      </trkpt>
      <trkpt lat="47.1751" lon="-1.61255">
        <ele>61</ele>
        <time>2021-08-14T10:27:00.000Z</time>
      </trkpt>
      <trkpt lat="47.17517" lon="-1.61267">
        <ele>61</ele>
        <time>2021-08-14T10:27:02.000Z</time>
      </trkpt>
      <trkpt lat="47.17525" lon="-1.61279">
        <ele>61</ele>
        <time>2021-08-14T10:27:04.000Z</time>
      </trkpt>
      <trkpt lat="47.17534" lon="-1.6129">
        <ele>61</ele>
        <time>2021-08-14T10:27:06.000Z</time>
      </trkpt>
      <trkpt lat="47.17546" lon="-1.61296">
        <ele>61</ele>
        <time>2021-08-14T10:27:08.000Z</time>
      </trkpt>
      <trkpt lat="47.17557" lon="-1.61307">
        <ele>60</ele>
        <time>2021-08-14T10:27:10.000Z</time>
      </trkpt>
      <trkpt lat="47.17559" lon="-1.61325">
        <ele>60</ele>
        <time>2021-08-14T10:27:12.000Z</time>
      </trkpt>
      <trkpt lat="47.17554" lon="-1.61342">
        <ele>60</ele>
        <time>2021-08-14T10:27:14.000Z</time>
      </trkpt>
      <trkpt lat="47.17544" lon="-1.61355">
        <ele>60</ele>
        <time>2021-08-14T10:27:16.000Z</time>
      </trkpt>
      <trkpt lat="47.17534" lon="-1.61367">
        <ele>59</ele>
        <time>2021-08-14T10:27:18.000Z</time>
      </trkpt>
      <trkpt lat="47.17527" lon="-1.61383">
        <ele>59</ele>
        <time>2021-08-14T10:27:20.000Z</time>
      </trkpt>
      <trkpt lat="47.17523" lon="-1.614">
        <ele>59</ele>
        <time>2021-08-14T10:27:22.000Z</time>
      </trkpt>
      <trkpt lat="47.17519" lon="-1.61417">
        <ele>60</ele>
        <time>2021-08-14T10:27:24.000Z</time>
      </trkpt>
      <trkpt lat="47.17517" lon="-1.61432">
        <ele>61</ele>
        <time>2021-08-14T10:27:26.000Z</time>
      </trkpt>
      <trkpt lat="47.17514" lon="-1.61447">
        <ele>62</ele>
        <time>2021-08-14T10:27:28.000Z</time>
      </trkpt>
      <trkpt lat="47.17507" lon="-1.6146">
        <ele>63</ele>
        <time>2021-08-14T10:27:30.000Z</time>
      </trkpt>
      <trkpt lat="47.17496" lon="-1.61466">
        <ele>64</ele>
        <time>2021-08-14T10:27:32.000Z</time>
      </trkpt>
      <trkpt lat="47.17485" lon="-1.6147">
        <ele>65</ele>
        <time>2021-08-14T10:27:34.000Z</time>
      </trkpt>
      <trkpt lat="47.17473" lon="-1.61475">
        <ele>66</ele>
        <time>2021-08-14T10:27:36.000Z</time>
      </trkpt>
      <trkpt lat="47.17462" lon="-1.6148">
        <ele>67</ele>
        <time>2021-08-14T10:27:38.000Z</time>
      </trkpt>
      <trkpt lat="47.1745" lon="-1.61485">
        <ele>66</ele>
        <time>2021-08-14T10:27:40.000Z</time>
      </trkpt>
      <trkpt lat="47.17439" lon="-1.61491">
        <ele>67</ele>
        <time>2021-08-14T10:27:42.000Z</time>
      </trkpt>
      <trkpt lat="47.17428" lon="-1.61497">
        <ele>67</ele>
        <time>2021-08-14T10:27:44.000Z</time>
      </trkpt>
      <trkpt lat="47.17418" lon="-1.61505">
        <ele>68</ele>
        <time>2021-08-14T10:27:46.000Z</time>
      </trkpt>
      <trkpt lat="47.17408" lon="-1.61512">
        <ele>68</ele>
        <time>2021-08-14T10:27:48.000Z</time>
      </trkpt>
      <trkpt lat="47.17398" lon="-1.61519">
        <ele>69</ele>
        <time>2021-08-14T10:27:50.000Z</time>
      </trkpt>
      <trkpt lat="47.17388" lon="-1.61527">
        <ele>68</ele>
        <time>2021-08-14T10:27:52.000Z</time>
      </trkpt>
      <trkpt lat="47.17379" lon="-1.61536">
        <ele>68</ele>
        <time>2021-08-14T10:27:54.000Z</time>
      </trkpt>
      <trkpt lat="47.17371" lon="-1.61545">
        <ele>70</ele>
        <time>2021-08-14T10:27:56.000Z</time>
      </trkpt>
      <trkpt lat="47.17362" lon="-1.61555">
        <ele>71</ele>
        <time>2021-08-14T10:27:58.000Z</time>
      </trkpt>
      <trkpt lat="47.17353" lon="-1.61565">
        <ele>72</ele>
        <time>2021-08-14T10:28:00.000Z</time>
      </trkpt>
      <trkpt lat="47.17345" lon="-1.61575">
        <ele>72</ele>
        <time>2021-08-14T10:28:02.000Z</time>
      </trkpt>
      <trkpt lat="47.17336" lon="-1.61585">
        <ele>72</ele>
        <time>2021-08-14T10:28:04.000Z</time>
      </trkpt>
      <trkpt lat="47.17327" lon="-1.61596">
        <ele>72</ele>
        <time>2021-08-14T10:28:06.000Z</time>
      </trkpt>
      <trkpt lat="47.17318" lon="-1.61606">
        <ele>73</ele>
        <time>2021-08-14T10:28:08.000Z</time>
      </trkpt>
      <trkpt lat="47.1731" lon="-1.61618">
        <ele>73</ele>
        <time>2021-08-14T10:28:10.000Z</time>
      </trkpt>
      <trkpt lat="47.17303" lon="-1.61631">
        <ele>73</ele>
        <time>2021-08-14T10:28:12.000Z</time>
      </trkpt>
      <trkpt lat="47.17295" lon="-1.61643">
        <ele>73</ele>
        <time>2021-08-14T10:28:14.000Z</time>
      </trkpt>
      <trkpt lat="47.17288" lon="-1.61657">
        <ele>73</ele>
        <time>2021-08-14T10:28:16.000Z</time>
      </trkpt>
      <trkpt lat="47.17281" lon="-1.6167">
        <ele>73</ele>
        <time>2021-08-14T10:28:18.000Z</time>
      </trkpt>
      <trkpt lat="47.17274" lon="-1.61684">
        <ele>73</ele>
        <time>2021-08-14T10:28:20.000Z</time>
      </trkpt>
      <trkpt lat="47.17267" lon="-1.61699">
        <ele>72</ele>
        <time>2021-08-14T10:28:22.000Z</time>
      </trkpt>
      <trkpt lat="47.1726" lon="-1.61713">
        <ele>72</ele>
        <time>2021-08-14T10:28:24.000Z</time>
      </trkpt>
      <trkpt lat="47.17252" lon="-1.61727">
        <ele>72</ele>
        <time>2021-08-14T10:28:26.000Z</time>
      </trkpt>
      <trkpt lat="47.17247" lon="-1.61743">
        <ele>72</ele>
        <time>2021-08-14T10:28:28.000Z</time>
      </trkpt>
      <trkpt lat="47.17243" lon="-1.61761">
        <ele>71</ele>
        <time>2021-08-14T10:28:30.000Z</time>
      </trkpt>
      <trkpt lat="47.17238" lon="-1.61778">
        <ele>70</ele>
        <time>2021-08-14T10:28:32.000Z</time>
      </trkpt>
      <trkpt lat="47.17228" lon="-1.6179">
        <ele>70</ele>
        <time>2021-08-14T10:28:34.000Z</time>
      </trkpt>
      <trkpt lat="47.17217" lon="-1.61799">
        <ele>70</ele>
        <time>2021-08-14T10:28:36.000Z</time>
      </trkpt>
      <trkpt lat="47.17206" lon="-1.61809">
        <ele>69</ele>
        <time>2021-08-14T10:28:38.000Z</time>
      </trkpt>
      <trkpt lat="47.17194" lon="-1.61818">
        <ele>69</ele>
        <time>2021-08-14T10:28:40.000Z</time>
      </trkpt>
      <trkpt lat="47.17183" lon="-1.61829">
        <ele>69</ele>
        <time>2021-08-14T10:28:42.000Z</time>
      </trkpt>
      <trkpt lat="47.17171" lon="-1.6184">
        <ele>68</ele>
        <time>2021-08-14T10:28:44.000Z</time>
      </trkpt>
      <trkpt lat="47.1716" lon="-1.6185">
        <ele>68</ele>
        <time>2021-08-14T10:28:46.000Z</time>
      </trkpt>
      <trkpt lat="47.17149" lon="-1.61861">
        <ele>68</ele>
        <time>2021-08-14T10:28:48.000Z</time>
      </trkpt>
      <trkpt lat="47.17138" lon="-1.61872">
        <ele>68</ele>
        <time>2021-08-14T10:28:50.000Z</time>
      </trkpt>
      <trkpt lat="47.17126" lon="-1.61883">
        <ele>68</ele>
        <time>2021-08-14T10:28:52.000Z</time>
      </trkpt>
      <trkpt lat="47.17114" lon="-1.61894">
        <ele>68</ele>
        <time>2021-08-14T10:28:54.000Z</time>
      </trkpt>
      <trkpt lat="47.17102" lon="-1.61906">
        <ele>68</ele>
        <time>2021-08-14T10:28:56.000Z</time>
      </trkpt>
      <trkpt lat="47.17091" lon="-1.61917">
        <ele>67</ele>
        <time>2021-08-14T10:28:58.000Z</time>
      </trkpt>
      <trkpt lat="47.1708" lon="-1.61928">
        <ele>68</ele>
        <time>2021-08-14T10:29:00.000Z</time>
      </trkpt>
      <trkpt lat="47.17069" lon="-1.61939">
        <ele>68</ele>
        <time>2021-08-14T10:29:02.000Z</time>
      </trkpt>
      <trkpt lat="47.17059" lon="-1.61951">
        <ele>68</ele>
        <time>2021-08-14T10:29:04.000Z</time>
      </trkpt>
      <trkpt lat="47.17049" lon="-1.61965">
        <ele>68</ele>
        <time>2021-08-14T10:29:06.000Z</time>
      </trkpt>
      <trkpt lat="47.17038" lon="-1.61979">
        <ele>68</ele>
        <time>2021-08-14T10:29:08.000Z</time>
      </trkpt>
      <trkpt lat="47.17029" lon="-1.61992">
        <ele>68</ele>
        <time>2021-08-14T10:29:10.000Z</time>
      </trkpt>
      <trkpt lat="47.1702" lon="-1.62006">
        <ele>67</ele>
        <time>2021-08-14T10:29:12.000Z</time>
      </trkpt>
      <trkpt lat="47.1701" lon="-1.6202">
        <ele>68</ele>
        <time>2021-08-14T10:29:14.000Z</time>
      </trkpt>
      <trkpt lat="47.17001" lon="-1.62034">
        <ele>68</ele>
        <time>2021-08-14T10:29:16.000Z</time>
      </trkpt>
      <trkpt lat="47.16993" lon="-1.62049">
        <ele>69</ele>
        <time>2021-08-14T10:29:18.000Z</time>
      </trkpt>
      <trkpt lat="47.16984" lon="-1.62064">
        <ele>68</ele>
        <time>2021-08-14T10:29:20.000Z</time>
      </trkpt>
      <trkpt lat="47.16976" lon="-1.62079">
        <ele>69</ele>
        <time>2021-08-14T10:29:22.000Z</time>
      </trkpt>
      <trkpt lat="47.16967" lon="-1.62094">
        <ele>69</ele>
        <time>2021-08-14T10:29:24.000Z</time>
      </trkpt>
      <trkpt lat="47.16959" lon="-1.62109">
        <ele>69</ele>
        <time>2021-08-14T10:29:26.000Z</time>
      </trkpt>
      <trkpt lat="47.16951" lon="-1.62125">
        <ele>69</ele>
        <time>2021-08-14T10:29:28.000Z</time>
      </trkpt>
      <trkpt lat="47.16943" lon="-1.6214">
        <ele>69</ele>
        <time>2021-08-14T10:29:30.000Z</time>
      </trkpt>
      <trkpt lat="47.16935" lon="-1.62156">
        <ele>69</ele>
        <time>2021-08-14T10:29:32.000Z</time>
      </trkpt>
      <trkpt lat="47.16928" lon="-1.62173">
        <ele>69</ele>
        <time>2021-08-14T10:29:34.000Z</time>
      </trkpt>
      <trkpt lat="47.1692" lon="-1.62189">
        <ele>69</ele>
        <time>2021-08-14T10:29:36.000Z</time>
      </trkpt>
      <trkpt lat="47.16911" lon="-1.62205">
        <ele>69</ele>
        <time>2021-08-14T10:29:38.000Z</time>
      </trkpt>
      <trkpt lat="47.16902" lon="-1.6222">
        <ele>69</ele>
        <time>2021-08-14T10:29:40.000Z</time>
      </trkpt>
      <trkpt lat="47.16892" lon="-1.62232">
        <ele>69</ele>
        <time>2021-08-14T10:29:42.000Z</time>
      </trkpt>
      <trkpt lat="47.16882" lon="-1.62246">
        <ele>70</ele>
        <time>2021-08-14T10:29:44.000Z</time>
      </trkpt>
      <trkpt lat="47.16871" lon="-1.62258">
        <ele>70</ele>
        <time>2021-08-14T10:29:46.000Z</time>
      </trkpt>
      <trkpt lat="47.1686" lon="-1.62271">
        <ele>70</ele>
        <time>2021-08-14T10:29:48.000Z</time>
      </trkpt>
      <trkpt lat="47.16849" lon="-1.62284">
        <ele>71</ele>
        <time>2021-08-14T10:29:50.000Z</time>
      </trkpt>
      <trkpt lat="47.16839" lon="-1.62297">
        <ele>71</ele>
        <time>2021-08-14T10:29:52.000Z</time>
      </trkpt>
      <trkpt lat="47.16828" lon="-1.62308">
        <ele>71</ele>
        <time>2021-08-14T10:29:54.000Z</time>
      </trkpt>
      <trkpt lat="47.16817" lon="-1.62317">
        <ele>71</ele>
        <time>2021-08-14T10:29:56.000Z</time>
      </trkpt>
      <trkpt lat="47.16805" lon="-1.62325">
        <ele>71</ele>
        <time>2021-08-14T10:29:58.000Z</time>
      </trkpt>
      <trkpt lat="47.16793" lon="-1.62333">
        <ele>71</ele>
        <time>2021-08-14T10:30:00.000Z</time>
      </trkpt>
      <trkpt lat="47.16782" lon="-1.6234">
        <ele>71</ele>
        <time>2021-08-14T10:30:02.000Z</time>
      </trkpt>
      <trkpt lat="47.16769" lon="-1.62347">
        <ele>71</ele>
        <time>2021-08-14T10:30:04.000Z</time>
      </trkpt>
      <trkpt lat="47.16757" lon="-1.62355">
        <ele>70</ele>
        <time>2021-08-14T10:30:06.000Z</time>
      </trkpt>
      <trkpt lat="47.16746" lon="-1.62366">
        <ele>70</ele>
        <time>2021-08-14T10:30:08.000Z</time>
      </trkpt>
      <trkpt lat="47.16736" lon="-1.62381">
        <ele>69</ele>
        <time>2021-08-14T10:30:10.000Z</time>
      </trkpt>
      <trkpt lat="47.16731" lon="-1.62398">
        <ele>69</ele>
        <time>2021-08-14T10:30:12.000Z</time>
      </trkpt>
      <trkpt lat="47.16728" lon="-1.62416">
        <ele>69</ele>
        <time>2021-08-14T10:30:14.000Z</time>
      </trkpt>
      <trkpt lat="47.16725" lon="-1.62434">
        <ele>69</ele>
        <time>2021-08-14T10:30:16.000Z</time>
      </trkpt>
      <trkpt lat="47.16722" lon="-1.62452">
        <ele>69</ele>
        <time>2021-08-14T10:30:18.000Z</time>
      </trkpt>
      <trkpt lat="47.16718" lon="-1.62468">
        <ele>68</ele>
        <time>2021-08-14T10:30:20.000Z</time>
      </trkpt>
      <trkpt lat="47.16715" lon="-1.62486">
        <ele>68</ele>
        <time>2021-08-14T10:30:22.000Z</time>
      </trkpt>
      <trkpt lat="47.1672" lon="-1.62496">
        <ele>68</ele>
        <time>2021-08-14T10:30:24.000Z</time>
      </trkpt>
      <trkpt lat="47.16732" lon="-1.62499">
        <ele>68</ele>
        <time>2021-08-14T10:30:26.000Z</time>
      </trkpt>
      <trkpt lat="47.16741" lon="-1.62504">
        <ele>69</ele>
        <time>2021-08-14T10:30:28.000Z</time>
      </trkpt>
      <trkpt lat="47.16753" lon="-1.6251">
        <ele>69</ele>
        <time>2021-08-14T10:30:30.000Z</time>
      </trkpt>
      <trkpt lat="47.16765" lon="-1.62517">
        <ele>69</ele>
        <time>2021-08-14T10:30:32.000Z</time>
      </trkpt>
      <trkpt lat="47.16778" lon="-1.62525">
        <ele>69</ele>
        <time>2021-08-14T10:30:34.000Z</time>
      </trkpt>
      <trkpt lat="47.1679" lon="-1.62533">
        <ele>70</ele>
        <time>2021-08-14T10:30:36.000Z</time>
      </trkpt>
      <trkpt lat="47.16802" lon="-1.6254">
        <ele>70</ele>
        <time>2021-08-14T10:30:38.000Z</time>
      </trkpt>
      <trkpt lat="47.16813" lon="-1.62549">
        <ele>70</ele>
        <time>2021-08-14T10:30:40.000Z</time>
      </trkpt>
      <trkpt lat="47.16823" lon="-1.6256">
        <ele>70</ele>
        <time>2021-08-14T10:30:42.000Z</time>
      </trkpt>
      <trkpt lat="47.16831" lon="-1.62573">
        <ele>70</ele>
        <time>2021-08-14T10:30:44.000Z</time>
      </trkpt>
      <trkpt lat="47.16828" lon="-1.6259">
        <ele>70</ele>
        <time>2021-08-14T10:30:46.000Z</time>
      </trkpt>
      <trkpt lat="47.16819" lon="-1.62603">
        <ele>70</ele>
        <time>2021-08-14T10:30:48.000Z</time>
      </trkpt>
      <trkpt lat="47.1681" lon="-1.62617">
        <ele>70</ele>
        <time>2021-08-14T10:30:50.000Z</time>
      </trkpt>
      <trkpt lat="47.16802" lon="-1.62631">
        <ele>70</ele>
        <time>2021-08-14T10:30:52.000Z</time>
      </trkpt>
      <trkpt lat="47.16795" lon="-1.62644">
        <ele>70</ele>
        <time>2021-08-14T10:30:54.000Z</time>
      </trkpt>
      <trkpt lat="47.16788" lon="-1.62655">
        <ele>70</ele>
        <time>2021-08-14T10:30:56.000Z</time>
      </trkpt>
      <trkpt lat="47.1678" lon="-1.62664">
        <ele>72</ele>
        <time>2021-08-14T10:30:59.000Z</time>
      </trkpt>
    </trkseg>
  </trk>
</gpx>